﻿<?xml version="1.0" encoding="utf-8" standalone="yes"?>
<gpx version="1.0" creator="CanWay - http://www.canwaygps.com" xmlns:xsi="http://www.w3.org/2001/XMLSchema-instance" xmlns="http://www.topografix.com/GPX/1/0" xsi:schemaLocation="http://www.topografix.com/GPX/1/0 http://www.topografix.com/GPX/1/0/gpx.xsd">
<time>2023-05-14T21:29:56Z</time>
<bounds minlat="47.553737" minlon="8.521613" maxlat="47.699841" maxlon="8.635498" />
<trk>
<name>Schaffhausen-Tössegg-Murkathof-Eglisau</name>
<trkseg>
<trkpt lat="47.699809" lon="8.635454">
<ele>402.6</ele>
<time>2003-05-19T07:11:07Z</time>
<speed>0.0</speed>
</trkpt>
<trkpt lat="47.699841" lon="8.635429">
<ele>404.7</ele>
<time>2003-05-19T07:11:12Z</time>
<speed>0.0</speed>
</trkpt>
<trkpt lat="47.699840" lon="8.635442">
<ele>404.8</ele>
<time>2003-05-19T07:11:17Z</time>
<speed>0.0</speed>
</trkpt>
<trkpt lat="47.699789" lon="8.635465">
<ele>401.9</ele>
<time>2003-05-19T07:11:22Z</time>
<speed>0.3</speed>
</trkpt>
<trkpt lat="47.699796" lon="8.635484">
<ele>398.5</ele>
<time>2003-05-19T07:11:27Z</time>
<speed>0.0</speed>
</trkpt>
<trkpt lat="47.699791" lon="8.635471">
<ele>397.7</ele>
<time>2003-05-19T07:11:32Z</time>
<speed>0.0</speed>
</trkpt>
<trkpt lat="47.699785" lon="8.635456">
<ele>398.3</ele>
<time>2003-05-19T07:11:37Z</time>
<speed>0.0</speed>
</trkpt>
<trkpt lat="47.699785" lon="8.635456">
<ele>398.3</ele>
<time>2003-05-19T07:11:42Z</time>
<speed>0.0</speed>
</trkpt>
<trkpt lat="47.699785" lon="8.635456">
<ele>398.3</ele>
<time>2003-05-19T07:11:47Z</time>
<speed>0.0</speed>
</trkpt>
<trkpt lat="47.699792" lon="8.635458">
<ele>397.6</ele>
<time>2003-05-19T07:11:52Z</time>
<speed>0.0</speed>
</trkpt>
<trkpt lat="47.699792" lon="8.635458">
<ele>397.6</ele>
<time>2003-05-19T07:11:57Z</time>
<speed>0.0</speed>
</trkpt>
<trkpt lat="47.699792" lon="8.635458">
<ele>397.6</ele>
<time>2003-05-19T07:12:02Z</time>
<speed>0.0</speed>
</trkpt>
<trkpt lat="47.699792" lon="8.635458">
<ele>397.6</ele>
<time>2003-05-19T07:12:07Z</time>
<speed>0.0</speed>
</trkpt>
<trkpt lat="47.699792" lon="8.635458">
<ele>397.6</ele>
<time>2003-05-19T07:12:12Z</time>
<speed>0.0</speed>
</trkpt>
<trkpt lat="47.699792" lon="8.635458">
<ele>397.6</ele>
<time>2003-05-19T07:12:17Z</time>
<speed>0.0</speed>
</trkpt>
<trkpt lat="47.699792" lon="8.635458">
<ele>397.6</ele>
<time>2003-05-19T07:12:22Z</time>
<speed>0.0</speed>
</trkpt>
<trkpt lat="47.699792" lon="8.635458">
<ele>397.6</ele>
<time>2003-05-19T07:12:27Z</time>
<speed>0.0</speed>
</trkpt>
<trkpt lat="47.699798" lon="8.635460">
<ele>396.9</ele>
<time>2003-05-19T07:12:32Z</time>
<speed>0.0</speed>
</trkpt>
<trkpt lat="47.699798" lon="8.635460">
<ele>396.9</ele>
<time>2003-05-19T07:12:37Z</time>
<speed>0.3</speed>
</trkpt>
<trkpt lat="47.699779" lon="8.635456">
<ele>397.5</ele>
<time>2003-05-19T07:12:42Z</time>
<speed>0.6</speed>
</trkpt>
<trkpt lat="47.699707" lon="8.635485">
<ele>396.7</ele>
<time>2003-05-19T07:12:47Z</time>
<speed>0.3</speed>
</trkpt>
<trkpt lat="47.699643" lon="8.635490">
<ele>395.0</ele>
<time>2003-05-19T07:12:52Z</time>
<speed>0.0</speed>
</trkpt>
<trkpt lat="47.699610" lon="8.635498">
<ele>395.6</ele>
<time>2003-05-19T07:12:57Z</time>
<speed>0.3</speed>
</trkpt>
<trkpt lat="47.699572" lon="8.635490">
<ele>396.8</ele>
<time>2003-05-19T07:13:02Z</time>
<speed>0.6</speed>
</trkpt>
<trkpt lat="47.699535" lon="8.635455">
<ele>397.8</ele>
<time>2003-05-19T07:13:07Z</time>
<speed>0.3</speed>
</trkpt>
<trkpt lat="47.699468" lon="8.635402">
<ele>399.2</ele>
<time>2003-05-19T07:13:12Z</time>
<speed>1.1</speed>
</trkpt>
<trkpt lat="47.699424" lon="8.635394">
<ele>399.7</ele>
<time>2003-05-19T07:13:17Z</time>
<speed>0.6</speed>
</trkpt>
<trkpt lat="47.699367" lon="8.635368">
<ele>401.3</ele>
<time>2003-05-19T07:13:22Z</time>
<speed>0.3</speed>
</trkpt>
<trkpt lat="47.699298" lon="8.635343">
<ele>401.5</ele>
<time>2003-05-19T07:13:27Z</time>
<speed>0.8</speed>
</trkpt>
<trkpt lat="47.699225" lon="8.635290">
<ele>402.2</ele>
<time>2003-05-19T07:13:32Z</time>
<speed>1.1</speed>
</trkpt>
<trkpt lat="47.699145" lon="8.635234">
<ele>403.5</ele>
<time>2003-05-19T07:13:37Z</time>
<speed>0.8</speed>
</trkpt>
<trkpt lat="47.699073" lon="8.635073">
<ele>404.0</ele>
<time>2003-05-19T07:13:42Z</time>
<speed>1.1</speed>
</trkpt>
<trkpt lat="47.699049" lon="8.634836">
<ele>397.0</ele>
<time>2003-05-19T07:13:47Z</time>
<speed>1.1</speed>
</trkpt>
<trkpt lat="47.699026" lon="8.634791">
<ele>398.0</ele>
<time>2003-05-19T07:13:52Z</time>
<speed>0.0</speed>
</trkpt>
<trkpt lat="47.699013" lon="8.634789">
<ele>397.9</ele>
<time>2003-05-19T07:13:57Z</time>
<speed>0.3</speed>
</trkpt>
<trkpt lat="47.698977" lon="8.634770">
<ele>397.6</ele>
<time>2003-05-19T07:14:02Z</time>
<speed>0.0</speed>
</trkpt>
<trkpt lat="47.698888" lon="8.634756">
<ele>397.0</ele>
<time>2003-05-19T07:14:07Z</time>
<speed>0.3</speed>
</trkpt>
<trkpt lat="47.698802" lon="8.634715">
<ele>396.3</ele>
<time>2003-05-19T07:14:12Z</time>
<speed>0.8</speed>
</trkpt>
<trkpt lat="47.698723" lon="8.634647">
<ele>397.5</ele>
<time>2003-05-19T07:14:17Z</time>
<speed>0.8</speed>
</trkpt>
<trkpt lat="47.698658" lon="8.634567">
<ele>398.7</ele>
<time>2003-05-19T07:14:22Z</time>
<speed>0.6</speed>
</trkpt>
<trkpt lat="47.698608" lon="8.634544">
<ele>399.7</ele>
<time>2003-05-19T07:14:27Z</time>
<speed>0.6</speed>
</trkpt>
<trkpt lat="47.698578" lon="8.634511">
<ele>400.1</ele>
<time>2003-05-19T07:14:32Z</time>
<speed>0.3</speed>
</trkpt>
<trkpt lat="47.698521" lon="8.634501">
<ele>400.4</ele>
<time>2003-05-19T07:14:37Z</time>
<speed>0.3</speed>
</trkpt>
<trkpt lat="47.698464" lon="8.634382">
<ele>402.1</ele>
<time>2003-05-19T07:14:42Z</time>
<speed>0.6</speed>
</trkpt>
<trkpt lat="47.698399" lon="8.634302">
<ele>403.3</ele>
<time>2003-05-19T07:14:47Z</time>
<speed>0.8</speed>
</trkpt>
<trkpt lat="47.698333" lon="8.634237">
<ele>403.1</ele>
<time>2003-05-19T07:14:52Z</time>
<speed>0.8</speed>
</trkpt>
<trkpt lat="47.698272" lon="8.634199">
<ele>404.0</ele>
<time>2003-05-19T07:14:57Z</time>
<speed>0.8</speed>
</trkpt>
<trkpt lat="47.698196" lon="8.634187">
<ele>403.5</ele>
<time>2003-05-19T07:15:02Z</time>
<speed>1.1</speed>
</trkpt>
<trkpt lat="47.698145" lon="8.634192">
<ele>403.3</ele>
<time>2003-05-19T07:15:07Z</time>
<speed>0.6</speed>
</trkpt>
<trkpt lat="47.698102" lon="8.634158">
<ele>403.6</ele>
<time>2003-05-19T07:15:12Z</time>
<speed>0.6</speed>
</trkpt>
<trkpt lat="47.698036" lon="8.634093">
<ele>403.5</ele>
<time>2003-05-19T07:15:17Z</time>
<speed>0.6</speed>
</trkpt>
<trkpt lat="47.697985" lon="8.634002">
<ele>404.6</ele>
<time>2003-05-19T07:15:22Z</time>
<speed>0.8</speed>
</trkpt>
<trkpt lat="47.697934" lon="8.633992">
<ele>405.7</ele>
<time>2003-05-19T07:15:27Z</time>
<speed>0.6</speed>
</trkpt>
<trkpt lat="47.697878" lon="8.633954">
<ele>407.3</ele>
<time>2003-05-19T07:15:32Z</time>
<speed>0.6</speed>
</trkpt>
<trkpt lat="47.697818" lon="8.633887">
<ele>409.4</ele>
<time>2003-05-19T07:15:37Z</time>
<speed>0.6</speed>
</trkpt>
<trkpt lat="47.697761" lon="8.633877">
<ele>409.7</ele>
<time>2003-05-19T07:15:42Z</time>
<speed>1.1</speed>
</trkpt>
<trkpt lat="47.697738" lon="8.633847">
<ele>409.4</ele>
<time>2003-05-19T07:15:47Z</time>
<speed>0.6</speed>
</trkpt>
<trkpt lat="47.697688" lon="8.633826">
<ele>409.0</ele>
<time>2003-05-19T07:15:52Z</time>
<speed>0.8</speed>
</trkpt>
<trkpt lat="47.697633" lon="8.633789">
<ele>409.1</ele>
<time>2003-05-19T07:15:57Z</time>
<speed>1.1</speed>
</trkpt>
<trkpt lat="47.697576" lon="8.633685">
<ele>409.5</ele>
<time>2003-05-19T07:16:02Z</time>
<speed>0.8</speed>
</trkpt>
<trkpt lat="47.697492" lon="8.633603">
<ele>409.8</ele>
<time>2003-05-19T07:16:07Z</time>
<speed>0.8</speed>
</trkpt>
<trkpt lat="47.697417" lon="8.633561">
<ele>412.0</ele>
<time>2003-05-19T07:16:12Z</time>
<speed>0.8</speed>
</trkpt>
<trkpt lat="47.697344" lon="8.633505">
<ele>414.1</ele>
<time>2003-05-19T07:16:17Z</time>
<speed>0.8</speed>
</trkpt>
<trkpt lat="47.697279" lon="8.633489">
<ele>417.9</ele>
<time>2003-05-19T07:16:22Z</time>
<speed>0.8</speed>
</trkpt>
<trkpt lat="47.697257" lon="8.633510">
<ele>420.1</ele>
<time>2003-05-19T07:16:27Z</time>
<speed>0.0</speed>
</trkpt>
<trkpt lat="47.697262" lon="8.633523">
<ele>421.0</ele>
<time>2003-05-19T07:16:32Z</time>
<speed>0.0</speed>
</trkpt>
<trkpt lat="47.697262" lon="8.633523">
<ele>421.0</ele>
<time>2003-05-19T07:16:37Z</time>
<speed>0.0</speed>
</trkpt>
<trkpt lat="47.697262" lon="8.633523">
<ele>421.0</ele>
<time>2003-05-19T07:16:42Z</time>
<speed>0.0</speed>
</trkpt>
<trkpt lat="47.697267" lon="8.633536">
<ele>421.8</ele>
<time>2003-05-19T07:16:47Z</time>
<speed>0.0</speed>
</trkpt>
<trkpt lat="47.697250" lon="8.633506">
<ele>422.2</ele>
<time>2003-05-19T07:16:52Z</time>
<speed>0.3</speed>
</trkpt>
<trkpt lat="47.697205" lon="8.633434">
<ele>420.0</ele>
<time>2003-05-19T07:16:57Z</time>
<speed>0.6</speed>
</trkpt>
<trkpt lat="47.697137" lon="8.633366">
<ele>412.0</ele>
<time>2003-05-19T07:17:02Z</time>
<speed>1.1</speed>
</trkpt>
<trkpt lat="47.697049" lon="8.633352">
<ele>411.5</ele>
<time>2003-05-19T07:17:07Z</time>
<speed>0.6</speed>
</trkpt>
<trkpt lat="47.696949" lon="8.633404">
<ele>410.7</ele>
<time>2003-05-19T07:17:12Z</time>
<speed>0.8</speed>
</trkpt>
<trkpt lat="47.696871" lon="8.633433">
<ele>409.2</ele>
<time>2003-05-19T07:17:17Z</time>
<speed>0.8</speed>
</trkpt>
<trkpt lat="47.696805" lon="8.633480">
<ele>406.4</ele>
<time>2003-05-19T07:17:22Z</time>
<speed>0.8</speed>
</trkpt>
<trkpt lat="47.696745" lon="8.633512">
<ele>405.7</ele>
<time>2003-05-19T07:17:27Z</time>
<speed>1.1</speed>
</trkpt>
<trkpt lat="47.696687" lon="8.633530">
<ele>404.8</ele>
<time>2003-05-19T07:17:32Z</time>
<speed>0.8</speed>
</trkpt>
<trkpt lat="47.696632" lon="8.633575">
<ele>404.9</ele>
<time>2003-05-19T07:17:37Z</time>
<speed>0.6</speed>
</trkpt>
<trkpt lat="47.696570" lon="8.633534">
<ele>407.2</ele>
<time>2003-05-19T07:17:42Z</time>
<speed>0.6</speed>
</trkpt>
<trkpt lat="47.696527" lon="8.633404">
<ele>408.8</ele>
<time>2003-05-19T07:17:47Z</time>
<speed>0.8</speed>
</trkpt>
<trkpt lat="47.696505" lon="8.633358">
<ele>409.7</ele>
<time>2003-05-19T07:17:52Z</time>
<speed>0.6</speed>
</trkpt>
<trkpt lat="47.696462" lon="8.633384">
<ele>415.4</ele>
<time>2003-05-19T07:17:57Z</time>
<speed>1.1</speed>
</trkpt>
<trkpt lat="47.696405" lon="8.633361">
<ele>415.7</ele>
<time>2003-05-19T07:18:02Z</time>
<speed>1.1</speed>
</trkpt>
<trkpt lat="47.696343" lon="8.633335">
<ele>416.6</ele>
<time>2003-05-19T07:18:07Z</time>
<speed>0.8</speed>
</trkpt>
<trkpt lat="47.696332" lon="8.633307">
<ele>416.4</ele>
<time>2003-05-19T07:18:12Z</time>
<speed>0.3</speed>
</trkpt>
<trkpt lat="47.696297" lon="8.633260">
<ele>417.2</ele>
<time>2003-05-19T07:18:17Z</time>
<speed>0.8</speed>
</trkpt>
<trkpt lat="47.696248" lon="8.633225">
<ele>416.7</ele>
<time>2003-05-19T07:18:22Z</time>
<speed>1.1</speed>
</trkpt>
<trkpt lat="47.696217" lon="8.633206">
<ele>417.2</ele>
<time>2003-05-19T07:18:27Z</time>
<speed>0.6</speed>
</trkpt>
<trkpt lat="47.696168" lon="8.633185">
<ele>416.8</ele>
<time>2003-05-19T07:18:32Z</time>
<speed>0.8</speed>
</trkpt>
<trkpt lat="47.696085" lon="8.633171">
<ele>417.0</ele>
<time>2003-05-19T07:18:37Z</time>
<speed>1.7</speed>
</trkpt>
<trkpt lat="47.695966" lon="8.633153">
<ele>415.6</ele>
<time>2003-05-19T07:18:42Z</time>
<speed>0.8</speed>
</trkpt>
<trkpt lat="47.695865" lon="8.633137">
<ele>415.0</ele>
<time>2003-05-19T07:18:47Z</time>
<speed>0.6</speed>
</trkpt>
<trkpt lat="47.695792" lon="8.632974">
<ele>416.9</ele>
<time>2003-05-19T07:18:52Z</time>
<speed>1.1</speed>
</trkpt>
<trkpt lat="47.695757" lon="8.632832">
<ele>417.7</ele>
<time>2003-05-19T07:18:57Z</time>
<speed>1.4</speed>
</trkpt>
<trkpt lat="47.695729" lon="8.632774">
<ele>417.9</ele>
<time>2003-05-19T07:19:02Z</time>
<speed>0.6</speed>
</trkpt>
<trkpt lat="47.695685" lon="8.632781">
<ele>417.0</ele>
<time>2003-05-19T07:19:07Z</time>
<speed>0.8</speed>
</trkpt>
<trkpt lat="47.695622" lon="8.632758">
<ele>416.5</ele>
<time>2003-05-19T07:19:12Z</time>
<speed>1.1</speed>
</trkpt>
<trkpt lat="47.695545" lon="8.632774">
<ele>414.9</ele>
<time>2003-05-19T07:19:17Z</time>
<speed>1.1</speed>
</trkpt>
<trkpt lat="47.695479" lon="8.632803">
<ele>414.8</ele>
<time>2003-05-19T07:19:22Z</time>
<speed>0.8</speed>
</trkpt>
<trkpt lat="47.695399" lon="8.632844">
<ele>414.8</ele>
<time>2003-05-19T07:19:27Z</time>
<speed>0.8</speed>
</trkpt>
<trkpt lat="47.695353" lon="8.632847">
<ele>416.7</ele>
<time>2003-05-19T07:19:32Z</time>
<speed>0.3</speed>
</trkpt>
<trkpt lat="47.695336" lon="8.632817">
<ele>417.1</ele>
<time>2003-05-19T07:19:37Z</time>
<speed>0.8</speed>
</trkpt>
<trkpt lat="47.695341" lon="8.632657">
<ele>416.6</ele>
<time>2003-05-19T07:19:42Z</time>
<speed>1.4</speed>
</trkpt>
<trkpt lat="47.695329" lon="8.632561">
<ele>416.4</ele>
<time>2003-05-19T07:19:47Z</time>
<speed>1.1</speed>
</trkpt>
<trkpt lat="47.695323" lon="8.632480">
<ele>415.8</ele>
<time>2003-05-19T07:19:52Z</time>
<speed>0.3</speed>
</trkpt>
<trkpt lat="47.695320" lon="8.632346">
<ele>414.7</ele>
<time>2003-05-19T07:19:57Z</time>
<speed>0.0</speed>
</trkpt>
<trkpt lat="47.695307" lon="8.632342">
<ele>416.0</ele>
<time>2003-05-19T07:20:02Z</time>
<speed>0.3</speed>
</trkpt>
<trkpt lat="47.695323" lon="8.632386">
<ele>415.7</ele>
<time>2003-05-19T07:20:07Z</time>
<speed>0.6</speed>
</trkpt>
<trkpt lat="47.695362" lon="8.632396">
<ele>413.1</ele>
<time>2003-05-19T07:20:12Z</time>
<speed>0.8</speed>
</trkpt>
<trkpt lat="47.695383" lon="8.632311">
<ele>408.3</ele>
<time>2003-05-19T07:20:17Z</time>
<speed>0.3</speed>
</trkpt>
<trkpt lat="47.695253" lon="8.632045">
<ele>399.9</ele>
<time>2003-05-19T07:20:22Z</time>
<speed>0.8</speed>
</trkpt>
<trkpt lat="47.695292" lon="8.631850">
<ele>399.9</ele>
<time>2003-05-19T07:20:27Z</time>
<speed>0.6</speed>
</trkpt>
<trkpt lat="47.695323" lon="8.631644">
<ele>406.2</ele>
<time>2003-05-19T07:20:32Z</time>
<speed>1.4</speed>
</trkpt>
<trkpt lat="47.695324" lon="8.631535">
<ele>407.5</ele>
<time>2003-05-19T07:20:37Z</time>
<speed>1.1</speed>
</trkpt>
<trkpt lat="47.695336" lon="8.631454">
<ele>409.0</ele>
<time>2003-05-19T07:20:42Z</time>
<speed>0.8</speed>
</trkpt>
<trkpt lat="47.695356" lon="8.631350">
<ele>408.3</ele>
<time>2003-05-19T07:20:47Z</time>
<speed>1.4</speed>
</trkpt>
<trkpt lat="47.695361" lon="8.631267">
<ele>410.5</ele>
<time>2003-05-19T07:20:52Z</time>
<speed>1.1</speed>
</trkpt>
<trkpt lat="47.695379" lon="8.631188">
<ele>411.4</ele>
<time>2003-05-19T07:20:57Z</time>
<speed>1.1</speed>
</trkpt>
<trkpt lat="47.695405" lon="8.631098">
<ele>411.5</ele>
<time>2003-05-19T07:21:02Z</time>
<speed>1.1</speed>
</trkpt>
<trkpt lat="47.695416" lon="8.631032">
<ele>411.7</ele>
<time>2003-05-19T07:21:07Z</time>
<speed>0.6</speed>
</trkpt>
<trkpt lat="47.695387" lon="8.630987">
<ele>411.9</ele>
<time>2003-05-19T07:21:12Z</time>
<speed>0.8</speed>
</trkpt>
<trkpt lat="47.695365" lon="8.630943">
<ele>411.5</ele>
<time>2003-05-19T07:21:17Z</time>
<speed>0.0</speed>
</trkpt>
<trkpt lat="47.695323" lon="8.630909">
<ele>411.7</ele>
<time>2003-05-19T07:21:22Z</time>
<speed>0.6</speed>
</trkpt>
<trkpt lat="47.695296" lon="8.630837">
<ele>411.7</ele>
<time>2003-05-19T07:21:27Z</time>
<speed>1.1</speed>
</trkpt>
<trkpt lat="47.695303" lon="8.630745">
<ele>411.0</ele>
<time>2003-05-19T07:21:32Z</time>
<speed>1.4</speed>
</trkpt>
<trkpt lat="47.695309" lon="8.630651">
<ele>411.7</ele>
<time>2003-05-19T07:21:37Z</time>
<speed>0.8</speed>
</trkpt>
<trkpt lat="47.695296" lon="8.630552">
<ele>413.0</ele>
<time>2003-05-19T07:21:42Z</time>
<speed>0.8</speed>
</trkpt>
<trkpt lat="47.695276" lon="8.630465">
<ele>415.1</ele>
<time>2003-05-19T07:21:47Z</time>
<speed>1.1</speed>
</trkpt>
<trkpt lat="47.695255" lon="8.630376">
<ele>418.5</ele>
<time>2003-05-19T07:21:52Z</time>
<speed>1.1</speed>
</trkpt>
<trkpt lat="47.695222" lon="8.630287">
<ele>420.5</ele>
<time>2003-05-19T07:21:57Z</time>
<speed>1.1</speed>
</trkpt>
<trkpt lat="47.695216" lon="8.630191">
<ele>421.1</ele>
<time>2003-05-19T07:22:02Z</time>
<speed>0.8</speed>
</trkpt>
<trkpt lat="47.695190" lon="8.630106">
<ele>421.0</ele>
<time>2003-05-19T07:22:07Z</time>
<speed>1.1</speed>
</trkpt>
<trkpt lat="47.695159" lon="8.630006">
<ele>421.5</ele>
<time>2003-05-19T07:22:12Z</time>
<speed>1.1</speed>
</trkpt>
<trkpt lat="47.695143" lon="8.629947">
<ele>423.1</ele>
<time>2003-05-19T07:22:17Z</time>
<speed>1.4</speed>
</trkpt>
<trkpt lat="47.695116" lon="8.629875">
<ele>423.1</ele>
<time>2003-05-19T07:22:22Z</time>
<speed>1.7</speed>
</trkpt>
<trkpt lat="47.695097" lon="8.629790">
<ele>423.8</ele>
<time>2003-05-19T07:22:27Z</time>
<speed>1.4</speed>
</trkpt>
<trkpt lat="47.695089" lon="8.629707">
<ele>424.5</ele>
<time>2003-05-19T07:22:32Z</time>
<speed>1.1</speed>
</trkpt>
<trkpt lat="47.695077" lon="8.629611">
<ele>424.4</ele>
<time>2003-05-19T07:22:37Z</time>
<speed>1.1</speed>
</trkpt>
<trkpt lat="47.695072" lon="8.629517">
<ele>423.6</ele>
<time>2003-05-19T07:22:42Z</time>
<speed>0.8</speed>
</trkpt>
<trkpt lat="47.695077" lon="8.629436">
<ele>424.4</ele>
<time>2003-05-19T07:22:47Z</time>
<speed>1.1</speed>
</trkpt>
<trkpt lat="47.695057" lon="8.629351">
<ele>425.0</ele>
<time>2003-05-19T07:22:52Z</time>
<speed>1.4</speed>
</trkpt>
<trkpt lat="47.695013" lon="8.629264">
<ele>424.1</ele>
<time>2003-05-19T07:22:57Z</time>
<speed>1.7</speed>
</trkpt>
<trkpt lat="47.694955" lon="8.629188">
<ele>423.3</ele>
<time>2003-05-19T07:23:02Z</time>
<speed>1.4</speed>
</trkpt>
<trkpt lat="47.694901" lon="8.629125">
<ele>423.2</ele>
<time>2003-05-19T07:23:07Z</time>
<speed>1.4</speed>
</trkpt>
<trkpt lat="47.694883" lon="8.629027">
<ele>423.8</ele>
<time>2003-05-19T07:23:12Z</time>
<speed>1.4</speed>
</trkpt>
<trkpt lat="47.694875" lon="8.628944">
<ele>424.5</ele>
<time>2003-05-19T07:23:17Z</time>
<speed>0.8</speed>
</trkpt>
<trkpt lat="47.694835" lon="8.628868">
<ele>425.8</ele>
<time>2003-05-19T07:23:22Z</time>
<speed>0.8</speed>
</trkpt>
<trkpt lat="47.694809" lon="8.628797">
<ele>425.9</ele>
<time>2003-05-19T07:23:27Z</time>
<speed>0.8</speed>
</trkpt>
<trkpt lat="47.694814" lon="8.628715">
<ele>426.7</ele>
<time>2003-05-19T07:23:32Z</time>
<speed>1.4</speed>
</trkpt>
<trkpt lat="47.694790" lon="8.628619">
<ele>425.1</ele>
<time>2003-05-19T07:23:37Z</time>
<speed>1.4</speed>
</trkpt>
<trkpt lat="47.694769" lon="8.628532">
<ele>427.1</ele>
<time>2003-05-19T07:23:42Z</time>
<speed>1.1</speed>
</trkpt>
<trkpt lat="47.694749" lon="8.628460">
<ele>427.9</ele>
<time>2003-05-19T07:23:47Z</time>
<speed>1.4</speed>
</trkpt>
<trkpt lat="47.694721" lon="8.628387">
<ele>429.3</ele>
<time>2003-05-19T07:23:52Z</time>
<speed>1.1</speed>
</trkpt>
<trkpt lat="47.694681" lon="8.628311">
<ele>430.6</ele>
<time>2003-05-19T07:23:57Z</time>
<speed>1.4</speed>
</trkpt>
<trkpt lat="47.694644" lon="8.628213">
<ele>429.0</ele>
<time>2003-05-19T07:24:02Z</time>
<speed>1.4</speed>
</trkpt>
<trkpt lat="47.694620" lon="8.628132">
<ele>426.1</ele>
<time>2003-05-19T07:24:07Z</time>
<speed>1.1</speed>
</trkpt>
<trkpt lat="47.694600" lon="8.628049">
<ele>425.3</ele>
<time>2003-05-19T07:24:12Z</time>
<speed>1.1</speed>
</trkpt>
<trkpt lat="47.694567" lon="8.627975">
<ele>426.0</ele>
<time>2003-05-19T07:24:17Z</time>
<speed>1.4</speed>
</trkpt>
<trkpt lat="47.694547" lon="8.627890">
<ele>426.6</ele>
<time>2003-05-19T07:24:22Z</time>
<speed>1.1</speed>
</trkpt>
<trkpt lat="47.694520" lon="8.627816">
<ele>428.1</ele>
<time>2003-05-19T07:24:27Z</time>
<speed>1.1</speed>
</trkpt>
<trkpt lat="47.694512" lon="8.627748">
<ele>427.5</ele>
<time>2003-05-19T07:24:32Z</time>
<speed>1.1</speed>
</trkpt>
<trkpt lat="47.694473" lon="8.627674">
<ele>427.4</ele>
<time>2003-05-19T07:24:37Z</time>
<speed>1.1</speed>
</trkpt>
<trkpt lat="47.694420" lon="8.627596">
<ele>428.7</ele>
<time>2003-05-19T07:24:42Z</time>
<speed>1.4</speed>
</trkpt>
<trkpt lat="47.694374" lon="8.627520">
<ele>429.3</ele>
<time>2003-05-19T07:24:47Z</time>
<speed>0.6</speed>
</trkpt>
<trkpt lat="47.694342" lon="8.627435">
<ele>428.5</ele>
<time>2003-05-19T07:24:52Z</time>
<speed>1.1</speed>
</trkpt>
<trkpt lat="47.694303" lon="8.627364">
<ele>427.0</ele>
<time>2003-05-19T07:24:57Z</time>
<speed>0.8</speed>
</trkpt>
<trkpt lat="47.694291" lon="8.627269">
<ele>425.5</ele>
<time>2003-05-19T07:25:02Z</time>
<speed>1.1</speed>
</trkpt>
<trkpt lat="47.694265" lon="8.627184">
<ele>425.4</ele>
<time>2003-05-19T07:25:07Z</time>
<speed>0.8</speed>
</trkpt>
<trkpt lat="47.694210" lon="8.627148">
<ele>425.6</ele>
<time>2003-05-19T07:25:12Z</time>
<speed>0.8</speed>
</trkpt>
<trkpt lat="47.694144" lon="8.627097">
<ele>425.5</ele>
<time>2003-05-19T07:25:17Z</time>
<speed>0.6</speed>
</trkpt>
<trkpt lat="47.694125" lon="8.627095">
<ele>424.7</ele>
<time>2003-05-19T07:25:22Z</time>
<speed>0.3</speed>
</trkpt>
<trkpt lat="47.694140" lon="8.627166">
<ele>423.2</ele>
<time>2003-05-19T07:25:27Z</time>
<speed>1.1</speed>
</trkpt>
<trkpt lat="47.694186" lon="8.627244">
<ele>421.2</ele>
<time>2003-05-19T07:25:32Z</time>
<speed>1.1</speed>
</trkpt>
<trkpt lat="47.694253" lon="8.627217">
<ele>419.9</ele>
<time>2003-05-19T07:25:37Z</time>
<speed>1.1</speed>
</trkpt>
<trkpt lat="47.694294" lon="8.627104">
<ele>418.5</ele>
<time>2003-05-19T07:25:42Z</time>
<speed>1.1</speed>
</trkpt>
<trkpt lat="47.694300" lon="8.627010">
<ele>419.2</ele>
<time>2003-05-19T07:25:47Z</time>
<speed>0.8</speed>
</trkpt>
<trkpt lat="47.694287" lon="8.626912">
<ele>420.5</ele>
<time>2003-05-19T07:25:52Z</time>
<speed>1.1</speed>
</trkpt>
<trkpt lat="47.694248" lon="8.626823">
<ele>421.7</ele>
<time>2003-05-19T07:25:57Z</time>
<speed>0.8</speed>
</trkpt>
<trkpt lat="47.694234" lon="8.626753">
<ele>421.8</ele>
<time>2003-05-19T07:26:02Z</time>
<speed>0.8</speed>
</trkpt>
<trkpt lat="47.694227" lon="8.626670">
<ele>422.5</ele>
<time>2003-05-19T07:26:07Z</time>
<speed>1.1</speed>
</trkpt>
<trkpt lat="47.694239" lon="8.626591">
<ele>422.6</ele>
<time>2003-05-19T07:26:12Z</time>
<speed>0.6</speed>
</trkpt>
<trkpt lat="47.694216" lon="8.626482">
<ele>420.9</ele>
<time>2003-05-19T07:26:17Z</time>
<speed>1.1</speed>
</trkpt>
<trkpt lat="47.694204" lon="8.626385">
<ele>420.8</ele>
<time>2003-05-19T07:26:22Z</time>
<speed>0.8</speed>
</trkpt>
<trkpt lat="47.694204" lon="8.626291">
<ele>420.8</ele>
<time>2003-05-19T07:26:27Z</time>
<speed>1.1</speed>
</trkpt>
<trkpt lat="47.694197" lon="8.626208">
<ele>421.5</ele>
<time>2003-05-19T07:26:32Z</time>
<speed>1.1</speed>
</trkpt>
<trkpt lat="47.694194" lon="8.626090">
<ele>419.1</ele>
<time>2003-05-19T07:26:37Z</time>
<speed>0.8</speed>
</trkpt>
<trkpt lat="47.694141" lon="8.626125">
<ele>416.3</ele>
<time>2003-05-19T07:26:42Z</time>
<speed>0.8</speed>
</trkpt>
<trkpt lat="47.694080" lon="8.626185">
<ele>414.4</ele>
<time>2003-05-19T07:26:47Z</time>
<speed>0.8</speed>
</trkpt>
<trkpt lat="47.694044" lon="8.626247">
<ele>414.0</ele>
<time>2003-05-19T07:26:52Z</time>
<speed>0.8</speed>
</trkpt>
<trkpt lat="47.694031" lon="8.626341">
<ele>412.6</ele>
<time>2003-05-19T07:26:57Z</time>
<speed>1.1</speed>
</trkpt>
<trkpt lat="47.694032" lon="8.626424">
<ele>411.1</ele>
<time>2003-05-19T07:27:02Z</time>
<speed>0.8</speed>
</trkpt>
<trkpt lat="47.693989" lon="8.626499">
<ele>410.1</ele>
<time>2003-05-19T07:27:07Z</time>
<speed>1.1</speed>
</trkpt>
<trkpt lat="47.693964" lon="8.626576">
<ele>409.9</ele>
<time>2003-05-19T07:27:12Z</time>
<speed>1.1</speed>
</trkpt>
<trkpt lat="47.693933" lon="8.626666">
<ele>409.0</ele>
<time>2003-05-19T07:27:17Z</time>
<speed>1.1</speed>
</trkpt>
<trkpt lat="47.693933" lon="8.626762">
<ele>407.7</ele>
<time>2003-05-19T07:27:22Z</time>
<speed>1.1</speed>
</trkpt>
<trkpt lat="47.693915" lon="8.626842">
<ele>406.8</ele>
<time>2003-05-19T07:27:27Z</time>
<speed>1.1</speed>
</trkpt>
<trkpt lat="47.693902" lon="8.626934">
<ele>406.8</ele>
<time>2003-05-19T07:27:32Z</time>
<speed>1.1</speed>
</trkpt>
<trkpt lat="47.693885" lon="8.627000">
<ele>405.8</ele>
<time>2003-05-19T07:27:37Z</time>
<speed>0.6</speed>
</trkpt>
<trkpt lat="47.693872" lon="8.626998">
<ele>405.7</ele>
<time>2003-05-19T07:27:42Z</time>
<speed>0.3</speed>
</trkpt>
<trkpt lat="47.693845" lon="8.627020">
<ele>405.8</ele>
<time>2003-05-19T07:27:47Z</time>
<speed>0.6</speed>
</trkpt>
<trkpt lat="47.693817" lon="8.627042">
<ele>405.8</ele>
<time>2003-05-19T07:27:52Z</time>
<speed>0.6</speed>
</trkpt>
<trkpt lat="47.693785" lon="8.627049">
<ele>406.4</ele>
<time>2003-05-19T07:27:58Z</time>
<speed>0.3</speed>
</trkpt>
<trkpt lat="47.693797" lon="8.627051">
<ele>406.5</ele>
<time>2003-05-19T07:28:03Z</time>
<speed>0.3</speed>
</trkpt>
<trkpt lat="47.693764" lon="8.627057">
<ele>408.5</ele>
<time>2003-05-19T07:28:08Z</time>
<speed>0.3</speed>
</trkpt>
<trkpt lat="47.693743" lon="8.627064">
<ele>410.6</ele>
<time>2003-05-19T07:28:13Z</time>
<speed>0.6</speed>
</trkpt>
<trkpt lat="47.693698" lon="8.627054">
<ele>412.5</ele>
<time>2003-05-19T07:28:19Z</time>
<speed>0.6</speed>
</trkpt>
<trkpt lat="47.693651" lon="8.626996">
<ele>399.7</ele>
<time>2003-05-19T07:28:24Z</time>
<speed>0.8</speed>
</trkpt>
<trkpt lat="47.693585" lon="8.626948">
<ele>396.9</ele>
<time>2003-05-19T07:28:29Z</time>
<speed>0.6</speed>
</trkpt>
<trkpt lat="47.693573" lon="8.626933">
<ele>396.7</ele>
<time>2003-05-19T07:28:34Z</time>
<speed>0.3</speed>
</trkpt>
<trkpt lat="47.693557" lon="8.626905">
<ele>395.7</ele>
<time>2003-05-19T07:28:39Z</time>
<speed>0.3</speed>
</trkpt>
<trkpt lat="47.693533" lon="8.626873">
<ele>396.7</ele>
<time>2003-05-19T07:28:44Z</time>
<speed>0.6</speed>
</trkpt>
<trkpt lat="47.693503" lon="8.626855">
<ele>395.8</ele>
<time>2003-05-19T07:28:49Z</time>
<speed>0.8</speed>
</trkpt>
<trkpt lat="47.693453" lon="8.626849">
<ele>394.1</ele>
<time>2003-05-19T07:28:54Z</time>
<speed>0.6</speed>
</trkpt>
<trkpt lat="47.693438" lon="8.626874">
<ele>394.2</ele>
<time>2003-05-19T07:28:59Z</time>
<speed>0.0</speed>
</trkpt>
<trkpt lat="47.693448" lon="8.626917">
<ele>393.2</ele>
<time>2003-05-19T07:29:04Z</time>
<speed>0.3</speed>
</trkpt>
<trkpt lat="47.693440" lon="8.626942">
<ele>394.0</ele>
<time>2003-05-19T07:29:09Z</time>
<speed>0.0</speed>
</trkpt>
<trkpt lat="47.693146" lon="8.626918">
<ele>395.3</ele>
<time>2003-05-19T07:29:57Z</time>
<speed>0.0</speed>
</trkpt>
<trkpt lat="47.692919" lon="8.626707">
<ele>394.0</ele>
<time>2003-05-19T07:30:02Z</time>
<speed>0.8</speed>
</trkpt>
<trkpt lat="47.692922" lon="8.626588">
<ele>392.4</ele>
<time>2003-05-19T07:30:07Z</time>
<speed>0.8</speed>
</trkpt>
<trkpt lat="47.692900" lon="8.626530">
<ele>393.2</ele>
<time>2003-05-19T07:30:12Z</time>
<speed>0.8</speed>
</trkpt>
<trkpt lat="47.692932" lon="8.626572">
<ele>385.9</ele>
<time>2003-05-19T07:30:17Z</time>
<speed>1.1</speed>
</trkpt>
<trkpt lat="47.692925" lon="8.626489">
<ele>386.6</ele>
<time>2003-05-19T07:30:22Z</time>
<speed>1.1</speed>
</trkpt>
<trkpt lat="47.692912" lon="8.626406">
<ele>386.6</ele>
<time>2003-05-19T07:30:27Z</time>
<speed>1.1</speed>
</trkpt>
<trkpt lat="47.692893" lon="8.626323">
<ele>385.8</ele>
<time>2003-05-19T07:30:32Z</time>
<speed>1.4</speed>
</trkpt>
<trkpt lat="47.692867" lon="8.626238">
<ele>385.7</ele>
<time>2003-05-19T07:30:37Z</time>
<speed>1.4</speed>
</trkpt>
<trkpt lat="47.692842" lon="8.626140">
<ele>385.6</ele>
<time>2003-05-19T07:30:42Z</time>
<speed>1.1</speed>
</trkpt>
<trkpt lat="47.692822" lon="8.626055">
<ele>386.2</ele>
<time>2003-05-19T07:30:47Z</time>
<speed>1.1</speed>
</trkpt>
<trkpt lat="47.692802" lon="8.625970">
<ele>386.9</ele>
<time>2003-05-19T07:30:52Z</time>
<speed>1.1</speed>
</trkpt>
<trkpt lat="47.692789" lon="8.625887">
<ele>386.8</ele>
<time>2003-05-19T07:30:57Z</time>
<speed>1.1</speed>
</trkpt>
<trkpt lat="47.692761" lon="8.625828">
<ele>387.0</ele>
<time>2003-05-19T07:31:02Z</time>
<speed>0.6</speed>
</trkpt>
<trkpt lat="47.692726" lon="8.625782">
<ele>386.4</ele>
<time>2003-05-19T07:31:07Z</time>
<speed>0.8</speed>
</trkpt>
<trkpt lat="47.692657" lon="8.625661">
<ele>388.0</ele>
<time>2003-05-19T07:31:12Z</time>
<speed>1.1</speed>
</trkpt>
<trkpt lat="47.692613" lon="8.625559">
<ele>388.4</ele>
<time>2003-05-19T07:31:17Z</time>
<speed>0.8</speed>
</trkpt>
<trkpt lat="47.692579" lon="8.625513">
<ele>387.9</ele>
<time>2003-05-19T07:31:22Z</time>
<speed>1.4</speed>
</trkpt>
<trkpt lat="47.692526" lon="8.625438">
<ele>387.7</ele>
<time>2003-05-19T07:31:27Z</time>
<speed>1.4</speed>
</trkpt>
<trkpt lat="47.692511" lon="8.625381">
<ele>387.9</ele>
<time>2003-05-19T07:31:32Z</time>
<speed>0.8</speed>
</trkpt>
<trkpt lat="47.692485" lon="8.625296">
<ele>387.8</ele>
<time>2003-05-19T07:31:37Z</time>
<speed>1.4</speed>
</trkpt>
<trkpt lat="47.692460" lon="8.625198">
<ele>387.6</ele>
<time>2003-05-19T07:31:42Z</time>
<speed>0.8</speed>
</trkpt>
<trkpt lat="47.692417" lon="8.625082">
<ele>387.9</ele>
<time>2003-05-19T07:31:47Z</time>
<speed>1.4</speed>
</trkpt>
<trkpt lat="47.692372" lon="8.624993">
<ele>388.4</ele>
<time>2003-05-19T07:31:52Z</time>
<speed>1.1</speed>
</trkpt>
<trkpt lat="47.692321" lon="8.624904">
<ele>388.2</ele>
<time>2003-05-19T07:31:57Z</time>
<speed>1.4</speed>
</trkpt>
<trkpt lat="47.692282" lon="8.624831">
<ele>388.2</ele>
<time>2003-05-19T07:32:02Z</time>
<speed>1.1</speed>
</trkpt>
<trkpt lat="47.692242" lon="8.624757">
<ele>388.1</ele>
<time>2003-05-19T07:32:07Z</time>
<speed>1.1</speed>
</trkpt>
<trkpt lat="47.692215" lon="8.624685">
<ele>388.1</ele>
<time>2003-05-19T07:32:12Z</time>
<speed>1.1</speed>
</trkpt>
<trkpt lat="47.692194" lon="8.624626">
<ele>389.0</ele>
<time>2003-05-19T07:32:17Z</time>
<speed>0.8</speed>
</trkpt>
<trkpt lat="47.692168" lon="8.624541">
<ele>388.9</ele>
<time>2003-05-19T07:32:22Z</time>
<speed>0.8</speed>
</trkpt>
<trkpt lat="47.692117" lon="8.624452">
<ele>388.6</ele>
<time>2003-05-19T07:32:27Z</time>
<speed>0.8</speed>
</trkpt>
<trkpt lat="47.692052" lon="8.624359">
<ele>389.7</ele>
<time>2003-05-19T07:32:32Z</time>
<speed>1.1</speed>
</trkpt>
<trkpt lat="47.691977" lon="8.624251">
<ele>390.6</ele>
<time>2003-05-19T07:32:37Z</time>
<speed>1.7</speed>
</trkpt>
<trkpt lat="47.691943" lon="8.624175">
<ele>392.7</ele>
<time>2003-05-19T07:32:42Z</time>
<speed>1.1</speed>
</trkpt>
<trkpt lat="47.691904" lon="8.624086">
<ele>394.0</ele>
<time>2003-05-19T07:32:47Z</time>
<speed>1.4</speed>
</trkpt>
<trkpt lat="47.691852" lon="8.623995">
<ele>395.1</ele>
<time>2003-05-19T07:32:52Z</time>
<speed>1.1</speed>
</trkpt>
<trkpt lat="47.691798" lon="8.623931">
<ele>396.5</ele>
<time>2003-05-19T07:32:57Z</time>
<speed>1.1</speed>
</trkpt>
<trkpt lat="47.691733" lon="8.623866">
<ele>396.4</ele>
<time>2003-05-19T07:33:02Z</time>
<speed>1.4</speed>
</trkpt>
<trkpt lat="47.691677" lon="8.623828">
<ele>398.0</ele>
<time>2003-05-19T07:33:07Z</time>
<speed>0.8</speed>
</trkpt>
<trkpt lat="47.691648" lon="8.623797">
<ele>396.9</ele>
<time>2003-05-19T07:33:12Z</time>
<speed>0.8</speed>
</trkpt>
<trkpt lat="47.691606" lon="8.623750">
<ele>397.0</ele>
<time>2003-05-19T07:33:17Z</time>
<speed>0.6</speed>
</trkpt>
<trkpt lat="47.691545" lon="8.623713">
<ele>396.5</ele>
<time>2003-05-19T07:33:22Z</time>
<speed>0.6</speed>
</trkpt>
<trkpt lat="47.691472" lon="8.623662">
<ele>395.7</ele>
<time>2003-05-19T07:33:27Z</time>
<speed>1.1</speed>
</trkpt>
<trkpt lat="47.691419" lon="8.623599">
<ele>395.7</ele>
<time>2003-05-19T07:33:32Z</time>
<speed>1.1</speed>
</trkpt>
<trkpt lat="47.691372" lon="8.623552">
<ele>395.1</ele>
<time>2003-05-19T07:33:37Z</time>
<speed>0.6</speed>
</trkpt>
<trkpt lat="47.691316" lon="8.623529">
<ele>395.3</ele>
<time>2003-05-19T07:33:42Z</time>
<speed>0.8</speed>
</trkpt>
<trkpt lat="47.691280" lon="8.623496">
<ele>394.9</ele>
<time>2003-05-19T07:33:47Z</time>
<speed>0.6</speed>
</trkpt>
<trkpt lat="47.691237" lon="8.623462">
<ele>395.2</ele>
<time>2003-05-19T07:33:52Z</time>
<speed>0.8</speed>
</trkpt>
<trkpt lat="47.691176" lon="8.623410">
<ele>395.9</ele>
<time>2003-05-19T07:33:57Z</time>
<speed>1.4</speed>
</trkpt>
<trkpt lat="47.691077" lon="8.623383">
<ele>393.8</ele>
<time>2003-05-19T07:34:02Z</time>
<speed>1.4</speed>
</trkpt>
<trkpt lat="47.691001" lon="8.623371">
<ele>393.4</ele>
<time>2003-05-19T07:34:07Z</time>
<speed>1.4</speed>
</trkpt>
<trkpt lat="47.690932" lon="8.623361">
<ele>392.2</ele>
<time>2003-05-19T07:34:12Z</time>
<speed>1.1</speed>
</trkpt>
<trkpt lat="47.690888" lon="8.623355">
<ele>391.3</ele>
<time>2003-05-19T07:34:17Z</time>
<speed>0.8</speed>
</trkpt>
<trkpt lat="47.690825" lon="8.623345">
<ele>390.9</ele>
<time>2003-05-19T07:34:22Z</time>
<speed>1.4</speed>
</trkpt>
<trkpt lat="47.690762" lon="8.623335">
<ele>390.5</ele>
<time>2003-05-19T07:34:27Z</time>
<speed>1.1</speed>
</trkpt>
<trkpt lat="47.690700" lon="8.623314">
<ele>388.7</ele>
<time>2003-05-19T07:34:32Z</time>
<speed>1.1</speed>
</trkpt>
<trkpt lat="47.690637" lon="8.623304">
<ele>388.3</ele>
<time>2003-05-19T07:34:37Z</time>
<speed>1.1</speed>
</trkpt>
<trkpt lat="47.690574" lon="8.623294">
<ele>387.9</ele>
<time>2003-05-19T07:34:42Z</time>
<speed>1.1</speed>
</trkpt>
<trkpt lat="47.690511" lon="8.623269">
<ele>388.9</ele>
<time>2003-05-19T07:34:47Z</time>
<speed>1.1</speed>
</trkpt>
<trkpt lat="47.690428" lon="8.623270">
<ele>387.8</ele>
<time>2003-05-19T07:34:52Z</time>
<speed>1.4</speed>
</trkpt>
<trkpt lat="47.690378" lon="8.623262">
<ele>387.5</ele>
<time>2003-05-19T07:34:57Z</time>
<speed>1.1</speed>
</trkpt>
<trkpt lat="47.690321" lon="8.623252">
<ele>387.8</ele>
<time>2003-05-19T07:35:02Z</time>
<speed>1.1</speed>
</trkpt>
<trkpt lat="47.690245" lon="8.623240">
<ele>387.4</ele>
<time>2003-05-19T07:35:07Z</time>
<speed>1.4</speed>
</trkpt>
<trkpt lat="47.690176" lon="8.623230">
<ele>386.3</ele>
<time>2003-05-19T07:35:12Z</time>
<speed>1.4</speed>
</trkpt>
<trkpt lat="47.690118" lon="8.623235">
<ele>385.4</ele>
<time>2003-05-19T07:35:17Z</time>
<speed>0.8</speed>
</trkpt>
<trkpt lat="47.690041" lon="8.623237">
<ele>385.0</ele>
<time>2003-05-19T07:35:22Z</time>
<speed>1.4</speed>
</trkpt>
<trkpt lat="47.689972" lon="8.623227">
<ele>383.9</ele>
<time>2003-05-19T07:35:27Z</time>
<speed>1.4</speed>
</trkpt>
<trkpt lat="47.689895" lon="8.623228">
<ele>383.6</ele>
<time>2003-05-19T07:35:32Z</time>
<speed>1.4</speed>
</trkpt>
<trkpt lat="47.689824" lon="8.623242">
<ele>384.1</ele>
<time>2003-05-19T07:35:37Z</time>
<speed>1.4</speed>
</trkpt>
<trkpt lat="47.689754" lon="8.623245">
<ele>383.1</ele>
<time>2003-05-19T07:35:42Z</time>
<speed>1.4</speed>
</trkpt>
<trkpt lat="47.689689" lon="8.623249">
<ele>382.8</ele>
<time>2003-05-19T07:35:47Z</time>
<speed>1.1</speed>
</trkpt>
<trkpt lat="47.689624" lon="8.623265">
<ele>382.6</ele>
<time>2003-05-19T07:35:52Z</time>
<speed>1.1</speed>
</trkpt>
<trkpt lat="47.689553" lon="8.623281">
<ele>381.7</ele>
<time>2003-05-19T07:35:57Z</time>
<speed>1.4</speed>
</trkpt>
<trkpt lat="47.689475" lon="8.623296">
<ele>381.5</ele>
<time>2003-05-19T07:36:02Z</time>
<speed>1.7</speed>
</trkpt>
<trkpt lat="47.689397" lon="8.623310">
<ele>381.2</ele>
<time>2003-05-19T07:36:07Z</time>
<speed>1.4</speed>
</trkpt>
<trkpt lat="47.689326" lon="8.623324">
<ele>381.7</ele>
<time>2003-05-19T07:36:12Z</time>
<speed>1.4</speed>
</trkpt>
<trkpt lat="47.689266" lon="8.623354">
<ele>382.4</ele>
<time>2003-05-19T07:36:17Z</time>
<speed>1.1</speed>
</trkpt>
<trkpt lat="47.689213" lon="8.623372">
<ele>382.3</ele>
<time>2003-05-19T07:36:22Z</time>
<speed>1.1</speed>
</trkpt>
<trkpt lat="47.689173" lon="8.623393">
<ele>382.3</ele>
<time>2003-05-19T07:36:27Z</time>
<speed>0.8</speed>
</trkpt>
<trkpt lat="47.689114" lon="8.623424">
<ele>381.6</ele>
<time>2003-05-19T07:36:32Z</time>
<speed>1.1</speed>
</trkpt>
<trkpt lat="47.689055" lon="8.623442">
<ele>380.7</ele>
<time>2003-05-19T07:36:37Z</time>
<speed>1.4</speed>
</trkpt>
<trkpt lat="47.688990" lon="8.623459">
<ele>380.5</ele>
<time>2003-05-19T07:36:42Z</time>
<speed>1.1</speed>
</trkpt>
<trkpt lat="47.688931" lon="8.623475">
<ele>381.1</ele>
<time>2003-05-19T07:36:47Z</time>
<speed>1.1</speed>
</trkpt>
<trkpt lat="47.688872" lon="8.623491">
<ele>381.7</ele>
<time>2003-05-19T07:36:52Z</time>
<speed>1.4</speed>
</trkpt>
<trkpt lat="47.688806" lon="8.623521">
<ele>381.6</ele>
<time>2003-05-19T07:36:57Z</time>
<speed>1.1</speed>
</trkpt>
<trkpt lat="47.688734" lon="8.623535">
<ele>382.1</ele>
<time>2003-05-19T07:37:02Z</time>
<speed>1.4</speed>
</trkpt>
<trkpt lat="47.688688" lon="8.623556">
<ele>381.4</ele>
<time>2003-05-19T07:37:07Z</time>
<speed>0.8</speed>
</trkpt>
<trkpt lat="47.688637" lon="8.623561">
<ele>381.2</ele>
<time>2003-05-19T07:37:12Z</time>
<speed>0.8</speed>
</trkpt>
<trkpt lat="47.688571" lon="8.623577">
<ele>381.0</ele>
<time>2003-05-19T07:37:17Z</time>
<speed>0.8</speed>
</trkpt>
<trkpt lat="47.688519" lon="8.623596">
<ele>380.9</ele>
<time>2003-05-19T07:37:22Z</time>
<speed>0.8</speed>
</trkpt>
<trkpt lat="47.688461" lon="8.623601">
<ele>380.0</ele>
<time>2003-05-19T07:37:27Z</time>
<speed>0.8</speed>
</trkpt>
<trkpt lat="47.688397" lon="8.623602">
<ele>381.1</ele>
<time>2003-05-19T07:37:32Z</time>
<speed>0.8</speed>
</trkpt>
<trkpt lat="47.688337" lon="8.623633">
<ele>380.4</ele>
<time>2003-05-19T07:37:37Z</time>
<speed>0.8</speed>
</trkpt>
<trkpt lat="47.688287" lon="8.623625">
<ele>380.1</ele>
<time>2003-05-19T07:37:42Z</time>
<speed>0.8</speed>
</trkpt>
<trkpt lat="47.688234" lon="8.623644">
<ele>380.0</ele>
<time>2003-05-19T07:37:47Z</time>
<speed>0.8</speed>
</trkpt>
<trkpt lat="47.688176" lon="8.623649">
<ele>379.1</ele>
<time>2003-05-19T07:37:52Z</time>
<speed>0.8</speed>
</trkpt>
<trkpt lat="47.688101" lon="8.623637">
<ele>378.6</ele>
<time>2003-05-19T07:37:57Z</time>
<speed>0.8</speed>
</trkpt>
<trkpt lat="47.688036" lon="8.623638">
<ele>379.7</ele>
<time>2003-05-19T07:38:02Z</time>
<speed>1.1</speed>
</trkpt>
<trkpt lat="47.687940" lon="8.623651">
<ele>378.7</ele>
<time>2003-05-19T07:38:07Z</time>
<speed>1.1</speed>
</trkpt>
<trkpt lat="47.687873" lon="8.623680">
<ele>378.6</ele>
<time>2003-05-19T07:38:12Z</time>
<speed>0.8</speed>
</trkpt>
<trkpt lat="47.687801" lon="8.623710">
<ele>377.8</ele>
<time>2003-05-19T07:38:17Z</time>
<speed>1.1</speed>
</trkpt>
<trkpt lat="47.687718" lon="8.623709">
<ele>378.1</ele>
<time>2003-05-19T07:38:22Z</time>
<speed>1.4</speed>
</trkpt>
<trkpt lat="47.687666" lon="8.623712">
<ele>379.3</ele>
<time>2003-05-19T07:38:27Z</time>
<speed>1.1</speed>
</trkpt>
<trkpt lat="47.687607" lon="8.623728">
<ele>379.9</ele>
<time>2003-05-19T07:38:32Z</time>
<speed>0.8</speed>
</trkpt>
<trkpt lat="47.687542" lon="8.623745">
<ele>379.8</ele>
<time>2003-05-19T07:38:37Z</time>
<speed>1.1</speed>
</trkpt>
<trkpt lat="47.687494" lon="8.623791">
<ele>379.2</ele>
<time>2003-05-19T07:38:42Z</time>
<speed>1.1</speed>
</trkpt>
<trkpt lat="47.687441" lon="8.623810">
<ele>379.1</ele>
<time>2003-05-19T07:38:47Z</time>
<speed>1.1</speed>
</trkpt>
<trkpt lat="47.687388" lon="8.623841">
<ele>379.1</ele>
<time>2003-05-19T07:38:52Z</time>
<speed>1.1</speed>
</trkpt>
<trkpt lat="47.687322" lon="8.623871">
<ele>379.0</ele>
<time>2003-05-19T07:38:57Z</time>
<speed>1.1</speed>
</trkpt>
<trkpt lat="47.687269" lon="8.623904">
<ele>377.6</ele>
<time>2003-05-19T07:39:02Z</time>
<speed>0.8</speed>
</trkpt>
<trkpt lat="47.687193" lon="8.623892">
<ele>377.2</ele>
<time>2003-05-19T07:39:07Z</time>
<speed>1.1</speed>
</trkpt>
<trkpt lat="47.687106" lon="8.623931">
<ele>377.8</ele>
<time>2003-05-19T07:39:12Z</time>
<speed>1.1</speed>
</trkpt>
<trkpt lat="47.687052" lon="8.623978">
<ele>376.5</ele>
<time>2003-05-19T07:39:17Z</time>
<speed>0.8</speed>
</trkpt>
<trkpt lat="47.687010" lon="8.624038">
<ele>376.8</ele>
<time>2003-05-19T07:39:22Z</time>
<speed>0.8</speed>
</trkpt>
<trkpt lat="47.686944" lon="8.624054">
<ele>376.6</ele>
<time>2003-05-19T07:39:27Z</time>
<speed>0.8</speed>
</trkpt>
<trkpt lat="47.686897" lon="8.624085">
<ele>377.4</ele>
<time>2003-05-19T07:39:32Z</time>
<speed>1.1</speed>
</trkpt>
<trkpt lat="47.686838" lon="8.624102">
<ele>378.0</ele>
<time>2003-05-19T07:39:37Z</time>
<speed>1.1</speed>
</trkpt>
<trkpt lat="47.686798" lon="8.624122">
<ele>377.9</ele>
<time>2003-05-19T07:39:42Z</time>
<speed>0.6</speed>
</trkpt>
<trkpt lat="47.686733" lon="8.624138">
<ele>377.8</ele>
<time>2003-05-19T07:39:47Z</time>
<speed>0.8</speed>
</trkpt>
<trkpt lat="47.686679" lon="8.624170">
<ele>377.8</ele>
<time>2003-05-19T07:39:52Z</time>
<speed>0.8</speed>
</trkpt>
<trkpt lat="47.686607" lon="8.624197">
<ele>378.4</ele>
<time>2003-05-19T07:39:57Z</time>
<speed>1.1</speed>
</trkpt>
<trkpt lat="47.686549" lon="8.624201">
<ele>378.9</ele>
<time>2003-05-19T07:40:02Z</time>
<speed>0.8</speed>
</trkpt>
<trkpt lat="47.686497" lon="8.624191">
<ele>380.0</ele>
<time>2003-05-19T07:40:07Z</time>
<speed>0.8</speed>
</trkpt>
<trkpt lat="47.686441" lon="8.624168">
<ele>380.2</ele>
<time>2003-05-19T07:40:12Z</time>
<speed>1.1</speed>
</trkpt>
<trkpt lat="47.686367" lon="8.624127">
<ele>381.0</ele>
<time>2003-05-19T07:40:17Z</time>
<speed>1.1</speed>
</trkpt>
<trkpt lat="47.686290" lon="8.624126">
<ele>382.1</ele>
<time>2003-05-19T07:40:22Z</time>
<speed>1.1</speed>
</trkpt>
<trkpt lat="47.686219" lon="8.624128">
<ele>382.5</ele>
<time>2003-05-19T07:40:27Z</time>
<speed>1.4</speed>
</trkpt>
<trkpt lat="47.686179" lon="8.624146">
<ele>383.8</ele>
<time>2003-05-19T07:40:32Z</time>
<speed>0.8</speed>
</trkpt>
<trkpt lat="47.686120" lon="8.624162">
<ele>384.4</ele>
<time>2003-05-19T07:40:38Z</time>
<speed>1.4</speed>
</trkpt>
<trkpt lat="47.686060" lon="8.624194">
<ele>383.7</ele>
<time>2003-05-19T07:40:43Z</time>
<speed>1.1</speed>
</trkpt>
<trkpt lat="47.685988" lon="8.624223">
<ele>382.9</ele>
<time>2003-05-19T07:40:48Z</time>
<speed>1.1</speed>
</trkpt>
<trkpt lat="47.685914" lon="8.624264">
<ele>383.6</ele>
<time>2003-05-19T07:40:53Z</time>
<speed>1.1</speed>
</trkpt>
<trkpt lat="47.685842" lon="8.624294">
<ele>382.8</ele>
<time>2003-05-19T07:40:58Z</time>
<speed>1.4</speed>
</trkpt>
<trkpt lat="47.685776" lon="8.624323">
<ele>382.7</ele>
<time>2003-05-19T07:41:03Z</time>
<speed>1.1</speed>
</trkpt>
<trkpt lat="47.685723" lon="8.624341">
<ele>382.6</ele>
<time>2003-05-19T07:41:08Z</time>
<speed>0.8</speed>
</trkpt>
<trkpt lat="47.685657" lon="8.624371">
<ele>382.5</ele>
<time>2003-05-19T07:41:13Z</time>
<speed>1.4</speed>
</trkpt>
<trkpt lat="47.685567" lon="8.624383">
<ele>382.2</ele>
<time>2003-05-19T07:41:18Z</time>
<speed>1.1</speed>
</trkpt>
<trkpt lat="47.685501" lon="8.624413">
<ele>382.2</ele>
<time>2003-05-19T07:41:23Z</time>
<speed>1.1</speed>
</trkpt>
<trkpt lat="47.685428" lon="8.624442">
<ele>381.4</ele>
<time>2003-05-19T07:41:28Z</time>
<speed>1.1</speed>
</trkpt>
<trkpt lat="47.685381" lon="8.624474">
<ele>382.1</ele>
<time>2003-05-19T07:41:33Z</time>
<speed>1.1</speed>
</trkpt>
<trkpt lat="47.685327" lon="8.624505">
<ele>382.1</ele>
<time>2003-05-19T07:41:38Z</time>
<speed>1.7</speed>
</trkpt>
<trkpt lat="47.685267" lon="8.624550">
<ele>381.5</ele>
<time>2003-05-19T07:41:43Z</time>
<speed>1.1</speed>
</trkpt>
<trkpt lat="47.685206" lon="8.624595">
<ele>380.8</ele>
<time>2003-05-19T07:41:48Z</time>
<speed>1.1</speed>
</trkpt>
<trkpt lat="47.685153" lon="8.624626">
<ele>380.8</ele>
<time>2003-05-19T07:41:53Z</time>
<speed>1.4</speed>
</trkpt>
<trkpt lat="47.685087" lon="8.624656">
<ele>380.8</ele>
<time>2003-05-19T07:41:58Z</time>
<speed>1.4</speed>
</trkpt>
<trkpt lat="47.685033" lon="8.624685">
<ele>382.2</ele>
<time>2003-05-19T07:42:03Z</time>
<speed>1.1</speed>
</trkpt>
<trkpt lat="47.684974" lon="8.624702">
<ele>382.8</ele>
<time>2003-05-19T07:42:08Z</time>
<speed>1.4</speed>
</trkpt>
<trkpt lat="47.684907" lon="8.624731">
<ele>382.7</ele>
<time>2003-05-19T07:42:13Z</time>
<speed>1.4</speed>
</trkpt>
<trkpt lat="47.684841" lon="8.624761">
<ele>382.6</ele>
<time>2003-05-19T07:42:18Z</time>
<speed>1.4</speed>
</trkpt>
<trkpt lat="47.684788" lon="8.624792">
<ele>382.6</ele>
<time>2003-05-19T07:42:23Z</time>
<speed>1.4</speed>
</trkpt>
<trkpt lat="47.684740" lon="8.624824">
<ele>383.4</ele>
<time>2003-05-19T07:42:28Z</time>
<speed>1.1</speed>
</trkpt>
<trkpt lat="47.684668" lon="8.624836">
<ele>385.3</ele>
<time>2003-05-19T07:42:33Z</time>
<speed>1.4</speed>
</trkpt>
<trkpt lat="47.684615" lon="8.624868">
<ele>385.3</ele>
<time>2003-05-19T07:42:38Z</time>
<speed>1.1</speed>
</trkpt>
<trkpt lat="47.684573" lon="8.624914">
<ele>385.5</ele>
<time>2003-05-19T07:42:43Z</time>
<speed>1.1</speed>
</trkpt>
<trkpt lat="47.684519" lon="8.624961">
<ele>384.2</ele>
<time>2003-05-19T07:42:48Z</time>
<speed>1.1</speed>
</trkpt>
<trkpt lat="47.684465" lon="8.624992">
<ele>384.2</ele>
<time>2003-05-19T07:42:53Z</time>
<speed>0.8</speed>
</trkpt>
<trkpt lat="47.684419" lon="8.625011">
<ele>384.8</ele>
<time>2003-05-19T07:42:58Z</time>
<speed>1.1</speed>
</trkpt>
<trkpt lat="47.684359" lon="8.625040">
<ele>385.5</ele>
<time>2003-05-19T07:43:03Z</time>
<speed>1.1</speed>
</trkpt>
<trkpt lat="47.684311" lon="8.625072">
<ele>386.3</ele>
<time>2003-05-19T07:43:08Z</time>
<speed>1.1</speed>
</trkpt>
<trkpt lat="47.684247" lon="8.625075">
<ele>386.0</ele>
<time>2003-05-19T07:43:13Z</time>
<speed>1.1</speed>
</trkpt>
<trkpt lat="47.684176" lon="8.625076">
<ele>386.4</ele>
<time>2003-05-19T07:43:18Z</time>
<speed>1.1</speed>
</trkpt>
<trkpt lat="47.684118" lon="8.625094">
<ele>385.6</ele>
<time>2003-05-19T07:43:23Z</time>
<speed>1.4</speed>
</trkpt>
<trkpt lat="47.684041" lon="8.625080">
<ele>386.5</ele>
<time>2003-05-19T07:43:28Z</time>
<speed>1.1</speed>
</trkpt>
<trkpt lat="47.683971" lon="8.625082">
<ele>386.9</ele>
<time>2003-05-19T07:43:33Z</time>
<speed>1.4</speed>
</trkpt>
<trkpt lat="47.683899" lon="8.625096">
<ele>387.4</ele>
<time>2003-05-19T07:43:38Z</time>
<speed>1.4</speed>
</trkpt>
<trkpt lat="47.683840" lon="8.625114">
<ele>386.6</ele>
<time>2003-05-19T07:43:43Z</time>
<speed>1.4</speed>
</trkpt>
<trkpt lat="47.683787" lon="8.625146">
<ele>386.6</ele>
<time>2003-05-19T07:43:48Z</time>
<speed>1.4</speed>
</trkpt>
<trkpt lat="47.683722" lon="8.625162">
<ele>386.4</ele>
<time>2003-05-19T07:43:53Z</time>
<speed>1.4</speed>
</trkpt>
<trkpt lat="47.683662" lon="8.625194">
<ele>385.7</ele>
<time>2003-05-19T07:43:58Z</time>
<speed>1.1</speed>
</trkpt>
<trkpt lat="47.683603" lon="8.625210">
<ele>386.3</ele>
<time>2003-05-19T07:44:03Z</time>
<speed>1.1</speed>
</trkpt>
<trkpt lat="47.683543" lon="8.625255">
<ele>385.6</ele>
<time>2003-05-19T07:44:08Z</time>
<speed>1.1</speed>
</trkpt>
<trkpt lat="47.683482" lon="8.625284">
<ele>386.3</ele>
<time>2003-05-19T07:44:13Z</time>
<speed>1.1</speed>
</trkpt>
<trkpt lat="47.683435" lon="8.625316">
<ele>387.1</ele>
<time>2003-05-19T07:44:18Z</time>
<speed>1.1</speed>
</trkpt>
<trkpt lat="47.683375" lon="8.625347">
<ele>386.3</ele>
<time>2003-05-19T07:44:23Z</time>
<speed>1.4</speed>
</trkpt>
<trkpt lat="47.683329" lon="8.625366">
<ele>387.0</ele>
<time>2003-05-19T07:44:28Z</time>
<speed>1.1</speed>
</trkpt>
<trkpt lat="47.683263" lon="8.625395">
<ele>386.9</ele>
<time>2003-05-19T07:44:33Z</time>
<speed>1.4</speed>
</trkpt>
<trkpt lat="47.683204" lon="8.625414">
<ele>386.1</ele>
<time>2003-05-19T07:44:38Z</time>
<speed>1.1</speed>
</trkpt>
<trkpt lat="47.683152" lon="8.625432">
<ele>386.0</ele>
<time>2003-05-19T07:44:43Z</time>
<speed>1.4</speed>
</trkpt>
<trkpt lat="47.683092" lon="8.625463">
<ele>385.2</ele>
<time>2003-05-19T07:44:48Z</time>
<speed>0.8</speed>
</trkpt>
<trkpt lat="47.683019" lon="8.625491">
<ele>385.8</ele>
<time>2003-05-19T07:44:53Z</time>
<speed>1.4</speed>
</trkpt>
<trkpt lat="47.682954" lon="8.625507">
<ele>385.7</ele>
<time>2003-05-19T07:44:58Z</time>
<speed>1.1</speed>
</trkpt>
<trkpt lat="47.682882" lon="8.625535">
<ele>386.3</ele>
<time>2003-05-19T07:45:03Z</time>
<speed>1.4</speed>
</trkpt>
<trkpt lat="47.682823" lon="8.625551">
<ele>386.8</ele>
<time>2003-05-19T07:45:08Z</time>
<speed>1.1</speed>
</trkpt>
<trkpt lat="47.682752" lon="8.625554">
<ele>385.8</ele>
<time>2003-05-19T07:45:13Z</time>
<speed>1.4</speed>
</trkpt>
<trkpt lat="47.682700" lon="8.625573">
<ele>385.7</ele>
<time>2003-05-19T07:45:18Z</time>
<speed>1.1</speed>
</trkpt>
<trkpt lat="47.682647" lon="8.625591">
<ele>385.7</ele>
<time>2003-05-19T07:45:23Z</time>
<speed>1.4</speed>
</trkpt>
<trkpt lat="47.682594" lon="8.625623">
<ele>385.7</ele>
<time>2003-05-19T07:45:28Z</time>
<speed>1.1</speed>
</trkpt>
<trkpt lat="47.682528" lon="8.625652">
<ele>385.6</ele>
<time>2003-05-19T07:45:33Z</time>
<speed>1.4</speed>
</trkpt>
<trkpt lat="47.682468" lon="8.625682">
<ele>386.3</ele>
<time>2003-05-19T07:45:38Z</time>
<speed>1.1</speed>
</trkpt>
<trkpt lat="47.682409" lon="8.625700">
<ele>385.4</ele>
<time>2003-05-19T07:45:43Z</time>
<speed>1.1</speed>
</trkpt>
<trkpt lat="47.682349" lon="8.625729">
<ele>386.1</ele>
<time>2003-05-19T07:45:48Z</time>
<speed>1.1</speed>
</trkpt>
<trkpt lat="47.682302" lon="8.625748">
<ele>386.8</ele>
<time>2003-05-19T07:45:53Z</time>
<speed>0.8</speed>
</trkpt>
<trkpt lat="47.682255" lon="8.625794">
<ele>386.2</ele>
<time>2003-05-19T07:45:58Z</time>
<speed>1.1</speed>
</trkpt>
<trkpt lat="47.682176" lon="8.625807">
<ele>387.4</ele>
<time>2003-05-19T07:46:03Z</time>
<speed>1.1</speed>
</trkpt>
<trkpt lat="47.682116" lon="8.625836">
<ele>388.0</ele>
<time>2003-05-19T07:46:08Z</time>
<speed>1.1</speed>
</trkpt>
<trkpt lat="47.682105" lon="8.625902">
<ele>387.8</ele>
<time>2003-05-19T07:46:13Z</time>
<speed>0.6</speed>
</trkpt>
<trkpt lat="47.682110" lon="8.625930">
<ele>387.3</ele>
<time>2003-05-19T07:46:18Z</time>
<speed>0.3</speed>
</trkpt>
<trkpt lat="47.682072" lon="8.626005">
<ele>387.1</ele>
<time>2003-05-19T07:46:23Z</time>
<speed>0.8</speed>
</trkpt>
<trkpt lat="47.682038" lon="8.626041">
<ele>386.5</ele>
<time>2003-05-19T07:46:28Z</time>
<speed>0.8</speed>
</trkpt>
<trkpt lat="47.681977" lon="8.626084">
<ele>387.2</ele>
<time>2003-05-19T07:46:33Z</time>
<speed>1.1</speed>
</trkpt>
<trkpt lat="47.681918" lon="8.626102">
<ele>386.4</ele>
<time>2003-05-19T07:46:38Z</time>
<speed>1.1</speed>
</trkpt>
<trkpt lat="47.681858" lon="8.626132">
<ele>387.1</ele>
<time>2003-05-19T07:46:43Z</time>
<speed>1.1</speed>
</trkpt>
<trkpt lat="47.681798" lon="8.626176">
<ele>386.5</ele>
<time>2003-05-19T07:46:48Z</time>
<speed>1.1</speed>
</trkpt>
<trkpt lat="47.681731" lon="8.626221">
<ele>385.1</ele>
<time>2003-05-19T07:46:53Z</time>
<speed>1.4</speed>
</trkpt>
<trkpt lat="47.681672" lon="8.626252">
<ele>384.4</ele>
<time>2003-05-19T07:46:58Z</time>
<speed>1.1</speed>
</trkpt>
<trkpt lat="47.681611" lon="8.626297">
<ele>383.7</ele>
<time>2003-05-19T07:47:03Z</time>
<speed>1.1</speed>
</trkpt>
<trkpt lat="47.681538" lon="8.626325">
<ele>384.3</ele>
<time>2003-05-19T07:47:08Z</time>
<speed>1.4</speed>
</trkpt>
<trkpt lat="47.681467" lon="8.626339">
<ele>384.8</ele>
<time>2003-05-19T07:47:13Z</time>
<speed>1.4</speed>
</trkpt>
<trkpt lat="47.681413" lon="8.626370">
<ele>384.8</ele>
<time>2003-05-19T07:47:18Z</time>
<speed>1.1</speed>
</trkpt>
<trkpt lat="47.681356" lon="8.626376">
<ele>383.9</ele>
<time>2003-05-19T07:47:23Z</time>
<speed>1.4</speed>
</trkpt>
<trkpt lat="47.681284" lon="8.626392">
<ele>383.0</ele>
<time>2003-05-19T07:47:28Z</time>
<speed>1.7</speed>
</trkpt>
<trkpt lat="47.681226" lon="8.626410">
<ele>382.2</ele>
<time>2003-05-19T07:47:33Z</time>
<speed>1.4</speed>
</trkpt>
<trkpt lat="47.681162" lon="8.626413">
<ele>381.9</ele>
<time>2003-05-19T07:47:38Z</time>
<speed>1.1</speed>
</trkpt>
<trkpt lat="47.681097" lon="8.626417">
<ele>381.6</ele>
<time>2003-05-19T07:47:43Z</time>
<speed>1.1</speed>
</trkpt>
<trkpt lat="47.681028" lon="8.626407">
<ele>380.5</ele>
<time>2003-05-19T07:47:48Z</time>
<speed>1.7</speed>
</trkpt>
<trkpt lat="47.680959" lon="8.626395">
<ele>380.8</ele>
<time>2003-05-19T07:47:53Z</time>
<speed>1.4</speed>
</trkpt>
<trkpt lat="47.680894" lon="8.626398">
<ele>380.5</ele>
<time>2003-05-19T07:47:58Z</time>
<speed>1.4</speed>
</trkpt>
<trkpt lat="47.680819" lon="8.626386">
<ele>380.1</ele>
<time>2003-05-19T07:48:03Z</time>
<speed>1.4</speed>
</trkpt>
<trkpt lat="47.680741" lon="8.626385">
<ele>381.2</ele>
<time>2003-05-19T07:48:09Z</time>
<speed>1.4</speed>
</trkpt>
<trkpt lat="47.680677" lon="8.626388">
<ele>380.9</ele>
<time>2003-05-19T07:48:14Z</time>
<speed>1.1</speed>
</trkpt>
<trkpt lat="47.680626" lon="8.626393">
<ele>380.7</ele>
<time>2003-05-19T07:48:19Z</time>
<speed>1.1</speed>
</trkpt>
<trkpt lat="47.680554" lon="8.626408">
<ele>381.2</ele>
<time>2003-05-19T07:48:24Z</time>
<speed>1.4</speed>
</trkpt>
<trkpt lat="47.680491" lon="8.626398">
<ele>380.8</ele>
<time>2003-05-19T07:48:29Z</time>
<speed>1.4</speed>
</trkpt>
<trkpt lat="47.680427" lon="8.626401">
<ele>380.6</ele>
<time>2003-05-19T07:48:34Z</time>
<speed>1.1</speed>
</trkpt>
<trkpt lat="47.680369" lon="8.626406">
<ele>379.6</ele>
<time>2003-05-19T07:48:39Z</time>
<speed>1.1</speed>
</trkpt>
<trkpt lat="47.680306" lon="8.626396">
<ele>379.3</ele>
<time>2003-05-19T07:48:44Z</time>
<speed>1.1</speed>
</trkpt>
<trkpt lat="47.680254" lon="8.626401">
<ele>379.1</ele>
<time>2003-05-19T07:48:49Z</time>
<speed>1.1</speed>
</trkpt>
<trkpt lat="47.680190" lon="8.626403">
<ele>380.2</ele>
<time>2003-05-19T07:48:54Z</time>
<speed>1.4</speed>
</trkpt>
<trkpt lat="47.680132" lon="8.626406">
<ele>380.7</ele>
<time>2003-05-19T07:48:59Z</time>
<speed>1.1</speed>
</trkpt>
<trkpt lat="47.680074" lon="8.626409">
<ele>381.1</ele>
<time>2003-05-19T07:49:04Z</time>
<speed>1.1</speed>
</trkpt>
<trkpt lat="47.680008" lon="8.626425">
<ele>381.0</ele>
<time>2003-05-19T07:49:09Z</time>
<speed>1.1</speed>
</trkpt>
<trkpt lat="47.679943" lon="8.626442">
<ele>380.8</ele>
<time>2003-05-19T07:49:14Z</time>
<speed>1.1</speed>
</trkpt>
<trkpt lat="47.679873" lon="8.626428">
<ele>382.5</ele>
<time>2003-05-19T07:49:19Z</time>
<speed>1.4</speed>
</trkpt>
<trkpt lat="47.679848" lon="8.626424">
<ele>382.4</ele>
<time>2003-05-19T07:49:24Z</time>
<speed>0.0</speed>
</trkpt>
<trkpt lat="47.679803" lon="8.626416">
<ele>382.8</ele>
<time>2003-05-19T07:49:29Z</time>
<speed>1.1</speed>
</trkpt>
<trkpt lat="47.679734" lon="8.626404">
<ele>383.1</ele>
<time>2003-05-19T07:49:34Z</time>
<speed>1.1</speed>
</trkpt>
<trkpt lat="47.679671" lon="8.626380">
<ele>382.6</ele>
<time>2003-05-19T07:49:39Z</time>
<speed>1.4</speed>
</trkpt>
<trkpt lat="47.679590" lon="8.626353">
<ele>382.8</ele>
<time>2003-05-19T07:49:44Z</time>
<speed>1.4</speed>
</trkpt>
<trkpt lat="47.679523" lon="8.626317">
<ele>381.5</ele>
<time>2003-05-19T07:49:49Z</time>
<speed>1.1</speed>
</trkpt>
<trkpt lat="47.679460" lon="8.626307">
<ele>381.1</ele>
<time>2003-05-19T07:49:54Z</time>
<speed>1.1</speed>
</trkpt>
<trkpt lat="47.679404" lon="8.626284">
<ele>381.4</ele>
<time>2003-05-19T07:49:59Z</time>
<speed>1.1</speed>
</trkpt>
<trkpt lat="47.679341" lon="8.626259">
<ele>382.3</ele>
<time>2003-05-19T07:50:04Z</time>
<speed>1.1</speed>
</trkpt>
<trkpt lat="47.679285" lon="8.626220">
<ele>383.9</ele>
<time>2003-05-19T07:50:09Z</time>
<speed>0.8</speed>
</trkpt>
<trkpt lat="47.679229" lon="8.626180">
<ele>386.8</ele>
<time>2003-05-19T07:50:14Z</time>
<speed>1.4</speed>
</trkpt>
<trkpt lat="47.679172" lon="8.626170">
<ele>387.2</ele>
<time>2003-05-19T07:50:19Z</time>
<speed>1.1</speed>
</trkpt>
<trkpt lat="47.679124" lon="8.626136">
<ele>386.7</ele>
<time>2003-05-19T07:50:24Z</time>
<speed>1.1</speed>
</trkpt>
<trkpt lat="47.679080" lon="8.626130">
<ele>385.8</ele>
<time>2003-05-19T07:50:29Z</time>
<speed>1.1</speed>
</trkpt>
<trkpt lat="47.679012" lon="8.626091">
<ele>385.8</ele>
<time>2003-05-19T07:50:34Z</time>
<speed>1.1</speed>
</trkpt>
<trkpt lat="47.678956" lon="8.626068">
<ele>386.1</ele>
<time>2003-05-19T07:50:39Z</time>
<speed>1.1</speed>
</trkpt>
<trkpt lat="47.678913" lon="8.626034">
<ele>386.4</ele>
<time>2003-05-19T07:50:44Z</time>
<speed>0.8</speed>
</trkpt>
<trkpt lat="47.678846" lon="8.625996">
<ele>386.5</ele>
<time>2003-05-19T07:50:49Z</time>
<speed>1.4</speed>
</trkpt>
<trkpt lat="47.678764" lon="8.625969">
<ele>386.6</ele>
<time>2003-05-19T07:50:54Z</time>
<speed>1.4</speed>
</trkpt>
<trkpt lat="47.678690" lon="8.625913">
<ele>388.6</ele>
<time>2003-05-19T07:50:59Z</time>
<speed>1.4</speed>
</trkpt>
<trkpt lat="47.678641" lon="8.625892">
<ele>388.2</ele>
<time>2003-05-19T07:51:04Z</time>
<speed>1.1</speed>
</trkpt>
<trkpt lat="47.678586" lon="8.625856">
<ele>388.4</ele>
<time>2003-05-19T07:51:09Z</time>
<speed>1.1</speed>
</trkpt>
<trkpt lat="47.678525" lon="8.625819">
<ele>387.8</ele>
<time>2003-05-19T07:51:14Z</time>
<speed>1.1</speed>
</trkpt>
<trkpt lat="47.678455" lon="8.625792">
<ele>389.4</ele>
<time>2003-05-19T07:51:19Z</time>
<speed>1.1</speed>
</trkpt>
<trkpt lat="47.678407" lon="8.625760">
<ele>387.5</ele>
<time>2003-05-19T07:51:24Z</time>
<speed>1.1</speed>
</trkpt>
<trkpt lat="47.678351" lon="8.625719">
<ele>390.5</ele>
<time>2003-05-19T07:51:29Z</time>
<speed>1.1</speed>
</trkpt>
<trkpt lat="47.678291" lon="8.625653">
<ele>392.6</ele>
<time>2003-05-19T07:51:34Z</time>
<speed>1.1</speed>
</trkpt>
<trkpt lat="47.678229" lon="8.625614">
<ele>393.4</ele>
<time>2003-05-19T07:51:39Z</time>
<speed>1.1</speed>
</trkpt>
<trkpt lat="47.678161" lon="8.625572">
<ele>396.3</ele>
<time>2003-05-19T07:51:44Z</time>
<speed>1.1</speed>
</trkpt>
<trkpt lat="47.678099" lon="8.625534">
<ele>397.1</ele>
<time>2003-05-19T07:51:49Z</time>
<speed>1.1</speed>
</trkpt>
<trkpt lat="47.678043" lon="8.625513">
<ele>396.0</ele>
<time>2003-05-19T07:51:54Z</time>
<speed>1.1</speed>
</trkpt>
<trkpt lat="47.677980" lon="8.625503">
<ele>395.6</ele>
<time>2003-05-19T07:51:59Z</time>
<speed>1.1</speed>
</trkpt>
<trkpt lat="47.677919" lon="8.625482">
<ele>393.8</ele>
<time>2003-05-19T07:52:04Z</time>
<speed>1.4</speed>
</trkpt>
<trkpt lat="47.677883" lon="8.625451">
<ele>391.9</ele>
<time>2003-05-19T07:52:09Z</time>
<speed>0.6</speed>
</trkpt>
<trkpt lat="47.677840" lon="8.625432">
<ele>390.9</ele>
<time>2003-05-19T07:52:14Z</time>
<speed>0.6</speed>
</trkpt>
<trkpt lat="47.677798" lon="8.625400">
<ele>389.7</ele>
<time>2003-05-19T07:52:19Z</time>
<speed>1.1</speed>
</trkpt>
<trkpt lat="47.677737" lon="8.625363">
<ele>389.1</ele>
<time>2003-05-19T07:52:24Z</time>
<speed>1.1</speed>
</trkpt>
<trkpt lat="47.677683" lon="8.625329">
<ele>387.9</ele>
<time>2003-05-19T07:52:29Z</time>
<speed>0.8</speed>
</trkpt>
<trkpt lat="47.677628" lon="8.625280">
<ele>388.0</ele>
<time>2003-05-19T07:52:34Z</time>
<speed>1.1</speed>
</trkpt>
<trkpt lat="47.677595" lon="8.625221">
<ele>387.3</ele>
<time>2003-05-19T07:52:39Z</time>
<speed>0.6</speed>
</trkpt>
<trkpt lat="47.677547" lon="8.625173">
<ele>386.7</ele>
<time>2003-05-19T07:52:44Z</time>
<speed>0.8</speed>
</trkpt>
<trkpt lat="47.677501" lon="8.625113">
<ele>386.0</ele>
<time>2003-05-19T07:52:49Z</time>
<speed>1.1</speed>
</trkpt>
<trkpt lat="47.677436" lon="8.625035">
<ele>385.8</ele>
<time>2003-05-19T07:52:54Z</time>
<speed>1.1</speed>
</trkpt>
<trkpt lat="47.677390" lon="8.624961">
<ele>385.0</ele>
<time>2003-05-19T07:52:59Z</time>
<speed>1.1</speed>
</trkpt>
<trkpt lat="47.677357" lon="8.624887">
<ele>385.7</ele>
<time>2003-05-19T07:53:04Z</time>
<speed>0.8</speed>
</trkpt>
<trkpt lat="47.677324" lon="8.624816">
<ele>385.0</ele>
<time>2003-05-19T07:53:09Z</time>
<speed>1.1</speed>
</trkpt>
<trkpt lat="47.677291" lon="8.624742">
<ele>385.7</ele>
<time>2003-05-19T07:53:14Z</time>
<speed>0.6</speed>
</trkpt>
<trkpt lat="47.677244" lon="8.624681">
<ele>385.0</ele>
<time>2003-05-19T07:53:19Z</time>
<speed>0.6</speed>
</trkpt>
<trkpt lat="47.677205" lon="8.624607">
<ele>384.9</ele>
<time>2003-05-19T07:53:24Z</time>
<speed>1.1</speed>
</trkpt>
<trkpt lat="47.677165" lon="8.624533">
<ele>384.9</ele>
<time>2003-05-19T07:53:29Z</time>
<speed>1.1</speed>
</trkpt>
<trkpt lat="47.677120" lon="8.624444">
<ele>385.4</ele>
<time>2003-05-19T07:53:34Z</time>
<speed>1.1</speed>
</trkpt>
<trkpt lat="47.677080" lon="8.624384">
<ele>385.4</ele>
<time>2003-05-19T07:53:39Z</time>
<speed>0.8</speed>
</trkpt>
<trkpt lat="47.677040" lon="8.624310">
<ele>385.3</ele>
<time>2003-05-19T07:53:44Z</time>
<speed>0.8</speed>
</trkpt>
<trkpt lat="47.676993" lon="8.624247">
<ele>386.0</ele>
<time>2003-05-19T07:53:49Z</time>
<speed>1.1</speed>
</trkpt>
<trkpt lat="47.676968" lon="8.624149">
<ele>385.9</ele>
<time>2003-05-19T07:53:54Z</time>
<speed>0.8</speed>
</trkpt>
<trkpt lat="47.676929" lon="8.624075">
<ele>385.8</ele>
<time>2003-05-19T07:53:59Z</time>
<speed>1.1</speed>
</trkpt>
<trkpt lat="47.676891" lon="8.623975">
<ele>385.5</ele>
<time>2003-05-19T07:54:04Z</time>
<speed>0.8</speed>
</trkpt>
<trkpt lat="47.676862" lon="8.623851">
<ele>384.4</ele>
<time>2003-05-19T07:54:09Z</time>
<speed>1.1</speed>
</trkpt>
<trkpt lat="47.676831" lon="8.623753">
<ele>383.5</ele>
<time>2003-05-19T07:54:14Z</time>
<speed>0.8</speed>
</trkpt>
<trkpt lat="47.676799" lon="8.623668">
<ele>382.7</ele>
<time>2003-05-19T07:54:19Z</time>
<speed>1.1</speed>
</trkpt>
<trkpt lat="47.676774" lon="8.623583">
<ele>382.6</ele>
<time>2003-05-19T07:54:24Z</time>
<speed>0.8</speed>
</trkpt>
<trkpt lat="47.676735" lon="8.623494">
<ele>383.8</ele>
<time>2003-05-19T07:54:29Z</time>
<speed>1.1</speed>
</trkpt>
<trkpt lat="47.676696" lon="8.623405">
<ele>385.1</ele>
<time>2003-05-19T07:54:34Z</time>
<speed>1.1</speed>
</trkpt>
<trkpt lat="47.676663" lon="8.623318">
<ele>385.6</ele>
<time>2003-05-19T07:54:39Z</time>
<speed>1.1</speed>
</trkpt>
<trkpt lat="47.676651" lon="8.623222">
<ele>385.5</ele>
<time>2003-05-19T07:54:44Z</time>
<speed>1.1</speed>
</trkpt>
<trkpt lat="47.676625" lon="8.623137">
<ele>385.4</ele>
<time>2003-05-19T07:54:49Z</time>
<speed>1.1</speed>
</trkpt>
<trkpt lat="47.676622" lon="8.623018">
<ele>383.0</ele>
<time>2003-05-19T07:54:54Z</time>
<speed>0.8</speed>
</trkpt>
<trkpt lat="47.676590" lon="8.622933">
<ele>382.2</ele>
<time>2003-05-19T07:54:59Z</time>
<speed>1.1</speed>
</trkpt>
<trkpt lat="47.676570" lon="8.622848">
<ele>382.9</ele>
<time>2003-05-19T07:55:04Z</time>
<speed>0.8</speed>
</trkpt>
<trkpt lat="47.676604" lon="8.622749">
<ele>380.8</ele>
<time>2003-05-19T07:55:09Z</time>
<speed>0.3</speed>
</trkpt>
<trkpt lat="47.676596" lon="8.622679">
<ele>381.6</ele>
<time>2003-05-19T07:55:14Z</time>
<speed>0.8</speed>
</trkpt>
<trkpt lat="47.676584" lon="8.622583">
<ele>381.5</ele>
<time>2003-05-19T07:55:19Z</time>
<speed>1.1</speed>
</trkpt>
<trkpt lat="47.676592" lon="8.622477">
<ele>380.7</ele>
<time>2003-05-19T07:55:24Z</time>
<speed>1.1</speed>
</trkpt>
<trkpt lat="47.676577" lon="8.622408">
<ele>380.8</ele>
<time>2003-05-19T07:55:29Z</time>
<speed>0.6</speed>
</trkpt>
<trkpt lat="47.676585" lon="8.622381">
<ele>381.3</ele>
<time>2003-05-19T07:55:34Z</time>
<speed>0.3</speed>
</trkpt>
<trkpt lat="47.676587" lon="8.622355">
<ele>381.1</ele>
<time>2003-05-19T07:55:39Z</time>
<speed>0.6</speed>
</trkpt>
<trkpt lat="47.676574" lon="8.622366">
<ele>381.2</ele>
<time>2003-05-19T07:55:44Z</time>
<speed>0.0</speed>
</trkpt>
<trkpt lat="47.676574" lon="8.622366">
<ele>381.2</ele>
<time>2003-05-19T07:55:49Z</time>
<speed>0.0</speed>
</trkpt>
<trkpt lat="47.676567" lon="8.622364">
<ele>381.8</ele>
<time>2003-05-19T07:55:54Z</time>
<speed>0.0</speed>
</trkpt>
<trkpt lat="47.676556" lon="8.622349">
<ele>381.6</ele>
<time>2003-05-19T07:55:59Z</time>
<speed>0.6</speed>
</trkpt>
<trkpt lat="47.676527" lon="8.622303">
<ele>381.9</ele>
<time>2003-05-19T07:56:04Z</time>
<speed>0.6</speed>
</trkpt>
<trkpt lat="47.676539" lon="8.622305">
<ele>381.9</ele>
<time>2003-05-19T07:56:09Z</time>
<speed>0.0</speed>
</trkpt>
<trkpt lat="47.676563" lon="8.622336">
<ele>382.3</ele>
<time>2003-05-19T07:56:14Z</time>
<speed>0.3</speed>
</trkpt>
<trkpt lat="47.676563" lon="8.622336">
<ele>382.3</ele>
<time>2003-05-19T07:56:19Z</time>
<speed>0.0</speed>
</trkpt>
<trkpt lat="47.676475" lon="8.622307">
<ele>383.1</ele>
<time>2003-05-19T07:56:24Z</time>
<speed>0.3</speed>
</trkpt>
<trkpt lat="47.676513" lon="8.622313">
<ele>383.3</ele>
<time>2003-05-19T07:56:29Z</time>
<speed>0.3</speed>
</trkpt>
<trkpt lat="47.676548" lon="8.622247">
<ele>386.5</ele>
<time>2003-05-19T07:56:34Z</time>
<speed>0.6</speed>
</trkpt>
<trkpt lat="47.676498" lon="8.622145">
<ele>386.2</ele>
<time>2003-05-19T07:56:39Z</time>
<speed>0.8</speed>
</trkpt>
<trkpt lat="47.676477" lon="8.622058">
<ele>388.2</ele>
<time>2003-05-19T07:56:44Z</time>
<speed>1.1</speed>
</trkpt>
<trkpt lat="47.676452" lon="8.621958">
<ele>389.4</ele>
<time>2003-05-19T07:56:49Z</time>
<speed>1.1</speed>
</trkpt>
<trkpt lat="47.676424" lon="8.621899">
<ele>389.5</ele>
<time>2003-05-19T07:56:54Z</time>
<speed>0.8</speed>
</trkpt>
<trkpt lat="47.676393" lon="8.621799">
<ele>390.0</ele>
<time>2003-05-19T07:56:59Z</time>
<speed>1.4</speed>
</trkpt>
<trkpt lat="47.676353" lon="8.621725">
<ele>390.0</ele>
<time>2003-05-19T07:57:04Z</time>
<speed>1.1</speed>
</trkpt>
<trkpt lat="47.676334" lon="8.621627">
<ele>390.5</ele>
<time>2003-05-19T07:57:09Z</time>
<speed>1.4</speed>
</trkpt>
<trkpt lat="47.676302" lon="8.621555">
<ele>389.8</ele>
<time>2003-05-19T07:57:14Z</time>
<speed>1.1</speed>
</trkpt>
<trkpt lat="47.676275" lon="8.621485">
<ele>388.4</ele>
<time>2003-05-19T07:57:19Z</time>
<speed>1.1</speed>
</trkpt>
<trkpt lat="47.676250" lon="8.621402">
<ele>386.9</ele>
<time>2003-05-19T07:57:24Z</time>
<speed>1.1</speed>
</trkpt>
<trkpt lat="47.676212" lon="8.621317">
<ele>385.3</ele>
<time>2003-05-19T07:57:29Z</time>
<speed>1.1</speed>
</trkpt>
<trkpt lat="47.676175" lon="8.621219">
<ele>383.7</ele>
<time>2003-05-19T07:57:34Z</time>
<speed>1.1</speed>
</trkpt>
<trkpt lat="47.676150" lon="8.621136">
<ele>382.2</ele>
<time>2003-05-19T07:57:39Z</time>
<speed>1.1</speed>
</trkpt>
<trkpt lat="47.676116" lon="8.621062">
<ele>382.9</ele>
<time>2003-05-19T07:57:44Z</time>
<speed>1.4</speed>
</trkpt>
<trkpt lat="47.676058" lon="8.620986">
<ele>382.0</ele>
<time>2003-05-19T07:57:49Z</time>
<speed>1.1</speed>
</trkpt>
<trkpt lat="47.676006" lon="8.620911">
<ele>381.8</ele>
<time>2003-05-19T07:57:54Z</time>
<speed>1.4</speed>
</trkpt>
<trkpt lat="47.675973" lon="8.620839">
<ele>381.1</ele>
<time>2003-05-19T07:57:59Z</time>
<speed>1.1</speed>
</trkpt>
<trkpt lat="47.675933" lon="8.620778">
<ele>381.2</ele>
<time>2003-05-19T07:58:04Z</time>
<speed>0.8</speed>
</trkpt>
<trkpt lat="47.675906" lon="8.620706">
<ele>381.2</ele>
<time>2003-05-19T07:58:09Z</time>
<speed>1.1</speed>
</trkpt>
<trkpt lat="47.675880" lon="8.620621">
<ele>381.1</ele>
<time>2003-05-19T07:58:14Z</time>
<speed>1.1</speed>
</trkpt>
<trkpt lat="47.675855" lon="8.620523">
<ele>380.9</ele>
<time>2003-05-19T07:58:19Z</time>
<speed>1.1</speed>
</trkpt>
<trkpt lat="47.675850" lon="8.620414">
<ele>381.4</ele>
<time>2003-05-19T07:58:24Z</time>
<speed>1.4</speed>
</trkpt>
<trkpt lat="47.675830" lon="8.620329">
<ele>382.1</ele>
<time>2003-05-19T07:58:29Z</time>
<speed>0.8</speed>
</trkpt>
<trkpt lat="47.675818" lon="8.620233">
<ele>382.0</ele>
<time>2003-05-19T07:58:34Z</time>
<speed>0.8</speed>
</trkpt>
<trkpt lat="47.675811" lon="8.620152">
<ele>381.3</ele>
<time>2003-05-19T07:58:39Z</time>
<speed>0.8</speed>
</trkpt>
<trkpt lat="47.675812" lon="8.620058">
<ele>381.2</ele>
<time>2003-05-19T07:58:44Z</time>
<speed>1.1</speed>
</trkpt>
<trkpt lat="47.675824" lon="8.619963">
<ele>382.7</ele>
<time>2003-05-19T07:58:49Z</time>
<speed>1.1</speed>
</trkpt>
<trkpt lat="47.675824" lon="8.619869">
<ele>382.6</ele>
<time>2003-05-19T07:58:54Z</time>
<speed>1.1</speed>
</trkpt>
<trkpt lat="47.675824" lon="8.619788">
<ele>382.7</ele>
<time>2003-05-19T07:58:59Z</time>
<speed>1.4</speed>
</trkpt>
<trkpt lat="47.675830" lon="8.619694">
<ele>383.4</ele>
<time>2003-05-19T07:59:04Z</time>
<speed>0.8</speed>
</trkpt>
<trkpt lat="47.675824" lon="8.619598">
<ele>384.0</ele>
<time>2003-05-19T07:59:09Z</time>
<speed>1.1</speed>
</trkpt>
<trkpt lat="47.675831" lon="8.619504">
<ele>384.7</ele>
<time>2003-05-19T07:59:14Z</time>
<speed>1.1</speed>
</trkpt>
<trkpt lat="47.675850" lon="8.619412">
<ele>385.5</ele>
<time>2003-05-19T07:59:19Z</time>
<speed>1.1</speed>
</trkpt>
<trkpt lat="47.675862" lon="8.619318">
<ele>386.9</ele>
<time>2003-05-19T07:59:24Z</time>
<speed>1.1</speed>
</trkpt>
<trkpt lat="47.675851" lon="8.619208">
<ele>386.7</ele>
<time>2003-05-19T07:59:29Z</time>
<speed>1.4</speed>
</trkpt>
<trkpt lat="47.675845" lon="8.619114">
<ele>385.9</ele>
<time>2003-05-19T07:59:34Z</time>
<speed>1.1</speed>
</trkpt>
<trkpt lat="47.675845" lon="8.619035">
<ele>384.6</ele>
<time>2003-05-19T07:59:39Z</time>
<speed>1.1</speed>
</trkpt>
<trkpt lat="47.675863" lon="8.618956">
<ele>385.5</ele>
<time>2003-05-19T07:59:44Z</time>
<speed>1.1</speed>
</trkpt>
<trkpt lat="47.675890" lon="8.618868">
<ele>384.2</ele>
<time>2003-05-19T07:59:49Z</time>
<speed>1.1</speed>
</trkpt>
<trkpt lat="47.675927" lon="8.618793">
<ele>384.5</ele>
<time>2003-05-19T07:59:54Z</time>
<speed>1.1</speed>
</trkpt>
<trkpt lat="47.675981" lon="8.618748">
<ele>384.3</ele>
<time>2003-05-19T07:59:59Z</time>
<speed>1.1</speed>
</trkpt>
<trkpt lat="47.676031" lon="8.618675">
<ele>384.7</ele>
<time>2003-05-19T08:00:04Z</time>
<speed>1.4</speed>
</trkpt>
<trkpt lat="47.676092" lon="8.618630">
<ele>385.3</ele>
<time>2003-05-19T08:00:09Z</time>
<speed>1.1</speed>
</trkpt>
<trkpt lat="47.676140" lon="8.618586">
<ele>384.5</ele>
<time>2003-05-19T08:00:14Z</time>
<speed>1.1</speed>
</trkpt>
<trkpt lat="47.676188" lon="8.618539">
<ele>385.0</ele>
<time>2003-05-19T08:00:19Z</time>
<speed>0.8</speed>
</trkpt>
<trkpt lat="47.676248" lon="8.618510">
<ele>384.4</ele>
<time>2003-05-19T08:00:24Z</time>
<speed>1.1</speed>
</trkpt>
<trkpt lat="47.676297" lon="8.618450">
<ele>384.8</ele>
<time>2003-05-19T08:00:29Z</time>
<speed>0.8</speed>
</trkpt>
<trkpt lat="47.676352" lon="8.618405">
<ele>384.7</ele>
<time>2003-05-19T08:00:34Z</time>
<speed>1.1</speed>
</trkpt>
<trkpt lat="47.676408" lon="8.618349">
<ele>383.1</ele>
<time>2003-05-19T08:00:39Z</time>
<speed>1.1</speed>
</trkpt>
<trkpt lat="47.676456" lon="8.618303">
<ele>383.6</ele>
<time>2003-05-19T08:00:44Z</time>
<speed>0.8</speed>
</trkpt>
<trkpt lat="47.676476" lon="8.618278">
<ele>384.3</ele>
<time>2003-05-19T08:00:49Z</time>
<speed>0.6</speed>
</trkpt>
<trkpt lat="47.676522" lon="8.618258">
<ele>385.0</ele>
<time>2003-05-19T08:00:54Z</time>
<speed>0.8</speed>
</trkpt>
<trkpt lat="47.676568" lon="8.618238">
<ele>385.8</ele>
<time>2003-05-19T08:00:59Z</time>
<speed>0.8</speed>
</trkpt>
<trkpt lat="47.676596" lon="8.618202">
<ele>385.6</ele>
<time>2003-05-19T08:01:04Z</time>
<speed>0.3</speed>
</trkpt>
<trkpt lat="47.676640" lon="8.618208">
<ele>386.6</ele>
<time>2003-05-19T08:01:09Z</time>
<speed>0.3</speed>
</trkpt>
<trkpt lat="47.676687" lon="8.618190">
<ele>385.9</ele>
<time>2003-05-19T08:01:14Z</time>
<speed>0.6</speed>
</trkpt>
<trkpt lat="47.676769" lon="8.618202">
<ele>387.1</ele>
<time>2003-05-19T08:01:19Z</time>
<speed>0.8</speed>
</trkpt>
<trkpt lat="47.676827" lon="8.618198">
<ele>386.6</ele>
<time>2003-05-19T08:01:24Z</time>
<speed>0.6</speed>
</trkpt>
<trkpt lat="47.676871" lon="8.618204">
<ele>387.6</ele>
<time>2003-05-19T08:01:29Z</time>
<speed>0.6</speed>
</trkpt>
<trkpt lat="47.676933" lon="8.618228">
<ele>388.1</ele>
<time>2003-05-19T08:01:34Z</time>
<speed>0.6</speed>
</trkpt>
<trkpt lat="47.676986" lon="8.618196">
<ele>388.1</ele>
<time>2003-05-19T08:01:39Z</time>
<speed>1.1</speed>
</trkpt>
<trkpt lat="47.677054" lon="8.618153">
<ele>388.0</ele>
<time>2003-05-19T08:01:44Z</time>
<speed>0.8</speed>
</trkpt>
<trkpt lat="47.677108" lon="8.618109">
<ele>387.9</ele>
<time>2003-05-19T08:01:49Z</time>
<speed>0.8</speed>
</trkpt>
<trkpt lat="47.677144" lon="8.618047">
<ele>388.3</ele>
<time>2003-05-19T08:01:54Z</time>
<speed>0.8</speed>
</trkpt>
<trkpt lat="47.677181" lon="8.617985">
<ele>388.7</ele>
<time>2003-05-19T08:01:59Z</time>
<speed>1.1</speed>
</trkpt>
<trkpt lat="47.677249" lon="8.617914">
<ele>389.9</ele>
<time>2003-05-19T08:02:04Z</time>
<speed>1.1</speed>
</trkpt>
<trkpt lat="47.677303" lon="8.617867">
<ele>391.2</ele>
<time>2003-05-19T08:02:09Z</time>
<speed>0.8</speed>
</trkpt>
<trkpt lat="47.677352" lon="8.617805">
<ele>393.0</ele>
<time>2003-05-19T08:02:14Z</time>
<speed>1.1</speed>
</trkpt>
<trkpt lat="47.677406" lon="8.617761">
<ele>392.9</ele>
<time>2003-05-19T08:02:19Z</time>
<speed>0.8</speed>
</trkpt>
<trkpt lat="47.677449" lon="8.617686">
<ele>393.9</ele>
<time>2003-05-19T08:02:24Z</time>
<speed>0.8</speed>
</trkpt>
<trkpt lat="47.677479" lon="8.617637">
<ele>393.7</ele>
<time>2003-05-19T08:02:29Z</time>
<speed>0.8</speed>
</trkpt>
<trkpt lat="47.677507" lon="8.617602">
<ele>393.5</ele>
<time>2003-05-19T08:02:34Z</time>
<speed>0.6</speed>
</trkpt>
<trkpt lat="47.677553" lon="8.617583">
<ele>392.9</ele>
<time>2003-05-19T08:02:39Z</time>
<speed>0.8</speed>
</trkpt>
<trkpt lat="47.677588" lon="8.617533">
<ele>394.8</ele>
<time>2003-05-19T08:02:44Z</time>
<speed>0.6</speed>
</trkpt>
<trkpt lat="47.677643" lon="8.617488">
<ele>394.6</ele>
<time>2003-05-19T08:02:49Z</time>
<speed>1.1</speed>
</trkpt>
<trkpt lat="47.677691" lon="8.617441">
<ele>395.2</ele>
<time>2003-05-19T08:02:54Z</time>
<speed>0.8</speed>
</trkpt>
<trkpt lat="47.677720" lon="8.617393">
<ele>394.9</ele>
<time>2003-05-19T08:02:59Z</time>
<speed>0.6</speed>
</trkpt>
<trkpt lat="47.677767" lon="8.617359">
<ele>395.6</ele>
<time>2003-05-19T08:03:05Z</time>
<speed>0.8</speed>
</trkpt>
<trkpt lat="47.677825" lon="8.617356">
<ele>395.1</ele>
<time>2003-05-19T08:03:10Z</time>
<speed>1.1</speed>
</trkpt>
<trkpt lat="47.677891" lon="8.617326">
<ele>395.2</ele>
<time>2003-05-19T08:03:15Z</time>
<speed>1.1</speed>
</trkpt>
<trkpt lat="47.677958" lon="8.617284">
<ele>395.2</ele>
<time>2003-05-19T08:03:20Z</time>
<speed>1.4</speed>
</trkpt>
<trkpt lat="47.678018" lon="8.617252">
<ele>395.9</ele>
<time>2003-05-19T08:03:25Z</time>
<speed>1.1</speed>
</trkpt>
<trkpt lat="47.678052" lon="8.617217">
<ele>396.5</ele>
<time>2003-05-19T08:03:30Z</time>
<speed>0.6</speed>
</trkpt>
<trkpt lat="47.678106" lon="8.617187">
<ele>395.1</ele>
<time>2003-05-19T08:03:35Z</time>
<speed>0.8</speed>
</trkpt>
<trkpt lat="47.678173" lon="8.617142">
<ele>396.4</ele>
<time>2003-05-19T08:03:40Z</time>
<speed>0.8</speed>
</trkpt>
<trkpt lat="47.678228" lon="8.617085">
<ele>396.2</ele>
<time>2003-05-19T08:03:45Z</time>
<speed>0.6</speed>
</trkpt>
<trkpt lat="47.678211" lon="8.617054">
<ele>396.6</ele>
<time>2003-05-19T08:03:50Z</time>
<speed>0.0</speed>
</trkpt>
<trkpt lat="47.678198" lon="8.617052">
<ele>396.5</ele>
<time>2003-05-19T08:03:55Z</time>
<speed>0.0</speed>
</trkpt>
<trkpt lat="47.678198" lon="8.617052">
<ele>396.5</ele>
<time>2003-05-19T08:04:00Z</time>
<speed>0.0</speed>
</trkpt>
<trkpt lat="47.678198" lon="8.617052">
<ele>396.5</ele>
<time>2003-05-19T08:04:05Z</time>
<speed>0.0</speed>
</trkpt>
<trkpt lat="47.678193" lon="8.617037">
<ele>397.1</ele>
<time>2003-05-19T08:04:10Z</time>
<speed>0.0</speed>
</trkpt>
<trkpt lat="47.678199" lon="8.617037">
<ele>397.8</ele>
<time>2003-05-19T08:04:15Z</time>
<speed>0.0</speed>
</trkpt>
<trkpt lat="47.678200" lon="8.617024">
<ele>397.7</ele>
<time>2003-05-19T08:04:20Z</time>
<speed>0.0</speed>
</trkpt>
<trkpt lat="47.678200" lon="8.617024">
<ele>397.7</ele>
<time>2003-05-19T08:04:25Z</time>
<speed>0.0</speed>
</trkpt>
<trkpt lat="47.678200" lon="8.617024">
<ele>397.7</ele>
<time>2003-05-19T08:04:30Z</time>
<speed>0.0</speed>
</trkpt>
<trkpt lat="47.678200" lon="8.617009">
<ele>399.0</ele>
<time>2003-05-19T08:04:35Z</time>
<speed>0.3</speed>
</trkpt>
<trkpt lat="47.678200" lon="8.617009">
<ele>399.0</ele>
<time>2003-05-19T08:04:40Z</time>
<speed>0.0</speed>
</trkpt>
<trkpt lat="47.678200" lon="8.617009">
<ele>399.0</ele>
<time>2003-05-19T08:04:45Z</time>
<speed>0.0</speed>
</trkpt>
<trkpt lat="47.678201" lon="8.616996">
<ele>398.9</ele>
<time>2003-05-19T08:04:50Z</time>
<speed>0.0</speed>
</trkpt>
<trkpt lat="47.678201" lon="8.616996">
<ele>398.9</ele>
<time>2003-05-19T08:04:55Z</time>
<speed>0.0</speed>
</trkpt>
<trkpt lat="47.678201" lon="8.616996">
<ele>398.9</ele>
<time>2003-05-19T08:05:00Z</time>
<speed>0.0</speed>
</trkpt>
<trkpt lat="47.678201" lon="8.616996">
<ele>398.9</ele>
<time>2003-05-19T08:05:05Z</time>
<speed>0.0</speed>
</trkpt>
<trkpt lat="47.678202" lon="8.616982">
<ele>398.8</ele>
<time>2003-05-19T08:05:10Z</time>
<speed>0.0</speed>
</trkpt>
<trkpt lat="47.678202" lon="8.616982">
<ele>398.8</ele>
<time>2003-05-19T08:05:15Z</time>
<speed>0.0</speed>
</trkpt>
<trkpt lat="47.678202" lon="8.616980">
<ele>400.3</ele>
<time>2003-05-19T08:05:20Z</time>
<speed>0.0</speed>
</trkpt>
<trkpt lat="47.678202" lon="8.616980">
<ele>400.3</ele>
<time>2003-05-19T08:05:25Z</time>
<speed>0.0</speed>
</trkpt>
<trkpt lat="47.678202" lon="8.616980">
<ele>400.3</ele>
<time>2003-05-19T08:05:30Z</time>
<speed>0.0</speed>
</trkpt>
<trkpt lat="47.678202" lon="8.616980">
<ele>400.3</ele>
<time>2003-05-19T08:05:35Z</time>
<speed>0.0</speed>
</trkpt>
<trkpt lat="47.678202" lon="8.616980">
<ele>400.3</ele>
<time>2003-05-19T08:05:40Z</time>
<speed>0.0</speed>
</trkpt>
<trkpt lat="47.678208" lon="8.616980">
<ele>401.0</ele>
<time>2003-05-19T08:05:45Z</time>
<speed>0.0</speed>
</trkpt>
<trkpt lat="47.678208" lon="8.616980">
<ele>401.0</ele>
<time>2003-05-19T08:05:50Z</time>
<speed>0.0</speed>
</trkpt>
<trkpt lat="47.678208" lon="8.616980">
<ele>401.0</ele>
<time>2003-05-19T08:05:55Z</time>
<speed>0.0</speed>
</trkpt>
<trkpt lat="47.678208" lon="8.616980">
<ele>401.0</ele>
<time>2003-05-19T08:06:00Z</time>
<speed>0.0</speed>
</trkpt>
<trkpt lat="47.678208" lon="8.616980">
<ele>401.0</ele>
<time>2003-05-19T08:06:05Z</time>
<speed>0.0</speed>
</trkpt>
<trkpt lat="47.678208" lon="8.616980">
<ele>401.0</ele>
<time>2003-05-19T08:06:10Z</time>
<speed>0.0</speed>
</trkpt>
<trkpt lat="47.678208" lon="8.616980">
<ele>401.0</ele>
<time>2003-05-19T08:06:15Z</time>
<speed>0.0</speed>
</trkpt>
<trkpt lat="47.678208" lon="8.616980">
<ele>401.0</ele>
<time>2003-05-19T08:06:20Z</time>
<speed>0.3</speed>
</trkpt>
<trkpt lat="47.678212" lon="8.617009">
<ele>400.5</ele>
<time>2003-05-19T08:06:25Z</time>
<speed>0.3</speed>
</trkpt>
<trkpt lat="47.678212" lon="8.617009">
<ele>400.5</ele>
<time>2003-05-19T08:06:30Z</time>
<speed>0.0</speed>
</trkpt>
<trkpt lat="47.678212" lon="8.617009">
<ele>400.5</ele>
<time>2003-05-19T08:06:35Z</time>
<speed>0.0</speed>
</trkpt>
<trkpt lat="47.678212" lon="8.617009">
<ele>400.5</ele>
<time>2003-05-19T08:06:40Z</time>
<speed>0.0</speed>
</trkpt>
<trkpt lat="47.678218" lon="8.617009">
<ele>401.3</ele>
<time>2003-05-19T08:06:45Z</time>
<speed>0.0</speed>
</trkpt>
<trkpt lat="47.678218" lon="8.617009">
<ele>401.3</ele>
<time>2003-05-19T08:06:50Z</time>
<speed>0.0</speed>
</trkpt>
<trkpt lat="47.678218" lon="8.617009">
<ele>401.3</ele>
<time>2003-05-19T08:06:55Z</time>
<speed>0.0</speed>
</trkpt>
<trkpt lat="47.678218" lon="8.617009">
<ele>401.3</ele>
<time>2003-05-19T08:07:00Z</time>
<speed>0.0</speed>
</trkpt>
<trkpt lat="47.678218" lon="8.617009">
<ele>401.3</ele>
<time>2003-05-19T08:07:05Z</time>
<speed>0.0</speed>
</trkpt>
<trkpt lat="47.678218" lon="8.617009">
<ele>401.3</ele>
<time>2003-05-19T08:07:10Z</time>
<speed>0.0</speed>
</trkpt>
<trkpt lat="47.678218" lon="8.617009">
<ele>401.3</ele>
<time>2003-05-19T08:07:15Z</time>
<speed>0.0</speed>
</trkpt>
<trkpt lat="47.678218" lon="8.617009">
<ele>401.3</ele>
<time>2003-05-19T08:07:20Z</time>
<speed>0.0</speed>
</trkpt>
<trkpt lat="47.678218" lon="8.617009">
<ele>401.3</ele>
<time>2003-05-19T08:07:25Z</time>
<speed>0.0</speed>
</trkpt>
<trkpt lat="47.678217" lon="8.617022">
<ele>401.4</ele>
<time>2003-05-19T08:07:30Z</time>
<speed>0.0</speed>
</trkpt>
<trkpt lat="47.678230" lon="8.617039">
<ele>400.1</ele>
<time>2003-05-19T08:07:35Z</time>
<speed>0.3</speed>
</trkpt>
<trkpt lat="47.678255" lon="8.617043">
<ele>400.3</ele>
<time>2003-05-19T08:07:40Z</time>
<speed>0.6</speed>
</trkpt>
<trkpt lat="47.678293" lon="8.617049">
<ele>400.5</ele>
<time>2003-05-19T08:07:45Z</time>
<speed>0.8</speed>
</trkpt>
<trkpt lat="47.678338" lon="8.617044">
<ele>400.0</ele>
<time>2003-05-19T08:07:50Z</time>
<speed>0.6</speed>
</trkpt>
<trkpt lat="47.678390" lon="8.617039">
<ele>400.2</ele>
<time>2003-05-19T08:07:55Z</time>
<speed>1.1</speed>
</trkpt>
<trkpt lat="47.678470" lon="8.616998">
<ele>400.2</ele>
<time>2003-05-19T08:08:01Z</time>
<speed>1.1</speed>
</trkpt>
<trkpt lat="47.678531" lon="8.616955">
<ele>399.4</ele>
<time>2003-05-19T08:08:06Z</time>
<speed>1.1</speed>
</trkpt>
<trkpt lat="47.678591" lon="8.616911">
<ele>400.0</ele>
<time>2003-05-19T08:08:11Z</time>
<speed>1.1</speed>
</trkpt>
<trkpt lat="47.678648" lon="8.616840">
<ele>399.7</ele>
<time>2003-05-19T08:08:16Z</time>
<speed>1.1</speed>
</trkpt>
<trkpt lat="47.678695" lon="8.616806">
<ele>400.4</ele>
<time>2003-05-19T08:08:21Z</time>
<speed>1.4</speed>
</trkpt>
<trkpt lat="47.678736" lon="8.616759">
<ele>400.2</ele>
<time>2003-05-19T08:08:26Z</time>
<speed>0.8</speed>
</trkpt>
<trkpt lat="47.678776" lon="8.616739">
<ele>400.2</ele>
<time>2003-05-19T08:08:31Z</time>
<speed>0.8</speed>
</trkpt>
<trkpt lat="47.678836" lon="8.616708">
<ele>401.0</ele>
<time>2003-05-19T08:08:36Z</time>
<speed>0.6</speed>
</trkpt>
<trkpt lat="47.678857" lon="8.616683">
<ele>401.6</ele>
<time>2003-05-19T08:08:41Z</time>
<speed>0.3</speed>
</trkpt>
<trkpt lat="47.678884" lon="8.616661">
<ele>401.5</ele>
<time>2003-05-19T08:08:46Z</time>
<speed>0.6</speed>
</trkpt>
<trkpt lat="47.678901" lon="8.616597">
<ele>401.1</ele>
<time>2003-05-19T08:08:51Z</time>
<speed>0.3</speed>
</trkpt>
<trkpt lat="47.678899" lon="8.616544">
<ele>399.9</ele>
<time>2003-05-19T08:08:56Z</time>
<speed>0.0</speed>
</trkpt>
<trkpt lat="47.678903" lon="8.616507">
<ele>398.2</ele>
<time>2003-05-19T08:09:01Z</time>
<speed>0.3</speed>
</trkpt>
<trkpt lat="47.678901" lon="8.616454">
<ele>397.1</ele>
<time>2003-05-19T08:09:06Z</time>
<speed>0.3</speed>
</trkpt>
<trkpt lat="47.678897" lon="8.616413">
<ele>397.5</ele>
<time>2003-05-19T08:09:11Z</time>
<speed>0.3</speed>
</trkpt>
<trkpt lat="47.678889" lon="8.616358">
<ele>397.0</ele>
<time>2003-05-19T08:09:16Z</time>
<speed>0.3</speed>
</trkpt>
<trkpt lat="47.678886" lon="8.616318">
<ele>395.9</ele>
<time>2003-05-19T08:09:21Z</time>
<speed>0.6</speed>
</trkpt>
<trkpt lat="47.678884" lon="8.616268">
<ele>393.4</ele>
<time>2003-05-19T08:09:26Z</time>
<speed>0.3</speed>
</trkpt>
<trkpt lat="47.678862" lon="8.616226">
<ele>391.5</ele>
<time>2003-05-19T08:09:31Z</time>
<speed>0.8</speed>
</trkpt>
<trkpt lat="47.678828" lon="8.616183">
<ele>389.6</ele>
<time>2003-05-19T08:09:36Z</time>
<speed>0.6</speed>
</trkpt>
<trkpt lat="47.678792" lon="8.616153">
<ele>387.8</ele>
<time>2003-05-19T08:09:41Z</time>
<speed>0.6</speed>
</trkpt>
<trkpt lat="47.678769" lon="8.616122">
<ele>387.4</ele>
<time>2003-05-19T08:09:46Z</time>
<speed>0.0</speed>
</trkpt>
<trkpt lat="47.678771" lon="8.616111">
<ele>385.9</ele>
<time>2003-05-19T08:09:51Z</time>
<speed>0.0</speed>
</trkpt>
<trkpt lat="47.678785" lon="8.616087">
<ele>385.8</ele>
<time>2003-05-19T08:09:56Z</time>
<speed>0.8</speed>
</trkpt>
<trkpt lat="47.678781" lon="8.615979">
<ele>384.9</ele>
<time>2003-05-19T08:10:01Z</time>
<speed>1.4</speed>
</trkpt>
<trkpt lat="47.678781" lon="8.615885">
<ele>384.9</ele>
<time>2003-05-19T08:10:06Z</time>
<speed>1.1</speed>
</trkpt>
<trkpt lat="47.678754" lon="8.615813">
<ele>384.9</ele>
<time>2003-05-19T08:10:11Z</time>
<speed>1.1</speed>
</trkpt>
<trkpt lat="47.678754" lon="8.615734">
<ele>383.5</ele>
<time>2003-05-19T08:10:16Z</time>
<speed>1.1</speed>
</trkpt>
<trkpt lat="47.678792" lon="8.615661">
<ele>382.4</ele>
<time>2003-05-19T08:10:21Z</time>
<speed>1.1</speed>
</trkpt>
<trkpt lat="47.678789" lon="8.615607">
<ele>382.7</ele>
<time>2003-05-19T08:10:26Z</time>
<speed>0.8</speed>
</trkpt>
<trkpt lat="47.678781" lon="8.615537">
<ele>383.5</ele>
<time>2003-05-19T08:10:31Z</time>
<speed>0.6</speed>
</trkpt>
<trkpt lat="47.678763" lon="8.615520">
<ele>384.0</ele>
<time>2003-05-19T08:10:36Z</time>
<speed>0.0</speed>
</trkpt>
<trkpt lat="47.678751" lon="8.615505">
<ele>383.8</ele>
<time>2003-05-19T08:10:41Z</time>
<speed>0.0</speed>
</trkpt>
<trkpt lat="47.678725" lon="8.615514">
<ele>383.8</ele>
<time>2003-05-19T08:10:46Z</time>
<speed>0.0</speed>
</trkpt>
<trkpt lat="47.678720" lon="8.615501">
<ele>382.9</ele>
<time>2003-05-19T08:10:51Z</time>
<speed>0.0</speed>
</trkpt>
<trkpt lat="47.678720" lon="8.615501">
<ele>382.9</ele>
<time>2003-05-19T08:10:56Z</time>
<speed>0.0</speed>
</trkpt>
<trkpt lat="47.678720" lon="8.615501">
<ele>382.9</ele>
<time>2003-05-19T08:11:01Z</time>
<speed>0.0</speed>
</trkpt>
<trkpt lat="47.678720" lon="8.615501">
<ele>382.9</ele>
<time>2003-05-19T08:11:06Z</time>
<speed>0.3</speed>
</trkpt>
<trkpt lat="47.678724" lon="8.615463">
<ele>381.2</ele>
<time>2003-05-19T08:11:11Z</time>
<speed>0.0</speed>
</trkpt>
<trkpt lat="47.678724" lon="8.615463">
<ele>381.2</ele>
<time>2003-05-19T08:11:16Z</time>
<speed>0.0</speed>
</trkpt>
<trkpt lat="47.678724" lon="8.615463">
<ele>381.2</ele>
<time>2003-05-19T08:11:21Z</time>
<speed>0.0</speed>
</trkpt>
<trkpt lat="47.678745" lon="8.615441">
<ele>380.4</ele>
<time>2003-05-19T08:11:26Z</time>
<speed>0.0</speed>
</trkpt>
<trkpt lat="47.678745" lon="8.615441">
<ele>380.4</ele>
<time>2003-05-19T08:11:31Z</time>
<speed>0.0</speed>
</trkpt>
<trkpt lat="47.678751" lon="8.615443">
<ele>379.8</ele>
<time>2003-05-19T08:11:36Z</time>
<speed>0.0</speed>
</trkpt>
<trkpt lat="47.678751" lon="8.615443">
<ele>379.8</ele>
<time>2003-05-19T08:11:41Z</time>
<speed>0.0</speed>
</trkpt>
<trkpt lat="47.678746" lon="8.615430">
<ele>378.9</ele>
<time>2003-05-19T08:11:46Z</time>
<speed>0.3</speed>
</trkpt>
<trkpt lat="47.678759" lon="8.615432">
<ele>379.0</ele>
<time>2003-05-19T08:11:51Z</time>
<speed>0.0</speed>
</trkpt>
<trkpt lat="47.678759" lon="8.615432">
<ele>379.0</ele>
<time>2003-05-19T08:11:56Z</time>
<speed>0.0</speed>
</trkpt>
<trkpt lat="47.678759" lon="8.615432">
<ele>379.0</ele>
<time>2003-05-19T08:12:01Z</time>
<speed>0.0</speed>
</trkpt>
<trkpt lat="47.678759" lon="8.615432">
<ele>379.0</ele>
<time>2003-05-19T08:12:06Z</time>
<speed>0.0</speed>
</trkpt>
<trkpt lat="47.678759" lon="8.615432">
<ele>379.0</ele>
<time>2003-05-19T08:12:11Z</time>
<speed>0.0</speed>
</trkpt>
<trkpt lat="47.678759" lon="8.615432">
<ele>379.0</ele>
<time>2003-05-19T08:12:16Z</time>
<speed>0.0</speed>
</trkpt>
<trkpt lat="47.678759" lon="8.615432">
<ele>379.0</ele>
<time>2003-05-19T08:12:21Z</time>
<speed>0.0</speed>
</trkpt>
<trkpt lat="47.678758" lon="8.615445">
<ele>379.1</ele>
<time>2003-05-19T08:12:26Z</time>
<speed>0.0</speed>
</trkpt>
<trkpt lat="47.678758" lon="8.615445">
<ele>379.1</ele>
<time>2003-05-19T08:12:31Z</time>
<speed>0.6</speed>
</trkpt>
<trkpt lat="47.678753" lon="8.615432">
<ele>378.3</ele>
<time>2003-05-19T08:12:36Z</time>
<speed>0.0</speed>
</trkpt>
<trkpt lat="47.678739" lon="8.615443">
<ele>378.3</ele>
<time>2003-05-19T08:12:41Z</time>
<speed>0.3</speed>
</trkpt>
<trkpt lat="47.678712" lon="8.615465">
<ele>378.4</ele>
<time>2003-05-19T08:12:46Z</time>
<speed>0.6</speed>
</trkpt>
<trkpt lat="47.678688" lon="8.615450">
<ele>376.7</ele>
<time>2003-05-19T08:12:51Z</time>
<speed>0.6</speed>
</trkpt>
<trkpt lat="47.678685" lon="8.615410">
<ele>375.7</ele>
<time>2003-05-19T08:12:56Z</time>
<speed>0.3</speed>
</trkpt>
<trkpt lat="47.678702" lon="8.615360">
<ele>375.3</ele>
<time>2003-05-19T08:13:01Z</time>
<speed>0.6</speed>
</trkpt>
<trkpt lat="47.678711" lon="8.615320">
<ele>375.8</ele>
<time>2003-05-19T08:13:06Z</time>
<speed>0.8</speed>
</trkpt>
<trkpt lat="47.678727" lon="8.615270">
<ele>375.4</ele>
<time>2003-05-19T08:13:11Z</time>
<speed>0.6</speed>
</trkpt>
<trkpt lat="47.678751" lon="8.615206">
<ele>375.7</ele>
<time>2003-05-19T08:13:17Z</time>
<speed>0.6</speed>
</trkpt>
<trkpt lat="47.678762" lon="8.615155">
<ele>374.7</ele>
<time>2003-05-19T08:13:22Z</time>
<speed>0.6</speed>
</trkpt>
<trkpt lat="47.678776" lon="8.615131">
<ele>374.5</ele>
<time>2003-05-19T08:13:27Z</time>
<speed>0.3</speed>
</trkpt>
<trkpt lat="47.678805" lon="8.615082">
<ele>374.3</ele>
<time>2003-05-19T08:13:32Z</time>
<speed>0.3</speed>
</trkpt>
<trkpt lat="47.678820" lon="8.615058">
<ele>374.2</ele>
<time>2003-05-19T08:13:37Z</time>
<speed>0.3</speed>
</trkpt>
<trkpt lat="47.678835" lon="8.615033">
<ele>374.0</ele>
<time>2003-05-19T08:13:42Z</time>
<speed>0.3</speed>
</trkpt>
<trkpt lat="47.678861" lon="8.615024">
<ele>374.1</ele>
<time>2003-05-19T08:13:47Z</time>
<speed>0.3</speed>
</trkpt>
<trkpt lat="47.678885" lon="8.615041">
<ele>374.3</ele>
<time>2003-05-19T08:13:52Z</time>
<speed>0.3</speed>
</trkpt>
<trkpt lat="47.678916" lon="8.615060">
<ele>373.9</ele>
<time>2003-05-19T08:13:57Z</time>
<speed>0.6</speed>
</trkpt>
<trkpt lat="47.678959" lon="8.615095">
<ele>373.7</ele>
<time>2003-05-19T08:14:02Z</time>
<speed>0.8</speed>
</trkpt>
<trkpt lat="47.679002" lon="8.615116">
<ele>373.3</ele>
<time>2003-05-19T08:14:07Z</time>
<speed>0.6</speed>
</trkpt>
<trkpt lat="47.679061" lon="8.615100">
<ele>372.8</ele>
<time>2003-05-19T08:14:12Z</time>
<speed>1.1</speed>
</trkpt>
<trkpt lat="47.679121" lon="8.615070">
<ele>372.1</ele>
<time>2003-05-19T08:14:17Z</time>
<speed>1.1</speed>
</trkpt>
<trkpt lat="47.679160" lon="8.614984">
<ele>370.9</ele>
<time>2003-05-19T08:14:22Z</time>
<speed>1.1</speed>
</trkpt>
<trkpt lat="47.679223" lon="8.614915">
<ele>369.9</ele>
<time>2003-05-19T08:14:27Z</time>
<speed>1.1</speed>
</trkpt>
<trkpt lat="47.679290" lon="8.614872">
<ele>369.8</ele>
<time>2003-05-19T08:14:32Z</time>
<speed>1.1</speed>
</trkpt>
<trkpt lat="47.679359" lon="8.614803">
<ele>369.6</ele>
<time>2003-05-19T08:14:37Z</time>
<speed>1.4</speed>
</trkpt>
<trkpt lat="47.679415" lon="8.614745">
<ele>369.4</ele>
<time>2003-05-19T08:14:42Z</time>
<speed>0.8</speed>
</trkpt>
<trkpt lat="47.679470" lon="8.614687">
<ele>369.2</ele>
<time>2003-05-19T08:14:47Z</time>
<speed>1.1</speed>
</trkpt>
<trkpt lat="47.679525" lon="8.614643">
<ele>369.1</ele>
<time>2003-05-19T08:14:52Z</time>
<speed>0.8</speed>
</trkpt>
<trkpt lat="47.679579" lon="8.614598">
<ele>369.0</ele>
<time>2003-05-19T08:14:57Z</time>
<speed>1.1</speed>
</trkpt>
<trkpt lat="47.679635" lon="8.614540">
<ele>368.8</ele>
<time>2003-05-19T08:15:02Z</time>
<speed>1.1</speed>
</trkpt>
<trkpt lat="47.679691" lon="8.614469">
<ele>368.5</ele>
<time>2003-05-19T08:15:07Z</time>
<speed>1.4</speed>
</trkpt>
<trkpt lat="47.679736" lon="8.614383">
<ele>368.0</ele>
<time>2003-05-19T08:15:12Z</time>
<speed>1.1</speed>
</trkpt>
<trkpt lat="47.679742" lon="8.614304">
<ele>367.4</ele>
<time>2003-05-19T08:15:17Z</time>
<speed>1.1</speed>
</trkpt>
<trkpt lat="47.679756" lon="8.614214">
<ele>366.0</ele>
<time>2003-05-19T08:15:22Z</time>
<speed>1.1</speed>
</trkpt>
<trkpt lat="47.679787" lon="8.614139">
<ele>365.5</ele>
<time>2003-05-19T08:15:27Z</time>
<speed>1.1</speed>
</trkpt>
<trkpt lat="47.679825" lon="8.614066">
<ele>364.4</ele>
<time>2003-05-19T08:15:32Z</time>
<speed>1.1</speed>
</trkpt>
<trkpt lat="47.679856" lon="8.613991">
<ele>364.0</ele>
<time>2003-05-19T08:15:37Z</time>
<speed>1.1</speed>
</trkpt>
<trkpt lat="47.679895" lon="8.613889">
<ele>364.0</ele>
<time>2003-05-19T08:15:42Z</time>
<speed>1.4</speed>
</trkpt>
<trkpt lat="47.679915" lon="8.613799">
<ele>363.4</ele>
<time>2003-05-19T08:15:47Z</time>
<speed>1.1</speed>
</trkpt>
<trkpt lat="47.679915" lon="8.613705">
<ele>363.4</ele>
<time>2003-05-19T08:15:52Z</time>
<speed>1.1</speed>
</trkpt>
<trkpt lat="47.679910" lon="8.613611">
<ele>362.6</ele>
<time>2003-05-19T08:15:57Z</time>
<speed>1.1</speed>
</trkpt>
<trkpt lat="47.679896" lon="8.613528">
<ele>362.6</ele>
<time>2003-05-19T08:16:02Z</time>
<speed>1.1</speed>
</trkpt>
<trkpt lat="47.679884" lon="8.613432">
<ele>362.5</ele>
<time>2003-05-19T08:16:07Z</time>
<speed>1.1</speed>
</trkpt>
<trkpt lat="47.679871" lon="8.613349">
<ele>362.4</ele>
<time>2003-05-19T08:16:12Z</time>
<speed>1.4</speed>
</trkpt>
<trkpt lat="47.679853" lon="8.613253">
<ele>361.6</ele>
<time>2003-05-19T08:16:17Z</time>
<speed>1.1</speed>
</trkpt>
<trkpt lat="47.679834" lon="8.613156">
<ele>360.7</ele>
<time>2003-05-19T08:16:22Z</time>
<speed>1.1</speed>
</trkpt>
<trkpt lat="47.679816" lon="8.613060">
<ele>359.9</ele>
<time>2003-05-19T08:16:27Z</time>
<speed>1.1</speed>
</trkpt>
<trkpt lat="47.679791" lon="8.612977">
<ele>358.4</ele>
<time>2003-05-19T08:16:32Z</time>
<speed>1.4</speed>
</trkpt>
<trkpt lat="47.679758" lon="8.612890">
<ele>359.0</ele>
<time>2003-05-19T08:16:37Z</time>
<speed>1.1</speed>
</trkpt>
<trkpt lat="47.679726" lon="8.612805">
<ele>358.1</ele>
<time>2003-05-19T08:16:42Z</time>
<speed>1.4</speed>
</trkpt>
<trkpt lat="47.679681" lon="8.612716">
<ele>358.6</ele>
<time>2003-05-19T08:16:47Z</time>
<speed>1.1</speed>
</trkpt>
<trkpt lat="47.679648" lon="8.612643">
<ele>359.3</ele>
<time>2003-05-19T08:16:52Z</time>
<speed>1.4</speed>
</trkpt>
<trkpt lat="47.679609" lon="8.612556">
<ele>359.2</ele>
<time>2003-05-19T08:16:57Z</time>
<speed>1.1</speed>
</trkpt>
<trkpt lat="47.679570" lon="8.612482">
<ele>359.1</ele>
<time>2003-05-19T08:17:02Z</time>
<speed>1.1</speed>
</trkpt>
<trkpt lat="47.679524" lon="8.612391">
<ele>361.0</ele>
<time>2003-05-19T08:17:07Z</time>
<speed>1.4</speed>
</trkpt>
<trkpt lat="47.679484" lon="8.612330">
<ele>361.1</ele>
<time>2003-05-19T08:17:12Z</time>
<speed>1.4</speed>
</trkpt>
<trkpt lat="47.679431" lon="8.612267">
<ele>361.0</ele>
<time>2003-05-19T08:17:17Z</time>
<speed>1.1</speed>
</trkpt>
<trkpt lat="47.679384" lon="8.612205">
<ele>361.7</ele>
<time>2003-05-19T08:17:22Z</time>
<speed>1.1</speed>
</trkpt>
<trkpt lat="47.679343" lon="8.612144">
<ele>361.8</ele>
<time>2003-05-19T08:17:27Z</time>
<speed>0.8</speed>
</trkpt>
<trkpt lat="47.679303" lon="8.612084">
<ele>361.8</ele>
<time>2003-05-19T08:17:32Z</time>
<speed>0.8</speed>
</trkpt>
<trkpt lat="47.679269" lon="8.612010">
<ele>362.5</ele>
<time>2003-05-19T08:17:37Z</time>
<speed>1.1</speed>
</trkpt>
<trkpt lat="47.679224" lon="8.611921">
<ele>363.0</ele>
<time>2003-05-19T08:17:42Z</time>
<speed>1.4</speed>
</trkpt>
<trkpt lat="47.679164" lon="8.611871">
<ele>362.3</ele>
<time>2003-05-19T08:17:47Z</time>
<speed>1.1</speed>
</trkpt>
<trkpt lat="47.679102" lon="8.611833">
<ele>363.2</ele>
<time>2003-05-19T08:17:52Z</time>
<speed>1.1</speed>
</trkpt>
<trkpt lat="47.679048" lon="8.611784">
<ele>363.2</ele>
<time>2003-05-19T08:17:57Z</time>
<speed>1.1</speed>
</trkpt>
<trkpt lat="47.678987" lon="8.611747">
<ele>362.7</ele>
<time>2003-05-19T08:18:02Z</time>
<speed>1.1</speed>
</trkpt>
<trkpt lat="47.678932" lon="8.611711">
<ele>362.8</ele>
<time>2003-05-19T08:18:07Z</time>
<speed>0.8</speed>
</trkpt>
<trkpt lat="47.678892" lon="8.611650">
<ele>362.9</ele>
<time>2003-05-19T08:18:12Z</time>
<speed>1.1</speed>
</trkpt>
<trkpt lat="47.678831" lon="8.611599">
<ele>363.6</ele>
<time>2003-05-19T08:18:17Z</time>
<speed>1.1</speed>
</trkpt>
<trkpt lat="47.678782" lon="8.611564">
<ele>363.1</ele>
<time>2003-05-19T08:18:22Z</time>
<speed>0.8</speed>
</trkpt>
<trkpt lat="47.678742" lon="8.611504">
<ele>363.2</ele>
<time>2003-05-19T08:18:27Z</time>
<speed>1.1</speed>
</trkpt>
<trkpt lat="47.678695" lon="8.611441">
<ele>363.9</ele>
<time>2003-05-19T08:18:32Z</time>
<speed>0.8</speed>
</trkpt>
<trkpt lat="47.678640" lon="8.611405">
<ele>364.0</ele>
<time>2003-05-19T08:18:37Z</time>
<speed>0.8</speed>
</trkpt>
<trkpt lat="47.678584" lon="8.611382">
<ele>364.3</ele>
<time>2003-05-19T08:18:42Z</time>
<speed>0.8</speed>
</trkpt>
<trkpt lat="47.678547" lon="8.611380">
<ele>361.3</ele>
<time>2003-05-19T08:18:47Z</time>
<speed>0.3</speed>
</trkpt>
<trkpt lat="47.678508" lon="8.611372">
<ele>362.5</ele>
<time>2003-05-19T08:18:52Z</time>
<speed>0.6</speed>
</trkpt>
<trkpt lat="47.678473" lon="8.611326">
<ele>361.9</ele>
<time>2003-05-19T08:18:57Z</time>
<speed>0.8</speed>
</trkpt>
<trkpt lat="47.678424" lon="8.611290">
<ele>362.8</ele>
<time>2003-05-19T08:19:02Z</time>
<speed>1.1</speed>
</trkpt>
<trkpt lat="47.678365" lon="8.611243">
<ele>360.8</ele>
<time>2003-05-19T08:19:07Z</time>
<speed>1.4</speed>
</trkpt>
<trkpt lat="47.678303" lon="8.611204">
<ele>361.6</ele>
<time>2003-05-19T08:19:12Z</time>
<speed>1.1</speed>
</trkpt>
<trkpt lat="47.678242" lon="8.611168">
<ele>361.0</ele>
<time>2003-05-19T08:19:17Z</time>
<speed>1.1</speed>
</trkpt>
<trkpt lat="47.678194" lon="8.611120">
<ele>360.4</ele>
<time>2003-05-19T08:19:22Z</time>
<speed>1.4</speed>
</trkpt>
<trkpt lat="47.678205" lon="8.611166">
<ele>358.0</ele>
<time>2003-05-19T08:19:27Z</time>
<speed>0.8</speed>
</trkpt>
<trkpt lat="47.678252" lon="8.611229">
<ele>357.3</ele>
<time>2003-05-19T08:19:32Z</time>
<speed>1.1</speed>
</trkpt>
<trkpt lat="47.678294" lon="8.611276">
<ele>357.1</ele>
<time>2003-05-19T08:19:37Z</time>
<speed>1.1</speed>
</trkpt>
<trkpt lat="47.678338" lon="8.611284">
<ele>356.7</ele>
<time>2003-05-19T08:19:42Z</time>
<speed>0.6</speed>
</trkpt>
<trkpt lat="47.678360" lon="8.611247">
<ele>357.2</ele>
<time>2003-05-19T08:19:47Z</time>
<speed>0.0</speed>
</trkpt>
<trkpt lat="47.678386" lon="8.611222">
<ele>358.6</ele>
<time>2003-05-19T08:19:52Z</time>
<speed>1.1</speed>
</trkpt>
<trkpt lat="47.678319" lon="8.611184">
<ele>358.7</ele>
<time>2003-05-19T08:19:57Z</time>
<speed>1.4</speed>
</trkpt>
<trkpt lat="47.678263" lon="8.611161">
<ele>358.9</ele>
<time>2003-05-19T08:20:02Z</time>
<speed>0.8</speed>
</trkpt>
<trkpt lat="47.678188" lon="8.611120">
<ele>359.7</ele>
<time>2003-05-19T08:20:07Z</time>
<speed>1.1</speed>
</trkpt>
<trkpt lat="47.678127" lon="8.611084">
<ele>359.1</ele>
<time>2003-05-19T08:20:12Z</time>
<speed>1.4</speed>
</trkpt>
<trkpt lat="47.678065" lon="8.611046">
<ele>360.0</ele>
<time>2003-05-19T08:20:17Z</time>
<speed>1.4</speed>
</trkpt>
<trkpt lat="47.677998" lon="8.611008">
<ele>360.0</ele>
<time>2003-05-19T08:20:22Z</time>
<speed>1.1</speed>
</trkpt>
<trkpt lat="47.677937" lon="8.610956">
<ele>360.8</ele>
<time>2003-05-19T08:20:27Z</time>
<speed>1.4</speed>
</trkpt>
<trkpt lat="47.677875" lon="8.610918">
<ele>361.6</ele>
<time>2003-05-19T08:20:32Z</time>
<speed>1.1</speed>
</trkpt>
<trkpt lat="47.677813" lon="8.610878">
<ele>363.9</ele>
<time>2003-05-19T08:20:37Z</time>
<speed>1.4</speed>
</trkpt>
<trkpt lat="47.677746" lon="8.610841">
<ele>362.6</ele>
<time>2003-05-19T08:20:42Z</time>
<speed>1.1</speed>
</trkpt>
<trkpt lat="47.677683" lon="8.610816">
<ele>363.5</ele>
<time>2003-05-19T08:20:47Z</time>
<speed>1.4</speed>
</trkpt>
<trkpt lat="47.677615" lon="8.610793">
<ele>362.3</ele>
<time>2003-05-19T08:20:52Z</time>
<speed>1.1</speed>
</trkpt>
<trkpt lat="47.677559" lon="8.610770">
<ele>362.5</ele>
<time>2003-05-19T08:20:57Z</time>
<speed>1.1</speed>
</trkpt>
<trkpt lat="47.677485" lon="8.610730">
<ele>363.3</ele>
<time>2003-05-19T08:21:02Z</time>
<speed>1.4</speed>
</trkpt>
<trkpt lat="47.677416" lon="8.610704">
<ele>363.5</ele>
<time>2003-05-19T08:21:07Z</time>
<speed>1.4</speed>
</trkpt>
<trkpt lat="47.677354" lon="8.610681">
<ele>363.0</ele>
<time>2003-05-19T08:21:12Z</time>
<speed>1.1</speed>
</trkpt>
<trkpt lat="47.677293" lon="8.610645">
<ele>362.5</ele>
<time>2003-05-19T08:21:17Z</time>
<speed>1.1</speed>
</trkpt>
<trkpt lat="47.677243" lon="8.610624">
<ele>362.1</ele>
<time>2003-05-19T08:21:22Z</time>
<speed>1.4</speed>
</trkpt>
<trkpt lat="47.677181" lon="8.610601">
<ele>361.6</ele>
<time>2003-05-19T08:21:27Z</time>
<speed>1.4</speed>
</trkpt>
<trkpt lat="47.677109" lon="8.610615">
<ele>362.1</ele>
<time>2003-05-19T08:21:32Z</time>
<speed>1.4</speed>
</trkpt>
<trkpt lat="47.677048" lon="8.610579">
<ele>361.5</ele>
<time>2003-05-19T08:21:37Z</time>
<speed>1.1</speed>
</trkpt>
<trkpt lat="47.677026" lon="8.610535">
<ele>361.1</ele>
<time>2003-05-19T08:21:42Z</time>
<speed>0.8</speed>
</trkpt>
<trkpt lat="47.677010" lon="8.610494">
<ele>360.0</ele>
<time>2003-05-19T08:21:47Z</time>
<speed>0.8</speed>
</trkpt>
<trkpt lat="47.676977" lon="8.610420">
<ele>360.6</ele>
<time>2003-05-19T08:21:52Z</time>
<speed>0.6</speed>
</trkpt>
<trkpt lat="47.676904" lon="8.610370">
<ele>358.5</ele>
<time>2003-05-19T08:21:57Z</time>
<speed>0.8</speed>
</trkpt>
<trkpt lat="47.676857" lon="8.610323">
<ele>357.9</ele>
<time>2003-05-19T08:22:02Z</time>
<speed>0.8</speed>
</trkpt>
<trkpt lat="47.676820" lon="8.610304">
<ele>357.6</ele>
<time>2003-05-19T08:22:07Z</time>
<speed>0.6</speed>
</trkpt>
<trkpt lat="47.676765" lon="8.610268">
<ele>357.7</ele>
<time>2003-05-19T08:22:12Z</time>
<speed>0.8</speed>
</trkpt>
<trkpt lat="47.676689" lon="8.610256">
<ele>357.3</ele>
<time>2003-05-19T08:22:17Z</time>
<speed>0.8</speed>
</trkpt>
<trkpt lat="47.676619" lon="8.610244">
<ele>357.6</ele>
<time>2003-05-19T08:22:22Z</time>
<speed>1.1</speed>
</trkpt>
<trkpt lat="47.676545" lon="8.610219">
<ele>357.1</ele>
<time>2003-05-19T08:22:27Z</time>
<speed>0.6</speed>
</trkpt>
<trkpt lat="47.676482" lon="8.610195">
<ele>356.6</ele>
<time>2003-05-19T08:22:32Z</time>
<speed>0.8</speed>
</trkpt>
<trkpt lat="47.676438" lon="8.610187">
<ele>357.0</ele>
<time>2003-05-19T08:22:37Z</time>
<speed>0.6</speed>
</trkpt>
<trkpt lat="47.676388" lon="8.610166">
<ele>356.6</ele>
<time>2003-05-19T08:22:42Z</time>
<speed>0.6</speed>
</trkpt>
<trkpt lat="47.676347" lon="8.610121">
<ele>355.4</ele>
<time>2003-05-19T08:22:47Z</time>
<speed>0.6</speed>
</trkpt>
<trkpt lat="47.676279" lon="8.610096">
<ele>355.6</ele>
<time>2003-05-19T08:22:52Z</time>
<speed>0.8</speed>
</trkpt>
<trkpt lat="47.676205" lon="8.610057">
<ele>354.9</ele>
<time>2003-05-19T08:22:57Z</time>
<speed>0.8</speed>
</trkpt>
<trkpt lat="47.676137" lon="8.610019">
<ele>355.0</ele>
<time>2003-05-19T08:23:02Z</time>
<speed>0.8</speed>
</trkpt>
<trkpt lat="47.676122" lon="8.609978">
<ele>353.9</ele>
<time>2003-05-19T08:23:07Z</time>
<speed>0.3</speed>
</trkpt>
<trkpt lat="47.676105" lon="8.609934">
<ele>354.2</ele>
<time>2003-05-19T08:23:12Z</time>
<speed>0.3</speed>
</trkpt>
<trkpt lat="47.676082" lon="8.609904">
<ele>353.9</ele>
<time>2003-05-19T08:23:17Z</time>
<speed>0.6</speed>
</trkpt>
<trkpt lat="47.676035" lon="8.609841">
<ele>354.6</ele>
<time>2003-05-19T08:23:22Z</time>
<speed>0.8</speed>
</trkpt>
<trkpt lat="47.676006" lon="8.609796">
<ele>354.8</ele>
<time>2003-05-19T08:23:27Z</time>
<speed>0.6</speed>
</trkpt>
<trkpt lat="47.675951" lon="8.609759">
<ele>354.9</ele>
<time>2003-05-19T08:23:32Z</time>
<speed>0.8</speed>
</trkpt>
<trkpt lat="47.675889" lon="8.609736">
<ele>354.5</ele>
<time>2003-05-19T08:23:37Z</time>
<speed>0.8</speed>
</trkpt>
<trkpt lat="47.675839" lon="8.609715">
<ele>354.1</ele>
<time>2003-05-19T08:23:42Z</time>
<speed>0.3</speed>
</trkpt>
<trkpt lat="47.675776" lon="8.609705">
<ele>353.7</ele>
<time>2003-05-19T08:23:47Z</time>
<speed>0.8</speed>
</trkpt>
<trkpt lat="47.675719" lon="8.609695">
<ele>354.1</ele>
<time>2003-05-19T08:23:52Z</time>
<speed>0.6</speed>
</trkpt>
<trkpt lat="47.675687" lon="8.609689">
<ele>354.6</ele>
<time>2003-05-19T08:23:57Z</time>
<speed>0.0</speed>
</trkpt>
<trkpt lat="47.675656" lon="8.609670">
<ele>355.0</ele>
<time>2003-05-19T08:24:02Z</time>
<speed>0.3</speed>
</trkpt>
<trkpt lat="47.675612" lon="8.609662">
<ele>355.5</ele>
<time>2003-05-19T08:24:07Z</time>
<speed>0.6</speed>
</trkpt>
<trkpt lat="47.675561" lon="8.609652">
<ele>356.6</ele>
<time>2003-05-19T08:24:12Z</time>
<speed>0.8</speed>
</trkpt>
<trkpt lat="47.675497" lon="8.609655">
<ele>356.3</ele>
<time>2003-05-19T08:24:17Z</time>
<speed>0.8</speed>
</trkpt>
<trkpt lat="47.675434" lon="8.609645">
<ele>355.9</ele>
<time>2003-05-19T08:24:22Z</time>
<speed>0.8</speed>
</trkpt>
<trkpt lat="47.675377" lon="8.609635">
<ele>356.3</ele>
<time>2003-05-19T08:24:27Z</time>
<speed>0.8</speed>
</trkpt>
<trkpt lat="47.675339" lon="8.609629">
<ele>356.1</ele>
<time>2003-05-19T08:24:32Z</time>
<speed>0.8</speed>
</trkpt>
<trkpt lat="47.675262" lon="8.609631">
<ele>355.8</ele>
<time>2003-05-19T08:24:37Z</time>
<speed>0.8</speed>
</trkpt>
<trkpt lat="47.675193" lon="8.609605">
<ele>356.0</ele>
<time>2003-05-19T08:24:42Z</time>
<speed>1.1</speed>
</trkpt>
<trkpt lat="47.675123" lon="8.609593">
<ele>356.2</ele>
<time>2003-05-19T08:24:47Z</time>
<speed>0.8</speed>
</trkpt>
<trkpt lat="47.675049" lon="8.609568">
<ele>355.7</ele>
<time>2003-05-19T08:24:52Z</time>
<speed>0.8</speed>
</trkpt>
<trkpt lat="47.674978" lon="8.609570">
<ele>356.1</ele>
<time>2003-05-19T08:24:57Z</time>
<speed>0.8</speed>
</trkpt>
<trkpt lat="47.674913" lon="8.609586">
<ele>355.9</ele>
<time>2003-05-19T08:25:02Z</time>
<speed>1.1</speed>
</trkpt>
<trkpt lat="47.674807" lon="8.609557">
<ele>354.5</ele>
<time>2003-05-19T08:25:07Z</time>
<speed>1.1</speed>
</trkpt>
<trkpt lat="47.674771" lon="8.609509">
<ele>355.4</ele>
<time>2003-05-19T08:25:12Z</time>
<speed>1.1</speed>
</trkpt>
<trkpt lat="47.674709" lon="8.609486">
<ele>354.9</ele>
<time>2003-05-19T08:25:17Z</time>
<speed>1.1</speed>
</trkpt>
<trkpt lat="47.674640" lon="8.609461">
<ele>355.1</ele>
<time>2003-05-19T08:25:22Z</time>
<speed>0.8</speed>
</trkpt>
<trkpt lat="47.674590" lon="8.609453">
<ele>354.8</ele>
<time>2003-05-19T08:25:27Z</time>
<speed>0.8</speed>
</trkpt>
<trkpt lat="47.674512" lon="8.609465">
<ele>356.0</ele>
<time>2003-05-19T08:25:32Z</time>
<speed>1.4</speed>
</trkpt>
<trkpt lat="47.674454" lon="8.609456">
<ele>356.4</ele>
<time>2003-05-19T08:25:37Z</time>
<speed>1.1</speed>
</trkpt>
<trkpt lat="47.674385" lon="8.609444">
<ele>356.7</ele>
<time>2003-05-19T08:25:42Z</time>
<speed>1.1</speed>
</trkpt>
<trkpt lat="47.674309" lon="8.609416">
<ele>357.5</ele>
<time>2003-05-19T08:25:47Z</time>
<speed>1.1</speed>
</trkpt>
<trkpt lat="47.674265" lon="8.609408">
<ele>358.0</ele>
<time>2003-05-19T08:25:52Z</time>
<speed>1.1</speed>
</trkpt>
<trkpt lat="47.674202" lon="8.609398">
<ele>357.6</ele>
<time>2003-05-19T08:25:57Z</time>
<speed>1.1</speed>
</trkpt>
<trkpt lat="47.674132" lon="8.609387">
<ele>357.9</ele>
<time>2003-05-19T08:26:02Z</time>
<speed>0.8</speed>
</trkpt>
<trkpt lat="47.674068" lon="8.609390">
<ele>357.6</ele>
<time>2003-05-19T08:26:07Z</time>
<speed>0.8</speed>
</trkpt>
<trkpt lat="47.674005" lon="8.609380">
<ele>357.3</ele>
<time>2003-05-19T08:26:12Z</time>
<speed>1.1</speed>
</trkpt>
<trkpt lat="47.673943" lon="8.609357">
<ele>356.8</ele>
<time>2003-05-19T08:26:17Z</time>
<speed>1.4</speed>
</trkpt>
<trkpt lat="47.673872" lon="8.609358">
<ele>357.2</ele>
<time>2003-05-19T08:26:22Z</time>
<speed>1.4</speed>
</trkpt>
<trkpt lat="47.673796" lon="8.609346">
<ele>356.8</ele>
<time>2003-05-19T08:26:27Z</time>
<speed>1.4</speed>
</trkpt>
<trkpt lat="47.673733" lon="8.609321">
<ele>357.7</ele>
<time>2003-05-19T08:26:32Z</time>
<speed>0.8</speed>
</trkpt>
<trkpt lat="47.673690" lon="8.609300">
<ele>358.0</ele>
<time>2003-05-19T08:26:37Z</time>
<speed>1.1</speed>
</trkpt>
<trkpt lat="47.673613" lon="8.609301">
<ele>357.7</ele>
<time>2003-05-19T08:26:42Z</time>
<speed>1.4</speed>
</trkpt>
<trkpt lat="47.673564" lon="8.609265">
<ele>358.6</ele>
<time>2003-05-19T08:26:47Z</time>
<speed>1.1</speed>
</trkpt>
<trkpt lat="47.673494" lon="8.609253">
<ele>358.9</ele>
<time>2003-05-19T08:26:52Z</time>
<speed>1.1</speed>
</trkpt>
<trkpt lat="47.673432" lon="8.609227">
<ele>359.8</ele>
<time>2003-05-19T08:26:57Z</time>
<speed>1.4</speed>
</trkpt>
<trkpt lat="47.673369" lon="8.609217">
<ele>359.5</ele>
<time>2003-05-19T08:27:02Z</time>
<speed>1.1</speed>
</trkpt>
<trkpt lat="47.673313" lon="8.609194">
<ele>359.7</ele>
<time>2003-05-19T08:27:07Z</time>
<speed>1.1</speed>
</trkpt>
<trkpt lat="47.673244" lon="8.609169">
<ele>359.9</ele>
<time>2003-05-19T08:27:12Z</time>
<speed>1.1</speed>
</trkpt>
<trkpt lat="47.673188" lon="8.609146">
<ele>360.2</ele>
<time>2003-05-19T08:27:17Z</time>
<speed>1.1</speed>
</trkpt>
<trkpt lat="47.673132" lon="8.609123">
<ele>360.5</ele>
<time>2003-05-19T08:27:22Z</time>
<speed>1.1</speed>
</trkpt>
<trkpt lat="47.673062" lon="8.609111">
<ele>360.8</ele>
<time>2003-05-19T08:27:27Z</time>
<speed>0.8</speed>
</trkpt>
<trkpt lat="47.672999" lon="8.609101">
<ele>360.4</ele>
<time>2003-05-19T08:27:32Z</time>
<speed>1.1</speed>
</trkpt>
<trkpt lat="47.672929" lon="8.609089">
<ele>360.7</ele>
<time>2003-05-19T08:27:37Z</time>
<speed>1.7</speed>
</trkpt>
<trkpt lat="47.672867" lon="8.609066">
<ele>360.2</ele>
<time>2003-05-19T08:27:42Z</time>
<speed>1.4</speed>
</trkpt>
<trkpt lat="47.672804" lon="8.609056">
<ele>359.9</ele>
<time>2003-05-19T08:27:47Z</time>
<speed>1.4</speed>
</trkpt>
<trkpt lat="47.672749" lon="8.609020">
<ele>360.0</ele>
<time>2003-05-19T08:27:52Z</time>
<speed>0.8</speed>
</trkpt>
<trkpt lat="47.672690" lon="8.609023">
<ele>360.5</ele>
<time>2003-05-19T08:27:57Z</time>
<speed>1.1</speed>
</trkpt>
<trkpt lat="47.672640" lon="8.609015">
<ele>360.2</ele>
<time>2003-05-19T08:28:02Z</time>
<speed>0.8</speed>
</trkpt>
<trkpt lat="47.672584" lon="8.608992">
<ele>360.5</ele>
<time>2003-05-19T08:28:07Z</time>
<speed>1.4</speed>
</trkpt>
<trkpt lat="47.672534" lon="8.608971">
<ele>360.1</ele>
<time>2003-05-19T08:28:12Z</time>
<speed>0.6</speed>
</trkpt>
<trkpt lat="47.672490" lon="8.608965">
<ele>359.1</ele>
<time>2003-05-19T08:28:17Z</time>
<speed>1.1</speed>
</trkpt>
<trkpt lat="47.672419" lon="8.608979">
<ele>359.6</ele>
<time>2003-05-19T08:28:22Z</time>
<speed>0.8</speed>
</trkpt>
<trkpt lat="47.672355" lon="8.608982">
<ele>359.4</ele>
<time>2003-05-19T08:28:27Z</time>
<speed>1.1</speed>
</trkpt>
<trkpt lat="47.672285" lon="8.608972">
<ele>358.3</ele>
<time>2003-05-19T08:28:32Z</time>
<speed>1.1</speed>
</trkpt>
<trkpt lat="47.672223" lon="8.608947">
<ele>359.2</ele>
<time>2003-05-19T08:28:37Z</time>
<speed>1.4</speed>
</trkpt>
<trkpt lat="47.672160" lon="8.608924">
<ele>358.7</ele>
<time>2003-05-19T08:28:42Z</time>
<speed>0.8</speed>
</trkpt>
<trkpt lat="47.672110" lon="8.608916">
<ele>358.4</ele>
<time>2003-05-19T08:28:47Z</time>
<speed>1.1</speed>
</trkpt>
<trkpt lat="47.672053" lon="8.608906">
<ele>358.8</ele>
<time>2003-05-19T08:28:52Z</time>
<speed>1.4</speed>
</trkpt>
<trkpt lat="47.671988" lon="8.608907">
<ele>359.9</ele>
<time>2003-05-19T08:28:57Z</time>
<speed>1.1</speed>
</trkpt>
<trkpt lat="47.671927" lon="8.608871">
<ele>359.4</ele>
<time>2003-05-19T08:29:02Z</time>
<speed>1.4</speed>
</trkpt>
<trkpt lat="47.671878" lon="8.608850">
<ele>359.0</ele>
<time>2003-05-19T08:29:07Z</time>
<speed>1.1</speed>
</trkpt>
<trkpt lat="47.671847" lon="8.608831">
<ele>359.4</ele>
<time>2003-05-19T08:29:12Z</time>
<speed>0.3</speed>
</trkpt>
<trkpt lat="47.671836" lon="8.608802">
<ele>359.1</ele>
<time>2003-05-19T08:29:17Z</time>
<speed>0.6</speed>
</trkpt>
<trkpt lat="47.671813" lon="8.608772">
<ele>358.8</ele>
<time>2003-05-19T08:29:22Z</time>
<speed>0.3</speed>
</trkpt>
<trkpt lat="47.671789" lon="8.608740">
<ele>359.8</ele>
<time>2003-05-19T08:29:27Z</time>
<speed>0.6</speed>
</trkpt>
<trkpt lat="47.671738" lon="8.608732">
<ele>359.5</ele>
<time>2003-05-19T08:29:32Z</time>
<speed>1.1</speed>
</trkpt>
<trkpt lat="47.671703" lon="8.608699">
<ele>359.1</ele>
<time>2003-05-19T08:29:37Z</time>
<speed>0.6</speed>
</trkpt>
<trkpt lat="47.671659" lon="8.608678">
<ele>359.5</ele>
<time>2003-05-19T08:29:42Z</time>
<speed>1.1</speed>
</trkpt>
<trkpt lat="47.671602" lon="8.608668">
<ele>359.8</ele>
<time>2003-05-19T08:29:47Z</time>
<speed>1.1</speed>
</trkpt>
<trkpt lat="47.671544" lon="8.608672">
<ele>360.3</ele>
<time>2003-05-19T08:29:52Z</time>
<speed>1.1</speed>
</trkpt>
<trkpt lat="47.671475" lon="8.608646">
<ele>360.5</ele>
<time>2003-05-19T08:29:57Z</time>
<speed>1.4</speed>
</trkpt>
<trkpt lat="47.671418" lon="8.608636">
<ele>360.9</ele>
<time>2003-05-19T08:30:02Z</time>
<speed>1.1</speed>
</trkpt>
<trkpt lat="47.671362" lon="8.608613">
<ele>361.1</ele>
<time>2003-05-19T08:30:07Z</time>
<speed>1.1</speed>
</trkpt>
<trkpt lat="47.671298" lon="8.608617">
<ele>360.9</ele>
<time>2003-05-19T08:30:12Z</time>
<speed>1.1</speed>
</trkpt>
<trkpt lat="47.671229" lon="8.608591">
<ele>361.1</ele>
<time>2003-05-19T08:30:17Z</time>
<speed>1.7</speed>
</trkpt>
<trkpt lat="47.671153" lon="8.608577">
<ele>362.0</ele>
<time>2003-05-19T08:30:22Z</time>
<speed>1.1</speed>
</trkpt>
<trkpt lat="47.671103" lon="8.608556">
<ele>361.6</ele>
<time>2003-05-19T08:30:27Z</time>
<speed>1.1</speed>
</trkpt>
<trkpt lat="47.671046" lon="8.608546">
<ele>362.0</ele>
<time>2003-05-19T08:30:32Z</time>
<speed>1.1</speed>
</trkpt>
<trkpt lat="47.670983" lon="8.608536">
<ele>361.6</ele>
<time>2003-05-19T08:30:37Z</time>
<speed>1.1</speed>
</trkpt>
<trkpt lat="47.670925" lon="8.608540">
<ele>362.1</ele>
<time>2003-05-19T08:30:42Z</time>
<speed>1.1</speed>
</trkpt>
<trkpt lat="47.670862" lon="8.608514">
<ele>363.1</ele>
<time>2003-05-19T08:30:47Z</time>
<speed>1.1</speed>
</trkpt>
<trkpt lat="47.670812" lon="8.608506">
<ele>362.8</ele>
<time>2003-05-19T08:30:52Z</time>
<speed>1.1</speed>
</trkpt>
<trkpt lat="47.670755" lon="8.608497">
<ele>363.1</ele>
<time>2003-05-19T08:30:57Z</time>
<speed>1.4</speed>
</trkpt>
<trkpt lat="47.670685" lon="8.608487">
<ele>362.0</ele>
<time>2003-05-19T08:31:02Z</time>
<speed>1.1</speed>
</trkpt>
<trkpt lat="47.670630" lon="8.608450">
<ele>362.2</ele>
<time>2003-05-19T08:31:07Z</time>
<speed>1.1</speed>
</trkpt>
<trkpt lat="47.670561" lon="8.608440">
<ele>361.1</ele>
<time>2003-05-19T08:31:12Z</time>
<speed>1.1</speed>
</trkpt>
<trkpt lat="47.670518" lon="8.608419">
<ele>361.4</ele>
<time>2003-05-19T08:31:17Z</time>
<speed>0.6</speed>
</trkpt>
<trkpt lat="47.670468" lon="8.608396">
<ele>362.4</ele>
<time>2003-05-19T08:31:22Z</time>
<speed>0.8</speed>
</trkpt>
<trkpt lat="47.670419" lon="8.608362">
<ele>362.0</ele>
<time>2003-05-19T08:31:27Z</time>
<speed>0.8</speed>
</trkpt>
<trkpt lat="47.670365" lon="8.608312">
<ele>362.0</ele>
<time>2003-05-19T08:31:32Z</time>
<speed>1.4</speed>
</trkpt>
<trkpt lat="47.670303" lon="8.608289">
<ele>361.6</ele>
<time>2003-05-19T08:31:37Z</time>
<speed>1.1</speed>
</trkpt>
<trkpt lat="47.670264" lon="8.608296">
<ele>361.4</ele>
<time>2003-05-19T08:31:42Z</time>
<speed>0.3</speed>
</trkpt>
<trkpt lat="47.670244" lon="8.608308">
<ele>360.7</ele>
<time>2003-05-19T08:31:47Z</time>
<speed>0.8</speed>
</trkpt>
<trkpt lat="47.670191" lon="8.608339">
<ele>360.7</ele>
<time>2003-05-19T08:31:52Z</time>
<speed>1.1</speed>
</trkpt>
<trkpt lat="47.670134" lon="8.608329">
<ele>361.1</ele>
<time>2003-05-19T08:31:57Z</time>
<speed>1.1</speed>
</trkpt>
<trkpt lat="47.670097" lon="8.608310">
<ele>360.8</ele>
<time>2003-05-19T08:32:02Z</time>
<speed>0.6</speed>
</trkpt>
<trkpt lat="47.670035" lon="8.608287">
<ele>360.3</ele>
<time>2003-05-19T08:32:07Z</time>
<speed>1.1</speed>
</trkpt>
<trkpt lat="47.669978" lon="8.608277">
<ele>360.7</ele>
<time>2003-05-19T08:32:12Z</time>
<speed>1.4</speed>
</trkpt>
<trkpt lat="47.669908" lon="8.608265">
<ele>361.0</ele>
<time>2003-05-19T08:32:17Z</time>
<speed>1.1</speed>
</trkpt>
<trkpt lat="47.669845" lon="8.608255">
<ele>360.6</ele>
<time>2003-05-19T08:32:22Z</time>
<speed>1.4</speed>
</trkpt>
<trkpt lat="47.669782" lon="8.608230">
<ele>361.6</ele>
<time>2003-05-19T08:32:27Z</time>
<speed>1.1</speed>
</trkpt>
<trkpt lat="47.669720" lon="8.608207">
<ele>361.1</ele>
<time>2003-05-19T08:32:32Z</time>
<speed>1.1</speed>
</trkpt>
<trkpt lat="47.669662" lon="8.608210">
<ele>361.6</ele>
<time>2003-05-19T08:32:37Z</time>
<speed>1.1</speed>
</trkpt>
<trkpt lat="47.669604" lon="8.608215">
<ele>360.6</ele>
<time>2003-05-19T08:32:42Z</time>
<speed>1.1</speed>
</trkpt>
<trkpt lat="47.669547" lon="8.608205">
<ele>361.0</ele>
<time>2003-05-19T08:32:47Z</time>
<speed>1.4</speed>
</trkpt>
<trkpt lat="47.669489" lon="8.608210">
<ele>360.1</ele>
<time>2003-05-19T08:32:52Z</time>
<speed>1.4</speed>
</trkpt>
<trkpt lat="47.669427" lon="8.608185">
<ele>361.0</ele>
<time>2003-05-19T08:32:57Z</time>
<speed>1.1</speed>
</trkpt>
<trkpt lat="47.669369" lon="8.608173">
<ele>362.8</ele>
<time>2003-05-19T08:33:02Z</time>
<speed>1.1</speed>
</trkpt>
<trkpt lat="47.669314" lon="8.608137">
<ele>363.0</ele>
<time>2003-05-19T08:33:07Z</time>
<speed>1.1</speed>
</trkpt>
<trkpt lat="47.669251" lon="8.608127">
<ele>362.6</ele>
<time>2003-05-19T08:33:12Z</time>
<speed>1.4</speed>
</trkpt>
<trkpt lat="47.669181" lon="8.608115">
<ele>362.9</ele>
<time>2003-05-19T08:33:17Z</time>
<speed>1.4</speed>
</trkpt>
<trkpt lat="47.669117" lon="8.608118">
<ele>362.6</ele>
<time>2003-05-19T08:33:22Z</time>
<speed>1.1</speed>
</trkpt>
<trkpt lat="47.669054" lon="8.608108">
<ele>362.2</ele>
<time>2003-05-19T08:33:27Z</time>
<speed>1.4</speed>
</trkpt>
<trkpt lat="47.669002" lon="8.608113">
<ele>362.1</ele>
<time>2003-05-19T08:33:32Z</time>
<speed>1.1</speed>
</trkpt>
<trkpt lat="47.668939" lon="8.608103">
<ele>361.7</ele>
<time>2003-05-19T08:33:37Z</time>
<speed>1.1</speed>
</trkpt>
<trkpt lat="47.668884" lon="8.608067">
<ele>361.9</ele>
<time>2003-05-19T08:33:42Z</time>
<speed>1.7</speed>
</trkpt>
<trkpt lat="47.668821" lon="8.608057">
<ele>361.5</ele>
<time>2003-05-19T08:33:47Z</time>
<speed>1.4</speed>
</trkpt>
<trkpt lat="47.668751" lon="8.608045">
<ele>361.8</ele>
<time>2003-05-19T08:33:52Z</time>
<speed>1.1</speed>
</trkpt>
<trkpt lat="47.668701" lon="8.608037">
<ele>361.5</ele>
<time>2003-05-19T08:33:57Z</time>
<speed>1.4</speed>
</trkpt>
<trkpt lat="47.668625" lon="8.608025">
<ele>361.1</ele>
<time>2003-05-19T08:34:02Z</time>
<speed>1.4</speed>
</trkpt>
<trkpt lat="47.668600" lon="8.608006">
<ele>362.2</ele>
<time>2003-05-19T08:34:07Z</time>
<speed>0.3</speed>
</trkpt>
<trkpt lat="47.668588" lon="8.608004">
<ele>362.1</ele>
<time>2003-05-19T08:34:12Z</time>
<speed>0.6</speed>
</trkpt>
<trkpt lat="47.668524" lon="8.607992">
<ele>363.2</ele>
<time>2003-05-19T08:34:17Z</time>
<speed>1.1</speed>
</trkpt>
<trkpt lat="47.668454" lon="8.607980">
<ele>363.5</ele>
<time>2003-05-19T08:34:22Z</time>
<speed>1.7</speed>
</trkpt>
<trkpt lat="47.668390" lon="8.607981">
<ele>364.6</ele>
<time>2003-05-19T08:34:27Z</time>
<speed>1.4</speed>
</trkpt>
<trkpt lat="47.668325" lon="8.607983">
<ele>365.8</ele>
<time>2003-05-19T08:34:32Z</time>
<speed>1.1</speed>
</trkpt>
<trkpt lat="47.668268" lon="8.607973">
<ele>366.1</ele>
<time>2003-05-19T08:34:37Z</time>
<speed>1.1</speed>
</trkpt>
<trkpt lat="47.668198" lon="8.607961">
<ele>366.4</ele>
<time>2003-05-19T08:34:42Z</time>
<speed>1.1</speed>
</trkpt>
<trkpt lat="47.668140" lon="8.607964">
<ele>366.9</ele>
<time>2003-05-19T08:34:47Z</time>
<speed>1.1</speed>
</trkpt>
<trkpt lat="47.668082" lon="8.607967">
<ele>367.4</ele>
<time>2003-05-19T08:34:52Z</time>
<speed>1.1</speed>
</trkpt>
<trkpt lat="47.668019" lon="8.607957">
<ele>367.0</ele>
<time>2003-05-19T08:34:57Z</time>
<speed>1.4</speed>
</trkpt>
<trkpt lat="47.667988" lon="8.607938">
<ele>367.4</ele>
<time>2003-05-19T08:35:02Z</time>
<speed>0.6</speed>
</trkpt>
<trkpt lat="47.667949" lon="8.607930">
<ele>368.6</ele>
<time>2003-05-19T08:35:07Z</time>
<speed>0.8</speed>
</trkpt>
<trkpt lat="47.667898" lon="8.607935">
<ele>368.4</ele>
<time>2003-05-19T08:35:12Z</time>
<speed>0.8</speed>
</trkpt>
<trkpt lat="47.667835" lon="8.607925">
<ele>368.0</ele>
<time>2003-05-19T08:35:17Z</time>
<speed>0.8</speed>
</trkpt>
<trkpt lat="47.667796" lon="8.607917">
<ele>369.2</ele>
<time>2003-05-19T08:35:22Z</time>
<speed>0.6</speed>
</trkpt>
<trkpt lat="47.667721" lon="8.607890">
<ele>370.1</ele>
<time>2003-05-19T08:35:27Z</time>
<speed>0.8</speed>
</trkpt>
<trkpt lat="47.667646" lon="8.607880">
<ele>368.2</ele>
<time>2003-05-19T08:35:32Z</time>
<speed>1.1</speed>
</trkpt>
<trkpt lat="47.667563" lon="8.607866">
<ele>368.5</ele>
<time>2003-05-19T08:35:38Z</time>
<speed>1.1</speed>
</trkpt>
<trkpt lat="47.667505" lon="8.607869">
<ele>368.9</ele>
<time>2003-05-19T08:35:43Z</time>
<speed>0.8</speed>
</trkpt>
<trkpt lat="47.667466" lon="8.607877">
<ele>368.8</ele>
<time>2003-05-19T08:35:48Z</time>
<speed>0.8</speed>
</trkpt>
<trkpt lat="47.667441" lon="8.607873">
<ele>368.7</ele>
<time>2003-05-19T08:35:53Z</time>
<speed>0.3</speed>
</trkpt>
<trkpt lat="47.667396" lon="8.607878">
<ele>369.2</ele>
<time>2003-05-19T08:35:58Z</time>
<speed>0.8</speed>
</trkpt>
<trkpt lat="47.667356" lon="8.607898">
<ele>369.2</ele>
<time>2003-05-19T08:36:03Z</time>
<speed>0.3</speed>
</trkpt>
<trkpt lat="47.667286" lon="8.607886">
<ele>369.5</ele>
<time>2003-05-19T08:36:08Z</time>
<speed>0.8</speed>
</trkpt>
<trkpt lat="47.667242" lon="8.607878">
<ele>370.0</ele>
<time>2003-05-19T08:36:13Z</time>
<speed>0.6</speed>
</trkpt>
<trkpt lat="47.667190" lon="8.607884">
<ele>369.8</ele>
<time>2003-05-19T08:36:18Z</time>
<speed>0.6</speed>
</trkpt>
<trkpt lat="47.667132" lon="8.607887">
<ele>370.2</ele>
<time>2003-05-19T08:36:23Z</time>
<speed>0.8</speed>
</trkpt>
<trkpt lat="47.667094" lon="8.607881">
<ele>370.0</ele>
<time>2003-05-19T08:36:28Z</time>
<speed>0.6</speed>
</trkpt>
<trkpt lat="47.667030" lon="8.607884">
<ele>369.7</ele>
<time>2003-05-19T08:36:33Z</time>
<speed>0.6</speed>
</trkpt>
<trkpt lat="47.666946" lon="8.607896">
<ele>370.2</ele>
<time>2003-05-19T08:36:38Z</time>
<speed>0.8</speed>
</trkpt>
<trkpt lat="47.666897" lon="8.607860">
<ele>371.1</ele>
<time>2003-05-19T08:36:43Z</time>
<speed>0.6</speed>
</trkpt>
<trkpt lat="47.666861" lon="8.607813">
<ele>372.0</ele>
<time>2003-05-19T08:36:48Z</time>
<speed>0.6</speed>
</trkpt>
<trkpt lat="47.666824" lon="8.607791">
<ele>373.1</ele>
<time>2003-05-19T08:36:53Z</time>
<speed>0.8</speed>
</trkpt>
<trkpt lat="47.666797" lon="8.607799">
<ele>374.4</ele>
<time>2003-05-19T08:36:58Z</time>
<speed>0.0</speed>
</trkpt>
<trkpt lat="47.666797" lon="8.607799">
<ele>374.4</ele>
<time>2003-05-19T08:37:03Z</time>
<speed>0.0</speed>
</trkpt>
<trkpt lat="47.666789" lon="8.607810">
<ele>375.2</ele>
<time>2003-05-19T08:37:08Z</time>
<speed>0.3</speed>
</trkpt>
<trkpt lat="47.666729" lon="8.607854">
<ele>374.5</ele>
<time>2003-05-19T08:37:13Z</time>
<speed>0.8</speed>
</trkpt>
<trkpt lat="47.666669" lon="8.607884">
<ele>375.2</ele>
<time>2003-05-19T08:37:18Z</time>
<speed>0.8</speed>
</trkpt>
<trkpt lat="47.666603" lon="8.607898">
<ele>376.5</ele>
<time>2003-05-19T08:37:23Z</time>
<speed>0.8</speed>
</trkpt>
<trkpt lat="47.666536" lon="8.607941">
<ele>376.5</ele>
<time>2003-05-19T08:37:28Z</time>
<speed>1.1</speed>
</trkpt>
<trkpt lat="47.666435" lon="8.608004">
<ele>377.3</ele>
<time>2003-05-19T08:37:33Z</time>
<speed>0.8</speed>
</trkpt>
<trkpt lat="47.666381" lon="8.608049">
<ele>377.4</ele>
<time>2003-05-19T08:37:38Z</time>
<speed>0.8</speed>
</trkpt>
<trkpt lat="47.666314" lon="8.608078">
<ele>377.3</ele>
<time>2003-05-19T08:37:43Z</time>
<speed>1.1</speed>
</trkpt>
<trkpt lat="47.666261" lon="8.608110">
<ele>377.3</ele>
<time>2003-05-19T08:37:48Z</time>
<speed>0.6</speed>
</trkpt>
<trkpt lat="47.666206" lon="8.608155">
<ele>377.4</ele>
<time>2003-05-19T08:37:53Z</time>
<speed>0.8</speed>
</trkpt>
<trkpt lat="47.666139" lon="8.608197">
<ele>377.5</ele>
<time>2003-05-19T08:37:58Z</time>
<speed>0.8</speed>
</trkpt>
<trkpt lat="47.666073" lon="8.608225">
<ele>378.8</ele>
<time>2003-05-19T08:38:03Z</time>
<speed>0.8</speed>
</trkpt>
<trkpt lat="47.666019" lon="8.608271">
<ele>377.5</ele>
<time>2003-05-19T08:38:08Z</time>
<speed>1.1</speed>
</trkpt>
<trkpt lat="47.665959" lon="8.608303">
<ele>376.8</ele>
<time>2003-05-19T08:38:13Z</time>
<speed>1.1</speed>
</trkpt>
<trkpt lat="47.665893" lon="8.608332">
<ele>376.7</ele>
<time>2003-05-19T08:38:18Z</time>
<speed>0.8</speed>
</trkpt>
<trkpt lat="47.665826" lon="8.608375">
<ele>376.7</ele>
<time>2003-05-19T08:38:23Z</time>
<speed>1.1</speed>
</trkpt>
<trkpt lat="47.665766" lon="8.608407">
<ele>376.0</ele>
<time>2003-05-19T08:38:28Z</time>
<speed>1.1</speed>
</trkpt>
<trkpt lat="47.665719" lon="8.608440">
<ele>375.4</ele>
<time>2003-05-19T08:38:33Z</time>
<speed>0.8</speed>
</trkpt>
<trkpt lat="47.665680" lon="8.608463">
<ele>373.9</ele>
<time>2003-05-19T08:38:38Z</time>
<speed>0.8</speed>
</trkpt>
<trkpt lat="47.665631" lon="8.608520">
<ele>374.9</ele>
<time>2003-05-19T08:38:43Z</time>
<speed>0.8</speed>
</trkpt>
<trkpt lat="47.665577" lon="8.608552">
<ele>374.9</ele>
<time>2003-05-19T08:38:48Z</time>
<speed>1.1</speed>
</trkpt>
<trkpt lat="47.665525" lon="8.608570">
<ele>374.8</ele>
<time>2003-05-19T08:38:53Z</time>
<speed>1.1</speed>
</trkpt>
<trkpt lat="47.665472" lon="8.608589">
<ele>374.7</ele>
<time>2003-05-19T08:38:58Z</time>
<speed>1.4</speed>
</trkpt>
<trkpt lat="47.665407" lon="8.608605">
<ele>374.5</ele>
<time>2003-05-19T08:39:03Z</time>
<speed>0.8</speed>
</trkpt>
<trkpt lat="47.665335" lon="8.608634">
<ele>373.7</ele>
<time>2003-05-19T08:39:08Z</time>
<speed>1.1</speed>
</trkpt>
<trkpt lat="47.665262" lon="8.608677">
<ele>373.0</ele>
<time>2003-05-19T08:39:13Z</time>
<speed>0.8</speed>
</trkpt>
<trkpt lat="47.665189" lon="8.608705">
<ele>373.6</ele>
<time>2003-05-19T08:39:18Z</time>
<speed>0.6</speed>
</trkpt>
<trkpt lat="47.665141" lon="8.608751">
<ele>373.1</ele>
<time>2003-05-19T08:39:23Z</time>
<speed>0.6</speed>
</trkpt>
<trkpt lat="47.665088" lon="8.608768">
<ele>374.4</ele>
<time>2003-05-19T08:39:28Z</time>
<speed>0.8</speed>
</trkpt>
<trkpt lat="47.665035" lon="8.608786">
<ele>374.3</ele>
<time>2003-05-19T08:39:33Z</time>
<speed>0.6</speed>
</trkpt>
<trkpt lat="47.664963" lon="8.608798">
<ele>376.2</ele>
<time>2003-05-19T08:39:38Z</time>
<speed>1.1</speed>
</trkpt>
<trkpt lat="47.664905" lon="8.608817">
<ele>375.4</ele>
<time>2003-05-19T08:39:43Z</time>
<speed>1.1</speed>
</trkpt>
<trkpt lat="47.664828" lon="8.608818">
<ele>375.0</ele>
<time>2003-05-19T08:39:48Z</time>
<speed>1.1</speed>
</trkpt>
<trkpt lat="47.664762" lon="8.608848">
<ele>375.0</ele>
<time>2003-05-19T08:39:53Z</time>
<speed>1.4</speed>
</trkpt>
<trkpt lat="47.664714" lon="8.608894">
<ele>374.4</ele>
<time>2003-05-19T08:39:58Z</time>
<speed>0.8</speed>
</trkpt>
<trkpt lat="47.664660" lon="8.608926">
<ele>374.4</ele>
<time>2003-05-19T08:40:03Z</time>
<speed>0.6</speed>
</trkpt>
<trkpt lat="47.664607" lon="8.608957">
<ele>374.4</ele>
<time>2003-05-19T08:40:08Z</time>
<speed>0.6</speed>
</trkpt>
<trkpt lat="47.664546" lon="8.609000">
<ele>375.2</ele>
<time>2003-05-19T08:40:13Z</time>
<speed>0.6</speed>
</trkpt>
<trkpt lat="47.664506" lon="8.609020">
<ele>375.2</ele>
<time>2003-05-19T08:40:18Z</time>
<speed>0.6</speed>
</trkpt>
<trkpt lat="47.664440" lon="8.609050">
<ele>375.1</ele>
<time>2003-05-19T08:40:23Z</time>
<speed>1.1</speed>
</trkpt>
<trkpt lat="47.664366" lon="8.609093">
<ele>374.4</ele>
<time>2003-05-19T08:40:28Z</time>
<speed>1.4</speed>
</trkpt>
<trkpt lat="47.664312" lon="8.609137">
<ele>374.5</ele>
<time>2003-05-19T08:40:33Z</time>
<speed>1.1</speed>
</trkpt>
<trkpt lat="47.664284" lon="8.609175">
<ele>373.3</ele>
<time>2003-05-19T08:40:38Z</time>
<speed>0.6</speed>
</trkpt>
<trkpt lat="47.664224" lon="8.609219">
<ele>372.7</ele>
<time>2003-05-19T08:40:43Z</time>
<speed>1.4</speed>
</trkpt>
<trkpt lat="47.664144" lon="8.609260">
<ele>372.6</ele>
<time>2003-05-19T08:40:48Z</time>
<speed>1.4</speed>
</trkpt>
<trkpt lat="47.664109" lon="8.609309">
<ele>372.1</ele>
<time>2003-05-19T08:40:53Z</time>
<speed>0.8</speed>
</trkpt>
<trkpt lat="47.664061" lon="8.609340">
<ele>372.9</ele>
<time>2003-05-19T08:40:58Z</time>
<speed>0.6</speed>
</trkpt>
<trkpt lat="47.664019" lon="8.609387">
<ele>373.1</ele>
<time>2003-05-19T08:41:03Z</time>
<speed>1.1</speed>
</trkpt>
<trkpt lat="47.663959" lon="8.609432">
<ele>372.4</ele>
<time>2003-05-19T08:41:08Z</time>
<speed>1.1</speed>
</trkpt>
<trkpt lat="47.663897" lon="8.609487">
<ele>373.3</ele>
<time>2003-05-19T08:41:13Z</time>
<speed>1.1</speed>
</trkpt>
<trkpt lat="47.663830" lon="8.609517">
<ele>373.3</ele>
<time>2003-05-19T08:41:18Z</time>
<speed>1.1</speed>
</trkpt>
<trkpt lat="47.663763" lon="8.609560">
<ele>373.3</ele>
<time>2003-05-19T08:41:23Z</time>
<speed>1.1</speed>
</trkpt>
<trkpt lat="47.663716" lon="8.609591">
<ele>374.0</ele>
<time>2003-05-19T08:41:28Z</time>
<speed>0.8</speed>
</trkpt>
<trkpt lat="47.663694" lon="8.609629">
<ele>373.5</ele>
<time>2003-05-19T08:41:33Z</time>
<speed>0.6</speed>
</trkpt>
<trkpt lat="47.663653" lon="8.609662">
<ele>373.6</ele>
<time>2003-05-19T08:41:38Z</time>
<speed>0.8</speed>
</trkpt>
<trkpt lat="47.663619" lon="8.609696">
<ele>374.4</ele>
<time>2003-05-19T08:41:43Z</time>
<speed>0.6</speed>
</trkpt>
<trkpt lat="47.663564" lon="8.609740">
<ele>374.5</ele>
<time>2003-05-19T08:41:48Z</time>
<speed>1.1</speed>
</trkpt>
<trkpt lat="47.663488" lon="8.609807">
<ele>375.4</ele>
<time>2003-05-19T08:41:53Z</time>
<speed>1.7</speed>
</trkpt>
<trkpt lat="47.663394" lon="8.609857">
<ele>376.8</ele>
<time>2003-05-19T08:41:58Z</time>
<speed>1.4</speed>
</trkpt>
<trkpt lat="47.663339" lon="8.609917">
<ele>375.7</ele>
<time>2003-05-19T08:42:03Z</time>
<speed>1.4</speed>
</trkpt>
<trkpt lat="47.663291" lon="8.609977">
<ele>375.2</ele>
<time>2003-05-19T08:42:08Z</time>
<speed>1.1</speed>
</trkpt>
<trkpt lat="47.663227" lon="8.610046">
<ele>376.2</ele>
<time>2003-05-19T08:42:13Z</time>
<speed>1.4</speed>
</trkpt>
<trkpt lat="47.663178" lon="8.610119">
<ele>375.8</ele>
<time>2003-05-19T08:42:18Z</time>
<speed>1.4</speed>
</trkpt>
<trkpt lat="47.663122" lon="8.610177">
<ele>376.0</ele>
<time>2003-05-19T08:42:23Z</time>
<speed>1.4</speed>
</trkpt>
<trkpt lat="47.663085" lon="8.610252">
<ele>375.7</ele>
<time>2003-05-19T08:42:28Z</time>
<speed>0.8</speed>
</trkpt>
<trkpt lat="47.663055" lon="8.610314">
<ele>376.1</ele>
<time>2003-05-19T08:42:33Z</time>
<speed>1.1</speed>
</trkpt>
<trkpt lat="47.663018" lon="8.610375">
<ele>375.7</ele>
<time>2003-05-19T08:42:38Z</time>
<speed>1.1</speed>
</trkpt>
<trkpt lat="47.662982" lon="8.610422">
<ele>376.6</ele>
<time>2003-05-19T08:42:43Z</time>
<speed>0.8</speed>
</trkpt>
<trkpt lat="47.662932" lon="8.610495">
<ele>376.3</ele>
<time>2003-05-19T08:42:48Z</time>
<speed>1.1</speed>
</trkpt>
<trkpt lat="47.662876" lon="8.610581">
<ele>375.3</ele>
<time>2003-05-19T08:42:53Z</time>
<speed>1.1</speed>
</trkpt>
<trkpt lat="47.662838" lon="8.610656">
<ele>375.0</ele>
<time>2003-05-19T08:42:58Z</time>
<speed>1.4</speed>
</trkpt>
<trkpt lat="47.662788" lon="8.610729">
<ele>374.7</ele>
<time>2003-05-19T08:43:03Z</time>
<speed>1.1</speed>
</trkpt>
<trkpt lat="47.662764" lon="8.610806">
<ele>374.5</ele>
<time>2003-05-19T08:43:08Z</time>
<speed>0.8</speed>
</trkpt>
<trkpt lat="47.662720" lon="8.610879">
<ele>374.8</ele>
<time>2003-05-19T08:43:13Z</time>
<speed>0.8</speed>
</trkpt>
<trkpt lat="47.662678" lon="8.610928">
<ele>373.6</ele>
<time>2003-05-19T08:43:18Z</time>
<speed>1.1</speed>
</trkpt>
<trkpt lat="47.662629" lon="8.610988">
<ele>373.2</ele>
<time>2003-05-19T08:43:23Z</time>
<speed>1.1</speed>
</trkpt>
<trkpt lat="47.662574" lon="8.611046">
<ele>373.4</ele>
<time>2003-05-19T08:43:28Z</time>
<speed>1.4</speed>
</trkpt>
<trkpt lat="47.662518" lon="8.611117">
<ele>373.7</ele>
<time>2003-05-19T08:43:33Z</time>
<speed>1.7</speed>
</trkpt>
<trkpt lat="47.662463" lon="8.611176">
<ele>372.5</ele>
<time>2003-05-19T08:43:38Z</time>
<speed>1.4</speed>
</trkpt>
<trkpt lat="47.662425" lon="8.611251">
<ele>372.2</ele>
<time>2003-05-19T08:43:43Z</time>
<speed>1.4</speed>
</trkpt>
<trkpt lat="47.662402" lon="8.611315">
<ele>371.9</ele>
<time>2003-05-19T08:43:48Z</time>
<speed>1.1</speed>
</trkpt>
<trkpt lat="47.662364" lon="8.611390">
<ele>371.6</ele>
<time>2003-05-19T08:43:53Z</time>
<speed>1.1</speed>
</trkpt>
<trkpt lat="47.662315" lon="8.611448">
<ele>372.6</ele>
<time>2003-05-19T08:43:58Z</time>
<speed>1.1</speed>
</trkpt>
<trkpt lat="47.662271" lon="8.611523">
<ele>371.6</ele>
<time>2003-05-19T08:44:03Z</time>
<speed>1.4</speed>
</trkpt>
<trkpt lat="47.662215" lon="8.611594">
<ele>371.9</ele>
<time>2003-05-19T08:44:08Z</time>
<speed>1.1</speed>
</trkpt>
<trkpt lat="47.662172" lon="8.611654">
<ele>372.2</ele>
<time>2003-05-19T08:44:13Z</time>
<speed>1.1</speed>
</trkpt>
<trkpt lat="47.662144" lon="8.611691">
<ele>370.9</ele>
<time>2003-05-19T08:44:18Z</time>
<speed>0.8</speed>
</trkpt>
<trkpt lat="47.662114" lon="8.611753">
<ele>371.3</ele>
<time>2003-05-19T08:44:23Z</time>
<speed>1.4</speed>
</trkpt>
<trkpt lat="47.662071" lon="8.611813">
<ele>371.5</ele>
<time>2003-05-19T08:44:28Z</time>
<speed>0.8</speed>
</trkpt>
<trkpt lat="47.662027" lon="8.611886">
<ele>371.9</ele>
<time>2003-05-19T08:44:33Z</time>
<speed>1.1</speed>
</trkpt>
<trkpt lat="47.661991" lon="8.611948">
<ele>371.5</ele>
<time>2003-05-19T08:44:38Z</time>
<speed>0.8</speed>
</trkpt>
<trkpt lat="47.661955" lon="8.612010">
<ele>371.2</ele>
<time>2003-05-19T08:44:43Z</time>
<speed>1.1</speed>
</trkpt>
<trkpt lat="47.661907" lon="8.612056">
<ele>370.6</ele>
<time>2003-05-19T08:44:48Z</time>
<speed>0.8</speed>
</trkpt>
<trkpt lat="47.661843" lon="8.612060">
<ele>370.3</ele>
<time>2003-05-19T08:44:53Z</time>
<speed>0.3</speed>
</trkpt>
<trkpt lat="47.661844" lon="8.612046">
<ele>370.2</ele>
<time>2003-05-19T08:44:58Z</time>
<speed>0.0</speed>
</trkpt>
<trkpt lat="47.661844" lon="8.612046">
<ele>370.2</ele>
<time>2003-05-19T08:45:03Z</time>
<speed>0.0</speed>
</trkpt>
<trkpt lat="47.661844" lon="8.612046">
<ele>370.2</ele>
<time>2003-05-19T08:45:08Z</time>
<speed>0.0</speed>
</trkpt>
<trkpt lat="47.661844" lon="8.612046">
<ele>370.2</ele>
<time>2003-05-19T08:45:13Z</time>
<speed>0.0</speed>
</trkpt>
<trkpt lat="47.661844" lon="8.612046">
<ele>370.2</ele>
<time>2003-05-19T08:45:18Z</time>
<speed>0.0</speed>
</trkpt>
<trkpt lat="47.661844" lon="8.612046">
<ele>370.2</ele>
<time>2003-05-19T08:45:23Z</time>
<speed>0.0</speed>
</trkpt>
<trkpt lat="47.661835" lon="8.612071">
<ele>371.1</ele>
<time>2003-05-19T08:45:28Z</time>
<speed>0.6</speed>
</trkpt>
<trkpt lat="47.661834" lon="8.612180">
<ele>369.8</ele>
<time>2003-05-19T08:45:33Z</time>
<speed>0.8</speed>
</trkpt>
<trkpt lat="47.661783" lon="8.612266">
<ele>369.6</ele>
<time>2003-05-19T08:45:38Z</time>
<speed>1.7</speed>
</trkpt>
<trkpt lat="47.661723" lon="8.612390">
<ele>370.3</ele>
<time>2003-05-19T08:45:43Z</time>
<speed>1.1</speed>
</trkpt>
<trkpt lat="47.661691" lon="8.612463">
<ele>372.2</ele>
<time>2003-05-19T08:45:48Z</time>
<speed>0.8</speed>
</trkpt>
<trkpt lat="47.661662" lon="8.612512">
<ele>372.4</ele>
<time>2003-05-19T08:45:53Z</time>
<speed>0.6</speed>
</trkpt>
<trkpt lat="47.661625" lon="8.612571">
<ele>373.5</ele>
<time>2003-05-19T08:45:58Z</time>
<speed>0.8</speed>
</trkpt>
<trkpt lat="47.661560" lon="8.612667">
<ele>374.6</ele>
<time>2003-05-19T08:46:03Z</time>
<speed>1.1</speed>
</trkpt>
<trkpt lat="47.661529" lon="8.612744">
<ele>373.7</ele>
<time>2003-05-19T08:46:08Z</time>
<speed>1.1</speed>
</trkpt>
<trkpt lat="47.661498" lon="8.612819">
<ele>374.1</ele>
<time>2003-05-19T08:46:13Z</time>
<speed>1.1</speed>
</trkpt>
<trkpt lat="47.661459" lon="8.612920">
<ele>374.1</ele>
<time>2003-05-19T08:46:18Z</time>
<speed>1.1</speed>
</trkpt>
<trkpt lat="47.661402" lon="8.612991">
<ele>374.4</ele>
<time>2003-05-19T08:46:23Z</time>
<speed>0.8</speed>
</trkpt>
<trkpt lat="47.661390" lon="8.613070">
<ele>374.2</ele>
<time>2003-05-19T08:46:28Z</time>
<speed>1.1</speed>
</trkpt>
<trkpt lat="47.661344" lon="8.613184">
<ele>373.5</ele>
<time>2003-05-19T08:46:33Z</time>
<speed>1.1</speed>
</trkpt>
<trkpt lat="47.661313" lon="8.613261">
<ele>372.6</ele>
<time>2003-05-19T08:46:38Z</time>
<speed>1.1</speed>
</trkpt>
<trkpt lat="47.661282" lon="8.613336">
<ele>373.0</ele>
<time>2003-05-19T08:46:43Z</time>
<speed>0.8</speed>
</trkpt>
<trkpt lat="47.661240" lon="8.613383">
<ele>373.2</ele>
<time>2003-05-19T08:46:48Z</time>
<speed>0.8</speed>
</trkpt>
<trkpt lat="47.661223" lon="8.613449">
<ele>372.3</ele>
<time>2003-05-19T08:46:53Z</time>
<speed>1.1</speed>
</trkpt>
<trkpt lat="47.661191" lon="8.613539">
<ele>371.4</ele>
<time>2003-05-19T08:46:58Z</time>
<speed>0.8</speed>
</trkpt>
<trkpt lat="47.661170" lon="8.613577">
<ele>370.9</ele>
<time>2003-05-19T08:47:03Z</time>
<speed>0.6</speed>
</trkpt>
<trkpt lat="47.661130" lon="8.613597">
<ele>370.9</ele>
<time>2003-05-19T08:47:08Z</time>
<speed>1.1</speed>
</trkpt>
<trkpt lat="47.661089" lon="8.613632">
<ele>369.6</ele>
<time>2003-05-19T08:47:13Z</time>
<speed>0.8</speed>
</trkpt>
<trkpt lat="47.661055" lon="8.613666">
<ele>370.4</ele>
<time>2003-05-19T08:47:18Z</time>
<speed>0.6</speed>
</trkpt>
<trkpt lat="47.660999" lon="8.613724">
<ele>370.6</ele>
<time>2003-05-19T08:47:23Z</time>
<speed>0.8</speed>
</trkpt>
<trkpt lat="47.660939" lon="8.613768">
<ele>370.0</ele>
<time>2003-05-19T08:47:28Z</time>
<speed>1.1</speed>
</trkpt>
<trkpt lat="47.660902" lon="8.613830">
<ele>369.6</ele>
<time>2003-05-19T08:47:33Z</time>
<speed>1.4</speed>
</trkpt>
<trkpt lat="47.660872" lon="8.613907">
<ele>368.6</ele>
<time>2003-05-19T08:47:38Z</time>
<speed>1.1</speed>
</trkpt>
<trkpt lat="47.660842" lon="8.613956">
<ele>368.9</ele>
<time>2003-05-19T08:47:43Z</time>
<speed>1.1</speed>
</trkpt>
<trkpt lat="47.660793" lon="8.614016">
<ele>368.4</ele>
<time>2003-05-19T08:47:48Z</time>
<speed>1.1</speed>
</trkpt>
<trkpt lat="47.660764" lon="8.614064">
<ele>368.7</ele>
<time>2003-05-19T08:47:53Z</time>
<speed>0.8</speed>
</trkpt>
<trkpt lat="47.660721" lon="8.614124">
<ele>369.0</ele>
<time>2003-05-19T08:47:58Z</time>
<speed>0.8</speed>
</trkpt>
<trkpt lat="47.660690" lon="8.614214">
<ele>368.1</ele>
<time>2003-05-19T08:48:03Z</time>
<speed>1.1</speed>
</trkpt>
<trkpt lat="47.660650" lon="8.614316">
<ele>368.1</ele>
<time>2003-05-19T08:48:08Z</time>
<speed>1.4</speed>
</trkpt>
<trkpt lat="47.660618" lon="8.614419">
<ele>367.3</ele>
<time>2003-05-19T08:48:13Z</time>
<speed>1.1</speed>
</trkpt>
<trkpt lat="47.660591" lon="8.614522">
<ele>367.3</ele>
<time>2003-05-19T08:48:18Z</time>
<speed>1.1</speed>
</trkpt>
<trkpt lat="47.660561" lon="8.614586">
<ele>366.3</ele>
<time>2003-05-19T08:48:23Z</time>
<speed>0.8</speed>
</trkpt>
<trkpt lat="47.660530" lon="8.614663">
<ele>365.3</ele>
<time>2003-05-19T08:48:28Z</time>
<speed>1.1</speed>
</trkpt>
<trkpt lat="47.660512" lon="8.614742">
<ele>364.4</ele>
<time>2003-05-19T08:48:33Z</time>
<speed>0.8</speed>
</trkpt>
<trkpt lat="47.660469" lon="8.614802">
<ele>364.7</ele>
<time>2003-05-19T08:48:38Z</time>
<speed>1.4</speed>
</trkpt>
<trkpt lat="47.660439" lon="8.614879">
<ele>363.8</ele>
<time>2003-05-19T08:48:43Z</time>
<speed>1.1</speed>
</trkpt>
<trkpt lat="47.660414" lon="8.614956">
<ele>363.6</ele>
<time>2003-05-19T08:48:48Z</time>
<speed>1.1</speed>
</trkpt>
<trkpt lat="47.660370" lon="8.615044">
<ele>362.7</ele>
<time>2003-05-19T08:48:53Z</time>
<speed>0.8</speed>
</trkpt>
<trkpt lat="47.660336" lon="8.615064">
<ele>363.4</ele>
<time>2003-05-19T08:48:58Z</time>
<speed>0.6</speed>
</trkpt>
<trkpt lat="47.660299" lon="8.615124">
<ele>364.4</ele>
<time>2003-05-19T08:49:03Z</time>
<speed>0.8</speed>
</trkpt>
<trkpt lat="47.660281" lon="8.615203">
<ele>363.5</ele>
<time>2003-05-19T08:49:08Z</time>
<speed>0.8</speed>
</trkpt>
<trkpt lat="47.660241" lon="8.615318">
<ele>363.5</ele>
<time>2003-05-19T08:49:13Z</time>
<speed>1.4</speed>
</trkpt>
<trkpt lat="47.660217" lon="8.615381">
<ele>363.2</ele>
<time>2003-05-19T08:49:18Z</time>
<speed>0.8</speed>
</trkpt>
<trkpt lat="47.660185" lon="8.615471">
<ele>362.4</ele>
<time>2003-05-19T08:49:23Z</time>
<speed>1.4</speed>
</trkpt>
<trkpt lat="47.660159" lon="8.615560">
<ele>363.7</ele>
<time>2003-05-19T08:49:28Z</time>
<speed>0.8</speed>
</trkpt>
<trkpt lat="47.660136" lon="8.615623">
<ele>363.4</ele>
<time>2003-05-19T08:49:33Z</time>
<speed>0.8</speed>
</trkpt>
<trkpt lat="47.660093" lon="8.615683">
<ele>363.7</ele>
<time>2003-05-19T08:49:38Z</time>
<speed>0.8</speed>
</trkpt>
<trkpt lat="47.660054" lon="8.615771">
<ele>363.5</ele>
<time>2003-05-19T08:49:43Z</time>
<speed>1.1</speed>
</trkpt>
<trkpt lat="47.660041" lon="8.615864">
<ele>363.5</ele>
<time>2003-05-19T08:49:48Z</time>
<speed>1.1</speed>
</trkpt>
<trkpt lat="47.660004" lon="8.615954">
<ele>361.9</ele>
<time>2003-05-19T08:49:53Z</time>
<speed>0.8</speed>
</trkpt>
<trkpt lat="47.659971" lon="8.616042">
<ele>362.4</ele>
<time>2003-05-19T08:49:58Z</time>
<speed>1.1</speed>
</trkpt>
<trkpt lat="47.659941" lon="8.616119">
<ele>361.5</ele>
<time>2003-05-19T08:50:03Z</time>
<speed>0.8</speed>
</trkpt>
<trkpt lat="47.659888" lon="8.616216">
<ele>362.7</ele>
<time>2003-05-19T08:50:08Z</time>
<speed>1.4</speed>
</trkpt>
<trkpt lat="47.659870" lon="8.616295">
<ele>361.9</ele>
<time>2003-05-19T08:50:13Z</time>
<speed>0.8</speed>
</trkpt>
<trkpt lat="47.659846" lon="8.616359">
<ele>361.6</ele>
<time>2003-05-19T08:50:18Z</time>
<speed>0.8</speed>
</trkpt>
<trkpt lat="47.659817" lon="8.616408">
<ele>361.8</ele>
<time>2003-05-19T08:50:23Z</time>
<speed>0.6</speed>
</trkpt>
<trkpt lat="47.659793" lon="8.616469">
<ele>362.9</ele>
<time>2003-05-19T08:50:28Z</time>
<speed>0.8</speed>
</trkpt>
<trkpt lat="47.659756" lon="8.616544">
<ele>362.6</ele>
<time>2003-05-19T08:50:33Z</time>
<speed>0.8</speed>
</trkpt>
<trkpt lat="47.659737" lon="8.616637">
<ele>361.9</ele>
<time>2003-05-19T08:50:38Z</time>
<speed>1.1</speed>
</trkpt>
<trkpt lat="47.659702" lon="8.616751">
<ele>362.6</ele>
<time>2003-05-19T08:50:43Z</time>
<speed>0.8</speed>
</trkpt>
<trkpt lat="47.659659" lon="8.616826">
<ele>361.6</ele>
<time>2003-05-19T08:50:48Z</time>
<speed>1.4</speed>
</trkpt>
<trkpt lat="47.659614" lon="8.616912">
<ele>362.1</ele>
<time>2003-05-19T08:50:53Z</time>
<speed>1.4</speed>
</trkpt>
<trkpt lat="47.659579" lon="8.616961">
<ele>361.6</ele>
<time>2003-05-19T08:50:58Z</time>
<speed>0.8</speed>
</trkpt>
<trkpt lat="47.659542" lon="8.617021">
<ele>362.6</ele>
<time>2003-05-19T08:51:03Z</time>
<speed>1.1</speed>
</trkpt>
<trkpt lat="47.659498" lon="8.617094">
<ele>363.0</ele>
<time>2003-05-19T08:51:08Z</time>
<speed>1.1</speed>
</trkpt>
<trkpt lat="47.659467" lon="8.617186">
<ele>360.8</ele>
<time>2003-05-19T08:51:13Z</time>
<speed>0.6</speed>
</trkpt>
<trkpt lat="47.659443" lon="8.617250">
<ele>360.5</ele>
<time>2003-05-19T08:51:18Z</time>
<speed>0.6</speed>
</trkpt>
<trkpt lat="47.659433" lon="8.617302">
<ele>360.1</ele>
<time>2003-05-19T08:51:23Z</time>
<speed>0.6</speed>
</trkpt>
<trkpt lat="47.659404" lon="8.617366">
<ele>359.1</ele>
<time>2003-05-19T08:51:28Z</time>
<speed>0.8</speed>
</trkpt>
<trkpt lat="47.659367" lon="8.617428">
<ele>358.7</ele>
<time>2003-05-19T08:51:33Z</time>
<speed>1.1</speed>
</trkpt>
<trkpt lat="47.659342" lon="8.617503">
<ele>359.9</ele>
<time>2003-05-19T08:51:38Z</time>
<speed>0.6</speed>
</trkpt>
<trkpt lat="47.659319" lon="8.617553">
<ele>359.5</ele>
<time>2003-05-19T08:51:43Z</time>
<speed>0.6</speed>
</trkpt>
<trkpt lat="47.659278" lon="8.617600">
<ele>359.7</ele>
<time>2003-05-19T08:51:48Z</time>
<speed>0.8</speed>
</trkpt>
<trkpt lat="47.659251" lon="8.617703">
<ele>359.7</ele>
<time>2003-05-19T08:51:54Z</time>
<speed>0.8</speed>
</trkpt>
<trkpt lat="47.659206" lon="8.617805">
<ele>358.8</ele>
<time>2003-05-19T08:51:59Z</time>
<speed>1.4</speed>
</trkpt>
<trkpt lat="47.659162" lon="8.617878">
<ele>359.2</ele>
<time>2003-05-19T08:52:04Z</time>
<speed>1.1</speed>
</trkpt>
<trkpt lat="47.659125" lon="8.617940">
<ele>358.9</ele>
<time>2003-05-19T08:52:09Z</time>
<speed>1.1</speed>
</trkpt>
<trkpt lat="47.659101" lon="8.618017">
<ele>358.6</ele>
<time>2003-05-19T08:52:14Z</time>
<speed>0.6</speed>
</trkpt>
<trkpt lat="47.659069" lon="8.618091">
<ele>359.1</ele>
<time>2003-05-19T08:52:19Z</time>
<speed>0.8</speed>
</trkpt>
<trkpt lat="47.659038" lon="8.618166">
<ele>359.6</ele>
<time>2003-05-19T08:52:24Z</time>
<speed>1.1</speed>
</trkpt>
<trkpt lat="47.659008" lon="8.618228">
<ele>359.9</ele>
<time>2003-05-19T08:52:29Z</time>
<speed>0.8</speed>
</trkpt>
<trkpt lat="47.658971" lon="8.618288">
<ele>360.9</ele>
<time>2003-05-19T08:52:34Z</time>
<speed>0.8</speed>
</trkpt>
<trkpt lat="47.658947" lon="8.618365">
<ele>360.7</ele>
<time>2003-05-19T08:52:39Z</time>
<speed>0.8</speed>
</trkpt>
<trkpt lat="47.658895" lon="8.618464">
<ele>360.6</ele>
<time>2003-05-19T08:52:44Z</time>
<speed>1.4</speed>
</trkpt>
<trkpt lat="47.658850" lon="8.618551">
<ele>361.1</ele>
<time>2003-05-19T08:52:49Z</time>
<speed>1.4</speed>
</trkpt>
<trkpt lat="47.658824" lon="8.618641">
<ele>361.0</ele>
<time>2003-05-19T08:52:54Z</time>
<speed>1.4</speed>
</trkpt>
<trkpt lat="47.658800" lon="8.618705">
<ele>360.7</ele>
<time>2003-05-19T08:52:59Z</time>
<speed>0.8</speed>
</trkpt>
<trkpt lat="47.658777" lon="8.618768">
<ele>360.4</ele>
<time>2003-05-19T08:53:04Z</time>
<speed>0.8</speed>
</trkpt>
<trkpt lat="47.658745" lon="8.618843">
<ele>360.8</ele>
<time>2003-05-19T08:53:09Z</time>
<speed>0.8</speed>
</trkpt>
<trkpt lat="47.658721" lon="8.618920">
<ele>360.6</ele>
<time>2003-05-19T08:53:14Z</time>
<speed>1.1</speed>
</trkpt>
<trkpt lat="47.658689" lon="8.619008">
<ele>361.2</ele>
<time>2003-05-19T08:53:19Z</time>
<speed>1.1</speed>
</trkpt>
<trkpt lat="47.658649" lon="8.619110">
<ele>361.1</ele>
<time>2003-05-19T08:53:24Z</time>
<speed>1.1</speed>
</trkpt>
<trkpt lat="47.658631" lon="8.619187">
<ele>361.6</ele>
<time>2003-05-19T08:53:29Z</time>
<speed>1.1</speed>
</trkpt>
<trkpt lat="47.658637" lon="8.619283">
<ele>361.0</ele>
<time>2003-05-19T08:53:34Z</time>
<speed>0.8</speed>
</trkpt>
<trkpt lat="47.658630" lon="8.619377">
<ele>360.3</ele>
<time>2003-05-19T08:53:39Z</time>
<speed>0.8</speed>
</trkpt>
<trkpt lat="47.658614" lon="8.619428">
<ele>360.6</ele>
<time>2003-05-19T08:53:44Z</time>
<speed>0.8</speed>
</trkpt>
<trkpt lat="47.658564" lon="8.619501">
<ele>360.3</ele>
<time>2003-05-19T08:53:49Z</time>
<speed>1.1</speed>
</trkpt>
<trkpt lat="47.658539" lon="8.619578">
<ele>360.1</ele>
<time>2003-05-19T08:53:54Z</time>
<speed>0.8</speed>
</trkpt>
<trkpt lat="47.658489" lon="8.619651">
<ele>359.7</ele>
<time>2003-05-19T08:53:59Z</time>
<speed>0.8</speed>
</trkpt>
<trkpt lat="47.658465" lon="8.619728">
<ele>359.5</ele>
<time>2003-05-19T08:54:04Z</time>
<speed>0.8</speed>
</trkpt>
<trkpt lat="47.658423" lon="8.619774">
<ele>359.7</ele>
<time>2003-05-19T08:54:09Z</time>
<speed>0.8</speed>
</trkpt>
<trkpt lat="47.658380" lon="8.619834">
<ele>360.0</ele>
<time>2003-05-19T08:54:14Z</time>
<speed>1.1</speed>
</trkpt>
<trkpt lat="47.658346" lon="8.619869">
<ele>359.4</ele>
<time>2003-05-19T08:54:19Z</time>
<speed>1.1</speed>
</trkpt>
<trkpt lat="47.658310" lon="8.619916">
<ele>360.3</ele>
<time>2003-05-19T08:54:24Z</time>
<speed>0.8</speed>
</trkpt>
<trkpt lat="47.658261" lon="8.619976">
<ele>359.9</ele>
<time>2003-05-19T08:54:29Z</time>
<speed>0.8</speed>
</trkpt>
<trkpt lat="47.658225" lon="8.620038">
<ele>359.5</ele>
<time>2003-05-19T08:54:34Z</time>
<speed>0.8</speed>
</trkpt>
<trkpt lat="47.658182" lon="8.620098">
<ele>359.8</ele>
<time>2003-05-19T08:54:39Z</time>
<speed>1.1</speed>
</trkpt>
<trkpt lat="47.658166" lon="8.620135">
<ele>360.0</ele>
<time>2003-05-19T08:54:44Z</time>
<speed>0.8</speed>
</trkpt>
<trkpt lat="47.658127" lon="8.620236">
<ele>359.9</ele>
<time>2003-05-19T08:54:49Z</time>
<speed>0.8</speed>
</trkpt>
<trkpt lat="47.658082" lon="8.620323">
<ele>360.4</ele>
<time>2003-05-19T08:54:54Z</time>
<speed>1.1</speed>
</trkpt>
<trkpt lat="47.658074" lon="8.620349">
<ele>359.9</ele>
<time>2003-05-19T08:54:59Z</time>
<speed>0.0</speed>
</trkpt>
<trkpt lat="47.658024" lon="8.620422">
<ele>359.5</ele>
<time>2003-05-19T08:55:04Z</time>
<speed>1.1</speed>
</trkpt>
<trkpt lat="47.657986" lon="8.620510">
<ele>359.3</ele>
<time>2003-05-19T08:55:09Z</time>
<speed>0.8</speed>
</trkpt>
<trkpt lat="47.657946" lon="8.620611">
<ele>359.3</ele>
<time>2003-05-19T08:55:14Z</time>
<speed>1.1</speed>
</trkpt>
<trkpt lat="47.657903" lon="8.620686">
<ele>358.2</ele>
<time>2003-05-19T08:55:19Z</time>
<speed>1.4</speed>
</trkpt>
<trkpt lat="47.657847" lon="8.620744">
<ele>358.5</ele>
<time>2003-05-19T08:55:24Z</time>
<speed>0.6</speed>
</trkpt>
<trkpt lat="47.657811" lon="8.620806">
<ele>358.1</ele>
<time>2003-05-19T08:55:29Z</time>
<speed>1.4</speed>
</trkpt>
<trkpt lat="47.657775" lon="8.620949">
<ele>357.6</ele>
<time>2003-05-19T08:55:34Z</time>
<speed>0.8</speed>
</trkpt>
<trkpt lat="47.657740" lon="8.620997">
<ele>357.2</ele>
<time>2003-05-19T08:55:39Z</time>
<speed>0.8</speed>
</trkpt>
<trkpt lat="47.657706" lon="8.621033">
<ele>356.6</ele>
<time>2003-05-19T08:55:44Z</time>
<speed>0.8</speed>
</trkpt>
<trkpt lat="47.657663" lon="8.621093">
<ele>356.9</ele>
<time>2003-05-19T08:55:49Z</time>
<speed>0.8</speed>
</trkpt>
<trkpt lat="47.657626" lon="8.621152">
<ele>357.9</ele>
<time>2003-05-19T08:55:54Z</time>
<speed>0.8</speed>
</trkpt>
<trkpt lat="47.657608" lon="8.621231">
<ele>357.0</ele>
<time>2003-05-19T08:55:59Z</time>
<speed>0.6</speed>
</trkpt>
<trkpt lat="47.657560" lon="8.621276">
<ele>357.9</ele>
<time>2003-05-19T08:56:04Z</time>
<speed>0.6</speed>
</trkpt>
<trkpt lat="47.657505" lon="8.621321">
<ele>358.0</ele>
<time>2003-05-19T08:56:09Z</time>
<speed>1.1</speed>
</trkpt>
<trkpt lat="47.657461" lon="8.621409">
<ele>357.0</ele>
<time>2003-05-19T08:56:14Z</time>
<speed>1.1</speed>
</trkpt>
<trkpt lat="47.657399" lon="8.621465">
<ele>357.9</ele>
<time>2003-05-19T08:56:19Z</time>
<speed>1.1</speed>
</trkpt>
<trkpt lat="47.657350" lon="8.621525">
<ele>357.5</ele>
<time>2003-05-19T08:56:24Z</time>
<speed>1.1</speed>
</trkpt>
<trkpt lat="47.657308" lon="8.621571">
<ele>357.7</ele>
<time>2003-05-19T08:56:29Z</time>
<speed>1.1</speed>
</trkpt>
<trkpt lat="47.657258" lon="8.621644">
<ele>357.3</ele>
<time>2003-05-19T08:56:34Z</time>
<speed>1.1</speed>
</trkpt>
<trkpt lat="47.657227" lon="8.621721">
<ele>356.4</ele>
<time>2003-05-19T08:56:39Z</time>
<speed>0.8</speed>
</trkpt>
<trkpt lat="47.657190" lon="8.621796">
<ele>356.1</ele>
<time>2003-05-19T08:56:44Z</time>
<speed>0.8</speed>
</trkpt>
<trkpt lat="47.657135" lon="8.621841">
<ele>356.2</ele>
<time>2003-05-19T08:56:49Z</time>
<speed>0.8</speed>
</trkpt>
<trkpt lat="47.657121" lon="8.621865">
<ele>356.3</ele>
<time>2003-05-19T08:56:54Z</time>
<speed>0.0</speed>
</trkpt>
<trkpt lat="47.657078" lon="8.621925">
<ele>356.6</ele>
<time>2003-05-19T08:56:59Z</time>
<speed>1.1</speed>
</trkpt>
<trkpt lat="47.657021" lon="8.621996">
<ele>356.9</ele>
<time>2003-05-19T08:57:04Z</time>
<speed>1.1</speed>
</trkpt>
<trkpt lat="47.656979" lon="8.622056">
<ele>357.2</ele>
<time>2003-05-19T08:57:09Z</time>
<speed>0.8</speed>
</trkpt>
<trkpt lat="47.656949" lon="8.622104">
<ele>357.5</ele>
<time>2003-05-19T08:57:14Z</time>
<speed>0.6</speed>
</trkpt>
<trkpt lat="47.656907" lon="8.622151">
<ele>357.6</ele>
<time>2003-05-19T08:57:19Z</time>
<speed>0.8</speed>
</trkpt>
<trkpt lat="47.656851" lon="8.622222">
<ele>358.0</ele>
<time>2003-05-19T08:57:24Z</time>
<speed>1.1</speed>
</trkpt>
<trkpt lat="47.656799" lon="8.622306">
<ele>359.1</ele>
<time>2003-05-19T08:57:29Z</time>
<speed>1.1</speed>
</trkpt>
<trkpt lat="47.656769" lon="8.622368">
<ele>359.5</ele>
<time>2003-05-19T08:57:34Z</time>
<speed>0.6</speed>
</trkpt>
<trkpt lat="47.656739" lon="8.622430">
<ele>359.8</ele>
<time>2003-05-19T08:57:39Z</time>
<speed>0.6</speed>
</trkpt>
<trkpt lat="47.656704" lon="8.622463">
<ele>360.7</ele>
<time>2003-05-19T08:57:44Z</time>
<speed>0.8</speed>
</trkpt>
<trkpt lat="47.656656" lon="8.622508">
<ele>361.5</ele>
<time>2003-05-19T08:57:49Z</time>
<speed>0.6</speed>
</trkpt>
<trkpt lat="47.656605" lon="8.622579">
<ele>362.6</ele>
<time>2003-05-19T08:57:54Z</time>
<speed>1.1</speed>
</trkpt>
<trkpt lat="47.656536" lon="8.622648">
<ele>362.8</ele>
<time>2003-05-19T08:57:59Z</time>
<speed>1.1</speed>
</trkpt>
<trkpt lat="47.656506" lon="8.622710">
<ele>363.2</ele>
<time>2003-05-19T08:58:04Z</time>
<speed>0.8</speed>
</trkpt>
<trkpt lat="47.656482" lon="8.622772">
<ele>364.3</ele>
<time>2003-05-19T08:58:09Z</time>
<speed>0.8</speed>
</trkpt>
<trkpt lat="47.656458" lon="8.622835">
<ele>363.9</ele>
<time>2003-05-19T08:58:14Z</time>
<speed>0.8</speed>
</trkpt>
<trkpt lat="47.656428" lon="8.622897">
<ele>364.3</ele>
<time>2003-05-19T08:58:19Z</time>
<speed>0.6</speed>
</trkpt>
<trkpt lat="47.656371" lon="8.622983">
<ele>363.3</ele>
<time>2003-05-19T08:58:24Z</time>
<speed>1.1</speed>
</trkpt>
<trkpt lat="47.656319" lon="8.623067">
<ele>364.5</ele>
<time>2003-05-19T08:58:29Z</time>
<speed>1.1</speed>
</trkpt>
<trkpt lat="47.656268" lon="8.623154">
<ele>364.2</ele>
<time>2003-05-19T08:58:34Z</time>
<speed>1.1</speed>
</trkpt>
<trkpt lat="47.656233" lon="8.623202">
<ele>363.7</ele>
<time>2003-05-19T08:58:39Z</time>
<speed>0.6</speed>
</trkpt>
<trkpt lat="47.656203" lon="8.623264">
<ele>364.1</ele>
<time>2003-05-19T08:58:44Z</time>
<speed>0.8</speed>
</trkpt>
<trkpt lat="47.656186" lon="8.623330">
<ele>363.1</ele>
<time>2003-05-19T08:58:49Z</time>
<speed>0.6</speed>
</trkpt>
<trkpt lat="47.656156" lon="8.623394">
<ele>362.1</ele>
<time>2003-05-19T08:58:54Z</time>
<speed>0.6</speed>
</trkpt>
<trkpt lat="47.656131" lon="8.623471">
<ele>361.9</ele>
<time>2003-05-19T08:58:59Z</time>
<speed>0.8</speed>
</trkpt>
<trkpt lat="47.656109" lon="8.623521">
<ele>361.5</ele>
<time>2003-05-19T08:59:04Z</time>
<speed>0.8</speed>
</trkpt>
<trkpt lat="47.656041" lon="8.623577">
<ele>361.6</ele>
<time>2003-05-19T08:59:09Z</time>
<speed>0.6</speed>
</trkpt>
<trkpt lat="47.655998" lon="8.623639">
<ele>360.5</ele>
<time>2003-05-19T08:59:14Z</time>
<speed>0.6</speed>
</trkpt>
<trkpt lat="47.655950" lon="8.623684">
<ele>361.3</ele>
<time>2003-05-19T08:59:19Z</time>
<speed>0.8</speed>
</trkpt>
<trkpt lat="47.655914" lon="8.623730">
<ele>362.2</ele>
<time>2003-05-19T08:59:24Z</time>
<speed>0.8</speed>
</trkpt>
<trkpt lat="47.655877" lon="8.623790">
<ele>363.3</ele>
<time>2003-05-19T08:59:29Z</time>
<speed>0.8</speed>
</trkpt>
<trkpt lat="47.655841" lon="8.623852">
<ele>362.9</ele>
<time>2003-05-19T08:59:34Z</time>
<speed>0.8</speed>
</trkpt>
<trkpt lat="47.655800" lon="8.623885">
<ele>363.0</ele>
<time>2003-05-19T08:59:39Z</time>
<speed>0.6</speed>
</trkpt>
<trkpt lat="47.655758" lon="8.623932">
<ele>363.2</ele>
<time>2003-05-19T08:59:44Z</time>
<speed>0.6</speed>
</trkpt>
<trkpt lat="47.655728" lon="8.623994">
<ele>363.5</ele>
<time>2003-05-19T08:59:49Z</time>
<speed>0.8</speed>
</trkpt>
<trkpt lat="47.655684" lon="8.624067">
<ele>363.9</ele>
<time>2003-05-19T08:59:54Z</time>
<speed>0.6</speed>
</trkpt>
<trkpt lat="47.655648" lon="8.624113">
<ele>364.8</ele>
<time>2003-05-19T08:59:59Z</time>
<speed>0.6</speed>
</trkpt>
<trkpt lat="47.655613" lon="8.624162">
<ele>364.3</ele>
<time>2003-05-19T09:00:04Z</time>
<speed>0.8</speed>
</trkpt>
<trkpt lat="47.655602" lon="8.624213">
<ele>365.4</ele>
<time>2003-05-19T09:00:09Z</time>
<speed>0.6</speed>
</trkpt>
<trkpt lat="47.655575" lon="8.624235">
<ele>365.5</ele>
<time>2003-05-19T09:00:14Z</time>
<speed>0.8</speed>
</trkpt>
<trkpt lat="47.655507" lon="8.624293">
<ele>364.2</ele>
<time>2003-05-19T09:00:19Z</time>
<speed>1.4</speed>
</trkpt>
<trkpt lat="47.655437" lon="8.624390">
<ele>363.2</ele>
<time>2003-05-19T09:00:24Z</time>
<speed>0.6</speed>
</trkpt>
<trkpt lat="47.655442" lon="8.624403">
<ele>364.1</ele>
<time>2003-05-19T09:00:29Z</time>
<speed>0.0</speed>
</trkpt>
<trkpt lat="47.655454" lon="8.624419">
<ele>364.3</ele>
<time>2003-05-19T09:00:34Z</time>
<speed>0.0</speed>
</trkpt>
<trkpt lat="47.655432" lon="8.624441">
<ele>365.1</ele>
<time>2003-05-19T09:00:39Z</time>
<speed>0.3</speed>
</trkpt>
<trkpt lat="47.655412" lon="8.624465">
<ele>364.4</ele>
<time>2003-05-19T09:00:44Z</time>
<speed>0.0</speed>
</trkpt>
<trkpt lat="47.655396" lon="8.624503">
<ele>364.7</ele>
<time>2003-05-19T09:00:49Z</time>
<speed>0.3</speed>
</trkpt>
<trkpt lat="47.655387" lon="8.624542">
<ele>364.2</ele>
<time>2003-05-19T09:00:54Z</time>
<speed>0.3</speed>
</trkpt>
<trkpt lat="47.655388" lon="8.624531">
<ele>362.7</ele>
<time>2003-05-19T09:00:59Z</time>
<speed>0.6</speed>
</trkpt>
<trkpt lat="47.655373" lon="8.624570">
<ele>361.6</ele>
<time>2003-05-19T09:01:04Z</time>
<speed>0.6</speed>
</trkpt>
<trkpt lat="47.655365" lon="8.624597">
<ele>361.0</ele>
<time>2003-05-19T09:01:09Z</time>
<speed>0.0</speed>
</trkpt>
<trkpt lat="47.655291" lon="8.624653">
<ele>360.4</ele>
<time>2003-05-19T09:01:14Z</time>
<speed>0.8</speed>
</trkpt>
<trkpt lat="47.655249" lon="8.624699">
<ele>360.6</ele>
<time>2003-05-19T09:01:19Z</time>
<speed>0.8</speed>
</trkpt>
<trkpt lat="47.655214" lon="8.624748">
<ele>360.1</ele>
<time>2003-05-19T09:01:24Z</time>
<speed>1.1</speed>
</trkpt>
<trkpt lat="47.655169" lon="8.624834">
<ele>360.6</ele>
<time>2003-05-19T09:01:29Z</time>
<speed>0.8</speed>
</trkpt>
<trkpt lat="47.655139" lon="8.624898">
<ele>359.6</ele>
<time>2003-05-19T09:01:34Z</time>
<speed>0.8</speed>
</trkpt>
<trkpt lat="47.655104" lon="8.624947">
<ele>359.1</ele>
<time>2003-05-19T09:01:39Z</time>
<speed>0.8</speed>
</trkpt>
<trkpt lat="47.655082" lon="8.624984">
<ele>358.6</ele>
<time>2003-05-19T09:01:44Z</time>
<speed>0.8</speed>
</trkpt>
<trkpt lat="47.655065" lon="8.625048">
<ele>359.0</ele>
<time>2003-05-19T09:01:49Z</time>
<speed>0.6</speed>
</trkpt>
<trkpt lat="47.655015" lon="8.625121">
<ele>358.7</ele>
<time>2003-05-19T09:01:54Z</time>
<speed>1.1</speed>
</trkpt>
<trkpt lat="47.654973" lon="8.625167">
<ele>358.8</ele>
<time>2003-05-19T09:01:59Z</time>
<speed>0.8</speed>
</trkpt>
<trkpt lat="47.654939" lon="8.625203">
<ele>358.3</ele>
<time>2003-05-19T09:02:04Z</time>
<speed>0.6</speed>
</trkpt>
<trkpt lat="47.654896" lon="8.625263">
<ele>358.5</ele>
<time>2003-05-19T09:02:10Z</time>
<speed>0.6</speed>
</trkpt>
<trkpt lat="47.654860" lon="8.625311">
<ele>358.1</ele>
<time>2003-05-19T09:02:15Z</time>
<speed>0.8</speed>
</trkpt>
<trkpt lat="47.654814" lon="8.625345">
<ele>357.4</ele>
<time>2003-05-19T09:02:20Z</time>
<speed>0.3</speed>
</trkpt>
<trkpt lat="47.654807" lon="8.625343">
<ele>358.1</ele>
<time>2003-05-19T09:02:25Z</time>
<speed>0.0</speed>
</trkpt>
<trkpt lat="47.654778" lon="8.625392">
<ele>358.3</ele>
<time>2003-05-19T09:02:30Z</time>
<speed>0.8</speed>
</trkpt>
<trkpt lat="47.654741" lon="8.625453">
<ele>358.0</ele>
<time>2003-05-19T09:02:35Z</time>
<speed>0.6</speed>
</trkpt>
<trkpt lat="47.654693" lon="8.625500">
<ele>357.4</ele>
<time>2003-05-19T09:02:40Z</time>
<speed>1.1</speed>
</trkpt>
<trkpt lat="47.654642" lon="8.625599">
<ele>357.2</ele>
<time>2003-05-19T09:02:45Z</time>
<speed>0.8</speed>
</trkpt>
<trkpt lat="47.654605" lon="8.625659">
<ele>358.3</ele>
<time>2003-05-19T09:02:50Z</time>
<speed>1.1</speed>
</trkpt>
<trkpt lat="47.654558" lon="8.625693">
<ele>357.6</ele>
<time>2003-05-19T09:02:55Z</time>
<speed>0.8</speed>
</trkpt>
<trkpt lat="47.654491" lon="8.625735">
<ele>357.7</ele>
<time>2003-05-19T09:03:00Z</time>
<speed>1.1</speed>
</trkpt>
<trkpt lat="47.654442" lon="8.625795">
<ele>357.2</ele>
<time>2003-05-19T09:03:05Z</time>
<speed>0.6</speed>
</trkpt>
<trkpt lat="47.654419" lon="8.625846">
<ele>356.8</ele>
<time>2003-05-19T09:03:10Z</time>
<speed>0.6</speed>
</trkpt>
<trkpt lat="47.654383" lon="8.625908">
<ele>356.4</ele>
<time>2003-05-19T09:03:15Z</time>
<speed>0.8</speed>
</trkpt>
<trkpt lat="47.654354" lon="8.625958">
<ele>355.3</ele>
<time>2003-05-19T09:03:20Z</time>
<speed>0.6</speed>
</trkpt>
<trkpt lat="47.654312" lon="8.626005">
<ele>355.4</ele>
<time>2003-05-19T09:03:25Z</time>
<speed>0.8</speed>
</trkpt>
<trkpt lat="47.654270" lon="8.626067">
<ele>354.3</ele>
<time>2003-05-19T09:03:30Z</time>
<speed>0.8</speed>
</trkpt>
<trkpt lat="47.654214" lon="8.626124">
<ele>354.5</ele>
<time>2003-05-19T09:03:35Z</time>
<speed>0.6</speed>
</trkpt>
<trkpt lat="47.654161" lon="8.626156">
<ele>354.6</ele>
<time>2003-05-19T09:03:40Z</time>
<speed>0.8</speed>
</trkpt>
<trkpt lat="47.654105" lon="8.626214">
<ele>354.8</ele>
<time>2003-05-19T09:03:45Z</time>
<speed>1.1</speed>
</trkpt>
<trkpt lat="47.654069" lon="8.626276">
<ele>354.4</ele>
<time>2003-05-19T09:03:50Z</time>
<speed>0.8</speed>
</trkpt>
<trkpt lat="47.654021" lon="8.626322">
<ele>353.8</ele>
<time>2003-05-19T09:03:55Z</time>
<speed>0.8</speed>
</trkpt>
<trkpt lat="47.653965" lon="8.626380">
<ele>354.0</ele>
<time>2003-05-19T09:04:00Z</time>
<speed>0.8</speed>
</trkpt>
<trkpt lat="47.653929" lon="8.626442">
<ele>353.7</ele>
<time>2003-05-19T09:04:05Z</time>
<speed>1.1</speed>
</trkpt>
<trkpt lat="47.653899" lon="8.626504">
<ele>354.0</ele>
<time>2003-05-19T09:04:10Z</time>
<speed>0.8</speed>
</trkpt>
<trkpt lat="47.653864" lon="8.626552">
<ele>353.5</ele>
<time>2003-05-19T09:04:15Z</time>
<speed>0.8</speed>
</trkpt>
<trkpt lat="47.653823" lon="8.626586">
<ele>353.6</ele>
<time>2003-05-19T09:04:20Z</time>
<speed>0.6</speed>
</trkpt>
<trkpt lat="47.653802" lon="8.626608">
<ele>354.4</ele>
<time>2003-05-19T09:04:25Z</time>
<speed>0.3</speed>
</trkpt>
<trkpt lat="47.653781" lon="8.626617">
<ele>355.1</ele>
<time>2003-05-19T09:04:30Z</time>
<speed>0.3</speed>
</trkpt>
<trkpt lat="47.653762" lon="8.626628">
<ele>354.4</ele>
<time>2003-05-19T09:04:35Z</time>
<speed>0.3</speed>
</trkpt>
<trkpt lat="47.653713" lon="8.626671">
<ele>356.7</ele>
<time>2003-05-19T09:04:40Z</time>
<speed>0.6</speed>
</trkpt>
<trkpt lat="47.653677" lon="8.626718">
<ele>357.6</ele>
<time>2003-05-19T09:04:45Z</time>
<speed>0.8</speed>
</trkpt>
<trkpt lat="47.653640" lon="8.626778">
<ele>358.6</ele>
<time>2003-05-19T09:04:50Z</time>
<speed>0.6</speed>
</trkpt>
<trkpt lat="47.653598" lon="8.626824">
<ele>358.8</ele>
<time>2003-05-19T09:04:55Z</time>
<speed>0.8</speed>
</trkpt>
<trkpt lat="47.653575" lon="8.626888">
<ele>358.5</ele>
<time>2003-05-19T09:05:00Z</time>
<speed>0.8</speed>
</trkpt>
<trkpt lat="47.653551" lon="8.626952">
<ele>358.2</ele>
<time>2003-05-19T09:05:05Z</time>
<speed>0.6</speed>
</trkpt>
<trkpt lat="47.653501" lon="8.627010">
<ele>359.1</ele>
<time>2003-05-19T09:05:10Z</time>
<speed>0.8</speed>
</trkpt>
<trkpt lat="47.653446" lon="8.627067">
<ele>359.3</ele>
<time>2003-05-19T09:05:15Z</time>
<speed>0.6</speed>
</trkpt>
<trkpt lat="47.653404" lon="8.627114">
<ele>359.5</ele>
<time>2003-05-19T09:05:20Z</time>
<speed>0.6</speed>
</trkpt>
<trkpt lat="47.653382" lon="8.627150">
<ele>360.4</ele>
<time>2003-05-19T09:05:25Z</time>
<speed>0.3</speed>
</trkpt>
<trkpt lat="47.653354" lon="8.627185">
<ele>360.6</ele>
<time>2003-05-19T09:05:30Z</time>
<speed>0.3</speed>
</trkpt>
<trkpt lat="47.653325" lon="8.627221">
<ele>360.7</ele>
<time>2003-05-19T09:05:35Z</time>
<speed>0.6</speed>
</trkpt>
<trkpt lat="47.653283" lon="8.627267">
<ele>360.9</ele>
<time>2003-05-19T09:05:40Z</time>
<speed>0.8</speed>
</trkpt>
<trkpt lat="47.653234" lon="8.627327">
<ele>360.5</ele>
<time>2003-05-19T09:05:45Z</time>
<speed>0.6</speed>
</trkpt>
<trkpt lat="47.653193" lon="8.627374">
<ele>360.7</ele>
<time>2003-05-19T09:05:50Z</time>
<speed>0.6</speed>
</trkpt>
<trkpt lat="47.653139" lon="8.627405">
<ele>360.7</ele>
<time>2003-05-19T09:05:55Z</time>
<speed>0.8</speed>
</trkpt>
<trkpt lat="47.653092" lon="8.627439">
<ele>360.0</ele>
<time>2003-05-19T09:06:00Z</time>
<speed>0.8</speed>
</trkpt>
<trkpt lat="47.653027" lon="8.627453">
<ele>361.3</ele>
<time>2003-05-19T09:06:05Z</time>
<speed>0.8</speed>
</trkpt>
<trkpt lat="47.652980" lon="8.627471">
<ele>361.9</ele>
<time>2003-05-19T09:06:10Z</time>
<speed>0.6</speed>
</trkpt>
<trkpt lat="47.652919" lon="8.627516">
<ele>361.3</ele>
<time>2003-05-19T09:06:15Z</time>
<speed>0.8</speed>
</trkpt>
<trkpt lat="47.652885" lon="8.627549">
<ele>362.1</ele>
<time>2003-05-19T09:06:20Z</time>
<speed>0.8</speed>
</trkpt>
<trkpt lat="47.652833" lon="8.627553">
<ele>363.3</ele>
<time>2003-05-19T09:06:25Z</time>
<speed>0.6</speed>
</trkpt>
<trkpt lat="47.652799" lon="8.627575">
<ele>362.6</ele>
<time>2003-05-19T09:06:30Z</time>
<speed>0.6</speed>
</trkpt>
<trkpt lat="47.652757" lon="8.627622">
<ele>362.8</ele>
<time>2003-05-19T09:06:35Z</time>
<speed>0.8</speed>
</trkpt>
<trkpt lat="47.652711" lon="8.627640">
<ele>363.5</ele>
<time>2003-05-19T09:06:40Z</time>
<speed>0.6</speed>
</trkpt>
<trkpt lat="47.652663" lon="8.627687">
<ele>362.9</ele>
<time>2003-05-19T09:06:45Z</time>
<speed>0.6</speed>
</trkpt>
<trkpt lat="47.652629" lon="8.627707">
<ele>363.6</ele>
<time>2003-05-19T09:06:50Z</time>
<speed>0.3</speed>
</trkpt>
<trkpt lat="47.652602" lon="8.627729">
<ele>363.7</ele>
<time>2003-05-19T09:06:55Z</time>
<speed>0.0</speed>
</trkpt>
<trkpt lat="47.652583" lon="8.627725">
<ele>364.3</ele>
<time>2003-05-19T09:07:00Z</time>
<speed>0.3</speed>
</trkpt>
<trkpt lat="47.652524" lon="8.627742">
<ele>364.9</ele>
<time>2003-05-19T09:07:05Z</time>
<speed>0.6</speed>
</trkpt>
<trkpt lat="47.652478" lon="8.627762">
<ele>364.1</ele>
<time>2003-05-19T09:07:10Z</time>
<speed>0.6</speed>
</trkpt>
<trkpt lat="47.652425" lon="8.627780">
<ele>364.0</ele>
<time>2003-05-19T09:07:15Z</time>
<speed>0.6</speed>
</trkpt>
<trkpt lat="47.652374" lon="8.627785">
<ele>363.8</ele>
<time>2003-05-19T09:07:20Z</time>
<speed>0.6</speed>
</trkpt>
<trkpt lat="47.652296" lon="8.627800">
<ele>363.6</ele>
<time>2003-05-19T09:07:25Z</time>
<speed>0.6</speed>
</trkpt>
<trkpt lat="47.652250" lon="8.627805">
<ele>364.1</ele>
<time>2003-05-19T09:07:30Z</time>
<speed>0.8</speed>
</trkpt>
<trkpt lat="47.652206" lon="8.627812">
<ele>363.3</ele>
<time>2003-05-19T09:07:35Z</time>
<speed>0.8</speed>
</trkpt>
<trkpt lat="47.652148" lon="8.627817">
<ele>362.3</ele>
<time>2003-05-19T09:07:40Z</time>
<speed>0.6</speed>
</trkpt>
<trkpt lat="47.652098" lon="8.627794">
<ele>363.4</ele>
<time>2003-05-19T09:07:45Z</time>
<speed>0.6</speed>
</trkpt>
<trkpt lat="47.652050" lon="8.627747">
<ele>362.8</ele>
<time>2003-05-19T09:07:50Z</time>
<speed>0.8</speed>
</trkpt>
<trkpt lat="47.652003" lon="8.627699">
<ele>362.2</ele>
<time>2003-05-19T09:07:55Z</time>
<speed>0.8</speed>
</trkpt>
<trkpt lat="47.651931" lon="8.627714">
<ele>362.7</ele>
<time>2003-05-19T09:08:00Z</time>
<speed>0.6</speed>
</trkpt>
<trkpt lat="47.651886" lon="8.627719">
<ele>363.2</ele>
<time>2003-05-19T09:08:05Z</time>
<speed>0.8</speed>
</trkpt>
<trkpt lat="47.651815" lon="8.627720">
<ele>363.6</ele>
<time>2003-05-19T09:08:10Z</time>
<speed>0.8</speed>
</trkpt>
<trkpt lat="47.651756" lon="8.627736">
<ele>364.2</ele>
<time>2003-05-19T09:08:15Z</time>
<speed>0.8</speed>
</trkpt>
<trkpt lat="47.651703" lon="8.627755">
<ele>364.1</ele>
<time>2003-05-19T09:08:20Z</time>
<speed>0.6</speed>
</trkpt>
<trkpt lat="47.651657" lon="8.627775">
<ele>363.3</ele>
<time>2003-05-19T09:08:25Z</time>
<speed>0.6</speed>
</trkpt>
<trkpt lat="47.651575" lon="8.627761">
<ele>363.6</ele>
<time>2003-05-19T09:08:30Z</time>
<speed>1.4</speed>
</trkpt>
<trkpt lat="47.651512" lon="8.627751">
<ele>363.2</ele>
<time>2003-05-19T09:08:35Z</time>
<speed>1.1</speed>
</trkpt>
<trkpt lat="47.651473" lon="8.627758">
<ele>363.1</ele>
<time>2003-05-19T09:08:40Z</time>
<speed>0.6</speed>
</trkpt>
<trkpt lat="47.651447" lon="8.627767">
<ele>363.0</ele>
<time>2003-05-19T09:08:45Z</time>
<speed>0.6</speed>
</trkpt>
<trkpt lat="47.651407" lon="8.627788">
<ele>363.0</ele>
<time>2003-05-19T09:08:50Z</time>
<speed>0.6</speed>
</trkpt>
<trkpt lat="47.651360" lon="8.627806">
<ele>363.7</ele>
<time>2003-05-19T09:08:55Z</time>
<speed>0.6</speed>
</trkpt>
<trkpt lat="47.651297" lon="8.627811">
<ele>362.0</ele>
<time>2003-05-19T09:09:00Z</time>
<speed>0.8</speed>
</trkpt>
<trkpt lat="47.651235" lon="8.627788">
<ele>361.5</ele>
<time>2003-05-19T09:09:05Z</time>
<speed>0.8</speed>
</trkpt>
<trkpt lat="47.651178" lon="8.627778">
<ele>361.9</ele>
<time>2003-05-19T09:09:10Z</time>
<speed>0.6</speed>
</trkpt>
<trkpt lat="47.651134" lon="8.627757">
<ele>362.3</ele>
<time>2003-05-19T09:09:15Z</time>
<speed>0.6</speed>
</trkpt>
<trkpt lat="47.651077" lon="8.627747">
<ele>362.6</ele>
<time>2003-05-19T09:09:20Z</time>
<speed>1.1</speed>
</trkpt>
<trkpt lat="47.651006" lon="8.627763">
<ele>361.7</ele>
<time>2003-05-19T09:09:25Z</time>
<speed>0.8</speed>
</trkpt>
<trkpt lat="47.650948" lon="8.627766">
<ele>362.2</ele>
<time>2003-05-19T09:09:30Z</time>
<speed>0.8</speed>
</trkpt>
<trkpt lat="47.650876" lon="8.627781">
<ele>362.7</ele>
<time>2003-05-19T09:09:35Z</time>
<speed>0.8</speed>
</trkpt>
<trkpt lat="47.650813" lon="8.627771">
<ele>362.3</ele>
<time>2003-05-19T09:09:40Z</time>
<speed>1.1</speed>
</trkpt>
<trkpt lat="47.650762" lon="8.627763">
<ele>362.1</ele>
<time>2003-05-19T09:09:45Z</time>
<speed>0.6</speed>
</trkpt>
<trkpt lat="47.650717" lon="8.627768">
<ele>362.6</ele>
<time>2003-05-19T09:09:50Z</time>
<speed>0.8</speed>
</trkpt>
<trkpt lat="47.650640" lon="8.627769">
<ele>362.3</ele>
<time>2003-05-19T09:09:55Z</time>
<speed>1.1</speed>
</trkpt>
<trkpt lat="47.650576" lon="8.627774">
<ele>360.6</ele>
<time>2003-05-19T09:10:00Z</time>
<speed>0.8</speed>
</trkpt>
<trkpt lat="47.650531" lon="8.627779">
<ele>361.1</ele>
<time>2003-05-19T09:10:05Z</time>
<speed>0.3</speed>
</trkpt>
<trkpt lat="47.650487" lon="8.627771">
<ele>361.6</ele>
<time>2003-05-19T09:10:10Z</time>
<speed>0.6</speed>
</trkpt>
<trkpt lat="47.650410" lon="8.627773">
<ele>361.3</ele>
<time>2003-05-19T09:10:15Z</time>
<speed>1.4</speed>
</trkpt>
<trkpt lat="47.650334" lon="8.627761">
<ele>360.8</ele>
<time>2003-05-19T09:10:20Z</time>
<speed>0.8</speed>
</trkpt>
<trkpt lat="47.650282" lon="8.627766">
<ele>360.6</ele>
<time>2003-05-19T09:10:25Z</time>
<speed>0.6</speed>
</trkpt>
<trkpt lat="47.650232" lon="8.627743">
<ele>361.6</ele>
<time>2003-05-19T09:10:30Z</time>
<speed>0.6</speed>
</trkpt>
<trkpt lat="47.650195" lon="8.627737">
<ele>361.4</ele>
<time>2003-05-19T09:10:35Z</time>
<speed>0.3</speed>
</trkpt>
<trkpt lat="47.650189" lon="8.627724">
<ele>360.6</ele>
<time>2003-05-19T09:10:40Z</time>
<speed>0.3</speed>
</trkpt>
<trkpt lat="47.650165" lon="8.627706">
<ele>360.3</ele>
<time>2003-05-19T09:10:45Z</time>
<speed>0.3</speed>
</trkpt>
<trkpt lat="47.650134" lon="8.627702">
<ele>359.4</ele>
<time>2003-05-19T09:10:50Z</time>
<speed>0.3</speed>
</trkpt>
<trkpt lat="47.650095" lon="8.627710">
<ele>359.3</ele>
<time>2003-05-19T09:10:55Z</time>
<speed>0.3</speed>
</trkpt>
<trkpt lat="47.650030" lon="8.627711">
<ele>360.5</ele>
<time>2003-05-19T09:11:00Z</time>
<speed>0.8</speed>
</trkpt>
<trkpt lat="47.649969" lon="8.627674">
<ele>359.9</ele>
<time>2003-05-19T09:11:05Z</time>
<speed>0.6</speed>
</trkpt>
<trkpt lat="47.649912" lon="8.627664">
<ele>360.3</ele>
<time>2003-05-19T09:11:10Z</time>
<speed>0.8</speed>
</trkpt>
<trkpt lat="47.649862" lon="8.627641">
<ele>361.3</ele>
<time>2003-05-19T09:11:15Z</time>
<speed>0.6</speed>
</trkpt>
<trkpt lat="47.649824" lon="8.627635">
<ele>361.1</ele>
<time>2003-05-19T09:11:20Z</time>
<speed>0.8</speed>
</trkpt>
<trkpt lat="47.649768" lon="8.627627">
<ele>360.0</ele>
<time>2003-05-19T09:11:25Z</time>
<speed>0.8</speed>
</trkpt>
<trkpt lat="47.649731" lon="8.627608">
<ele>359.7</ele>
<time>2003-05-19T09:11:30Z</time>
<speed>0.6</speed>
</trkpt>
<trkpt lat="47.649661" lon="8.627596">
<ele>360.0</ele>
<time>2003-05-19T09:11:35Z</time>
<speed>0.8</speed>
</trkpt>
<trkpt lat="47.649618" lon="8.627577">
<ele>359.0</ele>
<time>2003-05-19T09:11:40Z</time>
<speed>0.8</speed>
</trkpt>
<trkpt lat="47.649575" lon="8.627556">
<ele>359.3</ele>
<time>2003-05-19T09:11:45Z</time>
<speed>0.6</speed>
</trkpt>
<trkpt lat="47.649529" lon="8.627561">
<ele>359.9</ele>
<time>2003-05-19T09:11:50Z</time>
<speed>0.6</speed>
</trkpt>
<trkpt lat="47.649492" lon="8.627542">
<ele>359.5</ele>
<time>2003-05-19T09:11:55Z</time>
<speed>0.3</speed>
</trkpt>
<trkpt lat="47.649466" lon="8.627551">
<ele>359.5</ele>
<time>2003-05-19T09:12:00Z</time>
<speed>0.0</speed>
</trkpt>
<trkpt lat="47.649433" lon="8.627558">
<ele>360.1</ele>
<time>2003-05-19T09:12:05Z</time>
<speed>0.6</speed>
</trkpt>
<trkpt lat="47.649363" lon="8.627561">
<ele>359.1</ele>
<time>2003-05-19T09:12:10Z</time>
<speed>1.1</speed>
</trkpt>
<trkpt lat="47.649338" lon="8.627557">
<ele>359.0</ele>
<time>2003-05-19T09:12:15Z</time>
<speed>0.0</speed>
</trkpt>
<trkpt lat="47.649358" lon="8.627548">
<ele>358.3</ele>
<time>2003-05-19T09:12:20Z</time>
<speed>0.6</speed>
</trkpt>
<trkpt lat="47.649338" lon="8.627557">
<ele>359.0</ele>
<time>2003-05-19T09:12:25Z</time>
<speed>0.0</speed>
</trkpt>
<trkpt lat="47.649339" lon="8.627544">
<ele>358.9</ele>
<time>2003-05-19T09:12:30Z</time>
<speed>0.0</speed>
</trkpt>
<trkpt lat="47.649339" lon="8.627544">
<ele>358.9</ele>
<time>2003-05-19T09:12:35Z</time>
<speed>0.3</speed>
</trkpt>
<trkpt lat="47.649334" lon="8.627516">
<ele>359.3</ele>
<time>2003-05-19T09:12:40Z</time>
<speed>0.3</speed>
</trkpt>
<trkpt lat="47.649311" lon="8.627488">
<ele>357.6</ele>
<time>2003-05-19T09:12:46Z</time>
<speed>0.3</speed>
</trkpt>
<trkpt lat="47.649272" lon="8.627495">
<ele>357.5</ele>
<time>2003-05-19T09:12:51Z</time>
<speed>0.6</speed>
</trkpt>
<trkpt lat="47.649267" lon="8.627480">
<ele>358.0</ele>
<time>2003-05-19T09:12:56Z</time>
<speed>0.0</speed>
</trkpt>
<trkpt lat="47.649268" lon="8.627451">
<ele>359.2</ele>
<time>2003-05-19T09:13:01Z</time>
<speed>0.0</speed>
</trkpt>
<trkpt lat="47.649256" lon="8.627449">
<ele>359.1</ele>
<time>2003-05-19T09:13:06Z</time>
<speed>0.3</speed>
</trkpt>
<trkpt lat="47.649218" lon="8.627428">
<ele>360.2</ele>
<time>2003-05-19T09:13:11Z</time>
<speed>0.6</speed>
</trkpt>
<trkpt lat="47.649161" lon="8.627418">
<ele>360.6</ele>
<time>2003-05-19T09:13:16Z</time>
<speed>0.8</speed>
</trkpt>
<trkpt lat="47.649103" lon="8.627421">
<ele>361.1</ele>
<time>2003-05-19T09:13:21Z</time>
<speed>0.8</speed>
</trkpt>
<trkpt lat="47.649029" lon="8.627383">
<ele>360.4</ele>
<time>2003-05-19T09:13:26Z</time>
<speed>1.1</speed>
</trkpt>
<trkpt lat="47.648986" lon="8.627362">
<ele>360.8</ele>
<time>2003-05-19T09:13:31Z</time>
<speed>0.8</speed>
</trkpt>
<trkpt lat="47.648931" lon="8.627326">
<ele>361.0</ele>
<time>2003-05-19T09:13:36Z</time>
<speed>0.8</speed>
</trkpt>
<trkpt lat="47.648881" lon="8.627303">
<ele>362.0</ele>
<time>2003-05-19T09:13:41Z</time>
<speed>1.1</speed>
</trkpt>
<trkpt lat="47.648830" lon="8.627293">
<ele>363.1</ele>
<time>2003-05-19T09:13:46Z</time>
<speed>0.6</speed>
</trkpt>
<trkpt lat="47.648791" lon="8.627300">
<ele>363.0</ele>
<time>2003-05-19T09:13:51Z</time>
<speed>0.6</speed>
</trkpt>
<trkpt lat="47.648740" lon="8.627292">
<ele>362.7</ele>
<time>2003-05-19T09:13:56Z</time>
<speed>1.1</speed>
</trkpt>
<trkpt lat="47.648677" lon="8.627282">
<ele>362.3</ele>
<time>2003-05-19T09:14:01Z</time>
<speed>0.8</speed>
</trkpt>
<trkpt lat="47.648627" lon="8.627274">
<ele>362.0</ele>
<time>2003-05-19T09:14:06Z</time>
<speed>0.6</speed>
</trkpt>
<trkpt lat="47.648583" lon="8.627253">
<ele>362.4</ele>
<time>2003-05-19T09:14:11Z</time>
<speed>0.8</speed>
</trkpt>
<trkpt lat="47.648535" lon="8.627220">
<ele>360.5</ele>
<time>2003-05-19T09:14:16Z</time>
<speed>0.8</speed>
</trkpt>
<trkpt lat="47.648487" lon="8.627186">
<ele>360.0</ele>
<time>2003-05-19T09:14:21Z</time>
<speed>0.8</speed>
</trkpt>
<trkpt lat="47.648459" lon="8.627127">
<ele>360.1</ele>
<time>2003-05-19T09:14:26Z</time>
<speed>0.8</speed>
</trkpt>
<trkpt lat="47.648435" lon="8.627095">
<ele>361.1</ele>
<time>2003-05-19T09:14:31Z</time>
<speed>0.6</speed>
</trkpt>
<trkpt lat="47.648392" lon="8.627059">
<ele>362.8</ele>
<time>2003-05-19T09:14:36Z</time>
<speed>0.6</speed>
</trkpt>
<trkpt lat="47.648324" lon="8.627036">
<ele>361.6</ele>
<time>2003-05-19T09:14:41Z</time>
<speed>1.1</speed>
</trkpt>
<trkpt lat="47.648281" lon="8.627001">
<ele>361.8</ele>
<time>2003-05-19T09:14:46Z</time>
<speed>0.8</speed>
</trkpt>
<trkpt lat="47.648220" lon="8.626965">
<ele>361.3</ele>
<time>2003-05-19T09:14:51Z</time>
<speed>1.1</speed>
</trkpt>
<trkpt lat="47.648178" lon="8.626931">
<ele>361.5</ele>
<time>2003-05-19T09:14:56Z</time>
<speed>0.6</speed>
</trkpt>
<trkpt lat="47.648141" lon="8.626896">
<ele>362.5</ele>
<time>2003-05-19T09:15:01Z</time>
<speed>0.6</speed>
</trkpt>
<trkpt lat="47.648131" lon="8.626868">
<ele>362.2</ele>
<time>2003-05-19T09:15:06Z</time>
<speed>0.3</speed>
</trkpt>
<trkpt lat="47.648093" lon="8.626862">
<ele>362.0</ele>
<time>2003-05-19T09:15:11Z</time>
<speed>0.6</speed>
</trkpt>
<trkpt lat="47.648031" lon="8.626839">
<ele>361.5</ele>
<time>2003-05-19T09:15:16Z</time>
<speed>0.8</speed>
</trkpt>
<trkpt lat="47.647959" lon="8.626853">
<ele>362.0</ele>
<time>2003-05-19T09:15:21Z</time>
<speed>0.8</speed>
</trkpt>
<trkpt lat="47.647936" lon="8.626823">
<ele>361.7</ele>
<time>2003-05-19T09:15:26Z</time>
<speed>0.6</speed>
</trkpt>
<trkpt lat="47.647893" lon="8.626787">
<ele>363.3</ele>
<time>2003-05-19T09:15:31Z</time>
<speed>0.6</speed>
</trkpt>
<trkpt lat="47.647831" lon="8.626766">
<ele>361.5</ele>
<time>2003-05-19T09:15:36Z</time>
<speed>0.8</speed>
</trkpt>
<trkpt lat="47.647755" lon="8.626754">
<ele>361.0</ele>
<time>2003-05-19T09:15:41Z</time>
<speed>0.8</speed>
</trkpt>
<trkpt lat="47.647703" lon="8.626772">
<ele>360.9</ele>
<time>2003-05-19T09:15:46Z</time>
<speed>0.8</speed>
</trkpt>
<trkpt lat="47.647652" lon="8.626764">
<ele>360.7</ele>
<time>2003-05-19T09:15:51Z</time>
<speed>0.8</speed>
</trkpt>
<trkpt lat="47.647597" lon="8.626728">
<ele>360.8</ele>
<time>2003-05-19T09:15:56Z</time>
<speed>0.8</speed>
</trkpt>
<trkpt lat="47.647534" lon="8.626702">
<ele>361.8</ele>
<time>2003-05-19T09:16:01Z</time>
<speed>0.8</speed>
</trkpt>
<trkpt lat="47.647460" lon="8.626677">
<ele>361.2</ele>
<time>2003-05-19T09:16:06Z</time>
<speed>1.1</speed>
</trkpt>
<trkpt lat="47.647411" lon="8.626643">
<ele>360.7</ele>
<time>2003-05-19T09:16:11Z</time>
<speed>0.8</speed>
</trkpt>
<trkpt lat="47.647376" lon="8.626598">
<ele>360.2</ele>
<time>2003-05-19T09:16:16Z</time>
<speed>0.8</speed>
</trkpt>
<trkpt lat="47.647308" lon="8.626559">
<ele>360.3</ele>
<time>2003-05-19T09:16:21Z</time>
<speed>0.6</speed>
</trkpt>
<trkpt lat="47.647254" lon="8.626525">
<ele>359.1</ele>
<time>2003-05-19T09:16:26Z</time>
<speed>1.1</speed>
</trkpt>
<trkpt lat="47.647199" lon="8.626489">
<ele>359.2</ele>
<time>2003-05-19T09:16:31Z</time>
<speed>0.8</speed>
</trkpt>
<trkpt lat="47.647163" lon="8.626456">
<ele>358.8</ele>
<time>2003-05-19T09:16:36Z</time>
<speed>0.6</speed>
</trkpt>
<trkpt lat="47.647117" lon="8.626462">
<ele>359.4</ele>
<time>2003-05-19T09:16:41Z</time>
<speed>0.8</speed>
</trkpt>
<trkpt lat="47.647074" lon="8.626440">
<ele>359.7</ele>
<time>2003-05-19T09:16:46Z</time>
<speed>0.8</speed>
</trkpt>
<trkpt lat="47.647018" lon="8.626417">
<ele>360.0</ele>
<time>2003-05-19T09:16:51Z</time>
<speed>0.8</speed>
</trkpt>
<trkpt lat="47.646974" lon="8.626396">
<ele>360.3</ele>
<time>2003-05-19T09:16:56Z</time>
<speed>0.3</speed>
</trkpt>
<trkpt lat="47.646904" lon="8.626397">
<ele>360.7</ele>
<time>2003-05-19T09:17:01Z</time>
<speed>0.8</speed>
</trkpt>
<trkpt lat="47.646849" lon="8.626363">
<ele>359.5</ele>
<time>2003-05-19T09:17:06Z</time>
<speed>0.8</speed>
</trkpt>
<trkpt lat="47.646794" lon="8.626327">
<ele>359.7</ele>
<time>2003-05-19T09:17:11Z</time>
<speed>0.8</speed>
</trkpt>
<trkpt lat="47.646745" lon="8.626292">
<ele>359.2</ele>
<time>2003-05-19T09:17:16Z</time>
<speed>0.8</speed>
</trkpt>
<trkpt lat="47.646736" lon="8.626251">
<ele>358.8</ele>
<time>2003-05-19T09:17:21Z</time>
<speed>0.6</speed>
</trkpt>
<trkpt lat="47.646726" lon="8.626209">
<ele>358.4</ele>
<time>2003-05-19T09:17:26Z</time>
<speed>0.3</speed>
</trkpt>
<trkpt lat="47.646683" lon="8.626188">
<ele>358.8</ele>
<time>2003-05-19T09:17:31Z</time>
<speed>0.8</speed>
</trkpt>
<trkpt lat="47.646638" lon="8.626180">
<ele>359.2</ele>
<time>2003-05-19T09:17:36Z</time>
<speed>0.3</speed>
</trkpt>
<trkpt lat="47.646606" lon="8.626189">
<ele>358.4</ele>
<time>2003-05-19T09:17:41Z</time>
<speed>0.6</speed>
</trkpt>
<trkpt lat="47.646538" lon="8.626166">
<ele>357.2</ele>
<time>2003-05-19T09:17:46Z</time>
<speed>0.6</speed>
</trkpt>
<trkpt lat="47.646496" lon="8.626134">
<ele>356.1</ele>
<time>2003-05-19T09:17:51Z</time>
<speed>0.6</speed>
</trkpt>
<trkpt lat="47.646440" lon="8.626113">
<ele>354.9</ele>
<time>2003-05-19T09:17:56Z</time>
<speed>0.8</speed>
</trkpt>
<trkpt lat="47.646378" lon="8.626090">
<ele>354.5</ele>
<time>2003-05-19T09:18:01Z</time>
<speed>1.1</speed>
</trkpt>
<trkpt lat="47.646328" lon="8.626082">
<ele>354.2</ele>
<time>2003-05-19T09:18:06Z</time>
<speed>0.6</speed>
</trkpt>
<trkpt lat="47.646282" lon="8.626087">
<ele>354.7</ele>
<time>2003-05-19T09:18:11Z</time>
<speed>0.6</speed>
</trkpt>
<trkpt lat="47.646226" lon="8.626064">
<ele>355.0</ele>
<time>2003-05-19T09:18:16Z</time>
<speed>0.3</speed>
</trkpt>
<trkpt lat="47.646176" lon="8.626041">
<ele>356.0</ele>
<time>2003-05-19T09:18:21Z</time>
<speed>0.8</speed>
</trkpt>
<trkpt lat="47.646122" lon="8.625991">
<ele>356.1</ele>
<time>2003-05-19T09:18:26Z</time>
<speed>1.1</speed>
</trkpt>
<trkpt lat="47.646060" lon="8.625953">
<ele>356.9</ele>
<time>2003-05-19T09:18:31Z</time>
<speed>0.8</speed>
</trkpt>
<trkpt lat="47.646025" lon="8.625907">
<ele>356.4</ele>
<time>2003-05-19T09:18:36Z</time>
<speed>0.8</speed>
</trkpt>
<trkpt lat="47.645996" lon="8.625862">
<ele>356.6</ele>
<time>2003-05-19T09:18:41Z</time>
<speed>0.8</speed>
</trkpt>
<trkpt lat="47.645959" lon="8.625841">
<ele>357.7</ele>
<time>2003-05-19T09:18:46Z</time>
<speed>0.3</speed>
</trkpt>
<trkpt lat="47.645936" lon="8.625811">
<ele>357.4</ele>
<time>2003-05-19T09:18:51Z</time>
<speed>0.3</speed>
</trkpt>
<trkpt lat="47.645891" lon="8.625803">
<ele>357.8</ele>
<time>2003-05-19T09:18:56Z</time>
<speed>0.6</speed>
</trkpt>
<trkpt lat="47.645828" lon="8.625793">
<ele>357.5</ele>
<time>2003-05-19T09:19:01Z</time>
<speed>0.6</speed>
</trkpt>
<trkpt lat="47.645783" lon="8.625798">
<ele>358.0</ele>
<time>2003-05-19T09:19:06Z</time>
<speed>0.8</speed>
</trkpt>
<trkpt lat="47.645751" lon="8.625792">
<ele>358.5</ele>
<time>2003-05-19T09:19:11Z</time>
<speed>0.3</speed>
</trkpt>
<trkpt lat="47.645707" lon="8.625786">
<ele>357.6</ele>
<time>2003-05-19T09:19:16Z</time>
<speed>0.6</speed>
</trkpt>
<trkpt lat="47.645637" lon="8.625774">
<ele>357.9</ele>
<time>2003-05-19T09:19:21Z</time>
<speed>1.4</speed>
</trkpt>
<trkpt lat="47.645574" lon="8.625762">
<ele>358.9</ele>
<time>2003-05-19T09:19:26Z</time>
<speed>0.8</speed>
</trkpt>
<trkpt lat="47.645511" lon="8.625739">
<ele>358.4</ele>
<time>2003-05-19T09:19:31Z</time>
<speed>0.8</speed>
</trkpt>
<trkpt lat="47.645442" lon="8.625727">
<ele>358.7</ele>
<time>2003-05-19T09:19:36Z</time>
<speed>1.1</speed>
</trkpt>
<trkpt lat="47.645392" lon="8.625706">
<ele>358.3</ele>
<time>2003-05-19T09:19:41Z</time>
<speed>0.8</speed>
</trkpt>
<trkpt lat="47.645344" lon="8.625671">
<ele>357.9</ele>
<time>2003-05-19T09:19:46Z</time>
<speed>0.6</speed>
</trkpt>
<trkpt lat="47.645269" lon="8.625646">
<ele>357.3</ele>
<time>2003-05-19T09:19:51Z</time>
<speed>1.1</speed>
</trkpt>
<trkpt lat="47.645227" lon="8.625599">
<ele>357.5</ele>
<time>2003-05-19T09:19:56Z</time>
<speed>0.6</speed>
</trkpt>
<trkpt lat="47.645174" lon="8.625551">
<ele>356.1</ele>
<time>2003-05-19T09:20:01Z</time>
<speed>0.8</speed>
</trkpt>
<trkpt lat="47.645094" lon="8.625515">
<ele>353.3</ele>
<time>2003-05-19T09:20:06Z</time>
<speed>1.1</speed>
</trkpt>
<trkpt lat="47.645040" lon="8.625465">
<ele>353.4</ele>
<time>2003-05-19T09:20:11Z</time>
<speed>0.6</speed>
</trkpt>
<trkpt lat="47.644994" lon="8.625405">
<ele>352.7</ele>
<time>2003-05-19T09:20:16Z</time>
<speed>1.1</speed>
</trkpt>
<trkpt lat="47.644933" lon="8.625369">
<ele>352.2</ele>
<time>2003-05-19T09:20:21Z</time>
<speed>0.8</speed>
</trkpt>
<trkpt lat="47.644890" lon="8.625334">
<ele>352.4</ele>
<time>2003-05-19T09:20:26Z</time>
<speed>1.1</speed>
</trkpt>
<trkpt lat="47.644860" lon="8.625302">
<ele>352.7</ele>
<time>2003-05-19T09:20:31Z</time>
<speed>0.3</speed>
</trkpt>
<trkpt lat="47.644822" lon="8.625296">
<ele>352.5</ele>
<time>2003-05-19T09:20:36Z</time>
<speed>0.6</speed>
</trkpt>
<trkpt lat="47.644783" lon="8.625301">
<ele>353.8</ele>
<time>2003-05-19T09:20:41Z</time>
<speed>0.6</speed>
</trkpt>
<trkpt lat="47.644740" lon="8.625280">
<ele>354.1</ele>
<time>2003-05-19T09:20:46Z</time>
<speed>0.6</speed>
</trkpt>
<trkpt lat="47.644683" lon="8.625257">
<ele>354.4</ele>
<time>2003-05-19T09:20:51Z</time>
<speed>1.1</speed>
</trkpt>
<trkpt lat="47.644621" lon="8.625232">
<ele>355.3</ele>
<time>2003-05-19T09:20:56Z</time>
<speed>0.8</speed>
</trkpt>
<trkpt lat="47.644578" lon="8.625197">
<ele>355.6</ele>
<time>2003-05-19T09:21:01Z</time>
<speed>1.1</speed>
</trkpt>
<trkpt lat="47.644516" lon="8.625174">
<ele>355.1</ele>
<time>2003-05-19T09:21:06Z</time>
<speed>1.1</speed>
</trkpt>
<trkpt lat="47.644454" lon="8.625151">
<ele>354.7</ele>
<time>2003-05-19T09:21:11Z</time>
<speed>0.8</speed>
</trkpt>
<trkpt lat="47.644399" lon="8.625115">
<ele>354.8</ele>
<time>2003-05-19T09:21:16Z</time>
<speed>1.1</speed>
</trkpt>
<trkpt lat="47.644343" lon="8.625092">
<ele>355.1</ele>
<time>2003-05-19T09:21:21Z</time>
<speed>1.1</speed>
</trkpt>
<trkpt lat="47.644267" lon="8.625078">
<ele>356.1</ele>
<time>2003-05-19T09:21:26Z</time>
<speed>1.7</speed>
</trkpt>
<trkpt lat="47.644204" lon="8.625055">
<ele>355.6</ele>
<time>2003-05-19T09:21:31Z</time>
<speed>1.1</speed>
</trkpt>
<trkpt lat="47.644143" lon="8.625016">
<ele>356.4</ele>
<time>2003-05-19T09:21:36Z</time>
<speed>1.1</speed>
</trkpt>
<trkpt lat="47.644086" lon="8.625006">
<ele>356.8</ele>
<time>2003-05-19T09:21:41Z</time>
<speed>1.1</speed>
</trkpt>
<trkpt lat="47.644039" lon="8.624946">
<ele>356.1</ele>
<time>2003-05-19T09:21:46Z</time>
<speed>1.1</speed>
</trkpt>
<trkpt lat="47.643983" lon="8.624907">
<ele>357.7</ele>
<time>2003-05-19T09:21:51Z</time>
<speed>1.1</speed>
</trkpt>
<trkpt lat="47.643950" lon="8.624849">
<ele>357.1</ele>
<time>2003-05-19T09:21:56Z</time>
<speed>0.8</speed>
</trkpt>
<trkpt lat="47.643905" lon="8.624841">
<ele>357.5</ele>
<time>2003-05-19T09:22:01Z</time>
<speed>1.1</speed>
</trkpt>
<trkpt lat="47.643849" lon="8.624818">
<ele>357.8</ele>
<time>2003-05-19T09:22:06Z</time>
<speed>1.1</speed>
</trkpt>
<trkpt lat="47.643839" lon="8.624776">
<ele>357.4</ele>
<time>2003-05-19T09:22:11Z</time>
<speed>0.6</speed>
</trkpt>
<trkpt lat="47.643790" lon="8.624755">
<ele>357.0</ele>
<time>2003-05-19T09:22:16Z</time>
<speed>0.6</speed>
</trkpt>
<trkpt lat="47.643734" lon="8.624732">
<ele>357.3</ele>
<time>2003-05-19T09:22:21Z</time>
<speed>1.1</speed>
</trkpt>
<trkpt lat="47.643716" lon="8.624717">
<ele>356.4</ele>
<time>2003-05-19T09:22:26Z</time>
<speed>0.0</speed>
</trkpt>
<trkpt lat="47.643699" lon="8.624687">
<ele>356.8</ele>
<time>2003-05-19T09:22:31Z</time>
<speed>0.3</speed>
</trkpt>
<trkpt lat="47.643674" lon="8.624683">
<ele>356.6</ele>
<time>2003-05-19T09:22:36Z</time>
<speed>0.3</speed>
</trkpt>
<trkpt lat="47.643629" lon="8.624675">
<ele>357.1</ele>
<time>2003-05-19T09:22:41Z</time>
<speed>0.6</speed>
</trkpt>
<trkpt lat="47.643618" lon="8.624659">
<ele>356.9</ele>
<time>2003-05-19T09:22:46Z</time>
<speed>0.0</speed>
</trkpt>
<trkpt lat="47.643580" lon="8.624653">
<ele>356.7</ele>
<time>2003-05-19T09:22:51Z</time>
<speed>0.8</speed>
</trkpt>
<trkpt lat="47.643513" lon="8.624602">
<ele>356.7</ele>
<time>2003-05-19T09:22:56Z</time>
<speed>0.8</speed>
</trkpt>
<trkpt lat="47.643445" lon="8.624564">
<ele>356.8</ele>
<time>2003-05-19T09:23:01Z</time>
<speed>0.8</speed>
</trkpt>
<trkpt lat="47.643410" lon="8.624518">
<ele>356.3</ele>
<time>2003-05-19T09:23:06Z</time>
<speed>0.8</speed>
</trkpt>
<trkpt lat="47.643356" lon="8.624484">
<ele>355.0</ele>
<time>2003-05-19T09:23:11Z</time>
<speed>0.8</speed>
</trkpt>
<trkpt lat="47.643286" lon="8.624472">
<ele>355.3</ele>
<time>2003-05-19T09:23:16Z</time>
<speed>0.8</speed>
</trkpt>
<trkpt lat="47.643287" lon="8.624459">
<ele>355.2</ele>
<time>2003-05-19T09:23:21Z</time>
<speed>0.0</speed>
</trkpt>
<trkpt lat="47.643270" lon="8.624428">
<ele>355.6</ele>
<time>2003-05-19T09:23:26Z</time>
<speed>0.3</speed>
</trkpt>
<trkpt lat="47.643225" lon="8.624420">
<ele>356.1</ele>
<time>2003-05-19T09:23:31Z</time>
<speed>0.8</speed>
</trkpt>
<trkpt lat="47.643164" lon="8.624384">
<ele>355.5</ele>
<time>2003-05-19T09:23:36Z</time>
<speed>0.8</speed>
</trkpt>
<trkpt lat="47.643103" lon="8.624348">
<ele>354.9</ele>
<time>2003-05-19T09:23:41Z</time>
<speed>1.1</speed>
</trkpt>
<trkpt lat="47.643049" lon="8.624298">
<ele>355.0</ele>
<time>2003-05-19T09:23:46Z</time>
<speed>1.1</speed>
</trkpt>
<trkpt lat="47.643007" lon="8.624251">
<ele>355.2</ele>
<time>2003-05-19T09:23:51Z</time>
<speed>0.8</speed>
</trkpt>
<trkpt lat="47.642951" lon="8.624228">
<ele>355.4</ele>
<time>2003-05-19T09:23:56Z</time>
<speed>1.1</speed>
</trkpt>
<trkpt lat="47.642908" lon="8.624207">
<ele>355.8</ele>
<time>2003-05-19T09:24:01Z</time>
<speed>0.8</speed>
</trkpt>
<trkpt lat="47.642851" lon="8.624197">
<ele>356.2</ele>
<time>2003-05-19T09:24:06Z</time>
<speed>0.6</speed>
</trkpt>
<trkpt lat="47.642796" lon="8.624160">
<ele>356.3</ele>
<time>2003-05-19T09:24:11Z</time>
<speed>0.8</speed>
</trkpt>
<trkpt lat="47.642753" lon="8.624126">
<ele>356.6</ele>
<time>2003-05-19T09:24:16Z</time>
<speed>1.1</speed>
</trkpt>
<trkpt lat="47.642693" lon="8.624077">
<ele>355.9</ele>
<time>2003-05-19T09:24:21Z</time>
<speed>1.1</speed>
</trkpt>
<trkpt lat="47.642644" lon="8.624040">
<ele>356.8</ele>
<time>2003-05-19T09:24:26Z</time>
<speed>0.8</speed>
</trkpt>
<trkpt lat="47.642614" lon="8.624008">
<ele>357.1</ele>
<time>2003-05-19T09:24:31Z</time>
<speed>0.6</speed>
</trkpt>
<trkpt lat="47.642598" lon="8.623965">
<ele>357.4</ele>
<time>2003-05-19T09:24:36Z</time>
<speed>0.8</speed>
</trkpt>
<trkpt lat="47.642573" lon="8.623945">
<ele>358.6</ele>
<time>2003-05-19T09:24:41Z</time>
<speed>0.6</speed>
</trkpt>
<trkpt lat="47.642514" lon="8.623883">
<ele>357.8</ele>
<time>2003-05-19T09:24:46Z</time>
<speed>1.1</speed>
</trkpt>
<trkpt lat="47.642497" lon="8.623853">
<ele>358.2</ele>
<time>2003-05-19T09:24:51Z</time>
<speed>0.3</speed>
</trkpt>
<trkpt lat="47.642442" lon="8.623816">
<ele>358.4</ele>
<time>2003-05-19T09:24:56Z</time>
<speed>1.1</speed>
</trkpt>
<trkpt lat="47.642375" lon="8.623765">
<ele>358.4</ele>
<time>2003-05-19T09:25:01Z</time>
<speed>1.4</speed>
</trkpt>
<trkpt lat="47.642308" lon="8.623713">
<ele>358.4</ele>
<time>2003-05-19T09:25:06Z</time>
<speed>1.1</speed>
</trkpt>
<trkpt lat="47.642247" lon="8.623675">
<ele>359.2</ele>
<time>2003-05-19T09:25:11Z</time>
<speed>0.8</speed>
</trkpt>
<trkpt lat="47.642191" lon="8.623639">
<ele>359.4</ele>
<time>2003-05-19T09:25:16Z</time>
<speed>0.8</speed>
</trkpt>
<trkpt lat="47.642148" lon="8.623603">
<ele>361.0</ele>
<time>2003-05-19T09:25:21Z</time>
<speed>0.8</speed>
</trkpt>
<trkpt lat="47.642087" lon="8.623566">
<ele>360.5</ele>
<time>2003-05-19T09:25:26Z</time>
<speed>1.1</speed>
</trkpt>
<trkpt lat="47.642044" lon="8.623545">
<ele>360.8</ele>
<time>2003-05-19T09:25:31Z</time>
<speed>0.6</speed>
</trkpt>
<trkpt lat="47.641989" lon="8.623511">
<ele>359.6</ele>
<time>2003-05-19T09:25:36Z</time>
<speed>0.8</speed>
</trkpt>
<trkpt lat="47.641933" lon="8.623488">
<ele>359.9</ele>
<time>2003-05-19T09:25:41Z</time>
<speed>0.8</speed>
</trkpt>
<trkpt lat="47.641878" lon="8.623451">
<ele>360.0</ele>
<time>2003-05-19T09:25:46Z</time>
<speed>0.8</speed>
</trkpt>
<trkpt lat="47.641837" lon="8.623404">
<ele>360.2</ele>
<time>2003-05-19T09:25:51Z</time>
<speed>0.6</speed>
</trkpt>
<trkpt lat="47.641801" lon="8.623356">
<ele>361.1</ele>
<time>2003-05-19T09:25:56Z</time>
<speed>0.6</speed>
</trkpt>
<trkpt lat="47.641742" lon="8.623294">
<ele>360.3</ele>
<time>2003-05-19T09:26:01Z</time>
<speed>0.8</speed>
</trkpt>
<trkpt lat="47.641681" lon="8.623258">
<ele>359.7</ele>
<time>2003-05-19T09:26:06Z</time>
<speed>0.8</speed>
</trkpt>
<trkpt lat="47.641622" lon="8.623195">
<ele>359.0</ele>
<time>2003-05-19T09:26:11Z</time>
<speed>0.8</speed>
</trkpt>
<trkpt lat="47.641581" lon="8.623134">
<ele>359.0</ele>
<time>2003-05-19T09:26:16Z</time>
<speed>0.8</speed>
</trkpt>
<trkpt lat="47.641539" lon="8.623085">
<ele>360.6</ele>
<time>2003-05-19T09:26:21Z</time>
<speed>1.1</speed>
</trkpt>
<trkpt lat="47.641511" lon="8.623026">
<ele>360.7</ele>
<time>2003-05-19T09:26:26Z</time>
<speed>0.8</speed>
</trkpt>
<trkpt lat="47.641471" lon="8.622966">
<ele>360.7</ele>
<time>2003-05-19T09:26:31Z</time>
<speed>0.8</speed>
</trkpt>
<trkpt lat="47.641427" lon="8.622866">
<ele>359.7</ele>
<time>2003-05-19T09:26:36Z</time>
<speed>0.8</speed>
</trkpt>
<trkpt lat="47.641344" lon="8.622786">
<ele>358.7</ele>
<time>2003-05-19T09:26:41Z</time>
<speed>1.1</speed>
</trkpt>
<trkpt lat="47.641279" lon="8.622723">
<ele>357.2</ele>
<time>2003-05-19T09:26:46Z</time>
<speed>0.8</speed>
</trkpt>
<trkpt lat="47.641233" lon="8.622647">
<ele>357.8</ele>
<time>2003-05-19T09:26:51Z</time>
<speed>0.8</speed>
</trkpt>
<trkpt lat="47.641191" lon="8.622600">
<ele>358.0</ele>
<time>2003-05-19T09:26:56Z</time>
<speed>1.1</speed>
</trkpt>
<trkpt lat="47.641144" lon="8.622553">
<ele>357.4</ele>
<time>2003-05-19T09:27:01Z</time>
<speed>0.8</speed>
</trkpt>
<trkpt lat="47.641119" lon="8.622455">
<ele>357.2</ele>
<time>2003-05-19T09:27:06Z</time>
<speed>1.1</speed>
</trkpt>
<trkpt lat="47.641113" lon="8.622360">
<ele>356.4</ele>
<time>2003-05-19T09:27:11Z</time>
<speed>0.8</speed>
</trkpt>
<trkpt lat="47.641092" lon="8.622289">
<ele>357.1</ele>
<time>2003-05-19T09:27:16Z</time>
<speed>0.8</speed>
</trkpt>
<trkpt lat="47.641052" lon="8.622230">
<ele>355.8</ele>
<time>2003-05-19T09:27:21Z</time>
<speed>0.8</speed>
</trkpt>
<trkpt lat="47.641005" lon="8.622167">
<ele>356.5</ele>
<time>2003-05-19T09:27:26Z</time>
<speed>0.8</speed>
</trkpt>
<trkpt lat="47.640978" lon="8.622094">
<ele>357.9</ele>
<time>2003-05-19T09:27:31Z</time>
<speed>0.8</speed>
</trkpt>
<trkpt lat="47.640950" lon="8.622035">
<ele>358.0</ele>
<time>2003-05-19T09:27:36Z</time>
<speed>0.8</speed>
</trkpt>
<trkpt lat="47.640891" lon="8.621972">
<ele>357.3</ele>
<time>2003-05-19T09:27:41Z</time>
<speed>1.1</speed>
</trkpt>
<trkpt lat="47.640846" lon="8.621886">
<ele>356.4</ele>
<time>2003-05-19T09:27:46Z</time>
<speed>0.6</speed>
</trkpt>
<trkpt lat="47.640826" lon="8.621814">
<ele>357.1</ele>
<time>2003-05-19T09:27:51Z</time>
<speed>0.6</speed>
</trkpt>
<trkpt lat="47.640779" lon="8.621751">
<ele>357.8</ele>
<time>2003-05-19T09:27:56Z</time>
<speed>0.6</speed>
</trkpt>
<trkpt lat="47.640746" lon="8.621664">
<ele>358.4</ele>
<time>2003-05-19T09:28:01Z</time>
<speed>0.8</speed>
</trkpt>
<trkpt lat="47.640695" lon="8.621590">
<ele>356.9</ele>
<time>2003-05-19T09:28:06Z</time>
<speed>0.6</speed>
</trkpt>
<trkpt lat="47.640627" lon="8.621552">
<ele>357.0</ele>
<time>2003-05-19T09:28:11Z</time>
<speed>0.6</speed>
</trkpt>
<trkpt lat="47.640582" lon="8.621463">
<ele>357.5</ele>
<time>2003-05-19T09:28:16Z</time>
<speed>0.6</speed>
</trkpt>
<trkpt lat="47.640569" lon="8.621382">
<ele>356.1</ele>
<time>2003-05-19T09:28:21Z</time>
<speed>0.6</speed>
</trkpt>
<trkpt lat="47.640522" lon="8.621320">
<ele>356.8</ele>
<time>2003-05-19T09:28:26Z</time>
<speed>0.8</speed>
</trkpt>
<trkpt lat="47.640477" lon="8.621233">
<ele>355.9</ele>
<time>2003-05-19T09:28:31Z</time>
<speed>0.8</speed>
</trkpt>
<trkpt lat="47.640451" lon="8.621161">
<ele>355.9</ele>
<time>2003-05-19T09:28:36Z</time>
<speed>0.8</speed>
</trkpt>
<trkpt lat="47.640405" lon="8.621085">
<ele>356.5</ele>
<time>2003-05-19T09:28:41Z</time>
<speed>1.1</speed>
</trkpt>
<trkpt lat="47.640365" lon="8.621012">
<ele>356.4</ele>
<time>2003-05-19T09:28:46Z</time>
<speed>0.8</speed>
</trkpt>
<trkpt lat="47.640358" lon="8.620929">
<ele>357.2</ele>
<time>2003-05-19T09:28:51Z</time>
<speed>0.6</speed>
</trkpt>
<trkpt lat="47.640325" lon="8.620857">
<ele>356.5</ele>
<time>2003-05-19T09:28:56Z</time>
<speed>0.8</speed>
</trkpt>
<trkpt lat="47.640280" lon="8.620770">
<ele>355.6</ele>
<time>2003-05-19T09:29:01Z</time>
<speed>0.8</speed>
</trkpt>
<trkpt lat="47.640229" lon="8.620681">
<ele>355.3</ele>
<time>2003-05-19T09:29:06Z</time>
<speed>0.8</speed>
</trkpt>
<trkpt lat="47.640199" lon="8.620568">
<ele>355.7</ele>
<time>2003-05-19T09:29:11Z</time>
<speed>0.8</speed>
</trkpt>
<trkpt lat="47.640146" lon="8.620505">
<ele>355.7</ele>
<time>2003-05-19T09:29:16Z</time>
<speed>0.8</speed>
</trkpt>
<trkpt lat="47.640113" lon="8.620418">
<ele>356.3</ele>
<time>2003-05-19T09:29:21Z</time>
<speed>0.8</speed>
</trkpt>
<trkpt lat="47.640096" lon="8.620309">
<ele>355.3</ele>
<time>2003-05-19T09:29:26Z</time>
<speed>0.8</speed>
</trkpt>
<trkpt lat="47.640084" lon="8.620213">
<ele>355.2</ele>
<time>2003-05-19T09:29:31Z</time>
<speed>1.1</speed>
</trkpt>
<trkpt lat="47.640032" lon="8.620137">
<ele>355.1</ele>
<time>2003-05-19T09:29:36Z</time>
<speed>0.8</speed>
</trkpt>
<trkpt lat="47.640007" lon="8.620039">
<ele>354.9</ele>
<time>2003-05-19T09:29:41Z</time>
<speed>1.1</speed>
</trkpt>
<trkpt lat="47.639948" lon="8.619976">
<ele>354.1</ele>
<time>2003-05-19T09:29:46Z</time>
<speed>0.8</speed>
</trkpt>
<trkpt lat="47.639925" lon="8.619933">
<ele>353.7</ele>
<time>2003-05-19T09:29:51Z</time>
<speed>0.6</speed>
</trkpt>
<trkpt lat="47.639866" lon="8.619868">
<ele>354.3</ele>
<time>2003-05-19T09:29:56Z</time>
<speed>0.8</speed>
</trkpt>
<trkpt lat="47.639818" lon="8.619819">
<ele>355.1</ele>
<time>2003-05-19T09:30:01Z</time>
<speed>0.8</speed>
</trkpt>
<trkpt lat="47.639792" lon="8.619736">
<ele>353.6</ele>
<time>2003-05-19T09:30:06Z</time>
<speed>0.8</speed>
</trkpt>
<trkpt lat="47.639740" lon="8.619660">
<ele>353.5</ele>
<time>2003-05-19T09:30:11Z</time>
<speed>0.8</speed>
</trkpt>
<trkpt lat="47.639715" lon="8.619562">
<ele>353.3</ele>
<time>2003-05-19T09:30:16Z</time>
<speed>1.1</speed>
</trkpt>
<trkpt lat="47.639668" lon="8.619500">
<ele>354.0</ele>
<time>2003-05-19T09:30:21Z</time>
<speed>0.8</speed>
</trkpt>
<trkpt lat="47.639637" lon="8.619402">
<ele>353.1</ele>
<time>2003-05-19T09:30:26Z</time>
<speed>0.3</speed>
</trkpt>
<trkpt lat="47.639611" lon="8.619330">
<ele>353.1</ele>
<time>2003-05-19T09:30:31Z</time>
<speed>0.8</speed>
</trkpt>
<trkpt lat="47.639595" lon="8.619273">
<ele>353.3</ele>
<time>2003-05-19T09:30:36Z</time>
<speed>0.6</speed>
</trkpt>
<trkpt lat="47.639587" lon="8.619203">
<ele>354.1</ele>
<time>2003-05-19T09:30:41Z</time>
<speed>0.3</speed>
</trkpt>
<trkpt lat="47.639534" lon="8.619139">
<ele>355.5</ele>
<time>2003-05-19T09:30:46Z</time>
<speed>0.6</speed>
</trkpt>
<trkpt lat="47.639481" lon="8.619078">
<ele>354.1</ele>
<time>2003-05-19T09:30:51Z</time>
<speed>1.1</speed>
</trkpt>
<trkpt lat="47.639435" lon="8.619002">
<ele>354.7</ele>
<time>2003-05-19T09:30:56Z</time>
<speed>0.8</speed>
</trkpt>
<trkpt lat="47.639408" lon="8.618931">
<ele>354.7</ele>
<time>2003-05-19T09:31:01Z</time>
<speed>0.6</speed>
</trkpt>
<trkpt lat="47.639406" lon="8.618863">
<ele>354.8</ele>
<time>2003-05-19T09:31:06Z</time>
<speed>0.6</speed>
</trkpt>
<trkpt lat="47.639375" lon="8.618763">
<ele>355.3</ele>
<time>2003-05-19T09:31:11Z</time>
<speed>0.8</speed>
</trkpt>
<trkpt lat="47.639342" lon="8.618691">
<ele>354.6</ele>
<time>2003-05-19T09:31:16Z</time>
<speed>0.6</speed>
</trkpt>
<trkpt lat="47.639313" lon="8.618646">
<ele>354.8</ele>
<time>2003-05-19T09:31:21Z</time>
<speed>0.8</speed>
</trkpt>
<trkpt lat="47.639268" lon="8.618572">
<ele>354.0</ele>
<time>2003-05-19T09:31:26Z</time>
<speed>0.8</speed>
</trkpt>
<trkpt lat="47.639228" lon="8.618498">
<ele>354.0</ele>
<time>2003-05-19T09:31:31Z</time>
<speed>1.1</speed>
</trkpt>
<trkpt lat="47.639195" lon="8.618426">
<ele>353.2</ele>
<time>2003-05-19T09:31:36Z</time>
<speed>0.8</speed>
</trkpt>
<trkpt lat="47.639169" lon="8.618355">
<ele>353.3</ele>
<time>2003-05-19T09:31:41Z</time>
<speed>0.8</speed>
</trkpt>
<trkpt lat="47.639149" lon="8.618270">
<ele>353.9</ele>
<time>2003-05-19T09:31:46Z</time>
<speed>0.6</speed>
</trkpt>
<trkpt lat="47.639124" lon="8.618172">
<ele>353.7</ele>
<time>2003-05-19T09:31:51Z</time>
<speed>0.8</speed>
</trkpt>
<trkpt lat="47.639104" lon="8.618102">
<ele>353.1</ele>
<time>2003-05-19T09:31:56Z</time>
<speed>0.3</speed>
</trkpt>
<trkpt lat="47.639088" lon="8.618043">
<ele>354.7</ele>
<time>2003-05-19T09:32:01Z</time>
<speed>0.3</speed>
</trkpt>
<trkpt lat="47.639075" lon="8.617960">
<ele>354.7</ele>
<time>2003-05-19T09:32:06Z</time>
<speed>0.3</speed>
</trkpt>
<trkpt lat="47.639055" lon="8.617875">
<ele>355.3</ele>
<time>2003-05-19T09:32:11Z</time>
<speed>0.6</speed>
</trkpt>
<trkpt lat="47.639009" lon="8.617800">
<ele>355.9</ele>
<time>2003-05-19T09:32:16Z</time>
<speed>0.8</speed>
</trkpt>
<trkpt lat="47.638996" lon="8.617701">
<ele>357.2</ele>
<time>2003-05-19T09:32:21Z</time>
<speed>0.6</speed>
</trkpt>
<trkpt lat="47.638962" lon="8.617643">
<ele>356.6</ele>
<time>2003-05-19T09:32:26Z</time>
<speed>0.6</speed>
</trkpt>
<trkpt lat="47.638923" lon="8.617569">
<ele>356.5</ele>
<time>2003-05-19T09:32:31Z</time>
<speed>0.6</speed>
</trkpt>
<trkpt lat="47.638901" lon="8.617512">
<ele>356.0</ele>
<time>2003-05-19T09:32:36Z</time>
<speed>0.3</speed>
</trkpt>
<trkpt lat="47.638887" lon="8.617443">
<ele>356.1</ele>
<time>2003-05-19T09:32:41Z</time>
<speed>0.6</speed>
</trkpt>
<trkpt lat="47.638872" lon="8.617386">
<ele>356.3</ele>
<time>2003-05-19T09:32:46Z</time>
<speed>0.0</speed>
</trkpt>
<trkpt lat="47.638867" lon="8.617279">
<ele>355.4</ele>
<time>2003-05-19T09:32:51Z</time>
<speed>1.1</speed>
</trkpt>
<trkpt lat="47.638840" lon="8.617207">
<ele>355.4</ele>
<time>2003-05-19T09:32:56Z</time>
<speed>0.8</speed>
</trkpt>
<trkpt lat="47.638807" lon="8.617133">
<ele>356.1</ele>
<time>2003-05-19T09:33:01Z</time>
<speed>0.8</speed>
</trkpt>
<trkpt lat="47.638796" lon="8.617009">
<ele>357.2</ele>
<time>2003-05-19T09:33:06Z</time>
<speed>1.1</speed>
</trkpt>
<trkpt lat="47.638775" lon="8.616937">
<ele>357.9</ele>
<time>2003-05-19T09:33:11Z</time>
<speed>0.3</speed>
</trkpt>
<trkpt lat="47.638743" lon="8.616865">
<ele>357.2</ele>
<time>2003-05-19T09:33:16Z</time>
<speed>0.6</speed>
</trkpt>
<trkpt lat="47.638709" lon="8.616807">
<ele>356.6</ele>
<time>2003-05-19T09:33:21Z</time>
<speed>0.6</speed>
</trkpt>
<trkpt lat="47.638688" lon="8.616737">
<ele>355.9</ele>
<time>2003-05-19T09:33:26Z</time>
<speed>0.6</speed>
</trkpt>
<trkpt lat="47.638670" lon="8.616639">
<ele>356.5</ele>
<time>2003-05-19T09:33:31Z</time>
<speed>0.6</speed>
</trkpt>
<trkpt lat="47.638660" lon="8.616503">
<ele>356.1</ele>
<time>2003-05-19T09:33:36Z</time>
<speed>0.8</speed>
</trkpt>
<trkpt lat="47.638640" lon="8.616418">
<ele>356.7</ele>
<time>2003-05-19T09:33:41Z</time>
<speed>0.8</speed>
</trkpt>
<trkpt lat="47.638639" lon="8.616351">
<ele>356.9</ele>
<time>2003-05-19T09:33:46Z</time>
<speed>0.6</speed>
</trkpt>
<trkpt lat="47.638623" lon="8.616292">
<ele>358.5</ele>
<time>2003-05-19T09:33:51Z</time>
<speed>0.6</speed>
</trkpt>
<trkpt lat="47.638634" lon="8.616226">
<ele>358.7</ele>
<time>2003-05-19T09:33:56Z</time>
<speed>0.3</speed>
</trkpt>
<trkpt lat="47.638606" lon="8.616168">
<ele>358.8</ele>
<time>2003-05-19T09:34:01Z</time>
<speed>0.6</speed>
</trkpt>
<trkpt lat="47.638541" lon="8.616105">
<ele>357.3</ele>
<time>2003-05-19T09:34:06Z</time>
<speed>0.8</speed>
</trkpt>
<trkpt lat="47.638481" lon="8.616056">
<ele>356.7</ele>
<time>2003-05-19T09:34:11Z</time>
<speed>0.6</speed>
</trkpt>
<trkpt lat="47.638480" lon="8.615975">
<ele>356.7</ele>
<time>2003-05-19T09:34:16Z</time>
<speed>0.3</speed>
</trkpt>
<trkpt lat="47.638435" lon="8.615901">
<ele>355.9</ele>
<time>2003-05-19T09:34:21Z</time>
<speed>0.6</speed>
</trkpt>
<trkpt lat="47.638416" lon="8.615818">
<ele>355.2</ele>
<time>2003-05-19T09:34:26Z</time>
<speed>0.6</speed>
</trkpt>
<trkpt lat="47.638397" lon="8.615722">
<ele>354.3</ele>
<time>2003-05-19T09:34:31Z</time>
<speed>0.6</speed>
</trkpt>
<trkpt lat="47.638369" lon="8.615663">
<ele>354.4</ele>
<time>2003-05-19T09:34:36Z</time>
<speed>0.6</speed>
</trkpt>
<trkpt lat="47.638379" lon="8.615530">
<ele>354.8</ele>
<time>2003-05-19T09:34:41Z</time>
<speed>1.1</speed>
</trkpt>
<trkpt lat="47.638359" lon="8.615445">
<ele>355.5</ele>
<time>2003-05-19T09:34:46Z</time>
<speed>0.8</speed>
</trkpt>
<trkpt lat="47.638347" lon="8.615349">
<ele>355.4</ele>
<time>2003-05-19T09:34:51Z</time>
<speed>0.8</speed>
</trkpt>
<trkpt lat="47.638320" lon="8.615277">
<ele>355.4</ele>
<time>2003-05-19T09:34:56Z</time>
<speed>0.6</speed>
</trkpt>
<trkpt lat="47.638307" lon="8.615194">
<ele>355.4</ele>
<time>2003-05-19T09:35:01Z</time>
<speed>0.6</speed>
</trkpt>
<trkpt lat="47.638315" lon="8.615089">
<ele>354.6</ele>
<time>2003-05-19T09:35:06Z</time>
<speed>0.8</speed>
</trkpt>
<trkpt lat="47.638310" lon="8.614982">
<ele>353.7</ele>
<time>2003-05-19T09:35:11Z</time>
<speed>0.6</speed>
</trkpt>
<trkpt lat="47.638291" lon="8.614884">
<ele>354.2</ele>
<time>2003-05-19T09:35:16Z</time>
<speed>0.8</speed>
</trkpt>
<trkpt lat="47.638278" lon="8.614801">
<ele>354.2</ele>
<time>2003-05-19T09:35:21Z</time>
<speed>0.8</speed>
</trkpt>
<trkpt lat="47.638259" lon="8.614703">
<ele>354.8</ele>
<time>2003-05-19T09:35:26Z</time>
<speed>1.1</speed>
</trkpt>
<trkpt lat="47.638246" lon="8.614620">
<ele>354.8</ele>
<time>2003-05-19T09:35:31Z</time>
<speed>0.6</speed>
</trkpt>
<trkpt lat="47.638218" lon="8.614561">
<ele>354.9</ele>
<time>2003-05-19T09:35:36Z</time>
<speed>0.6</speed>
</trkpt>
<trkpt lat="47.638233" lon="8.614443">
<ele>354.7</ele>
<time>2003-05-19T09:35:41Z</time>
<speed>0.6</speed>
</trkpt>
<trkpt lat="47.638238" lon="8.614375">
<ele>355.6</ele>
<time>2003-05-19T09:35:46Z</time>
<speed>0.6</speed>
</trkpt>
<trkpt lat="47.638224" lon="8.614292">
<ele>355.6</ele>
<time>2003-05-19T09:35:51Z</time>
<speed>0.8</speed>
</trkpt>
<trkpt lat="47.638229" lon="8.614224">
<ele>356.5</ele>
<time>2003-05-19T09:35:56Z</time>
<speed>0.8</speed>
</trkpt>
<trkpt lat="47.638210" lon="8.614141">
<ele>355.8</ele>
<time>2003-05-19T09:36:01Z</time>
<speed>0.8</speed>
</trkpt>
<trkpt lat="47.638202" lon="8.614058">
<ele>356.5</ele>
<time>2003-05-19T09:36:06Z</time>
<speed>1.1</speed>
</trkpt>
<trkpt lat="47.638177" lon="8.613973">
<ele>356.4</ele>
<time>2003-05-19T09:36:11Z</time>
<speed>0.8</speed>
</trkpt>
<trkpt lat="47.638151" lon="8.613888">
<ele>356.3</ele>
<time>2003-05-19T09:36:16Z</time>
<speed>0.8</speed>
</trkpt>
<trkpt lat="47.638171" lon="8.613783">
<ele>357.0</ele>
<time>2003-05-19T09:36:21Z</time>
<speed>0.8</speed>
</trkpt>
<trkpt lat="47.638184" lon="8.613691">
<ele>357.0</ele>
<time>2003-05-19T09:36:26Z</time>
<speed>1.1</speed>
</trkpt>
<trkpt lat="47.638170" lon="8.613621">
<ele>357.1</ele>
<time>2003-05-19T09:36:31Z</time>
<speed>0.8</speed>
</trkpt>
<trkpt lat="47.638148" lon="8.613565">
<ele>356.6</ele>
<time>2003-05-19T09:36:36Z</time>
<speed>0.6</speed>
</trkpt>
<trkpt lat="47.638148" lon="8.613484">
<ele>356.6</ele>
<time>2003-05-19T09:36:41Z</time>
<speed>0.6</speed>
</trkpt>
<trkpt lat="47.638153" lon="8.613403">
<ele>357.4</ele>
<time>2003-05-19T09:36:46Z</time>
<speed>1.1</speed>
</trkpt>
<trkpt lat="47.638160" lon="8.613311">
<ele>356.7</ele>
<time>2003-05-19T09:36:51Z</time>
<speed>0.6</speed>
</trkpt>
<trkpt lat="47.638165" lon="8.613243">
<ele>357.6</ele>
<time>2003-05-19T09:36:56Z</time>
<speed>0.8</speed>
</trkpt>
<trkpt lat="47.638165" lon="8.613149">
<ele>357.6</ele>
<time>2003-05-19T09:37:01Z</time>
<speed>0.8</speed>
</trkpt>
<trkpt lat="47.638144" lon="8.613092">
<ele>357.0</ele>
<time>2003-05-19T09:37:06Z</time>
<speed>0.8</speed>
</trkpt>
<trkpt lat="47.638129" lon="8.613022">
<ele>357.1</ele>
<time>2003-05-19T09:37:11Z</time>
<speed>0.6</speed>
</trkpt>
<trkpt lat="47.638109" lon="8.612953">
<ele>356.5</ele>
<time>2003-05-19T09:37:16Z</time>
<speed>0.6</speed>
</trkpt>
<trkpt lat="47.638095" lon="8.612883">
<ele>356.6</ele>
<time>2003-05-19T09:37:21Z</time>
<speed>0.6</speed>
</trkpt>
<trkpt lat="47.638083" lon="8.612787">
<ele>356.4</ele>
<time>2003-05-19T09:37:26Z</time>
<speed>0.6</speed>
</trkpt>
<trkpt lat="47.638084" lon="8.612680">
<ele>356.3</ele>
<time>2003-05-19T09:37:31Z</time>
<speed>0.8</speed>
</trkpt>
<trkpt lat="47.638084" lon="8.612585">
<ele>356.3</ele>
<time>2003-05-19T09:37:36Z</time>
<speed>0.8</speed>
</trkpt>
<trkpt lat="47.638073" lon="8.612476">
<ele>356.0</ele>
<time>2003-05-19T09:37:41Z</time>
<speed>1.1</speed>
</trkpt>
<trkpt lat="47.638066" lon="8.612393">
<ele>356.8</ele>
<time>2003-05-19T09:37:46Z</time>
<speed>0.8</speed>
</trkpt>
<trkpt lat="47.638060" lon="8.612299">
<ele>356.0</ele>
<time>2003-05-19T09:37:51Z</time>
<speed>0.8</speed>
</trkpt>
<trkpt lat="47.638041" lon="8.612214">
<ele>356.6</ele>
<time>2003-05-19T09:37:56Z</time>
<speed>0.8</speed>
</trkpt>
<trkpt lat="47.638042" lon="8.612107">
<ele>356.5</ele>
<time>2003-05-19T09:38:01Z</time>
<speed>0.6</speed>
</trkpt>
<trkpt lat="47.638024" lon="8.611996">
<ele>357.0</ele>
<time>2003-05-19T09:38:06Z</time>
<speed>0.6</speed>
</trkpt>
<trkpt lat="47.638010" lon="8.611926">
<ele>357.0</ele>
<time>2003-05-19T09:38:11Z</time>
<speed>0.6</speed>
</trkpt>
<trkpt lat="47.637990" lon="8.611841">
<ele>357.7</ele>
<time>2003-05-19T09:38:16Z</time>
<speed>0.8</speed>
</trkpt>
<trkpt lat="47.637983" lon="8.611758">
<ele>358.4</ele>
<time>2003-05-19T09:38:21Z</time>
<speed>0.8</speed>
</trkpt>
<trkpt lat="47.637984" lon="8.611651">
<ele>358.3</ele>
<time>2003-05-19T09:38:26Z</time>
<speed>0.8</speed>
</trkpt>
<trkpt lat="47.637965" lon="8.611568">
<ele>357.5</ele>
<time>2003-05-19T09:38:31Z</time>
<speed>0.8</speed>
</trkpt>
<trkpt lat="47.637938" lon="8.611496">
<ele>357.6</ele>
<time>2003-05-19T09:38:36Z</time>
<speed>1.1</speed>
</trkpt>
<trkpt lat="47.637900" lon="8.611409">
<ele>357.4</ele>
<time>2003-05-19T09:38:41Z</time>
<speed>0.8</speed>
</trkpt>
<trkpt lat="47.637894" lon="8.611315">
<ele>356.6</ele>
<time>2003-05-19T09:38:46Z</time>
<speed>0.8</speed>
</trkpt>
<trkpt lat="47.637902" lon="8.611208">
<ele>357.2</ele>
<time>2003-05-19T09:38:51Z</time>
<speed>1.1</speed>
</trkpt>
<trkpt lat="47.637889" lon="8.611110">
<ele>358.5</ele>
<time>2003-05-19T09:38:56Z</time>
<speed>0.8</speed>
</trkpt>
<trkpt lat="47.637901" lon="8.611031">
<ele>358.6</ele>
<time>2003-05-19T09:39:01Z</time>
<speed>0.8</speed>
</trkpt>
<trkpt lat="47.637895" lon="8.610935">
<ele>359.3</ele>
<time>2003-05-19T09:39:06Z</time>
<speed>1.1</speed>
</trkpt>
<trkpt lat="47.637888" lon="8.610839">
<ele>359.9</ele>
<time>2003-05-19T09:39:11Z</time>
<speed>0.8</speed>
</trkpt>
<trkpt lat="47.637876" lon="8.610743">
<ele>359.8</ele>
<time>2003-05-19T09:39:16Z</time>
<speed>0.8</speed>
</trkpt>
<trkpt lat="47.637863" lon="8.610660">
<ele>359.8</ele>
<time>2003-05-19T09:39:21Z</time>
<speed>0.8</speed>
</trkpt>
<trkpt lat="47.637843" lon="8.610575">
<ele>360.4</ele>
<time>2003-05-19T09:39:26Z</time>
<speed>0.6</speed>
</trkpt>
<trkpt lat="47.637845" lon="8.610468">
<ele>360.3</ele>
<time>2003-05-19T09:39:31Z</time>
<speed>1.1</speed>
</trkpt>
<trkpt lat="47.637825" lon="8.610385">
<ele>359.5</ele>
<time>2003-05-19T09:39:36Z</time>
<speed>0.8</speed>
</trkpt>
<trkpt lat="47.637826" lon="8.610276">
<ele>360.8</ele>
<time>2003-05-19T09:39:41Z</time>
<speed>0.8</speed>
</trkpt>
<trkpt lat="47.637812" lon="8.610206">
<ele>360.9</ele>
<time>2003-05-19T09:39:46Z</time>
<speed>0.6</speed>
</trkpt>
<trkpt lat="47.637799" lon="8.610123">
<ele>360.9</ele>
<time>2003-05-19T09:39:51Z</time>
<speed>0.6</speed>
</trkpt>
<trkpt lat="47.637820" lon="8.610004">
<ele>361.4</ele>
<time>2003-05-19T09:39:56Z</time>
<speed>1.1</speed>
</trkpt>
<trkpt lat="47.637815" lon="8.609895">
<ele>362.0</ele>
<time>2003-05-19T09:40:01Z</time>
<speed>0.8</speed>
</trkpt>
<trkpt lat="47.637807" lon="8.609812">
<ele>362.7</ele>
<time>2003-05-19T09:40:06Z</time>
<speed>0.8</speed>
</trkpt>
<trkpt lat="47.637808" lon="8.609718">
<ele>362.7</ele>
<time>2003-05-19T09:40:11Z</time>
<speed>0.6</speed>
</trkpt>
<trkpt lat="47.637808" lon="8.609622">
<ele>364.0</ele>
<time>2003-05-19T09:40:16Z</time>
<speed>1.4</speed>
</trkpt>
<trkpt lat="47.637802" lon="8.609528">
<ele>363.2</ele>
<time>2003-05-19T09:40:21Z</time>
<speed>1.1</speed>
</trkpt>
<trkpt lat="47.637802" lon="8.609434">
<ele>363.2</ele>
<time>2003-05-19T09:40:26Z</time>
<speed>1.1</speed>
</trkpt>
<trkpt lat="47.637790" lon="8.609338">
<ele>363.1</ele>
<time>2003-05-19T09:40:31Z</time>
<speed>1.1</speed>
</trkpt>
<trkpt lat="47.637777" lon="8.609240">
<ele>364.4</ele>
<time>2003-05-19T09:40:36Z</time>
<speed>1.1</speed>
</trkpt>
<trkpt lat="47.637785" lon="8.609135">
<ele>363.6</ele>
<time>2003-05-19T09:40:41Z</time>
<speed>1.1</speed>
</trkpt>
<trkpt lat="47.637765" lon="8.609063">
<ele>364.3</ele>
<time>2003-05-19T09:40:46Z</time>
<speed>1.1</speed>
</trkpt>
<trkpt lat="47.637752" lon="8.608967">
<ele>364.2</ele>
<time>2003-05-19T09:40:51Z</time>
<speed>0.8</speed>
</trkpt>
<trkpt lat="47.637739" lon="8.608884">
<ele>364.2</ele>
<time>2003-05-19T09:40:56Z</time>
<speed>0.6</speed>
</trkpt>
<trkpt lat="47.637734" lon="8.608777">
<ele>363.3</ele>
<time>2003-05-19T09:41:01Z</time>
<speed>0.8</speed>
</trkpt>
<trkpt lat="47.637728" lon="8.608680">
<ele>364.0</ele>
<time>2003-05-19T09:41:06Z</time>
<speed>1.4</speed>
</trkpt>
<trkpt lat="47.637744" lon="8.608549">
<ele>363.7</ele>
<time>2003-05-19T09:41:11Z</time>
<speed>1.1</speed>
</trkpt>
<trkpt lat="47.637726" lon="8.608453">
<ele>362.8</ele>
<time>2003-05-19T09:41:16Z</time>
<speed>1.1</speed>
</trkpt>
<trkpt lat="47.637714" lon="8.608357">
<ele>362.7</ele>
<time>2003-05-19T09:41:21Z</time>
<speed>0.8</speed>
</trkpt>
<trkpt lat="47.637715" lon="8.608249">
<ele>362.6</ele>
<time>2003-05-19T09:41:26Z</time>
<speed>1.1</speed>
</trkpt>
<trkpt lat="47.637691" lon="8.608153">
<ele>361.0</ele>
<time>2003-05-19T09:41:31Z</time>
<speed>0.8</speed>
</trkpt>
<trkpt lat="47.637698" lon="8.608061">
<ele>360.3</ele>
<time>2003-05-19T09:41:36Z</time>
<speed>1.4</speed>
</trkpt>
<trkpt lat="47.637718" lon="8.607956">
<ele>361.0</ele>
<time>2003-05-19T09:41:41Z</time>
<speed>1.4</speed>
</trkpt>
<trkpt lat="47.637718" lon="8.607862">
<ele>360.9</ele>
<time>2003-05-19T09:41:46Z</time>
<speed>1.1</speed>
</trkpt>
<trkpt lat="47.637731" lon="8.607770">
<ele>360.9</ele>
<time>2003-05-19T09:41:51Z</time>
<speed>1.1</speed>
</trkpt>
<trkpt lat="47.637738" lon="8.607676">
<ele>361.6</ele>
<time>2003-05-19T09:41:56Z</time>
<speed>1.1</speed>
</trkpt>
<trkpt lat="47.637738" lon="8.607582">
<ele>361.6</ele>
<time>2003-05-19T09:42:01Z</time>
<speed>1.4</speed>
</trkpt>
<trkpt lat="47.637751" lon="8.607490">
<ele>361.6</ele>
<time>2003-05-19T09:42:06Z</time>
<speed>0.8</speed>
</trkpt>
<trkpt lat="47.637746" lon="8.607382">
<ele>360.8</ele>
<time>2003-05-19T09:42:11Z</time>
<speed>1.1</speed>
</trkpt>
<trkpt lat="47.637735" lon="8.607290">
<ele>357.8</ele>
<time>2003-05-19T09:42:16Z</time>
<speed>1.4</speed>
</trkpt>
<trkpt lat="47.637755" lon="8.607185">
<ele>358.5</ele>
<time>2003-05-19T09:42:21Z</time>
<speed>1.1</speed>
</trkpt>
<trkpt lat="47.637774" lon="8.607093">
<ele>359.3</ele>
<time>2003-05-19T09:42:26Z</time>
<speed>1.4</speed>
</trkpt>
<trkpt lat="47.637781" lon="8.606999">
<ele>360.0</ele>
<time>2003-05-19T09:42:31Z</time>
<speed>0.8</speed>
</trkpt>
<trkpt lat="47.637792" lon="8.606933">
<ele>360.2</ele>
<time>2003-05-19T09:42:36Z</time>
<speed>0.8</speed>
</trkpt>
<trkpt lat="47.637806" lon="8.606828">
<ele>360.1</ele>
<time>2003-05-19T09:42:41Z</time>
<speed>1.1</speed>
</trkpt>
<trkpt lat="47.637812" lon="8.606734">
<ele>360.8</ele>
<time>2003-05-19T09:42:46Z</time>
<speed>1.1</speed>
</trkpt>
<trkpt lat="47.637832" lon="8.606628">
<ele>361.5</ele>
<time>2003-05-19T09:42:51Z</time>
<speed>1.4</speed>
</trkpt>
<trkpt lat="47.637865" lon="8.606540">
<ele>361.0</ele>
<time>2003-05-19T09:42:56Z</time>
<speed>1.1</speed>
</trkpt>
<trkpt lat="47.637884" lon="8.606448">
<ele>361.7</ele>
<time>2003-05-19T09:43:01Z</time>
<speed>1.4</speed>
</trkpt>
<trkpt lat="47.637895" lon="8.606384">
<ele>360.6</ele>
<time>2003-05-19T09:43:06Z</time>
<speed>0.8</speed>
</trkpt>
<trkpt lat="47.637920" lon="8.606307">
<ele>360.8</ele>
<time>2003-05-19T09:43:11Z</time>
<speed>0.8</speed>
</trkpt>
<trkpt lat="47.637925" lon="8.606227">
<ele>361.6</ele>
<time>2003-05-19T09:43:16Z</time>
<speed>0.8</speed>
</trkpt>
<trkpt lat="47.637937" lon="8.606148">
<ele>361.7</ele>
<time>2003-05-19T09:43:21Z</time>
<speed>1.1</speed>
</trkpt>
<trkpt lat="47.637944" lon="8.606071">
<ele>359.7</ele>
<time>2003-05-19T09:43:26Z</time>
<speed>0.6</speed>
</trkpt>
<trkpt lat="47.637950" lon="8.605992">
<ele>359.1</ele>
<time>2003-05-19T09:43:31Z</time>
<speed>0.6</speed>
</trkpt>
<trkpt lat="47.637967" lon="8.605928">
<ele>358.7</ele>
<time>2003-05-19T09:43:36Z</time>
<speed>0.3</speed>
</trkpt>
<trkpt lat="47.637969" lon="8.605902">
<ele>358.5</ele>
<time>2003-05-19T09:43:41Z</time>
<speed>0.3</speed>
</trkpt>
<trkpt lat="47.637994" lon="8.605825">
<ele>358.7</ele>
<time>2003-05-19T09:43:46Z</time>
<speed>0.6</speed>
</trkpt>
<trkpt lat="47.638030" lon="8.605763">
<ele>359.0</ele>
<time>2003-05-19T09:43:51Z</time>
<speed>0.6</speed>
</trkpt>
<trkpt lat="47.638055" lon="8.605686">
<ele>359.2</ele>
<time>2003-05-19T09:43:56Z</time>
<speed>0.8</speed>
</trkpt>
<trkpt lat="47.638098" lon="8.605626">
<ele>359.0</ele>
<time>2003-05-19T09:44:01Z</time>
<speed>0.8</speed>
</trkpt>
<trkpt lat="47.638142" lon="8.605553">
<ele>358.6</ele>
<time>2003-05-19T09:44:06Z</time>
<speed>0.8</speed>
</trkpt>
<trkpt lat="47.638180" lon="8.605480">
<ele>357.4</ele>
<time>2003-05-19T09:44:11Z</time>
<speed>1.1</speed>
</trkpt>
<trkpt lat="47.638216" lon="8.605418">
<ele>357.8</ele>
<time>2003-05-19T09:44:16Z</time>
<speed>0.6</speed>
</trkpt>
<trkpt lat="47.638232" lon="8.605368">
<ele>357.5</ele>
<time>2003-05-19T09:44:21Z</time>
<speed>0.3</speed>
</trkpt>
<trkpt lat="47.638268" lon="8.605319">
<ele>358.0</ele>
<time>2003-05-19T09:44:26Z</time>
<speed>0.3</speed>
</trkpt>
<trkpt lat="47.638281" lon="8.605308">
<ele>358.0</ele>
<time>2003-05-19T09:44:31Z</time>
<speed>0.3</speed>
</trkpt>
<trkpt lat="47.638295" lon="8.605312">
<ele>356.6</ele>
<time>2003-05-19T09:44:36Z</time>
<speed>0.3</speed>
</trkpt>
<trkpt lat="47.638293" lon="8.605340">
<ele>355.4</ele>
<time>2003-05-19T09:44:41Z</time>
<speed>0.3</speed>
</trkpt>
<trkpt lat="47.638299" lon="8.605340">
<ele>356.2</ele>
<time>2003-05-19T09:44:46Z</time>
<speed>0.0</speed>
</trkpt>
<trkpt lat="47.638352" lon="8.605322">
<ele>356.2</ele>
<time>2003-05-19T09:44:51Z</time>
<speed>0.6</speed>
</trkpt>
<trkpt lat="47.638389" lon="8.605247">
<ele>356.5</ele>
<time>2003-05-19T09:44:56Z</time>
<speed>0.8</speed>
</trkpt>
<trkpt lat="47.638444" lon="8.605189">
<ele>356.3</ele>
<time>2003-05-19T09:45:01Z</time>
<speed>1.4</speed>
</trkpt>
<trkpt lat="47.638501" lon="8.605118">
<ele>356.0</ele>
<time>2003-05-19T09:45:06Z</time>
<speed>0.8</speed>
</trkpt>
<trkpt lat="47.638556" lon="8.605060">
<ele>355.8</ele>
<time>2003-05-19T09:45:11Z</time>
<speed>1.1</speed>
</trkpt>
<trkpt lat="47.638605" lon="8.605016">
<ele>354.9</ele>
<time>2003-05-19T09:45:16Z</time>
<speed>0.8</speed>
</trkpt>
<trkpt lat="47.638646" lon="8.604982">
<ele>354.8</ele>
<time>2003-05-19T09:45:21Z</time>
<speed>0.6</speed>
</trkpt>
<trkpt lat="47.638681" lon="8.604933">
<ele>355.3</ele>
<time>2003-05-19T09:45:26Z</time>
<speed>0.6</speed>
</trkpt>
<trkpt lat="47.638737" lon="8.604862">
<ele>355.0</ele>
<time>2003-05-19T09:45:31Z</time>
<speed>0.6</speed>
</trkpt>
<trkpt lat="47.638785" lon="8.604816">
<ele>355.6</ele>
<time>2003-05-19T09:45:36Z</time>
<speed>0.8</speed>
</trkpt>
<trkpt lat="47.638832" lon="8.604782">
<ele>356.2</ele>
<time>2003-05-19T09:45:41Z</time>
<speed>1.1</speed>
</trkpt>
<trkpt lat="47.638901" lon="8.604713">
<ele>356.0</ele>
<time>2003-05-19T09:45:46Z</time>
<speed>0.8</speed>
</trkpt>
<trkpt lat="47.638951" lon="8.604640">
<ele>356.3</ele>
<time>2003-05-19T09:45:51Z</time>
<speed>0.6</speed>
</trkpt>
<trkpt lat="47.639014" lon="8.604569">
<ele>356.8</ele>
<time>2003-05-19T09:45:56Z</time>
<speed>1.1</speed>
</trkpt>
<trkpt lat="47.639061" lon="8.604538">
<ele>356.0</ele>
<time>2003-05-19T09:46:01Z</time>
<speed>0.3</speed>
</trkpt>
<trkpt lat="47.639094" lon="8.604531">
<ele>355.4</ele>
<time>2003-05-19T09:46:06Z</time>
<speed>0.3</speed>
</trkpt>
<trkpt lat="47.639125" lon="8.604548">
<ele>356.4</ele>
<time>2003-05-19T09:46:11Z</time>
<speed>0.3</speed>
</trkpt>
<trkpt lat="47.639166" lon="8.604595">
<ele>356.2</ele>
<time>2003-05-19T09:46:16Z</time>
<speed>1.1</speed>
</trkpt>
<trkpt lat="47.639186" lon="8.604680">
<ele>355.6</ele>
<time>2003-05-19T09:46:21Z</time>
<speed>0.8</speed>
</trkpt>
<trkpt lat="47.639193" lon="8.604748">
<ele>356.1</ele>
<time>2003-05-19T09:46:26Z</time>
<speed>0.8</speed>
</trkpt>
<trkpt lat="47.639221" lon="8.604807">
<ele>356.0</ele>
<time>2003-05-19T09:46:31Z</time>
<speed>0.6</speed>
</trkpt>
<trkpt lat="47.639235" lon="8.604874">
<ele>357.3</ele>
<time>2003-05-19T09:46:36Z</time>
<speed>0.8</speed>
</trkpt>
<trkpt lat="47.639242" lon="8.604938">
<ele>360.7</ele>
<time>2003-05-19T09:46:41Z</time>
<speed>0.6</speed>
</trkpt>
<trkpt lat="47.639270" lon="8.604982">
<ele>361.9</ele>
<time>2003-05-19T09:46:46Z</time>
<speed>0.6</speed>
</trkpt>
<trkpt lat="47.639333" lon="8.604992">
<ele>362.3</ele>
<time>2003-05-19T09:46:51Z</time>
<speed>0.3</speed>
</trkpt>
<trkpt lat="47.639392" lon="8.604975">
<ele>361.7</ele>
<time>2003-05-19T09:46:56Z</time>
<speed>0.6</speed>
</trkpt>
<trkpt lat="47.639385" lon="8.604986">
<ele>362.5</ele>
<time>2003-05-19T09:47:01Z</time>
<speed>0.0</speed>
</trkpt>
<trkpt lat="47.639385" lon="8.604986">
<ele>362.5</ele>
<time>2003-05-19T09:47:06Z</time>
<speed>0.0</speed>
</trkpt>
<trkpt lat="47.639430" lon="8.604981">
<ele>361.9</ele>
<time>2003-05-19T09:47:11Z</time>
<speed>0.6</speed>
</trkpt>
<trkpt lat="47.639476" lon="8.604961">
<ele>362.7</ele>
<time>2003-05-19T09:47:16Z</time>
<speed>0.3</speed>
</trkpt>
<trkpt lat="47.639530" lon="8.604929">
<ele>362.7</ele>
<time>2003-05-19T09:47:21Z</time>
<speed>0.6</speed>
</trkpt>
<trkpt lat="47.639592" lon="8.604858">
<ele>363.1</ele>
<time>2003-05-19T09:47:26Z</time>
<speed>0.8</speed>
</trkpt>
<trkpt lat="47.639630" lon="8.604770">
<ele>363.3</ele>
<time>2003-05-19T09:47:31Z</time>
<speed>0.6</speed>
</trkpt>
<trkpt lat="47.639649" lon="8.604691">
<ele>364.1</ele>
<time>2003-05-19T09:47:36Z</time>
<speed>0.0</speed>
</trkpt>
<trkpt lat="47.639661" lon="8.604612">
<ele>364.3</ele>
<time>2003-05-19T09:47:41Z</time>
<speed>0.6</speed>
</trkpt>
<trkpt lat="47.639690" lon="8.604564">
<ele>364.0</ele>
<time>2003-05-19T09:47:46Z</time>
<speed>0.6</speed>
</trkpt>
<trkpt lat="47.639717" lon="8.604541">
<ele>364.0</ele>
<time>2003-05-19T09:47:51Z</time>
<speed>0.6</speed>
</trkpt>
<trkpt lat="47.639768" lon="8.604549">
<ele>364.3</ele>
<time>2003-05-19T09:47:56Z</time>
<speed>0.6</speed>
</trkpt>
<trkpt lat="47.639794" lon="8.604540">
<ele>364.3</ele>
<time>2003-05-19T09:48:01Z</time>
<speed>0.3</speed>
</trkpt>
<trkpt lat="47.639825" lon="8.604559">
<ele>363.9</ele>
<time>2003-05-19T09:48:06Z</time>
<speed>0.3</speed>
</trkpt>
<trkpt lat="47.639895" lon="8.604558">
<ele>363.5</ele>
<time>2003-05-19T09:48:11Z</time>
<speed>0.6</speed>
</trkpt>
<trkpt lat="47.639966" lon="8.604557">
<ele>363.1</ele>
<time>2003-05-19T09:48:16Z</time>
<speed>0.8</speed>
</trkpt>
<trkpt lat="47.640015" lon="8.604591">
<ele>363.6</ele>
<time>2003-05-19T09:48:21Z</time>
<speed>0.6</speed>
</trkpt>
<trkpt lat="47.640052" lon="8.604610">
<ele>363.9</ele>
<time>2003-05-19T09:48:26Z</time>
<speed>0.6</speed>
</trkpt>
<trkpt lat="47.640095" lon="8.604631">
<ele>363.5</ele>
<time>2003-05-19T09:48:31Z</time>
<speed>0.8</speed>
</trkpt>
<trkpt lat="47.640177" lon="8.604645">
<ele>363.3</ele>
<time>2003-05-19T09:48:36Z</time>
<speed>1.1</speed>
</trkpt>
<trkpt lat="47.640245" lon="8.604699">
<ele>361.9</ele>
<time>2003-05-19T09:48:41Z</time>
<speed>1.1</speed>
</trkpt>
<trkpt lat="47.640278" lon="8.604757">
<ele>362.5</ele>
<time>2003-05-19T09:48:46Z</time>
<speed>0.8</speed>
</trkpt>
<trkpt lat="47.640303" lon="8.604855">
<ele>362.7</ele>
<time>2003-05-19T09:48:51Z</time>
<speed>0.8</speed>
</trkpt>
<trkpt lat="47.640343" lon="8.604929">
<ele>362.8</ele>
<time>2003-05-19T09:48:56Z</time>
<speed>0.8</speed>
</trkpt>
<trkpt lat="47.640364" lon="8.605001">
<ele>362.0</ele>
<time>2003-05-19T09:49:01Z</time>
<speed>0.8</speed>
</trkpt>
<trkpt lat="47.640369" lon="8.605095">
<ele>362.8</ele>
<time>2003-05-19T09:49:06Z</time>
<speed>0.8</speed>
</trkpt>
<trkpt lat="47.640436" lon="8.605146">
<ele>362.8</ele>
<time>2003-05-19T09:49:11Z</time>
<speed>0.8</speed>
</trkpt>
<trkpt lat="47.640455" lon="8.605229">
<ele>363.5</ele>
<time>2003-05-19T09:49:16Z</time>
<speed>0.6</speed>
</trkpt>
<trkpt lat="47.640509" lon="8.605277">
<ele>364.9</ele>
<time>2003-05-19T09:49:21Z</time>
<speed>0.8</speed>
</trkpt>
<trkpt lat="47.640582" lon="8.605328">
<ele>365.6</ele>
<time>2003-05-19T09:49:27Z</time>
<speed>0.8</speed>
</trkpt>
<trkpt lat="47.640629" lon="8.605376">
<ele>366.2</ele>
<time>2003-05-19T09:49:32Z</time>
<speed>0.8</speed>
</trkpt>
<trkpt lat="47.640667" lon="8.605461">
<ele>367.8</ele>
<time>2003-05-19T09:49:37Z</time>
<speed>0.8</speed>
</trkpt>
<trkpt lat="47.640721" lon="8.605510">
<ele>367.7</ele>
<time>2003-05-19T09:49:42Z</time>
<speed>0.8</speed>
</trkpt>
<trkpt lat="47.640768" lon="8.605571">
<ele>368.4</ele>
<time>2003-05-19T09:49:47Z</time>
<speed>0.8</speed>
</trkpt>
<trkpt lat="47.640793" lon="8.605669">
<ele>368.6</ele>
<time>2003-05-19T09:49:52Z</time>
<speed>0.8</speed>
</trkpt>
<trkpt lat="47.640820" lon="8.605740">
<ele>368.6</ele>
<time>2003-05-19T09:49:57Z</time>
<speed>0.8</speed>
</trkpt>
<trkpt lat="47.640810" lon="8.605874">
<ele>368.2</ele>
<time>2003-05-19T09:50:02Z</time>
<speed>1.1</speed>
</trkpt>
<trkpt lat="47.640850" lon="8.605948">
<ele>368.2</ele>
<time>2003-05-19T09:50:07Z</time>
<speed>0.8</speed>
</trkpt>
<trkpt lat="47.640882" lon="8.606033">
<ele>369.0</ele>
<time>2003-05-19T09:50:12Z</time>
<speed>1.1</speed>
</trkpt>
<trkpt lat="47.640901" lon="8.606118">
<ele>368.4</ele>
<time>2003-05-19T09:50:17Z</time>
<speed>0.8</speed>
</trkpt>
<trkpt lat="47.640932" lon="8.606216">
<ele>369.3</ele>
<time>2003-05-19T09:50:22Z</time>
<speed>1.1</speed>
</trkpt>
<trkpt lat="47.640921" lon="8.606281">
<ele>369.1</ele>
<time>2003-05-19T09:50:27Z</time>
<speed>0.8</speed>
</trkpt>
<trkpt lat="47.640896" lon="8.606374">
<ele>367.6</ele>
<time>2003-05-19T09:50:32Z</time>
<speed>0.8</speed>
</trkpt>
<trkpt lat="47.640852" lon="8.606446">
<ele>367.9</ele>
<time>2003-05-19T09:50:37Z</time>
<speed>0.8</speed>
</trkpt>
<trkpt lat="47.640846" lon="8.606525">
<ele>368.5</ele>
<time>2003-05-19T09:50:42Z</time>
<speed>0.8</speed>
</trkpt>
<trkpt lat="47.640839" lon="8.606633">
<ele>368.0</ele>
<time>2003-05-19T09:50:47Z</time>
<speed>1.1</speed>
</trkpt>
<trkpt lat="47.640845" lon="8.606727">
<ele>368.7</ele>
<time>2003-05-19T09:50:52Z</time>
<speed>0.6</speed>
</trkpt>
<trkpt lat="47.640924" lon="8.606765">
<ele>370.1</ele>
<time>2003-05-19T09:50:57Z</time>
<speed>0.3</speed>
</trkpt>
<trkpt lat="47.640924" lon="8.606765">
<ele>370.1</ele>
<time>2003-05-19T09:51:02Z</time>
<speed>0.0</speed>
</trkpt>
<trkpt lat="47.640924" lon="8.606765">
<ele>370.1</ele>
<time>2003-05-19T09:51:07Z</time>
<speed>0.0</speed>
</trkpt>
<trkpt lat="47.640949" lon="8.606782">
<ele>370.4</ele>
<time>2003-05-19T09:51:12Z</time>
<speed>0.3</speed>
</trkpt>
<trkpt lat="47.640961" lon="8.606784">
<ele>370.4</ele>
<time>2003-05-19T09:51:17Z</time>
<speed>0.0</speed>
</trkpt>
<trkpt lat="47.640961" lon="8.606784">
<ele>370.4</ele>
<time>2003-05-19T09:51:22Z</time>
<speed>0.0</speed>
</trkpt>
<trkpt lat="47.640955" lon="8.606784">
<ele>369.7</ele>
<time>2003-05-19T09:51:27Z</time>
<speed>0.0</speed>
</trkpt>
<trkpt lat="47.640967" lon="8.606799">
<ele>369.9</ele>
<time>2003-05-19T09:51:32Z</time>
<speed>0.0</speed>
</trkpt>
<trkpt lat="47.640967" lon="8.606799">
<ele>369.9</ele>
<time>2003-05-19T09:51:37Z</time>
<speed>0.0</speed>
</trkpt>
<trkpt lat="47.640967" lon="8.606799">
<ele>369.9</ele>
<time>2003-05-19T09:51:42Z</time>
<speed>0.0</speed>
</trkpt>
<trkpt lat="47.640967" lon="8.606799">
<ele>369.9</ele>
<time>2003-05-19T09:51:47Z</time>
<speed>0.3</speed>
</trkpt>
<trkpt lat="47.640967" lon="8.606799">
<ele>369.9</ele>
<time>2003-05-19T09:51:52Z</time>
<speed>0.0</speed>
</trkpt>
<trkpt lat="47.640973" lon="8.606799">
<ele>370.6</ele>
<time>2003-05-19T09:51:57Z</time>
<speed>0.0</speed>
</trkpt>
<trkpt lat="47.640973" lon="8.606799">
<ele>370.6</ele>
<time>2003-05-19T09:52:02Z</time>
<speed>0.0</speed>
</trkpt>
<trkpt lat="47.640973" lon="8.606799">
<ele>370.6</ele>
<time>2003-05-19T09:52:07Z</time>
<speed>0.0</speed>
</trkpt>
<trkpt lat="47.640973" lon="8.606799">
<ele>370.6</ele>
<time>2003-05-19T09:52:12Z</time>
<speed>0.0</speed>
</trkpt>
<trkpt lat="47.640973" lon="8.606799">
<ele>370.6</ele>
<time>2003-05-19T09:52:17Z</time>
<speed>0.0</speed>
</trkpt>
<trkpt lat="47.640973" lon="8.606799">
<ele>370.6</ele>
<time>2003-05-19T09:52:22Z</time>
<speed>0.0</speed>
</trkpt>
<trkpt lat="47.640972" lon="8.606812">
<ele>370.7</ele>
<time>2003-05-19T09:52:27Z</time>
<speed>0.0</speed>
</trkpt>
<trkpt lat="47.640972" lon="8.606812">
<ele>370.7</ele>
<time>2003-05-19T09:52:32Z</time>
<speed>0.0</speed>
</trkpt>
<trkpt lat="47.640972" lon="8.606812">
<ele>370.7</ele>
<time>2003-05-19T09:52:37Z</time>
<speed>0.0</speed>
</trkpt>
<trkpt lat="47.640972" lon="8.606812">
<ele>370.7</ele>
<time>2003-05-19T09:52:42Z</time>
<speed>0.0</speed>
</trkpt>
<trkpt lat="47.640972" lon="8.606812">
<ele>370.7</ele>
<time>2003-05-19T09:52:47Z</time>
<speed>0.0</speed>
</trkpt>
<trkpt lat="47.640973" lon="8.606799">
<ele>370.6</ele>
<time>2003-05-19T09:52:52Z</time>
<speed>0.0</speed>
</trkpt>
<trkpt lat="47.640960" lon="8.606797">
<ele>370.5</ele>
<time>2003-05-19T09:52:57Z</time>
<speed>0.0</speed>
</trkpt>
<trkpt lat="47.640962" lon="8.606771">
<ele>370.3</ele>
<time>2003-05-19T09:53:02Z</time>
<speed>0.0</speed>
</trkpt>
<trkpt lat="47.640969" lon="8.606758">
<ele>371.0</ele>
<time>2003-05-19T09:53:07Z</time>
<speed>0.0</speed>
</trkpt>
<trkpt lat="47.640977" lon="8.606747">
<ele>370.2</ele>
<time>2003-05-19T09:53:12Z</time>
<speed>0.0</speed>
</trkpt>
<trkpt lat="47.640992" lon="8.606722">
<ele>370.1</ele>
<time>2003-05-19T09:53:17Z</time>
<speed>0.3</speed>
</trkpt>
<trkpt lat="47.641003" lon="8.606738">
<ele>370.2</ele>
<time>2003-05-19T09:53:22Z</time>
<speed>0.0</speed>
</trkpt>
<trkpt lat="47.641004" lon="8.606724">
<ele>370.1</ele>
<time>2003-05-19T09:53:27Z</time>
<speed>0.0</speed>
</trkpt>
<trkpt lat="47.641004" lon="8.606724">
<ele>370.1</ele>
<time>2003-05-19T09:53:32Z</time>
<speed>0.0</speed>
</trkpt>
<trkpt lat="47.640997" lon="8.606720">
<ele>372.2</ele>
<time>2003-05-19T09:53:37Z</time>
<speed>0.3</speed>
</trkpt>
<trkpt lat="47.640992" lon="8.606705">
<ele>372.8</ele>
<time>2003-05-19T09:53:42Z</time>
<speed>0.3</speed>
</trkpt>
<trkpt lat="47.640951" lon="8.606724">
<ele>374.2</ele>
<time>2003-05-19T09:53:47Z</time>
<speed>0.3</speed>
</trkpt>
<trkpt lat="47.640918" lon="8.606731">
<ele>374.8</ele>
<time>2003-05-19T09:53:52Z</time>
<speed>0.3</speed>
</trkpt>
<trkpt lat="47.640866" lon="8.606732">
<ele>377.4</ele>
<time>2003-05-19T09:53:57Z</time>
<speed>0.0</speed>
</trkpt>
<trkpt lat="47.640866" lon="8.606732">
<ele>377.4</ele>
<time>2003-05-19T09:54:02Z</time>
<speed>0.0</speed>
</trkpt>
<trkpt lat="47.640866" lon="8.606732">
<ele>377.4</ele>
<time>2003-05-19T09:54:07Z</time>
<speed>0.0</speed>
</trkpt>
<trkpt lat="47.640866" lon="8.606732">
<ele>377.4</ele>
<time>2003-05-19T09:54:12Z</time>
<speed>0.0</speed>
</trkpt>
<trkpt lat="47.640866" lon="8.606732">
<ele>377.4</ele>
<time>2003-05-19T09:54:17Z</time>
<speed>0.0</speed>
</trkpt>
<trkpt lat="47.640872" lon="8.606732">
<ele>378.1</ele>
<time>2003-05-19T09:54:22Z</time>
<speed>0.0</speed>
</trkpt>
<trkpt lat="47.640869" lon="8.606756">
<ele>379.8</ele>
<time>2003-05-19T09:54:27Z</time>
<speed>0.3</speed>
</trkpt>
<trkpt lat="47.640895" lon="8.606841">
<ele>379.8</ele>
<time>2003-05-19T09:54:33Z</time>
<speed>0.8</speed>
</trkpt>
<trkpt lat="47.640888" lon="8.606948">
<ele>379.2</ele>
<time>2003-05-19T09:54:38Z</time>
<speed>1.1</speed>
</trkpt>
<trkpt lat="47.640873" lon="8.607069">
<ele>378.0</ele>
<time>2003-05-19T09:54:43Z</time>
<speed>1.1</speed>
</trkpt>
<trkpt lat="47.640896" lon="8.607193">
<ele>378.4</ele>
<time>2003-05-19T09:54:48Z</time>
<speed>1.1</speed>
</trkpt>
<trkpt lat="47.640901" lon="8.607303">
<ele>377.9</ele>
<time>2003-05-19T09:54:53Z</time>
<speed>1.1</speed>
</trkpt>
<trkpt lat="47.640901" lon="8.607397">
<ele>377.9</ele>
<time>2003-05-19T09:54:58Z</time>
<speed>1.1</speed>
</trkpt>
<trkpt lat="47.640901" lon="8.607491">
<ele>377.9</ele>
<time>2003-05-19T09:55:03Z</time>
<speed>0.8</speed>
</trkpt>
<trkpt lat="47.640888" lon="8.607583">
<ele>377.9</ele>
<time>2003-05-19T09:55:08Z</time>
<speed>1.1</speed>
</trkpt>
<trkpt lat="47.640888" lon="8.607679">
<ele>376.5</ele>
<time>2003-05-19T09:55:13Z</time>
<speed>0.8</speed>
</trkpt>
<trkpt lat="47.640875" lon="8.607773">
<ele>375.1</ele>
<time>2003-05-19T09:55:18Z</time>
<speed>0.8</speed>
</trkpt>
<trkpt lat="47.640869" lon="8.607852">
<ele>375.7</ele>
<time>2003-05-19T09:55:23Z</time>
<speed>0.8</speed>
</trkpt>
<trkpt lat="47.640864" lon="8.607933">
<ele>374.9</ele>
<time>2003-05-19T09:55:28Z</time>
<speed>0.6</speed>
</trkpt>
<trkpt lat="47.640857" lon="8.608025">
<ele>375.6</ele>
<time>2003-05-19T09:55:33Z</time>
<speed>0.8</speed>
</trkpt>
<trkpt lat="47.640845" lon="8.608104">
<ele>375.5</ele>
<time>2003-05-19T09:55:38Z</time>
<speed>1.1</speed>
</trkpt>
<trkpt lat="47.640869" lon="8.608215">
<ele>375.8</ele>
<time>2003-05-19T09:55:43Z</time>
<speed>1.1</speed>
</trkpt>
<trkpt lat="47.640891" lon="8.608355">
<ele>374.9</ele>
<time>2003-05-19T09:55:48Z</time>
<speed>1.1</speed>
</trkpt>
<trkpt lat="47.640897" lon="8.608449">
<ele>375.6</ele>
<time>2003-05-19T09:55:53Z</time>
<speed>0.8</speed>
</trkpt>
<trkpt lat="47.640901" lon="8.608571">
<ele>375.2</ele>
<time>2003-05-19T09:55:58Z</time>
<speed>1.1</speed>
</trkpt>
<trkpt lat="47.640907" lon="8.608665">
<ele>376.0</ele>
<time>2003-05-19T09:56:03Z</time>
<speed>1.1</speed>
</trkpt>
<trkpt lat="47.640880" lon="8.608769">
<ele>376.0</ele>
<time>2003-05-19T09:56:08Z</time>
<speed>1.1</speed>
</trkpt>
<trkpt lat="47.640874" lon="8.608849">
<ele>375.2</ele>
<time>2003-05-19T09:56:13Z</time>
<speed>0.8</speed>
</trkpt>
<trkpt lat="47.640875" lon="8.608928">
<ele>376.5</ele>
<time>2003-05-19T09:56:18Z</time>
<speed>0.8</speed>
</trkpt>
<trkpt lat="47.640863" lon="8.609007">
<ele>376.4</ele>
<time>2003-05-19T09:56:23Z</time>
<speed>1.1</speed>
</trkpt>
<trkpt lat="47.640867" lon="8.609115">
<ele>377.3</ele>
<time>2003-05-19T09:56:28Z</time>
<speed>1.4</speed>
</trkpt>
<trkpt lat="47.640871" lon="8.609237">
<ele>376.8</ele>
<time>2003-05-19T09:56:33Z</time>
<speed>0.8</speed>
</trkpt>
<trkpt lat="47.640872" lon="8.609318">
<ele>376.8</ele>
<time>2003-05-19T09:56:38Z</time>
<speed>1.4</speed>
</trkpt>
<trkpt lat="47.640877" lon="8.609427">
<ele>376.3</ele>
<time>2003-05-19T09:56:43Z</time>
<speed>1.1</speed>
</trkpt>
<trkpt lat="47.640901" lon="8.609538">
<ele>376.5</ele>
<time>2003-05-19T09:56:48Z</time>
<speed>1.1</speed>
</trkpt>
<trkpt lat="47.640908" lon="8.609621">
<ele>375.8</ele>
<time>2003-05-19T09:56:53Z</time>
<speed>0.8</speed>
</trkpt>
<trkpt lat="47.640934" lon="8.609706">
<ele>375.9</ele>
<time>2003-05-19T09:56:58Z</time>
<speed>0.6</speed>
</trkpt>
<trkpt lat="47.640966" lon="8.609791">
<ele>376.7</ele>
<time>2003-05-19T09:57:03Z</time>
<speed>0.8</speed>
</trkpt>
<trkpt lat="47.640985" lon="8.609874">
<ele>377.5</ele>
<time>2003-05-19T09:57:08Z</time>
<speed>0.8</speed>
</trkpt>
<trkpt lat="47.640992" lon="8.609957">
<ele>376.7</ele>
<time>2003-05-19T09:57:13Z</time>
<speed>0.8</speed>
</trkpt>
<trkpt lat="47.641004" lon="8.610051">
<ele>378.3</ele>
<time>2003-05-19T09:57:18Z</time>
<speed>1.1</speed>
</trkpt>
<trkpt lat="47.641017" lon="8.610132">
<ele>379.7</ele>
<time>2003-05-19T09:57:23Z</time>
<speed>0.6</speed>
</trkpt>
<trkpt lat="47.641018" lon="8.610200">
<ele>379.5</ele>
<time>2003-05-19T09:57:28Z</time>
<speed>0.6</speed>
</trkpt>
<trkpt lat="47.641035" lon="8.610243">
<ele>379.2</ele>
<time>2003-05-19T09:57:33Z</time>
<speed>0.6</speed>
</trkpt>
<trkpt lat="47.641083" lon="8.610278">
<ele>379.7</ele>
<time>2003-05-19T09:57:38Z</time>
<speed>0.3</speed>
</trkpt>
<trkpt lat="47.641084" lon="8.610264">
<ele>379.6</ele>
<time>2003-05-19T09:57:43Z</time>
<speed>0.0</speed>
</trkpt>
<trkpt lat="47.641055" lon="8.610219">
<ele>379.8</ele>
<time>2003-05-19T09:57:48Z</time>
<speed>0.6</speed>
</trkpt>
<trkpt lat="47.641029" lon="8.610322">
<ele>379.8</ele>
<time>2003-05-19T09:57:53Z</time>
<speed>1.1</speed>
</trkpt>
<trkpt lat="47.641010" lon="8.610414">
<ele>379.1</ele>
<time>2003-05-19T09:57:58Z</time>
<speed>1.1</speed>
</trkpt>
<trkpt lat="47.641017" lon="8.610499">
<ele>376.9</ele>
<time>2003-05-19T09:58:03Z</time>
<speed>0.8</speed>
</trkpt>
<trkpt lat="47.641049" lon="8.610599">
<ele>376.5</ele>
<time>2003-05-19T09:58:08Z</time>
<speed>1.1</speed>
</trkpt>
<trkpt lat="47.641066" lon="8.610709">
<ele>377.4</ele>
<time>2003-05-19T09:58:13Z</time>
<speed>0.8</speed>
</trkpt>
<trkpt lat="47.641086" lon="8.610794">
<ele>376.7</ele>
<time>2003-05-19T09:58:18Z</time>
<speed>0.6</speed>
</trkpt>
<trkpt lat="47.641086" lon="8.610874">
<ele>376.7</ele>
<time>2003-05-19T09:58:23Z</time>
<speed>0.8</speed>
</trkpt>
<trkpt lat="47.641068" lon="8.610953">
<ele>375.8</ele>
<time>2003-05-19T09:58:28Z</time>
<speed>0.6</speed>
</trkpt>
<trkpt lat="47.641061" lon="8.611046">
<ele>376.5</ele>
<time>2003-05-19T09:58:33Z</time>
<speed>0.8</speed>
</trkpt>
<trkpt lat="47.641094" lon="8.611117">
<ele>377.2</ele>
<time>2003-05-19T09:58:38Z</time>
<speed>0.8</speed>
</trkpt>
<trkpt lat="47.641113" lon="8.611231">
<ele>375.4</ele>
<time>2003-05-19T09:58:43Z</time>
<speed>0.8</speed>
</trkpt>
<trkpt lat="47.641127" lon="8.611300">
<ele>375.3</ele>
<time>2003-05-19T09:58:48Z</time>
<speed>0.6</speed>
</trkpt>
<trkpt lat="47.641147" lon="8.611370">
<ele>375.9</ele>
<time>2003-05-19T09:58:53Z</time>
<speed>0.6</speed>
</trkpt>
<trkpt lat="47.641194" lon="8.611431">
<ele>376.6</ele>
<time>2003-05-19T09:58:58Z</time>
<speed>0.8</speed>
</trkpt>
<trkpt lat="47.641251" lon="8.611520">
<ele>377.6</ele>
<time>2003-05-19T09:59:03Z</time>
<speed>0.8</speed>
</trkpt>
<trkpt lat="47.641277" lon="8.611605">
<ele>377.7</ele>
<time>2003-05-19T09:59:08Z</time>
<speed>0.8</speed>
</trkpt>
<trkpt lat="47.641297" lon="8.611689">
<ele>377.0</ele>
<time>2003-05-19T09:59:13Z</time>
<speed>0.6</speed>
</trkpt>
<trkpt lat="47.641328" lon="8.611774">
<ele>377.9</ele>
<time>2003-05-19T09:59:18Z</time>
<speed>1.1</speed>
</trkpt>
<trkpt lat="47.641367" lon="8.611863">
<ele>376.6</ele>
<time>2003-05-19T09:59:23Z</time>
<speed>1.1</speed>
</trkpt>
<trkpt lat="47.641410" lon="8.611976">
<ele>377.7</ele>
<time>2003-05-19T09:59:28Z</time>
<speed>1.1</speed>
</trkpt>
<trkpt lat="47.641429" lon="8.612059">
<ele>378.5</ele>
<time>2003-05-19T09:59:33Z</time>
<speed>0.8</speed>
</trkpt>
<trkpt lat="47.641456" lon="8.612129">
<ele>379.9</ele>
<time>2003-05-19T09:59:38Z</time>
<speed>0.8</speed>
</trkpt>
<trkpt lat="47.641468" lon="8.612210">
<ele>381.3</ele>
<time>2003-05-19T09:59:43Z</time>
<speed>0.8</speed>
</trkpt>
<trkpt lat="47.641507" lon="8.612297">
<ele>381.4</ele>
<time>2003-05-19T09:59:48Z</time>
<speed>1.1</speed>
</trkpt>
<trkpt lat="47.641540" lon="8.612369">
<ele>382.2</ele>
<time>2003-05-19T09:59:53Z</time>
<speed>0.8</speed>
</trkpt>
<trkpt lat="47.641565" lon="8.612467">
<ele>382.3</ele>
<time>2003-05-19T09:59:58Z</time>
<speed>1.1</speed>
</trkpt>
<trkpt lat="47.641577" lon="8.612548">
<ele>383.8</ele>
<time>2003-05-19T10:00:03Z</time>
<speed>0.8</speed>
</trkpt>
<trkpt lat="47.641604" lon="8.612620">
<ele>383.7</ele>
<time>2003-05-19T10:00:08Z</time>
<speed>0.8</speed>
</trkpt>
<trkpt lat="47.641636" lon="8.612705">
<ele>384.6</ele>
<time>2003-05-19T10:00:13Z</time>
<speed>1.1</speed>
</trkpt>
<trkpt lat="47.641706" lon="8.612797">
<ele>384.2</ele>
<time>2003-05-19T10:00:18Z</time>
<speed>0.8</speed>
</trkpt>
<trkpt lat="47.641733" lon="8.612869">
<ele>384.2</ele>
<time>2003-05-19T10:00:23Z</time>
<speed>0.8</speed>
</trkpt>
<trkpt lat="47.641785" lon="8.612945">
<ele>384.3</ele>
<time>2003-05-19T10:00:28Z</time>
<speed>1.1</speed>
</trkpt>
<trkpt lat="47.641822" lon="8.613043">
<ele>386.0</ele>
<time>2003-05-19T10:00:33Z</time>
<speed>1.4</speed>
</trkpt>
<trkpt lat="47.641855" lon="8.613115">
<ele>386.7</ele>
<time>2003-05-19T10:00:38Z</time>
<speed>1.1</speed>
</trkpt>
<trkpt lat="47.641900" lon="8.613202">
<ele>387.6</ele>
<time>2003-05-19T10:00:43Z</time>
<speed>1.4</speed>
</trkpt>
<trkpt lat="47.641932" lon="8.613289">
<ele>387.0</ele>
<time>2003-05-19T10:00:48Z</time>
<speed>0.8</speed>
</trkpt>
<trkpt lat="47.641964" lon="8.613374">
<ele>387.8</ele>
<time>2003-05-19T10:00:53Z</time>
<speed>1.1</speed>
</trkpt>
<trkpt lat="47.642009" lon="8.613460">
<ele>388.7</ele>
<time>2003-05-19T10:00:58Z</time>
<speed>1.1</speed>
</trkpt>
<trkpt lat="47.642061" lon="8.613536">
<ele>388.9</ele>
<time>2003-05-19T10:01:03Z</time>
<speed>1.1</speed>
</trkpt>
<trkpt lat="47.642113" lon="8.613612">
<ele>389.0</ele>
<time>2003-05-19T10:01:08Z</time>
<speed>1.1</speed>
</trkpt>
<trkpt lat="47.642154" lon="8.613673">
<ele>389.0</ele>
<time>2003-05-19T10:01:13Z</time>
<speed>0.8</speed>
</trkpt>
<trkpt lat="47.642206" lon="8.613748">
<ele>389.1</ele>
<time>2003-05-19T10:01:18Z</time>
<speed>1.1</speed>
</trkpt>
<trkpt lat="47.642232" lon="8.613835">
<ele>387.8</ele>
<time>2003-05-19T10:01:23Z</time>
<speed>0.8</speed>
</trkpt>
<trkpt lat="47.642264" lon="8.613922">
<ele>387.2</ele>
<time>2003-05-19T10:01:28Z</time>
<speed>1.4</speed>
</trkpt>
<trkpt lat="47.642302" lon="8.614022">
<ele>387.4</ele>
<time>2003-05-19T10:01:33Z</time>
<speed>1.1</speed>
</trkpt>
<trkpt lat="47.642340" lon="8.614109">
<ele>387.6</ele>
<time>2003-05-19T10:01:38Z</time>
<speed>1.4</speed>
</trkpt>
<trkpt lat="47.642393" lon="8.614185">
<ele>387.7</ele>
<time>2003-05-19T10:01:43Z</time>
<speed>1.4</speed>
</trkpt>
<trkpt lat="47.642433" lon="8.614261">
<ele>386.4</ele>
<time>2003-05-19T10:01:48Z</time>
<speed>1.1</speed>
</trkpt>
<trkpt lat="47.642486" lon="8.614325">
<ele>385.0</ele>
<time>2003-05-19T10:01:53Z</time>
<speed>1.4</speed>
</trkpt>
<trkpt lat="47.642532" lon="8.614401">
<ele>384.4</ele>
<time>2003-05-19T10:01:58Z</time>
<speed>1.1</speed>
</trkpt>
<trkpt lat="47.642579" lon="8.614464">
<ele>383.7</ele>
<time>2003-05-19T10:02:03Z</time>
<speed>1.4</speed>
</trkpt>
<trkpt lat="47.642632" lon="8.614526">
<ele>383.7</ele>
<time>2003-05-19T10:02:08Z</time>
<speed>1.1</speed>
</trkpt>
<trkpt lat="47.642677" lon="8.614613">
<ele>384.6</ele>
<time>2003-05-19T10:02:13Z</time>
<speed>1.4</speed>
</trkpt>
<trkpt lat="47.642717" lon="8.614674">
<ele>384.6</ele>
<time>2003-05-19T10:02:18Z</time>
<speed>1.4</speed>
</trkpt>
<trkpt lat="47.642758" lon="8.614734">
<ele>384.5</ele>
<time>2003-05-19T10:02:23Z</time>
<speed>1.1</speed>
</trkpt>
<trkpt lat="47.642798" lon="8.614795">
<ele>384.5</ele>
<time>2003-05-19T10:02:28Z</time>
<speed>0.8</speed>
</trkpt>
<trkpt lat="47.642832" lon="8.614854">
<ele>385.1</ele>
<time>2003-05-19T10:02:33Z</time>
<speed>1.1</speed>
</trkpt>
<trkpt lat="47.642878" lon="8.614927">
<ele>385.9</ele>
<time>2003-05-19T10:02:38Z</time>
<speed>1.1</speed>
</trkpt>
<trkpt lat="47.642923" lon="8.615001">
<ele>386.7</ele>
<time>2003-05-19T10:02:43Z</time>
<speed>1.1</speed>
</trkpt>
<trkpt lat="47.642969" lon="8.615075">
<ele>387.5</ele>
<time>2003-05-19T10:02:48Z</time>
<speed>1.1</speed>
</trkpt>
<trkpt lat="47.643021" lon="8.615151">
<ele>387.6</ele>
<time>2003-05-19T10:02:53Z</time>
<speed>1.1</speed>
</trkpt>
<trkpt lat="47.643086" lon="8.615213">
<ele>389.1</ele>
<time>2003-05-19T10:02:58Z</time>
<speed>1.1</speed>
</trkpt>
<trkpt lat="47.643146" lon="8.615263">
<ele>389.8</ele>
<time>2003-05-19T10:03:03Z</time>
<speed>1.1</speed>
</trkpt>
<trkpt lat="47.643222" lon="8.615275">
<ele>390.2</ele>
<time>2003-05-19T10:03:08Z</time>
<speed>1.1</speed>
</trkpt>
<trkpt lat="47.643279" lon="8.615285">
<ele>389.8</ele>
<time>2003-05-19T10:03:13Z</time>
<speed>0.8</speed>
</trkpt>
<trkpt lat="47.643338" lon="8.615266">
<ele>390.7</ele>
<time>2003-05-19T10:03:18Z</time>
<speed>0.8</speed>
</trkpt>
<trkpt lat="47.643417" lon="8.615239">
<ele>390.8</ele>
<time>2003-05-19T10:03:23Z</time>
<speed>1.1</speed>
</trkpt>
<trkpt lat="47.643481" lon="8.615236">
<ele>391.1</ele>
<time>2003-05-19T10:03:28Z</time>
<speed>0.8</speed>
</trkpt>
<trkpt lat="47.643544" lon="8.615247">
<ele>390.0</ele>
<time>2003-05-19T10:03:33Z</time>
<speed>1.1</speed>
</trkpt>
<trkpt lat="47.643599" lon="8.615282">
<ele>391.3</ele>
<time>2003-05-19T10:03:38Z</time>
<speed>1.1</speed>
</trkpt>
<trkpt lat="47.643648" lon="8.615316">
<ele>391.8</ele>
<time>2003-05-19T10:03:43Z</time>
<speed>0.8</speed>
</trkpt>
<trkpt lat="47.643703" lon="8.615352">
<ele>391.6</ele>
<time>2003-05-19T10:03:48Z</time>
<speed>1.1</speed>
</trkpt>
<trkpt lat="47.643763" lon="8.615402">
<ele>392.3</ele>
<time>2003-05-19T10:03:53Z</time>
<speed>1.1</speed>
</trkpt>
<trkpt lat="47.643818" lon="8.615423">
<ele>393.4</ele>
<time>2003-05-19T10:03:58Z</time>
<speed>1.1</speed>
</trkpt>
<trkpt lat="47.643873" lon="8.615472">
<ele>393.3</ele>
<time>2003-05-19T10:04:03Z</time>
<speed>0.8</speed>
</trkpt>
<trkpt lat="47.643934" lon="8.615509">
<ele>393.9</ele>
<time>2003-05-19T10:04:08Z</time>
<speed>1.1</speed>
</trkpt>
<trkpt lat="47.644008" lon="8.615549">
<ele>393.1</ele>
<time>2003-05-19T10:04:13Z</time>
<speed>1.1</speed>
</trkpt>
<trkpt lat="47.644056" lon="8.615583">
<ele>393.6</ele>
<time>2003-05-19T10:04:18Z</time>
<speed>0.8</speed>
</trkpt>
<trkpt lat="47.644107" lon="8.615606">
<ele>392.6</ele>
<time>2003-05-19T10:04:23Z</time>
<speed>1.1</speed>
</trkpt>
<trkpt lat="47.644170" lon="8.615616">
<ele>393.0</ele>
<time>2003-05-19T10:04:28Z</time>
<speed>1.1</speed>
</trkpt>
<trkpt lat="47.644237" lon="8.615653">
<ele>394.3</ele>
<time>2003-05-19T10:04:33Z</time>
<speed>1.1</speed>
</trkpt>
<trkpt lat="47.644287" lon="8.615676">
<ele>393.2</ele>
<time>2003-05-19T10:04:38Z</time>
<speed>0.8</speed>
</trkpt>
<trkpt lat="47.644349" lon="8.615699">
<ele>393.7</ele>
<time>2003-05-19T10:04:43Z</time>
<speed>1.1</speed>
</trkpt>
<trkpt lat="47.644418" lon="8.615724">
<ele>393.5</ele>
<time>2003-05-19T10:04:48Z</time>
<speed>1.1</speed>
</trkpt>
<trkpt lat="47.644485" lon="8.615775">
<ele>393.5</ele>
<time>2003-05-19T10:04:53Z</time>
<speed>1.1</speed>
</trkpt>
<trkpt lat="47.644552" lon="8.615812">
<ele>394.8</ele>
<time>2003-05-19T10:04:58Z</time>
<speed>1.1</speed>
</trkpt>
<trkpt lat="47.644607" lon="8.615848">
<ele>394.6</ele>
<time>2003-05-19T10:05:03Z</time>
<speed>1.1</speed>
</trkpt>
<trkpt lat="47.644680" lon="8.615899">
<ele>395.4</ele>
<time>2003-05-19T10:05:08Z</time>
<speed>1.1</speed>
</trkpt>
<trkpt lat="47.644736" lon="8.615907">
<ele>396.4</ele>
<time>2003-05-19T10:05:13Z</time>
<speed>0.8</speed>
</trkpt>
<trkpt lat="47.644791" lon="8.615944">
<ele>396.2</ele>
<time>2003-05-19T10:05:18Z</time>
<speed>1.1</speed>
</trkpt>
<trkpt lat="47.644853" lon="8.615980">
<ele>396.8</ele>
<time>2003-05-19T10:05:23Z</time>
<speed>0.8</speed>
</trkpt>
<trkpt lat="47.644909" lon="8.616003">
<ele>396.5</ele>
<time>2003-05-19T10:05:28Z</time>
<speed>0.8</speed>
</trkpt>
<trkpt lat="47.644970" lon="8.616039">
<ele>397.1</ele>
<time>2003-05-19T10:05:33Z</time>
<speed>1.1</speed>
</trkpt>
<trkpt lat="47.645053" lon="8.616040">
<ele>396.8</ele>
<time>2003-05-19T10:05:38Z</time>
<speed>0.8</speed>
</trkpt>
<trkpt lat="47.645112" lon="8.616024">
<ele>396.2</ele>
<time>2003-05-19T10:05:43Z</time>
<speed>0.6</speed>
</trkpt>
<trkpt lat="47.645167" lon="8.615902">
<ele>393.3</ele>
<time>2003-05-19T10:05:48Z</time>
<speed>0.6</speed>
</trkpt>
<trkpt lat="47.645203" lon="8.615840">
<ele>393.7</ele>
<time>2003-05-19T10:05:53Z</time>
<speed>0.6</speed>
</trkpt>
<trkpt lat="47.645201" lon="8.615786">
<ele>394.0</ele>
<time>2003-05-19T10:05:58Z</time>
<speed>0.6</speed>
</trkpt>
<trkpt lat="47.645196" lon="8.615757">
<ele>394.4</ele>
<time>2003-05-19T10:06:03Z</time>
<speed>0.3</speed>
</trkpt>
<trkpt lat="47.645195" lon="8.615771">
<ele>394.5</ele>
<time>2003-05-19T10:06:08Z</time>
<speed>0.0</speed>
</trkpt>
<trkpt lat="47.645214" lon="8.615775">
<ele>393.9</ele>
<time>2003-05-19T10:06:13Z</time>
<speed>0.3</speed>
</trkpt>
<trkpt lat="47.645236" lon="8.615831">
<ele>394.5</ele>
<time>2003-05-19T10:06:18Z</time>
<speed>0.8</speed>
</trkpt>
<trkpt lat="47.645267" lon="8.615850">
<ele>394.1</ele>
<time>2003-05-19T10:06:23Z</time>
<speed>0.6</speed>
</trkpt>
<trkpt lat="47.645289" lon="8.615896">
<ele>393.1</ele>
<time>2003-05-19T10:06:28Z</time>
<speed>0.8</speed>
</trkpt>
<trkpt lat="47.645341" lon="8.615972">
<ele>393.3</ele>
<time>2003-05-19T10:06:33Z</time>
<speed>0.8</speed>
</trkpt>
<trkpt lat="47.645410" lon="8.615997">
<ele>393.1</ele>
<time>2003-05-19T10:06:38Z</time>
<speed>1.1</speed>
</trkpt>
<trkpt lat="47.645474" lon="8.616009">
<ele>392.0</ele>
<time>2003-05-19T10:06:43Z</time>
<speed>0.8</speed>
</trkpt>
<trkpt lat="47.645542" lon="8.616047">
<ele>391.9</ele>
<time>2003-05-19T10:06:48Z</time>
<speed>0.8</speed>
</trkpt>
<trkpt lat="47.645611" lon="8.616059">
<ele>391.6</ele>
<time>2003-05-19T10:06:53Z</time>
<speed>0.8</speed>
</trkpt>
<trkpt lat="47.645659" lon="8.616106">
<ele>392.2</ele>
<time>2003-05-19T10:06:58Z</time>
<speed>1.1</speed>
</trkpt>
<trkpt lat="47.645720" lon="8.616143">
<ele>392.8</ele>
<time>2003-05-19T10:07:03Z</time>
<speed>0.8</speed>
</trkpt>
<trkpt lat="47.645762" lon="8.616177">
<ele>392.5</ele>
<time>2003-05-19T10:07:08Z</time>
<speed>0.8</speed>
</trkpt>
<trkpt lat="47.645811" lon="8.616211">
<ele>393.0</ele>
<time>2003-05-19T10:07:13Z</time>
<speed>0.6</speed>
</trkpt>
<trkpt lat="47.645866" lon="8.616247">
<ele>392.8</ele>
<time>2003-05-19T10:07:18Z</time>
<speed>0.6</speed>
</trkpt>
<trkpt lat="47.645935" lon="8.616273">
<ele>392.6</ele>
<time>2003-05-19T10:07:23Z</time>
<speed>0.8</speed>
</trkpt>
<trkpt lat="47.646011" lon="8.616285">
<ele>393.1</ele>
<time>2003-05-19T10:07:28Z</time>
<speed>1.1</speed>
</trkpt>
<trkpt lat="47.646099" lon="8.616314">
<ele>392.3</ele>
<time>2003-05-19T10:07:33Z</time>
<speed>1.1</speed>
</trkpt>
<trkpt lat="47.646160" lon="8.616350">
<ele>392.9</ele>
<time>2003-05-19T10:07:38Z</time>
<speed>0.6</speed>
</trkpt>
<trkpt lat="47.646208" lon="8.616384">
<ele>393.3</ele>
<time>2003-05-19T10:07:43Z</time>
<speed>0.8</speed>
</trkpt>
<trkpt lat="47.646310" lon="8.616402">
<ele>392.5</ele>
<time>2003-05-19T10:07:48Z</time>
<speed>1.1</speed>
</trkpt>
<trkpt lat="47.646394" lon="8.616390">
<ele>392.1</ele>
<time>2003-05-19T10:07:53Z</time>
<speed>1.4</speed>
</trkpt>
<trkpt lat="47.646464" lon="8.616402">
<ele>391.8</ele>
<time>2003-05-19T10:07:58Z</time>
<speed>1.4</speed>
</trkpt>
<trkpt lat="47.646540" lon="8.616416">
<ele>390.8</ele>
<time>2003-05-19T10:08:03Z</time>
<speed>1.4</speed>
</trkpt>
<trkpt lat="47.646616" lon="8.616428">
<ele>391.3</ele>
<time>2003-05-19T10:08:08Z</time>
<speed>1.4</speed>
</trkpt>
<trkpt lat="47.646687" lon="8.616427">
<ele>390.9</ele>
<time>2003-05-19T10:08:13Z</time>
<speed>1.4</speed>
</trkpt>
<trkpt lat="47.646750" lon="8.616437">
<ele>391.2</ele>
<time>2003-05-19T10:08:18Z</time>
<speed>1.4</speed>
</trkpt>
<trkpt lat="47.646827" lon="8.616435">
<ele>391.6</ele>
<time>2003-05-19T10:08:23Z</time>
<speed>1.4</speed>
</trkpt>
<trkpt lat="47.646890" lon="8.616445">
<ele>391.9</ele>
<time>2003-05-19T10:08:28Z</time>
<speed>1.4</speed>
</trkpt>
<trkpt lat="47.646959" lon="8.616457">
<ele>391.6</ele>
<time>2003-05-19T10:08:33Z</time>
<speed>1.4</speed>
</trkpt>
<trkpt lat="47.647029" lon="8.616469">
<ele>391.3</ele>
<time>2003-05-19T10:08:38Z</time>
<speed>1.4</speed>
</trkpt>
<trkpt lat="47.647092" lon="8.616479">
<ele>391.7</ele>
<time>2003-05-19T10:08:43Z</time>
<speed>1.4</speed>
</trkpt>
<trkpt lat="47.647157" lon="8.616478">
<ele>390.5</ele>
<time>2003-05-19T10:08:48Z</time>
<speed>1.4</speed>
</trkpt>
<trkpt lat="47.647227" lon="8.616490">
<ele>390.2</ele>
<time>2003-05-19T10:08:53Z</time>
<speed>1.4</speed>
</trkpt>
<trkpt lat="47.647291" lon="8.616487">
<ele>390.5</ele>
<time>2003-05-19T10:08:58Z</time>
<speed>1.4</speed>
</trkpt>
<trkpt lat="47.647361" lon="8.616499">
<ele>390.2</ele>
<time>2003-05-19T10:09:03Z</time>
<speed>1.4</speed>
</trkpt>
<trkpt lat="47.647430" lon="8.616509">
<ele>391.3</ele>
<time>2003-05-19T10:09:08Z</time>
<speed>1.4</speed>
</trkpt>
<trkpt lat="47.647493" lon="8.616519">
<ele>391.7</ele>
<time>2003-05-19T10:09:13Z</time>
<speed>1.4</speed>
</trkpt>
<trkpt lat="47.647563" lon="8.616531">
<ele>391.4</ele>
<time>2003-05-19T10:09:18Z</time>
<speed>1.4</speed>
</trkpt>
<trkpt lat="47.647620" lon="8.616541">
<ele>391.0</ele>
<time>2003-05-19T10:09:23Z</time>
<speed>1.4</speed>
</trkpt>
<trkpt lat="47.647691" lon="8.616524">
<ele>391.9</ele>
<time>2003-05-19T10:09:28Z</time>
<speed>1.4</speed>
</trkpt>
<trkpt lat="47.647755" lon="8.616521">
<ele>392.2</ele>
<time>2003-05-19T10:09:33Z</time>
<speed>1.4</speed>
</trkpt>
<trkpt lat="47.647822" lon="8.616494">
<ele>390.8</ele>
<time>2003-05-19T10:09:38Z</time>
<speed>1.7</speed>
</trkpt>
<trkpt lat="47.647880" lon="8.616475">
<ele>391.7</ele>
<time>2003-05-19T10:09:43Z</time>
<speed>1.4</speed>
</trkpt>
<trkpt lat="47.647938" lon="8.616472">
<ele>391.2</ele>
<time>2003-05-19T10:09:48Z</time>
<speed>1.1</speed>
</trkpt>
<trkpt lat="47.648005" lon="8.616443">
<ele>391.2</ele>
<time>2003-05-19T10:09:53Z</time>
<speed>1.4</speed>
</trkpt>
<trkpt lat="47.648064" lon="8.616426">
<ele>390.7</ele>
<time>2003-05-19T10:09:58Z</time>
<speed>1.4</speed>
</trkpt>
<trkpt lat="47.648130" lon="8.616397">
<ele>390.7</ele>
<time>2003-05-19T10:10:03Z</time>
<speed>1.4</speed>
</trkpt>
<trkpt lat="47.648197" lon="8.616354">
<ele>390.7</ele>
<time>2003-05-19T10:10:08Z</time>
<speed>1.4</speed>
</trkpt>
<trkpt lat="47.648262" lon="8.616338">
<ele>390.8</ele>
<time>2003-05-19T10:10:13Z</time>
<speed>1.1</speed>
</trkpt>
<trkpt lat="47.648326" lon="8.616334">
<ele>391.1</ele>
<time>2003-05-19T10:10:18Z</time>
<speed>1.4</speed>
</trkpt>
<trkpt lat="47.648405" lon="8.616307">
<ele>391.2</ele>
<time>2003-05-19T10:10:24Z</time>
<speed>1.4</speed>
</trkpt>
<trkpt lat="47.648464" lon="8.616289">
<ele>392.1</ele>
<time>2003-05-19T10:10:29Z</time>
<speed>1.1</speed>
</trkpt>
<trkpt lat="47.648529" lon="8.616272">
<ele>392.2</ele>
<time>2003-05-19T10:10:34Z</time>
<speed>1.4</speed>
</trkpt>
<trkpt lat="47.648594" lon="8.616256">
<ele>392.4</ele>
<time>2003-05-19T10:10:39Z</time>
<speed>1.4</speed>
</trkpt>
<trkpt lat="47.648654" lon="8.616226">
<ele>391.7</ele>
<time>2003-05-19T10:10:44Z</time>
<speed>1.1</speed>
</trkpt>
<trkpt lat="47.648713" lon="8.616210">
<ele>391.1</ele>
<time>2003-05-19T10:10:49Z</time>
<speed>1.4</speed>
</trkpt>
<trkpt lat="47.648778" lon="8.616194">
<ele>391.3</ele>
<time>2003-05-19T10:10:54Z</time>
<speed>1.1</speed>
</trkpt>
<trkpt lat="47.648837" lon="8.616177">
<ele>390.7</ele>
<time>2003-05-19T10:10:59Z</time>
<speed>1.4</speed>
</trkpt>
<trkpt lat="47.648903" lon="8.616148">
<ele>390.8</ele>
<time>2003-05-19T10:11:04Z</time>
<speed>1.4</speed>
</trkpt>
<trkpt lat="47.648969" lon="8.616133">
<ele>389.6</ele>
<time>2003-05-19T10:11:09Z</time>
<speed>1.4</speed>
</trkpt>
<trkpt lat="47.649034" lon="8.616117">
<ele>389.7</ele>
<time>2003-05-19T10:11:14Z</time>
<speed>1.1</speed>
</trkpt>
<trkpt lat="47.649094" lon="8.616086">
<ele>390.4</ele>
<time>2003-05-19T10:11:19Z</time>
<speed>1.4</speed>
</trkpt>
<trkpt lat="47.649164" lon="8.616082">
<ele>391.4</ele>
<time>2003-05-19T10:11:24Z</time>
<speed>1.4</speed>
</trkpt>
<trkpt lat="47.649184" lon="8.616073">
<ele>390.8</ele>
<time>2003-05-19T10:11:29Z</time>
<speed>0.6</speed>
</trkpt>
<trkpt lat="47.649236" lon="8.616068">
<ele>390.9</ele>
<time>2003-05-19T10:11:34Z</time>
<speed>1.1</speed>
</trkpt>
<trkpt lat="47.649306" lon="8.616065">
<ele>391.9</ele>
<time>2003-05-19T10:11:39Z</time>
<speed>1.4</speed>
</trkpt>
<trkpt lat="47.649378" lon="8.616051">
<ele>391.4</ele>
<time>2003-05-19T10:11:44Z</time>
<speed>1.1</speed>
</trkpt>
<trkpt lat="47.649442" lon="8.616047">
<ele>391.7</ele>
<time>2003-05-19T10:11:49Z</time>
<speed>1.4</speed>
</trkpt>
<trkpt lat="47.649506" lon="8.616044">
<ele>392.0</ele>
<time>2003-05-19T10:11:54Z</time>
<speed>1.4</speed>
</trkpt>
<trkpt lat="47.649576" lon="8.616056">
<ele>391.7</ele>
<time>2003-05-19T10:11:59Z</time>
<speed>1.4</speed>
</trkpt>
<trkpt lat="47.649646" lon="8.616053">
<ele>392.7</ele>
<time>2003-05-19T10:12:04Z</time>
<speed>1.4</speed>
</trkpt>
<trkpt lat="47.649717" lon="8.616052">
<ele>392.3</ele>
<time>2003-05-19T10:12:09Z</time>
<speed>1.4</speed>
</trkpt>
<trkpt lat="47.649779" lon="8.616075">
<ele>392.7</ele>
<time>2003-05-19T10:12:14Z</time>
<speed>1.1</speed>
</trkpt>
<trkpt lat="47.649839" lon="8.616126">
<ele>392.0</ele>
<time>2003-05-19T10:12:19Z</time>
<speed>1.4</speed>
</trkpt>
<trkpt lat="47.649901" lon="8.616163">
<ele>392.6</ele>
<time>2003-05-19T10:12:24Z</time>
<speed>1.1</speed>
</trkpt>
<trkpt lat="47.649941" lon="8.616223">
<ele>392.5</ele>
<time>2003-05-19T10:12:29Z</time>
<speed>1.1</speed>
</trkpt>
<trkpt lat="47.649980" lon="8.616218">
<ele>391.2</ele>
<time>2003-05-19T10:12:34Z</time>
<speed>0.3</speed>
</trkpt>
<trkpt lat="47.649981" lon="8.616205">
<ele>391.1</ele>
<time>2003-05-19T10:12:39Z</time>
<speed>0.3</speed>
</trkpt>
<trkpt lat="47.649980" lon="8.616139">
<ele>389.9</ele>
<time>2003-05-19T10:12:44Z</time>
<speed>0.6</speed>
</trkpt>
<trkpt lat="47.649966" lon="8.616084">
<ele>388.7</ele>
<time>2003-05-19T10:12:49Z</time>
<speed>0.3</speed>
</trkpt>
<trkpt lat="47.649963" lon="8.616030">
<ele>388.9</ele>
<time>2003-05-19T10:12:54Z</time>
<speed>0.8</speed>
</trkpt>
<trkpt lat="47.649943" lon="8.615945">
<ele>389.6</ele>
<time>2003-05-19T10:12:59Z</time>
<speed>0.8</speed>
</trkpt>
<trkpt lat="47.649915" lon="8.615886">
<ele>389.7</ele>
<time>2003-05-19T10:13:04Z</time>
<speed>0.6</speed>
</trkpt>
<trkpt lat="47.649901" lon="8.615814">
<ele>391.2</ele>
<time>2003-05-19T10:13:09Z</time>
<speed>0.3</speed>
</trkpt>
<trkpt lat="47.649891" lon="8.615758">
<ele>392.1</ele>
<time>2003-05-19T10:13:14Z</time>
<speed>0.0</speed>
</trkpt>
<trkpt lat="47.649870" lon="8.615699">
<ele>393.0</ele>
<time>2003-05-19T10:13:19Z</time>
<speed>0.3</speed>
</trkpt>
<trkpt lat="47.649848" lon="8.615641">
<ele>393.8</ele>
<time>2003-05-19T10:13:24Z</time>
<speed>0.3</speed>
</trkpt>
<trkpt lat="47.649825" lon="8.615595">
<ele>394.8</ele>
<time>2003-05-19T10:13:29Z</time>
<speed>0.3</speed>
</trkpt>
<trkpt lat="47.649802" lon="8.615550">
<ele>395.8</ele>
<time>2003-05-19T10:13:34Z</time>
<speed>0.3</speed>
</trkpt>
<trkpt lat="47.649772" lon="8.615517">
<ele>396.1</ele>
<time>2003-05-19T10:13:39Z</time>
<speed>0.3</speed>
</trkpt>
<trkpt lat="47.649749" lon="8.615487">
<ele>395.7</ele>
<time>2003-05-19T10:13:44Z</time>
<speed>0.3</speed>
</trkpt>
<trkpt lat="47.649721" lon="8.615426">
<ele>397.2</ele>
<time>2003-05-19T10:13:49Z</time>
<speed>0.3</speed>
</trkpt>
<trkpt lat="47.649706" lon="8.615370">
<ele>397.4</ele>
<time>2003-05-19T10:13:54Z</time>
<speed>0.3</speed>
</trkpt>
<trkpt lat="47.649684" lon="8.615311">
<ele>398.3</ele>
<time>2003-05-19T10:13:59Z</time>
<speed>0.3</speed>
</trkpt>
<trkpt lat="47.649663" lon="8.615255">
<ele>397.7</ele>
<time>2003-05-19T10:14:04Z</time>
<speed>0.3</speed>
</trkpt>
<trkpt lat="47.649628" lon="8.615194">
<ele>398.5</ele>
<time>2003-05-19T10:14:09Z</time>
<speed>0.6</speed>
</trkpt>
<trkpt lat="47.649594" lon="8.615135">
<ele>397.9</ele>
<time>2003-05-19T10:14:14Z</time>
<speed>0.3</speed>
</trkpt>
<trkpt lat="47.649571" lon="8.615090">
<ele>398.9</ele>
<time>2003-05-19T10:14:19Z</time>
<speed>0.8</speed>
</trkpt>
<trkpt lat="47.649536" lon="8.615042">
<ele>399.7</ele>
<time>2003-05-19T10:14:24Z</time>
<speed>0.8</speed>
</trkpt>
<trkpt lat="47.649514" lon="8.614984">
<ele>400.6</ele>
<time>2003-05-19T10:14:29Z</time>
<speed>0.8</speed>
</trkpt>
<trkpt lat="47.649501" lon="8.614901">
<ele>400.6</ele>
<time>2003-05-19T10:14:34Z</time>
<speed>0.3</speed>
</trkpt>
<trkpt lat="47.649498" lon="8.614846">
<ele>400.8</ele>
<time>2003-05-19T10:14:39Z</time>
<speed>0.3</speed>
</trkpt>
<trkpt lat="47.649483" lon="8.614790">
<ele>401.0</ele>
<time>2003-05-19T10:14:44Z</time>
<speed>0.3</speed>
</trkpt>
<trkpt lat="47.649473" lon="8.614746">
<ele>402.1</ele>
<time>2003-05-19T10:14:49Z</time>
<speed>0.3</speed>
</trkpt>
<trkpt lat="47.649459" lon="8.614676">
<ele>402.2</ele>
<time>2003-05-19T10:14:54Z</time>
<speed>0.0</speed>
</trkpt>
<trkpt lat="47.649432" lon="8.614605">
<ele>402.2</ele>
<time>2003-05-19T10:14:59Z</time>
<speed>0.6</speed>
</trkpt>
<trkpt lat="47.649417" lon="8.614548">
<ele>402.4</ele>
<time>2003-05-19T10:15:04Z</time>
<speed>0.6</speed>
</trkpt>
<trkpt lat="47.649395" lon="8.614491">
<ele>401.8</ele>
<time>2003-05-19T10:15:09Z</time>
<speed>0.3</speed>
</trkpt>
<trkpt lat="47.649388" lon="8.614424">
<ele>401.2</ele>
<time>2003-05-19T10:15:14Z</time>
<speed>0.3</speed>
</trkpt>
<trkpt lat="47.649380" lon="8.614356">
<ele>400.7</ele>
<time>2003-05-19T10:15:19Z</time>
<speed>0.6</speed>
</trkpt>
<trkpt lat="47.649419" lon="8.614272">
<ele>398.0</ele>
<time>2003-05-19T10:15:24Z</time>
<speed>0.6</speed>
</trkpt>
<trkpt lat="47.649458" lon="8.614201">
<ele>395.5</ele>
<time>2003-05-19T10:15:29Z</time>
<speed>0.8</speed>
</trkpt>
<trkpt lat="47.649490" lon="8.614130">
<ele>392.2</ele>
<time>2003-05-19T10:15:34Z</time>
<speed>1.1</speed>
</trkpt>
<trkpt lat="47.649509" lon="8.614055">
<ele>390.3</ele>
<time>2003-05-19T10:15:39Z</time>
<speed>0.8</speed>
</trkpt>
<trkpt lat="47.649533" lon="8.614008">
<ele>387.9</ele>
<time>2003-05-19T10:15:44Z</time>
<speed>0.8</speed>
</trkpt>
<trkpt lat="47.649557" lon="8.613963">
<ele>384.1</ele>
<time>2003-05-19T10:15:49Z</time>
<speed>1.1</speed>
</trkpt>
<trkpt lat="47.649570" lon="8.613888">
<ele>381.4</ele>
<time>2003-05-19T10:15:54Z</time>
<speed>0.8</speed>
</trkpt>
<trkpt lat="47.649611" lon="8.613872">
<ele>378.6</ele>
<time>2003-05-19T10:15:59Z</time>
<speed>1.1</speed>
</trkpt>
<trkpt lat="47.649671" lon="8.613843">
<ele>377.9</ele>
<time>2003-05-19T10:16:04Z</time>
<speed>0.8</speed>
</trkpt>
<trkpt lat="47.649726" lon="8.613815">
<ele>375.1</ele>
<time>2003-05-19T10:16:09Z</time>
<speed>1.1</speed>
</trkpt>
<trkpt lat="47.649762" lon="8.613770">
<ele>372.8</ele>
<time>2003-05-19T10:16:14Z</time>
<speed>0.8</speed>
</trkpt>
<trkpt lat="47.649804" lon="8.613724">
<ele>372.6</ele>
<time>2003-05-19T10:16:19Z</time>
<speed>0.8</speed>
</trkpt>
<trkpt lat="47.649860" lon="8.613668">
<ele>371.0</ele>
<time>2003-05-19T10:16:24Z</time>
<speed>1.1</speed>
</trkpt>
<trkpt lat="47.649914" lon="8.613623">
<ele>370.9</ele>
<time>2003-05-19T10:16:29Z</time>
<speed>0.6</speed>
</trkpt>
<trkpt lat="47.649957" lon="8.613563">
<ele>370.6</ele>
<time>2003-05-19T10:16:34Z</time>
<speed>0.8</speed>
</trkpt>
<trkpt lat="47.650018" lon="8.613519">
<ele>371.2</ele>
<time>2003-05-19T10:16:39Z</time>
<speed>0.8</speed>
</trkpt>
<trkpt lat="47.650071" lon="8.613485">
<ele>372.6</ele>
<time>2003-05-19T10:16:44Z</time>
<speed>0.6</speed>
</trkpt>
<trkpt lat="47.650126" lon="8.613425">
<ele>373.8</ele>
<time>2003-05-19T10:16:49Z</time>
<speed>1.1</speed>
</trkpt>
<trkpt lat="47.650169" lon="8.613368">
<ele>372.1</ele>
<time>2003-05-19T10:16:54Z</time>
<speed>1.1</speed>
</trkpt>
<trkpt lat="47.650231" lon="8.613327">
<ele>369.9</ele>
<time>2003-05-19T10:16:59Z</time>
<speed>0.8</speed>
</trkpt>
<trkpt lat="47.650280" lon="8.613284">
<ele>367.7</ele>
<time>2003-05-19T10:17:04Z</time>
<speed>1.1</speed>
</trkpt>
<trkpt lat="47.650336" lon="8.613228">
<ele>366.1</ele>
<time>2003-05-19T10:17:09Z</time>
<speed>0.8</speed>
</trkpt>
<trkpt lat="47.650371" lon="8.613180">
<ele>366.5</ele>
<time>2003-05-19T10:17:14Z</time>
<speed>0.8</speed>
</trkpt>
<trkpt lat="47.650424" lon="8.613161">
<ele>366.6</ele>
<time>2003-05-19T10:17:19Z</time>
<speed>0.8</speed>
</trkpt>
<trkpt lat="47.650471" lon="8.613115">
<ele>367.2</ele>
<time>2003-05-19T10:17:24Z</time>
<speed>0.8</speed>
</trkpt>
<trkpt lat="47.650526" lon="8.613055">
<ele>368.4</ele>
<time>2003-05-19T10:17:29Z</time>
<speed>1.1</speed>
</trkpt>
<trkpt lat="47.650574" lon="8.613008">
<ele>368.9</ele>
<time>2003-05-19T10:17:34Z</time>
<speed>0.8</speed>
</trkpt>
<trkpt lat="47.650615" lon="8.612975">
<ele>368.8</ele>
<time>2003-05-19T10:17:39Z</time>
<speed>0.8</speed>
</trkpt>
<trkpt lat="47.650664" lon="8.612915">
<ele>369.3</ele>
<time>2003-05-19T10:17:44Z</time>
<speed>0.8</speed>
</trkpt>
<trkpt lat="47.650713" lon="8.612855">
<ele>369.7</ele>
<time>2003-05-19T10:17:49Z</time>
<speed>0.6</speed>
</trkpt>
<trkpt lat="47.650743" lon="8.612791">
<ele>370.8</ele>
<time>2003-05-19T10:17:54Z</time>
<speed>0.6</speed>
</trkpt>
<trkpt lat="47.650800" lon="8.612707">
<ele>370.4</ele>
<time>2003-05-19T10:17:59Z</time>
<speed>0.8</speed>
</trkpt>
<trkpt lat="47.650851" lon="8.612621">
<ele>370.6</ele>
<time>2003-05-19T10:18:04Z</time>
<speed>0.6</speed>
</trkpt>
<trkpt lat="47.650883" lon="8.612533">
<ele>370.1</ele>
<time>2003-05-19T10:18:09Z</time>
<speed>0.6</speed>
</trkpt>
<trkpt lat="47.650935" lon="8.612451">
<ele>367.5</ele>
<time>2003-05-19T10:18:14Z</time>
<speed>0.8</speed>
</trkpt>
<trkpt lat="47.650985" lon="8.612393">
<ele>366.6</ele>
<time>2003-05-19T10:18:19Z</time>
<speed>0.8</speed>
</trkpt>
<trkpt lat="47.651044" lon="8.612300">
<ele>363.2</ele>
<time>2003-05-19T10:18:24Z</time>
<speed>1.1</speed>
</trkpt>
<trkpt lat="47.651100" lon="8.612244">
<ele>361.6</ele>
<time>2003-05-19T10:18:29Z</time>
<speed>0.8</speed>
</trkpt>
<trkpt lat="47.651132" lon="8.612171">
<ele>359.8</ele>
<time>2003-05-19T10:18:34Z</time>
<speed>1.1</speed>
</trkpt>
<trkpt lat="47.651188" lon="8.612098">
<ele>360.8</ele>
<time>2003-05-19T10:18:39Z</time>
<speed>0.8</speed>
</trkpt>
<trkpt lat="47.651245" lon="8.612027">
<ele>360.5</ele>
<time>2003-05-19T10:18:44Z</time>
<speed>0.8</speed>
</trkpt>
<trkpt lat="47.651274" lon="8.611978">
<ele>360.3</ele>
<time>2003-05-19T10:18:49Z</time>
<speed>0.8</speed>
</trkpt>
<trkpt lat="47.651311" lon="8.611918">
<ele>359.3</ele>
<time>2003-05-19T10:18:54Z</time>
<speed>0.6</speed>
</trkpt>
<trkpt lat="47.651358" lon="8.611885">
<ele>359.9</ele>
<time>2003-05-19T10:18:59Z</time>
<speed>0.8</speed>
</trkpt>
<trkpt lat="47.651412" lon="8.611838">
<ele>361.2</ele>
<time>2003-05-19T10:19:04Z</time>
<speed>0.6</speed>
</trkpt>
<trkpt lat="47.651442" lon="8.611761">
<ele>362.1</ele>
<time>2003-05-19T10:19:09Z</time>
<speed>0.6</speed>
</trkpt>
<trkpt lat="47.651506" lon="8.611662">
<ele>363.8</ele>
<time>2003-05-19T10:19:14Z</time>
<speed>0.6</speed>
</trkpt>
<trkpt lat="47.651543" lon="8.611600">
<ele>364.2</ele>
<time>2003-05-19T10:19:19Z</time>
<speed>0.6</speed>
</trkpt>
<trkpt lat="47.651593" lon="8.611546">
<ele>360.4</ele>
<time>2003-05-19T10:19:24Z</time>
<speed>0.6</speed>
</trkpt>
<trkpt lat="47.651617" lon="8.611482">
<ele>360.7</ele>
<time>2003-05-19T10:19:29Z</time>
<speed>0.6</speed>
</trkpt>
<trkpt lat="47.651665" lon="8.611436">
<ele>361.3</ele>
<time>2003-05-19T10:19:34Z</time>
<speed>0.8</speed>
</trkpt>
<trkpt lat="47.651713" lon="8.611389">
<ele>361.8</ele>
<time>2003-05-19T10:19:39Z</time>
<speed>0.8</speed>
</trkpt>
<trkpt lat="47.651769" lon="8.611316">
<ele>362.9</ele>
<time>2003-05-19T10:19:44Z</time>
<speed>1.1</speed>
</trkpt>
<trkpt lat="47.651819" lon="8.611243">
<ele>363.3</ele>
<time>2003-05-19T10:19:49Z</time>
<speed>0.8</speed>
</trkpt>
<trkpt lat="47.651850" lon="8.611168">
<ele>362.8</ele>
<time>2003-05-19T10:19:54Z</time>
<speed>0.8</speed>
</trkpt>
<trkpt lat="47.651881" lon="8.611093">
<ele>362.3</ele>
<time>2003-05-19T10:19:59Z</time>
<speed>0.8</speed>
</trkpt>
<trkpt lat="47.651912" lon="8.611018">
<ele>361.9</ele>
<time>2003-05-19T10:20:04Z</time>
<speed>1.1</speed>
</trkpt>
<trkpt lat="47.651925" lon="8.610926">
<ele>361.9</ele>
<time>2003-05-19T10:20:09Z</time>
<speed>0.8</speed>
</trkpt>
<trkpt lat="47.651970" lon="8.610840">
<ele>361.4</ele>
<time>2003-05-19T10:20:14Z</time>
<speed>0.8</speed>
</trkpt>
<trkpt lat="47.651995" lon="8.610763">
<ele>361.6</ele>
<time>2003-05-19T10:20:19Z</time>
<speed>0.8</speed>
</trkpt>
<trkpt lat="47.652032" lon="8.610688">
<ele>361.9</ele>
<time>2003-05-19T10:20:24Z</time>
<speed>0.8</speed>
</trkpt>
<trkpt lat="47.652063" lon="8.610611">
<ele>362.9</ele>
<time>2003-05-19T10:20:29Z</time>
<speed>1.1</speed>
</trkpt>
<trkpt lat="47.652107" lon="8.610538">
<ele>362.5</ele>
<time>2003-05-19T10:20:34Z</time>
<speed>1.1</speed>
</trkpt>
<trkpt lat="47.652138" lon="8.610448">
<ele>363.3</ele>
<time>2003-05-19T10:20:39Z</time>
<speed>0.6</speed>
</trkpt>
<trkpt lat="47.652170" lon="8.610373">
<ele>362.9</ele>
<time>2003-05-19T10:20:44Z</time>
<speed>0.8</speed>
</trkpt>
<trkpt lat="47.652213" lon="8.610300">
<ele>362.5</ele>
<time>2003-05-19T10:20:49Z</time>
<speed>0.8</speed>
</trkpt>
<trkpt lat="47.652256" lon="8.610240">
<ele>362.2</ele>
<time>2003-05-19T10:20:54Z</time>
<speed>0.6</speed>
</trkpt>
<trkpt lat="47.652307" lon="8.610154">
<ele>362.4</ele>
<time>2003-05-19T10:20:59Z</time>
<speed>1.1</speed>
</trkpt>
<trkpt lat="47.652346" lon="8.610068">
<ele>361.2</ele>
<time>2003-05-19T10:21:04Z</time>
<speed>0.8</speed>
</trkpt>
<trkpt lat="47.652368" lon="8.609969">
<ele>357.7</ele>
<time>2003-05-19T10:21:09Z</time>
<speed>1.1</speed>
</trkpt>
<trkpt lat="47.652382" lon="8.609863">
<ele>357.6</ele>
<time>2003-05-19T10:21:14Z</time>
<speed>0.8</speed>
</trkpt>
<trkpt lat="47.652388" lon="8.609769">
<ele>358.3</ele>
<time>2003-05-19T10:21:19Z</time>
<speed>0.8</speed>
</trkpt>
<trkpt lat="47.652408" lon="8.609679">
<ele>357.7</ele>
<time>2003-05-19T10:21:24Z</time>
<speed>0.8</speed>
</trkpt>
<trkpt lat="47.652452" lon="8.609606">
<ele>357.3</ele>
<time>2003-05-19T10:21:29Z</time>
<speed>1.1</speed>
</trkpt>
<trkpt lat="47.652489" lon="8.609531">
<ele>357.6</ele>
<time>2003-05-19T10:21:34Z</time>
<speed>1.1</speed>
</trkpt>
<trkpt lat="47.652533" lon="8.609443">
<ele>358.5</ele>
<time>2003-05-19T10:21:39Z</time>
<speed>1.4</speed>
</trkpt>
<trkpt lat="47.652571" lon="8.609372">
<ele>356.0</ele>
<time>2003-05-19T10:21:44Z</time>
<speed>1.1</speed>
</trkpt>
<trkpt lat="47.652598" lon="8.609269">
<ele>356.0</ele>
<time>2003-05-19T10:21:49Z</time>
<speed>0.8</speed>
</trkpt>
<trkpt lat="47.652606" lon="8.609163">
<ele>355.1</ele>
<time>2003-05-19T10:21:54Z</time>
<speed>1.1</speed>
</trkpt>
<trkpt lat="47.652619" lon="8.609071">
<ele>355.2</ele>
<time>2003-05-19T10:21:59Z</time>
<speed>1.1</speed>
</trkpt>
<trkpt lat="47.652632" lon="8.608979">
<ele>355.2</ele>
<time>2003-05-19T10:22:04Z</time>
<speed>1.1</speed>
</trkpt>
<trkpt lat="47.652651" lon="8.608887">
<ele>356.0</ele>
<time>2003-05-19T10:22:09Z</time>
<speed>1.1</speed>
</trkpt>
<trkpt lat="47.652677" lon="8.608797">
<ele>356.1</ele>
<time>2003-05-19T10:22:14Z</time>
<speed>0.8</speed>
</trkpt>
<trkpt lat="47.652709" lon="8.608707">
<ele>356.9</ele>
<time>2003-05-19T10:22:19Z</time>
<speed>1.1</speed>
</trkpt>
<trkpt lat="47.652722" lon="8.608615">
<ele>357.0</ele>
<time>2003-05-19T10:22:24Z</time>
<speed>1.1</speed>
</trkpt>
<trkpt lat="47.652747" lon="8.608525">
<ele>357.1</ele>
<time>2003-05-19T10:22:29Z</time>
<speed>0.8</speed>
</trkpt>
<trkpt lat="47.652785" lon="8.608450">
<ele>357.4</ele>
<time>2003-05-19T10:22:34Z</time>
<speed>1.1</speed>
</trkpt>
<trkpt lat="47.652814" lon="8.608386">
<ele>358.4</ele>
<time>2003-05-19T10:22:39Z</time>
<speed>0.6</speed>
</trkpt>
<trkpt lat="47.652836" lon="8.608348">
<ele>358.9</ele>
<time>2003-05-19T10:22:44Z</time>
<speed>0.8</speed>
</trkpt>
<trkpt lat="47.652874" lon="8.608260">
<ele>359.1</ele>
<time>2003-05-19T10:22:49Z</time>
<speed>1.1</speed>
</trkpt>
<trkpt lat="47.652904" lon="8.608198">
<ele>358.7</ele>
<time>2003-05-19T10:22:54Z</time>
<speed>0.8</speed>
</trkpt>
<trkpt lat="47.652967" lon="8.608127">
<ele>359.2</ele>
<time>2003-05-19T10:22:59Z</time>
<speed>0.8</speed>
</trkpt>
<trkpt lat="47.653017" lon="8.608054">
<ele>359.5</ele>
<time>2003-05-19T10:23:04Z</time>
<speed>0.8</speed>
</trkpt>
<trkpt lat="47.653049" lon="8.607964">
<ele>360.4</ele>
<time>2003-05-19T10:23:09Z</time>
<speed>0.8</speed>
</trkpt>
<trkpt lat="47.653093" lon="8.607891">
<ele>360.0</ele>
<time>2003-05-19T10:23:14Z</time>
<speed>1.1</speed>
</trkpt>
<trkpt lat="47.653136" lon="8.607818">
<ele>359.6</ele>
<time>2003-05-19T10:23:19Z</time>
<speed>1.1</speed>
</trkpt>
<trkpt lat="47.653174" lon="8.607743">
<ele>359.9</ele>
<time>2003-05-19T10:23:24Z</time>
<speed>0.8</speed>
</trkpt>
<trkpt lat="47.653188" lon="8.607638">
<ele>359.8</ele>
<time>2003-05-19T10:23:29Z</time>
<speed>1.1</speed>
</trkpt>
<trkpt lat="47.653202" lon="8.607533">
<ele>359.7</ele>
<time>2003-05-19T10:23:34Z</time>
<speed>0.8</speed>
</trkpt>
<trkpt lat="47.653210" lon="8.607412">
<ele>360.2</ele>
<time>2003-05-19T10:23:39Z</time>
<speed>1.1</speed>
</trkpt>
<trkpt lat="47.653235" lon="8.607335">
<ele>360.4</ele>
<time>2003-05-19T10:23:44Z</time>
<speed>1.1</speed>
</trkpt>
<trkpt lat="47.653247" lon="8.607256">
<ele>360.6</ele>
<time>2003-05-19T10:23:49Z</time>
<speed>0.8</speed>
</trkpt>
<trkpt lat="47.653260" lon="8.607164">
<ele>360.6</ele>
<time>2003-05-19T10:23:54Z</time>
<speed>0.8</speed>
</trkpt>
<trkpt lat="47.653240" lon="8.607079">
<ele>361.3</ele>
<time>2003-05-19T10:23:59Z</time>
<speed>0.8</speed>
</trkpt>
<trkpt lat="47.653267" lon="8.606976">
<ele>361.3</ele>
<time>2003-05-19T10:24:04Z</time>
<speed>0.8</speed>
</trkpt>
<trkpt lat="47.653290" lon="8.606912">
<ele>361.6</ele>
<time>2003-05-19T10:24:09Z</time>
<speed>0.6</speed>
</trkpt>
<trkpt lat="47.653297" lon="8.606818">
<ele>362.3</ele>
<time>2003-05-19T10:24:14Z</time>
<speed>0.8</speed>
</trkpt>
<trkpt lat="47.653310" lon="8.606726">
<ele>362.3</ele>
<time>2003-05-19T10:24:19Z</time>
<speed>0.8</speed>
</trkpt>
<trkpt lat="47.653297" lon="8.606643">
<ele>362.3</ele>
<time>2003-05-19T10:24:24Z</time>
<speed>0.6</speed>
</trkpt>
<trkpt lat="47.653305" lon="8.606522">
<ele>362.8</ele>
<time>2003-05-19T10:24:29Z</time>
<speed>1.1</speed>
</trkpt>
<trkpt lat="47.653310" lon="8.606442">
<ele>363.6</ele>
<time>2003-05-19T10:24:34Z</time>
<speed>0.8</speed>
</trkpt>
<trkpt lat="47.653316" lon="8.606361">
<ele>364.4</ele>
<time>2003-05-19T10:24:39Z</time>
<speed>0.6</speed>
</trkpt>
<trkpt lat="47.653299" lon="8.606236">
<ele>364.7</ele>
<time>2003-05-19T10:24:44Z</time>
<speed>1.1</speed>
</trkpt>
<trkpt lat="47.653269" lon="8.606125">
<ele>363.7</ele>
<time>2003-05-19T10:24:49Z</time>
<speed>1.1</speed>
</trkpt>
<trkpt lat="47.653251" lon="8.606014">
<ele>364.2</ele>
<time>2003-05-19T10:24:54Z</time>
<speed>1.1</speed>
</trkpt>
<trkpt lat="47.653245" lon="8.605917">
<ele>364.8</ele>
<time>2003-05-19T10:24:59Z</time>
<speed>0.8</speed>
</trkpt>
<trkpt lat="47.653225" lon="8.605833">
<ele>365.5</ele>
<time>2003-05-19T10:25:04Z</time>
<speed>0.8</speed>
</trkpt>
<trkpt lat="47.653200" lon="8.605734">
<ele>365.3</ele>
<time>2003-05-19T10:25:09Z</time>
<speed>1.1</speed>
</trkpt>
<trkpt lat="47.653158" lon="8.605623">
<ele>362.8</ele>
<time>2003-05-19T10:25:14Z</time>
<speed>0.8</speed>
</trkpt>
<trkpt lat="47.653119" lon="8.605549">
<ele>362.7</ele>
<time>2003-05-19T10:25:19Z</time>
<speed>0.8</speed>
</trkpt>
<trkpt lat="47.653066" lon="8.605472">
<ele>364.0</ele>
<time>2003-05-19T10:25:24Z</time>
<speed>0.6</speed>
</trkpt>
<trkpt lat="47.653019" lon="8.605409">
<ele>364.7</ele>
<time>2003-05-19T10:25:29Z</time>
<speed>0.8</speed>
</trkpt>
<trkpt lat="47.652976" lon="8.605373">
<ele>366.3</ele>
<time>2003-05-19T10:25:34Z</time>
<speed>0.6</speed>
</trkpt>
<trkpt lat="47.652941" lon="8.605325">
<ele>367.2</ele>
<time>2003-05-19T10:25:39Z</time>
<speed>0.6</speed>
</trkpt>
<trkpt lat="47.652906" lon="8.605265">
<ele>368.0</ele>
<time>2003-05-19T10:25:44Z</time>
<speed>0.6</speed>
</trkpt>
<trkpt lat="47.652866" lon="8.605204">
<ele>368.1</ele>
<time>2003-05-19T10:25:49Z</time>
<speed>0.6</speed>
</trkpt>
<trkpt lat="47.652822" lon="8.605104">
<ele>367.1</ele>
<time>2003-05-19T10:25:54Z</time>
<speed>0.8</speed>
</trkpt>
<trkpt lat="47.652770" lon="8.605028">
<ele>366.9</ele>
<time>2003-05-19T10:25:59Z</time>
<speed>1.1</speed>
</trkpt>
<trkpt lat="47.652726" lon="8.604941">
<ele>366.0</ele>
<time>2003-05-19T10:26:05Z</time>
<speed>0.6</speed>
</trkpt>
<trkpt lat="47.652667" lon="8.604879">
<ele>365.3</ele>
<time>2003-05-19T10:26:10Z</time>
<speed>0.8</speed>
</trkpt>
<trkpt lat="47.652619" lon="8.604816">
<ele>366.0</ele>
<time>2003-05-19T10:26:15Z</time>
<speed>0.6</speed>
</trkpt>
<trkpt lat="47.652575" lon="8.604729">
<ele>365.1</ele>
<time>2003-05-19T10:26:20Z</time>
<speed>0.8</speed>
</trkpt>
<trkpt lat="47.652535" lon="8.604655">
<ele>365.0</ele>
<time>2003-05-19T10:26:25Z</time>
<speed>0.6</speed>
</trkpt>
<trkpt lat="47.652477" lon="8.604580">
<ele>364.1</ele>
<time>2003-05-19T10:26:30Z</time>
<speed>1.1</speed>
</trkpt>
<trkpt lat="47.652396" lon="8.604474">
<ele>362.9</ele>
<time>2003-05-19T10:26:35Z</time>
<speed>1.4</speed>
</trkpt>
<trkpt lat="47.652337" lon="8.604396">
<ele>363.5</ele>
<time>2003-05-19T10:26:40Z</time>
<speed>1.1</speed>
</trkpt>
<trkpt lat="47.652277" lon="8.604331">
<ele>364.1</ele>
<time>2003-05-19T10:26:45Z</time>
<speed>1.1</speed>
</trkpt>
<trkpt lat="47.652242" lon="8.604284">
<ele>365.0</ele>
<time>2003-05-19T10:26:50Z</time>
<speed>1.1</speed>
</trkpt>
<trkpt lat="47.652218" lon="8.604267">
<ele>364.7</ele>
<time>2003-05-19T10:26:55Z</time>
<speed>0.8</speed>
</trkpt>
<trkpt lat="47.652164" lon="8.604217">
<ele>364.8</ele>
<time>2003-05-19T10:27:00Z</time>
<speed>0.6</speed>
</trkpt>
<trkpt lat="47.652115" lon="8.604181">
<ele>365.7</ele>
<time>2003-05-19T10:27:05Z</time>
<speed>0.6</speed>
</trkpt>
<trkpt lat="47.652062" lon="8.604120">
<ele>364.3</ele>
<time>2003-05-19T10:27:10Z</time>
<speed>0.8</speed>
</trkpt>
<trkpt lat="47.652002" lon="8.604056">
<ele>364.9</ele>
<time>2003-05-19T10:27:15Z</time>
<speed>1.1</speed>
</trkpt>
<trkpt lat="47.651950" lon="8.603995">
<ele>363.5</ele>
<time>2003-05-19T10:27:20Z</time>
<speed>0.8</speed>
</trkpt>
<trkpt lat="47.651889" lon="8.603944">
<ele>364.2</ele>
<time>2003-05-19T10:27:25Z</time>
<speed>0.8</speed>
</trkpt>
<trkpt lat="47.651830" lon="8.603881">
<ele>363.5</ele>
<time>2003-05-19T10:27:30Z</time>
<speed>1.1</speed>
</trkpt>
<trkpt lat="47.651770" lon="8.603832">
<ele>362.8</ele>
<time>2003-05-19T10:27:35Z</time>
<speed>0.8</speed>
</trkpt>
<trkpt lat="47.651715" lon="8.603795">
<ele>363.0</ele>
<time>2003-05-19T10:27:40Z</time>
<speed>0.8</speed>
</trkpt>
<trkpt lat="47.651673" lon="8.603748">
<ele>363.1</ele>
<time>2003-05-19T10:27:45Z</time>
<speed>0.8</speed>
</trkpt>
<trkpt lat="47.651620" lon="8.603685">
<ele>363.1</ele>
<time>2003-05-19T10:27:50Z</time>
<speed>1.1</speed>
</trkpt>
<trkpt lat="47.651555" lon="8.603608">
<ele>362.9</ele>
<time>2003-05-19T10:27:55Z</time>
<speed>1.4</speed>
</trkpt>
<trkpt lat="47.651500" lon="8.603571">
<ele>363.1</ele>
<time>2003-05-19T10:28:00Z</time>
<speed>1.1</speed>
</trkpt>
<trkpt lat="47.651434" lon="8.603507">
<ele>363.0</ele>
<time>2003-05-19T10:28:05Z</time>
<speed>1.1</speed>
</trkpt>
<trkpt lat="47.651376" lon="8.603431">
<ele>362.1</ele>
<time>2003-05-19T10:28:10Z</time>
<speed>0.8</speed>
</trkpt>
<trkpt lat="47.651307" lon="8.603359">
<ele>356.9</ele>
<time>2003-05-19T10:28:15Z</time>
<speed>0.8</speed>
</trkpt>
<trkpt lat="47.651249" lon="8.603283">
<ele>356.1</ele>
<time>2003-05-19T10:28:20Z</time>
<speed>0.8</speed>
</trkpt>
<trkpt lat="47.651171" lon="8.603204">
<ele>355.8</ele>
<time>2003-05-19T10:28:25Z</time>
<speed>1.4</speed>
</trkpt>
<trkpt lat="47.651107" lon="8.603126">
<ele>355.6</ele>
<time>2003-05-19T10:28:30Z</time>
<speed>0.6</speed>
</trkpt>
<trkpt lat="47.651066" lon="8.603065">
<ele>355.6</ele>
<time>2003-05-19T10:28:35Z</time>
<speed>1.1</speed>
</trkpt>
<trkpt lat="47.651001" lon="8.602988">
<ele>355.4</ele>
<time>2003-05-19T10:28:40Z</time>
<speed>1.4</speed>
</trkpt>
<trkpt lat="47.650924" lon="8.602908">
<ele>355.1</ele>
<time>2003-05-19T10:28:45Z</time>
<speed>1.1</speed>
</trkpt>
<trkpt lat="47.650889" lon="8.602860">
<ele>356.0</ele>
<time>2003-05-19T10:28:50Z</time>
<speed>1.1</speed>
</trkpt>
<trkpt lat="47.650839" lon="8.602824">
<ele>356.9</ele>
<time>2003-05-19T10:28:55Z</time>
<speed>0.8</speed>
</trkpt>
<trkpt lat="47.650791" lon="8.602775">
<ele>357.8</ele>
<time>2003-05-19T10:29:00Z</time>
<speed>0.8</speed>
</trkpt>
<trkpt lat="47.650736" lon="8.602738">
<ele>357.9</ele>
<time>2003-05-19T10:29:05Z</time>
<speed>0.8</speed>
</trkpt>
<trkpt lat="47.650694" lon="8.602704">
<ele>358.2</ele>
<time>2003-05-19T10:29:10Z</time>
<speed>0.6</speed>
</trkpt>
<trkpt lat="47.650651" lon="8.602670">
<ele>358.4</ele>
<time>2003-05-19T10:29:15Z</time>
<speed>0.8</speed>
</trkpt>
<trkpt lat="47.650609" lon="8.602636">
<ele>358.7</ele>
<time>2003-05-19T10:29:20Z</time>
<speed>0.8</speed>
</trkpt>
<trkpt lat="47.650574" lon="8.602590">
<ele>358.1</ele>
<time>2003-05-19T10:29:25Z</time>
<speed>0.6</speed>
</trkpt>
<trkpt lat="47.650518" lon="8.602567">
<ele>358.4</ele>
<time>2003-05-19T10:29:30Z</time>
<speed>0.8</speed>
</trkpt>
<trkpt lat="47.650463" lon="8.602531">
<ele>358.6</ele>
<time>2003-05-19T10:29:35Z</time>
<speed>1.1</speed>
</trkpt>
<trkpt lat="47.650395" lon="8.602508">
<ele>357.4</ele>
<time>2003-05-19T10:29:40Z</time>
<speed>0.8</speed>
</trkpt>
<trkpt lat="47.650346" lon="8.602473">
<ele>356.9</ele>
<time>2003-05-19T10:29:45Z</time>
<speed>0.8</speed>
</trkpt>
<trkpt lat="47.650271" lon="8.602448">
<ele>356.3</ele>
<time>2003-05-19T10:29:50Z</time>
<speed>1.1</speed>
</trkpt>
<trkpt lat="47.650209" lon="8.602423">
<ele>357.3</ele>
<time>2003-05-19T10:29:55Z</time>
<speed>0.8</speed>
</trkpt>
<trkpt lat="47.650135" lon="8.602385">
<ele>356.6</ele>
<time>2003-05-19T10:30:00Z</time>
<speed>1.1</speed>
</trkpt>
<trkpt lat="47.650067" lon="8.602347">
<ele>356.7</ele>
<time>2003-05-19T10:30:05Z</time>
<speed>1.4</speed>
</trkpt>
<trkpt lat="47.650007" lon="8.602282">
<ele>357.4</ele>
<time>2003-05-19T10:30:10Z</time>
<speed>0.8</speed>
</trkpt>
<trkpt lat="47.649951" lon="8.602259">
<ele>357.7</ele>
<time>2003-05-19T10:30:15Z</time>
<speed>1.1</speed>
</trkpt>
<trkpt lat="47.649880" lon="8.602181">
<ele>356.7</ele>
<time>2003-05-19T10:30:20Z</time>
<speed>1.1</speed>
</trkpt>
<trkpt lat="47.649819" lon="8.602145">
<ele>356.2</ele>
<time>2003-05-19T10:30:25Z</time>
<speed>1.1</speed>
</trkpt>
<trkpt lat="47.649745" lon="8.602107">
<ele>355.5</ele>
<time>2003-05-19T10:30:30Z</time>
<speed>1.4</speed>
</trkpt>
<trkpt lat="47.649683" lon="8.602084">
<ele>355.0</ele>
<time>2003-05-19T10:30:35Z</time>
<speed>1.4</speed>
</trkpt>
<trkpt lat="47.649614" lon="8.602072">
<ele>355.3</ele>
<time>2003-05-19T10:30:40Z</time>
<speed>1.1</speed>
</trkpt>
<trkpt lat="47.649551" lon="8.602048">
<ele>354.9</ele>
<time>2003-05-19T10:30:45Z</time>
<speed>1.7</speed>
</trkpt>
<trkpt lat="47.649487" lon="8.602052">
<ele>354.6</ele>
<time>2003-05-19T10:30:50Z</time>
<speed>1.1</speed>
</trkpt>
<trkpt lat="47.649418" lon="8.602040">
<ele>354.9</ele>
<time>2003-05-19T10:30:55Z</time>
<speed>1.1</speed>
</trkpt>
<trkpt lat="47.649348" lon="8.602030">
<ele>353.8</ele>
<time>2003-05-19T10:31:00Z</time>
<speed>0.8</speed>
</trkpt>
<trkpt lat="47.649293" lon="8.602009">
<ele>352.7</ele>
<time>2003-05-19T10:31:05Z</time>
<speed>1.1</speed>
</trkpt>
<trkpt lat="47.649236" lon="8.601999">
<ele>353.1</ele>
<time>2003-05-19T10:31:10Z</time>
<speed>0.8</speed>
</trkpt>
<trkpt lat="47.649175" lon="8.601964">
<ele>351.1</ele>
<time>2003-05-19T10:31:15Z</time>
<speed>0.8</speed>
</trkpt>
<trkpt lat="47.649119" lon="8.601941">
<ele>351.4</ele>
<time>2003-05-19T10:31:20Z</time>
<speed>1.1</speed>
</trkpt>
<trkpt lat="47.649058" lon="8.601905">
<ele>350.8</ele>
<time>2003-05-19T10:31:25Z</time>
<speed>1.1</speed>
</trkpt>
<trkpt lat="47.648978" lon="8.601852">
<ele>350.7</ele>
<time>2003-05-19T10:31:30Z</time>
<speed>1.7</speed>
</trkpt>
<trkpt lat="47.648893" lon="8.601798">
<ele>349.9</ele>
<time>2003-05-19T10:31:35Z</time>
<speed>1.7</speed>
</trkpt>
<trkpt lat="47.648824" lon="8.601773">
<ele>350.1</ele>
<time>2003-05-19T10:31:40Z</time>
<speed>1.4</speed>
</trkpt>
<trkpt lat="47.648755" lon="8.601748">
<ele>350.3</ele>
<time>2003-05-19T10:31:45Z</time>
<speed>1.4</speed>
</trkpt>
<trkpt lat="47.648698" lon="8.601753">
<ele>349.4</ele>
<time>2003-05-19T10:31:50Z</time>
<speed>1.1</speed>
</trkpt>
<trkpt lat="47.648643" lon="8.601798">
<ele>349.5</ele>
<time>2003-05-19T10:31:55Z</time>
<speed>1.4</speed>
</trkpt>
<trkpt lat="47.648584" lon="8.601829">
<ele>348.8</ele>
<time>2003-05-19T10:32:00Z</time>
<speed>1.1</speed>
</trkpt>
<trkpt lat="47.648519" lon="8.601846">
<ele>348.6</ele>
<time>2003-05-19T10:32:05Z</time>
<speed>1.1</speed>
</trkpt>
<trkpt lat="47.648459" lon="8.601877">
<ele>347.9</ele>
<time>2003-05-19T10:32:10Z</time>
<speed>1.1</speed>
</trkpt>
<trkpt lat="47.648394" lon="8.601894">
<ele>347.7</ele>
<time>2003-05-19T10:32:15Z</time>
<speed>1.1</speed>
</trkpt>
<trkpt lat="47.648322" lon="8.601908">
<ele>348.2</ele>
<time>2003-05-19T10:32:20Z</time>
<speed>1.1</speed>
</trkpt>
<trkpt lat="47.648257" lon="8.601924">
<ele>348.0</ele>
<time>2003-05-19T10:32:25Z</time>
<speed>1.1</speed>
</trkpt>
<trkpt lat="47.648199" lon="8.601943">
<ele>347.2</ele>
<time>2003-05-19T10:32:30Z</time>
<speed>1.1</speed>
</trkpt>
<trkpt lat="47.648127" lon="8.601957">
<ele>347.7</ele>
<time>2003-05-19T10:32:35Z</time>
<speed>1.1</speed>
</trkpt>
<trkpt lat="47.648069" lon="8.601962">
<ele>346.8</ele>
<time>2003-05-19T10:32:40Z</time>
<speed>0.8</speed>
</trkpt>
<trkpt lat="47.648004" lon="8.601979">
<ele>346.6</ele>
<time>2003-05-19T10:32:45Z</time>
<speed>1.1</speed>
</trkpt>
<trkpt lat="47.647939" lon="8.601995">
<ele>346.5</ele>
<time>2003-05-19T10:32:50Z</time>
<speed>1.4</speed>
</trkpt>
<trkpt lat="47.647874" lon="8.602011">
<ele>346.3</ele>
<time>2003-05-19T10:32:55Z</time>
<speed>1.1</speed>
</trkpt>
<trkpt lat="47.647828" lon="8.602017">
<ele>346.8</ele>
<time>2003-05-19T10:33:00Z</time>
<speed>0.8</speed>
</trkpt>
<trkpt lat="47.647776" lon="8.602035">
<ele>346.8</ele>
<time>2003-05-19T10:33:05Z</time>
<speed>1.1</speed>
</trkpt>
<trkpt lat="47.647708" lon="8.601997">
<ele>346.9</ele>
<time>2003-05-19T10:33:10Z</time>
<speed>1.1</speed>
</trkpt>
<trkpt lat="47.647660" lon="8.601962">
<ele>346.4</ele>
<time>2003-05-19T10:33:15Z</time>
<speed>0.8</speed>
</trkpt>
<trkpt lat="47.647593" lon="8.601911">
<ele>346.4</ele>
<time>2003-05-19T10:33:20Z</time>
<speed>0.8</speed>
</trkpt>
<trkpt lat="47.647549" lon="8.601890">
<ele>346.7</ele>
<time>2003-05-19T10:33:25Z</time>
<speed>0.8</speed>
</trkpt>
<trkpt lat="47.647495" lon="8.601838">
<ele>348.2</ele>
<time>2003-05-19T10:33:30Z</time>
<speed>1.1</speed>
</trkpt>
<trkpt lat="47.647439" lon="8.601815">
<ele>348.5</ele>
<time>2003-05-19T10:33:35Z</time>
<speed>0.8</speed>
</trkpt>
<trkpt lat="47.647394" lon="8.601823">
<ele>347.6</ele>
<time>2003-05-19T10:33:40Z</time>
<speed>0.8</speed>
</trkpt>
<trkpt lat="47.647354" lon="8.601843">
<ele>347.6</ele>
<time>2003-05-19T10:33:45Z</time>
<speed>0.6</speed>
</trkpt>
<trkpt lat="47.647326" lon="8.601863">
<ele>349.0</ele>
<time>2003-05-19T10:33:50Z</time>
<speed>0.3</speed>
</trkpt>
<trkpt lat="47.647276" lon="8.601855">
<ele>348.8</ele>
<time>2003-05-19T10:33:55Z</time>
<speed>0.8</speed>
</trkpt>
<trkpt lat="47.647218" lon="8.601845">
<ele>349.1</ele>
<time>2003-05-19T10:34:00Z</time>
<speed>0.8</speed>
</trkpt>
<trkpt lat="47.647176" lon="8.601811">
<ele>349.4</ele>
<time>2003-05-19T10:34:05Z</time>
<speed>0.6</speed>
</trkpt>
<trkpt lat="47.647133" lon="8.601790">
<ele>349.7</ele>
<time>2003-05-19T10:34:10Z</time>
<speed>0.8</speed>
</trkpt>
<trkpt lat="47.647109" lon="8.601760">
<ele>349.4</ele>
<time>2003-05-19T10:34:15Z</time>
<speed>0.3</speed>
</trkpt>
<trkpt lat="47.647072" lon="8.601740">
<ele>349.1</ele>
<time>2003-05-19T10:34:20Z</time>
<speed>0.6</speed>
</trkpt>
<trkpt lat="47.647041" lon="8.601735">
<ele>349.6</ele>
<time>2003-05-19T10:34:25Z</time>
<speed>0.6</speed>
</trkpt>
<trkpt lat="47.647014" lon="8.601744">
<ele>349.5</ele>
<time>2003-05-19T10:34:30Z</time>
<speed>0.6</speed>
</trkpt>
<trkpt lat="47.646971" lon="8.601723">
<ele>349.9</ele>
<time>2003-05-19T10:34:35Z</time>
<speed>0.8</speed>
</trkpt>
<trkpt lat="47.646936" lon="8.601677">
<ele>349.4</ele>
<time>2003-05-19T10:34:40Z</time>
<speed>0.8</speed>
</trkpt>
<trkpt lat="47.646913" lon="8.601647">
<ele>349.0</ele>
<time>2003-05-19T10:34:45Z</time>
<speed>0.0</speed>
</trkpt>
<trkpt lat="47.646919" lon="8.601647">
<ele>349.8</ele>
<time>2003-05-19T10:34:50Z</time>
<speed>0.0</speed>
</trkpt>
<trkpt lat="47.646916" lon="8.601686">
<ele>350.1</ele>
<time>2003-05-19T10:34:55Z</time>
<speed>0.3</speed>
</trkpt>
<trkpt lat="47.646889" lon="8.601695">
<ele>350.0</ele>
<time>2003-05-19T10:35:00Z</time>
<speed>0.6</speed>
</trkpt>
<trkpt lat="47.646866" lon="8.601680">
<ele>348.4</ele>
<time>2003-05-19T10:35:05Z</time>
<speed>0.0</speed>
</trkpt>
<trkpt lat="47.646861" lon="8.601669">
<ele>346.1</ele>
<time>2003-05-19T10:35:10Z</time>
<speed>0.0</speed>
</trkpt>
<trkpt lat="47.646857" lon="8.601658">
<ele>343.9</ele>
<time>2003-05-19T10:35:15Z</time>
<speed>0.0</speed>
</trkpt>
<trkpt lat="47.646864" lon="8.601647">
<ele>343.1</ele>
<time>2003-05-19T10:35:20Z</time>
<speed>0.0</speed>
</trkpt>
<trkpt lat="47.646858" lon="8.601647">
<ele>342.4</ele>
<time>2003-05-19T10:35:25Z</time>
<speed>0.0</speed>
</trkpt>
<trkpt lat="47.646858" lon="8.601647">
<ele>342.4</ele>
<time>2003-05-19T10:35:30Z</time>
<speed>0.0</speed>
</trkpt>
<trkpt lat="47.646859" lon="8.601649">
<ele>341.0</ele>
<time>2003-05-19T10:35:35Z</time>
<speed>0.0</speed>
</trkpt>
<trkpt lat="47.646854" lon="8.601636">
<ele>340.1</ele>
<time>2003-05-19T10:35:40Z</time>
<speed>0.0</speed>
</trkpt>
<trkpt lat="47.646859" lon="8.601649">
<ele>341.0</ele>
<time>2003-05-19T10:35:45Z</time>
<speed>0.0</speed>
</trkpt>
<trkpt lat="47.646859" lon="8.601649">
<ele>341.0</ele>
<time>2003-05-19T10:35:50Z</time>
<speed>0.0</speed>
</trkpt>
<trkpt lat="47.646859" lon="8.601649">
<ele>341.0</ele>
<time>2003-05-19T10:35:55Z</time>
<speed>0.0</speed>
</trkpt>
<trkpt lat="47.646859" lon="8.601649">
<ele>341.0</ele>
<time>2003-05-19T10:36:00Z</time>
<speed>0.0</speed>
</trkpt>
<trkpt lat="47.646865" lon="8.601651">
<ele>340.3</ele>
<time>2003-05-19T10:36:05Z</time>
<speed>0.3</speed>
</trkpt>
<trkpt lat="47.646914" lon="8.601670">
<ele>342.1</ele>
<time>2003-05-19T10:36:11Z</time>
<speed>0.3</speed>
</trkpt>
<trkpt lat="47.646921" lon="8.601657">
<ele>342.7</ele>
<time>2003-05-19T10:36:16Z</time>
<speed>0.3</speed>
</trkpt>
<trkpt lat="47.646911" lon="8.601613">
<ele>343.8</ele>
<time>2003-05-19T10:36:21Z</time>
<speed>0.3</speed>
</trkpt>
<trkpt lat="47.646911" lon="8.601613">
<ele>343.8</ele>
<time>2003-05-19T10:36:26Z</time>
<speed>0.0</speed>
</trkpt>
<trkpt lat="47.646911" lon="8.601613">
<ele>343.8</ele>
<time>2003-05-19T10:36:31Z</time>
<speed>0.0</speed>
</trkpt>
<trkpt lat="47.646911" lon="8.601613">
<ele>343.8</ele>
<time>2003-05-19T10:36:36Z</time>
<speed>0.0</speed>
</trkpt>
<trkpt lat="47.646904" lon="8.601626">
<ele>343.1</ele>
<time>2003-05-19T10:36:41Z</time>
<speed>0.0</speed>
</trkpt>
<trkpt lat="47.646904" lon="8.601626">
<ele>343.1</ele>
<time>2003-05-19T10:36:46Z</time>
<speed>0.0</speed>
</trkpt>
<trkpt lat="47.646898" lon="8.601626">
<ele>342.4</ele>
<time>2003-05-19T10:36:51Z</time>
<speed>0.0</speed>
</trkpt>
<trkpt lat="47.646898" lon="8.601626">
<ele>342.4</ele>
<time>2003-05-19T10:36:56Z</time>
<speed>0.0</speed>
</trkpt>
<trkpt lat="47.646898" lon="8.601626">
<ele>342.4</ele>
<time>2003-05-19T10:37:01Z</time>
<speed>0.0</speed>
</trkpt>
<trkpt lat="47.646898" lon="8.601626">
<ele>342.4</ele>
<time>2003-05-19T10:37:06Z</time>
<speed>0.0</speed>
</trkpt>
<trkpt lat="47.646892" lon="8.601626">
<ele>341.6</ele>
<time>2003-05-19T10:37:11Z</time>
<speed>0.0</speed>
</trkpt>
<trkpt lat="47.646893" lon="8.601613">
<ele>341.5</ele>
<time>2003-05-19T10:37:16Z</time>
<speed>0.0</speed>
</trkpt>
<trkpt lat="47.646856" lon="8.601594">
<ele>341.2</ele>
<time>2003-05-19T10:37:21Z</time>
<speed>1.1</speed>
</trkpt>
<trkpt lat="47.646826" lon="8.601562">
<ele>341.5</ele>
<time>2003-05-19T10:37:26Z</time>
<speed>0.8</speed>
</trkpt>
<trkpt lat="47.646796" lon="8.601530">
<ele>341.9</ele>
<time>2003-05-19T10:37:31Z</time>
<speed>0.8</speed>
</trkpt>
<trkpt lat="47.646761" lon="8.601482">
<ele>342.7</ele>
<time>2003-05-19T10:37:36Z</time>
<speed>0.6</speed>
</trkpt>
<trkpt lat="47.646726" lon="8.601437">
<ele>342.2</ele>
<time>2003-05-19T10:37:41Z</time>
<speed>0.8</speed>
</trkpt>
<trkpt lat="47.646690" lon="8.601402">
<ele>343.2</ele>
<time>2003-05-19T10:37:46Z</time>
<speed>0.8</speed>
</trkpt>
<trkpt lat="47.646649" lon="8.601342">
<ele>343.2</ele>
<time>2003-05-19T10:37:51Z</time>
<speed>0.8</speed>
</trkpt>
<trkpt lat="47.646614" lon="8.601296">
<ele>342.7</ele>
<time>2003-05-19T10:37:56Z</time>
<speed>1.1</speed>
</trkpt>
<trkpt lat="47.646573" lon="8.601249">
<ele>342.9</ele>
<time>2003-05-19T10:38:01Z</time>
<speed>0.8</speed>
</trkpt>
<trkpt lat="47.646546" lon="8.601177">
<ele>342.9</ele>
<time>2003-05-19T10:38:06Z</time>
<speed>1.1</speed>
</trkpt>
<trkpt lat="47.646519" lon="8.601105">
<ele>342.9</ele>
<time>2003-05-19T10:38:11Z</time>
<speed>0.3</speed>
</trkpt>
<trkpt lat="47.646501" lon="8.601088">
<ele>343.4</ele>
<time>2003-05-19T10:38:16Z</time>
<speed>0.6</speed>
</trkpt>
<trkpt lat="47.646459" lon="8.601041">
<ele>343.5</ele>
<time>2003-05-19T10:38:21Z</time>
<speed>0.6</speed>
</trkpt>
<trkpt lat="47.646411" lon="8.600991">
<ele>344.4</ele>
<time>2003-05-19T10:38:26Z</time>
<speed>1.4</speed>
</trkpt>
<trkpt lat="47.646356" lon="8.600955">
<ele>344.5</ele>
<time>2003-05-19T10:38:31Z</time>
<speed>0.8</speed>
</trkpt>
<trkpt lat="47.646322" lon="8.600897">
<ele>343.9</ele>
<time>2003-05-19T10:38:36Z</time>
<speed>0.8</speed>
</trkpt>
<trkpt lat="47.646293" lon="8.600851">
<ele>344.1</ele>
<time>2003-05-19T10:38:41Z</time>
<speed>0.6</speed>
</trkpt>
<trkpt lat="47.646254" lon="8.600777">
<ele>344.1</ele>
<time>2003-05-19T10:38:46Z</time>
<speed>1.1</speed>
</trkpt>
<trkpt lat="47.646212" lon="8.600730">
<ele>344.2</ele>
<time>2003-05-19T10:38:51Z</time>
<speed>0.8</speed>
</trkpt>
<trkpt lat="47.646171" lon="8.600682">
<ele>344.4</ele>
<time>2003-05-19T10:38:56Z</time>
<speed>0.6</speed>
</trkpt>
<trkpt lat="47.646142" lon="8.600637">
<ele>344.6</ele>
<time>2003-05-19T10:39:01Z</time>
<speed>0.6</speed>
</trkpt>
<trkpt lat="47.646103" lon="8.600563">
<ele>344.5</ele>
<time>2003-05-19T10:39:06Z</time>
<speed>0.8</speed>
</trkpt>
<trkpt lat="47.646049" lon="8.600501">
<ele>344.5</ele>
<time>2003-05-19T10:39:11Z</time>
<speed>0.6</speed>
</trkpt>
<trkpt lat="47.646010" lon="8.600427">
<ele>344.4</ele>
<time>2003-05-19T10:39:16Z</time>
<speed>1.1</speed>
</trkpt>
<trkpt lat="47.645959" lon="8.600338">
<ele>344.2</ele>
<time>2003-05-19T10:39:21Z</time>
<speed>0.8</speed>
</trkpt>
<trkpt lat="47.645900" lon="8.600275">
<ele>343.4</ele>
<time>2003-05-19T10:39:26Z</time>
<speed>0.8</speed>
</trkpt>
<trkpt lat="47.645848" lon="8.600200">
<ele>343.3</ele>
<time>2003-05-19T10:39:31Z</time>
<speed>1.1</speed>
</trkpt>
<trkpt lat="47.645801" lon="8.600139">
<ele>342.6</ele>
<time>2003-05-19T10:39:36Z</time>
<speed>1.1</speed>
</trkpt>
<trkpt lat="47.645760" lon="8.600078">
<ele>342.7</ele>
<time>2003-05-19T10:39:41Z</time>
<speed>0.6</speed>
</trkpt>
<trkpt lat="47.645726" lon="8.600018">
<ele>343.4</ele>
<time>2003-05-19T10:39:46Z</time>
<speed>1.1</speed>
</trkpt>
<trkpt lat="47.645679" lon="8.599955">
<ele>344.2</ele>
<time>2003-05-19T10:39:51Z</time>
<speed>1.1</speed>
</trkpt>
<trkpt lat="47.645638" lon="8.599895">
<ele>344.2</ele>
<time>2003-05-19T10:39:56Z</time>
<speed>1.1</speed>
</trkpt>
<trkpt lat="47.645604" lon="8.599834">
<ele>345.0</ele>
<time>2003-05-19T10:40:01Z</time>
<speed>1.1</speed>
</trkpt>
<trkpt lat="47.645576" lon="8.599775">
<ele>345.1</ele>
<time>2003-05-19T10:40:06Z</time>
<speed>0.8</speed>
</trkpt>
<trkpt lat="47.645543" lon="8.599702">
<ele>345.8</ele>
<time>2003-05-19T10:40:11Z</time>
<speed>1.1</speed>
</trkpt>
<trkpt lat="47.645502" lon="8.599639">
<ele>347.2</ele>
<time>2003-05-19T10:40:16Z</time>
<speed>0.8</speed>
</trkpt>
<trkpt lat="47.645475" lon="8.599567">
<ele>347.3</ele>
<time>2003-05-19T10:40:21Z</time>
<speed>1.1</speed>
</trkpt>
<trkpt lat="47.645440" lon="8.599507">
<ele>348.0</ele>
<time>2003-05-19T10:40:26Z</time>
<speed>0.8</speed>
</trkpt>
<trkpt lat="47.645420" lon="8.599437">
<ele>347.4</ele>
<time>2003-05-19T10:40:31Z</time>
<speed>0.6</speed>
</trkpt>
<trkpt lat="47.645398" lon="8.599378">
<ele>348.2</ele>
<time>2003-05-19T10:40:36Z</time>
<speed>0.8</speed>
</trkpt>
<trkpt lat="47.645380" lon="8.599282">
<ele>347.4</ele>
<time>2003-05-19T10:40:41Z</time>
<speed>0.8</speed>
</trkpt>
<trkpt lat="47.645379" lon="8.599201">
<ele>347.5</ele>
<time>2003-05-19T10:40:46Z</time>
<speed>0.6</speed>
</trkpt>
<trkpt lat="47.645360" lon="8.599118">
<ele>346.7</ele>
<time>2003-05-19T10:40:51Z</time>
<speed>1.1</speed>
</trkpt>
<trkpt lat="47.645340" lon="8.599034">
<ele>347.4</ele>
<time>2003-05-19T10:40:56Z</time>
<speed>0.8</speed>
</trkpt>
<trkpt lat="47.645321" lon="8.598949">
<ele>348.0</ele>
<time>2003-05-19T10:41:01Z</time>
<speed>0.8</speed>
</trkpt>
<trkpt lat="47.645301" lon="8.598864">
<ele>348.7</ele>
<time>2003-05-19T10:41:06Z</time>
<speed>0.8</speed>
</trkpt>
<trkpt lat="47.645299" lon="8.598796">
<ele>348.8</ele>
<time>2003-05-19T10:41:11Z</time>
<speed>0.3</speed>
</trkpt>
<trkpt lat="47.645299" lon="8.598715">
<ele>348.9</ele>
<time>2003-05-19T10:41:16Z</time>
<speed>0.3</speed>
</trkpt>
<trkpt lat="47.645279" lon="8.598630">
<ele>349.5</ele>
<time>2003-05-19T10:41:21Z</time>
<speed>0.3</speed>
</trkpt>
<trkpt lat="47.645263" lon="8.598573">
<ele>349.7</ele>
<time>2003-05-19T10:41:26Z</time>
<speed>0.3</speed>
</trkpt>
<trkpt lat="47.645238" lon="8.598488">
<ele>349.7</ele>
<time>2003-05-19T10:41:31Z</time>
<speed>0.6</speed>
</trkpt>
<trkpt lat="47.645217" lon="8.598417">
<ele>350.4</ele>
<time>2003-05-19T10:41:36Z</time>
<speed>0.6</speed>
</trkpt>
<trkpt lat="47.645191" lon="8.598332">
<ele>350.3</ele>
<time>2003-05-19T10:41:41Z</time>
<speed>0.3</speed>
</trkpt>
<trkpt lat="47.645159" lon="8.598245">
<ele>350.9</ele>
<time>2003-05-19T10:41:46Z</time>
<speed>1.1</speed>
</trkpt>
<trkpt lat="47.645133" lon="8.598160">
<ele>350.8</ele>
<time>2003-05-19T10:41:51Z</time>
<speed>0.8</speed>
</trkpt>
<trkpt lat="47.645119" lon="8.598077">
<ele>350.8</ele>
<time>2003-05-19T10:41:56Z</time>
<speed>0.8</speed>
</trkpt>
<trkpt lat="47.645110" lon="8.598020">
<ele>351.7</ele>
<time>2003-05-19T10:42:01Z</time>
<speed>0.3</speed>
</trkpt>
<trkpt lat="47.645109" lon="8.597953">
<ele>351.9</ele>
<time>2003-05-19T10:42:06Z</time>
<speed>0.8</speed>
</trkpt>
<trkpt lat="47.645103" lon="8.597859">
<ele>351.1</ele>
<time>2003-05-19T10:42:11Z</time>
<speed>0.3</speed>
</trkpt>
<trkpt lat="47.645084" lon="8.597760">
<ele>351.7</ele>
<time>2003-05-19T10:42:16Z</time>
<speed>0.6</speed>
</trkpt>
<trkpt lat="47.645058" lon="8.597676">
<ele>351.6</ele>
<time>2003-05-19T10:42:21Z</time>
<speed>0.8</speed>
</trkpt>
<trkpt lat="47.645026" lon="8.597589">
<ele>352.2</ele>
<time>2003-05-19T10:42:26Z</time>
<speed>0.6</speed>
</trkpt>
<trkpt lat="47.644994" lon="8.597489">
<ele>352.7</ele>
<time>2003-05-19T10:42:31Z</time>
<speed>0.6</speed>
</trkpt>
<trkpt lat="47.644943" lon="8.597400">
<ele>352.4</ele>
<time>2003-05-19T10:42:36Z</time>
<speed>0.8</speed>
</trkpt>
<trkpt lat="47.644936" lon="8.597332">
<ele>351.9</ele>
<time>2003-05-19T10:42:41Z</time>
<speed>0.8</speed>
</trkpt>
<trkpt lat="47.644909" lon="8.597260">
<ele>351.9</ele>
<time>2003-05-19T10:42:46Z</time>
<speed>0.6</speed>
</trkpt>
<trkpt lat="47.644877" lon="8.597160">
<ele>352.4</ele>
<time>2003-05-19T10:42:51Z</time>
<speed>0.6</speed>
</trkpt>
<trkpt lat="47.644838" lon="8.597071">
<ele>353.6</ele>
<time>2003-05-19T10:42:56Z</time>
<speed>0.6</speed>
</trkpt>
<trkpt lat="47.644794" lon="8.596984">
<ele>352.7</ele>
<time>2003-05-19T10:43:01Z</time>
<speed>0.6</speed>
</trkpt>
<trkpt lat="47.644775" lon="8.596888">
<ele>351.9</ele>
<time>2003-05-19T10:43:06Z</time>
<speed>0.8</speed>
</trkpt>
<trkpt lat="47.644765" lon="8.596764">
<ele>352.9</ele>
<time>2003-05-19T10:43:11Z</time>
<speed>0.3</speed>
</trkpt>
<trkpt lat="47.644736" lon="8.596718">
<ele>353.2</ele>
<time>2003-05-19T10:43:16Z</time>
<speed>0.3</speed>
</trkpt>
<trkpt lat="47.644682" lon="8.596654">
<ele>354.5</ele>
<time>2003-05-19T10:43:21Z</time>
<speed>0.6</speed>
</trkpt>
<trkpt lat="47.644660" lon="8.596595">
<ele>355.4</ele>
<time>2003-05-19T10:43:26Z</time>
<speed>0.6</speed>
</trkpt>
<trkpt lat="47.644640" lon="8.596510">
<ele>356.1</ele>
<time>2003-05-19T10:43:31Z</time>
<speed>0.6</speed>
</trkpt>
<trkpt lat="47.644620" lon="8.596438">
<ele>356.8</ele>
<time>2003-05-19T10:43:36Z</time>
<speed>0.6</speed>
</trkpt>
<trkpt lat="47.644607" lon="8.596342">
<ele>356.7</ele>
<time>2003-05-19T10:43:41Z</time>
<speed>0.8</speed>
</trkpt>
<trkpt lat="47.644549" lon="8.596265">
<ele>357.2</ele>
<time>2003-05-19T10:43:46Z</time>
<speed>0.8</speed>
</trkpt>
<trkpt lat="47.644477" lon="8.596200">
<ele>356.4</ele>
<time>2003-05-19T10:43:51Z</time>
<speed>1.1</speed>
</trkpt>
<trkpt lat="47.644438" lon="8.596113">
<ele>356.2</ele>
<time>2003-05-19T10:43:56Z</time>
<speed>1.1</speed>
</trkpt>
<trkpt lat="47.644399" lon="8.596039">
<ele>356.2</ele>
<time>2003-05-19T10:44:01Z</time>
<speed>0.6</speed>
</trkpt>
<trkpt lat="47.644358" lon="8.595979">
<ele>356.2</ele>
<time>2003-05-19T10:44:06Z</time>
<speed>0.6</speed>
</trkpt>
<trkpt lat="47.644299" lon="8.595916">
<ele>355.5</ele>
<time>2003-05-19T10:44:11Z</time>
<speed>0.8</speed>
</trkpt>
<trkpt lat="47.644259" lon="8.595856">
<ele>355.5</ele>
<time>2003-05-19T10:44:16Z</time>
<speed>0.6</speed>
</trkpt>
<trkpt lat="47.644219" lon="8.595782">
<ele>355.5</ele>
<time>2003-05-19T10:44:21Z</time>
<speed>0.6</speed>
</trkpt>
<trkpt lat="47.644161" lon="8.595706">
<ele>354.6</ele>
<time>2003-05-19T10:44:26Z</time>
<speed>1.4</speed>
</trkpt>
<trkpt lat="47.644110" lon="8.595617">
<ele>354.4</ele>
<time>2003-05-19T10:44:31Z</time>
<speed>1.1</speed>
</trkpt>
<trkpt lat="47.644056" lon="8.595568">
<ele>354.4</ele>
<time>2003-05-19T10:44:36Z</time>
<speed>0.6</speed>
</trkpt>
<trkpt lat="47.644008" lon="8.595520">
<ele>353.8</ele>
<time>2003-05-19T10:44:41Z</time>
<speed>0.8</speed>
</trkpt>
<trkpt lat="47.643988" lon="8.595435">
<ele>354.5</ele>
<time>2003-05-19T10:44:46Z</time>
<speed>0.6</speed>
</trkpt>
<trkpt lat="47.643941" lon="8.595373">
<ele>355.2</ele>
<time>2003-05-19T10:44:51Z</time>
<speed>1.1</speed>
</trkpt>
<trkpt lat="47.643877" lon="8.595295">
<ele>355.0</ele>
<time>2003-05-19T10:44:56Z</time>
<speed>0.8</speed>
</trkpt>
<trkpt lat="47.643854" lon="8.595252">
<ele>354.6</ele>
<time>2003-05-19T10:45:01Z</time>
<speed>0.6</speed>
</trkpt>
<trkpt lat="47.643808" lon="8.595176">
<ele>355.2</ele>
<time>2003-05-19T10:45:06Z</time>
<speed>0.6</speed>
</trkpt>
<trkpt lat="47.643767" lon="8.595128">
<ele>355.3</ele>
<time>2003-05-19T10:45:11Z</time>
<speed>0.8</speed>
</trkpt>
<trkpt lat="47.643728" lon="8.595042">
<ele>355.2</ele>
<time>2003-05-19T10:45:16Z</time>
<speed>0.8</speed>
</trkpt>
<trkpt lat="47.643675" lon="8.594979">
<ele>355.1</ele>
<time>2003-05-19T10:45:21Z</time>
<speed>1.1</speed>
</trkpt>
<trkpt lat="47.643591" lon="8.594897">
<ele>355.5</ele>
<time>2003-05-19T10:45:26Z</time>
<speed>0.8</speed>
</trkpt>
<trkpt lat="47.643521" lon="8.594822">
<ele>353.2</ele>
<time>2003-05-19T10:45:31Z</time>
<speed>0.8</speed>
</trkpt>
<trkpt lat="47.643440" lon="8.594794">
<ele>353.3</ele>
<time>2003-05-19T10:45:36Z</time>
<speed>0.8</speed>
</trkpt>
<trkpt lat="47.643397" lon="8.594775">
<ele>352.2</ele>
<time>2003-05-19T10:45:41Z</time>
<speed>0.6</speed>
</trkpt>
<trkpt lat="47.643354" lon="8.594756">
<ele>351.2</ele>
<time>2003-05-19T10:45:46Z</time>
<speed>0.8</speed>
</trkpt>
<trkpt lat="47.643304" lon="8.594735">
<ele>350.8</ele>
<time>2003-05-19T10:45:51Z</time>
<speed>0.8</speed>
</trkpt>
<trkpt lat="47.643231" lon="8.594684">
<ele>350.1</ele>
<time>2003-05-19T10:45:56Z</time>
<speed>0.8</speed>
</trkpt>
<trkpt lat="47.643167" lon="8.594687">
<ele>349.8</ele>
<time>2003-05-19T10:46:01Z</time>
<speed>0.6</speed>
</trkpt>
<trkpt lat="47.643105" lon="8.594662">
<ele>350.7</ele>
<time>2003-05-19T10:46:06Z</time>
<speed>0.8</speed>
</trkpt>
<trkpt lat="47.643049" lon="8.594626">
<ele>350.9</ele>
<time>2003-05-19T10:46:11Z</time>
<speed>0.8</speed>
</trkpt>
<trkpt lat="47.642953" lon="8.594623">
<ele>351.2</ele>
<time>2003-05-19T10:46:16Z</time>
<speed>1.4</speed>
</trkpt>
<trkpt lat="47.642895" lon="8.594641">
<ele>350.3</ele>
<time>2003-05-19T10:46:21Z</time>
<speed>1.1</speed>
</trkpt>
<trkpt lat="47.642853" lon="8.594609">
<ele>349.2</ele>
<time>2003-05-19T10:46:26Z</time>
<speed>0.8</speed>
</trkpt>
<trkpt lat="47.642797" lon="8.594586">
<ele>349.4</ele>
<time>2003-05-19T10:46:31Z</time>
<speed>0.6</speed>
</trkpt>
<trkpt lat="47.642727" lon="8.594574">
<ele>349.8</ele>
<time>2003-05-19T10:46:36Z</time>
<speed>0.6</speed>
</trkpt>
<trkpt lat="47.642672" lon="8.594540">
<ele>348.5</ele>
<time>2003-05-19T10:46:41Z</time>
<speed>0.6</speed>
</trkpt>
<trkpt lat="47.642641" lon="8.594518">
<ele>350.3</ele>
<time>2003-05-19T10:46:46Z</time>
<speed>0.6</speed>
</trkpt>
<trkpt lat="47.642587" lon="8.594471">
<ele>349.0</ele>
<time>2003-05-19T10:46:51Z</time>
<speed>0.3</speed>
</trkpt>
<trkpt lat="47.642538" lon="8.594452">
<ele>347.2</ele>
<time>2003-05-19T10:46:56Z</time>
<speed>0.3</speed>
</trkpt>
<trkpt lat="47.642486" lon="8.594472">
<ele>345.7</ele>
<time>2003-05-19T10:47:01Z</time>
<speed>1.1</speed>
</trkpt>
<trkpt lat="47.642421" lon="8.594504">
<ele>344.3</ele>
<time>2003-05-19T10:47:06Z</time>
<speed>1.1</speed>
</trkpt>
<trkpt lat="47.642363" lon="8.594509">
<ele>343.3</ele>
<time>2003-05-19T10:47:11Z</time>
<speed>0.8</speed>
</trkpt>
<trkpt lat="47.642300" lon="8.594499">
<ele>343.0</ele>
<time>2003-05-19T10:47:16Z</time>
<speed>0.6</speed>
</trkpt>
<trkpt lat="47.642248" lon="8.594517">
<ele>342.9</ele>
<time>2003-05-19T10:47:21Z</time>
<speed>1.1</speed>
</trkpt>
<trkpt lat="47.642177" lon="8.594521">
<ele>341.9</ele>
<time>2003-05-19T10:47:26Z</time>
<speed>0.8</speed>
</trkpt>
<trkpt lat="47.642126" lon="8.594526">
<ele>341.7</ele>
<time>2003-05-19T10:47:31Z</time>
<speed>1.1</speed>
</trkpt>
<trkpt lat="47.642072" lon="8.594476">
<ele>341.8</ele>
<time>2003-05-19T10:47:36Z</time>
<speed>0.6</speed>
</trkpt>
<trkpt lat="47.642019" lon="8.594414">
<ele>341.7</ele>
<time>2003-05-19T10:47:41Z</time>
<speed>1.1</speed>
</trkpt>
<trkpt lat="47.641961" lon="8.594417">
<ele>342.2</ele>
<time>2003-05-19T10:47:46Z</time>
<speed>0.8</speed>
</trkpt>
<trkpt lat="47.641896" lon="8.594420">
<ele>341.9</ele>
<time>2003-05-19T10:47:51Z</time>
<speed>1.1</speed>
</trkpt>
<trkpt lat="47.641846" lon="8.594412">
<ele>341.6</ele>
<time>2003-05-19T10:47:56Z</time>
<speed>0.6</speed>
</trkpt>
<trkpt lat="47.641791" lon="8.594376">
<ele>341.8</ele>
<time>2003-05-19T10:48:01Z</time>
<speed>0.6</speed>
</trkpt>
<trkpt lat="47.641731" lon="8.594327">
<ele>341.2</ele>
<time>2003-05-19T10:48:06Z</time>
<speed>0.8</speed>
</trkpt>
<trkpt lat="47.641683" lon="8.594277">
<ele>342.0</ele>
<time>2003-05-19T10:48:11Z</time>
<speed>0.6</speed>
</trkpt>
<trkpt lat="47.641651" lon="8.594271">
<ele>342.5</ele>
<time>2003-05-19T10:48:16Z</time>
<speed>0.6</speed>
</trkpt>
<trkpt lat="47.641608" lon="8.594237">
<ele>342.7</ele>
<time>2003-05-19T10:48:21Z</time>
<speed>0.8</speed>
</trkpt>
<trkpt lat="47.641533" lon="8.594212">
<ele>342.2</ele>
<time>2003-05-19T10:48:26Z</time>
<speed>0.8</speed>
</trkpt>
<trkpt lat="47.641486" lon="8.594164">
<ele>341.6</ele>
<time>2003-05-19T10:48:31Z</time>
<speed>0.6</speed>
</trkpt>
<trkpt lat="47.641435" lon="8.594157">
<ele>341.3</ele>
<time>2003-05-19T10:48:36Z</time>
<speed>0.6</speed>
</trkpt>
<trkpt lat="47.641383" lon="8.594175">
<ele>341.2</ele>
<time>2003-05-19T10:48:41Z</time>
<speed>0.8</speed>
</trkpt>
<trkpt lat="47.641317" lon="8.594204">
<ele>341.2</ele>
<time>2003-05-19T10:48:46Z</time>
<speed>0.8</speed>
</trkpt>
<trkpt lat="47.641256" lon="8.594249">
<ele>340.5</ele>
<time>2003-05-19T10:48:51Z</time>
<speed>1.1</speed>
</trkpt>
<trkpt lat="47.641189" lon="8.594292">
<ele>340.6</ele>
<time>2003-05-19T10:48:56Z</time>
<speed>0.8</speed>
</trkpt>
<trkpt lat="47.641131" lon="8.594310">
<ele>339.7</ele>
<time>2003-05-19T10:49:01Z</time>
<speed>0.8</speed>
</trkpt>
<trkpt lat="47.641064" lon="8.594340">
<ele>339.7</ele>
<time>2003-05-19T10:49:06Z</time>
<speed>0.8</speed>
</trkpt>
<trkpt lat="47.640999" lon="8.594356">
<ele>339.5</ele>
<time>2003-05-19T10:49:11Z</time>
<speed>1.1</speed>
</trkpt>
<trkpt lat="47.640934" lon="8.594372">
<ele>339.4</ele>
<time>2003-05-19T10:49:16Z</time>
<speed>0.8</speed>
</trkpt>
<trkpt lat="47.640873" lon="8.594336">
<ele>338.8</ele>
<time>2003-05-19T10:49:21Z</time>
<speed>0.8</speed>
</trkpt>
<trkpt lat="47.640822" lon="8.594328">
<ele>338.5</ele>
<time>2003-05-19T10:49:26Z</time>
<speed>0.8</speed>
</trkpt>
<trkpt lat="47.640770" lon="8.594268">
<ele>337.1</ele>
<time>2003-05-19T10:49:31Z</time>
<speed>0.8</speed>
</trkpt>
<trkpt lat="47.640715" lon="8.594231">
<ele>337.2</ele>
<time>2003-05-19T10:49:36Z</time>
<speed>0.6</speed>
</trkpt>
<trkpt lat="47.640664" lon="8.594223">
<ele>337.0</ele>
<time>2003-05-19T10:49:41Z</time>
<speed>0.6</speed>
</trkpt>
<trkpt lat="47.640614" lon="8.594215">
<ele>336.7</ele>
<time>2003-05-19T10:49:46Z</time>
<speed>0.6</speed>
</trkpt>
<trkpt lat="47.640550" lon="8.594205">
<ele>336.3</ele>
<time>2003-05-19T10:49:51Z</time>
<speed>0.8</speed>
</trkpt>
<trkpt lat="47.640501" lon="8.594184">
<ele>335.9</ele>
<time>2003-05-19T10:49:56Z</time>
<speed>1.1</speed>
</trkpt>
<trkpt lat="47.640443" lon="8.594188">
<ele>336.4</ele>
<time>2003-05-19T10:50:01Z</time>
<speed>0.6</speed>
</trkpt>
<trkpt lat="47.640405" lon="8.594182">
<ele>336.2</ele>
<time>2003-05-19T10:50:06Z</time>
<speed>0.6</speed>
</trkpt>
<trkpt lat="47.640358" lon="8.594215">
<ele>335.5</ele>
<time>2003-05-19T10:50:11Z</time>
<speed>0.8</speed>
</trkpt>
<trkpt lat="47.640292" lon="8.594228">
<ele>338.2</ele>
<time>2003-05-19T10:50:16Z</time>
<speed>0.8</speed>
</trkpt>
<trkpt lat="47.640260" lon="8.594222">
<ele>338.7</ele>
<time>2003-05-19T10:50:21Z</time>
<speed>0.3</speed>
</trkpt>
<trkpt lat="47.640222" lon="8.594216">
<ele>338.5</ele>
<time>2003-05-19T10:50:26Z</time>
<speed>0.0</speed>
</trkpt>
<trkpt lat="47.640229" lon="8.594202">
<ele>339.1</ele>
<time>2003-05-19T10:50:31Z</time>
<speed>0.3</speed>
</trkpt>
<trkpt lat="47.640211" lon="8.594185">
<ele>339.6</ele>
<time>2003-05-19T10:50:36Z</time>
<speed>0.3</speed>
</trkpt>
<trkpt lat="47.640159" lon="8.594189">
<ele>340.8</ele>
<time>2003-05-19T10:50:41Z</time>
<speed>0.6</speed>
</trkpt>
<trkpt lat="47.640110" lon="8.594169">
<ele>339.0</ele>
<time>2003-05-19T10:50:46Z</time>
<speed>0.6</speed>
</trkpt>
<trkpt lat="47.640078" lon="8.594163">
<ele>339.5</ele>
<time>2003-05-19T10:50:51Z</time>
<speed>0.6</speed>
</trkpt>
<trkpt lat="47.640033" lon="8.594169">
<ele>340.1</ele>
<time>2003-05-19T10:50:56Z</time>
<speed>0.8</speed>
</trkpt>
<trkpt lat="47.640001" lon="8.594163">
<ele>340.6</ele>
<time>2003-05-19T10:51:01Z</time>
<speed>0.3</speed>
</trkpt>
<trkpt lat="47.639961" lon="8.594168">
<ele>341.9</ele>
<time>2003-05-19T10:51:06Z</time>
<speed>0.8</speed>
</trkpt>
<trkpt lat="47.639915" lon="8.594188">
<ele>341.1</ele>
<time>2003-05-19T10:51:11Z</time>
<speed>0.6</speed>
</trkpt>
<trkpt lat="47.639871" lon="8.594180">
<ele>341.6</ele>
<time>2003-05-19T10:51:16Z</time>
<speed>0.3</speed>
</trkpt>
<trkpt lat="47.639821" lon="8.594159">
<ele>341.2</ele>
<time>2003-05-19T10:51:21Z</time>
<speed>1.1</speed>
</trkpt>
<trkpt lat="47.639752" lon="8.594149">
<ele>340.1</ele>
<time>2003-05-19T10:51:26Z</time>
<speed>0.6</speed>
</trkpt>
<trkpt lat="47.639700" lon="8.594152">
<ele>341.3</ele>
<time>2003-05-19T10:51:31Z</time>
<speed>0.8</speed>
</trkpt>
<trkpt lat="47.639647" lon="8.594184">
<ele>341.3</ele>
<time>2003-05-19T10:51:36Z</time>
<speed>1.1</speed>
</trkpt>
<trkpt lat="47.639587" lon="8.594215">
<ele>340.6</ele>
<time>2003-05-19T10:51:41Z</time>
<speed>0.8</speed>
</trkpt>
<trkpt lat="47.639536" lon="8.594221">
<ele>340.4</ele>
<time>2003-05-19T10:51:46Z</time>
<speed>0.8</speed>
</trkpt>
<trkpt lat="47.639482" lon="8.594252">
<ele>340.4</ele>
<time>2003-05-19T10:51:51Z</time>
<speed>1.1</speed>
</trkpt>
<trkpt lat="47.639396" lon="8.594291">
<ele>341.0</ele>
<time>2003-05-19T10:51:56Z</time>
<speed>1.1</speed>
</trkpt>
<trkpt lat="47.639335" lon="8.594336">
<ele>340.4</ele>
<time>2003-05-19T10:52:01Z</time>
<speed>1.1</speed>
</trkpt>
<trkpt lat="47.639270" lon="8.594350">
<ele>341.7</ele>
<time>2003-05-19T10:52:06Z</time>
<speed>0.6</speed>
</trkpt>
<trkpt lat="47.639224" lon="8.594355">
<ele>342.2</ele>
<time>2003-05-19T10:52:11Z</time>
<speed>0.8</speed>
</trkpt>
<trkpt lat="47.639163" lon="8.594398">
<ele>343.0</ele>
<time>2003-05-19T10:52:16Z</time>
<speed>0.8</speed>
</trkpt>
<trkpt lat="47.639107" lon="8.594454">
<ele>344.6</ele>
<time>2003-05-19T10:52:21Z</time>
<speed>0.8</speed>
</trkpt>
<trkpt lat="47.639046" lon="8.594496">
<ele>345.4</ele>
<time>2003-05-19T10:52:26Z</time>
<speed>0.6</speed>
</trkpt>
<trkpt lat="47.639012" lon="8.594517">
<ele>346.1</ele>
<time>2003-05-19T10:52:31Z</time>
<speed>0.3</speed>
</trkpt>
<trkpt lat="47.638966" lon="8.594535">
<ele>346.8</ele>
<time>2003-05-19T10:52:36Z</time>
<speed>0.8</speed>
</trkpt>
<trkpt lat="47.638916" lon="8.594514">
<ele>346.4</ele>
<time>2003-05-19T10:52:41Z</time>
<speed>0.3</speed>
</trkpt>
<trkpt lat="47.638875" lon="8.594547">
<ele>346.4</ele>
<time>2003-05-19T10:52:46Z</time>
<speed>0.6</speed>
</trkpt>
<trkpt lat="47.638830" lon="8.594555">
<ele>345.6</ele>
<time>2003-05-19T10:52:51Z</time>
<speed>0.8</speed>
</trkpt>
<trkpt lat="47.638770" lon="8.594599">
<ele>345.0</ele>
<time>2003-05-19T10:52:56Z</time>
<speed>0.8</speed>
</trkpt>
<trkpt lat="47.638702" lon="8.594655">
<ele>345.1</ele>
<time>2003-05-19T10:53:01Z</time>
<speed>0.8</speed>
</trkpt>
<trkpt lat="47.638642" lon="8.594687">
<ele>344.4</ele>
<time>2003-05-19T10:53:06Z</time>
<speed>0.8</speed>
</trkpt>
<trkpt lat="47.638596" lon="8.594707">
<ele>343.6</ele>
<time>2003-05-19T10:53:11Z</time>
<speed>0.6</speed>
</trkpt>
<trkpt lat="47.638583" lon="8.594718">
<ele>343.6</ele>
<time>2003-05-19T10:53:16Z</time>
<speed>0.3</speed>
</trkpt>
<trkpt lat="47.638542" lon="8.594752">
<ele>343.7</ele>
<time>2003-05-19T10:53:21Z</time>
<speed>0.3</speed>
</trkpt>
<trkpt lat="47.638515" lon="8.594774">
<ele>343.8</ele>
<time>2003-05-19T10:53:26Z</time>
<speed>0.3</speed>
</trkpt>
<trkpt lat="47.638500" lon="8.594798">
<ele>343.9</ele>
<time>2003-05-19T10:53:31Z</time>
<speed>0.0</speed>
</trkpt>
<trkpt lat="47.638478" lon="8.594836">
<ele>343.4</ele>
<time>2003-05-19T10:53:36Z</time>
<speed>0.8</speed>
</trkpt>
<trkpt lat="47.638429" lon="8.594894">
<ele>344.4</ele>
<time>2003-05-19T10:53:41Z</time>
<speed>0.8</speed>
</trkpt>
<trkpt lat="47.638369" lon="8.594925">
<ele>343.6</ele>
<time>2003-05-19T10:53:46Z</time>
<speed>1.4</speed>
</trkpt>
<trkpt lat="47.638303" lon="8.594955">
<ele>343.6</ele>
<time>2003-05-19T10:53:51Z</time>
<speed>0.6</speed>
</trkpt>
<trkpt lat="47.638256" lon="8.594986">
<ele>344.3</ele>
<time>2003-05-19T10:53:56Z</time>
<speed>0.8</speed>
</trkpt>
<trkpt lat="47.638195" lon="8.595031">
<ele>343.7</ele>
<time>2003-05-19T10:54:01Z</time>
<speed>0.8</speed>
</trkpt>
<trkpt lat="47.638127" lon="8.595072">
<ele>345.1</ele>
<time>2003-05-19T10:54:06Z</time>
<speed>1.4</speed>
</trkpt>
<trkpt lat="47.638050" lon="8.595086">
<ele>344.9</ele>
<time>2003-05-19T10:54:11Z</time>
<speed>1.1</speed>
</trkpt>
<trkpt lat="47.637987" lon="8.595061">
<ele>345.8</ele>
<time>2003-05-19T10:54:16Z</time>
<speed>1.1</speed>
</trkpt>
<trkpt lat="47.637962" lon="8.595057">
<ele>345.7</ele>
<time>2003-05-19T10:54:21Z</time>
<speed>0.3</speed>
</trkpt>
<trkpt lat="47.637928" lon="8.595077">
<ele>346.4</ele>
<time>2003-05-19T10:54:26Z</time>
<speed>0.3</speed>
</trkpt>
<trkpt lat="47.637901" lon="8.595085">
<ele>347.8</ele>
<time>2003-05-19T10:54:31Z</time>
<speed>0.3</speed>
</trkpt>
<trkpt lat="47.637876" lon="8.595081">
<ele>347.6</ele>
<time>2003-05-19T10:54:36Z</time>
<speed>0.3</speed>
</trkpt>
<trkpt lat="47.637843" lon="8.595088">
<ele>348.3</ele>
<time>2003-05-19T10:54:41Z</time>
<speed>0.8</speed>
</trkpt>
<trkpt lat="47.637792" lon="8.595093">
<ele>348.1</ele>
<time>2003-05-19T10:54:46Z</time>
<speed>0.8</speed>
</trkpt>
<trkpt lat="47.637721" lon="8.595094">
<ele>348.5</ele>
<time>2003-05-19T10:54:51Z</time>
<speed>1.4</speed>
</trkpt>
<trkpt lat="47.637656" lon="8.595095">
<ele>349.6</ele>
<time>2003-05-19T10:54:56Z</time>
<speed>1.1</speed>
</trkpt>
<trkpt lat="47.637603" lon="8.595127">
<ele>349.6</ele>
<time>2003-05-19T10:55:01Z</time>
<speed>0.8</speed>
</trkpt>
<trkpt lat="47.637550" lon="8.595145">
<ele>349.5</ele>
<time>2003-05-19T10:55:06Z</time>
<speed>0.8</speed>
</trkpt>
<trkpt lat="47.637491" lon="8.595162">
<ele>350.1</ele>
<time>2003-05-19T10:55:11Z</time>
<speed>0.8</speed>
</trkpt>
<trkpt lat="47.637421" lon="8.595150">
<ele>350.4</ele>
<time>2003-05-19T10:55:16Z</time>
<speed>1.1</speed>
</trkpt>
<trkpt lat="47.637359" lon="8.595206">
<ele>351.3</ele>
<time>2003-05-19T10:55:21Z</time>
<speed>1.1</speed>
</trkpt>
<trkpt lat="47.637316" lon="8.595265">
<ele>351.6</ele>
<time>2003-05-19T10:55:26Z</time>
<speed>0.8</speed>
</trkpt>
<trkpt lat="47.637281" lon="8.595312">
<ele>352.5</ele>
<time>2003-05-19T10:55:31Z</time>
<speed>0.6</speed>
</trkpt>
<trkpt lat="47.637228" lon="8.595346">
<ele>351.1</ele>
<time>2003-05-19T10:55:36Z</time>
<speed>1.1</speed>
</trkpt>
<trkpt lat="47.637155" lon="8.595375">
<ele>350.3</ele>
<time>2003-05-19T10:55:41Z</time>
<speed>1.1</speed>
</trkpt>
<trkpt lat="47.637109" lon="8.595393">
<ele>351.0</ele>
<time>2003-05-19T10:55:46Z</time>
<speed>1.1</speed>
</trkpt>
<trkpt lat="47.637055" lon="8.595438">
<ele>351.1</ele>
<time>2003-05-19T10:55:51Z</time>
<speed>0.8</speed>
</trkpt>
<trkpt lat="47.636996" lon="8.595456">
<ele>350.2</ele>
<time>2003-05-19T10:55:56Z</time>
<speed>1.1</speed>
</trkpt>
<trkpt lat="47.636930" lon="8.595486">
<ele>350.2</ele>
<time>2003-05-19T10:56:01Z</time>
<speed>1.4</speed>
</trkpt>
<trkpt lat="47.636870" lon="8.595517">
<ele>349.5</ele>
<time>2003-05-19T10:56:06Z</time>
<speed>0.8</speed>
</trkpt>
<trkpt lat="47.636817" lon="8.595549">
<ele>349.5</ele>
<time>2003-05-19T10:56:11Z</time>
<speed>1.1</speed>
</trkpt>
<trkpt lat="47.636747" lon="8.595552">
<ele>348.5</ele>
<time>2003-05-19T10:56:16Z</time>
<speed>1.1</speed>
</trkpt>
<trkpt lat="47.636681" lon="8.595569">
<ele>348.3</ele>
<time>2003-05-19T10:56:21Z</time>
<speed>1.4</speed>
</trkpt>
<trkpt lat="47.636611" lon="8.595572">
<ele>347.3</ele>
<time>2003-05-19T10:56:26Z</time>
<speed>1.1</speed>
</trkpt>
<trkpt lat="47.636559" lon="8.595590">
<ele>347.2</ele>
<time>2003-05-19T10:56:31Z</time>
<speed>0.6</speed>
</trkpt>
<trkpt lat="47.636494" lon="8.595591">
<ele>348.4</ele>
<time>2003-05-19T10:56:36Z</time>
<speed>0.8</speed>
</trkpt>
<trkpt lat="47.636442" lon="8.595610">
<ele>348.3</ele>
<time>2003-05-19T10:56:41Z</time>
<speed>1.1</speed>
</trkpt>
<trkpt lat="47.636370" lon="8.595626">
<ele>347.4</ele>
<time>2003-05-19T10:56:46Z</time>
<speed>0.8</speed>
</trkpt>
<trkpt lat="47.636311" lon="8.595658">
<ele>346.6</ele>
<time>2003-05-19T10:56:51Z</time>
<speed>1.4</speed>
</trkpt>
<trkpt lat="47.636246" lon="8.595674">
<ele>346.5</ele>
<time>2003-05-19T10:56:56Z</time>
<speed>1.1</speed>
</trkpt>
<trkpt lat="47.636185" lon="8.595719">
<ele>345.9</ele>
<time>2003-05-19T10:57:01Z</time>
<speed>0.8</speed>
</trkpt>
<trkpt lat="47.636131" lon="8.595748">
<ele>347.3</ele>
<time>2003-05-19T10:57:06Z</time>
<speed>0.6</speed>
</trkpt>
<trkpt lat="47.636080" lon="8.595755">
<ele>345.7</ele>
<time>2003-05-19T10:57:11Z</time>
<speed>0.8</speed>
</trkpt>
<trkpt lat="47.636016" lon="8.595759">
<ele>345.4</ele>
<time>2003-05-19T10:57:16Z</time>
<speed>1.1</speed>
</trkpt>
<trkpt lat="47.635944" lon="8.595788">
<ele>344.6</ele>
<time>2003-05-19T10:57:21Z</time>
<speed>1.4</speed>
</trkpt>
<trkpt lat="47.635865" lon="8.595816">
<ele>344.5</ele>
<time>2003-05-19T10:57:26Z</time>
<speed>1.4</speed>
</trkpt>
<trkpt lat="47.635797" lon="8.595856">
<ele>345.9</ele>
<time>2003-05-19T10:57:31Z</time>
<speed>1.4</speed>
</trkpt>
<trkpt lat="47.635737" lon="8.595886">
<ele>346.6</ele>
<time>2003-05-19T10:57:36Z</time>
<speed>1.1</speed>
</trkpt>
<trkpt lat="47.635673" lon="8.595889">
<ele>346.3</ele>
<time>2003-05-19T10:57:41Z</time>
<speed>0.8</speed>
</trkpt>
<trkpt lat="47.635609" lon="8.595892">
<ele>346.1</ele>
<time>2003-05-19T10:57:46Z</time>
<speed>0.8</speed>
</trkpt>
<trkpt lat="47.635557" lon="8.595898">
<ele>345.9</ele>
<time>2003-05-19T10:57:51Z</time>
<speed>1.1</speed>
</trkpt>
<trkpt lat="47.635499" lon="8.595901">
<ele>346.4</ele>
<time>2003-05-19T10:57:56Z</time>
<speed>0.8</speed>
</trkpt>
<trkpt lat="47.635443" lon="8.595878">
<ele>346.6</ele>
<time>2003-05-19T10:58:01Z</time>
<speed>1.1</speed>
</trkpt>
<trkpt lat="47.635390" lon="8.595909">
<ele>346.7</ele>
<time>2003-05-19T10:58:06Z</time>
<speed>0.8</speed>
</trkpt>
<trkpt lat="47.635315" lon="8.595963">
<ele>347.5</ele>
<time>2003-05-19T10:58:12Z</time>
<speed>1.1</speed>
</trkpt>
<trkpt lat="47.635249" lon="8.595993">
<ele>347.4</ele>
<time>2003-05-19T10:58:17Z</time>
<speed>1.1</speed>
</trkpt>
<trkpt lat="47.635176" lon="8.596020">
<ele>348.0</ele>
<time>2003-05-19T10:58:22Z</time>
<speed>1.1</speed>
</trkpt>
<trkpt lat="47.635126" lon="8.596012">
<ele>347.7</ele>
<time>2003-05-19T10:58:27Z</time>
<speed>0.8</speed>
</trkpt>
<trkpt lat="47.635083" lon="8.595978">
<ele>348.0</ele>
<time>2003-05-19T10:58:32Z</time>
<speed>0.6</speed>
</trkpt>
<trkpt lat="47.635029" lon="8.595928">
<ele>348.0</ele>
<time>2003-05-19T10:58:37Z</time>
<speed>1.1</speed>
</trkpt>
<trkpt lat="47.634959" lon="8.595932">
<ele>347.0</ele>
<time>2003-05-19T10:58:42Z</time>
<speed>1.1</speed>
</trkpt>
<trkpt lat="47.634894" lon="8.595948">
<ele>346.9</ele>
<time>2003-05-19T10:58:47Z</time>
<speed>0.8</speed>
</trkpt>
<trkpt lat="47.634823" lon="8.595949">
<ele>347.3</ele>
<time>2003-05-19T10:58:52Z</time>
<speed>0.8</speed>
</trkpt>
<trkpt lat="47.634755" lon="8.595926">
<ele>346.1</ele>
<time>2003-05-19T10:58:57Z</time>
<speed>1.1</speed>
</trkpt>
<trkpt lat="47.634695" lon="8.595958">
<ele>345.3</ele>
<time>2003-05-19T10:59:02Z</time>
<speed>1.1</speed>
</trkpt>
<trkpt lat="47.634624" lon="8.595974">
<ele>344.4</ele>
<time>2003-05-19T10:59:07Z</time>
<speed>1.1</speed>
</trkpt>
<trkpt lat="47.634548" lon="8.595962">
<ele>344.0</ele>
<time>2003-05-19T10:59:12Z</time>
<speed>1.4</speed>
</trkpt>
<trkpt lat="47.634489" lon="8.595978">
<ele>344.6</ele>
<time>2003-05-19T10:59:17Z</time>
<speed>1.1</speed>
</trkpt>
<trkpt lat="47.634426" lon="8.595968">
<ele>344.2</ele>
<time>2003-05-19T10:59:22Z</time>
<speed>1.4</speed>
</trkpt>
<trkpt lat="47.634350" lon="8.595957">
<ele>343.8</ele>
<time>2003-05-19T10:59:27Z</time>
<speed>1.1</speed>
</trkpt>
<trkpt lat="47.634278" lon="8.595971">
<ele>344.3</ele>
<time>2003-05-19T10:59:32Z</time>
<speed>1.1</speed>
</trkpt>
<trkpt lat="47.634227" lon="8.595976">
<ele>344.1</ele>
<time>2003-05-19T10:59:37Z</time>
<speed>1.1</speed>
</trkpt>
<trkpt lat="47.634162" lon="8.595993">
<ele>343.9</ele>
<time>2003-05-19T10:59:42Z</time>
<speed>1.1</speed>
</trkpt>
<trkpt lat="47.634104" lon="8.595996">
<ele>344.4</ele>
<time>2003-05-19T10:59:47Z</time>
<speed>1.1</speed>
</trkpt>
<trkpt lat="47.634046" lon="8.595999">
<ele>344.9</ele>
<time>2003-05-19T10:59:52Z</time>
<speed>1.1</speed>
</trkpt>
<trkpt lat="47.633995" lon="8.595991">
<ele>344.6</ele>
<time>2003-05-19T10:59:57Z</time>
<speed>0.8</speed>
</trkpt>
<trkpt lat="47.633946" lon="8.595970">
<ele>344.2</ele>
<time>2003-05-19T11:00:02Z</time>
<speed>0.8</speed>
</trkpt>
<trkpt lat="47.633889" lon="8.595947">
<ele>344.5</ele>
<time>2003-05-19T11:00:07Z</time>
<speed>0.8</speed>
</trkpt>
<trkpt lat="47.633829" lon="8.595895">
<ele>345.2</ele>
<time>2003-05-19T11:00:12Z</time>
<speed>1.4</speed>
</trkpt>
<trkpt lat="47.633769" lon="8.595846">
<ele>344.6</ele>
<time>2003-05-19T11:00:17Z</time>
<speed>1.1</speed>
</trkpt>
<trkpt lat="47.633707" lon="8.595808">
<ele>345.4</ele>
<time>2003-05-19T11:00:22Z</time>
<speed>0.8</speed>
</trkpt>
<trkpt lat="47.633658" lon="8.595771">
<ele>346.3</ele>
<time>2003-05-19T11:00:27Z</time>
<speed>0.8</speed>
</trkpt>
<trkpt lat="47.633622" lon="8.595724">
<ele>347.2</ele>
<time>2003-05-19T11:00:32Z</time>
<speed>0.8</speed>
</trkpt>
<trkpt lat="47.633611" lon="8.595694">
<ele>348.3</ele>
<time>2003-05-19T11:00:37Z</time>
<speed>0.6</speed>
</trkpt>
<trkpt lat="47.633645" lon="8.595671">
<ele>349.0</ele>
<time>2003-05-19T11:00:42Z</time>
<speed>0.6</speed>
</trkpt>
<trkpt lat="47.633686" lon="8.595638">
<ele>348.9</ele>
<time>2003-05-19T11:00:47Z</time>
<speed>0.6</speed>
</trkpt>
<trkpt lat="47.633731" lon="8.595618">
<ele>349.7</ele>
<time>2003-05-19T11:00:52Z</time>
<speed>0.8</speed>
</trkpt>
<trkpt lat="47.633791" lon="8.595586">
<ele>350.4</ele>
<time>2003-05-19T11:00:57Z</time>
<speed>0.8</speed>
</trkpt>
<trkpt lat="47.633842" lon="8.595594">
<ele>350.7</ele>
<time>2003-05-19T11:01:02Z</time>
<speed>1.1</speed>
</trkpt>
<trkpt lat="47.633894" lon="8.595576">
<ele>350.8</ele>
<time>2003-05-19T11:01:07Z</time>
<speed>0.8</speed>
</trkpt>
<trkpt lat="47.633945" lon="8.595568">
<ele>352.4</ele>
<time>2003-05-19T11:01:12Z</time>
<speed>0.3</speed>
</trkpt>
<trkpt lat="47.633991" lon="8.595548">
<ele>353.1</ele>
<time>2003-05-19T11:01:17Z</time>
<speed>0.8</speed>
</trkpt>
<trkpt lat="47.634038" lon="8.595517">
<ele>352.4</ele>
<time>2003-05-19T11:01:22Z</time>
<speed>0.8</speed>
</trkpt>
<trkpt lat="47.634085" lon="8.595498">
<ele>351.7</ele>
<time>2003-05-19T11:01:27Z</time>
<speed>0.8</speed>
</trkpt>
<trkpt lat="47.634117" lon="8.595489">
<ele>352.5</ele>
<time>2003-05-19T11:01:32Z</time>
<speed>0.8</speed>
</trkpt>
<trkpt lat="47.634151" lon="8.595467">
<ele>353.2</ele>
<time>2003-05-19T11:01:37Z</time>
<speed>0.8</speed>
</trkpt>
<trkpt lat="47.634191" lon="8.595433">
<ele>353.1</ele>
<time>2003-05-19T11:01:42Z</time>
<speed>0.8</speed>
</trkpt>
<trkpt lat="47.634230" lon="8.595424">
<ele>354.6</ele>
<time>2003-05-19T11:01:47Z</time>
<speed>0.6</speed>
</trkpt>
<trkpt lat="47.634270" lon="8.595404">
<ele>354.7</ele>
<time>2003-05-19T11:01:52Z</time>
<speed>0.6</speed>
</trkpt>
<trkpt lat="47.634310" lon="8.595368">
<ele>356.0</ele>
<time>2003-05-19T11:01:57Z</time>
<speed>0.6</speed>
</trkpt>
<trkpt lat="47.634362" lon="8.595348">
<ele>357.5</ele>
<time>2003-05-19T11:02:02Z</time>
<speed>0.6</speed>
</trkpt>
<trkpt lat="47.634402" lon="8.595328">
<ele>357.5</ele>
<time>2003-05-19T11:02:07Z</time>
<speed>0.6</speed>
</trkpt>
<trkpt lat="47.634435" lon="8.595305">
<ele>358.2</ele>
<time>2003-05-19T11:02:12Z</time>
<speed>0.8</speed>
</trkpt>
<trkpt lat="47.634469" lon="8.595270">
<ele>358.8</ele>
<time>2003-05-19T11:02:17Z</time>
<speed>0.8</speed>
</trkpt>
<trkpt lat="47.634491" lon="8.595232">
<ele>359.3</ele>
<time>2003-05-19T11:02:22Z</time>
<speed>0.6</speed>
</trkpt>
<trkpt lat="47.634523" lon="8.595223">
<ele>360.1</ele>
<time>2003-05-19T11:02:27Z</time>
<speed>0.6</speed>
</trkpt>
<trkpt lat="47.634589" lon="8.595207">
<ele>360.2</ele>
<time>2003-05-19T11:02:32Z</time>
<speed>1.1</speed>
</trkpt>
<trkpt lat="47.634653" lon="8.595188">
<ele>361.8</ele>
<time>2003-05-19T11:02:37Z</time>
<speed>1.1</speed>
</trkpt>
<trkpt lat="47.634695" lon="8.595140">
<ele>363.0</ele>
<time>2003-05-19T11:02:42Z</time>
<speed>0.8</speed>
</trkpt>
<trkpt lat="47.634737" lon="8.595078">
<ele>364.1</ele>
<time>2003-05-19T11:02:47Z</time>
<speed>0.6</speed>
</trkpt>
<trkpt lat="47.634754" lon="8.595010">
<ele>366.5</ele>
<time>2003-05-19T11:02:52Z</time>
<speed>0.6</speed>
</trkpt>
<trkpt lat="47.634750" lon="8.594953">
<ele>368.2</ele>
<time>2003-05-19T11:02:57Z</time>
<speed>0.3</speed>
</trkpt>
<trkpt lat="47.634748" lon="8.594884">
<ele>369.7</ele>
<time>2003-05-19T11:03:02Z</time>
<speed>0.3</speed>
</trkpt>
<trkpt lat="47.634714" lon="8.594825">
<ele>369.1</ele>
<time>2003-05-19T11:03:07Z</time>
<speed>0.6</speed>
</trkpt>
<trkpt lat="47.634662" lon="8.594749">
<ele>369.0</ele>
<time>2003-05-19T11:03:13Z</time>
<speed>0.3</speed>
</trkpt>
<trkpt lat="47.634635" lon="8.594676">
<ele>370.4</ele>
<time>2003-05-19T11:03:18Z</time>
<speed>0.6</speed>
</trkpt>
<trkpt lat="47.634622" lon="8.594593">
<ele>370.4</ele>
<time>2003-05-19T11:03:23Z</time>
<speed>0.8</speed>
</trkpt>
<trkpt lat="47.634613" lon="8.594523">
<ele>371.2</ele>
<time>2003-05-19T11:03:28Z</time>
<speed>0.8</speed>
</trkpt>
<trkpt lat="47.634612" lon="8.594440">
<ele>372.7</ele>
<time>2003-05-19T11:03:33Z</time>
<speed>0.8</speed>
</trkpt>
<trkpt lat="47.634604" lon="8.594370">
<ele>373.5</ele>
<time>2003-05-19T11:03:38Z</time>
<speed>0.3</speed>
</trkpt>
<trkpt lat="47.634608" lon="8.594316">
<ele>374.5</ele>
<time>2003-05-19T11:03:43Z</time>
<speed>0.3</speed>
</trkpt>
<trkpt lat="47.634598" lon="8.594259">
<ele>375.5</ele>
<time>2003-05-19T11:03:48Z</time>
<speed>0.3</speed>
</trkpt>
<trkpt lat="47.634596" lon="8.594204">
<ele>375.7</ele>
<time>2003-05-19T11:03:53Z</time>
<speed>0.3</speed>
</trkpt>
<trkpt lat="47.634601" lon="8.594124">
<ele>376.5</ele>
<time>2003-05-19T11:03:58Z</time>
<speed>0.8</speed>
</trkpt>
<trkpt lat="47.634606" lon="8.594058">
<ele>376.0</ele>
<time>2003-05-19T11:04:03Z</time>
<speed>0.6</speed>
</trkpt>
<trkpt lat="47.634609" lon="8.593939">
<ele>374.4</ele>
<time>2003-05-19T11:04:08Z</time>
<speed>0.8</speed>
</trkpt>
<trkpt lat="47.634623" lon="8.593834">
<ele>374.3</ele>
<time>2003-05-19T11:04:13Z</time>
<speed>0.6</speed>
</trkpt>
<trkpt lat="47.634634" lon="8.593768">
<ele>374.5</ele>
<time>2003-05-19T11:04:18Z</time>
<speed>0.6</speed>
</trkpt>
<trkpt lat="47.634626" lon="8.593699">
<ele>375.4</ele>
<time>2003-05-19T11:04:23Z</time>
<speed>0.6</speed>
</trkpt>
<trkpt lat="47.634637" lon="8.593631">
<ele>377.0</ele>
<time>2003-05-19T11:04:28Z</time>
<speed>0.8</speed>
</trkpt>
<trkpt lat="47.634629" lon="8.593548">
<ele>377.7</ele>
<time>2003-05-19T11:04:33Z</time>
<speed>0.6</speed>
</trkpt>
<trkpt lat="47.634635" lon="8.593469">
<ele>377.1</ele>
<time>2003-05-19T11:04:38Z</time>
<speed>0.6</speed>
</trkpt>
<trkpt lat="47.634627" lon="8.593399">
<ele>378.0</ele>
<time>2003-05-19T11:04:43Z</time>
<speed>0.8</speed>
</trkpt>
<trkpt lat="47.634604" lon="8.593354">
<ele>378.9</ele>
<time>2003-05-19T11:04:48Z</time>
<speed>0.0</speed>
</trkpt>
<trkpt lat="47.634563" lon="8.593291">
<ele>380.4</ele>
<time>2003-05-19T11:04:53Z</time>
<speed>0.6</speed>
</trkpt>
<trkpt lat="47.634564" lon="8.593197">
<ele>380.3</ele>
<time>2003-05-19T11:04:58Z</time>
<speed>0.8</speed>
</trkpt>
<trkpt lat="47.634576" lon="8.593118">
<ele>380.5</ele>
<time>2003-05-19T11:05:03Z</time>
<speed>0.8</speed>
</trkpt>
<trkpt lat="47.634593" lon="8.593052">
<ele>381.4</ele>
<time>2003-05-19T11:05:08Z</time>
<speed>0.3</speed>
</trkpt>
<trkpt lat="47.634570" lon="8.593103">
<ele>381.0</ele>
<time>2003-05-19T11:05:13Z</time>
<speed>1.1</speed>
</trkpt>
<trkpt lat="47.634513" lon="8.593187">
<ele>381.5</ele>
<time>2003-05-19T11:05:18Z</time>
<speed>1.4</speed>
</trkpt>
<trkpt lat="47.634483" lon="8.593236">
<ele>381.7</ele>
<time>2003-05-19T11:05:23Z</time>
<speed>0.3</speed>
</trkpt>
<trkpt lat="47.634483" lon="8.593236">
<ele>381.7</ele>
<time>2003-05-19T11:05:28Z</time>
<speed>0.0</speed>
</trkpt>
<trkpt lat="47.634483" lon="8.593236">
<ele>381.7</ele>
<time>2003-05-19T11:05:33Z</time>
<speed>0.0</speed>
</trkpt>
<trkpt lat="47.634483" lon="8.593236">
<ele>381.7</ele>
<time>2003-05-19T11:05:38Z</time>
<speed>0.0</speed>
</trkpt>
<trkpt lat="47.634483" lon="8.593236">
<ele>381.7</ele>
<time>2003-05-19T11:05:43Z</time>
<speed>0.0</speed>
</trkpt>
<trkpt lat="47.634483" lon="8.593236">
<ele>381.7</ele>
<time>2003-05-19T11:05:48Z</time>
<speed>0.0</speed>
</trkpt>
<trkpt lat="47.634483" lon="8.593236">
<ele>381.7</ele>
<time>2003-05-19T11:05:53Z</time>
<speed>0.0</speed>
</trkpt>
<trkpt lat="47.634489" lon="8.593236">
<ele>382.4</ele>
<time>2003-05-19T11:05:58Z</time>
<speed>0.0</speed>
</trkpt>
<trkpt lat="47.634489" lon="8.593236">
<ele>382.4</ele>
<time>2003-05-19T11:06:03Z</time>
<speed>0.0</speed>
</trkpt>
<trkpt lat="47.634489" lon="8.593236">
<ele>382.4</ele>
<time>2003-05-19T11:06:08Z</time>
<speed>0.0</speed>
</trkpt>
<trkpt lat="47.634508" lon="8.593238">
<ele>383.3</ele>
<time>2003-05-19T11:06:13Z</time>
<speed>0.3</speed>
</trkpt>
<trkpt lat="47.634527" lon="8.593240">
<ele>384.1</ele>
<time>2003-05-19T11:06:18Z</time>
<speed>0.0</speed>
</trkpt>
<trkpt lat="47.634526" lon="8.593253">
<ele>384.2</ele>
<time>2003-05-19T11:06:23Z</time>
<speed>0.3</speed>
</trkpt>
<trkpt lat="47.634526" lon="8.593253">
<ele>384.2</ele>
<time>2003-05-19T11:06:28Z</time>
<speed>0.0</speed>
</trkpt>
<trkpt lat="47.634504" lon="8.593290">
<ele>383.7</ele>
<time>2003-05-19T11:06:33Z</time>
<speed>0.6</speed>
</trkpt>
<trkpt lat="47.634410" lon="8.593357">
<ele>382.4</ele>
<time>2003-05-19T11:06:38Z</time>
<speed>1.1</speed>
</trkpt>
<trkpt lat="47.634355" lon="8.593415">
<ele>382.6</ele>
<time>2003-05-19T11:06:43Z</time>
<speed>1.4</speed>
</trkpt>
<trkpt lat="47.634300" lon="8.593460">
<ele>382.7</ele>
<time>2003-05-19T11:06:48Z</time>
<speed>0.8</speed>
</trkpt>
<trkpt lat="47.634244" lon="8.593516">
<ele>384.3</ele>
<time>2003-05-19T11:06:53Z</time>
<speed>1.1</speed>
</trkpt>
<trkpt lat="47.634195" lon="8.593574">
<ele>385.2</ele>
<time>2003-05-19T11:06:58Z</time>
<speed>1.1</speed>
</trkpt>
<trkpt lat="47.634134" lon="8.593616">
<ele>386.0</ele>
<time>2003-05-19T11:07:03Z</time>
<speed>1.4</speed>
</trkpt>
<trkpt lat="47.634090" lon="8.593689">
<ele>386.4</ele>
<time>2003-05-19T11:07:08Z</time>
<speed>1.4</speed>
</trkpt>
<trkpt lat="47.634047" lon="8.593749">
<ele>386.7</ele>
<time>2003-05-19T11:07:13Z</time>
<speed>1.4</speed>
</trkpt>
<trkpt lat="47.633993" lon="8.593796">
<ele>385.4</ele>
<time>2003-05-19T11:07:18Z</time>
<speed>1.4</speed>
</trkpt>
<trkpt lat="47.633933" lon="8.593840">
<ele>384.8</ele>
<time>2003-05-19T11:07:23Z</time>
<speed>1.4</speed>
</trkpt>
<trkpt lat="47.633886" lon="8.593876">
<ele>382.7</ele>
<time>2003-05-19T11:07:28Z</time>
<speed>1.1</speed>
</trkpt>
<trkpt lat="47.633822" lon="8.593894">
<ele>381.2</ele>
<time>2003-05-19T11:07:33Z</time>
<speed>1.4</speed>
</trkpt>
<trkpt lat="47.633750" lon="8.593909">
<ele>381.7</ele>
<time>2003-05-19T11:07:38Z</time>
<speed>1.4</speed>
</trkpt>
<trkpt lat="47.633691" lon="8.593927">
<ele>380.8</ele>
<time>2003-05-19T11:07:43Z</time>
<speed>1.1</speed>
</trkpt>
<trkpt lat="47.633627" lon="8.593930">
<ele>380.6</ele>
<time>2003-05-19T11:07:48Z</time>
<speed>1.4</speed>
</trkpt>
<trkpt lat="47.633562" lon="8.593947">
<ele>380.4</ele>
<time>2003-05-19T11:07:53Z</time>
<speed>1.4</speed>
</trkpt>
<trkpt lat="47.633491" lon="8.593948">
<ele>380.8</ele>
<time>2003-05-19T11:07:58Z</time>
<speed>1.4</speed>
</trkpt>
<trkpt lat="47.633425" lon="8.593977">
<ele>380.8</ele>
<time>2003-05-19T11:08:03Z</time>
<speed>1.4</speed>
</trkpt>
<trkpt lat="47.633361" lon="8.593981">
<ele>380.5</ele>
<time>2003-05-19T11:08:08Z</time>
<speed>1.4</speed>
</trkpt>
<trkpt lat="47.633303" lon="8.593984">
<ele>381.0</ele>
<time>2003-05-19T11:08:13Z</time>
<speed>1.4</speed>
</trkpt>
<trkpt lat="47.633249" lon="8.593952">
<ele>378.3</ele>
<time>2003-05-19T11:08:18Z</time>
<speed>1.1</speed>
</trkpt>
<trkpt lat="47.633179" lon="8.593940">
<ele>378.6</ele>
<time>2003-05-19T11:08:23Z</time>
<speed>1.4</speed>
</trkpt>
<trkpt lat="47.633109" lon="8.593926">
<ele>380.3</ele>
<time>2003-05-19T11:08:28Z</time>
<speed>1.1</speed>
</trkpt>
<trkpt lat="47.633054" lon="8.593891">
<ele>379.1</ele>
<time>2003-05-19T11:08:33Z</time>
<speed>1.4</speed>
</trkpt>
<trkpt lat="47.632985" lon="8.593879">
<ele>379.4</ele>
<time>2003-05-19T11:08:38Z</time>
<speed>1.4</speed>
</trkpt>
<trkpt lat="47.632903" lon="8.593868">
<ele>378.2</ele>
<time>2003-05-19T11:08:44Z</time>
<speed>1.4</speed>
</trkpt>
<trkpt lat="47.632832" lon="8.593869">
<ele>378.6</ele>
<time>2003-05-19T11:08:49Z</time>
<speed>1.4</speed>
</trkpt>
<trkpt lat="47.632768" lon="8.593872">
<ele>378.4</ele>
<time>2003-05-19T11:08:54Z</time>
<speed>1.4</speed>
</trkpt>
<trkpt lat="47.632696" lon="8.593886">
<ele>378.9</ele>
<time>2003-05-19T11:08:59Z</time>
<speed>1.4</speed>
</trkpt>
<trkpt lat="47.632624" lon="8.593901">
<ele>379.4</ele>
<time>2003-05-19T11:09:04Z</time>
<speed>1.4</speed>
</trkpt>
<trkpt lat="47.632559" lon="8.593932">
<ele>377.9</ele>
<time>2003-05-19T11:09:09Z</time>
<speed>1.4</speed>
</trkpt>
<trkpt lat="47.632486" lon="8.593960">
<ele>378.5</ele>
<time>2003-05-19T11:09:14Z</time>
<speed>1.4</speed>
</trkpt>
<trkpt lat="47.632426" lon="8.594004">
<ele>377.9</ele>
<time>2003-05-19T11:09:19Z</time>
<speed>1.4</speed>
</trkpt>
<trkpt lat="47.632359" lon="8.594034">
<ele>377.8</ele>
<time>2003-05-19T11:09:24Z</time>
<speed>1.4</speed>
</trkpt>
<trkpt lat="47.632298" lon="8.594077">
<ele>378.6</ele>
<time>2003-05-19T11:09:29Z</time>
<speed>1.4</speed>
</trkpt>
<trkpt lat="47.632238" lon="8.594121">
<ele>378.0</ele>
<time>2003-05-19T11:09:34Z</time>
<speed>1.4</speed>
</trkpt>
<trkpt lat="47.632189" lon="8.594181">
<ele>377.5</ele>
<time>2003-05-19T11:09:39Z</time>
<speed>1.1</speed>
</trkpt>
<trkpt lat="47.632134" lon="8.594241">
<ele>376.4</ele>
<time>2003-05-19T11:09:44Z</time>
<speed>1.4</speed>
</trkpt>
<trkpt lat="47.632078" lon="8.594299">
<ele>376.6</ele>
<time>2003-05-19T11:09:49Z</time>
<speed>1.4</speed>
</trkpt>
<trkpt lat="47.632029" lon="8.594359">
<ele>376.1</ele>
<time>2003-05-19T11:09:54Z</time>
<speed>1.1</speed>
</trkpt>
<trkpt lat="47.631974" lon="8.594416">
<ele>376.3</ele>
<time>2003-05-19T11:09:59Z</time>
<speed>1.1</speed>
</trkpt>
<trkpt lat="47.631926" lon="8.594463">
<ele>375.8</ele>
<time>2003-05-19T11:10:04Z</time>
<speed>1.4</speed>
</trkpt>
<trkpt lat="47.631877" lon="8.594523">
<ele>375.3</ele>
<time>2003-05-19T11:10:09Z</time>
<speed>1.1</speed>
</trkpt>
<trkpt lat="47.631823" lon="8.594568">
<ele>375.4</ele>
<time>2003-05-19T11:10:14Z</time>
<speed>1.4</speed>
</trkpt>
<trkpt lat="47.631767" lon="8.594625">
<ele>375.7</ele>
<time>2003-05-19T11:10:19Z</time>
<speed>1.4</speed>
</trkpt>
<trkpt lat="47.631719" lon="8.594670">
<ele>376.5</ele>
<time>2003-05-19T11:10:24Z</time>
<speed>1.4</speed>
</trkpt>
<trkpt lat="47.631657" lon="8.594728">
<ele>376.0</ele>
<time>2003-05-19T11:10:29Z</time>
<speed>1.1</speed>
</trkpt>
<trkpt lat="47.631604" lon="8.594759">
<ele>376.0</ele>
<time>2003-05-19T11:10:34Z</time>
<speed>1.4</speed>
</trkpt>
<trkpt lat="47.631548" lon="8.594817">
<ele>376.2</ele>
<time>2003-05-19T11:10:39Z</time>
<speed>1.1</speed>
</trkpt>
<trkpt lat="47.631488" lon="8.594862">
<ele>375.6</ele>
<time>2003-05-19T11:10:44Z</time>
<speed>1.4</speed>
</trkpt>
<trkpt lat="47.631427" lon="8.594905">
<ele>376.4</ele>
<time>2003-05-19T11:10:49Z</time>
<speed>1.4</speed>
</trkpt>
<trkpt lat="47.631359" lon="8.594947">
<ele>376.4</ele>
<time>2003-05-19T11:10:54Z</time>
<speed>1.4</speed>
</trkpt>
<trkpt lat="47.631293" lon="8.594977">
<ele>376.3</ele>
<time>2003-05-19T11:10:59Z</time>
<speed>1.4</speed>
</trkpt>
<trkpt lat="47.631226" lon="8.595019">
<ele>376.4</ele>
<time>2003-05-19T11:11:04Z</time>
<speed>1.4</speed>
</trkpt>
<trkpt lat="47.631166" lon="8.595064">
<ele>375.8</ele>
<time>2003-05-19T11:11:09Z</time>
<speed>1.1</speed>
</trkpt>
<trkpt lat="47.631111" lon="8.595109">
<ele>375.9</ele>
<time>2003-05-19T11:11:14Z</time>
<speed>1.4</speed>
</trkpt>
<trkpt lat="47.631045" lon="8.595138">
<ele>375.8</ele>
<time>2003-05-19T11:11:19Z</time>
<speed>1.4</speed>
</trkpt>
<trkpt lat="47.630972" lon="8.595166">
<ele>376.4</ele>
<time>2003-05-19T11:11:24Z</time>
<speed>1.7</speed>
</trkpt>
<trkpt lat="47.630912" lon="8.595195">
<ele>377.1</ele>
<time>2003-05-19T11:11:29Z</time>
<speed>1.4</speed>
</trkpt>
<trkpt lat="47.630859" lon="8.595229">
<ele>375.7</ele>
<time>2003-05-19T11:11:34Z</time>
<speed>1.4</speed>
</trkpt>
<trkpt lat="47.630800" lon="8.595260">
<ele>375.0</ele>
<time>2003-05-19T11:11:39Z</time>
<speed>1.4</speed>
</trkpt>
<trkpt lat="47.630733" lon="8.595303">
<ele>375.0</ele>
<time>2003-05-19T11:11:44Z</time>
<speed>1.4</speed>
</trkpt>
<trkpt lat="47.630667" lon="8.595317">
<ele>376.3</ele>
<time>2003-05-19T11:11:49Z</time>
<speed>1.4</speed>
</trkpt>
<trkpt lat="47.630613" lon="8.595349">
<ele>376.3</ele>
<time>2003-05-19T11:11:54Z</time>
<speed>1.4</speed>
</trkpt>
<trkpt lat="47.630554" lon="8.595380">
<ele>375.5</ele>
<time>2003-05-19T11:11:59Z</time>
<speed>1.1</speed>
</trkpt>
<trkpt lat="47.630488" lon="8.595410">
<ele>375.5</ele>
<time>2003-05-19T11:12:04Z</time>
<speed>1.4</speed>
</trkpt>
<trkpt lat="47.630415" lon="8.595438">
<ele>376.1</ele>
<time>2003-05-19T11:12:09Z</time>
<speed>1.4</speed>
</trkpt>
<trkpt lat="47.630356" lon="8.595454">
<ele>376.7</ele>
<time>2003-05-19T11:12:14Z</time>
<speed>1.4</speed>
</trkpt>
<trkpt lat="47.630290" lon="8.595483">
<ele>376.6</ele>
<time>2003-05-19T11:12:19Z</time>
<speed>1.1</speed>
</trkpt>
<trkpt lat="47.630225" lon="8.595500">
<ele>376.4</ele>
<time>2003-05-19T11:12:24Z</time>
<speed>1.4</speed>
</trkpt>
<trkpt lat="47.630160" lon="8.595503">
<ele>376.2</ele>
<time>2003-05-19T11:12:29Z</time>
<speed>1.1</speed>
</trkpt>
<trkpt lat="47.630101" lon="8.595519">
<ele>376.8</ele>
<time>2003-05-19T11:12:34Z</time>
<speed>1.4</speed>
</trkpt>
<trkpt lat="47.630035" lon="8.595549">
<ele>376.7</ele>
<time>2003-05-19T11:12:39Z</time>
<speed>1.1</speed>
</trkpt>
<trkpt lat="47.629975" lon="8.595594">
<ele>376.1</ele>
<time>2003-05-19T11:12:44Z</time>
<speed>1.1</speed>
</trkpt>
<trkpt lat="47.629915" lon="8.595623">
<ele>376.8</ele>
<time>2003-05-19T11:12:49Z</time>
<speed>1.1</speed>
</trkpt>
<trkpt lat="47.629854" lon="8.595668">
<ele>376.1</ele>
<time>2003-05-19T11:12:54Z</time>
<speed>1.4</speed>
</trkpt>
<trkpt lat="47.629794" lon="8.595712">
<ele>375.5</ele>
<time>2003-05-19T11:12:59Z</time>
<speed>1.1</speed>
</trkpt>
<trkpt lat="47.629739" lon="8.595757">
<ele>375.6</ele>
<time>2003-05-19T11:13:04Z</time>
<speed>1.4</speed>
</trkpt>
<trkpt lat="47.629678" lon="8.595802">
<ele>375.0</ele>
<time>2003-05-19T11:13:09Z</time>
<speed>1.4</speed>
</trkpt>
<trkpt lat="47.629618" lon="8.595846">
<ele>374.4</ele>
<time>2003-05-19T11:13:14Z</time>
<speed>1.4</speed>
</trkpt>
<trkpt lat="47.629553" lon="8.595863">
<ele>374.2</ele>
<time>2003-05-19T11:13:19Z</time>
<speed>1.1</speed>
</trkpt>
<trkpt lat="47.629492" lon="8.595907">
<ele>373.6</ele>
<time>2003-05-19T11:13:24Z</time>
<speed>1.4</speed>
</trkpt>
<trkpt lat="47.629426" lon="8.595937">
<ele>373.5</ele>
<time>2003-05-19T11:13:29Z</time>
<speed>1.4</speed>
</trkpt>
<trkpt lat="47.629360" lon="8.595967">
<ele>373.5</ele>
<time>2003-05-19T11:13:34Z</time>
<speed>1.4</speed>
</trkpt>
<trkpt lat="47.629300" lon="8.595996">
<ele>374.1</ele>
<time>2003-05-19T11:13:39Z</time>
<speed>1.1</speed>
</trkpt>
<trkpt lat="47.629239" lon="8.596041">
<ele>373.5</ele>
<time>2003-05-19T11:13:44Z</time>
<speed>1.4</speed>
</trkpt>
<trkpt lat="47.629179" lon="8.596085">
<ele>372.9</ele>
<time>2003-05-19T11:13:49Z</time>
<speed>1.4</speed>
</trkpt>
<trkpt lat="47.629112" lon="8.596128">
<ele>372.9</ele>
<time>2003-05-19T11:13:54Z</time>
<speed>1.4</speed>
</trkpt>
<trkpt lat="47.629056" lon="8.596186">
<ele>373.1</ele>
<time>2003-05-19T11:13:59Z</time>
<speed>1.1</speed>
</trkpt>
<trkpt lat="47.628989" lon="8.596229">
<ele>373.2</ele>
<time>2003-05-19T11:14:04Z</time>
<speed>1.4</speed>
</trkpt>
<trkpt lat="47.628927" lon="8.596286">
<ele>372.7</ele>
<time>2003-05-19T11:14:09Z</time>
<speed>1.4</speed>
</trkpt>
<trkpt lat="47.628866" lon="8.596329">
<ele>373.4</ele>
<time>2003-05-19T11:14:14Z</time>
<speed>1.4</speed>
</trkpt>
<trkpt lat="47.628812" lon="8.596374">
<ele>373.5</ele>
<time>2003-05-19T11:14:19Z</time>
<speed>1.1</speed>
</trkpt>
<trkpt lat="47.628757" lon="8.596418">
<ele>373.7</ele>
<time>2003-05-19T11:14:24Z</time>
<speed>1.4</speed>
</trkpt>
<trkpt lat="47.628697" lon="8.596448">
<ele>374.3</ele>
<time>2003-05-19T11:14:29Z</time>
<speed>1.1</speed>
</trkpt>
<trkpt lat="47.628632" lon="8.596464">
<ele>374.2</ele>
<time>2003-05-19T11:14:34Z</time>
<speed>1.4</speed>
</trkpt>
<trkpt lat="47.628573" lon="8.596481">
<ele>374.8</ele>
<time>2003-05-19T11:14:39Z</time>
<speed>1.4</speed>
</trkpt>
<trkpt lat="47.628509" lon="8.596484">
<ele>374.5</ele>
<time>2003-05-19T11:14:44Z</time>
<speed>1.4</speed>
</trkpt>
<trkpt lat="47.628438" lon="8.596485">
<ele>374.9</ele>
<time>2003-05-19T11:14:49Z</time>
<speed>1.4</speed>
</trkpt>
<trkpt lat="47.628380" lon="8.596488">
<ele>375.4</ele>
<time>2003-05-19T11:14:54Z</time>
<speed>1.4</speed>
</trkpt>
<trkpt lat="47.628305" lon="8.596463">
<ele>374.8</ele>
<time>2003-05-19T11:14:59Z</time>
<speed>1.4</speed>
</trkpt>
<trkpt lat="47.628236" lon="8.596451">
<ele>375.1</ele>
<time>2003-05-19T11:15:04Z</time>
<speed>1.4</speed>
</trkpt>
<trkpt lat="47.628171" lon="8.596454">
<ele>374.9</ele>
<time>2003-05-19T11:15:09Z</time>
<speed>1.4</speed>
</trkpt>
<trkpt lat="47.628120" lon="8.596445">
<ele>376.0</ele>
<time>2003-05-19T11:15:14Z</time>
<speed>1.1</speed>
</trkpt>
<trkpt lat="47.628050" lon="8.596446">
<ele>376.4</ele>
<time>2003-05-19T11:15:19Z</time>
<speed>1.1</speed>
</trkpt>
<trkpt lat="47.627987" lon="8.596436">
<ele>376.0</ele>
<time>2003-05-19T11:15:24Z</time>
<speed>0.8</speed>
</trkpt>
<trkpt lat="47.627897" lon="8.596435">
<ele>375.6</ele>
<time>2003-05-19T11:15:29Z</time>
<speed>1.4</speed>
</trkpt>
<trkpt lat="47.627837" lon="8.596480">
<ele>375.0</ele>
<time>2003-05-19T11:15:34Z</time>
<speed>1.1</speed>
</trkpt>
<trkpt lat="47.627778" lon="8.596496">
<ele>375.6</ele>
<time>2003-05-19T11:15:39Z</time>
<speed>1.4</speed>
</trkpt>
<trkpt lat="47.627712" lon="8.596512">
<ele>375.4</ele>
<time>2003-05-19T11:15:44Z</time>
<speed>0.8</speed>
</trkpt>
<trkpt lat="47.627653" lon="8.596529">
<ele>376.0</ele>
<time>2003-05-19T11:15:49Z</time>
<speed>1.1</speed>
</trkpt>
<trkpt lat="47.627562" lon="8.596554">
<ele>375.8</ele>
<time>2003-05-19T11:15:54Z</time>
<speed>1.4</speed>
</trkpt>
<trkpt lat="47.627484" lon="8.596567">
<ele>377.0</ele>
<time>2003-05-19T11:15:59Z</time>
<speed>1.4</speed>
</trkpt>
<trkpt lat="47.627405" lon="8.596579">
<ele>378.1</ele>
<time>2003-05-19T11:16:04Z</time>
<speed>1.1</speed>
</trkpt>
<trkpt lat="47.627340" lon="8.596595">
<ele>378.0</ele>
<time>2003-05-19T11:16:09Z</time>
<speed>1.4</speed>
</trkpt>
<trkpt lat="47.627281" lon="8.596612">
<ele>378.6</ele>
<time>2003-05-19T11:16:14Z</time>
<speed>1.1</speed>
</trkpt>
<trkpt lat="47.627217" lon="8.596615">
<ele>378.3</ele>
<time>2003-05-19T11:16:19Z</time>
<speed>1.1</speed>
</trkpt>
<trkpt lat="47.627153" lon="8.596618">
<ele>378.0</ele>
<time>2003-05-19T11:16:24Z</time>
<speed>1.1</speed>
</trkpt>
<trkpt lat="47.627083" lon="8.596606">
<ele>378.3</ele>
<time>2003-05-19T11:16:29Z</time>
<speed>1.1</speed>
</trkpt>
<trkpt lat="47.627032" lon="8.596612">
<ele>378.2</ele>
<time>2003-05-19T11:16:34Z</time>
<speed>1.1</speed>
</trkpt>
<trkpt lat="47.626980" lon="8.596617">
<ele>378.0</ele>
<time>2003-05-19T11:16:39Z</time>
<speed>1.1</speed>
</trkpt>
<trkpt lat="47.626897" lon="8.596618">
<ele>376.9</ele>
<time>2003-05-19T11:16:44Z</time>
<speed>1.4</speed>
</trkpt>
<trkpt lat="47.626820" lon="8.596617">
<ele>378.0</ele>
<time>2003-05-19T11:16:49Z</time>
<speed>1.4</speed>
</trkpt>
<trkpt lat="47.626749" lon="8.596634">
<ele>377.1</ele>
<time>2003-05-19T11:16:54Z</time>
<speed>1.7</speed>
</trkpt>
<trkpt lat="47.626678" lon="8.596635">
<ele>377.5</ele>
<time>2003-05-19T11:16:59Z</time>
<speed>1.1</speed>
</trkpt>
<trkpt lat="47.626613" lon="8.596651">
<ele>377.3</ele>
<time>2003-05-19T11:17:04Z</time>
<speed>1.1</speed>
</trkpt>
<trkpt lat="47.626595" lon="8.596747">
<ele>373.7</ele>
<time>2003-05-19T11:17:09Z</time>
<speed>1.4</speed>
</trkpt>
<trkpt lat="47.626583" lon="8.596843">
<ele>370.9</ele>
<time>2003-05-19T11:17:14Z</time>
<speed>1.4</speed>
</trkpt>
<trkpt lat="47.626540" lon="8.596918">
<ele>369.9</ele>
<time>2003-05-19T11:17:19Z</time>
<speed>1.4</speed>
</trkpt>
<trkpt lat="47.626515" lon="8.596997">
<ele>368.3</ele>
<time>2003-05-19T11:17:24Z</time>
<speed>1.4</speed>
</trkpt>
<trkpt lat="47.626496" lon="8.597089">
<ele>367.5</ele>
<time>2003-05-19T11:17:29Z</time>
<speed>1.1</speed>
</trkpt>
<trkpt lat="47.626447" lon="8.597149">
<ele>367.0</ele>
<time>2003-05-19T11:17:34Z</time>
<speed>1.4</speed>
</trkpt>
<trkpt lat="47.626393" lon="8.597196">
<ele>365.7</ele>
<time>2003-05-19T11:17:39Z</time>
<speed>1.4</speed>
</trkpt>
<trkpt lat="47.626345" lon="8.597242">
<ele>365.2</ele>
<time>2003-05-19T11:17:44Z</time>
<speed>1.1</speed>
</trkpt>
<trkpt lat="47.626278" lon="8.597285">
<ele>365.2</ele>
<time>2003-05-19T11:17:49Z</time>
<speed>1.1</speed>
</trkpt>
<trkpt lat="47.626224" lon="8.597330">
<ele>365.3</ele>
<time>2003-05-19T11:17:54Z</time>
<speed>1.4</speed>
</trkpt>
<trkpt lat="47.626163" lon="8.597374">
<ele>364.7</ele>
<time>2003-05-19T11:17:59Z</time>
<speed>1.4</speed>
</trkpt>
<trkpt lat="47.626096" lon="8.597415">
<ele>366.2</ele>
<time>2003-05-19T11:18:04Z</time>
<speed>1.4</speed>
</trkpt>
<trkpt lat="47.626043" lon="8.597433">
<ele>366.1</ele>
<time>2003-05-19T11:18:09Z</time>
<speed>1.1</speed>
</trkpt>
<trkpt lat="47.625983" lon="8.597478">
<ele>365.4</ele>
<time>2003-05-19T11:18:14Z</time>
<speed>1.7</speed>
</trkpt>
<trkpt lat="47.625930" lon="8.597512">
<ele>364.1</ele>
<time>2003-05-19T11:18:19Z</time>
<speed>1.1</speed>
</trkpt>
<trkpt lat="47.625862" lon="8.597554">
<ele>364.1</ele>
<time>2003-05-19T11:18:24Z</time>
<speed>1.1</speed>
</trkpt>
<trkpt lat="47.625810" lon="8.597573">
<ele>364.0</ele>
<time>2003-05-19T11:18:29Z</time>
<speed>0.8</speed>
</trkpt>
<trkpt lat="47.625749" lon="8.597617">
<ele>363.4</ele>
<time>2003-05-19T11:18:34Z</time>
<speed>1.1</speed>
</trkpt>
<trkpt lat="47.625697" lon="8.597636">
<ele>363.3</ele>
<time>2003-05-19T11:18:39Z</time>
<speed>1.1</speed>
</trkpt>
<trkpt lat="47.625631" lon="8.597665">
<ele>363.2</ele>
<time>2003-05-19T11:18:44Z</time>
<speed>1.4</speed>
</trkpt>
<trkpt lat="47.625572" lon="8.597683">
<ele>362.4</ele>
<time>2003-05-19T11:18:49Z</time>
<speed>1.4</speed>
</trkpt>
<trkpt lat="47.625515" lon="8.597689">
<ele>361.5</ele>
<time>2003-05-19T11:18:54Z</time>
<speed>1.1</speed>
</trkpt>
<trkpt lat="47.625450" lon="8.597692">
<ele>361.2</ele>
<time>2003-05-19T11:18:59Z</time>
<speed>1.1</speed>
</trkpt>
<trkpt lat="47.625391" lon="8.597723">
<ele>360.5</ele>
<time>2003-05-19T11:19:04Z</time>
<speed>1.1</speed>
</trkpt>
<trkpt lat="47.625324" lon="8.597766">
<ele>360.5</ele>
<time>2003-05-19T11:19:09Z</time>
<speed>1.4</speed>
</trkpt>
<trkpt lat="47.625265" lon="8.597784">
<ele>359.7</ele>
<time>2003-05-19T11:19:14Z</time>
<speed>1.4</speed>
</trkpt>
<trkpt lat="47.625199" lon="8.597814">
<ele>359.7</ele>
<time>2003-05-19T11:19:19Z</time>
<speed>1.4</speed>
</trkpt>
<trkpt lat="47.625151" lon="8.597861">
<ele>359.1</ele>
<time>2003-05-19T11:19:24Z</time>
<speed>1.1</speed>
</trkpt>
<trkpt lat="47.625086" lon="8.597877">
<ele>358.9</ele>
<time>2003-05-19T11:19:29Z</time>
<speed>1.1</speed>
</trkpt>
<trkpt lat="47.625019" lon="8.597904">
<ele>360.3</ele>
<time>2003-05-19T11:19:34Z</time>
<speed>1.4</speed>
</trkpt>
<trkpt lat="47.624954" lon="8.597936">
<ele>358.8</ele>
<time>2003-05-19T11:19:39Z</time>
<speed>1.4</speed>
</trkpt>
<trkpt lat="47.624889" lon="8.597952">
<ele>358.7</ele>
<time>2003-05-19T11:19:44Z</time>
<speed>1.4</speed>
</trkpt>
<trkpt lat="47.624822" lon="8.597982">
<ele>358.6</ele>
<time>2003-05-19T11:19:49Z</time>
<speed>1.1</speed>
</trkpt>
<trkpt lat="47.624769" lon="8.598013">
<ele>358.6</ele>
<time>2003-05-19T11:19:54Z</time>
<speed>1.1</speed>
</trkpt>
<trkpt lat="47.624709" lon="8.598045">
<ele>357.9</ele>
<time>2003-05-19T11:19:59Z</time>
<speed>1.4</speed>
</trkpt>
<trkpt lat="47.624655" lon="8.598089">
<ele>358.0</ele>
<time>2003-05-19T11:20:04Z</time>
<speed>1.4</speed>
</trkpt>
<trkpt lat="47.624589" lon="8.598119">
<ele>357.9</ele>
<time>2003-05-19T11:20:09Z</time>
<speed>1.4</speed>
</trkpt>
<trkpt lat="47.624528" lon="8.598164">
<ele>357.3</ele>
<time>2003-05-19T11:20:14Z</time>
<speed>1.1</speed>
</trkpt>
<trkpt lat="47.624468" lon="8.598193">
<ele>358.0</ele>
<time>2003-05-19T11:20:19Z</time>
<speed>1.4</speed>
</trkpt>
<trkpt lat="47.624401" lon="8.598238">
<ele>356.6</ele>
<time>2003-05-19T11:20:24Z</time>
<speed>1.4</speed>
</trkpt>
<trkpt lat="47.624340" lon="8.598280">
<ele>357.4</ele>
<time>2003-05-19T11:20:29Z</time>
<speed>1.4</speed>
</trkpt>
<trkpt lat="47.624273" lon="8.598323">
<ele>357.5</ele>
<time>2003-05-19T11:20:34Z</time>
<speed>1.4</speed>
</trkpt>
<trkpt lat="47.624214" lon="8.598355">
<ele>356.7</ele>
<time>2003-05-19T11:20:39Z</time>
<speed>1.1</speed>
</trkpt>
<trkpt lat="47.624155" lon="8.598371">
<ele>357.3</ele>
<time>2003-05-19T11:20:44Z</time>
<speed>1.1</speed>
</trkpt>
<trkpt lat="47.624088" lon="8.598401">
<ele>357.2</ele>
<time>2003-05-19T11:20:49Z</time>
<speed>1.4</speed>
</trkpt>
<trkpt lat="47.624034" lon="8.598445">
<ele>357.4</ele>
<time>2003-05-19T11:20:54Z</time>
<speed>1.4</speed>
</trkpt>
<trkpt lat="47.623962" lon="8.598460">
<ele>357.9</ele>
<time>2003-05-19T11:20:59Z</time>
<speed>1.1</speed>
</trkpt>
<trkpt lat="47.623902" lon="8.598489">
<ele>358.5</ele>
<time>2003-05-19T11:21:04Z</time>
<speed>1.4</speed>
</trkpt>
<trkpt lat="47.623842" lon="8.598534">
<ele>357.9</ele>
<time>2003-05-19T11:21:09Z</time>
<speed>1.1</speed>
</trkpt>
<trkpt lat="47.623780" lon="8.598592">
<ele>357.4</ele>
<time>2003-05-19T11:21:14Z</time>
<speed>1.4</speed>
</trkpt>
<trkpt lat="47.623721" lon="8.598623">
<ele>356.7</ele>
<time>2003-05-19T11:21:19Z</time>
<speed>1.4</speed>
</trkpt>
<trkpt lat="47.623659" lon="8.598666">
<ele>357.5</ele>
<time>2003-05-19T11:21:24Z</time>
<speed>1.1</speed>
</trkpt>
<trkpt lat="47.623606" lon="8.598697">
<ele>357.5</ele>
<time>2003-05-19T11:21:29Z</time>
<speed>1.1</speed>
</trkpt>
<trkpt lat="47.623545" lon="8.598742">
<ele>356.8</ele>
<time>2003-05-19T11:21:34Z</time>
<speed>1.4</speed>
</trkpt>
<trkpt lat="47.623477" lon="8.598798">
<ele>357.0</ele>
<time>2003-05-19T11:21:39Z</time>
<speed>1.4</speed>
</trkpt>
<trkpt lat="47.623418" lon="8.598829">
<ele>356.3</ele>
<time>2003-05-19T11:21:44Z</time>
<speed>1.4</speed>
</trkpt>
<trkpt lat="47.623357" lon="8.598872">
<ele>357.0</ele>
<time>2003-05-19T11:21:49Z</time>
<speed>1.1</speed>
</trkpt>
<trkpt lat="47.623335" lon="8.598894">
<ele>357.8</ele>
<time>2003-05-19T11:21:54Z</time>
<speed>0.0</speed>
</trkpt>
<trkpt lat="47.623309" lon="8.598903">
<ele>357.8</ele>
<time>2003-05-19T11:21:59Z</time>
<speed>1.1</speed>
</trkpt>
<trkpt lat="47.623243" lon="8.598933">
<ele>357.7</ele>
<time>2003-05-19T11:22:04Z</time>
<speed>1.4</speed>
</trkpt>
<trkpt lat="47.623190" lon="8.598964">
<ele>357.7</ele>
<time>2003-05-19T11:22:09Z</time>
<speed>1.4</speed>
</trkpt>
<trkpt lat="47.623128" lon="8.599007">
<ele>358.5</ele>
<time>2003-05-19T11:22:14Z</time>
<speed>1.1</speed>
</trkpt>
<trkpt lat="47.623070" lon="8.599025">
<ele>357.7</ele>
<time>2003-05-19T11:22:19Z</time>
<speed>1.4</speed>
</trkpt>
<trkpt lat="47.623009" lon="8.599070">
<ele>357.1</ele>
<time>2003-05-19T11:22:24Z</time>
<speed>1.1</speed>
</trkpt>
<trkpt lat="47.622949" lon="8.599100">
<ele>357.8</ele>
<time>2003-05-19T11:22:29Z</time>
<speed>1.1</speed>
</trkpt>
<trkpt lat="47.622901" lon="8.599144">
<ele>358.6</ele>
<time>2003-05-19T11:22:34Z</time>
<speed>1.1</speed>
</trkpt>
<trkpt lat="47.622846" lon="8.599189">
<ele>358.7</ele>
<time>2003-05-19T11:22:39Z</time>
<speed>1.1</speed>
</trkpt>
<trkpt lat="47.622786" lon="8.599218">
<ele>359.4</ele>
<time>2003-05-19T11:22:44Z</time>
<speed>1.1</speed>
</trkpt>
<trkpt lat="47.622725" lon="8.599261">
<ele>360.2</ele>
<time>2003-05-19T11:22:49Z</time>
<speed>1.4</speed>
</trkpt>
<trkpt lat="47.622677" lon="8.599308">
<ele>359.6</ele>
<time>2003-05-19T11:22:54Z</time>
<speed>1.1</speed>
</trkpt>
<trkpt lat="47.622610" lon="8.599350">
<ele>359.7</ele>
<time>2003-05-19T11:22:59Z</time>
<speed>1.4</speed>
</trkpt>
<trkpt lat="47.622543" lon="8.599393">
<ele>359.7</ele>
<time>2003-05-19T11:23:04Z</time>
<speed>1.1</speed>
</trkpt>
<trkpt lat="47.622477" lon="8.599423">
<ele>359.7</ele>
<time>2003-05-19T11:23:09Z</time>
<speed>1.4</speed>
</trkpt>
<trkpt lat="47.622416" lon="8.599467">
<ele>359.0</ele>
<time>2003-05-19T11:23:14Z</time>
<speed>1.1</speed>
</trkpt>
<trkpt lat="47.622356" lon="8.599497">
<ele>359.7</ele>
<time>2003-05-19T11:23:19Z</time>
<speed>1.4</speed>
</trkpt>
<trkpt lat="47.622284" lon="8.599526">
<ele>358.9</ele>
<time>2003-05-19T11:23:24Z</time>
<speed>1.1</speed>
</trkpt>
<trkpt lat="47.622230" lon="8.599571">
<ele>359.0</ele>
<time>2003-05-19T11:23:29Z</time>
<speed>1.4</speed>
</trkpt>
<trkpt lat="47.622163" lon="8.599600">
<ele>359.0</ele>
<time>2003-05-19T11:23:34Z</time>
<speed>1.1</speed>
</trkpt>
<trkpt lat="47.622103" lon="8.599630">
<ele>359.6</ele>
<time>2003-05-19T11:23:39Z</time>
<speed>1.4</speed>
</trkpt>
<trkpt lat="47.622037" lon="8.599659">
<ele>359.6</ele>
<time>2003-05-19T11:23:44Z</time>
<speed>1.4</speed>
</trkpt>
<trkpt lat="47.621978" lon="8.599691">
<ele>358.9</ele>
<time>2003-05-19T11:23:49Z</time>
<speed>1.4</speed>
</trkpt>
<trkpt lat="47.621911" lon="8.599734">
<ele>358.9</ele>
<time>2003-05-19T11:23:54Z</time>
<speed>1.4</speed>
</trkpt>
<trkpt lat="47.621844" lon="8.599763">
<ele>358.8</ele>
<time>2003-05-19T11:23:59Z</time>
<speed>1.4</speed>
</trkpt>
<trkpt lat="47.621791" lon="8.599795">
<ele>358.9</ele>
<time>2003-05-19T11:24:04Z</time>
<speed>1.1</speed>
</trkpt>
<trkpt lat="47.621737" lon="8.599826">
<ele>358.9</ele>
<time>2003-05-19T11:24:09Z</time>
<speed>1.1</speed>
</trkpt>
<trkpt lat="47.621671" lon="8.599856">
<ele>358.8</ele>
<time>2003-05-19T11:24:14Z</time>
<speed>1.4</speed>
</trkpt>
<trkpt lat="47.621604" lon="8.599898">
<ele>358.9</ele>
<time>2003-05-19T11:24:19Z</time>
<speed>1.1</speed>
</trkpt>
<trkpt lat="47.621578" lon="8.599908">
<ele>358.8</ele>
<time>2003-05-19T11:24:24Z</time>
<speed>0.3</speed>
</trkpt>
<trkpt lat="47.621588" lon="8.599951">
<ele>357.8</ele>
<time>2003-05-19T11:24:29Z</time>
<speed>0.3</speed>
</trkpt>
<trkpt lat="47.621584" lon="8.600004">
<ele>358.2</ele>
<time>2003-05-19T11:24:34Z</time>
<speed>0.6</speed>
</trkpt>
<trkpt lat="47.621556" lon="8.600039">
<ele>358.3</ele>
<time>2003-05-19T11:24:39Z</time>
<speed>0.6</speed>
</trkpt>
<trkpt lat="47.621540" lon="8.600077">
<ele>358.6</ele>
<time>2003-05-19T11:24:44Z</time>
<speed>0.6</speed>
</trkpt>
<trkpt lat="47.621524" lon="8.600127">
<ele>358.9</ele>
<time>2003-05-19T11:24:49Z</time>
<speed>0.6</speed>
</trkpt>
<trkpt lat="47.621502" lon="8.600165">
<ele>358.4</ele>
<time>2003-05-19T11:24:54Z</time>
<speed>0.8</speed>
</trkpt>
<trkpt lat="47.621460" lon="8.600211">
<ele>358.6</ele>
<time>2003-05-19T11:24:59Z</time>
<speed>0.8</speed>
</trkpt>
<trkpt lat="47.621437" lon="8.600262">
<ele>358.2</ele>
<time>2003-05-19T11:25:04Z</time>
<speed>0.6</speed>
</trkpt>
<trkpt lat="47.621396" lon="8.600311">
<ele>356.9</ele>
<time>2003-05-19T11:25:09Z</time>
<speed>0.6</speed>
</trkpt>
<trkpt lat="47.621355" lon="8.600344">
<ele>357.0</ele>
<time>2003-05-19T11:25:14Z</time>
<speed>0.3</speed>
</trkpt>
<trkpt lat="47.621308" lon="8.600376">
<ele>357.8</ele>
<time>2003-05-19T11:25:19Z</time>
<speed>1.1</speed>
</trkpt>
<trkpt lat="47.621285" lon="8.600426">
<ele>357.4</ele>
<time>2003-05-19T11:25:24Z</time>
<speed>0.8</speed>
</trkpt>
<trkpt lat="47.621246" lon="8.600433">
<ele>357.3</ele>
<time>2003-05-19T11:25:29Z</time>
<speed>0.6</speed>
</trkpt>
<trkpt lat="47.621173" lon="8.600461">
<ele>357.9</ele>
<time>2003-05-19T11:25:34Z</time>
<speed>1.1</speed>
</trkpt>
<trkpt lat="47.621113" lon="8.600490">
<ele>358.6</ele>
<time>2003-05-19T11:25:39Z</time>
<speed>0.8</speed>
</trkpt>
<trkpt lat="47.621060" lon="8.600522">
<ele>358.6</ele>
<time>2003-05-19T11:25:44Z</time>
<speed>1.1</speed>
</trkpt>
<trkpt lat="47.621007" lon="8.600540">
<ele>358.5</ele>
<time>2003-05-19T11:25:49Z</time>
<speed>0.8</speed>
</trkpt>
<trkpt lat="47.620947" lon="8.600570">
<ele>359.2</ele>
<time>2003-05-19T11:25:54Z</time>
<speed>0.8</speed>
</trkpt>
<trkpt lat="47.620894" lon="8.600601">
<ele>359.2</ele>
<time>2003-05-19T11:25:59Z</time>
<speed>0.6</speed>
</trkpt>
<trkpt lat="47.620839" lon="8.600646">
<ele>359.3</ele>
<time>2003-05-19T11:26:04Z</time>
<speed>0.6</speed>
</trkpt>
<trkpt lat="47.620773" lon="8.600675">
<ele>359.2</ele>
<time>2003-05-19T11:26:09Z</time>
<speed>0.8</speed>
</trkpt>
<trkpt lat="47.620737" lon="8.600722">
<ele>360.2</ele>
<time>2003-05-19T11:26:14Z</time>
<speed>0.6</speed>
</trkpt>
<trkpt lat="47.620695" lon="8.600769">
<ele>360.3</ele>
<time>2003-05-19T11:26:19Z</time>
<speed>0.6</speed>
</trkpt>
<trkpt lat="47.620641" lon="8.600815">
<ele>359.0</ele>
<time>2003-05-19T11:26:24Z</time>
<speed>1.1</speed>
</trkpt>
<trkpt lat="47.620554" lon="8.600882">
<ele>358.5</ele>
<time>2003-05-19T11:26:29Z</time>
<speed>1.1</speed>
</trkpt>
<trkpt lat="47.620506" lon="8.600929">
<ele>357.9</ele>
<time>2003-05-19T11:26:34Z</time>
<speed>0.8</speed>
</trkpt>
<trkpt lat="47.620451" lon="8.600974">
<ele>358.0</ele>
<time>2003-05-19T11:26:39Z</time>
<speed>0.8</speed>
</trkpt>
<trkpt lat="47.620399" lon="8.600992">
<ele>358.0</ele>
<time>2003-05-19T11:26:44Z</time>
<speed>1.1</speed>
</trkpt>
<trkpt lat="47.620333" lon="8.601021">
<ele>357.9</ele>
<time>2003-05-19T11:26:49Z</time>
<speed>0.8</speed>
</trkpt>
<trkpt lat="47.620264" lon="8.601077">
<ele>358.0</ele>
<time>2003-05-19T11:26:54Z</time>
<speed>1.1</speed>
</trkpt>
<trkpt lat="47.620196" lon="8.601133">
<ele>358.2</ele>
<time>2003-05-19T11:26:59Z</time>
<speed>0.8</speed>
</trkpt>
<trkpt lat="47.620138" lon="8.601151">
<ele>357.4</ele>
<time>2003-05-19T11:27:04Z</time>
<speed>0.8</speed>
</trkpt>
<trkpt lat="47.620077" lon="8.601196">
<ele>356.7</ele>
<time>2003-05-19T11:27:09Z</time>
<speed>0.6</speed>
</trkpt>
<trkpt lat="47.620025" lon="8.601214">
<ele>356.6</ele>
<time>2003-05-19T11:27:14Z</time>
<speed>0.8</speed>
</trkpt>
<trkpt lat="47.619958" lon="8.601257">
<ele>356.7</ele>
<time>2003-05-19T11:27:19Z</time>
<speed>1.1</speed>
</trkpt>
<trkpt lat="47.619910" lon="8.601289">
<ele>357.4</ele>
<time>2003-05-19T11:27:24Z</time>
<speed>0.8</speed>
</trkpt>
<trkpt lat="47.619837" lon="8.601331">
<ele>356.7</ele>
<time>2003-05-19T11:27:29Z</time>
<speed>1.1</speed>
</trkpt>
<trkpt lat="47.619782" lon="8.601376">
<ele>356.9</ele>
<time>2003-05-19T11:27:34Z</time>
<speed>0.8</speed>
</trkpt>
<trkpt lat="47.619722" lon="8.601421">
<ele>356.2</ele>
<time>2003-05-19T11:27:39Z</time>
<speed>0.8</speed>
</trkpt>
<trkpt lat="47.619662" lon="8.601450">
<ele>356.9</ele>
<time>2003-05-19T11:27:44Z</time>
<speed>0.8</speed>
</trkpt>
<trkpt lat="47.619613" lon="8.601510">
<ele>356.5</ele>
<time>2003-05-19T11:27:49Z</time>
<speed>0.8</speed>
</trkpt>
<trkpt lat="47.619557" lon="8.601568">
<ele>356.7</ele>
<time>2003-05-19T11:27:54Z</time>
<speed>0.8</speed>
</trkpt>
<trkpt lat="47.619503" lon="8.601612">
<ele>356.8</ele>
<time>2003-05-19T11:27:59Z</time>
<speed>1.1</speed>
</trkpt>
<trkpt lat="47.619435" lon="8.601668">
<ele>356.9</ele>
<time>2003-05-19T11:28:04Z</time>
<speed>0.8</speed>
</trkpt>
<trkpt lat="47.619359" lon="8.601735">
<ele>357.8</ele>
<time>2003-05-19T11:28:09Z</time>
<speed>1.1</speed>
</trkpt>
<trkpt lat="47.619290" lon="8.601806">
<ele>356.7</ele>
<time>2003-05-19T11:28:14Z</time>
<speed>1.4</speed>
</trkpt>
<trkpt lat="47.619255" lon="8.601853">
<ele>357.6</ele>
<time>2003-05-19T11:28:19Z</time>
<speed>0.8</speed>
</trkpt>
<trkpt lat="47.619222" lon="8.601860">
<ele>358.2</ele>
<time>2003-05-19T11:28:24Z</time>
<speed>0.8</speed>
</trkpt>
<trkpt lat="47.619166" lon="8.601918">
<ele>358.4</ele>
<time>2003-05-19T11:28:29Z</time>
<speed>0.8</speed>
</trkpt>
<trkpt lat="47.619099" lon="8.601960">
<ele>358.5</ele>
<time>2003-05-19T11:28:34Z</time>
<speed>1.1</speed>
</trkpt>
<trkpt lat="47.619045" lon="8.602005">
<ele>358.6</ele>
<time>2003-05-19T11:28:39Z</time>
<speed>0.6</speed>
</trkpt>
<trkpt lat="47.618984" lon="8.602048">
<ele>359.4</ele>
<time>2003-05-19T11:28:44Z</time>
<speed>1.1</speed>
</trkpt>
<trkpt lat="47.618920" lon="8.602132">
<ele>359.1</ele>
<time>2003-05-19T11:28:49Z</time>
<speed>1.1</speed>
</trkpt>
<trkpt lat="47.618879" lon="8.602180">
<ele>357.8</ele>
<time>2003-05-19T11:28:54Z</time>
<speed>0.8</speed>
</trkpt>
<trkpt lat="47.618843" lon="8.602229">
<ele>357.4</ele>
<time>2003-05-19T11:28:59Z</time>
<speed>0.8</speed>
</trkpt>
<trkpt lat="47.618795" lon="8.602289">
<ele>356.9</ele>
<time>2003-05-19T11:29:04Z</time>
<speed>1.1</speed>
</trkpt>
<trkpt lat="47.618725" lon="8.602358">
<ele>357.2</ele>
<time>2003-05-19T11:29:09Z</time>
<speed>1.1</speed>
</trkpt>
<trkpt lat="47.618676" lon="8.602416">
<ele>358.1</ele>
<time>2003-05-19T11:29:14Z</time>
<speed>1.1</speed>
</trkpt>
<trkpt lat="47.618622" lon="8.602447">
<ele>358.1</ele>
<time>2003-05-19T11:29:19Z</time>
<speed>0.6</speed>
</trkpt>
<trkpt lat="47.618563" lon="8.602479">
<ele>357.4</ele>
<time>2003-05-19T11:29:24Z</time>
<speed>1.1</speed>
</trkpt>
<trkpt lat="47.618515" lon="8.602510">
<ele>358.1</ele>
<time>2003-05-19T11:29:29Z</time>
<speed>0.6</speed>
</trkpt>
<trkpt lat="47.618453" lon="8.602566">
<ele>359.0</ele>
<time>2003-05-19T11:29:34Z</time>
<speed>1.1</speed>
</trkpt>
<trkpt lat="47.618399" lon="8.602611">
<ele>359.1</ele>
<time>2003-05-19T11:29:39Z</time>
<speed>0.8</speed>
</trkpt>
<trkpt lat="47.618349" lon="8.602668">
<ele>360.1</ele>
<time>2003-05-19T11:29:44Z</time>
<speed>0.8</speed>
</trkpt>
<trkpt lat="47.618297" lon="8.602687">
<ele>360.0</ele>
<time>2003-05-19T11:29:49Z</time>
<speed>0.8</speed>
</trkpt>
<trkpt lat="47.618242" lon="8.602731">
<ele>360.1</ele>
<time>2003-05-19T11:29:54Z</time>
<speed>0.8</speed>
</trkpt>
<trkpt lat="47.618181" lon="8.602789">
<ele>359.6</ele>
<time>2003-05-19T11:29:59Z</time>
<speed>0.6</speed>
</trkpt>
<trkpt lat="47.618098" lon="8.602869">
<ele>359.9</ele>
<time>2003-05-19T11:30:04Z</time>
<speed>1.4</speed>
</trkpt>
<trkpt lat="47.618038" lon="8.602914">
<ele>359.3</ele>
<time>2003-05-19T11:30:09Z</time>
<speed>0.8</speed>
</trkpt>
<trkpt lat="47.618003" lon="8.602947">
<ele>360.1</ele>
<time>2003-05-19T11:30:14Z</time>
<speed>0.6</speed>
</trkpt>
<trkpt lat="47.617942" lon="8.602992">
<ele>359.5</ele>
<time>2003-05-19T11:30:19Z</time>
<speed>1.1</speed>
</trkpt>
<trkpt lat="47.617867" lon="8.603059">
<ele>360.4</ele>
<time>2003-05-19T11:30:24Z</time>
<speed>1.1</speed>
</trkpt>
<trkpt lat="47.617799" lon="8.603117">
<ele>359.1</ele>
<time>2003-05-19T11:30:29Z</time>
<speed>1.1</speed>
</trkpt>
<trkpt lat="47.617727" lon="8.603148">
<ele>356.9</ele>
<time>2003-05-19T11:30:34Z</time>
<speed>0.8</speed>
</trkpt>
<trkpt lat="47.617687" lon="8.603184">
<ele>355.6</ele>
<time>2003-05-19T11:30:39Z</time>
<speed>1.1</speed>
</trkpt>
<trkpt lat="47.617624" lon="8.603255">
<ele>355.2</ele>
<time>2003-05-19T11:30:44Z</time>
<speed>1.4</speed>
</trkpt>
<trkpt lat="47.617576" lon="8.603301">
<ele>354.6</ele>
<time>2003-05-19T11:30:49Z</time>
<speed>0.8</speed>
</trkpt>
<trkpt lat="47.617508" lon="8.603357">
<ele>354.8</ele>
<time>2003-05-19T11:30:54Z</time>
<speed>1.1</speed>
</trkpt>
<trkpt lat="47.617442" lon="8.603402">
<ele>353.4</ele>
<time>2003-05-19T11:30:59Z</time>
<speed>1.1</speed>
</trkpt>
<trkpt lat="47.617394" lon="8.603448">
<ele>352.8</ele>
<time>2003-05-19T11:31:04Z</time>
<speed>0.8</speed>
</trkpt>
<trkpt lat="47.617333" lon="8.603493">
<ele>352.2</ele>
<time>2003-05-19T11:31:09Z</time>
<speed>0.8</speed>
</trkpt>
<trkpt lat="47.617292" lon="8.603527">
<ele>352.3</ele>
<time>2003-05-19T11:31:14Z</time>
<speed>0.8</speed>
</trkpt>
<trkpt lat="47.617245" lon="8.603558">
<ele>353.1</ele>
<time>2003-05-19T11:31:19Z</time>
<speed>0.6</speed>
</trkpt>
<trkpt lat="47.617177" lon="8.603614">
<ele>353.2</ele>
<time>2003-05-19T11:31:24Z</time>
<speed>1.1</speed>
</trkpt>
<trkpt lat="47.617130" lon="8.603647">
<ele>352.5</ele>
<time>2003-05-19T11:31:29Z</time>
<speed>0.6</speed>
</trkpt>
<trkpt lat="47.617077" lon="8.603666">
<ele>352.5</ele>
<time>2003-05-19T11:31:34Z</time>
<speed>0.8</speed>
</trkpt>
<trkpt lat="47.617029" lon="8.603710">
<ele>353.3</ele>
<time>2003-05-19T11:31:39Z</time>
<speed>0.6</speed>
</trkpt>
<trkpt lat="47.616982" lon="8.603744">
<ele>352.7</ele>
<time>2003-05-19T11:31:44Z</time>
<speed>0.8</speed>
</trkpt>
<trkpt lat="47.616915" lon="8.603787">
<ele>352.7</ele>
<time>2003-05-19T11:31:49Z</time>
<speed>0.6</speed>
</trkpt>
<trkpt lat="47.616849" lon="8.603816">
<ele>352.6</ele>
<time>2003-05-19T11:31:54Z</time>
<speed>0.8</speed>
</trkpt>
<trkpt lat="47.616783" lon="8.603846">
<ele>352.6</ele>
<time>2003-05-19T11:31:59Z</time>
<speed>0.8</speed>
</trkpt>
<trkpt lat="47.616716" lon="8.603875">
<ele>352.5</ele>
<time>2003-05-19T11:32:04Z</time>
<speed>1.1</speed>
</trkpt>
<trkpt lat="47.616631" lon="8.603918">
<ele>350.3</ele>
<time>2003-05-19T11:32:09Z</time>
<speed>0.8</speed>
</trkpt>
<trkpt lat="47.616557" lon="8.603958">
<ele>351.1</ele>
<time>2003-05-19T11:32:14Z</time>
<speed>0.8</speed>
</trkpt>
<trkpt lat="47.616499" lon="8.603977">
<ele>350.2</ele>
<time>2003-05-19T11:32:19Z</time>
<speed>0.8</speed>
</trkpt>
<trkpt lat="47.616457" lon="8.604023">
<ele>350.4</ele>
<time>2003-05-19T11:32:24Z</time>
<speed>0.6</speed>
</trkpt>
<trkpt lat="47.616396" lon="8.604066">
<ele>351.2</ele>
<time>2003-05-19T11:32:29Z</time>
<speed>1.1</speed>
</trkpt>
<trkpt lat="47.616335" lon="8.604109">
<ele>352.0</ele>
<time>2003-05-19T11:32:34Z</time>
<speed>1.1</speed>
</trkpt>
<trkpt lat="47.616251" lon="8.604123">
<ele>351.0</ele>
<time>2003-05-19T11:32:39Z</time>
<speed>1.7</speed>
</trkpt>
<trkpt lat="47.616192" lon="8.604141">
<ele>350.2</ele>
<time>2003-05-19T11:32:44Z</time>
<speed>0.8</speed>
</trkpt>
<trkpt lat="47.616139" lon="8.604173">
<ele>350.2</ele>
<time>2003-05-19T11:32:49Z</time>
<speed>0.8</speed>
</trkpt>
<trkpt lat="47.616086" lon="8.604189">
<ele>351.5</ele>
<time>2003-05-19T11:32:54Z</time>
<speed>0.8</speed>
</trkpt>
<trkpt lat="47.616007" lon="8.604217">
<ele>351.4</ele>
<time>2003-05-19T11:32:59Z</time>
<speed>0.8</speed>
</trkpt>
<trkpt lat="47.615934" lon="8.604259">
<ele>350.7</ele>
<time>2003-05-19T11:33:04Z</time>
<speed>1.1</speed>
</trkpt>
<trkpt lat="47.615854" lon="8.604300">
<ele>350.7</ele>
<time>2003-05-19T11:33:09Z</time>
<speed>1.1</speed>
</trkpt>
<trkpt lat="47.615788" lon="8.604314">
<ele>351.9</ele>
<time>2003-05-19T11:33:14Z</time>
<speed>1.1</speed>
</trkpt>
<trkpt lat="47.615725" lon="8.604304">
<ele>351.5</ele>
<time>2003-05-19T11:33:19Z</time>
<speed>0.8</speed>
</trkpt>
<trkpt lat="47.615667" lon="8.604308">
<ele>352.0</ele>
<time>2003-05-19T11:33:24Z</time>
<speed>0.8</speed>
</trkpt>
<trkpt lat="47.615611" lon="8.604285">
<ele>352.3</ele>
<time>2003-05-19T11:33:29Z</time>
<speed>0.8</speed>
</trkpt>
<trkpt lat="47.615529" lon="8.604271">
<ele>352.5</ele>
<time>2003-05-19T11:33:34Z</time>
<speed>0.8</speed>
</trkpt>
<trkpt lat="47.615452" lon="8.604272">
<ele>352.2</ele>
<time>2003-05-19T11:33:39Z</time>
<speed>1.1</speed>
</trkpt>
<trkpt lat="47.615388" lon="8.604275">
<ele>351.9</ele>
<time>2003-05-19T11:33:44Z</time>
<speed>0.6</speed>
</trkpt>
<trkpt lat="47.615336" lon="8.604280">
<ele>351.8</ele>
<time>2003-05-19T11:33:49Z</time>
<speed>0.8</speed>
</trkpt>
<trkpt lat="47.615273" lon="8.604268">
<ele>352.8</ele>
<time>2003-05-19T11:33:54Z</time>
<speed>0.6</speed>
</trkpt>
<trkpt lat="47.615209" lon="8.604272">
<ele>352.5</ele>
<time>2003-05-19T11:33:59Z</time>
<speed>1.4</speed>
</trkpt>
<trkpt lat="47.615126" lon="8.604273">
<ele>351.5</ele>
<time>2003-05-19T11:34:04Z</time>
<speed>1.1</speed>
</trkpt>
<trkpt lat="47.615055" lon="8.604274">
<ele>351.9</ele>
<time>2003-05-19T11:34:09Z</time>
<speed>1.1</speed>
</trkpt>
<trkpt lat="47.614991" lon="8.604277">
<ele>351.6</ele>
<time>2003-05-19T11:34:14Z</time>
<speed>1.1</speed>
</trkpt>
<trkpt lat="47.614929" lon="8.604254">
<ele>351.2</ele>
<time>2003-05-19T11:34:19Z</time>
<speed>0.8</speed>
</trkpt>
<trkpt lat="47.614873" lon="8.604233">
<ele>350.0</ele>
<time>2003-05-19T11:34:24Z</time>
<speed>0.8</speed>
</trkpt>
<trkpt lat="47.614831" lon="8.604199">
<ele>350.3</ele>
<time>2003-05-19T11:34:29Z</time>
<speed>1.4</speed>
</trkpt>
<trkpt lat="47.614782" lon="8.604162">
<ele>351.2</ele>
<time>2003-05-19T11:34:34Z</time>
<speed>0.6</speed>
</trkpt>
<trkpt lat="47.614740" lon="8.604115">
<ele>351.3</ele>
<time>2003-05-19T11:34:39Z</time>
<speed>0.6</speed>
</trkpt>
<trkpt lat="47.614692" lon="8.604066">
<ele>352.2</ele>
<time>2003-05-19T11:34:44Z</time>
<speed>0.8</speed>
</trkpt>
<trkpt lat="47.614643" lon="8.604029">
<ele>353.1</ele>
<time>2003-05-19T11:34:49Z</time>
<speed>0.8</speed>
</trkpt>
<trkpt lat="47.614596" lon="8.603969">
<ele>352.4</ele>
<time>2003-05-19T11:34:54Z</time>
<speed>0.8</speed>
</trkpt>
<trkpt lat="47.614549" lon="8.603906">
<ele>353.1</ele>
<time>2003-05-19T11:34:59Z</time>
<speed>0.8</speed>
</trkpt>
<trkpt lat="47.614476" lon="8.603868">
<ele>352.5</ele>
<time>2003-05-19T11:35:04Z</time>
<speed>0.8</speed>
</trkpt>
<trkpt lat="47.614407" lon="8.603845">
<ele>351.3</ele>
<time>2003-05-19T11:35:09Z</time>
<speed>0.6</speed>
</trkpt>
<trkpt lat="47.614359" lon="8.603811">
<ele>350.8</ele>
<time>2003-05-19T11:35:14Z</time>
<speed>0.8</speed>
</trkpt>
<trkpt lat="47.614311" lon="8.603763">
<ele>350.2</ele>
<time>2003-05-19T11:35:19Z</time>
<speed>0.8</speed>
</trkpt>
<trkpt lat="47.614255" lon="8.603740">
<ele>350.5</ele>
<time>2003-05-19T11:35:24Z</time>
<speed>0.8</speed>
</trkpt>
<trkpt lat="47.614187" lon="8.603702">
<ele>350.6</ele>
<time>2003-05-19T11:35:29Z</time>
<speed>0.8</speed>
</trkpt>
<trkpt lat="47.614118" lon="8.603690">
<ele>350.9</ele>
<time>2003-05-19T11:35:34Z</time>
<speed>0.8</speed>
</trkpt>
<trkpt lat="47.614043" lon="8.603665">
<ele>350.3</ele>
<time>2003-05-19T11:35:39Z</time>
<speed>0.8</speed>
</trkpt>
<trkpt lat="47.613972" lon="8.603666">
<ele>350.7</ele>
<time>2003-05-19T11:35:44Z</time>
<speed>1.1</speed>
</trkpt>
<trkpt lat="47.613921" lon="8.603671">
<ele>350.6</ele>
<time>2003-05-19T11:35:49Z</time>
<speed>0.6</speed>
</trkpt>
<trkpt lat="47.613851" lon="8.603659">
<ele>350.9</ele>
<time>2003-05-19T11:35:54Z</time>
<speed>0.8</speed>
</trkpt>
<trkpt lat="47.613798" lon="8.603678">
<ele>350.8</ele>
<time>2003-05-19T11:35:59Z</time>
<speed>0.8</speed>
</trkpt>
<trkpt lat="47.613754" lon="8.603670">
<ele>351.2</ele>
<time>2003-05-19T11:36:04Z</time>
<speed>0.6</speed>
</trkpt>
<trkpt lat="47.613710" lon="8.603662">
<ele>351.7</ele>
<time>2003-05-19T11:36:09Z</time>
<speed>0.6</speed>
</trkpt>
<trkpt lat="47.613653" lon="8.603639">
<ele>352.0</ele>
<time>2003-05-19T11:36:14Z</time>
<speed>0.6</speed>
</trkpt>
<trkpt lat="47.613584" lon="8.603627">
<ele>352.3</ele>
<time>2003-05-19T11:36:19Z</time>
<speed>0.8</speed>
</trkpt>
<trkpt lat="47.613523" lon="8.603575">
<ele>353.0</ele>
<time>2003-05-19T11:36:24Z</time>
<speed>0.6</speed>
</trkpt>
<trkpt lat="47.613436" lon="8.603548">
<ele>352.4</ele>
<time>2003-05-19T11:36:29Z</time>
<speed>1.1</speed>
</trkpt>
<trkpt lat="47.613367" lon="8.603523">
<ele>352.6</ele>
<time>2003-05-19T11:36:34Z</time>
<speed>0.8</speed>
</trkpt>
<trkpt lat="47.613318" lon="8.603487">
<ele>353.5</ele>
<time>2003-05-19T11:36:39Z</time>
<speed>0.6</speed>
</trkpt>
<trkpt lat="47.613270" lon="8.603437">
<ele>354.3</ele>
<time>2003-05-19T11:36:44Z</time>
<speed>0.8</speed>
</trkpt>
<trkpt lat="47.613223" lon="8.603375">
<ele>355.0</ele>
<time>2003-05-19T11:36:49Z</time>
<speed>0.8</speed>
</trkpt>
<trkpt lat="47.613183" lon="8.603299">
<ele>356.4</ele>
<time>2003-05-19T11:36:54Z</time>
<speed>0.6</speed>
</trkpt>
<trkpt lat="47.613146" lon="8.603265">
<ele>357.4</ele>
<time>2003-05-19T11:36:59Z</time>
<speed>0.8</speed>
</trkpt>
<trkpt lat="47.613072" lon="8.603240">
<ele>356.8</ele>
<time>2003-05-19T11:37:04Z</time>
<speed>1.1</speed>
</trkpt>
<trkpt lat="47.613007" lon="8.603162">
<ele>356.6</ele>
<time>2003-05-19T11:37:09Z</time>
<speed>0.6</speed>
</trkpt>
<trkpt lat="47.612970" lon="8.603128">
<ele>357.6</ele>
<time>2003-05-19T11:37:14Z</time>
<speed>0.6</speed>
</trkpt>
<trkpt lat="47.612929" lon="8.603081">
<ele>357.8</ele>
<time>2003-05-19T11:37:19Z</time>
<speed>0.6</speed>
</trkpt>
<trkpt lat="47.612847" lon="8.603069">
<ele>356.6</ele>
<time>2003-05-19T11:37:24Z</time>
<speed>0.8</speed>
</trkpt>
<trkpt lat="47.612799" lon="8.603021">
<ele>356.0</ele>
<time>2003-05-19T11:37:29Z</time>
<speed>0.8</speed>
</trkpt>
<trkpt lat="47.612700" lon="8.602979">
<ele>355.2</ele>
<time>2003-05-19T11:37:34Z</time>
<speed>1.1</speed>
</trkpt>
<trkpt lat="47.612621" lon="8.602924">
<ele>356.6</ele>
<time>2003-05-19T11:37:39Z</time>
<speed>0.8</speed>
</trkpt>
<trkpt lat="47.612552" lon="8.602883">
<ele>358.1</ele>
<time>2003-05-19T11:37:44Z</time>
<speed>1.1</speed>
</trkpt>
<trkpt lat="47.612485" lon="8.602830">
<ele>359.5</ele>
<time>2003-05-19T11:37:49Z</time>
<speed>0.6</speed>
</trkpt>
<trkpt lat="47.612431" lon="8.602781">
<ele>359.6</ele>
<time>2003-05-19T11:37:54Z</time>
<speed>0.8</speed>
</trkpt>
<trkpt lat="47.612356" lon="8.602771">
<ele>357.7</ele>
<time>2003-05-19T11:37:59Z</time>
<speed>0.8</speed>
</trkpt>
<trkpt lat="47.612316" lon="8.602714">
<ele>355.0</ele>
<time>2003-05-19T11:38:04Z</time>
<speed>0.6</speed>
</trkpt>
<trkpt lat="47.612295" lon="8.602657">
<ele>354.4</ele>
<time>2003-05-19T11:38:09Z</time>
<speed>0.6</speed>
</trkpt>
<trkpt lat="47.612262" lon="8.602571">
<ele>355.0</ele>
<time>2003-05-19T11:38:14Z</time>
<speed>1.1</speed>
</trkpt>
<trkpt lat="47.612227" lon="8.602523">
<ele>355.9</ele>
<time>2003-05-19T11:38:19Z</time>
<speed>0.6</speed>
</trkpt>
<trkpt lat="47.612188" lon="8.602434">
<ele>357.1</ele>
<time>2003-05-19T11:38:24Z</time>
<speed>0.8</speed>
</trkpt>
<trkpt lat="47.612134" lon="8.602370">
<ele>358.5</ele>
<time>2003-05-19T11:38:29Z</time>
<speed>0.8</speed>
</trkpt>
<trkpt lat="47.612074" lon="8.602318">
<ele>359.3</ele>
<time>2003-05-19T11:38:34Z</time>
<speed>0.8</speed>
</trkpt>
<trkpt lat="47.612024" lon="8.602297">
<ele>358.9</ele>
<time>2003-05-19T11:38:39Z</time>
<speed>0.8</speed>
</trkpt>
<trkpt lat="47.611983" lon="8.602250">
<ele>359.0</ele>
<time>2003-05-19T11:38:44Z</time>
<speed>0.8</speed>
</trkpt>
<trkpt lat="47.611955" lon="8.602176">
<ele>360.5</ele>
<time>2003-05-19T11:38:49Z</time>
<speed>0.6</speed>
</trkpt>
<trkpt lat="47.611920" lon="8.602129">
<ele>361.3</ele>
<time>2003-05-19T11:38:54Z</time>
<speed>0.6</speed>
</trkpt>
<trkpt lat="47.611877" lon="8.602095">
<ele>361.6</ele>
<time>2003-05-19T11:38:59Z</time>
<speed>0.6</speed>
</trkpt>
<trkpt lat="47.611842" lon="8.602047">
<ele>362.5</ele>
<time>2003-05-19T11:39:04Z</time>
<speed>0.0</speed>
</trkpt>
<trkpt lat="47.611812" lon="8.602015">
<ele>362.8</ele>
<time>2003-05-19T11:39:09Z</time>
<speed>0.3</speed>
</trkpt>
<trkpt lat="47.611770" lon="8.601983">
<ele>361.6</ele>
<time>2003-05-19T11:39:14Z</time>
<speed>0.8</speed>
</trkpt>
<trkpt lat="47.611731" lon="8.601909">
<ele>361.6</ele>
<time>2003-05-19T11:39:19Z</time>
<speed>0.6</speed>
</trkpt>
<trkpt lat="47.611698" lon="8.601837">
<ele>360.9</ele>
<time>2003-05-19T11:39:24Z</time>
<speed>0.6</speed>
</trkpt>
<trkpt lat="47.611646" lon="8.601761">
<ele>360.7</ele>
<time>2003-05-19T11:39:29Z</time>
<speed>0.6</speed>
</trkpt>
<trkpt lat="47.611606" lon="8.601703">
<ele>359.4</ele>
<time>2003-05-19T11:39:34Z</time>
<speed>0.3</speed>
</trkpt>
<trkpt lat="47.611551" lon="8.601667">
<ele>359.6</ele>
<time>2003-05-19T11:39:39Z</time>
<speed>0.6</speed>
</trkpt>
<trkpt lat="47.611511" lon="8.601593">
<ele>359.5</ele>
<time>2003-05-19T11:39:44Z</time>
<speed>0.8</speed>
</trkpt>
<trkpt lat="47.611458" lon="8.601515">
<ele>360.8</ele>
<time>2003-05-19T11:39:49Z</time>
<speed>0.8</speed>
</trkpt>
<trkpt lat="47.611380" lon="8.601447">
<ele>362.0</ele>
<time>2003-05-19T11:39:54Z</time>
<speed>0.8</speed>
</trkpt>
<trkpt lat="47.611307" lon="8.601380">
<ele>362.6</ele>
<time>2003-05-19T11:39:59Z</time>
<speed>1.4</speed>
</trkpt>
<trkpt lat="47.611234" lon="8.601329">
<ele>361.9</ele>
<time>2003-05-19T11:40:04Z</time>
<speed>0.6</speed>
</trkpt>
<trkpt lat="47.611206" lon="8.601285">
<ele>360.7</ele>
<time>2003-05-19T11:40:09Z</time>
<speed>0.8</speed>
</trkpt>
<trkpt lat="47.611180" lon="8.601216">
<ele>359.3</ele>
<time>2003-05-19T11:40:14Z</time>
<speed>0.6</speed>
</trkpt>
<trkpt lat="47.611139" lon="8.601170">
<ele>358.0</ele>
<time>2003-05-19T11:40:19Z</time>
<speed>0.8</speed>
</trkpt>
<trkpt lat="47.611107" lon="8.601087">
<ele>355.8</ele>
<time>2003-05-19T11:40:24Z</time>
<speed>0.8</speed>
</trkpt>
<trkpt lat="47.611061" lon="8.601027">
<ele>355.1</ele>
<time>2003-05-19T11:40:29Z</time>
<speed>0.8</speed>
</trkpt>
<trkpt lat="47.611015" lon="8.600953">
<ele>354.3</ele>
<time>2003-05-19T11:40:34Z</time>
<speed>0.8</speed>
</trkpt>
<trkpt lat="47.610988" lon="8.600881">
<ele>354.3</ele>
<time>2003-05-19T11:40:39Z</time>
<speed>0.6</speed>
</trkpt>
<trkpt lat="47.610947" lon="8.600834">
<ele>354.5</ele>
<time>2003-05-19T11:40:44Z</time>
<speed>0.6</speed>
</trkpt>
<trkpt lat="47.610913" lon="8.600760">
<ele>355.2</ele>
<time>2003-05-19T11:40:49Z</time>
<speed>0.6</speed>
</trkpt>
<trkpt lat="47.610880" lon="8.600687">
<ele>355.9</ele>
<time>2003-05-19T11:40:54Z</time>
<speed>0.8</speed>
</trkpt>
<trkpt lat="47.610835" lon="8.600598">
<ele>356.4</ele>
<time>2003-05-19T11:40:59Z</time>
<speed>0.6</speed>
</trkpt>
<trkpt lat="47.610807" lon="8.600539">
<ele>356.5</ele>
<time>2003-05-19T11:41:04Z</time>
<speed>0.3</speed>
</trkpt>
<trkpt lat="47.610754" lon="8.600477">
<ele>356.5</ele>
<time>2003-05-19T11:41:09Z</time>
<speed>0.6</speed>
</trkpt>
<trkpt lat="47.610716" lon="8.600390">
<ele>356.3</ele>
<time>2003-05-19T11:41:14Z</time>
<speed>0.6</speed>
</trkpt>
<trkpt lat="47.610662" lon="8.600327">
<ele>356.3</ele>
<time>2003-05-19T11:41:19Z</time>
<speed>0.6</speed>
</trkpt>
<trkpt lat="47.610595" lon="8.600291">
<ele>355.0</ele>
<time>2003-05-19T11:41:24Z</time>
<speed>0.6</speed>
</trkpt>
<trkpt lat="47.610481" lon="8.600288">
<ele>353.0</ele>
<time>2003-05-19T11:41:29Z</time>
<speed>0.6</speed>
</trkpt>
<trkpt lat="47.610430" lon="8.600199">
<ele>352.8</ele>
<time>2003-05-19T11:41:34Z</time>
<speed>0.6</speed>
</trkpt>
<trkpt lat="47.610357" lon="8.600146">
<ele>353.5</ele>
<time>2003-05-19T11:41:39Z</time>
<speed>0.8</speed>
</trkpt>
<trkpt lat="47.610267" lon="8.600145">
<ele>353.1</ele>
<time>2003-05-19T11:41:44Z</time>
<speed>0.8</speed>
</trkpt>
<trkpt lat="47.610178" lon="8.600144">
<ele>352.7</ele>
<time>2003-05-19T11:41:49Z</time>
<speed>0.8</speed>
</trkpt>
<trkpt lat="47.610114" lon="8.600148">
<ele>352.4</ele>
<time>2003-05-19T11:41:54Z</time>
<speed>0.6</speed>
</trkpt>
<trkpt lat="47.610080" lon="8.600074">
<ele>353.1</ele>
<time>2003-05-19T11:41:59Z</time>
<speed>0.3</speed>
</trkpt>
<trkpt lat="47.610057" lon="8.600029">
<ele>354.1</ele>
<time>2003-05-19T11:42:04Z</time>
<speed>0.3</speed>
</trkpt>
<trkpt lat="47.610025" lon="8.599942">
<ele>354.6</ele>
<time>2003-05-19T11:42:09Z</time>
<speed>0.6</speed>
</trkpt>
<trkpt lat="47.610000" lon="8.599844">
<ele>354.5</ele>
<time>2003-05-19T11:42:14Z</time>
<speed>0.8</speed>
</trkpt>
<trkpt lat="47.609973" lon="8.599772">
<ele>354.5</ele>
<time>2003-05-19T11:42:19Z</time>
<speed>0.6</speed>
</trkpt>
<trkpt lat="47.609926" lon="8.599725">
<ele>353.9</ele>
<time>2003-05-19T11:42:24Z</time>
<speed>0.8</speed>
</trkpt>
<trkpt lat="47.609885" lon="8.599664">
<ele>353.9</ele>
<time>2003-05-19T11:42:29Z</time>
<speed>0.6</speed>
</trkpt>
<trkpt lat="47.609857" lon="8.599605">
<ele>354.1</ele>
<time>2003-05-19T11:42:34Z</time>
<speed>0.6</speed>
</trkpt>
<trkpt lat="47.609809" lon="8.599556">
<ele>354.9</ele>
<time>2003-05-19T11:42:39Z</time>
<speed>0.8</speed>
</trkpt>
<trkpt lat="47.609779" lon="8.599445">
<ele>353.8</ele>
<time>2003-05-19T11:42:44Z</time>
<speed>0.6</speed>
</trkpt>
<trkpt lat="47.609748" lon="8.599345">
<ele>354.3</ele>
<time>2003-05-19T11:42:49Z</time>
<speed>0.8</speed>
</trkpt>
<trkpt lat="47.609722" lon="8.599260">
<ele>354.2</ele>
<time>2003-05-19T11:42:54Z</time>
<speed>0.8</speed>
</trkpt>
<trkpt lat="47.609663" lon="8.599182">
<ele>354.8</ele>
<time>2003-05-19T11:42:59Z</time>
<speed>1.1</speed>
</trkpt>
<trkpt lat="47.609544" lon="8.599164">
<ele>353.4</ele>
<time>2003-05-19T11:43:04Z</time>
<speed>0.8</speed>
</trkpt>
<trkpt lat="47.609435" lon="8.599162">
<ele>352.2</ele>
<time>2003-05-19T11:43:09Z</time>
<speed>0.8</speed>
</trkpt>
<trkpt lat="47.609351" lon="8.599189">
<ele>351.3</ele>
<time>2003-05-19T11:43:14Z</time>
<speed>0.6</speed>
</trkpt>
<trkpt lat="47.609253" lon="8.599213">
<ele>351.8</ele>
<time>2003-05-19T11:43:19Z</time>
<speed>1.1</speed>
</trkpt>
<trkpt lat="47.609183" lon="8.599201">
<ele>352.1</ele>
<time>2003-05-19T11:43:24Z</time>
<speed>0.8</speed>
</trkpt>
<trkpt lat="47.609131" lon="8.599206">
<ele>351.9</ele>
<time>2003-05-19T11:43:29Z</time>
<speed>0.8</speed>
</trkpt>
<trkpt lat="47.609094" lon="8.599185">
<ele>353.0</ele>
<time>2003-05-19T11:43:34Z</time>
<speed>0.6</speed>
</trkpt>
<trkpt lat="47.609066" lon="8.599126">
<ele>353.1</ele>
<time>2003-05-19T11:43:39Z</time>
<speed>0.6</speed>
</trkpt>
<trkpt lat="47.609038" lon="8.599068">
<ele>353.2</ele>
<time>2003-05-19T11:43:44Z</time>
<speed>0.8</speed>
</trkpt>
<trkpt lat="47.609017" lon="8.599011">
<ele>352.7</ele>
<time>2003-05-19T11:43:49Z</time>
<speed>0.6</speed>
</trkpt>
<trkpt lat="47.609000" lon="8.598887">
<ele>353.0</ele>
<time>2003-05-19T11:43:54Z</time>
<speed>0.8</speed>
</trkpt>
<trkpt lat="47.608963" lon="8.598787">
<ele>352.8</ele>
<time>2003-05-19T11:43:59Z</time>
<speed>1.1</speed>
</trkpt>
<trkpt lat="47.608877" lon="8.598733">
<ele>352.0</ele>
<time>2003-05-19T11:44:04Z</time>
<speed>0.8</speed>
</trkpt>
<trkpt lat="47.608797" lon="8.598695">
<ele>350.6</ele>
<time>2003-05-19T11:44:09Z</time>
<speed>0.8</speed>
</trkpt>
<trkpt lat="47.608736" lon="8.598657">
<ele>351.4</ele>
<time>2003-05-19T11:44:14Z</time>
<speed>1.1</speed>
</trkpt>
<trkpt lat="47.608702" lon="8.598583">
<ele>352.1</ele>
<time>2003-05-19T11:44:19Z</time>
<speed>0.8</speed>
</trkpt>
<trkpt lat="47.608703" lon="8.598491">
<ele>350.7</ele>
<time>2003-05-19T11:44:24Z</time>
<speed>0.8</speed>
</trkpt>
<trkpt lat="47.608671" lon="8.598404">
<ele>351.3</ele>
<time>2003-05-19T11:44:29Z</time>
<speed>1.4</speed>
</trkpt>
<trkpt lat="47.608630" lon="8.598344">
<ele>351.3</ele>
<time>2003-05-19T11:44:34Z</time>
<speed>0.8</speed>
</trkpt>
<trkpt lat="47.608610" lon="8.598257">
<ele>353.4</ele>
<time>2003-05-19T11:44:39Z</time>
<speed>1.1</speed>
</trkpt>
<trkpt lat="47.608537" lon="8.598206">
<ele>352.6</ele>
<time>2003-05-19T11:44:44Z</time>
<speed>1.1</speed>
</trkpt>
<trkpt lat="47.608478" lon="8.598143">
<ele>351.9</ele>
<time>2003-05-19T11:44:49Z</time>
<speed>1.1</speed>
</trkpt>
<trkpt lat="47.608411" lon="8.598092">
<ele>351.9</ele>
<time>2003-05-19T11:44:54Z</time>
<speed>1.1</speed>
</trkpt>
<trkpt lat="47.608346" lon="8.598029">
<ele>350.4</ele>
<time>2003-05-19T11:44:59Z</time>
<speed>1.1</speed>
</trkpt>
<trkpt lat="47.608299" lon="8.597969">
<ele>349.7</ele>
<time>2003-05-19T11:45:04Z</time>
<speed>0.8</speed>
</trkpt>
<trkpt lat="47.608259" lon="8.597908">
<ele>349.7</ele>
<time>2003-05-19T11:45:09Z</time>
<speed>0.8</speed>
</trkpt>
<trkpt lat="47.608219" lon="8.597834">
<ele>349.7</ele>
<time>2003-05-19T11:45:14Z</time>
<speed>1.1</speed>
</trkpt>
<trkpt lat="47.608173" lon="8.597759">
<ele>350.3</ele>
<time>2003-05-19T11:45:19Z</time>
<speed>1.1</speed>
</trkpt>
<trkpt lat="47.608141" lon="8.597672">
<ele>350.9</ele>
<time>2003-05-19T11:45:24Z</time>
<speed>1.1</speed>
</trkpt>
<trkpt lat="47.608115" lon="8.597587">
<ele>350.8</ele>
<time>2003-05-19T11:45:29Z</time>
<speed>1.1</speed>
</trkpt>
<trkpt lat="47.608062" lon="8.597524">
<ele>350.8</ele>
<time>2003-05-19T11:45:34Z</time>
<speed>0.8</speed>
</trkpt>
<trkpt lat="47.608043" lon="8.597442">
<ele>350.0</ele>
<time>2003-05-19T11:45:39Z</time>
<speed>1.1</speed>
</trkpt>
<trkpt lat="47.608010" lon="8.597355">
<ele>350.6</ele>
<time>2003-05-19T11:45:44Z</time>
<speed>1.1</speed>
</trkpt>
<trkpt lat="47.607984" lon="8.597270">
<ele>350.5</ele>
<time>2003-05-19T11:45:49Z</time>
<speed>1.1</speed>
</trkpt>
<trkpt lat="47.607938" lon="8.597194">
<ele>351.2</ele>
<time>2003-05-19T11:45:54Z</time>
<speed>1.1</speed>
</trkpt>
<trkpt lat="47.607918" lon="8.597109">
<ele>351.8</ele>
<time>2003-05-19T11:45:59Z</time>
<speed>1.1</speed>
</trkpt>
<trkpt lat="47.607886" lon="8.597022">
<ele>352.4</ele>
<time>2003-05-19T11:46:04Z</time>
<speed>0.8</speed>
</trkpt>
<trkpt lat="47.607840" lon="8.596949">
<ele>351.6</ele>
<time>2003-05-19T11:46:09Z</time>
<speed>1.1</speed>
</trkpt>
<trkpt lat="47.607807" lon="8.596877">
<ele>350.9</ele>
<time>2003-05-19T11:46:14Z</time>
<speed>0.8</speed>
</trkpt>
<trkpt lat="47.607754" lon="8.596814">
<ele>350.9</ele>
<time>2003-05-19T11:46:19Z</time>
<speed>0.6</speed>
</trkpt>
<trkpt lat="47.607694" lon="8.596765">
<ele>350.2</ele>
<time>2003-05-19T11:46:24Z</time>
<speed>0.8</speed>
</trkpt>
<trkpt lat="47.607643" lon="8.596691">
<ele>348.7</ele>
<time>2003-05-19T11:46:29Z</time>
<speed>1.1</speed>
</trkpt>
<trkpt lat="47.607610" lon="8.596620">
<ele>347.9</ele>
<time>2003-05-19T11:46:34Z</time>
<speed>0.8</speed>
</trkpt>
<trkpt lat="47.607577" lon="8.596533">
<ele>348.5</ele>
<time>2003-05-19T11:46:39Z</time>
<speed>0.8</speed>
</trkpt>
<trkpt lat="47.607545" lon="8.596448">
<ele>347.7</ele>
<time>2003-05-19T11:46:44Z</time>
<speed>0.6</speed>
</trkpt>
<trkpt lat="47.607513" lon="8.596361">
<ele>348.3</ele>
<time>2003-05-19T11:46:49Z</time>
<speed>0.6</speed>
</trkpt>
<trkpt lat="47.607471" lon="8.596314">
<ele>348.4</ele>
<time>2003-05-19T11:46:54Z</time>
<speed>0.6</speed>
</trkpt>
<trkpt lat="47.607386" lon="8.596260">
<ele>347.6</ele>
<time>2003-05-19T11:46:59Z</time>
<speed>0.8</speed>
</trkpt>
<trkpt lat="47.607327" lon="8.596183">
<ele>348.2</ele>
<time>2003-05-19T11:47:04Z</time>
<speed>0.8</speed>
</trkpt>
<trkpt lat="47.607274" lon="8.596120">
<ele>348.2</ele>
<time>2003-05-19T11:47:09Z</time>
<speed>0.6</speed>
</trkpt>
<trkpt lat="47.607242" lon="8.596033">
<ele>348.7</ele>
<time>2003-05-19T11:47:14Z</time>
<speed>1.1</speed>
</trkpt>
<trkpt lat="47.607188" lon="8.595971">
<ele>348.7</ele>
<time>2003-05-19T11:47:19Z</time>
<speed>1.1</speed>
</trkpt>
<trkpt lat="47.607135" lon="8.595923">
<ele>347.4</ele>
<time>2003-05-19T11:47:24Z</time>
<speed>1.1</speed>
</trkpt>
<trkpt lat="47.607093" lon="8.595876">
<ele>347.5</ele>
<time>2003-05-19T11:47:29Z</time>
<speed>0.8</speed>
</trkpt>
<trkpt lat="47.607067" lon="8.595804">
<ele>347.6</ele>
<time>2003-05-19T11:47:34Z</time>
<speed>0.6</speed>
</trkpt>
<trkpt lat="47.607005" lon="8.595768">
<ele>347.0</ele>
<time>2003-05-19T11:47:39Z</time>
<speed>0.8</speed>
</trkpt>
<trkpt lat="47.606957" lon="8.595734">
<ele>346.5</ele>
<time>2003-05-19T11:47:44Z</time>
<speed>0.6</speed>
</trkpt>
<trkpt lat="47.606914" lon="8.595700">
<ele>346.8</ele>
<time>2003-05-19T11:47:49Z</time>
<speed>0.6</speed>
</trkpt>
<trkpt lat="47.606842" lon="8.595648">
<ele>346.0</ele>
<time>2003-05-19T11:47:54Z</time>
<speed>1.1</speed>
</trkpt>
<trkpt lat="47.606754" lon="8.595619">
<ele>346.8</ele>
<time>2003-05-19T11:47:59Z</time>
<speed>1.1</speed>
</trkpt>
<trkpt lat="47.606700" lon="8.595557">
<ele>346.8</ele>
<time>2003-05-19T11:48:04Z</time>
<speed>0.8</speed>
</trkpt>
<trkpt lat="47.606631" lon="8.595545">
<ele>347.1</ele>
<time>2003-05-19T11:48:09Z</time>
<speed>0.8</speed>
</trkpt>
<trkpt lat="47.606568" lon="8.595535">
<ele>346.7</ele>
<time>2003-05-19T11:48:14Z</time>
<speed>0.8</speed>
</trkpt>
<trkpt lat="47.606519" lon="8.595500">
<ele>346.3</ele>
<time>2003-05-19T11:48:19Z</time>
<speed>0.8</speed>
</trkpt>
<trkpt lat="47.606484" lon="8.595455">
<ele>345.7</ele>
<time>2003-05-19T11:48:24Z</time>
<speed>0.6</speed>
</trkpt>
<trkpt lat="47.606461" lon="8.595410">
<ele>346.7</ele>
<time>2003-05-19T11:48:29Z</time>
<speed>0.6</speed>
</trkpt>
<trkpt lat="47.606433" lon="8.595366">
<ele>345.5</ele>
<time>2003-05-19T11:48:34Z</time>
<speed>0.6</speed>
</trkpt>
<trkpt lat="47.606393" lon="8.595306">
<ele>345.6</ele>
<time>2003-05-19T11:48:39Z</time>
<speed>0.6</speed>
</trkpt>
<trkpt lat="47.606365" lon="8.595247">
<ele>345.7</ele>
<time>2003-05-19T11:48:44Z</time>
<speed>0.6</speed>
</trkpt>
<trkpt lat="47.606335" lon="8.595215">
<ele>346.0</ele>
<time>2003-05-19T11:48:49Z</time>
<speed>0.3</speed>
</trkpt>
<trkpt lat="47.606286" lon="8.595181">
<ele>345.5</ele>
<time>2003-05-19T11:48:54Z</time>
<speed>0.8</speed>
</trkpt>
<trkpt lat="47.606231" lon="8.595144">
<ele>345.7</ele>
<time>2003-05-19T11:48:59Z</time>
<speed>0.6</speed>
</trkpt>
<trkpt lat="47.606188" lon="8.595123">
<ele>346.0</ele>
<time>2003-05-19T11:49:04Z</time>
<speed>0.6</speed>
</trkpt>
<trkpt lat="47.606140" lon="8.595076">
<ele>345.5</ele>
<time>2003-05-19T11:49:09Z</time>
<speed>0.8</speed>
</trkpt>
<trkpt lat="47.606093" lon="8.595013">
<ele>346.2</ele>
<time>2003-05-19T11:49:14Z</time>
<speed>0.8</speed>
</trkpt>
<trkpt lat="47.606031" lon="8.594975">
<ele>347.0</ele>
<time>2003-05-19T11:49:19Z</time>
<speed>0.8</speed>
</trkpt>
<trkpt lat="47.606017" lon="8.594905">
<ele>347.1</ele>
<time>2003-05-19T11:49:24Z</time>
<speed>0.6</speed>
</trkpt>
<trkpt lat="47.606010" lon="8.594824">
<ele>346.4</ele>
<time>2003-05-19T11:49:29Z</time>
<speed>0.3</speed>
</trkpt>
<trkpt lat="47.605947" lon="8.594815">
<ele>346.1</ele>
<time>2003-05-19T11:49:34Z</time>
<speed>0.6</speed>
</trkpt>
<trkpt lat="47.605886" lon="8.594776">
<ele>346.9</ele>
<time>2003-05-19T11:49:39Z</time>
<speed>0.8</speed>
</trkpt>
<trkpt lat="47.605853" lon="8.594689">
<ele>347.5</ele>
<time>2003-05-19T11:49:44Z</time>
<speed>0.8</speed>
</trkpt>
<trkpt lat="47.605847" lon="8.594689">
<ele>346.8</ele>
<time>2003-05-19T11:49:49Z</time>
<speed>0.0</speed>
</trkpt>
<trkpt lat="47.605820" lon="8.594616">
<ele>348.2</ele>
<time>2003-05-19T11:49:54Z</time>
<speed>0.6</speed>
</trkpt>
<trkpt lat="47.605807" lon="8.594612">
<ele>349.5</ele>
<time>2003-05-19T11:49:59Z</time>
<speed>0.8</speed>
</trkpt>
<trkpt lat="47.605793" lon="8.594623">
<ele>349.5</ele>
<time>2003-05-19T11:50:04Z</time>
<speed>0.3</speed>
</trkpt>
<trkpt lat="47.605759" lon="8.594562">
<ele>350.3</ele>
<time>2003-05-19T11:50:09Z</time>
<speed>0.6</speed>
</trkpt>
<trkpt lat="47.605697" lon="8.594526">
<ele>349.8</ele>
<time>2003-05-19T11:50:14Z</time>
<speed>1.1</speed>
</trkpt>
<trkpt lat="47.605648" lon="8.594490">
<ele>350.7</ele>
<time>2003-05-19T11:50:19Z</time>
<speed>0.6</speed>
</trkpt>
<trkpt lat="47.605593" lon="8.594454">
<ele>350.9</ele>
<time>2003-05-19T11:50:24Z</time>
<speed>0.6</speed>
</trkpt>
<trkpt lat="47.605517" lon="8.594442">
<ele>350.4</ele>
<time>2003-05-19T11:50:29Z</time>
<speed>0.8</speed>
</trkpt>
<trkpt lat="47.605442" lon="8.594415">
<ele>351.3</ele>
<time>2003-05-19T11:50:34Z</time>
<speed>0.8</speed>
</trkpt>
<trkpt lat="47.605401" lon="8.594367">
<ele>351.5</ele>
<time>2003-05-19T11:50:39Z</time>
<speed>0.3</speed>
</trkpt>
<trkpt lat="47.605340" lon="8.594316">
<ele>352.2</ele>
<time>2003-05-19T11:50:44Z</time>
<speed>0.8</speed>
</trkpt>
<trkpt lat="47.605267" lon="8.594263">
<ele>352.9</ele>
<time>2003-05-19T11:50:49Z</time>
<speed>1.1</speed>
</trkpt>
<trkpt lat="47.605204" lon="8.594253">
<ele>352.5</ele>
<time>2003-05-19T11:50:54Z</time>
<speed>0.6</speed>
</trkpt>
<trkpt lat="47.605129" lon="8.594212">
<ele>353.3</ele>
<time>2003-05-19T11:50:59Z</time>
<speed>0.8</speed>
</trkpt>
<trkpt lat="47.605037" lon="8.594172">
<ele>351.8</ele>
<time>2003-05-19T11:51:04Z</time>
<speed>1.1</speed>
</trkpt>
<trkpt lat="47.604996" lon="8.594112">
<ele>351.9</ele>
<time>2003-05-19T11:51:09Z</time>
<speed>0.6</speed>
</trkpt>
<trkpt lat="47.604935" lon="8.594073">
<ele>352.7</ele>
<time>2003-05-19T11:51:14Z</time>
<speed>0.8</speed>
</trkpt>
<trkpt lat="47.604878" lon="8.594050">
<ele>353.0</ele>
<time>2003-05-19T11:51:19Z</time>
<speed>0.8</speed>
</trkpt>
<trkpt lat="47.604796" lon="8.594036">
<ele>353.2</ele>
<time>2003-05-19T11:51:24Z</time>
<speed>1.1</speed>
</trkpt>
<trkpt lat="47.604728" lon="8.593996">
<ele>354.8</ele>
<time>2003-05-19T11:51:29Z</time>
<speed>1.1</speed>
</trkpt>
<trkpt lat="47.604642" lon="8.593943">
<ele>354.0</ele>
<time>2003-05-19T11:51:34Z</time>
<speed>1.4</speed>
</trkpt>
<trkpt lat="47.604567" lon="8.593916">
<ele>354.8</ele>
<time>2003-05-19T11:51:39Z</time>
<speed>0.8</speed>
</trkpt>
<trkpt lat="47.604481" lon="8.593861">
<ele>355.4</ele>
<time>2003-05-19T11:51:44Z</time>
<speed>0.8</speed>
</trkpt>
<trkpt lat="47.604411" lon="8.593849">
<ele>355.7</ele>
<time>2003-05-19T11:51:49Z</time>
<speed>1.1</speed>
</trkpt>
<trkpt lat="47.604354" lon="8.593839">
<ele>356.1</ele>
<time>2003-05-19T11:51:54Z</time>
<speed>0.8</speed>
</trkpt>
<trkpt lat="47.604272" lon="8.593825">
<ele>356.3</ele>
<time>2003-05-19T11:51:59Z</time>
<speed>1.1</speed>
</trkpt>
<trkpt lat="47.604176" lon="8.593822">
<ele>356.6</ele>
<time>2003-05-19T11:52:04Z</time>
<speed>1.1</speed>
</trkpt>
<trkpt lat="47.604099" lon="8.593823">
<ele>356.3</ele>
<time>2003-05-19T11:52:09Z</time>
<speed>1.1</speed>
</trkpt>
<trkpt lat="47.604036" lon="8.593813">
<ele>355.9</ele>
<time>2003-05-19T11:52:14Z</time>
<speed>0.8</speed>
</trkpt>
<trkpt lat="47.603973" lon="8.593805">
<ele>354.2</ele>
<time>2003-05-19T11:52:19Z</time>
<speed>1.4</speed>
</trkpt>
<trkpt lat="47.603910" lon="8.593795">
<ele>353.8</ele>
<time>2003-05-19T11:52:24Z</time>
<speed>1.1</speed>
</trkpt>
<trkpt lat="47.603836" lon="8.593770">
<ele>353.3</ele>
<time>2003-05-19T11:52:29Z</time>
<speed>1.1</speed>
</trkpt>
<trkpt lat="47.603780" lon="8.593749">
<ele>352.1</ele>
<time>2003-05-19T11:52:34Z</time>
<speed>1.1</speed>
</trkpt>
<trkpt lat="47.603704" lon="8.593737">
<ele>351.7</ele>
<time>2003-05-19T11:52:39Z</time>
<speed>1.1</speed>
</trkpt>
<trkpt lat="47.603647" lon="8.593727">
<ele>352.1</ele>
<time>2003-05-19T11:52:44Z</time>
<speed>1.1</speed>
</trkpt>
<trkpt lat="47.603578" lon="8.593717">
<ele>351.0</ele>
<time>2003-05-19T11:52:49Z</time>
<speed>1.1</speed>
</trkpt>
<trkpt lat="47.603514" lon="8.593706">
<ele>352.0</ele>
<time>2003-05-19T11:52:54Z</time>
<speed>0.8</speed>
</trkpt>
<trkpt lat="47.603464" lon="8.593682">
<ele>353.1</ele>
<time>2003-05-19T11:52:59Z</time>
<speed>0.8</speed>
</trkpt>
<trkpt lat="47.603388" lon="8.593671">
<ele>352.6</ele>
<time>2003-05-19T11:53:04Z</time>
<speed>1.1</speed>
</trkpt>
<trkpt lat="47.603312" lon="8.593672">
<ele>352.3</ele>
<time>2003-05-19T11:53:09Z</time>
<speed>1.1</speed>
</trkpt>
<trkpt lat="47.603230" lon="8.593645">
<ele>352.4</ele>
<time>2003-05-19T11:53:14Z</time>
<speed>1.4</speed>
</trkpt>
<trkpt lat="47.603167" lon="8.593635">
<ele>352.1</ele>
<time>2003-05-19T11:53:19Z</time>
<speed>1.1</speed>
</trkpt>
<trkpt lat="47.603103" lon="8.593623">
<ele>353.1</ele>
<time>2003-05-19T11:53:24Z</time>
<speed>1.1</speed>
</trkpt>
<trkpt lat="47.603028" lon="8.593596">
<ele>354.0</ele>
<time>2003-05-19T11:53:29Z</time>
<speed>1.1</speed>
</trkpt>
<trkpt lat="47.602952" lon="8.593584">
<ele>353.6</ele>
<time>2003-05-19T11:53:34Z</time>
<speed>1.1</speed>
</trkpt>
<trkpt lat="47.602876" lon="8.593570">
<ele>354.5</ele>
<time>2003-05-19T11:53:39Z</time>
<speed>1.1</speed>
</trkpt>
<trkpt lat="47.602813" lon="8.593560">
<ele>354.2</ele>
<time>2003-05-19T11:53:44Z</time>
<speed>1.1</speed>
</trkpt>
<trkpt lat="47.602751" lon="8.593537">
<ele>353.7</ele>
<time>2003-05-19T11:53:49Z</time>
<speed>0.8</speed>
</trkpt>
<trkpt lat="47.602681" lon="8.593525">
<ele>354.0</ele>
<time>2003-05-19T11:53:54Z</time>
<speed>1.4</speed>
</trkpt>
<trkpt lat="47.602618" lon="8.593515">
<ele>353.7</ele>
<time>2003-05-19T11:53:59Z</time>
<speed>1.1</speed>
</trkpt>
<trkpt lat="47.602567" lon="8.593507">
<ele>353.4</ele>
<time>2003-05-19T11:54:04Z</time>
<speed>0.6</speed>
</trkpt>
<trkpt lat="47.602503" lon="8.593510">
<ele>353.1</ele>
<time>2003-05-19T11:54:09Z</time>
<speed>1.1</speed>
</trkpt>
<trkpt lat="47.602434" lon="8.593485">
<ele>353.3</ele>
<time>2003-05-19T11:54:14Z</time>
<speed>1.1</speed>
</trkpt>
<trkpt lat="47.602358" lon="8.593471">
<ele>354.3</ele>
<time>2003-05-19T11:54:19Z</time>
<speed>1.1</speed>
</trkpt>
<trkpt lat="47.602303" lon="8.593437">
<ele>353.1</ele>
<time>2003-05-19T11:54:24Z</time>
<speed>0.8</speed>
</trkpt>
<trkpt lat="47.602259" lon="8.593429">
<ele>353.5</ele>
<time>2003-05-19T11:54:29Z</time>
<speed>0.6</speed>
</trkpt>
<trkpt lat="47.602217" lon="8.593395">
<ele>353.8</ele>
<time>2003-05-19T11:54:34Z</time>
<speed>0.6</speed>
</trkpt>
<trkpt lat="47.602186" lon="8.593376">
<ele>354.2</ele>
<time>2003-05-19T11:54:39Z</time>
<speed>0.6</speed>
</trkpt>
<trkpt lat="47.602116" lon="8.593364">
<ele>354.5</ele>
<time>2003-05-19T11:54:44Z</time>
<speed>0.6</speed>
</trkpt>
<trkpt lat="47.602009" lon="8.593348">
<ele>353.2</ele>
<time>2003-05-19T11:54:49Z</time>
<speed>1.1</speed>
</trkpt>
<trkpt lat="47.601933" lon="8.593336">
<ele>352.8</ele>
<time>2003-05-19T11:54:54Z</time>
<speed>0.8</speed>
</trkpt>
<trkpt lat="47.601864" lon="8.593311">
<ele>353.0</ele>
<time>2003-05-19T11:54:59Z</time>
<speed>0.8</speed>
</trkpt>
<trkpt lat="47.601783" lon="8.593299">
<ele>351.8</ele>
<time>2003-05-19T11:55:04Z</time>
<speed>1.1</speed>
</trkpt>
<trkpt lat="47.601708" lon="8.593274">
<ele>351.3</ele>
<time>2003-05-19T11:55:09Z</time>
<speed>1.1</speed>
</trkpt>
<trkpt lat="47.601644" lon="8.593277">
<ele>351.0</ele>
<time>2003-05-19T11:55:14Z</time>
<speed>1.1</speed>
</trkpt>
<trkpt lat="47.601579" lon="8.593280">
<ele>350.8</ele>
<time>2003-05-19T11:55:19Z</time>
<speed>0.8</speed>
</trkpt>
<trkpt lat="47.601503" lon="8.593282">
<ele>350.4</ele>
<time>2003-05-19T11:55:24Z</time>
<speed>1.4</speed>
</trkpt>
<trkpt lat="47.601440" lon="8.593259">
<ele>350.0</ele>
<time>2003-05-19T11:55:29Z</time>
<speed>0.8</speed>
</trkpt>
<trkpt lat="47.601363" lon="8.593258">
<ele>351.0</ele>
<time>2003-05-19T11:55:34Z</time>
<speed>1.4</speed>
</trkpt>
<trkpt lat="47.601287" lon="8.593246">
<ele>350.6</ele>
<time>2003-05-19T11:55:39Z</time>
<speed>1.4</speed>
</trkpt>
<trkpt lat="47.601217" lon="8.593247">
<ele>351.0</ele>
<time>2003-05-19T11:55:44Z</time>
<speed>1.1</speed>
</trkpt>
<trkpt lat="47.601147" lon="8.593235">
<ele>351.3</ele>
<time>2003-05-19T11:55:49Z</time>
<speed>1.4</speed>
</trkpt>
<trkpt lat="47.601090" lon="8.593225">
<ele>351.7</ele>
<time>2003-05-19T11:55:54Z</time>
<speed>0.6</speed>
</trkpt>
<trkpt lat="47.601033" lon="8.593217">
<ele>350.7</ele>
<time>2003-05-19T11:55:59Z</time>
<speed>0.8</speed>
</trkpt>
<trkpt lat="47.600975" lon="8.593221">
<ele>351.2</ele>
<time>2003-05-19T11:56:04Z</time>
<speed>1.1</speed>
</trkpt>
<trkpt lat="47.600904" lon="8.593222">
<ele>351.6</ele>
<time>2003-05-19T11:56:09Z</time>
<speed>1.1</speed>
</trkpt>
<trkpt lat="47.600821" lon="8.593238">
<ele>349.2</ele>
<time>2003-05-19T11:56:14Z</time>
<speed>0.8</speed>
</trkpt>
<trkpt lat="47.600749" lon="8.593268">
<ele>348.4</ele>
<time>2003-05-19T11:56:19Z</time>
<speed>1.4</speed>
</trkpt>
<trkpt lat="47.600677" lon="8.593282">
<ele>348.9</ele>
<time>2003-05-19T11:56:24Z</time>
<speed>1.1</speed>
</trkpt>
<trkpt lat="47.600613" lon="8.593283">
<ele>350.1</ele>
<time>2003-05-19T11:56:29Z</time>
<speed>1.1</speed>
</trkpt>
<trkpt lat="47.600553" lon="8.593300">
<ele>350.6</ele>
<time>2003-05-19T11:56:34Z</time>
<speed>1.1</speed>
</trkpt>
<trkpt lat="47.600495" lon="8.593303">
<ele>351.1</ele>
<time>2003-05-19T11:56:39Z</time>
<speed>0.8</speed>
</trkpt>
<trkpt lat="47.600437" lon="8.593306">
<ele>351.6</ele>
<time>2003-05-19T11:56:44Z</time>
<speed>0.8</speed>
</trkpt>
<trkpt lat="47.600380" lon="8.593311">
<ele>350.7</ele>
<time>2003-05-19T11:56:49Z</time>
<speed>0.8</speed>
</trkpt>
<trkpt lat="47.600308" lon="8.593326">
<ele>351.2</ele>
<time>2003-05-19T11:56:54Z</time>
<speed>1.1</speed>
</trkpt>
<trkpt lat="47.600257" lon="8.593331">
<ele>351.0</ele>
<time>2003-05-19T11:56:59Z</time>
<speed>0.8</speed>
</trkpt>
<trkpt lat="47.600197" lon="8.593347">
<ele>351.6</ele>
<time>2003-05-19T11:57:04Z</time>
<speed>0.8</speed>
</trkpt>
<trkpt lat="47.600167" lon="8.593328">
<ele>352.0</ele>
<time>2003-05-19T11:57:09Z</time>
<speed>0.3</speed>
</trkpt>
<trkpt lat="47.600102" lon="8.593331">
<ele>351.7</ele>
<time>2003-05-19T11:57:14Z</time>
<speed>0.6</speed>
</trkpt>
<trkpt lat="47.600031" lon="8.593346">
<ele>352.3</ele>
<time>2003-05-19T11:57:19Z</time>
<speed>0.6</speed>
</trkpt>
<trkpt lat="47.599946" lon="8.593373">
<ele>351.4</ele>
<time>2003-05-19T11:57:24Z</time>
<speed>1.1</speed>
</trkpt>
<trkpt lat="47.599874" lon="8.593388">
<ele>351.9</ele>
<time>2003-05-19T11:57:29Z</time>
<speed>0.8</speed>
</trkpt>
<trkpt lat="47.599814" lon="8.593417">
<ele>352.6</ele>
<time>2003-05-19T11:57:34Z</time>
<speed>0.6</speed>
</trkpt>
<trkpt lat="47.599735" lon="8.593445">
<ele>352.5</ele>
<time>2003-05-19T11:57:39Z</time>
<speed>0.8</speed>
</trkpt>
<trkpt lat="47.599643" lon="8.593483">
<ele>352.4</ele>
<time>2003-05-19T11:57:44Z</time>
<speed>0.8</speed>
</trkpt>
<trkpt lat="47.599559" lon="8.593496">
<ele>352.8</ele>
<time>2003-05-19T11:57:49Z</time>
<speed>1.1</speed>
</trkpt>
<trkpt lat="47.599474" lon="8.593523">
<ele>351.9</ele>
<time>2003-05-19T11:57:54Z</time>
<speed>0.8</speed>
</trkpt>
<trkpt lat="47.599426" lon="8.593555">
<ele>352.7</ele>
<time>2003-05-19T11:57:59Z</time>
<speed>0.8</speed>
</trkpt>
<trkpt lat="47.599349" lon="8.593569">
<ele>352.5</ele>
<time>2003-05-19T11:58:04Z</time>
<speed>1.1</speed>
</trkpt>
<trkpt lat="47.599269" lon="8.593610">
<ele>352.4</ele>
<time>2003-05-19T11:58:09Z</time>
<speed>1.4</speed>
</trkpt>
<trkpt lat="47.599197" lon="8.593624">
<ele>352.9</ele>
<time>2003-05-19T11:58:14Z</time>
<speed>1.1</speed>
</trkpt>
<trkpt lat="47.599159" lon="8.593616">
<ele>354.1</ele>
<time>2003-05-19T11:58:19Z</time>
<speed>0.3</speed>
</trkpt>
<trkpt lat="47.599126" lon="8.593623">
<ele>354.7</ele>
<time>2003-05-19T11:58:24Z</time>
<speed>0.6</speed>
</trkpt>
<trkpt lat="47.599074" lon="8.593627">
<ele>356.0</ele>
<time>2003-05-19T11:58:29Z</time>
<speed>0.6</speed>
</trkpt>
<trkpt lat="47.598983" lon="8.593654">
<ele>354.4</ele>
<time>2003-05-19T11:58:34Z</time>
<speed>0.6</speed>
</trkpt>
<trkpt lat="47.598903" lon="8.593695">
<ele>354.3</ele>
<time>2003-05-19T11:58:39Z</time>
<speed>0.8</speed>
</trkpt>
<trkpt lat="47.598820" lon="8.593694">
<ele>354.7</ele>
<time>2003-05-19T11:58:44Z</time>
<speed>1.1</speed>
</trkpt>
<trkpt lat="47.598736" lon="8.593708">
<ele>353.7</ele>
<time>2003-05-19T11:58:49Z</time>
<speed>0.6</speed>
</trkpt>
<trkpt lat="47.598684" lon="8.593727">
<ele>353.6</ele>
<time>2003-05-19T11:58:54Z</time>
<speed>0.8</speed>
</trkpt>
<trkpt lat="47.598632" lon="8.593747">
<ele>352.1</ele>
<time>2003-05-19T11:58:59Z</time>
<speed>0.6</speed>
</trkpt>
<trkpt lat="47.598559" lon="8.593777">
<ele>351.3</ele>
<time>2003-05-19T11:59:04Z</time>
<speed>0.6</speed>
</trkpt>
<trkpt lat="47.598505" lon="8.593821">
<ele>351.5</ele>
<time>2003-05-19T11:59:09Z</time>
<speed>0.8</speed>
</trkpt>
<trkpt lat="47.598451" lon="8.593853">
<ele>351.5</ele>
<time>2003-05-19T11:59:14Z</time>
<speed>0.8</speed>
</trkpt>
<trkpt lat="47.598391" lon="8.593897">
<ele>350.8</ele>
<time>2003-05-19T11:59:19Z</time>
<speed>0.8</speed>
</trkpt>
<trkpt lat="47.598325" lon="8.593927">
<ele>350.8</ele>
<time>2003-05-19T11:59:24Z</time>
<speed>0.8</speed>
</trkpt>
<trkpt lat="47.598286" lon="8.593934">
<ele>350.7</ele>
<time>2003-05-19T11:59:29Z</time>
<speed>0.6</speed>
</trkpt>
<trkpt lat="47.598221" lon="8.593935">
<ele>351.8</ele>
<time>2003-05-19T11:59:34Z</time>
<speed>0.8</speed>
</trkpt>
<trkpt lat="47.598175" lon="8.593954">
<ele>352.5</ele>
<time>2003-05-19T11:59:39Z</time>
<speed>0.8</speed>
</trkpt>
<trkpt lat="47.598134" lon="8.593972">
<ele>353.9</ele>
<time>2003-05-19T11:59:44Z</time>
<speed>0.3</speed>
</trkpt>
<trkpt lat="47.598076" lon="8.593990">
<ele>353.0</ele>
<time>2003-05-19T11:59:49Z</time>
<speed>0.6</speed>
</trkpt>
<trkpt lat="47.598011" lon="8.594007">
<ele>352.9</ele>
<time>2003-05-19T11:59:54Z</time>
<speed>0.6</speed>
</trkpt>
<trkpt lat="47.597922" lon="8.594008">
<ele>351.1</ele>
<time>2003-05-19T11:59:59Z</time>
<speed>1.4</speed>
</trkpt>
<trkpt lat="47.597839" lon="8.594009">
<ele>350.0</ele>
<time>2003-05-19T12:00:04Z</time>
<speed>0.8</speed>
</trkpt>
<trkpt lat="47.597799" lon="8.594029">
<ele>350.0</ele>
<time>2003-05-19T12:00:09Z</time>
<speed>0.3</speed>
</trkpt>
<trkpt lat="47.597758" lon="8.594063">
<ele>350.1</ele>
<time>2003-05-19T12:00:14Z</time>
<speed>0.6</speed>
</trkpt>
<trkpt lat="47.597726" lon="8.594072">
<ele>349.3</ele>
<time>2003-05-19T12:00:19Z</time>
<speed>0.6</speed>
</trkpt>
<trkpt lat="47.597699" lon="8.594079">
<ele>350.7</ele>
<time>2003-05-19T12:00:24Z</time>
<speed>0.6</speed>
</trkpt>
<trkpt lat="47.597667" lon="8.594088">
<ele>349.9</ele>
<time>2003-05-19T12:00:29Z</time>
<speed>0.3</speed>
</trkpt>
<trkpt lat="47.597628" lon="8.594096">
<ele>349.8</ele>
<time>2003-05-19T12:00:34Z</time>
<speed>0.6</speed>
</trkpt>
<trkpt lat="47.597602" lon="8.594105">
<ele>349.7</ele>
<time>2003-05-19T12:00:39Z</time>
<speed>0.3</speed>
</trkpt>
<trkpt lat="47.597550" lon="8.594125">
<ele>348.2</ele>
<time>2003-05-19T12:00:44Z</time>
<speed>0.8</speed>
</trkpt>
<trkpt lat="47.597485" lon="8.594128">
<ele>348.0</ele>
<time>2003-05-19T12:00:49Z</time>
<speed>1.1</speed>
</trkpt>
<trkpt lat="47.597415" lon="8.594132">
<ele>347.0</ele>
<time>2003-05-19T12:00:54Z</time>
<speed>0.8</speed>
</trkpt>
<trkpt lat="47.597366" lon="8.594112">
<ele>345.2</ele>
<time>2003-05-19T12:00:59Z</time>
<speed>1.1</speed>
</trkpt>
<trkpt lat="47.597306" lon="8.594065">
<ele>343.1</ele>
<time>2003-05-19T12:01:04Z</time>
<speed>1.1</speed>
</trkpt>
<trkpt lat="47.597245" lon="8.594029">
<ele>342.6</ele>
<time>2003-05-19T12:01:09Z</time>
<speed>0.8</speed>
</trkpt>
<trkpt lat="47.597185" lon="8.593995">
<ele>340.6</ele>
<time>2003-05-19T12:01:14Z</time>
<speed>1.1</speed>
</trkpt>
<trkpt lat="47.597136" lon="8.593960">
<ele>340.1</ele>
<time>2003-05-19T12:01:19Z</time>
<speed>0.8</speed>
</trkpt>
<trkpt lat="47.597075" lon="8.593924">
<ele>339.6</ele>
<time>2003-05-19T12:01:24Z</time>
<speed>0.8</speed>
</trkpt>
<trkpt lat="47.597041" lon="8.593850">
<ele>340.2</ele>
<time>2003-05-19T12:01:29Z</time>
<speed>0.6</speed>
</trkpt>
<trkpt lat="47.596988" lon="8.593788">
<ele>340.2</ele>
<time>2003-05-19T12:01:34Z</time>
<speed>0.6</speed>
</trkpt>
<trkpt lat="47.596928" lon="8.593754">
<ele>338.3</ele>
<time>2003-05-19T12:01:39Z</time>
<speed>0.8</speed>
</trkpt>
<trkpt lat="47.596889" lon="8.593667">
<ele>338.1</ele>
<time>2003-05-19T12:01:44Z</time>
<speed>0.8</speed>
</trkpt>
<trkpt lat="47.596854" lon="8.593621">
<ele>337.6</ele>
<time>2003-05-19T12:01:49Z</time>
<speed>0.6</speed>
</trkpt>
<trkpt lat="47.596794" lon="8.593572">
<ele>336.9</ele>
<time>2003-05-19T12:01:54Z</time>
<speed>0.8</speed>
</trkpt>
<trkpt lat="47.596754" lon="8.593512">
<ele>337.0</ele>
<time>2003-05-19T12:01:59Z</time>
<speed>0.8</speed>
</trkpt>
<trkpt lat="47.596698" lon="8.593475">
<ele>337.2</ele>
<time>2003-05-19T12:02:04Z</time>
<speed>0.6</speed>
</trkpt>
<trkpt lat="47.596651" lon="8.593413">
<ele>337.9</ele>
<time>2003-05-19T12:02:09Z</time>
<speed>0.8</speed>
</trkpt>
<trkpt lat="47.596606" lon="8.593324">
<ele>338.4</ele>
<time>2003-05-19T12:02:14Z</time>
<speed>1.1</speed>
</trkpt>
<trkpt lat="47.596554" lon="8.593248">
<ele>338.3</ele>
<time>2003-05-19T12:02:19Z</time>
<speed>1.1</speed>
</trkpt>
<trkpt lat="47.596523" lon="8.593148">
<ele>338.7</ele>
<time>2003-05-19T12:02:24Z</time>
<speed>0.8</speed>
</trkpt>
<trkpt lat="47.596489" lon="8.593090">
<ele>338.1</ele>
<time>2003-05-19T12:02:29Z</time>
<speed>0.6</speed>
</trkpt>
<trkpt lat="47.596421" lon="8.593050">
<ele>339.6</ele>
<time>2003-05-19T12:02:34Z</time>
<speed>0.6</speed>
</trkpt>
<trkpt lat="47.596387" lon="8.592991">
<ele>339.0</ele>
<time>2003-05-19T12:02:39Z</time>
<speed>0.8</speed>
</trkpt>
<trkpt lat="47.596353" lon="8.592917">
<ele>339.7</ele>
<time>2003-05-19T12:02:44Z</time>
<speed>0.8</speed>
</trkpt>
<trkpt lat="47.596326" lon="8.592846">
<ele>339.7</ele>
<time>2003-05-19T12:02:49Z</time>
<speed>0.6</speed>
</trkpt>
<trkpt lat="47.596273" lon="8.592783">
<ele>339.7</ele>
<time>2003-05-19T12:02:54Z</time>
<speed>1.1</speed>
</trkpt>
<trkpt lat="47.596234" lon="8.592709">
<ele>339.6</ele>
<time>2003-05-19T12:02:59Z</time>
<speed>0.8</speed>
</trkpt>
<trkpt lat="47.596209" lon="8.592611">
<ele>339.5</ele>
<time>2003-05-19T12:03:04Z</time>
<speed>1.1</speed>
</trkpt>
<trkpt lat="47.596171" lon="8.592509">
<ele>340.6</ele>
<time>2003-05-19T12:03:09Z</time>
<speed>0.8</speed>
</trkpt>
<trkpt lat="47.596151" lon="8.592440">
<ele>340.0</ele>
<time>2003-05-19T12:03:14Z</time>
<speed>0.8</speed>
</trkpt>
<trkpt lat="47.596126" lon="8.592342">
<ele>339.8</ele>
<time>2003-05-19T12:03:19Z</time>
<speed>0.8</speed>
</trkpt>
<trkpt lat="47.596081" lon="8.592238">
<ele>341.6</ele>
<time>2003-05-19T12:03:24Z</time>
<speed>1.1</speed>
</trkpt>
<trkpt lat="47.596050" lon="8.592140">
<ele>340.7</ele>
<time>2003-05-19T12:03:29Z</time>
<speed>1.4</speed>
</trkpt>
<trkpt lat="47.596024" lon="8.592055">
<ele>340.6</ele>
<time>2003-05-19T12:03:34Z</time>
<speed>0.8</speed>
</trkpt>
<trkpt lat="47.595998" lon="8.591970">
<ele>340.5</ele>
<time>2003-05-19T12:03:39Z</time>
<speed>0.8</speed>
</trkpt>
<trkpt lat="47.595986" lon="8.591874">
<ele>340.4</ele>
<time>2003-05-19T12:03:44Z</time>
<speed>1.1</speed>
</trkpt>
<trkpt lat="47.595957" lon="8.591748">
<ele>340.7</ele>
<time>2003-05-19T12:03:49Z</time>
<speed>1.4</speed>
</trkpt>
<trkpt lat="47.595919" lon="8.591648">
<ele>340.4</ele>
<time>2003-05-19T12:03:55Z</time>
<speed>0.8</speed>
</trkpt>
<trkpt lat="47.595900" lon="8.591565">
<ele>339.7</ele>
<time>2003-05-19T12:04:00Z</time>
<speed>0.8</speed>
</trkpt>
<trkpt lat="47.595875" lon="8.591467">
<ele>339.5</ele>
<time>2003-05-19T12:04:05Z</time>
<speed>1.1</speed>
</trkpt>
<trkpt lat="47.595855" lon="8.591382">
<ele>340.2</ele>
<time>2003-05-19T12:04:10Z</time>
<speed>0.8</speed>
</trkpt>
<trkpt lat="47.595827" lon="8.591324">
<ele>340.3</ele>
<time>2003-05-19T12:04:15Z</time>
<speed>0.8</speed>
</trkpt>
<trkpt lat="47.595802" lon="8.591226">
<ele>340.1</ele>
<time>2003-05-19T12:04:20Z</time>
<speed>1.1</speed>
</trkpt>
<trkpt lat="47.595787" lon="8.591090">
<ele>339.0</ele>
<time>2003-05-19T12:04:25Z</time>
<speed>1.1</speed>
</trkpt>
<trkpt lat="47.595768" lon="8.591007">
<ele>338.2</ele>
<time>2003-05-19T12:04:30Z</time>
<speed>1.1</speed>
</trkpt>
<trkpt lat="47.595743" lon="8.590909">
<ele>338.0</ele>
<time>2003-05-19T12:04:35Z</time>
<speed>1.1</speed>
</trkpt>
<trkpt lat="47.595730" lon="8.590811">
<ele>339.3</ele>
<time>2003-05-19T12:04:40Z</time>
<speed>1.1</speed>
</trkpt>
<trkpt lat="47.595705" lon="8.590713">
<ele>339.1</ele>
<time>2003-05-19T12:04:45Z</time>
<speed>1.1</speed>
</trkpt>
<trkpt lat="47.595691" lon="8.590644">
<ele>339.2</ele>
<time>2003-05-19T12:04:50Z</time>
<speed>0.8</speed>
</trkpt>
<trkpt lat="47.595682" lon="8.590589">
<ele>338.8</ele>
<time>2003-05-19T12:04:55Z</time>
<speed>0.0</speed>
</trkpt>
<trkpt lat="47.595674" lon="8.590519">
<ele>339.6</ele>
<time>2003-05-19T12:05:00Z</time>
<speed>1.1</speed>
</trkpt>
<trkpt lat="47.595707" lon="8.590416">
<ele>340.3</ele>
<time>2003-05-19T12:05:05Z</time>
<speed>1.4</speed>
</trkpt>
<trkpt lat="47.595712" lon="8.590335">
<ele>341.1</ele>
<time>2003-05-19T12:05:10Z</time>
<speed>0.8</speed>
</trkpt>
<trkpt lat="47.595685" lon="8.590264">
<ele>341.2</ele>
<time>2003-05-19T12:05:15Z</time>
<speed>1.1</speed>
</trkpt>
<trkpt lat="47.595660" lon="8.590179">
<ele>341.1</ele>
<time>2003-05-19T12:05:20Z</time>
<speed>0.8</speed>
</trkpt>
<trkpt lat="47.595667" lon="8.590072">
<ele>341.7</ele>
<time>2003-05-19T12:05:25Z</time>
<speed>1.1</speed>
</trkpt>
<trkpt lat="47.595660" lon="8.589989">
<ele>342.4</ele>
<time>2003-05-19T12:05:30Z</time>
<speed>0.6</speed>
</trkpt>
<trkpt lat="47.595639" lon="8.589919">
<ele>341.8</ele>
<time>2003-05-19T12:05:35Z</time>
<speed>1.1</speed>
</trkpt>
<trkpt lat="47.595601" lon="8.589832">
<ele>341.6</ele>
<time>2003-05-19T12:05:40Z</time>
<speed>1.1</speed>
</trkpt>
<trkpt lat="47.595562" lon="8.589746">
<ele>341.5</ele>
<time>2003-05-19T12:05:45Z</time>
<speed>1.1</speed>
</trkpt>
<trkpt lat="47.595530" lon="8.589674">
<ele>340.7</ele>
<time>2003-05-19T12:05:50Z</time>
<speed>0.8</speed>
</trkpt>
<trkpt lat="47.595476" lon="8.589611">
<ele>340.7</ele>
<time>2003-05-19T12:05:55Z</time>
<speed>0.8</speed>
</trkpt>
<trkpt lat="47.595444" lon="8.589526">
<ele>339.9</ele>
<time>2003-05-19T12:06:00Z</time>
<speed>0.8</speed>
</trkpt>
<trkpt lat="47.595431" lon="8.589442">
<ele>341.3</ele>
<time>2003-05-19T12:06:05Z</time>
<speed>0.8</speed>
</trkpt>
<trkpt lat="47.595417" lon="8.589374">
<ele>340.0</ele>
<time>2003-05-19T12:06:10Z</time>
<speed>0.8</speed>
</trkpt>
<trkpt lat="47.595416" lon="8.589293">
<ele>340.0</ele>
<time>2003-05-19T12:06:15Z</time>
<speed>1.1</speed>
</trkpt>
<trkpt lat="47.595384" lon="8.589208">
<ele>339.2</ele>
<time>2003-05-19T12:06:20Z</time>
<speed>0.8</speed>
</trkpt>
<trkpt lat="47.595359" lon="8.589123">
<ele>339.1</ele>
<time>2003-05-19T12:06:25Z</time>
<speed>1.1</speed>
</trkpt>
<trkpt lat="47.595324" lon="8.589063">
<ele>339.9</ele>
<time>2003-05-19T12:06:30Z</time>
<speed>0.8</speed>
</trkpt>
<trkpt lat="47.595305" lon="8.588980">
<ele>339.2</ele>
<time>2003-05-19T12:06:35Z</time>
<speed>0.8</speed>
</trkpt>
<trkpt lat="47.595277" lon="8.588906">
<ele>340.6</ele>
<time>2003-05-19T12:06:40Z</time>
<speed>1.1</speed>
</trkpt>
<trkpt lat="47.595265" lon="8.588810">
<ele>340.5</ele>
<time>2003-05-19T12:06:45Z</time>
<speed>1.1</speed>
</trkpt>
<trkpt lat="47.595251" lon="8.588741">
<ele>340.6</ele>
<time>2003-05-19T12:06:50Z</time>
<speed>0.8</speed>
</trkpt>
<trkpt lat="47.595225" lon="8.588656">
<ele>340.5</ele>
<time>2003-05-19T12:06:55Z</time>
<speed>0.8</speed>
</trkpt>
<trkpt lat="47.595218" lon="8.588573">
<ele>341.2</ele>
<time>2003-05-19T12:07:00Z</time>
<speed>0.8</speed>
</trkpt>
<trkpt lat="47.595212" lon="8.588479">
<ele>340.5</ele>
<time>2003-05-19T12:07:05Z</time>
<speed>1.1</speed>
</trkpt>
<trkpt lat="47.595199" lon="8.588396">
<ele>340.5</ele>
<time>2003-05-19T12:07:10Z</time>
<speed>0.8</speed>
</trkpt>
<trkpt lat="47.595185" lon="8.588326">
<ele>340.5</ele>
<time>2003-05-19T12:07:15Z</time>
<speed>0.6</speed>
</trkpt>
<trkpt lat="47.595163" lon="8.588268">
<ele>341.4</ele>
<time>2003-05-19T12:07:20Z</time>
<speed>0.6</speed>
</trkpt>
<trkpt lat="47.595130" lon="8.588196">
<ele>340.7</ele>
<time>2003-05-19T12:07:25Z</time>
<speed>0.8</speed>
</trkpt>
<trkpt lat="47.595124" lon="8.588100">
<ele>341.3</ele>
<time>2003-05-19T12:07:30Z</time>
<speed>0.8</speed>
</trkpt>
<trkpt lat="47.595079" lon="8.588011">
<ele>341.8</ele>
<time>2003-05-19T12:07:35Z</time>
<speed>1.1</speed>
</trkpt>
<trkpt lat="47.595060" lon="8.587913">
<ele>342.4</ele>
<time>2003-05-19T12:07:40Z</time>
<speed>1.1</speed>
</trkpt>
<trkpt lat="47.595035" lon="8.587815">
<ele>342.2</ele>
<time>2003-05-19T12:07:45Z</time>
<speed>1.4</speed>
</trkpt>
<trkpt lat="47.595022" lon="8.587732">
<ele>342.2</ele>
<time>2003-05-19T12:07:50Z</time>
<speed>1.1</speed>
</trkpt>
<trkpt lat="47.595003" lon="8.587635">
<ele>342.8</ele>
<time>2003-05-19T12:07:55Z</time>
<speed>1.1</speed>
</trkpt>
<trkpt lat="47.594990" lon="8.587552">
<ele>342.7</ele>
<time>2003-05-19T12:08:00Z</time>
<speed>0.8</speed>
</trkpt>
<trkpt lat="47.594987" lon="8.587497">
<ele>343.0</ele>
<time>2003-05-19T12:08:05Z</time>
<speed>0.8</speed>
</trkpt>
<trkpt lat="47.594967" lon="8.587427">
<ele>342.4</ele>
<time>2003-05-19T12:08:10Z</time>
<speed>0.6</speed>
</trkpt>
<trkpt lat="47.594959" lon="8.587360">
<ele>341.8</ele>
<time>2003-05-19T12:08:15Z</time>
<speed>0.8</speed>
</trkpt>
<trkpt lat="47.594953" lon="8.587266">
<ele>341.0</ele>
<time>2003-05-19T12:08:20Z</time>
<speed>0.8</speed>
</trkpt>
<trkpt lat="47.594927" lon="8.587181">
<ele>340.9</ele>
<time>2003-05-19T12:08:25Z</time>
<speed>0.8</speed>
</trkpt>
<trkpt lat="47.594894" lon="8.587107">
<ele>341.6</ele>
<time>2003-05-19T12:08:30Z</time>
<speed>0.6</speed>
</trkpt>
<trkpt lat="47.594873" lon="8.587035">
<ele>342.4</ele>
<time>2003-05-19T12:08:35Z</time>
<speed>0.8</speed>
</trkpt>
<trkpt lat="47.594853" lon="8.586966">
<ele>341.7</ele>
<time>2003-05-19T12:08:40Z</time>
<speed>0.6</speed>
</trkpt>
<trkpt lat="47.594846" lon="8.586885">
<ele>341.0</ele>
<time>2003-05-19T12:08:45Z</time>
<speed>0.8</speed>
</trkpt>
<trkpt lat="47.594835" lon="8.586776">
<ele>340.8</ele>
<time>2003-05-19T12:08:50Z</time>
<speed>1.1</speed>
</trkpt>
<trkpt lat="47.594817" lon="8.586665">
<ele>341.3</ele>
<time>2003-05-19T12:08:55Z</time>
<speed>0.8</speed>
</trkpt>
<trkpt lat="47.594804" lon="8.586582">
<ele>341.3</ele>
<time>2003-05-19T12:09:00Z</time>
<speed>1.1</speed>
</trkpt>
<trkpt lat="47.594785" lon="8.586484">
<ele>341.8</ele>
<time>2003-05-19T12:09:05Z</time>
<speed>0.8</speed>
</trkpt>
<trkpt lat="47.594766" lon="8.586401">
<ele>341.1</ele>
<time>2003-05-19T12:09:10Z</time>
<speed>0.8</speed>
</trkpt>
<trkpt lat="47.594747" lon="8.586305">
<ele>340.2</ele>
<time>2003-05-19T12:09:15Z</time>
<speed>0.8</speed>
</trkpt>
<trkpt lat="47.594728" lon="8.586220">
<ele>340.9</ele>
<time>2003-05-19T12:09:20Z</time>
<speed>0.8</speed>
</trkpt>
<trkpt lat="47.594716" lon="8.586111">
<ele>340.7</ele>
<time>2003-05-19T12:09:25Z</time>
<speed>1.1</speed>
</trkpt>
<trkpt lat="47.594683" lon="8.586037">
<ele>341.4</ele>
<time>2003-05-19T12:09:30Z</time>
<speed>0.8</speed>
</trkpt>
<trkpt lat="47.594665" lon="8.585941">
<ele>340.5</ele>
<time>2003-05-19T12:09:35Z</time>
<speed>0.8</speed>
</trkpt>
<trkpt lat="47.594649" lon="8.585885">
<ele>340.7</ele>
<time>2003-05-19T12:09:40Z</time>
<speed>0.8</speed>
</trkpt>
<trkpt lat="47.594637" lon="8.585789">
<ele>340.6</ele>
<time>2003-05-19T12:09:45Z</time>
<speed>0.8</speed>
</trkpt>
<trkpt lat="47.594625" lon="8.585693">
<ele>340.5</ele>
<time>2003-05-19T12:09:50Z</time>
<speed>1.1</speed>
</trkpt>
<trkpt lat="47.594611" lon="8.585623">
<ele>340.6</ele>
<time>2003-05-19T12:09:55Z</time>
<speed>0.8</speed>
</trkpt>
<trkpt lat="47.594605" lon="8.585514">
<ele>341.1</ele>
<time>2003-05-19T12:10:00Z</time>
<speed>0.8</speed>
</trkpt>
<trkpt lat="47.594580" lon="8.585429">
<ele>341.0</ele>
<time>2003-05-19T12:10:05Z</time>
<speed>0.6</speed>
</trkpt>
<trkpt lat="47.594553" lon="8.585342">
<ele>342.4</ele>
<time>2003-05-19T12:10:10Z</time>
<speed>1.1</speed>
</trkpt>
<trkpt lat="47.594540" lon="8.585259">
<ele>342.4</ele>
<time>2003-05-19T12:10:15Z</time>
<speed>0.8</speed>
</trkpt>
<trkpt lat="47.594528" lon="8.585163">
<ele>342.3</ele>
<time>2003-05-19T12:10:20Z</time>
<speed>0.8</speed>
</trkpt>
<trkpt lat="47.594487" lon="8.585103">
<ele>342.3</ele>
<time>2003-05-19T12:10:25Z</time>
<speed>0.8</speed>
</trkpt>
<trkpt lat="47.594454" lon="8.585031">
<ele>341.6</ele>
<time>2003-05-19T12:10:30Z</time>
<speed>0.8</speed>
</trkpt>
<trkpt lat="47.594449" lon="8.584937">
<ele>340.8</ele>
<time>2003-05-19T12:10:35Z</time>
<speed>0.8</speed>
</trkpt>
<trkpt lat="47.594435" lon="8.584854">
<ele>340.8</ele>
<time>2003-05-19T12:10:40Z</time>
<speed>0.8</speed>
</trkpt>
<trkpt lat="47.594382" lon="8.584792">
<ele>340.8</ele>
<time>2003-05-19T12:10:45Z</time>
<speed>0.8</speed>
</trkpt>
<trkpt lat="47.594356" lon="8.584707">
<ele>340.7</ele>
<time>2003-05-19T12:10:50Z</time>
<speed>0.8</speed>
</trkpt>
<trkpt lat="47.594342" lon="8.584637">
<ele>340.8</ele>
<time>2003-05-19T12:10:55Z</time>
<speed>0.3</speed>
</trkpt>
<trkpt lat="47.594318" lon="8.584605">
<ele>341.9</ele>
<time>2003-05-19T12:11:00Z</time>
<speed>0.3</speed>
</trkpt>
<trkpt lat="47.594299" lon="8.584507">
<ele>342.4</ele>
<time>2003-05-19T12:11:05Z</time>
<speed>0.8</speed>
</trkpt>
<trkpt lat="47.594280" lon="8.584422">
<ele>343.1</ele>
<time>2003-05-19T12:11:10Z</time>
<speed>0.8</speed>
</trkpt>
<trkpt lat="47.594253" lon="8.584351">
<ele>343.1</ele>
<time>2003-05-19T12:11:15Z</time>
<speed>0.8</speed>
</trkpt>
<trkpt lat="47.594227" lon="8.584251">
<ele>344.3</ele>
<time>2003-05-19T12:11:20Z</time>
<speed>0.6</speed>
</trkpt>
<trkpt lat="47.594200" lon="8.584179">
<ele>344.3</ele>
<time>2003-05-19T12:11:25Z</time>
<speed>0.6</speed>
</trkpt>
<trkpt lat="47.594160" lon="8.584103">
<ele>345.7</ele>
<time>2003-05-19T12:11:30Z</time>
<speed>0.8</speed>
</trkpt>
<trkpt lat="47.594121" lon="8.584030">
<ele>345.6</ele>
<time>2003-05-19T12:11:35Z</time>
<speed>0.8</speed>
</trkpt>
<trkpt lat="47.594074" lon="8.583969">
<ele>344.9</ele>
<time>2003-05-19T12:11:40Z</time>
<speed>0.0</speed>
</trkpt>
<trkpt lat="47.594045" lon="8.583937">
<ele>345.3</ele>
<time>2003-05-19T12:11:45Z</time>
<speed>0.8</speed>
</trkpt>
<trkpt lat="47.594037" lon="8.583854">
<ele>346.0</ele>
<time>2003-05-19T12:11:50Z</time>
<speed>0.6</speed>
</trkpt>
<trkpt lat="47.594011" lon="8.583769">
<ele>345.9</ele>
<time>2003-05-19T12:11:55Z</time>
<speed>0.8</speed>
</trkpt>
<trkpt lat="47.593994" lon="8.583658">
<ele>346.4</ele>
<time>2003-05-19T12:12:00Z</time>
<speed>1.4</speed>
</trkpt>
<trkpt lat="47.593961" lon="8.583571">
<ele>347.0</ele>
<time>2003-05-19T12:12:05Z</time>
<speed>0.8</speed>
</trkpt>
<trkpt lat="47.593941" lon="8.583486">
<ele>347.6</ele>
<time>2003-05-19T12:12:10Z</time>
<speed>0.8</speed>
</trkpt>
<trkpt lat="47.593929" lon="8.583390">
<ele>347.5</ele>
<time>2003-05-19T12:12:15Z</time>
<speed>0.8</speed>
</trkpt>
<trkpt lat="47.593896" lon="8.583317">
<ele>348.2</ele>
<time>2003-05-19T12:12:20Z</time>
<speed>0.8</speed>
</trkpt>
<trkpt lat="47.593856" lon="8.583243">
<ele>348.1</ele>
<time>2003-05-19T12:12:25Z</time>
<speed>0.8</speed>
</trkpt>
<trkpt lat="47.593817" lon="8.583169">
<ele>348.1</ele>
<time>2003-05-19T12:12:30Z</time>
<speed>0.8</speed>
</trkpt>
<trkpt lat="47.593776" lon="8.583109">
<ele>348.1</ele>
<time>2003-05-19T12:12:35Z</time>
<speed>0.6</speed>
</trkpt>
<trkpt lat="47.593743" lon="8.583037">
<ele>347.4</ele>
<time>2003-05-19T12:12:40Z</time>
<speed>1.1</speed>
</trkpt>
<trkpt lat="47.593712" lon="8.582937">
<ele>347.9</ele>
<time>2003-05-19T12:12:45Z</time>
<speed>0.6</speed>
</trkpt>
<trkpt lat="47.593684" lon="8.582879">
<ele>348.0</ele>
<time>2003-05-19T12:12:50Z</time>
<speed>0.6</speed>
</trkpt>
<trkpt lat="47.593651" lon="8.582807">
<ele>347.3</ele>
<time>2003-05-19T12:12:55Z</time>
<speed>0.6</speed>
</trkpt>
<trkpt lat="47.593610" lon="8.582746">
<ele>347.4</ele>
<time>2003-05-19T12:13:00Z</time>
<speed>0.6</speed>
</trkpt>
<trkpt lat="47.593583" lon="8.582688">
<ele>347.5</ele>
<time>2003-05-19T12:13:05Z</time>
<speed>0.8</speed>
</trkpt>
<trkpt lat="47.593563" lon="8.582605">
<ele>346.7</ele>
<time>2003-05-19T12:13:10Z</time>
<speed>0.6</speed>
</trkpt>
<trkpt lat="47.593510" lon="8.582542">
<ele>346.7</ele>
<time>2003-05-19T12:13:15Z</time>
<speed>0.6</speed>
</trkpt>
<trkpt lat="47.593484" lon="8.582458">
<ele>346.6</ele>
<time>2003-05-19T12:13:20Z</time>
<speed>0.3</speed>
</trkpt>
<trkpt lat="47.593451" lon="8.582384">
<ele>347.3</ele>
<time>2003-05-19T12:13:25Z</time>
<speed>0.6</speed>
</trkpt>
<trkpt lat="47.593425" lon="8.582299">
<ele>347.2</ele>
<time>2003-05-19T12:13:30Z</time>
<speed>0.6</speed>
</trkpt>
<trkpt lat="47.593387" lon="8.582199">
<ele>347.0</ele>
<time>2003-05-19T12:13:35Z</time>
<speed>0.8</speed>
</trkpt>
<trkpt lat="47.593354" lon="8.582127">
<ele>346.3</ele>
<time>2003-05-19T12:13:40Z</time>
<speed>0.6</speed>
</trkpt>
<trkpt lat="47.593297" lon="8.582037">
<ele>346.7</ele>
<time>2003-05-19T12:13:45Z</time>
<speed>1.1</speed>
</trkpt>
<trkpt lat="47.593252" lon="8.581950">
<ele>345.8</ele>
<time>2003-05-19T12:13:50Z</time>
<speed>1.1</speed>
</trkpt>
<trkpt lat="47.593202" lon="8.581848">
<ele>345.5</ele>
<time>2003-05-19T12:13:55Z</time>
<speed>0.8</speed>
</trkpt>
<trkpt lat="47.593163" lon="8.581761">
<ele>345.4</ele>
<time>2003-05-19T12:14:00Z</time>
<speed>1.1</speed>
</trkpt>
<trkpt lat="47.593139" lon="8.581663">
<ele>345.2</ele>
<time>2003-05-19T12:14:05Z</time>
<speed>0.8</speed>
</trkpt>
<trkpt lat="47.593121" lon="8.581554">
<ele>344.2</ele>
<time>2003-05-19T12:14:10Z</time>
<speed>0.8</speed>
</trkpt>
<trkpt lat="47.593094" lon="8.581482">
<ele>344.2</ele>
<time>2003-05-19T12:14:15Z</time>
<speed>0.6</speed>
</trkpt>
<trkpt lat="47.593028" lon="8.581433">
<ele>342.8</ele>
<time>2003-05-19T12:14:20Z</time>
<speed>0.8</speed>
</trkpt>
<trkpt lat="47.592976" lon="8.581357">
<ele>342.7</ele>
<time>2003-05-19T12:14:26Z</time>
<speed>0.8</speed>
</trkpt>
<trkpt lat="47.592936" lon="8.581284">
<ele>342.7</ele>
<time>2003-05-19T12:14:31Z</time>
<speed>0.6</speed>
</trkpt>
<trkpt lat="47.592891" lon="8.581210">
<ele>341.9</ele>
<time>2003-05-19T12:14:36Z</time>
<speed>0.8</speed>
</trkpt>
<trkpt lat="47.592851" lon="8.581136">
<ele>341.8</ele>
<time>2003-05-19T12:14:41Z</time>
<speed>0.8</speed>
</trkpt>
<trkpt lat="47.592824" lon="8.581080">
<ele>340.6</ele>
<time>2003-05-19T12:14:46Z</time>
<speed>0.8</speed>
</trkpt>
<trkpt lat="47.592786" lon="8.580993">
<ele>340.4</ele>
<time>2003-05-19T12:14:51Z</time>
<speed>0.8</speed>
</trkpt>
<trkpt lat="47.592739" lon="8.580932">
<ele>339.7</ele>
<time>2003-05-19T12:14:56Z</time>
<speed>0.6</speed>
</trkpt>
<trkpt lat="47.592711" lon="8.580874">
<ele>339.8</ele>
<time>2003-05-19T12:15:01Z</time>
<speed>0.6</speed>
</trkpt>
<trkpt lat="47.592684" lon="8.580802">
<ele>339.9</ele>
<time>2003-05-19T12:15:06Z</time>
<speed>0.3</speed>
</trkpt>
<trkpt lat="47.592664" lon="8.580717">
<ele>340.5</ele>
<time>2003-05-19T12:15:11Z</time>
<speed>0.8</speed>
</trkpt>
<trkpt lat="47.592626" lon="8.580631">
<ele>340.4</ele>
<time>2003-05-19T12:15:16Z</time>
<speed>0.6</speed>
</trkpt>
<trkpt lat="47.592592" lon="8.580572">
<ele>339.7</ele>
<time>2003-05-19T12:15:21Z</time>
<speed>0.3</speed>
</trkpt>
<trkpt lat="47.592545" lon="8.580510">
<ele>340.5</ele>
<time>2003-05-19T12:15:26Z</time>
<speed>1.1</speed>
</trkpt>
<trkpt lat="47.592486" lon="8.580447">
<ele>339.7</ele>
<time>2003-05-19T12:15:31Z</time>
<speed>0.8</speed>
</trkpt>
<trkpt lat="47.592458" lon="8.580388">
<ele>339.8</ele>
<time>2003-05-19T12:15:36Z</time>
<speed>0.6</speed>
</trkpt>
<trkpt lat="47.592430" lon="8.580330">
<ele>339.9</ele>
<time>2003-05-19T12:15:41Z</time>
<speed>0.3</speed>
</trkpt>
<trkpt lat="47.592395" lon="8.580285">
<ele>339.4</ele>
<time>2003-05-19T12:15:46Z</time>
<speed>0.6</speed>
</trkpt>
<trkpt lat="47.592354" lon="8.580237">
<ele>339.6</ele>
<time>2003-05-19T12:15:51Z</time>
<speed>0.6</speed>
</trkpt>
<trkpt lat="47.592307" lon="8.580177">
<ele>338.9</ele>
<time>2003-05-19T12:15:56Z</time>
<speed>0.6</speed>
</trkpt>
<trkpt lat="47.592249" lon="8.580101">
<ele>338.0</ele>
<time>2003-05-19T12:16:01Z</time>
<speed>0.8</speed>
</trkpt>
<trkpt lat="47.592189" lon="8.580052">
<ele>337.4</ele>
<time>2003-05-19T12:16:06Z</time>
<speed>0.8</speed>
</trkpt>
<trkpt lat="47.592112" lon="8.579959">
<ele>337.0</ele>
<time>2003-05-19T12:16:11Z</time>
<speed>1.1</speed>
</trkpt>
<trkpt lat="47.592044" lon="8.579921">
<ele>337.1</ele>
<time>2003-05-19T12:16:16Z</time>
<speed>0.8</speed>
</trkpt>
<trkpt lat="47.592009" lon="8.579873">
<ele>338.0</ele>
<time>2003-05-19T12:16:21Z</time>
<speed>0.0</speed>
</trkpt>
<trkpt lat="47.591967" lon="8.579839">
<ele>338.3</ele>
<time>2003-05-19T12:16:26Z</time>
<speed>0.8</speed>
</trkpt>
<trkpt lat="47.591933" lon="8.579781">
<ele>337.6</ele>
<time>2003-05-19T12:16:31Z</time>
<speed>0.8</speed>
</trkpt>
<trkpt lat="47.591900" lon="8.579694">
<ele>338.2</ele>
<time>2003-05-19T12:16:36Z</time>
<speed>1.1</speed>
</trkpt>
<trkpt lat="47.591871" lon="8.579648">
<ele>338.4</ele>
<time>2003-05-19T12:16:41Z</time>
<speed>0.3</speed>
</trkpt>
<trkpt lat="47.591856" lon="8.579607">
<ele>337.3</ele>
<time>2003-05-19T12:16:46Z</time>
<speed>0.3</speed>
</trkpt>
<trkpt lat="47.591829" lon="8.579535">
<ele>337.4</ele>
<time>2003-05-19T12:16:51Z</time>
<speed>0.6</speed>
</trkpt>
<trkpt lat="47.591788" lon="8.579475">
<ele>337.4</ele>
<time>2003-05-19T12:16:56Z</time>
<speed>0.6</speed>
</trkpt>
<trkpt lat="47.591751" lon="8.579456">
<ele>337.1</ele>
<time>2003-05-19T12:17:01Z</time>
<speed>0.6</speed>
</trkpt>
<trkpt lat="47.591698" lon="8.579408">
<ele>335.8</ele>
<time>2003-05-19T12:17:06Z</time>
<speed>0.6</speed>
</trkpt>
<trkpt lat="47.591658" lon="8.579335">
<ele>335.7</ele>
<time>2003-05-19T12:17:11Z</time>
<speed>0.6</speed>
</trkpt>
<trkpt lat="47.591600" lon="8.579259">
<ele>334.8</ele>
<time>2003-05-19T12:17:16Z</time>
<speed>0.3</speed>
</trkpt>
<trkpt lat="47.591545" lon="8.579223">
<ele>335.0</ele>
<time>2003-05-19T12:17:21Z</time>
<speed>0.6</speed>
</trkpt>
<trkpt lat="47.591494" lon="8.579134">
<ele>334.8</ele>
<time>2003-05-19T12:17:26Z</time>
<speed>0.6</speed>
</trkpt>
<trkpt lat="47.591446" lon="8.579087">
<ele>334.2</ele>
<time>2003-05-19T12:17:31Z</time>
<speed>0.6</speed>
</trkpt>
<trkpt lat="47.591384" lon="8.579048">
<ele>335.1</ele>
<time>2003-05-19T12:17:36Z</time>
<speed>0.6</speed>
</trkpt>
<trkpt lat="47.591306" lon="8.578982">
<ele>334.9</ele>
<time>2003-05-19T12:17:41Z</time>
<speed>1.1</speed>
</trkpt>
<trkpt lat="47.591252" lon="8.578933">
<ele>335.0</ele>
<time>2003-05-19T12:17:46Z</time>
<speed>1.1</speed>
</trkpt>
<trkpt lat="47.591191" lon="8.578881">
<ele>335.7</ele>
<time>2003-05-19T12:17:51Z</time>
<speed>0.8</speed>
</trkpt>
<trkpt lat="47.591146" lon="8.578792">
<ele>336.2</ele>
<time>2003-05-19T12:17:56Z</time>
<speed>0.8</speed>
</trkpt>
<trkpt lat="47.591093" lon="8.578730">
<ele>336.2</ele>
<time>2003-05-19T12:18:01Z</time>
<speed>0.8</speed>
</trkpt>
<trkpt lat="47.591033" lon="8.578663">
<ele>338.3</ele>
<time>2003-05-19T12:18:06Z</time>
<speed>0.8</speed>
</trkpt>
<trkpt lat="47.590979" lon="8.578614">
<ele>338.3</ele>
<time>2003-05-19T12:18:11Z</time>
<speed>0.6</speed>
</trkpt>
<trkpt lat="47.590937" lon="8.578567">
<ele>338.5</ele>
<time>2003-05-19T12:18:16Z</time>
<speed>0.8</speed>
</trkpt>
<trkpt lat="47.590865" lon="8.578502">
<ele>337.7</ele>
<time>2003-05-19T12:18:21Z</time>
<speed>0.8</speed>
</trkpt>
<trkpt lat="47.590820" lon="8.578429">
<ele>336.9</ele>
<time>2003-05-19T12:18:26Z</time>
<speed>0.8</speed>
</trkpt>
<trkpt lat="47.590754" lon="8.578379">
<ele>335.5</ele>
<time>2003-05-19T12:18:31Z</time>
<speed>0.8</speed>
</trkpt>
<trkpt lat="47.590698" lon="8.578343">
<ele>335.7</ele>
<time>2003-05-19T12:18:36Z</time>
<speed>0.8</speed>
</trkpt>
<trkpt lat="47.590643" lon="8.578307">
<ele>335.8</ele>
<time>2003-05-19T12:18:41Z</time>
<speed>0.3</speed>
</trkpt>
<trkpt lat="47.590607" lon="8.578275">
<ele>335.4</ele>
<time>2003-05-19T12:18:46Z</time>
<speed>0.6</speed>
</trkpt>
<trkpt lat="47.590566" lon="8.578212">
<ele>336.9</ele>
<time>2003-05-19T12:18:51Z</time>
<speed>0.8</speed>
</trkpt>
<trkpt lat="47.590487" lon="8.578159">
<ele>336.8</ele>
<time>2003-05-19T12:18:56Z</time>
<speed>0.6</speed>
</trkpt>
<trkpt lat="47.590439" lon="8.578109">
<ele>337.6</ele>
<time>2003-05-19T12:19:01Z</time>
<speed>0.8</speed>
</trkpt>
<trkpt lat="47.590380" lon="8.578032">
<ele>338.2</ele>
<time>2003-05-19T12:19:06Z</time>
<speed>0.8</speed>
</trkpt>
<trkpt lat="47.590313" lon="8.577996">
<ele>336.9</ele>
<time>2003-05-19T12:19:11Z</time>
<speed>0.6</speed>
</trkpt>
<trkpt lat="47.590258" lon="8.577961">
<ele>335.7</ele>
<time>2003-05-19T12:19:16Z</time>
<speed>0.6</speed>
</trkpt>
<trkpt lat="47.590191" lon="8.577923">
<ele>335.8</ele>
<time>2003-05-19T12:19:21Z</time>
<speed>0.8</speed>
</trkpt>
<trkpt lat="47.590145" lon="8.577850">
<ele>335.0</ele>
<time>2003-05-19T12:19:26Z</time>
<speed>0.6</speed>
</trkpt>
<trkpt lat="47.590089" lon="8.577811">
<ele>336.6</ele>
<time>2003-05-19T12:19:31Z</time>
<speed>0.8</speed>
</trkpt>
<trkpt lat="47.590033" lon="8.577788">
<ele>336.8</ele>
<time>2003-05-19T12:19:36Z</time>
<speed>0.6</speed>
</trkpt>
<trkpt lat="47.589980" lon="8.577726">
<ele>336.8</ele>
<time>2003-05-19T12:19:41Z</time>
<speed>0.6</speed>
</trkpt>
<trkpt lat="47.589928" lon="8.577665">
<ele>335.4</ele>
<time>2003-05-19T12:19:46Z</time>
<speed>0.8</speed>
</trkpt>
<trkpt lat="47.589873" lon="8.577616">
<ele>335.5</ele>
<time>2003-05-19T12:19:51Z</time>
<speed>0.8</speed>
</trkpt>
<trkpt lat="47.589838" lon="8.577584">
<ele>335.1</ele>
<time>2003-05-19T12:19:56Z</time>
<speed>0.3</speed>
</trkpt>
<trkpt lat="47.589788" lon="8.577561">
<ele>336.1</ele>
<time>2003-05-19T12:20:01Z</time>
<speed>0.8</speed>
</trkpt>
<trkpt lat="47.589726" lon="8.577524">
<ele>335.5</ele>
<time>2003-05-19T12:20:06Z</time>
<speed>0.8</speed>
</trkpt>
<trkpt lat="47.589656" lon="8.577526">
<ele>335.9</ele>
<time>2003-05-19T12:20:11Z</time>
<speed>0.8</speed>
</trkpt>
<trkpt lat="47.589601" lon="8.577491">
<ele>334.7</ele>
<time>2003-05-19T12:20:16Z</time>
<speed>0.6</speed>
</trkpt>
<trkpt lat="47.589560" lon="8.577444">
<ele>334.9</ele>
<time>2003-05-19T12:20:21Z</time>
<speed>0.8</speed>
</trkpt>
<trkpt lat="47.589479" lon="8.577404">
<ele>334.9</ele>
<time>2003-05-19T12:20:26Z</time>
<speed>0.6</speed>
</trkpt>
<trkpt lat="47.589444" lon="8.577357">
<ele>335.8</ele>
<time>2003-05-19T12:20:31Z</time>
<speed>0.3</speed>
</trkpt>
<trkpt lat="47.589383" lon="8.577305">
<ele>336.5</ele>
<time>2003-05-19T12:20:36Z</time>
<speed>0.6</speed>
</trkpt>
<trkpt lat="47.589316" lon="8.577254">
<ele>336.5</ele>
<time>2003-05-19T12:20:41Z</time>
<speed>0.6</speed>
</trkpt>
<trkpt lat="47.589248" lon="8.577214">
<ele>338.1</ele>
<time>2003-05-19T12:20:46Z</time>
<speed>0.8</speed>
</trkpt>
<trkpt lat="47.589228" lon="8.577129">
<ele>338.7</ele>
<time>2003-05-19T12:20:51Z</time>
<speed>0.6</speed>
</trkpt>
<trkpt lat="47.589233" lon="8.577061">
<ele>339.6</ele>
<time>2003-05-19T12:20:56Z</time>
<speed>0.6</speed>
</trkpt>
<trkpt lat="47.589236" lon="8.577022">
<ele>339.3</ele>
<time>2003-05-19T12:21:01Z</time>
<speed>0.6</speed>
</trkpt>
<trkpt lat="47.589260" lon="8.576945">
<ele>339.5</ele>
<time>2003-05-19T12:21:06Z</time>
<speed>0.8</speed>
</trkpt>
<trkpt lat="47.589272" lon="8.576866">
<ele>339.7</ele>
<time>2003-05-19T12:21:11Z</time>
<speed>0.6</speed>
</trkpt>
<trkpt lat="47.589292" lon="8.576776">
<ele>339.0</ele>
<time>2003-05-19T12:21:16Z</time>
<speed>0.6</speed>
</trkpt>
<trkpt lat="47.589310" lon="8.576699">
<ele>338.5</ele>
<time>2003-05-19T12:21:21Z</time>
<speed>0.6</speed>
</trkpt>
<trkpt lat="47.589303" lon="8.576616">
<ele>339.2</ele>
<time>2003-05-19T12:21:26Z</time>
<speed>0.8</speed>
</trkpt>
<trkpt lat="47.589300" lon="8.576481">
<ele>339.5</ele>
<time>2003-05-19T12:21:31Z</time>
<speed>1.1</speed>
</trkpt>
<trkpt lat="47.589287" lon="8.576398">
<ele>339.5</ele>
<time>2003-05-19T12:21:36Z</time>
<speed>0.8</speed>
</trkpt>
<trkpt lat="47.589275" lon="8.576289">
<ele>339.3</ele>
<time>2003-05-19T12:21:41Z</time>
<speed>0.8</speed>
</trkpt>
<trkpt lat="47.589234" lon="8.576241">
<ele>339.5</ele>
<time>2003-05-19T12:21:46Z</time>
<speed>0.3</speed>
</trkpt>
<trkpt lat="47.589191" lon="8.576220">
<ele>339.8</ele>
<time>2003-05-19T12:21:51Z</time>
<speed>0.6</speed>
</trkpt>
<trkpt lat="47.589178" lon="8.576122">
<ele>341.1</ele>
<time>2003-05-19T12:21:56Z</time>
<speed>0.6</speed>
</trkpt>
<trkpt lat="47.589191" lon="8.576015">
<ele>342.5</ele>
<time>2003-05-19T12:22:01Z</time>
<speed>0.6</speed>
</trkpt>
<trkpt lat="47.589193" lon="8.575908">
<ele>342.3</ele>
<time>2003-05-19T12:22:06Z</time>
<speed>1.4</speed>
</trkpt>
<trkpt lat="47.589186" lon="8.575812">
<ele>343.0</ele>
<time>2003-05-19T12:22:11Z</time>
<speed>1.4</speed>
</trkpt>
<trkpt lat="47.589214" lon="8.575711">
<ele>341.6</ele>
<time>2003-05-19T12:22:16Z</time>
<speed>0.8</speed>
</trkpt>
<trkpt lat="47.589223" lon="8.575595">
<ele>339.2</ele>
<time>2003-05-19T12:22:21Z</time>
<speed>1.1</speed>
</trkpt>
<trkpt lat="47.589243" lon="8.575491">
<ele>338.5</ele>
<time>2003-05-19T12:22:26Z</time>
<speed>0.8</speed>
</trkpt>
<trkpt lat="47.589266" lon="8.575456">
<ele>337.6</ele>
<time>2003-05-19T12:22:31Z</time>
<speed>0.6</speed>
</trkpt>
<trkpt lat="47.589298" lon="8.575449">
<ele>337.0</ele>
<time>2003-05-19T12:22:36Z</time>
<speed>0.6</speed>
</trkpt>
<trkpt lat="47.589327" lon="8.575413">
<ele>336.8</ele>
<time>2003-05-19T12:22:41Z</time>
<speed>0.3</speed>
</trkpt>
<trkpt lat="47.589337" lon="8.575361">
<ele>337.2</ele>
<time>2003-05-19T12:22:46Z</time>
<speed>0.3</speed>
</trkpt>
<trkpt lat="47.589293" lon="8.575340">
<ele>337.5</ele>
<time>2003-05-19T12:22:51Z</time>
<speed>0.6</speed>
</trkpt>
<trkpt lat="47.589249" lon="8.575332">
<ele>338.0</ele>
<time>2003-05-19T12:22:56Z</time>
<speed>0.8</speed>
</trkpt>
<trkpt lat="47.589213" lon="8.575284">
<ele>338.9</ele>
<time>2003-05-19T12:23:01Z</time>
<speed>0.6</speed>
</trkpt>
<trkpt lat="47.589186" lon="8.575226">
<ele>339.0</ele>
<time>2003-05-19T12:23:06Z</time>
<speed>0.8</speed>
</trkpt>
<trkpt lat="47.589158" lon="8.575152">
<ele>340.4</ele>
<time>2003-05-19T12:23:11Z</time>
<speed>0.6</speed>
</trkpt>
<trkpt lat="47.589116" lon="8.575118">
<ele>340.7</ele>
<time>2003-05-19T12:23:16Z</time>
<speed>0.8</speed>
</trkpt>
<trkpt lat="47.589073" lon="8.575082">
<ele>342.3</ele>
<time>2003-05-19T12:23:21Z</time>
<speed>0.8</speed>
</trkpt>
<trkpt lat="47.589023" lon="8.575059">
<ele>343.3</ele>
<time>2003-05-19T12:23:26Z</time>
<speed>0.8</speed>
</trkpt>
<trkpt lat="47.588980" lon="8.575022">
<ele>345.0</ele>
<time>2003-05-19T12:23:31Z</time>
<speed>0.6</speed>
</trkpt>
<trkpt lat="47.588951" lon="8.574977">
<ele>345.2</ele>
<time>2003-05-19T12:23:36Z</time>
<speed>0.6</speed>
</trkpt>
<trkpt lat="47.588915" lon="8.574930">
<ele>346.1</ele>
<time>2003-05-19T12:23:41Z</time>
<speed>0.8</speed>
</trkpt>
<trkpt lat="47.588867" lon="8.574880">
<ele>346.9</ele>
<time>2003-05-19T12:23:46Z</time>
<speed>0.6</speed>
</trkpt>
<trkpt lat="47.588856" lon="8.574850">
<ele>348.1</ele>
<time>2003-05-19T12:23:51Z</time>
<speed>0.0</speed>
</trkpt>
<trkpt lat="47.588825" lon="8.574831">
<ele>348.5</ele>
<time>2003-05-19T12:23:56Z</time>
<speed>0.6</speed>
</trkpt>
<trkpt lat="47.588791" lon="8.574770">
<ele>349.3</ele>
<time>2003-05-19T12:24:01Z</time>
<speed>0.8</speed>
</trkpt>
<trkpt lat="47.588722" lon="8.574745">
<ele>349.5</ele>
<time>2003-05-19T12:24:06Z</time>
<speed>1.1</speed>
</trkpt>
<trkpt lat="47.588680" lon="8.574711">
<ele>349.7</ele>
<time>2003-05-19T12:24:11Z</time>
<speed>0.8</speed>
</trkpt>
<trkpt lat="47.588613" lon="8.574660">
<ele>349.7</ele>
<time>2003-05-19T12:24:16Z</time>
<speed>1.4</speed>
</trkpt>
<trkpt lat="47.588545" lon="8.574622">
<ele>349.8</ele>
<time>2003-05-19T12:24:21Z</time>
<speed>1.1</speed>
</trkpt>
<trkpt lat="47.588485" lon="8.574557">
<ele>350.5</ele>
<time>2003-05-19T12:24:26Z</time>
<speed>1.4</speed>
</trkpt>
<trkpt lat="47.588426" lon="8.574495">
<ele>349.7</ele>
<time>2003-05-19T12:24:31Z</time>
<speed>1.4</speed>
</trkpt>
<trkpt lat="47.588360" lon="8.574443">
<ele>349.7</ele>
<time>2003-05-19T12:24:36Z</time>
<speed>1.4</speed>
</trkpt>
<trkpt lat="47.588279" lon="8.574403">
<ele>349.8</ele>
<time>2003-05-19T12:24:41Z</time>
<speed>1.4</speed>
</trkpt>
<trkpt lat="47.588222" lon="8.574393">
<ele>350.2</ele>
<time>2003-05-19T12:24:46Z</time>
<speed>0.8</speed>
</trkpt>
<trkpt lat="47.588165" lon="8.574383">
<ele>350.5</ele>
<time>2003-05-19T12:24:51Z</time>
<speed>0.8</speed>
</trkpt>
<trkpt lat="47.588097" lon="8.574345">
<ele>350.7</ele>
<time>2003-05-19T12:24:56Z</time>
<speed>1.1</speed>
</trkpt>
<trkpt lat="47.588029" lon="8.574307">
<ele>350.8</ele>
<time>2003-05-19T12:25:01Z</time>
<speed>1.1</speed>
</trkpt>
<trkpt lat="47.587954" lon="8.574280">
<ele>351.6</ele>
<time>2003-05-19T12:25:07Z</time>
<speed>1.1</speed>
</trkpt>
<trkpt lat="47.587898" lon="8.574257">
<ele>351.9</ele>
<time>2003-05-19T12:25:12Z</time>
<speed>0.6</speed>
</trkpt>
<trkpt lat="47.587848" lon="8.574249">
<ele>351.6</ele>
<time>2003-05-19T12:25:17Z</time>
<speed>0.8</speed>
</trkpt>
<trkpt lat="47.587772" lon="8.574222">
<ele>352.5</ele>
<time>2003-05-19T12:25:22Z</time>
<speed>0.8</speed>
</trkpt>
<trkpt lat="47.587697" lon="8.574195">
<ele>353.4</ele>
<time>2003-05-19T12:25:27Z</time>
<speed>1.4</speed>
</trkpt>
<trkpt lat="47.587623" lon="8.574155">
<ele>354.2</ele>
<time>2003-05-19T12:25:32Z</time>
<speed>0.8</speed>
</trkpt>
<trkpt lat="47.587560" lon="8.574130">
<ele>355.1</ele>
<time>2003-05-19T12:25:37Z</time>
<speed>0.8</speed>
</trkpt>
<trkpt lat="47.587497" lon="8.574105">
<ele>356.1</ele>
<time>2003-05-19T12:25:42Z</time>
<speed>1.1</speed>
</trkpt>
<trkpt lat="47.587434" lon="8.574095">
<ele>355.7</ele>
<time>2003-05-19T12:25:47Z</time>
<speed>1.1</speed>
</trkpt>
<trkpt lat="47.587383" lon="8.574085">
<ele>356.8</ele>
<time>2003-05-19T12:25:52Z</time>
<speed>0.6</speed>
</trkpt>
<trkpt lat="47.587326" lon="8.574075">
<ele>357.2</ele>
<time>2003-05-19T12:25:57Z</time>
<speed>0.8</speed>
</trkpt>
<trkpt lat="47.587269" lon="8.574065">
<ele>357.6</ele>
<time>2003-05-19T12:26:02Z</time>
<speed>0.8</speed>
</trkpt>
<trkpt lat="47.587217" lon="8.574070">
<ele>357.4</ele>
<time>2003-05-19T12:26:07Z</time>
<speed>1.1</speed>
</trkpt>
<trkpt lat="47.587168" lon="8.574049">
<ele>357.0</ele>
<time>2003-05-19T12:26:12Z</time>
<speed>0.8</speed>
</trkpt>
<trkpt lat="47.587123" lon="8.574041">
<ele>357.5</ele>
<time>2003-05-19T12:26:17Z</time>
<speed>0.8</speed>
</trkpt>
<trkpt lat="47.587073" lon="8.574018">
<ele>358.5</ele>
<time>2003-05-19T12:26:22Z</time>
<speed>0.8</speed>
</trkpt>
<trkpt lat="47.587024" lon="8.573997">
<ele>358.1</ele>
<time>2003-05-19T12:26:27Z</time>
<speed>0.8</speed>
</trkpt>
<trkpt lat="47.586973" lon="8.573989">
<ele>357.8</ele>
<time>2003-05-19T12:26:32Z</time>
<speed>0.8</speed>
</trkpt>
<trkpt lat="47.586904" lon="8.573977">
<ele>358.1</ele>
<time>2003-05-19T12:26:37Z</time>
<speed>0.8</speed>
</trkpt>
<trkpt lat="47.586847" lon="8.573954">
<ele>358.4</ele>
<time>2003-05-19T12:26:42Z</time>
<speed>1.1</speed>
</trkpt>
<trkpt lat="47.586786" lon="8.573918">
<ele>357.8</ele>
<time>2003-05-19T12:26:47Z</time>
<speed>1.1</speed>
</trkpt>
<trkpt lat="47.586725" lon="8.573882">
<ele>357.3</ele>
<time>2003-05-19T12:26:52Z</time>
<speed>0.8</speed>
</trkpt>
<trkpt lat="47.586687" lon="8.573876">
<ele>357.1</ele>
<time>2003-05-19T12:26:57Z</time>
<speed>0.0</speed>
</trkpt>
<trkpt lat="47.586633" lon="8.573827">
<ele>357.2</ele>
<time>2003-05-19T12:27:02Z</time>
<speed>1.1</speed>
</trkpt>
<trkpt lat="47.586555" lon="8.573745">
<ele>358.3</ele>
<time>2003-05-19T12:27:07Z</time>
<speed>0.3</speed>
</trkpt>
<trkpt lat="47.586519" lon="8.573713">
<ele>357.9</ele>
<time>2003-05-19T12:27:12Z</time>
<speed>0.6</speed>
</trkpt>
<trkpt lat="47.586476" lon="8.573692">
<ele>358.2</ele>
<time>2003-05-19T12:27:17Z</time>
<speed>0.0</speed>
</trkpt>
<trkpt lat="47.586428" lon="8.573660">
<ele>356.3</ele>
<time>2003-05-19T12:27:22Z</time>
<speed>0.6</speed>
</trkpt>
<trkpt lat="47.586382" lon="8.573680">
<ele>355.6</ele>
<time>2003-05-19T12:27:27Z</time>
<speed>0.3</speed>
</trkpt>
<trkpt lat="47.586345" lon="8.573661">
<ele>355.3</ele>
<time>2003-05-19T12:27:32Z</time>
<speed>0.6</speed>
</trkpt>
<trkpt lat="47.586294" lon="8.573653">
<ele>355.0</ele>
<time>2003-05-19T12:27:37Z</time>
<speed>0.6</speed>
</trkpt>
<trkpt lat="47.586252" lon="8.573619">
<ele>355.2</ele>
<time>2003-05-19T12:27:42Z</time>
<speed>0.3</speed>
</trkpt>
<trkpt lat="47.586234" lon="8.573602">
<ele>355.7</ele>
<time>2003-05-19T12:27:47Z</time>
<speed>0.3</speed>
</trkpt>
<trkpt lat="47.586172" lon="8.573565">
<ele>355.2</ele>
<time>2003-05-19T12:27:52Z</time>
<speed>0.8</speed>
</trkpt>
<trkpt lat="47.586097" lon="8.573553">
<ele>354.7</ele>
<time>2003-05-19T12:27:57Z</time>
<speed>0.6</speed>
</trkpt>
<trkpt lat="47.586021" lon="8.573542">
<ele>354.3</ele>
<time>2003-05-19T12:28:02Z</time>
<speed>1.1</speed>
</trkpt>
<trkpt lat="47.585928" lon="8.573499">
<ele>354.3</ele>
<time>2003-05-19T12:28:07Z</time>
<speed>0.8</speed>
</trkpt>
<trkpt lat="47.585864" lon="8.573488">
<ele>355.3</ele>
<time>2003-05-19T12:28:12Z</time>
<speed>0.3</speed>
</trkpt>
<trkpt lat="47.585808" lon="8.573462">
<ele>357.0</ele>
<time>2003-05-19T12:28:17Z</time>
<speed>0.6</speed>
</trkpt>
<trkpt lat="47.585739" lon="8.573437">
<ele>357.2</ele>
<time>2003-05-19T12:28:22Z</time>
<speed>0.6</speed>
</trkpt>
<trkpt lat="47.585664" lon="8.573395">
<ele>359.4</ele>
<time>2003-05-19T12:28:27Z</time>
<speed>0.8</speed>
</trkpt>
<trkpt lat="47.585595" lon="8.573370">
<ele>359.6</ele>
<time>2003-05-19T12:28:32Z</time>
<speed>1.1</speed>
</trkpt>
<trkpt lat="47.585506" lon="8.573354">
<ele>360.5</ele>
<time>2003-05-19T12:28:37Z</time>
<speed>1.1</speed>
</trkpt>
<trkpt lat="47.585438" lon="8.573329">
<ele>360.7</ele>
<time>2003-05-19T12:28:42Z</time>
<speed>0.6</speed>
</trkpt>
<trkpt lat="47.585356" lon="8.573302">
<ele>360.9</ele>
<time>2003-05-19T12:28:47Z</time>
<speed>0.8</speed>
</trkpt>
<trkpt lat="47.585262" lon="8.573288">
<ele>359.6</ele>
<time>2003-05-19T12:28:52Z</time>
<speed>0.8</speed>
</trkpt>
<trkpt lat="47.585062" lon="8.573205">
<ele>347.4</ele>
<time>2003-05-19T12:28:57Z</time>
<speed>1.1</speed>
</trkpt>
<trkpt lat="47.584960" lon="8.573125">
<ele>344.2</ele>
<time>2003-05-19T12:29:02Z</time>
<speed>1.1</speed>
</trkpt>
<trkpt lat="47.584875" lon="8.573072">
<ele>343.4</ele>
<time>2003-05-19T12:29:07Z</time>
<speed>1.1</speed>
</trkpt>
<trkpt lat="47.584795" lon="8.573032">
<ele>343.4</ele>
<time>2003-05-19T12:29:12Z</time>
<speed>1.4</speed>
</trkpt>
<trkpt lat="47.584714" lon="8.572990">
<ele>344.9</ele>
<time>2003-05-19T12:29:17Z</time>
<speed>1.4</speed>
</trkpt>
<trkpt lat="47.584640" lon="8.572936">
<ele>345.6</ele>
<time>2003-05-19T12:29:22Z</time>
<speed>1.4</speed>
</trkpt>
<trkpt lat="47.584568" lon="8.572870">
<ele>346.1</ele>
<time>2003-05-19T12:29:27Z</time>
<speed>1.4</speed>
</trkpt>
<trkpt lat="47.584488" lon="8.572815">
<ele>347.5</ele>
<time>2003-05-19T12:29:32Z</time>
<speed>1.4</speed>
</trkpt>
<trkpt lat="47.584415" lon="8.572761">
<ele>348.2</ele>
<time>2003-05-19T12:29:37Z</time>
<speed>1.7</speed>
</trkpt>
<trkpt lat="47.584335" lon="8.572706">
<ele>349.5</ele>
<time>2003-05-19T12:29:42Z</time>
<speed>1.7</speed>
</trkpt>
<trkpt lat="47.584269" lon="8.572642">
<ele>349.4</ele>
<time>2003-05-19T12:29:47Z</time>
<speed>1.4</speed>
</trkpt>
<trkpt lat="47.584203" lon="8.572577">
<ele>349.3</ele>
<time>2003-05-19T12:29:52Z</time>
<speed>1.4</speed>
</trkpt>
<trkpt lat="47.584143" lon="8.572526">
<ele>350.1</ele>
<time>2003-05-19T12:29:57Z</time>
<speed>1.1</speed>
</trkpt>
<trkpt lat="47.584095" lon="8.572478">
<ele>349.5</ele>
<time>2003-05-19T12:30:02Z</time>
<speed>1.4</speed>
</trkpt>
<trkpt lat="47.584028" lon="8.572425">
<ele>350.9</ele>
<time>2003-05-19T12:30:07Z</time>
<speed>1.4</speed>
</trkpt>
<trkpt lat="47.583948" lon="8.572385">
<ele>350.9</ele>
<time>2003-05-19T12:30:12Z</time>
<speed>1.4</speed>
</trkpt>
<trkpt lat="47.583895" lon="8.572309">
<ele>350.8</ele>
<time>2003-05-19T12:30:17Z</time>
<speed>1.4</speed>
</trkpt>
<trkpt lat="47.583842" lon="8.572247">
<ele>350.8</ele>
<time>2003-05-19T12:30:22Z</time>
<speed>1.4</speed>
</trkpt>
<trkpt lat="47.583789" lon="8.572184">
<ele>350.8</ele>
<time>2003-05-19T12:30:27Z</time>
<speed>1.1</speed>
</trkpt>
<trkpt lat="47.583735" lon="8.572135">
<ele>350.8</ele>
<time>2003-05-19T12:30:32Z</time>
<speed>1.1</speed>
</trkpt>
<trkpt lat="47.583687" lon="8.572086">
<ele>351.7</ele>
<time>2003-05-19T12:30:37Z</time>
<speed>1.1</speed>
</trkpt>
<trkpt lat="47.583635" lon="8.572010">
<ele>351.5</ele>
<time>2003-05-19T12:30:42Z</time>
<speed>1.4</speed>
</trkpt>
<trkpt lat="47.583587" lon="8.571963">
<ele>351.0</ele>
<time>2003-05-19T12:30:47Z</time>
<speed>1.1</speed>
</trkpt>
<trkpt lat="47.583535" lon="8.571887">
<ele>350.8</ele>
<time>2003-05-19T12:30:52Z</time>
<speed>1.1</speed>
</trkpt>
<trkpt lat="47.583482" lon="8.571825">
<ele>350.8</ele>
<time>2003-05-19T12:30:57Z</time>
<speed>1.4</speed>
</trkpt>
<trkpt lat="47.583441" lon="8.571764">
<ele>350.9</ele>
<time>2003-05-19T12:31:02Z</time>
<speed>1.1</speed>
</trkpt>
<trkpt lat="47.583382" lon="8.571702">
<ele>350.1</ele>
<time>2003-05-19T12:31:07Z</time>
<speed>1.4</speed>
</trkpt>
<trkpt lat="47.583322" lon="8.571650">
<ele>350.9</ele>
<time>2003-05-19T12:31:12Z</time>
<speed>1.4</speed>
</trkpt>
<trkpt lat="47.583261" lon="8.571599">
<ele>351.6</ele>
<time>2003-05-19T12:31:17Z</time>
<speed>1.4</speed>
</trkpt>
<trkpt lat="47.583209" lon="8.571523">
<ele>351.5</ele>
<time>2003-05-19T12:31:22Z</time>
<speed>1.4</speed>
</trkpt>
<trkpt lat="47.583156" lon="8.571461">
<ele>351.5</ele>
<time>2003-05-19T12:31:27Z</time>
<speed>1.4</speed>
</trkpt>
<trkpt lat="47.583096" lon="8.571398">
<ele>350.7</ele>
<time>2003-05-19T12:31:32Z</time>
<speed>1.4</speed>
</trkpt>
<trkpt lat="47.583041" lon="8.571362">
<ele>350.9</ele>
<time>2003-05-19T12:31:37Z</time>
<speed>1.1</speed>
</trkpt>
<trkpt lat="47.582987" lon="8.571311">
<ele>352.4</ele>
<time>2003-05-19T12:31:42Z</time>
<speed>1.4</speed>
</trkpt>
<trkpt lat="47.582919" lon="8.571273">
<ele>352.5</ele>
<time>2003-05-19T12:31:47Z</time>
<speed>1.4</speed>
</trkpt>
<trkpt lat="47.582864" lon="8.571237">
<ele>352.7</ele>
<time>2003-05-19T12:31:52Z</time>
<speed>1.4</speed>
</trkpt>
<trkpt lat="47.582796" lon="8.571198">
<ele>352.8</ele>
<time>2003-05-19T12:31:57Z</time>
<speed>1.1</speed>
</trkpt>
<trkpt lat="47.582727" lon="8.571173">
<ele>353.0</ele>
<time>2003-05-19T12:32:02Z</time>
<speed>1.1</speed>
</trkpt>
<trkpt lat="47.582709" lon="8.571156">
<ele>353.5</ele>
<time>2003-05-19T12:32:07Z</time>
<speed>0.8</speed>
</trkpt>
<trkpt lat="47.582653" lon="8.571148">
<ele>352.4</ele>
<time>2003-05-19T12:32:12Z</time>
<speed>1.4</speed>
</trkpt>
<trkpt lat="47.582603" lon="8.571127">
<ele>352.1</ele>
<time>2003-05-19T12:32:17Z</time>
<speed>1.1</speed>
</trkpt>
<trkpt lat="47.582541" lon="8.571089">
<ele>352.9</ele>
<time>2003-05-19T12:32:22Z</time>
<speed>0.8</speed>
</trkpt>
<trkpt lat="47.582479" lon="8.571064">
<ele>353.9</ele>
<time>2003-05-19T12:32:27Z</time>
<speed>0.8</speed>
</trkpt>
<trkpt lat="47.582402" lon="8.571050">
<ele>354.8</ele>
<time>2003-05-19T12:32:32Z</time>
<speed>0.6</speed>
</trkpt>
<trkpt lat="47.582320" lon="8.571036">
<ele>355.1</ele>
<time>2003-05-19T12:32:37Z</time>
<speed>1.1</speed>
</trkpt>
<trkpt lat="47.582249" lon="8.571038">
<ele>355.5</ele>
<time>2003-05-19T12:32:42Z</time>
<speed>0.8</speed>
</trkpt>
<trkpt lat="47.582171" lon="8.571052">
<ele>355.3</ele>
<time>2003-05-19T12:32:47Z</time>
<speed>1.1</speed>
</trkpt>
<trkpt lat="47.582089" lon="8.571053">
<ele>354.2</ele>
<time>2003-05-19T12:32:52Z</time>
<speed>1.4</speed>
</trkpt>
<trkpt lat="47.582012" lon="8.571054">
<ele>353.9</ele>
<time>2003-05-19T12:32:57Z</time>
<speed>1.1</speed>
</trkpt>
<trkpt lat="47.581957" lon="8.571099">
<ele>354.0</ele>
<time>2003-05-19T12:33:02Z</time>
<speed>1.1</speed>
</trkpt>
<trkpt lat="47.581900" lon="8.571104">
<ele>353.1</ele>
<time>2003-05-19T12:33:07Z</time>
<speed>0.8</speed>
</trkpt>
<trkpt lat="47.581812" lon="8.571075">
<ele>353.9</ele>
<time>2003-05-19T12:33:12Z</time>
<speed>0.8</speed>
</trkpt>
<trkpt lat="47.581742" lon="8.571079">
<ele>352.9</ele>
<time>2003-05-19T12:33:17Z</time>
<speed>0.8</speed>
</trkpt>
<trkpt lat="47.581664" lon="8.571093">
<ele>352.7</ele>
<time>2003-05-19T12:33:22Z</time>
<speed>1.1</speed>
</trkpt>
<trkpt lat="47.581592" lon="8.571107">
<ele>353.2</ele>
<time>2003-05-19T12:33:27Z</time>
<speed>1.1</speed>
</trkpt>
<trkpt lat="47.581534" lon="8.571126">
<ele>352.3</ele>
<time>2003-05-19T12:33:32Z</time>
<speed>0.8</speed>
</trkpt>
<trkpt lat="47.581463" lon="8.571127">
<ele>352.8</ele>
<time>2003-05-19T12:33:37Z</time>
<speed>0.8</speed>
</trkpt>
<trkpt lat="47.581387" lon="8.571115">
<ele>352.3</ele>
<time>2003-05-19T12:33:42Z</time>
<speed>1.1</speed>
</trkpt>
<trkpt lat="47.581308" lon="8.571143">
<ele>352.2</ele>
<time>2003-05-19T12:33:47Z</time>
<speed>1.1</speed>
</trkpt>
<trkpt lat="47.581237" lon="8.571157">
<ele>352.7</ele>
<time>2003-05-19T12:33:52Z</time>
<speed>1.4</speed>
</trkpt>
<trkpt lat="47.581166" lon="8.571160">
<ele>351.7</ele>
<time>2003-05-19T12:33:57Z</time>
<speed>1.4</speed>
</trkpt>
<trkpt lat="47.581096" lon="8.571162">
<ele>352.1</ele>
<time>2003-05-19T12:34:02Z</time>
<speed>1.1</speed>
</trkpt>
<trkpt lat="47.581030" lon="8.571191">
<ele>352.1</ele>
<time>2003-05-19T12:34:07Z</time>
<speed>1.1</speed>
</trkpt>
<trkpt lat="47.580940" lon="8.571190">
<ele>351.7</ele>
<time>2003-05-19T12:34:12Z</time>
<speed>1.1</speed>
</trkpt>
<trkpt lat="47.580886" lon="8.571235">
<ele>351.8</ele>
<time>2003-05-19T12:34:17Z</time>
<speed>1.1</speed>
</trkpt>
<trkpt lat="47.580845" lon="8.571268">
<ele>351.9</ele>
<time>2003-05-19T12:34:22Z</time>
<speed>1.1</speed>
</trkpt>
<trkpt lat="47.580786" lon="8.571287">
<ele>351.1</ele>
<time>2003-05-19T12:34:27Z</time>
<speed>1.1</speed>
</trkpt>
<trkpt lat="47.580714" lon="8.571314">
<ele>351.7</ele>
<time>2003-05-19T12:34:32Z</time>
<speed>1.4</speed>
</trkpt>
<trkpt lat="47.580648" lon="8.571331">
<ele>351.5</ele>
<time>2003-05-19T12:34:37Z</time>
<speed>1.1</speed>
</trkpt>
<trkpt lat="47.580582" lon="8.571360">
<ele>351.5</ele>
<time>2003-05-19T12:34:42Z</time>
<speed>1.1</speed>
</trkpt>
<trkpt lat="47.580517" lon="8.571377">
<ele>351.3</ele>
<time>2003-05-19T12:34:47Z</time>
<speed>1.1</speed>
</trkpt>
<trkpt lat="47.580439" lon="8.571391">
<ele>351.1</ele>
<time>2003-05-19T12:34:52Z</time>
<speed>0.8</speed>
</trkpt>
<trkpt lat="47.580379" lon="8.571421">
<ele>351.8</ele>
<time>2003-05-19T12:34:57Z</time>
<speed>1.1</speed>
</trkpt>
<trkpt lat="47.580289" lon="8.571433">
<ele>351.5</ele>
<time>2003-05-19T12:35:02Z</time>
<speed>0.8</speed>
</trkpt>
<trkpt lat="47.580224" lon="8.571449">
<ele>351.3</ele>
<time>2003-05-19T12:35:07Z</time>
<speed>1.1</speed>
</trkpt>
<trkpt lat="47.580158" lon="8.571479">
<ele>351.3</ele>
<time>2003-05-19T12:35:12Z</time>
<speed>1.1</speed>
</trkpt>
<trkpt lat="47.580110" lon="8.571510">
<ele>352.0</ele>
<time>2003-05-19T12:35:17Z</time>
<speed>1.1</speed>
</trkpt>
<trkpt lat="47.580075" lon="8.571559">
<ele>351.5</ele>
<time>2003-05-19T12:35:22Z</time>
<speed>1.1</speed>
</trkpt>
<trkpt lat="47.580028" lon="8.571593">
<ele>350.9</ele>
<time>2003-05-19T12:35:27Z</time>
<speed>1.1</speed>
</trkpt>
<trkpt lat="47.579974" lon="8.571624">
<ele>350.9</ele>
<time>2003-05-19T12:35:32Z</time>
<speed>1.1</speed>
</trkpt>
<trkpt lat="47.579926" lon="8.571669">
<ele>351.8</ele>
<time>2003-05-19T12:35:37Z</time>
<speed>1.1</speed>
</trkpt>
<trkpt lat="47.579854" lon="8.571698">
<ele>351.0</ele>
<time>2003-05-19T12:35:42Z</time>
<speed>1.1</speed>
</trkpt>
<trkpt lat="47.579795" lon="8.571715">
<ele>351.5</ele>
<time>2003-05-19T12:35:47Z</time>
<speed>1.1</speed>
</trkpt>
<trkpt lat="47.579740" lon="8.571759">
<ele>351.7</ele>
<time>2003-05-19T12:35:52Z</time>
<speed>1.1</speed>
</trkpt>
<trkpt lat="47.579686" lon="8.571804">
<ele>351.8</ele>
<time>2003-05-19T12:35:57Z</time>
<speed>0.8</speed>
</trkpt>
<trkpt lat="47.579626" lon="8.571835">
<ele>351.1</ele>
<time>2003-05-19T12:36:02Z</time>
<speed>1.4</speed>
</trkpt>
<trkpt lat="47.579573" lon="8.571867">
<ele>351.1</ele>
<time>2003-05-19T12:36:07Z</time>
<speed>1.1</speed>
</trkpt>
<trkpt lat="47.579520" lon="8.571885">
<ele>351.0</ele>
<time>2003-05-19T12:36:12Z</time>
<speed>0.8</speed>
</trkpt>
<trkpt lat="47.579460" lon="8.571915">
<ele>351.7</ele>
<time>2003-05-19T12:36:17Z</time>
<speed>1.1</speed>
</trkpt>
<trkpt lat="47.579401" lon="8.571946">
<ele>351.0</ele>
<time>2003-05-19T12:36:22Z</time>
<speed>1.1</speed>
</trkpt>
<trkpt lat="47.579345" lon="8.572004">
<ele>351.2</ele>
<time>2003-05-19T12:36:27Z</time>
<speed>1.1</speed>
</trkpt>
<trkpt lat="47.579255" lon="8.572017">
<ele>350.9</ele>
<time>2003-05-19T12:36:32Z</time>
<speed>1.1</speed>
</trkpt>
<trkpt lat="47.579212" lon="8.572076">
<ele>351.2</ele>
<time>2003-05-19T12:36:37Z</time>
<speed>1.1</speed>
</trkpt>
<trkpt lat="47.579171" lon="8.572110">
<ele>351.3</ele>
<time>2003-05-19T12:36:42Z</time>
<speed>0.8</speed>
</trkpt>
<trkpt lat="47.579132" lon="8.572117">
<ele>351.1</ele>
<time>2003-05-19T12:36:47Z</time>
<speed>0.8</speed>
</trkpt>
<trkpt lat="47.579095" lon="8.572098">
<ele>350.8</ele>
<time>2003-05-19T12:36:52Z</time>
<speed>0.6</speed>
</trkpt>
<trkpt lat="47.579051" lon="8.572090">
<ele>351.3</ele>
<time>2003-05-19T12:36:57Z</time>
<speed>0.8</speed>
</trkpt>
<trkpt lat="47.578995" lon="8.572067">
<ele>351.6</ele>
<time>2003-05-19T12:37:02Z</time>
<speed>0.8</speed>
</trkpt>
<trkpt lat="47.578934" lon="8.572018">
<ele>350.9</ele>
<time>2003-05-19T12:37:07Z</time>
<speed>0.8</speed>
</trkpt>
<trkpt lat="47.578867" lon="8.571979">
<ele>351.0</ele>
<time>2003-05-19T12:37:12Z</time>
<speed>0.8</speed>
</trkpt>
<trkpt lat="47.578825" lon="8.571932">
<ele>351.2</ele>
<time>2003-05-19T12:37:17Z</time>
<speed>0.8</speed>
</trkpt>
<trkpt lat="47.578788" lon="8.571913">
<ele>350.9</ele>
<time>2003-05-19T12:37:22Z</time>
<speed>0.3</speed>
</trkpt>
<trkpt lat="47.578757" lon="8.571907">
<ele>351.4</ele>
<time>2003-05-19T12:37:27Z</time>
<speed>0.6</speed>
</trkpt>
<trkpt lat="47.578694" lon="8.571884">
<ele>350.9</ele>
<time>2003-05-19T12:37:32Z</time>
<speed>1.4</speed>
</trkpt>
<trkpt lat="47.578598" lon="8.571881">
<ele>351.2</ele>
<time>2003-05-19T12:37:37Z</time>
<speed>1.4</speed>
</trkpt>
<trkpt lat="47.578517" lon="8.571854">
<ele>351.3</ele>
<time>2003-05-19T12:37:42Z</time>
<speed>0.8</speed>
</trkpt>
<trkpt lat="47.578453" lon="8.571857">
<ele>351.1</ele>
<time>2003-05-19T12:37:47Z</time>
<speed>0.8</speed>
</trkpt>
<trkpt lat="47.578411" lon="8.571904">
<ele>351.3</ele>
<time>2003-05-19T12:37:52Z</time>
<speed>0.8</speed>
</trkpt>
<trkpt lat="47.578323" lon="8.571890">
<ele>350.8</ele>
<time>2003-05-19T12:37:57Z</time>
<speed>1.1</speed>
</trkpt>
<trkpt lat="47.578263" lon="8.571907">
<ele>351.3</ele>
<time>2003-05-19T12:38:02Z</time>
<speed>0.8</speed>
</trkpt>
<trkpt lat="47.578187" lon="8.571908">
<ele>351.0</ele>
<time>2003-05-19T12:38:07Z</time>
<speed>1.4</speed>
</trkpt>
<trkpt lat="47.578109" lon="8.571922">
<ele>350.8</ele>
<time>2003-05-19T12:38:12Z</time>
<speed>1.4</speed>
</trkpt>
<trkpt lat="47.578044" lon="8.571939">
<ele>350.6</ele>
<time>2003-05-19T12:38:17Z</time>
<speed>1.1</speed>
</trkpt>
<trkpt lat="47.577998" lon="8.571944">
<ele>351.2</ele>
<time>2003-05-19T12:38:22Z</time>
<speed>0.6</speed>
</trkpt>
<trkpt lat="47.577981" lon="8.572008">
<ele>351.6</ele>
<time>2003-05-19T12:38:27Z</time>
<speed>1.1</speed>
</trkpt>
<trkpt lat="47.577929" lon="8.572013">
<ele>351.4</ele>
<time>2003-05-19T12:38:32Z</time>
<speed>0.8</speed>
</trkpt>
<trkpt lat="47.577810" lon="8.571980">
<ele>351.4</ele>
<time>2003-05-19T12:38:37Z</time>
<speed>1.7</speed>
</trkpt>
<trkpt lat="47.577722" lon="8.571966">
<ele>350.9</ele>
<time>2003-05-19T12:38:42Z</time>
<speed>1.1</speed>
</trkpt>
<trkpt lat="47.577661" lon="8.571996">
<ele>351.6</ele>
<time>2003-05-19T12:38:47Z</time>
<speed>1.1</speed>
</trkpt>
<trkpt lat="47.577597" lon="8.571999">
<ele>351.3</ele>
<time>2003-05-19T12:38:52Z</time>
<speed>0.8</speed>
</trkpt>
<trkpt lat="47.577533" lon="8.572002">
<ele>351.0</ele>
<time>2003-05-19T12:38:57Z</time>
<speed>0.8</speed>
</trkpt>
<trkpt lat="47.577476" lon="8.571992">
<ele>351.4</ele>
<time>2003-05-19T12:39:02Z</time>
<speed>0.8</speed>
</trkpt>
<trkpt lat="47.577395" lon="8.571965">
<ele>351.6</ele>
<time>2003-05-19T12:39:07Z</time>
<speed>1.4</speed>
</trkpt>
<trkpt lat="47.577333" lon="8.571942">
<ele>351.1</ele>
<time>2003-05-19T12:39:12Z</time>
<speed>0.8</speed>
</trkpt>
<trkpt lat="47.577281" lon="8.571947">
<ele>350.9</ele>
<time>2003-05-19T12:39:17Z</time>
<speed>0.6</speed>
</trkpt>
<trkpt lat="47.577217" lon="8.571857">
<ele>350.6</ele>
<time>2003-05-19T12:39:22Z</time>
<speed>1.4</speed>
</trkpt>
<trkpt lat="47.577145" lon="8.571790">
<ele>351.2</ele>
<time>2003-05-19T12:39:27Z</time>
<speed>1.1</speed>
</trkpt>
<trkpt lat="47.577098" lon="8.571730">
<ele>350.5</ele>
<time>2003-05-19T12:39:32Z</time>
<speed>0.8</speed>
</trkpt>
<trkpt lat="47.577055" lon="8.571709">
<ele>350.9</ele>
<time>2003-05-19T12:39:37Z</time>
<speed>0.6</speed>
</trkpt>
<trkpt lat="47.576983" lon="8.571642">
<ele>351.5</ele>
<time>2003-05-19T12:39:42Z</time>
<speed>0.8</speed>
</trkpt>
<trkpt lat="47.576911" lon="8.571578">
<ele>350.6</ele>
<time>2003-05-19T12:39:47Z</time>
<speed>1.1</speed>
</trkpt>
<trkpt lat="47.576867" lon="8.571557">
<ele>351.0</ele>
<time>2003-05-19T12:39:52Z</time>
<speed>0.6</speed>
</trkpt>
<trkpt lat="47.576822" lon="8.571562">
<ele>351.5</ele>
<time>2003-05-19T12:39:57Z</time>
<speed>0.8</speed>
</trkpt>
<trkpt lat="47.576758" lon="8.571565">
<ele>351.3</ele>
<time>2003-05-19T12:40:02Z</time>
<speed>0.8</speed>
</trkpt>
<trkpt lat="47.576688" lon="8.571553">
<ele>351.6</ele>
<time>2003-05-19T12:40:07Z</time>
<speed>0.6</speed>
</trkpt>
<trkpt lat="47.576623" lon="8.571570">
<ele>351.4</ele>
<time>2003-05-19T12:40:12Z</time>
<speed>0.8</speed>
</trkpt>
<trkpt lat="47.576535" lon="8.571543">
<ele>350.8</ele>
<time>2003-05-19T12:40:17Z</time>
<speed>0.6</speed>
</trkpt>
<trkpt lat="47.576466" lon="8.571531">
<ele>351.2</ele>
<time>2003-05-19T12:40:22Z</time>
<speed>0.8</speed>
</trkpt>
<trkpt lat="47.576389" lon="8.571532">
<ele>350.8</ele>
<time>2003-05-19T12:40:27Z</time>
<speed>1.1</speed>
</trkpt>
<trkpt lat="47.576339" lon="8.571511">
<ele>350.4</ele>
<time>2003-05-19T12:40:32Z</time>
<speed>0.6</speed>
</trkpt>
<trkpt lat="47.576295" lon="8.571503">
<ele>350.9</ele>
<time>2003-05-19T12:40:37Z</time>
<speed>0.3</speed>
</trkpt>
<trkpt lat="47.576240" lon="8.571467">
<ele>351.1</ele>
<time>2003-05-19T12:40:42Z</time>
<speed>0.6</speed>
</trkpt>
<trkpt lat="47.576199" lon="8.571406">
<ele>351.1</ele>
<time>2003-05-19T12:40:47Z</time>
<speed>0.8</speed>
</trkpt>
<trkpt lat="47.576132" lon="8.571355">
<ele>351.1</ele>
<time>2003-05-19T12:40:52Z</time>
<speed>0.8</speed>
</trkpt>
<trkpt lat="47.576066" lon="8.571304">
<ele>351.1</ele>
<time>2003-05-19T12:40:57Z</time>
<speed>1.4</speed>
</trkpt>
<trkpt lat="47.576001" lon="8.571226">
<ele>351.0</ele>
<time>2003-05-19T12:41:02Z</time>
<speed>1.1</speed>
</trkpt>
<trkpt lat="47.575949" lon="8.571150">
<ele>350.8</ele>
<time>2003-05-19T12:41:08Z</time>
<speed>1.1</speed>
</trkpt>
<trkpt lat="47.575876" lon="8.571084">
<ele>351.4</ele>
<time>2003-05-19T12:41:13Z</time>
<speed>0.6</speed>
</trkpt>
<trkpt lat="47.575829" lon="8.571037">
<ele>350.8</ele>
<time>2003-05-19T12:41:18Z</time>
<speed>0.8</speed>
</trkpt>
<trkpt lat="47.575780" lon="8.571002">
<ele>350.3</ele>
<time>2003-05-19T12:41:23Z</time>
<speed>0.6</speed>
</trkpt>
<trkpt lat="47.575713" lon="8.570966">
<ele>349.0</ele>
<time>2003-05-19T12:41:28Z</time>
<speed>0.8</speed>
</trkpt>
<trkpt lat="47.575658" lon="8.570930">
<ele>349.2</ele>
<time>2003-05-19T12:41:33Z</time>
<speed>0.8</speed>
</trkpt>
<trkpt lat="47.575598" lon="8.570866">
<ele>349.9</ele>
<time>2003-05-19T12:41:38Z</time>
<speed>1.1</speed>
</trkpt>
<trkpt lat="47.575543" lon="8.570829">
<ele>350.1</ele>
<time>2003-05-19T12:41:43Z</time>
<speed>0.8</speed>
</trkpt>
<trkpt lat="47.575475" lon="8.570791">
<ele>350.2</ele>
<time>2003-05-19T12:41:48Z</time>
<speed>1.1</speed>
</trkpt>
<trkpt lat="47.575410" lon="8.570771">
<ele>356.8</ele>
<time>2003-05-19T12:41:54Z</time>
<speed>1.1</speed>
</trkpt>
<trkpt lat="47.575349" lon="8.570720">
<ele>357.6</ele>
<time>2003-05-19T12:41:59Z</time>
<speed>1.1</speed>
</trkpt>
<trkpt lat="47.575281" lon="8.570682">
<ele>357.7</ele>
<time>2003-05-19T12:42:04Z</time>
<speed>1.1</speed>
</trkpt>
<trkpt lat="47.575219" lon="8.570657">
<ele>358.6</ele>
<time>2003-05-19T12:42:09Z</time>
<speed>1.4</speed>
</trkpt>
<trkpt lat="47.575158" lon="8.570606">
<ele>359.4</ele>
<time>2003-05-19T12:42:14Z</time>
<speed>1.1</speed>
</trkpt>
<trkpt lat="47.575090" lon="8.570567">
<ele>359.5</ele>
<time>2003-05-19T12:42:19Z</time>
<speed>1.4</speed>
</trkpt>
<trkpt lat="47.575022" lon="8.570529">
<ele>359.6</ele>
<time>2003-05-19T12:42:24Z</time>
<speed>1.4</speed>
</trkpt>
<trkpt lat="47.574956" lon="8.570478">
<ele>359.6</ele>
<time>2003-05-19T12:42:29Z</time>
<speed>1.4</speed>
</trkpt>
<trkpt lat="47.574887" lon="8.570453">
<ele>359.8</ele>
<time>2003-05-19T12:42:34Z</time>
<speed>1.1</speed>
</trkpt>
<trkpt lat="47.574824" lon="8.570428">
<ele>360.8</ele>
<time>2003-05-19T12:42:39Z</time>
<speed>1.4</speed>
</trkpt>
<trkpt lat="47.574750" lon="8.570403">
<ele>360.3</ele>
<time>2003-05-19T12:42:44Z</time>
<speed>1.4</speed>
</trkpt>
<trkpt lat="47.574675" lon="8.570378">
<ele>359.7</ele>
<time>2003-05-19T12:42:49Z</time>
<speed>1.1</speed>
</trkpt>
<trkpt lat="47.574613" lon="8.570355">
<ele>359.3</ele>
<time>2003-05-19T12:42:54Z</time>
<speed>1.4</speed>
</trkpt>
<trkpt lat="47.574538" lon="8.570330">
<ele>358.7</ele>
<time>2003-05-19T12:42:59Z</time>
<speed>1.4</speed>
</trkpt>
<trkpt lat="47.574470" lon="8.570292">
<ele>358.9</ele>
<time>2003-05-19T12:43:04Z</time>
<speed>1.1</speed>
</trkpt>
<trkpt lat="47.574402" lon="8.570253">
<ele>359.0</ele>
<time>2003-05-19T12:43:09Z</time>
<speed>1.1</speed>
</trkpt>
<trkpt lat="47.574348" lon="8.570204">
<ele>359.1</ele>
<time>2003-05-19T12:43:14Z</time>
<speed>1.4</speed>
</trkpt>
<trkpt lat="47.574282" lon="8.570140">
<ele>359.0</ele>
<time>2003-05-19T12:43:19Z</time>
<speed>1.1</speed>
</trkpt>
<trkpt lat="47.574216" lon="8.570088">
<ele>359.0</ele>
<time>2003-05-19T12:43:24Z</time>
<speed>1.4</speed>
</trkpt>
<trkpt lat="47.574161" lon="8.570039">
<ele>359.1</ele>
<time>2003-05-19T12:43:29Z</time>
<speed>1.4</speed>
</trkpt>
<trkpt lat="47.574089" lon="8.569973">
<ele>359.6</ele>
<time>2003-05-19T12:43:34Z</time>
<speed>1.1</speed>
</trkpt>
<trkpt lat="47.574029" lon="8.569923">
<ele>359.0</ele>
<time>2003-05-19T12:43:39Z</time>
<speed>1.1</speed>
</trkpt>
<trkpt lat="47.573975" lon="8.569876">
<ele>357.6</ele>
<time>2003-05-19T12:43:44Z</time>
<speed>1.4</speed>
</trkpt>
<trkpt lat="47.573915" lon="8.569827">
<ele>357.0</ele>
<time>2003-05-19T12:43:49Z</time>
<speed>1.4</speed>
</trkpt>
<trkpt lat="47.573861" lon="8.569779">
<ele>355.7</ele>
<time>2003-05-19T12:43:54Z</time>
<speed>1.1</speed>
</trkpt>
<trkpt lat="47.573795" lon="8.569728">
<ele>355.7</ele>
<time>2003-05-19T12:43:59Z</time>
<speed>1.4</speed>
</trkpt>
<trkpt lat="47.573728" lon="8.569679">
<ele>354.3</ele>
<time>2003-05-19T12:44:04Z</time>
<speed>1.4</speed>
</trkpt>
<trkpt lat="47.573667" lon="8.569642">
<ele>353.7</ele>
<time>2003-05-19T12:44:09Z</time>
<speed>1.1</speed>
</trkpt>
<trkpt lat="47.573593" lon="8.569602">
<ele>354.5</ele>
<time>2003-05-19T12:44:14Z</time>
<speed>1.1</speed>
</trkpt>
<trkpt lat="47.573510" lon="8.569586">
<ele>356.2</ele>
<time>2003-05-19T12:44:19Z</time>
<speed>1.4</speed>
</trkpt>
<trkpt lat="47.573441" lon="8.569576">
<ele>355.1</ele>
<time>2003-05-19T12:44:24Z</time>
<speed>1.4</speed>
</trkpt>
<trkpt lat="47.573369" lon="8.569591">
<ele>355.6</ele>
<time>2003-05-19T12:44:29Z</time>
<speed>1.4</speed>
</trkpt>
<trkpt lat="47.573304" lon="8.569607">
<ele>355.4</ele>
<time>2003-05-19T12:44:34Z</time>
<speed>1.4</speed>
</trkpt>
<trkpt lat="47.573227" lon="8.569609">
<ele>355.1</ele>
<time>2003-05-19T12:44:39Z</time>
<speed>1.4</speed>
</trkpt>
<trkpt lat="47.573157" lon="8.569610">
<ele>355.5</ele>
<time>2003-05-19T12:44:44Z</time>
<speed>1.4</speed>
</trkpt>
<trkpt lat="47.573093" lon="8.569615">
<ele>353.8</ele>
<time>2003-05-19T12:44:49Z</time>
<speed>1.4</speed>
</trkpt>
<trkpt lat="47.573022" lon="8.569616">
<ele>354.3</ele>
<time>2003-05-19T12:44:54Z</time>
<speed>1.1</speed>
</trkpt>
<trkpt lat="47.572946" lon="8.569604">
<ele>353.8</ele>
<time>2003-05-19T12:44:59Z</time>
<speed>1.1</speed>
</trkpt>
<trkpt lat="47.572890" lon="8.569581">
<ele>354.1</ele>
<time>2003-05-19T12:45:04Z</time>
<speed>1.1</speed>
</trkpt>
<trkpt lat="47.572830" lon="8.569547">
<ele>352.2</ele>
<time>2003-05-19T12:45:09Z</time>
<speed>1.4</speed>
</trkpt>
<trkpt lat="47.572762" lon="8.569509">
<ele>352.3</ele>
<time>2003-05-19T12:45:14Z</time>
<speed>1.4</speed>
</trkpt>
<trkpt lat="47.572689" lon="8.569456">
<ele>352.9</ele>
<time>2003-05-19T12:45:19Z</time>
<speed>1.4</speed>
</trkpt>
<trkpt lat="47.572623" lon="8.569391">
<ele>352.9</ele>
<time>2003-05-19T12:45:24Z</time>
<speed>1.4</speed>
</trkpt>
<trkpt lat="47.572567" lon="8.569370">
<ele>351.7</ele>
<time>2003-05-19T12:45:29Z</time>
<speed>1.1</speed>
</trkpt>
<trkpt lat="47.572499" lon="8.569347">
<ele>350.5</ele>
<time>2003-05-19T12:45:34Z</time>
<speed>1.1</speed>
</trkpt>
<trkpt lat="47.572437" lon="8.569324">
<ele>350.1</ele>
<time>2003-05-19T12:45:39Z</time>
<speed>1.4</speed>
</trkpt>
<trkpt lat="47.572362" lon="8.569299">
<ele>349.6</ele>
<time>2003-05-19T12:45:44Z</time>
<speed>1.4</speed>
</trkpt>
<trkpt lat="47.572307" lon="8.569263">
<ele>349.7</ele>
<time>2003-05-19T12:45:49Z</time>
<speed>1.1</speed>
</trkpt>
<trkpt lat="47.572238" lon="8.569238">
<ele>349.9</ele>
<time>2003-05-19T12:45:54Z</time>
<speed>1.1</speed>
</trkpt>
<trkpt lat="47.572219" lon="8.569234">
<ele>350.5</ele>
<time>2003-05-19T12:45:59Z</time>
<speed>0.6</speed>
</trkpt>
<trkpt lat="47.572181" lon="8.569228">
<ele>350.3</ele>
<time>2003-05-19T12:46:04Z</time>
<speed>0.3</speed>
</trkpt>
<trkpt lat="47.572124" lon="8.569218">
<ele>350.7</ele>
<time>2003-05-19T12:46:09Z</time>
<speed>0.8</speed>
</trkpt>
<trkpt lat="47.572056" lon="8.569178">
<ele>352.2</ele>
<time>2003-05-19T12:46:14Z</time>
<speed>0.8</speed>
</trkpt>
<trkpt lat="47.572012" lon="8.569157">
<ele>352.6</ele>
<time>2003-05-19T12:46:19Z</time>
<speed>0.3</speed>
</trkpt>
<trkpt lat="47.571948" lon="8.569158">
<ele>353.7</ele>
<time>2003-05-19T12:46:24Z</time>
<speed>0.6</speed>
</trkpt>
<trkpt lat="47.571889" lon="8.569161">
<ele>354.2</ele>
<time>2003-05-19T12:46:29Z</time>
<speed>0.8</speed>
</trkpt>
<trkpt lat="47.571833" lon="8.569138">
<ele>354.5</ele>
<time>2003-05-19T12:46:34Z</time>
<speed>0.8</speed>
</trkpt>
<trkpt lat="47.571771" lon="8.569115">
<ele>354.0</ele>
<time>2003-05-19T12:46:39Z</time>
<speed>1.1</speed>
</trkpt>
<trkpt lat="47.571701" lon="8.569103">
<ele>354.4</ele>
<time>2003-05-19T12:46:44Z</time>
<speed>0.8</speed>
</trkpt>
<trkpt lat="47.571624" lon="8.569103">
<ele>355.4</ele>
<time>2003-05-19T12:46:49Z</time>
<speed>1.1</speed>
</trkpt>
<trkpt lat="47.571554" lon="8.569091">
<ele>355.7</ele>
<time>2003-05-19T12:46:54Z</time>
<speed>0.8</speed>
</trkpt>
<trkpt lat="47.571492" lon="8.569066">
<ele>356.7</ele>
<time>2003-05-19T12:46:59Z</time>
<speed>1.1</speed>
</trkpt>
<trkpt lat="47.571418" lon="8.569028">
<ele>356.1</ele>
<time>2003-05-19T12:47:04Z</time>
<speed>1.1</speed>
</trkpt>
<trkpt lat="47.571349" lon="8.569001">
<ele>357.7</ele>
<time>2003-05-19T12:47:09Z</time>
<speed>0.8</speed>
</trkpt>
<trkpt lat="47.571278" lon="8.569002">
<ele>358.1</ele>
<time>2003-05-19T12:47:14Z</time>
<speed>1.1</speed>
</trkpt>
<trkpt lat="47.571209" lon="8.568977">
<ele>358.3</ele>
<time>2003-05-19T12:47:19Z</time>
<speed>0.8</speed>
</trkpt>
<trkpt lat="47.571148" lon="8.568939">
<ele>359.2</ele>
<time>2003-05-19T12:47:24Z</time>
<speed>0.8</speed>
</trkpt>
<trkpt lat="47.571101" lon="8.568876">
<ele>359.9</ele>
<time>2003-05-19T12:47:29Z</time>
<speed>0.6</speed>
</trkpt>
<trkpt lat="47.571015" lon="8.568821">
<ele>360.5</ele>
<time>2003-05-19T12:47:34Z</time>
<speed>0.8</speed>
</trkpt>
<trkpt lat="47.570932" lon="8.568807">
<ele>360.7</ele>
<time>2003-05-19T12:47:39Z</time>
<speed>0.6</speed>
</trkpt>
<trkpt lat="47.570876" lon="8.568784">
<ele>361.0</ele>
<time>2003-05-19T12:47:44Z</time>
<speed>0.8</speed>
</trkpt>
<trkpt lat="47.570826" lon="8.568761">
<ele>362.0</ele>
<time>2003-05-19T12:47:49Z</time>
<speed>0.8</speed>
</trkpt>
<trkpt lat="47.570759" lon="8.568710">
<ele>362.0</ele>
<time>2003-05-19T12:47:54Z</time>
<speed>1.1</speed>
</trkpt>
<trkpt lat="47.570683" lon="8.568696">
<ele>363.0</ele>
<time>2003-05-19T12:47:59Z</time>
<speed>1.1</speed>
</trkpt>
<trkpt lat="47.570612" lon="8.568697">
<ele>363.4</ele>
<time>2003-05-19T12:48:04Z</time>
<speed>0.8</speed>
</trkpt>
<trkpt lat="47.570534" lon="8.568725">
<ele>363.3</ele>
<time>2003-05-19T12:48:09Z</time>
<speed>1.4</speed>
</trkpt>
<trkpt lat="47.570460" lon="8.568765">
<ele>364.0</ele>
<time>2003-05-19T12:48:14Z</time>
<speed>1.1</speed>
</trkpt>
<trkpt lat="47.570396" lon="8.568769">
<ele>363.8</ele>
<time>2003-05-19T12:48:19Z</time>
<speed>0.8</speed>
</trkpt>
<trkpt lat="47.570350" lon="8.568774">
<ele>364.3</ele>
<time>2003-05-19T12:48:24Z</time>
<speed>0.8</speed>
</trkpt>
<trkpt lat="47.570281" lon="8.568762">
<ele>364.6</ele>
<time>2003-05-19T12:48:29Z</time>
<speed>0.8</speed>
</trkpt>
<trkpt lat="47.570204" lon="8.568763">
<ele>364.3</ele>
<time>2003-05-19T12:48:34Z</time>
<speed>1.1</speed>
</trkpt>
<trkpt lat="47.570129" lon="8.568738">
<ele>363.8</ele>
<time>2003-05-19T12:48:39Z</time>
<speed>0.6</speed>
</trkpt>
<trkpt lat="47.570085" lon="8.568730">
<ele>364.2</ele>
<time>2003-05-19T12:48:44Z</time>
<speed>0.6</speed>
</trkpt>
<trkpt lat="47.570020" lon="8.568733">
<ele>364.0</ele>
<time>2003-05-19T12:48:49Z</time>
<speed>0.8</speed>
</trkpt>
<trkpt lat="47.569942" lon="8.568746">
<ele>365.2</ele>
<time>2003-05-19T12:48:54Z</time>
<speed>0.8</speed>
</trkpt>
<trkpt lat="47.569864" lon="8.568760">
<ele>364.9</ele>
<time>2003-05-19T12:48:59Z</time>
<speed>0.8</speed>
</trkpt>
<trkpt lat="47.569794" lon="8.568762">
<ele>365.4</ele>
<time>2003-05-19T12:49:04Z</time>
<speed>1.1</speed>
</trkpt>
<trkpt lat="47.569717" lon="8.568746">
<ele>367.7</ele>
<time>2003-05-19T12:49:09Z</time>
<speed>0.8</speed>
</trkpt>
<trkpt lat="47.569675" lon="8.568777">
<ele>369.2</ele>
<time>2003-05-19T12:49:14Z</time>
<speed>0.8</speed>
</trkpt>
<trkpt lat="47.569617" lon="8.568780">
<ele>369.7</ele>
<time>2003-05-19T12:49:19Z</time>
<speed>0.8</speed>
</trkpt>
<trkpt lat="47.569566" lon="8.568771">
<ele>370.8</ele>
<time>2003-05-19T12:49:24Z</time>
<speed>0.8</speed>
</trkpt>
<trkpt lat="47.569516" lon="8.568747">
<ele>371.9</ele>
<time>2003-05-19T12:49:29Z</time>
<speed>0.6</speed>
</trkpt>
<trkpt lat="47.569459" lon="8.568738">
<ele>372.2</ele>
<time>2003-05-19T12:49:34Z</time>
<speed>0.6</speed>
</trkpt>
<trkpt lat="47.569396" lon="8.568726">
<ele>373.3</ele>
<time>2003-05-19T12:49:39Z</time>
<speed>0.3</speed>
</trkpt>
<trkpt lat="47.569339" lon="8.568701">
<ele>375.0</ele>
<time>2003-05-19T12:49:44Z</time>
<speed>0.6</speed>
</trkpt>
<trkpt lat="47.569281" lon="8.568704">
<ele>375.5</ele>
<time>2003-05-19T12:49:49Z</time>
<speed>0.6</speed>
</trkpt>
<trkpt lat="47.569210" lon="8.568703">
<ele>377.3</ele>
<time>2003-05-19T12:49:54Z</time>
<speed>0.8</speed>
</trkpt>
<trkpt lat="47.569145" lon="8.568704">
<ele>378.4</ele>
<time>2003-05-19T12:49:59Z</time>
<speed>0.8</speed>
</trkpt>
<trkpt lat="47.569080" lon="8.568706">
<ele>379.6</ele>
<time>2003-05-19T12:50:04Z</time>
<speed>0.8</speed>
</trkpt>
<trkpt lat="47.569005" lon="8.568679">
<ele>380.5</ele>
<time>2003-05-19T12:50:09Z</time>
<speed>1.1</speed>
</trkpt>
<trkpt lat="47.568926" lon="8.568608">
<ele>383.1</ele>
<time>2003-05-19T12:50:14Z</time>
<speed>0.6</speed>
</trkpt>
<trkpt lat="47.568857" lon="8.568583">
<ele>383.3</ele>
<time>2003-05-19T12:50:19Z</time>
<speed>0.6</speed>
</trkpt>
<trkpt lat="47.568801" lon="8.568560">
<ele>383.6</ele>
<time>2003-05-19T12:50:24Z</time>
<speed>0.6</speed>
</trkpt>
<trkpt lat="47.568752" lon="8.568524">
<ele>384.5</ele>
<time>2003-05-19T12:50:29Z</time>
<speed>0.6</speed>
</trkpt>
<trkpt lat="47.568682" lon="8.568512">
<ele>384.8</ele>
<time>2003-05-19T12:50:34Z</time>
<speed>0.8</speed>
</trkpt>
<trkpt lat="47.568605" lon="8.568511">
<ele>385.9</ele>
<time>2003-05-19T12:50:39Z</time>
<speed>0.8</speed>
</trkpt>
<trkpt lat="47.568543" lon="8.568473">
<ele>386.8</ele>
<time>2003-05-19T12:50:44Z</time>
<speed>0.6</speed>
</trkpt>
<trkpt lat="47.568514" lon="8.568428">
<ele>387.0</ele>
<time>2003-05-19T12:50:49Z</time>
<speed>0.3</speed>
</trkpt>
<trkpt lat="47.568477" lon="8.568409">
<ele>386.7</ele>
<time>2003-05-19T12:50:54Z</time>
<speed>0.8</speed>
</trkpt>
<trkpt lat="47.568400" lon="8.568408">
<ele>387.8</ele>
<time>2003-05-19T12:50:59Z</time>
<speed>0.8</speed>
</trkpt>
<trkpt lat="47.568324" lon="8.568394">
<ele>388.7</ele>
<time>2003-05-19T12:51:04Z</time>
<speed>0.6</speed>
</trkpt>
<trkpt lat="47.568248" lon="8.568367">
<ele>389.6</ele>
<time>2003-05-19T12:51:09Z</time>
<speed>0.3</speed>
</trkpt>
<trkpt lat="47.568192" lon="8.568344">
<ele>389.9</ele>
<time>2003-05-19T12:51:14Z</time>
<speed>0.3</speed>
</trkpt>
<trkpt lat="47.568158" lon="8.568284">
<ele>390.7</ele>
<time>2003-05-19T12:51:19Z</time>
<speed>0.3</speed>
</trkpt>
<trkpt lat="47.568104" lon="8.568234">
<ele>390.8</ele>
<time>2003-05-19T12:51:24Z</time>
<speed>0.8</speed>
</trkpt>
<trkpt lat="47.568056" lon="8.568187">
<ele>390.2</ele>
<time>2003-05-19T12:51:29Z</time>
<speed>0.6</speed>
</trkpt>
<trkpt lat="47.568017" lon="8.568098">
<ele>391.5</ele>
<time>2003-05-19T12:51:34Z</time>
<speed>1.1</speed>
</trkpt>
<trkpt lat="47.567966" lon="8.568008">
<ele>392.6</ele>
<time>2003-05-19T12:51:39Z</time>
<speed>0.8</speed>
</trkpt>
<trkpt lat="47.567926" lon="8.567934">
<ele>392.6</ele>
<time>2003-05-19T12:51:44Z</time>
<speed>0.8</speed>
</trkpt>
<trkpt lat="47.567878" lon="8.567900">
<ele>392.1</ele>
<time>2003-05-19T12:51:49Z</time>
<speed>0.6</speed>
</trkpt>
<trkpt lat="47.567831" lon="8.567839">
<ele>391.4</ele>
<time>2003-05-19T12:51:54Z</time>
<speed>0.3</speed>
</trkpt>
<trkpt lat="47.567747" lon="8.567854">
<ele>390.5</ele>
<time>2003-05-19T12:51:59Z</time>
<speed>0.8</speed>
</trkpt>
<trkpt lat="47.567661" lon="8.567831">
<ele>387.1</ele>
<time>2003-05-19T12:52:04Z</time>
<speed>1.1</speed>
</trkpt>
<trkpt lat="47.567598" lon="8.567838">
<ele>384.0</ele>
<time>2003-05-19T12:52:09Z</time>
<speed>1.4</speed>
</trkpt>
<trkpt lat="47.567537" lon="8.567885">
<ele>382.0</ele>
<time>2003-05-19T12:52:14Z</time>
<speed>0.8</speed>
</trkpt>
<trkpt lat="47.567478" lon="8.567901">
<ele>382.5</ele>
<time>2003-05-19T12:52:19Z</time>
<speed>0.8</speed>
</trkpt>
<trkpt lat="47.567412" lon="8.567930">
<ele>382.5</ele>
<time>2003-05-19T12:52:24Z</time>
<speed>1.1</speed>
</trkpt>
<trkpt lat="47.567345" lon="8.567973">
<ele>382.5</ele>
<time>2003-05-19T12:52:29Z</time>
<speed>1.1</speed>
</trkpt>
<trkpt lat="47.567256" lon="8.567913">
<ele>376.7</ele>
<time>2003-05-19T12:52:34Z</time>
<speed>0.8</speed>
</trkpt>
<trkpt lat="47.567172" lon="8.567848">
<ele>374.4</ele>
<time>2003-05-19T12:52:39Z</time>
<speed>1.1</speed>
</trkpt>
<trkpt lat="47.567093" lon="8.567797">
<ele>372.9</ele>
<time>2003-05-19T12:52:44Z</time>
<speed>1.4</speed>
</trkpt>
<trkpt lat="47.567037" lon="8.567789">
<ele>371.9</ele>
<time>2003-05-19T12:52:49Z</time>
<speed>1.1</speed>
</trkpt>
<trkpt lat="47.566981" lon="8.567768">
<ele>370.8</ele>
<time>2003-05-19T12:52:54Z</time>
<speed>0.8</speed>
</trkpt>
<trkpt lat="47.566924" lon="8.567743">
<ele>372.5</ele>
<time>2003-05-19T12:52:59Z</time>
<speed>1.1</speed>
</trkpt>
<trkpt lat="47.566867" lon="8.567748">
<ele>371.5</ele>
<time>2003-05-19T12:53:04Z</time>
<speed>1.1</speed>
</trkpt>
<trkpt lat="47.566816" lon="8.567738">
<ele>372.7</ele>
<time>2003-05-19T12:53:09Z</time>
<speed>0.6</speed>
</trkpt>
<trkpt lat="47.566733" lon="8.567722">
<ele>374.3</ele>
<time>2003-05-19T12:53:14Z</time>
<speed>0.8</speed>
</trkpt>
<trkpt lat="47.566683" lon="8.567699">
<ele>375.3</ele>
<time>2003-05-19T12:53:19Z</time>
<speed>0.6</speed>
</trkpt>
<trkpt lat="47.566633" lon="8.567676">
<ele>376.4</ele>
<time>2003-05-19T12:53:24Z</time>
<speed>0.6</speed>
</trkpt>
<trkpt lat="47.566576" lon="8.567666">
<ele>376.7</ele>
<time>2003-05-19T12:53:29Z</time>
<speed>0.6</speed>
</trkpt>
<trkpt lat="47.566534" lon="8.567619">
<ele>376.9</ele>
<time>2003-05-19T12:53:34Z</time>
<speed>0.6</speed>
</trkpt>
<trkpt lat="47.566435" lon="8.567513">
<ele>373.5</ele>
<time>2003-05-19T12:53:39Z</time>
<speed>1.1</speed>
</trkpt>
<trkpt lat="47.566356" lon="8.567447">
<ele>373.3</ele>
<time>2003-05-19T12:53:44Z</time>
<speed>0.8</speed>
</trkpt>
<trkpt lat="47.566299" lon="8.567437">
<ele>373.7</ele>
<time>2003-05-19T12:53:49Z</time>
<speed>0.6</speed>
</trkpt>
<trkpt lat="47.566229" lon="8.567425">
<ele>374.0</ele>
<time>2003-05-19T12:53:54Z</time>
<speed>0.8</speed>
</trkpt>
<trkpt lat="47.566165" lon="8.567428">
<ele>373.8</ele>
<time>2003-05-19T12:53:59Z</time>
<speed>0.8</speed>
</trkpt>
<trkpt lat="47.566086" lon="8.567456">
<ele>373.6</ele>
<time>2003-05-19T12:54:04Z</time>
<speed>0.6</speed>
</trkpt>
<trkpt lat="47.565992" lon="8.567442">
<ele>372.4</ele>
<time>2003-05-19T12:54:09Z</time>
<speed>1.1</speed>
</trkpt>
<trkpt lat="47.565909" lon="8.567441">
<ele>372.7</ele>
<time>2003-05-19T12:54:14Z</time>
<speed>1.1</speed>
</trkpt>
<trkpt lat="47.565826" lon="8.567427">
<ele>373.0</ele>
<time>2003-05-19T12:54:19Z</time>
<speed>1.7</speed>
</trkpt>
<trkpt lat="47.565731" lon="8.567394">
<ele>375.9</ele>
<time>2003-05-19T12:54:24Z</time>
<speed>1.1</speed>
</trkpt>
<trkpt lat="47.565655" lon="8.567365">
<ele>378.2</ele>
<time>2003-05-19T12:54:29Z</time>
<speed>1.4</speed>
</trkpt>
<trkpt lat="47.565586" lon="8.567338">
<ele>379.8</ele>
<time>2003-05-19T12:54:34Z</time>
<speed>1.4</speed>
</trkpt>
<trkpt lat="47.565511" lon="8.567311">
<ele>380.7</ele>
<time>2003-05-19T12:54:39Z</time>
<speed>1.4</speed>
</trkpt>
<trkpt lat="47.565440" lon="8.567313">
<ele>381.1</ele>
<time>2003-05-19T12:54:44Z</time>
<speed>1.1</speed>
</trkpt>
<trkpt lat="47.565378" lon="8.567290">
<ele>380.6</ele>
<time>2003-05-19T12:54:49Z</time>
<speed>1.1</speed>
</trkpt>
<trkpt lat="47.565315" lon="8.567280">
<ele>380.3</ele>
<time>2003-05-19T12:54:54Z</time>
<speed>1.1</speed>
</trkpt>
<trkpt lat="47.565233" lon="8.567266">
<ele>380.5</ele>
<time>2003-05-19T12:54:59Z</time>
<speed>1.1</speed>
</trkpt>
<trkpt lat="47.565163" lon="8.567254">
<ele>380.8</ele>
<time>2003-05-19T12:55:04Z</time>
<speed>1.4</speed>
</trkpt>
<trkpt lat="47.565106" lon="8.567244">
<ele>381.2</ele>
<time>2003-05-19T12:55:09Z</time>
<speed>0.8</speed>
</trkpt>
<trkpt lat="47.565075" lon="8.567225">
<ele>381.6</ele>
<time>2003-05-19T12:55:14Z</time>
<speed>0.0</speed>
</trkpt>
<trkpt lat="47.565018" lon="8.567215">
<ele>382.0</ele>
<time>2003-05-19T12:55:19Z</time>
<speed>0.6</speed>
</trkpt>
<trkpt lat="47.564968" lon="8.567192">
<ele>383.0</ele>
<time>2003-05-19T12:55:24Z</time>
<speed>0.8</speed>
</trkpt>
<trkpt lat="47.564881" lon="8.567152">
<ele>382.3</ele>
<time>2003-05-19T12:55:29Z</time>
<speed>1.1</speed>
</trkpt>
<trkpt lat="47.564795" lon="8.567097">
<ele>382.9</ele>
<time>2003-05-19T12:55:34Z</time>
<speed>1.1</speed>
</trkpt>
<trkpt lat="47.564735" lon="8.567047">
<ele>382.3</ele>
<time>2003-05-19T12:55:39Z</time>
<speed>1.1</speed>
</trkpt>
<trkpt lat="47.564673" lon="8.567026">
<ele>380.4</ele>
<time>2003-05-19T12:55:44Z</time>
<speed>0.8</speed>
</trkpt>
<trkpt lat="47.564601" lon="8.566960">
<ele>381.0</ele>
<time>2003-05-19T12:55:49Z</time>
<speed>1.1</speed>
</trkpt>
<trkpt lat="47.564527" lon="8.566920">
<ele>381.8</ele>
<time>2003-05-19T12:55:54Z</time>
<speed>1.4</speed>
</trkpt>
<trkpt lat="47.564466" lon="8.566884">
<ele>381.2</ele>
<time>2003-05-19T12:55:59Z</time>
<speed>1.1</speed>
</trkpt>
<trkpt lat="47.564391" lon="8.566859">
<ele>380.7</ele>
<time>2003-05-19T12:56:04Z</time>
<speed>1.1</speed>
</trkpt>
<trkpt lat="47.564319" lon="8.566792">
<ele>381.3</ele>
<time>2003-05-19T12:56:09Z</time>
<speed>1.1</speed>
</trkpt>
<trkpt lat="47.564244" lon="8.566752">
<ele>382.1</ele>
<time>2003-05-19T12:56:14Z</time>
<speed>1.1</speed>
</trkpt>
<trkpt lat="47.564190" lon="8.566701">
<ele>383.5</ele>
<time>2003-05-19T12:56:19Z</time>
<speed>1.1</speed>
</trkpt>
<trkpt lat="47.564134" lon="8.566663">
<ele>385.1</ele>
<time>2003-05-19T12:56:24Z</time>
<speed>0.6</speed>
</trkpt>
<trkpt lat="47.564078" lon="8.566640">
<ele>385.4</ele>
<time>2003-05-19T12:56:29Z</time>
<speed>0.8</speed>
</trkpt>
<trkpt lat="47.564012" lon="8.566575">
<ele>385.3</ele>
<time>2003-05-19T12:56:34Z</time>
<speed>1.1</speed>
</trkpt>
<trkpt lat="47.563958" lon="8.566543">
<ele>382.7</ele>
<time>2003-05-19T12:56:39Z</time>
<speed>0.8</speed>
</trkpt>
<trkpt lat="47.563914" lon="8.566539">
<ele>380.3</ele>
<time>2003-05-19T12:56:44Z</time>
<speed>0.8</speed>
</trkpt>
<trkpt lat="47.563860" lon="8.566507">
<ele>377.7</ele>
<time>2003-05-19T12:56:49Z</time>
<speed>1.1</speed>
</trkpt>
<trkpt lat="47.563795" lon="8.566444">
<ele>376.2</ele>
<time>2003-05-19T12:56:54Z</time>
<speed>1.4</speed>
</trkpt>
<trkpt lat="47.563741" lon="8.566397">
<ele>374.9</ele>
<time>2003-05-19T12:56:59Z</time>
<speed>1.1</speed>
</trkpt>
<trkpt lat="47.563698" lon="8.566378">
<ele>373.9</ele>
<time>2003-05-19T12:57:04Z</time>
<speed>1.1</speed>
</trkpt>
<trkpt lat="47.563649" lon="8.566359">
<ele>372.1</ele>
<time>2003-05-19T12:57:09Z</time>
<speed>1.1</speed>
</trkpt>
<trkpt lat="47.563602" lon="8.566313">
<ele>370.1</ele>
<time>2003-05-19T12:57:14Z</time>
<speed>1.1</speed>
</trkpt>
<trkpt lat="47.563547" lon="8.566292">
<ele>369.0</ele>
<time>2003-05-19T12:57:19Z</time>
<speed>1.1</speed>
</trkpt>
<trkpt lat="47.563480" lon="8.566256">
<ele>367.7</ele>
<time>2003-05-19T12:57:24Z</time>
<speed>1.4</speed>
</trkpt>
<trkpt lat="47.563424" lon="8.566220">
<ele>367.8</ele>
<time>2003-05-19T12:57:29Z</time>
<speed>1.1</speed>
</trkpt>
<trkpt lat="47.563372" lon="8.566160">
<ele>366.4</ele>
<time>2003-05-19T12:57:34Z</time>
<speed>1.1</speed>
</trkpt>
<trkpt lat="47.563325" lon="8.566114">
<ele>364.4</ele>
<time>2003-05-19T12:57:39Z</time>
<speed>1.4</speed>
</trkpt>
<trkpt lat="47.563271" lon="8.566065">
<ele>364.5</ele>
<time>2003-05-19T12:57:44Z</time>
<speed>1.1</speed>
</trkpt>
<trkpt lat="47.563215" lon="8.566029">
<ele>364.7</ele>
<time>2003-05-19T12:57:49Z</time>
<speed>1.1</speed>
</trkpt>
<trkpt lat="47.563155" lon="8.565995">
<ele>362.7</ele>
<time>2003-05-19T12:57:54Z</time>
<speed>1.1</speed>
</trkpt>
<trkpt lat="47.563081" lon="8.565956">
<ele>362.1</ele>
<time>2003-05-19T12:57:59Z</time>
<speed>1.1</speed>
</trkpt>
<trkpt lat="47.563021" lon="8.565907">
<ele>361.5</ele>
<time>2003-05-19T12:58:04Z</time>
<speed>1.1</speed>
</trkpt>
<trkpt lat="47.562967" lon="8.565858">
<ele>361.5</ele>
<time>2003-05-19T12:58:09Z</time>
<speed>1.1</speed>
</trkpt>
<trkpt lat="47.562899" lon="8.565820">
<ele>361.6</ele>
<time>2003-05-19T12:58:14Z</time>
<speed>1.4</speed>
</trkpt>
<trkpt lat="47.562839" lon="8.565770">
<ele>361.0</ele>
<time>2003-05-19T12:58:19Z</time>
<speed>1.4</speed>
</trkpt>
<trkpt lat="47.562785" lon="8.565721">
<ele>361.1</ele>
<time>2003-05-19T12:58:24Z</time>
<speed>1.4</speed>
</trkpt>
<trkpt lat="47.562718" lon="8.565670">
<ele>361.1</ele>
<time>2003-05-19T12:58:29Z</time>
<speed>1.4</speed>
</trkpt>
<trkpt lat="47.562650" lon="8.565632">
<ele>361.2</ele>
<time>2003-05-19T12:58:34Z</time>
<speed>1.1</speed>
</trkpt>
<trkpt lat="47.562590" lon="8.565582">
<ele>360.5</ele>
<time>2003-05-19T12:58:39Z</time>
<speed>1.1</speed>
</trkpt>
<trkpt lat="47.562523" lon="8.565531">
<ele>360.6</ele>
<time>2003-05-19T12:58:44Z</time>
<speed>1.4</speed>
</trkpt>
<trkpt lat="47.562468" lon="8.565495">
<ele>360.7</ele>
<time>2003-05-19T12:58:49Z</time>
<speed>1.4</speed>
</trkpt>
<trkpt lat="47.562401" lon="8.565443">
<ele>360.8</ele>
<time>2003-05-19T12:58:54Z</time>
<speed>1.4</speed>
</trkpt>
<trkpt lat="47.562340" lon="8.565405">
<ele>361.6</ele>
<time>2003-05-19T12:58:59Z</time>
<speed>1.4</speed>
</trkpt>
<trkpt lat="47.562278" lon="8.565369">
<ele>361.0</ele>
<time>2003-05-19T12:59:04Z</time>
<speed>1.1</speed>
</trkpt>
<trkpt lat="47.562218" lon="8.565320">
<ele>360.4</ele>
<time>2003-05-19T12:59:09Z</time>
<speed>1.4</speed>
</trkpt>
<trkpt lat="47.562182" lon="8.565288">
<ele>360.0</ele>
<time>2003-05-19T12:59:14Z</time>
<speed>1.1</speed>
</trkpt>
<trkpt lat="47.562122" lon="8.565238">
<ele>359.3</ele>
<time>2003-05-19T12:59:19Z</time>
<speed>1.1</speed>
</trkpt>
<trkpt lat="47.562056" lon="8.565174">
<ele>359.2</ele>
<time>2003-05-19T12:59:24Z</time>
<speed>1.4</speed>
</trkpt>
<trkpt lat="47.562002" lon="8.565125">
<ele>359.3</ele>
<time>2003-05-19T12:59:29Z</time>
<speed>1.1</speed>
</trkpt>
<trkpt lat="47.561942" lon="8.565075">
<ele>358.7</ele>
<time>2003-05-19T12:59:34Z</time>
<speed>1.1</speed>
</trkpt>
<trkpt lat="47.561875" lon="8.565024">
<ele>358.7</ele>
<time>2003-05-19T12:59:39Z</time>
<speed>1.1</speed>
</trkpt>
<trkpt lat="47.561822" lon="8.564961">
<ele>358.7</ele>
<time>2003-05-19T12:59:44Z</time>
<speed>1.1</speed>
</trkpt>
<trkpt lat="47.561769" lon="8.564899">
<ele>358.6</ele>
<time>2003-05-19T12:59:49Z</time>
<speed>1.4</speed>
</trkpt>
<trkpt lat="47.561723" lon="8.564825">
<ele>357.9</ele>
<time>2003-05-19T12:59:54Z</time>
<speed>1.1</speed>
</trkpt>
<trkpt lat="47.561682" lon="8.564778">
<ele>358.0</ele>
<time>2003-05-19T12:59:59Z</time>
<speed>0.0</speed>
</trkpt>
<trkpt lat="47.561621" lon="8.564742">
<ele>357.5</ele>
<time>2003-05-19T13:00:04Z</time>
<speed>1.4</speed>
</trkpt>
<trkpt lat="47.561566" lon="8.564693">
<ele>357.5</ele>
<time>2003-05-19T13:00:09Z</time>
<speed>1.1</speed>
</trkpt>
<trkpt lat="47.561500" lon="8.564641">
<ele>357.5</ele>
<time>2003-05-19T13:00:14Z</time>
<speed>1.1</speed>
</trkpt>
<trkpt lat="47.561453" lon="8.564581">
<ele>356.9</ele>
<time>2003-05-19T13:00:19Z</time>
<speed>1.4</speed>
</trkpt>
<trkpt lat="47.561393" lon="8.564532">
<ele>356.2</ele>
<time>2003-05-19T13:00:24Z</time>
<speed>0.8</speed>
</trkpt>
<trkpt lat="47.561345" lon="8.564482">
<ele>357.0</ele>
<time>2003-05-19T13:00:29Z</time>
<speed>1.1</speed>
</trkpt>
<trkpt lat="47.561279" lon="8.564418">
<ele>356.9</ele>
<time>2003-05-19T13:00:34Z</time>
<speed>1.4</speed>
</trkpt>
<trkpt lat="47.561224" lon="8.564382">
<ele>357.1</ele>
<time>2003-05-19T13:00:39Z</time>
<speed>1.1</speed>
</trkpt>
<trkpt lat="47.561158" lon="8.564317">
<ele>357.0</ele>
<time>2003-05-19T13:00:44Z</time>
<speed>1.4</speed>
</trkpt>
<trkpt lat="47.561098" lon="8.564266">
<ele>357.8</ele>
<time>2003-05-19T13:00:49Z</time>
<speed>1.4</speed>
</trkpt>
<trkpt lat="47.561037" lon="8.564217">
<ele>357.1</ele>
<time>2003-05-19T13:00:54Z</time>
<speed>1.4</speed>
</trkpt>
<trkpt lat="47.560984" lon="8.564154">
<ele>357.1</ele>
<time>2003-05-19T13:00:59Z</time>
<speed>1.4</speed>
</trkpt>
<trkpt lat="47.560932" lon="8.564094">
<ele>355.7</ele>
<time>2003-05-19T13:01:04Z</time>
<speed>1.1</speed>
</trkpt>
<trkpt lat="47.560877" lon="8.564044">
<ele>355.8</ele>
<time>2003-05-19T13:01:09Z</time>
<speed>1.1</speed>
</trkpt>
<trkpt lat="47.560817" lon="8.563993">
<ele>356.5</ele>
<time>2003-05-19T13:01:14Z</time>
<speed>0.8</speed>
</trkpt>
<trkpt lat="47.560758" lon="8.563931">
<ele>355.8</ele>
<time>2003-05-19T13:01:19Z</time>
<speed>1.1</speed>
</trkpt>
<trkpt lat="47.560703" lon="8.563881">
<ele>355.9</ele>
<time>2003-05-19T13:01:24Z</time>
<speed>1.4</speed>
</trkpt>
<trkpt lat="47.560638" lon="8.563817">
<ele>355.8</ele>
<time>2003-05-19T13:01:29Z</time>
<speed>1.4</speed>
</trkpt>
<trkpt lat="47.560584" lon="8.563768">
<ele>355.8</ele>
<time>2003-05-19T13:01:34Z</time>
<speed>0.8</speed>
</trkpt>
<trkpt lat="47.560529" lon="8.563716">
<ele>357.3</ele>
<time>2003-05-19T13:01:39Z</time>
<speed>1.1</speed>
</trkpt>
<trkpt lat="47.560492" lon="8.563682">
<ele>358.3</ele>
<time>2003-05-19T13:01:44Z</time>
<speed>0.8</speed>
</trkpt>
<trkpt lat="47.560442" lon="8.563659">
<ele>359.3</ele>
<time>2003-05-19T13:01:49Z</time>
<speed>1.1</speed>
</trkpt>
<trkpt lat="47.560387" lon="8.563621">
<ele>360.9</ele>
<time>2003-05-19T13:01:54Z</time>
<speed>1.1</speed>
</trkpt>
<trkpt lat="47.560332" lon="8.563585">
<ele>361.1</ele>
<time>2003-05-19T13:01:59Z</time>
<speed>0.8</speed>
</trkpt>
<trkpt lat="47.560266" lon="8.563520">
<ele>361.0</ele>
<time>2003-05-19T13:02:04Z</time>
<speed>0.8</speed>
</trkpt>
<trkpt lat="47.560207" lon="8.563443">
<ele>361.6</ele>
<time>2003-05-19T13:02:09Z</time>
<speed>1.1</speed>
</trkpt>
<trkpt lat="47.560154" lon="8.563380">
<ele>361.6</ele>
<time>2003-05-19T13:02:14Z</time>
<speed>0.8</speed>
</trkpt>
<trkpt lat="47.560100" lon="8.563331">
<ele>361.6</ele>
<time>2003-05-19T13:02:19Z</time>
<speed>0.8</speed>
</trkpt>
<trkpt lat="47.560045" lon="8.563295">
<ele>361.8</ele>
<time>2003-05-19T13:02:24Z</time>
<speed>0.8</speed>
</trkpt>
<trkpt lat="47.559989" lon="8.563272">
<ele>362.1</ele>
<time>2003-05-19T13:02:29Z</time>
<speed>0.8</speed>
</trkpt>
<trkpt lat="47.559941" lon="8.563224">
<ele>361.5</ele>
<time>2003-05-19T13:02:34Z</time>
<speed>0.8</speed>
</trkpt>
<trkpt lat="47.559893" lon="8.563190">
<ele>361.0</ele>
<time>2003-05-19T13:02:39Z</time>
<speed>0.6</speed>
</trkpt>
<trkpt lat="47.559831" lon="8.563152">
<ele>361.9</ele>
<time>2003-05-19T13:02:44Z</time>
<speed>0.8</speed>
</trkpt>
<trkpt lat="47.559796" lon="8.563105">
<ele>362.8</ele>
<time>2003-05-19T13:02:49Z</time>
<speed>0.6</speed>
</trkpt>
<trkpt lat="47.559740" lon="8.563069">
<ele>363.0</ele>
<time>2003-05-19T13:02:54Z</time>
<speed>0.6</speed>
</trkpt>
<trkpt lat="47.559669" lon="8.563004">
<ele>362.1</ele>
<time>2003-05-19T13:02:59Z</time>
<speed>1.4</speed>
</trkpt>
<trkpt lat="47.559603" lon="8.562940">
<ele>362.1</ele>
<time>2003-05-19T13:03:04Z</time>
<speed>0.8</speed>
</trkpt>
<trkpt lat="47.559542" lon="8.562904">
<ele>361.5</ele>
<time>2003-05-19T13:03:09Z</time>
<speed>0.8</speed>
</trkpt>
<trkpt lat="47.559480" lon="8.562865">
<ele>362.4</ele>
<time>2003-05-19T13:03:14Z</time>
<speed>1.1</speed>
</trkpt>
<trkpt lat="47.559401" lon="8.562814">
<ele>360.9</ele>
<time>2003-05-19T13:03:19Z</time>
<speed>0.8</speed>
</trkpt>
<trkpt lat="47.559327" lon="8.562774">
<ele>361.7</ele>
<time>2003-05-19T13:03:24Z</time>
<speed>0.8</speed>
</trkpt>
<trkpt lat="47.559261" lon="8.562710">
<ele>361.6</ele>
<time>2003-05-19T13:03:29Z</time>
<speed>0.8</speed>
</trkpt>
<trkpt lat="47.559188" lon="8.562656">
<ele>362.3</ele>
<time>2003-05-19T13:03:34Z</time>
<speed>1.1</speed>
</trkpt>
<trkpt lat="47.559128" lon="8.562592">
<ele>362.9</ele>
<time>2003-05-19T13:03:39Z</time>
<speed>1.4</speed>
</trkpt>
<trkpt lat="47.559079" lon="8.562558">
<ele>362.4</ele>
<time>2003-05-19T13:03:44Z</time>
<speed>0.8</speed>
</trkpt>
<trkpt lat="47.559023" lon="8.562535">
<ele>362.7</ele>
<time>2003-05-19T13:03:49Z</time>
<speed>0.8</speed>
</trkpt>
<trkpt lat="47.558980" lon="8.562514">
<ele>363.1</ele>
<time>2003-05-19T13:03:54Z</time>
<speed>0.8</speed>
</trkpt>
<trkpt lat="47.558926" lon="8.562464">
<ele>363.2</ele>
<time>2003-05-19T13:03:59Z</time>
<speed>1.1</speed>
</trkpt>
<trkpt lat="47.558865" lon="8.562398">
<ele>365.2</ele>
<time>2003-05-19T13:04:04Z</time>
<speed>0.8</speed>
</trkpt>
<trkpt lat="47.558822" lon="8.562377">
<ele>365.6</ele>
<time>2003-05-19T13:04:09Z</time>
<speed>0.6</speed>
</trkpt>
<trkpt lat="47.558769" lon="8.562314">
<ele>365.5</ele>
<time>2003-05-19T13:04:14Z</time>
<speed>0.8</speed>
</trkpt>
<trkpt lat="47.558698" lon="8.562237">
<ele>364.6</ele>
<time>2003-05-19T13:04:19Z</time>
<speed>0.8</speed>
</trkpt>
<trkpt lat="47.558644" lon="8.562190">
<ele>363.3</ele>
<time>2003-05-19T13:04:24Z</time>
<speed>0.8</speed>
</trkpt>
<trkpt lat="47.558585" lon="8.562125">
<ele>363.9</ele>
<time>2003-05-19T13:04:29Z</time>
<speed>0.8</speed>
</trkpt>
<trkpt lat="47.558518" lon="8.562074">
<ele>364.0</ele>
<time>2003-05-19T13:04:34Z</time>
<speed>1.1</speed>
</trkpt>
<trkpt lat="47.558455" lon="8.562064">
<ele>363.6</ele>
<time>2003-05-19T13:04:39Z</time>
<speed>0.8</speed>
</trkpt>
<trkpt lat="47.558400" lon="8.562028">
<ele>363.8</ele>
<time>2003-05-19T13:04:44Z</time>
<speed>0.6</speed>
</trkpt>
<trkpt lat="47.558334" lon="8.561963">
<ele>363.7</ele>
<time>2003-05-19T13:04:49Z</time>
<speed>1.1</speed>
</trkpt>
<trkpt lat="47.558293" lon="8.561903">
<ele>363.8</ele>
<time>2003-05-19T13:04:54Z</time>
<speed>0.8</speed>
</trkpt>
<trkpt lat="47.558264" lon="8.561858">
<ele>364.0</ele>
<time>2003-05-19T13:04:59Z</time>
<speed>0.8</speed>
</trkpt>
<trkpt lat="47.558208" lon="8.561833">
<ele>365.7</ele>
<time>2003-05-19T13:05:04Z</time>
<speed>0.8</speed>
</trkpt>
<trkpt lat="47.558162" lon="8.561759">
<ele>364.9</ele>
<time>2003-05-19T13:05:09Z</time>
<speed>1.4</speed>
</trkpt>
<trkpt lat="47.558110" lon="8.561681">
<ele>366.2</ele>
<time>2003-05-19T13:05:14Z</time>
<speed>0.6</speed>
</trkpt>
<trkpt lat="47.558055" lon="8.561645">
<ele>366.4</ele>
<time>2003-05-19T13:05:19Z</time>
<speed>0.8</speed>
</trkpt>
<trkpt lat="47.558006" lon="8.561596">
<ele>367.2</ele>
<time>2003-05-19T13:05:24Z</time>
<speed>0.8</speed>
</trkpt>
<trkpt lat="47.557946" lon="8.561545">
<ele>367.9</ele>
<time>2003-05-19T13:05:29Z</time>
<speed>0.8</speed>
</trkpt>
<trkpt lat="47.557885" lon="8.561493">
<ele>368.7</ele>
<time>2003-05-19T13:05:34Z</time>
<speed>0.6</speed>
</trkpt>
<trkpt lat="47.557850" lon="8.561446">
<ele>369.6</ele>
<time>2003-05-19T13:05:39Z</time>
<speed>0.6</speed>
</trkpt>
<trkpt lat="47.557808" lon="8.561414">
<ele>368.4</ele>
<time>2003-05-19T13:05:44Z</time>
<speed>0.8</speed>
</trkpt>
<trkpt lat="47.557752" lon="8.561376">
<ele>370.0</ele>
<time>2003-05-19T13:05:49Z</time>
<speed>0.6</speed>
</trkpt>
<trkpt lat="47.557667" lon="8.561322">
<ele>369.2</ele>
<time>2003-05-19T13:05:54Z</time>
<speed>0.8</speed>
</trkpt>
<trkpt lat="47.557607" lon="8.561260">
<ele>368.5</ele>
<time>2003-05-19T13:05:59Z</time>
<speed>0.8</speed>
</trkpt>
<trkpt lat="47.557535" lon="8.561209">
<ele>367.7</ele>
<time>2003-05-19T13:06:04Z</time>
<speed>0.8</speed>
</trkpt>
<trkpt lat="47.557485" lon="8.561188">
<ele>367.4</ele>
<time>2003-05-19T13:06:09Z</time>
<speed>0.6</speed>
</trkpt>
<trkpt lat="47.557431" lon="8.561138">
<ele>367.4</ele>
<time>2003-05-19T13:06:14Z</time>
<speed>0.8</speed>
</trkpt>
<trkpt lat="47.557350" lon="8.561098">
<ele>367.5</ele>
<time>2003-05-19T13:06:19Z</time>
<speed>0.8</speed>
</trkpt>
<trkpt lat="47.557257" lon="8.561056">
<ele>367.5</ele>
<time>2003-05-19T13:06:24Z</time>
<speed>1.1</speed>
</trkpt>
<trkpt lat="47.557185" lon="8.560990">
<ele>368.0</ele>
<time>2003-05-19T13:06:29Z</time>
<speed>1.1</speed>
</trkpt>
<trkpt lat="47.557117" lon="8.560952">
<ele>368.1</ele>
<time>2003-05-19T13:06:34Z</time>
<speed>1.1</speed>
</trkpt>
<trkpt lat="47.557050" lon="8.560913">
<ele>368.3</ele>
<time>2003-05-19T13:06:39Z</time>
<speed>0.8</speed>
</trkpt>
<trkpt lat="47.556996" lon="8.560864">
<ele>368.3</ele>
<time>2003-05-19T13:06:44Z</time>
<speed>0.6</speed>
</trkpt>
<trkpt lat="47.556915" lon="8.560824">
<ele>368.4</ele>
<time>2003-05-19T13:06:49Z</time>
<speed>1.1</speed>
</trkpt>
<trkpt lat="47.556841" lon="8.560786">
<ele>367.8</ele>
<time>2003-05-19T13:06:54Z</time>
<speed>1.1</speed>
</trkpt>
<trkpt lat="47.556774" lon="8.560748">
<ele>367.9</ele>
<time>2003-05-19T13:06:59Z</time>
<speed>0.8</speed>
</trkpt>
<trkpt lat="47.556713" lon="8.560698">
<ele>367.2</ele>
<time>2003-05-19T13:07:04Z</time>
<speed>1.1</speed>
</trkpt>
<trkpt lat="47.556666" lon="8.560651">
<ele>366.6</ele>
<time>2003-05-19T13:07:09Z</time>
<speed>0.8</speed>
</trkpt>
<trkpt lat="47.556612" lon="8.560604">
<ele>365.3</ele>
<time>2003-05-19T13:07:14Z</time>
<speed>1.1</speed>
</trkpt>
<trkpt lat="47.556558" lon="8.560554">
<ele>365.4</ele>
<time>2003-05-19T13:07:19Z</time>
<speed>0.8</speed>
</trkpt>
<trkpt lat="47.556500" lon="8.560479">
<ele>364.5</ele>
<time>2003-05-19T13:07:24Z</time>
<speed>1.1</speed>
</trkpt>
<trkpt lat="47.556433" lon="8.560428">
<ele>364.6</ele>
<time>2003-05-19T13:07:29Z</time>
<speed>1.4</speed>
</trkpt>
<trkpt lat="47.556357" lon="8.560416">
<ele>364.1</ele>
<time>2003-05-19T13:07:34Z</time>
<speed>1.1</speed>
</trkpt>
<trkpt lat="47.556303" lon="8.560366">
<ele>364.2</ele>
<time>2003-05-19T13:07:39Z</time>
<speed>1.1</speed>
</trkpt>
<trkpt lat="47.556242" lon="8.560330">
<ele>363.7</ele>
<time>2003-05-19T13:07:44Z</time>
<speed>0.8</speed>
</trkpt>
<trkpt lat="47.556205" lon="8.560311">
<ele>363.3</ele>
<time>2003-05-19T13:07:49Z</time>
<speed>0.6</speed>
</trkpt>
<trkpt lat="47.556161" lon="8.560305">
<ele>362.4</ele>
<time>2003-05-19T13:07:54Z</time>
<speed>0.6</speed>
</trkpt>
<trkpt lat="47.556117" lon="8.560299">
<ele>361.4</ele>
<time>2003-05-19T13:07:59Z</time>
<speed>0.8</speed>
</trkpt>
<trkpt lat="47.556066" lon="8.560305">
<ele>361.3</ele>
<time>2003-05-19T13:08:04Z</time>
<speed>0.8</speed>
</trkpt>
<trkpt lat="47.556028" lon="8.560299">
<ele>361.1</ele>
<time>2003-05-19T13:08:09Z</time>
<speed>0.0</speed>
</trkpt>
<trkpt lat="47.556028" lon="8.560299">
<ele>361.1</ele>
<time>2003-05-19T13:08:14Z</time>
<speed>0.0</speed>
</trkpt>
<trkpt lat="47.556027" lon="8.560312">
<ele>361.2</ele>
<time>2003-05-19T13:08:19Z</time>
<speed>0.0</speed>
</trkpt>
<trkpt lat="47.556028" lon="8.560299">
<ele>361.1</ele>
<time>2003-05-19T13:08:24Z</time>
<speed>0.0</speed>
</trkpt>
<trkpt lat="47.556032" lon="8.560327">
<ele>360.6</ele>
<time>2003-05-19T13:08:29Z</time>
<speed>0.0</speed>
</trkpt>
<trkpt lat="47.556025" lon="8.560338">
<ele>361.4</ele>
<time>2003-05-19T13:08:34Z</time>
<speed>0.0</speed>
</trkpt>
<trkpt lat="47.556024" lon="8.560351">
<ele>361.5</ele>
<time>2003-05-19T13:08:39Z</time>
<speed>0.3</speed>
</trkpt>
<trkpt lat="47.555993" lon="8.560334">
<ele>360.5</ele>
<time>2003-05-19T13:08:44Z</time>
<speed>0.8</speed>
</trkpt>
<trkpt lat="47.555933" lon="8.560300">
<ele>358.5</ele>
<time>2003-05-19T13:08:49Z</time>
<speed>0.8</speed>
</trkpt>
<trkpt lat="47.555880" lon="8.560237">
<ele>358.5</ele>
<time>2003-05-19T13:08:54Z</time>
<speed>1.1</speed>
</trkpt>
<trkpt lat="47.555828" lon="8.560164">
<ele>357.0</ele>
<time>2003-05-19T13:08:59Z</time>
<speed>0.8</speed>
</trkpt>
<trkpt lat="47.555771" lon="8.560077">
<ele>354.6</ele>
<time>2003-05-19T13:09:04Z</time>
<speed>1.1</speed>
</trkpt>
<trkpt lat="47.555705" lon="8.560028">
<ele>353.2</ele>
<time>2003-05-19T13:09:09Z</time>
<speed>0.8</speed>
</trkpt>
<trkpt lat="47.555641" lon="8.559952">
<ele>351.6</ele>
<time>2003-05-19T13:09:14Z</time>
<speed>0.8</speed>
</trkpt>
<trkpt lat="47.555580" lon="8.559903">
<ele>351.0</ele>
<time>2003-05-19T13:09:19Z</time>
<speed>0.8</speed>
</trkpt>
<trkpt lat="47.555513" lon="8.559867">
<ele>349.7</ele>
<time>2003-05-19T13:09:24Z</time>
<speed>0.8</speed>
</trkpt>
<trkpt lat="47.555447" lon="8.559818">
<ele>348.3</ele>
<time>2003-05-19T13:09:29Z</time>
<speed>1.1</speed>
</trkpt>
<trkpt lat="47.555368" lon="8.559766">
<ele>346.8</ele>
<time>2003-05-19T13:09:34Z</time>
<speed>1.1</speed>
</trkpt>
<trkpt lat="47.555293" lon="8.559741">
<ele>346.3</ele>
<time>2003-05-19T13:09:39Z</time>
<speed>1.1</speed>
</trkpt>
<trkpt lat="47.555231" lon="8.559703">
<ele>347.2</ele>
<time>2003-05-19T13:09:44Z</time>
<speed>0.8</speed>
</trkpt>
<trkpt lat="47.555175" lon="8.559680">
<ele>347.4</ele>
<time>2003-05-19T13:09:49Z</time>
<speed>0.8</speed>
</trkpt>
<trkpt lat="47.555102" lon="8.559627">
<ele>348.1</ele>
<time>2003-05-19T13:09:54Z</time>
<speed>0.8</speed>
</trkpt>
<trkpt lat="47.555040" lon="8.559604">
<ele>347.7</ele>
<time>2003-05-19T13:09:59Z</time>
<speed>1.1</speed>
</trkpt>
<trkpt lat="47.554980" lon="8.559539">
<ele>348.3</ele>
<time>2003-05-19T13:10:04Z</time>
<speed>1.1</speed>
</trkpt>
<trkpt lat="47.554906" lon="8.559499">
<ele>349.1</ele>
<time>2003-05-19T13:10:09Z</time>
<speed>1.1</speed>
</trkpt>
<trkpt lat="47.554846" lon="8.559450">
<ele>348.4</ele>
<time>2003-05-19T13:10:14Z</time>
<speed>1.1</speed>
</trkpt>
<trkpt lat="47.554778" lon="8.559412">
<ele>348.6</ele>
<time>2003-05-19T13:10:19Z</time>
<speed>1.1</speed>
</trkpt>
<trkpt lat="47.554743" lon="8.559366">
<ele>348.1</ele>
<time>2003-05-19T13:10:24Z</time>
<speed>0.8</speed>
</trkpt>
<trkpt lat="47.554726" lon="8.559336">
<ele>348.4</ele>
<time>2003-05-19T13:10:29Z</time>
<speed>0.0</speed>
</trkpt>
<trkpt lat="47.554693" lon="8.559328">
<ele>350.4</ele>
<time>2003-05-19T13:10:34Z</time>
<speed>0.6</speed>
</trkpt>
<trkpt lat="47.554661" lon="8.559336">
<ele>351.0</ele>
<time>2003-05-19T13:10:39Z</time>
<speed>0.6</speed>
</trkpt>
<trkpt lat="47.554636" lon="8.559318">
<ele>350.8</ele>
<time>2003-05-19T13:10:44Z</time>
<speed>0.3</speed>
</trkpt>
<trkpt lat="47.554613" lon="8.559288">
<ele>350.4</ele>
<time>2003-05-19T13:10:49Z</time>
<speed>0.3</speed>
</trkpt>
<trkpt lat="47.554571" lon="8.559239">
<ele>352.0</ele>
<time>2003-05-19T13:10:54Z</time>
<speed>0.6</speed>
</trkpt>
<trkpt lat="47.554523" lon="8.559192">
<ele>351.4</ele>
<time>2003-05-19T13:10:59Z</time>
<speed>0.6</speed>
</trkpt>
<trkpt lat="47.554499" lon="8.559174">
<ele>351.2</ele>
<time>2003-05-19T13:11:04Z</time>
<speed>0.6</speed>
</trkpt>
<trkpt lat="47.554464" lon="8.559129">
<ele>350.6</ele>
<time>2003-05-19T13:11:09Z</time>
<speed>0.6</speed>
</trkpt>
<trkpt lat="47.554430" lon="8.559069">
<ele>351.4</ele>
<time>2003-05-19T13:11:14Z</time>
<speed>0.3</speed>
</trkpt>
<trkpt lat="47.554386" lon="8.559048">
<ele>351.8</ele>
<time>2003-05-19T13:11:19Z</time>
<speed>0.6</speed>
</trkpt>
<trkpt lat="47.554357" lon="8.559000">
<ele>353.4</ele>
<time>2003-05-19T13:11:24Z</time>
<speed>0.3</speed>
</trkpt>
<trkpt lat="47.554342" lon="8.558944">
<ele>353.6</ele>
<time>2003-05-19T13:11:29Z</time>
<speed>0.3</speed>
</trkpt>
<trkpt lat="47.554325" lon="8.558914">
<ele>354.0</ele>
<time>2003-05-19T13:11:34Z</time>
<speed>0.3</speed>
</trkpt>
<trkpt lat="47.554305" lon="8.558910">
<ele>354.6</ele>
<time>2003-05-19T13:11:39Z</time>
<speed>0.6</speed>
</trkpt>
<trkpt lat="47.554300" lon="8.558895">
<ele>355.2</ele>
<time>2003-05-19T13:11:44Z</time>
<speed>0.3</speed>
</trkpt>
<trkpt lat="47.554262" lon="8.558810">
<ele>353.6</ele>
<time>2003-05-19T13:11:49Z</time>
<speed>0.6</speed>
</trkpt>
<trkpt lat="47.554211" lon="8.558723">
<ele>352.0</ele>
<time>2003-05-19T13:11:54Z</time>
<speed>0.6</speed>
</trkpt>
<trkpt lat="47.554173" lon="8.558717">
<ele>351.8</ele>
<time>2003-05-19T13:11:59Z</time>
<speed>0.6</speed>
</trkpt>
<trkpt lat="47.554169" lon="8.558689">
<ele>352.3</ele>
<time>2003-05-19T13:12:04Z</time>
<speed>0.3</speed>
</trkpt>
<trkpt lat="47.554152" lon="8.558645">
<ele>352.6</ele>
<time>2003-05-19T13:12:09Z</time>
<speed>0.3</speed>
</trkpt>
<trkpt lat="47.554149" lon="8.558589">
<ele>354.2</ele>
<time>2003-05-19T13:12:14Z</time>
<speed>0.6</speed>
</trkpt>
<trkpt lat="47.554140" lon="8.558532">
<ele>355.2</ele>
<time>2003-05-19T13:12:19Z</time>
<speed>0.6</speed>
</trkpt>
<trkpt lat="47.554135" lon="8.558504">
<ele>355.6</ele>
<time>2003-05-19T13:12:24Z</time>
<speed>0.0</speed>
</trkpt>
<trkpt lat="47.554110" lon="8.558498">
<ele>356.9</ele>
<time>2003-05-19T13:12:29Z</time>
<speed>0.3</speed>
</trkpt>
<trkpt lat="47.554074" lon="8.558451">
<ele>357.8</ele>
<time>2003-05-19T13:12:34Z</time>
<speed>0.3</speed>
</trkpt>
<trkpt lat="47.554015" lon="8.558371">
<ele>359.7</ele>
<time>2003-05-19T13:12:39Z</time>
<speed>0.6</speed>
</trkpt>
<trkpt lat="47.554025" lon="8.558317">
<ele>361.5</ele>
<time>2003-05-19T13:12:44Z</time>
<speed>0.3</speed>
</trkpt>
<trkpt lat="47.554001" lon="8.558285">
<ele>362.5</ele>
<time>2003-05-19T13:12:49Z</time>
<speed>0.6</speed>
</trkpt>
<trkpt lat="47.553979" lon="8.558228">
<ele>362.0</ele>
<time>2003-05-19T13:12:54Z</time>
<speed>0.6</speed>
</trkpt>
<trkpt lat="47.553968" lon="8.558198">
<ele>363.1</ele>
<time>2003-05-19T13:12:59Z</time>
<speed>0.3</speed>
</trkpt>
<trkpt lat="47.553951" lon="8.558168">
<ele>363.5</ele>
<time>2003-05-19T13:13:04Z</time>
<speed>0.3</speed>
</trkpt>
<trkpt lat="47.553923" lon="8.558109">
<ele>363.6</ele>
<time>2003-05-19T13:13:09Z</time>
<speed>0.3</speed>
</trkpt>
<trkpt lat="47.553913" lon="8.558066">
<ele>364.7</ele>
<time>2003-05-19T13:13:14Z</time>
<speed>0.3</speed>
</trkpt>
<trkpt lat="47.553873" lon="8.558005">
<ele>364.7</ele>
<time>2003-05-19T13:13:19Z</time>
<speed>0.6</speed>
</trkpt>
<trkpt lat="47.553831" lon="8.557958">
<ele>364.9</ele>
<time>2003-05-19T13:13:24Z</time>
<speed>0.3</speed>
</trkpt>
<trkpt lat="47.553808" lon="8.557928">
<ele>364.5</ele>
<time>2003-05-19T13:13:29Z</time>
<speed>0.3</speed>
</trkpt>
<trkpt lat="47.553786" lon="8.557869">
<ele>365.4</ele>
<time>2003-05-19T13:13:34Z</time>
<speed>0.6</speed>
</trkpt>
<trkpt lat="47.553775" lon="8.557839">
<ele>366.5</ele>
<time>2003-05-19T13:13:39Z</time>
<speed>0.3</speed>
</trkpt>
<trkpt lat="47.553777" lon="8.557798">
<ele>367.6</ele>
<time>2003-05-19T13:13:44Z</time>
<speed>0.3</speed>
</trkpt>
<trkpt lat="47.553766" lon="8.557783">
<ele>367.5</ele>
<time>2003-05-19T13:13:49Z</time>
<speed>0.3</speed>
</trkpt>
<trkpt lat="47.553776" lon="8.557730">
<ele>367.8</ele>
<time>2003-05-19T13:13:54Z</time>
<speed>0.3</speed>
</trkpt>
<trkpt lat="47.553759" lon="8.557687">
<ele>368.1</ele>
<time>2003-05-19T13:13:59Z</time>
<speed>0.3</speed>
</trkpt>
<trkpt lat="47.553748" lon="8.557657">
<ele>369.2</ele>
<time>2003-05-19T13:14:04Z</time>
<speed>0.0</speed>
</trkpt>
<trkpt lat="47.553747" lon="8.557589">
<ele>369.4</ele>
<time>2003-05-19T13:14:09Z</time>
<speed>0.6</speed>
</trkpt>
<trkpt lat="47.553737" lon="8.557532">
<ele>370.3</ele>
<time>2003-05-19T13:14:14Z</time>
<speed>0.3</speed>
</trkpt>
<trkpt lat="47.553742" lon="8.557465">
<ele>371.2</ele>
<time>2003-05-19T13:14:19Z</time>
<speed>0.6</speed>
</trkpt>
<trkpt lat="47.553740" lon="8.557397">
<ele>371.4</ele>
<time>2003-05-19T13:14:24Z</time>
<speed>0.3</speed>
</trkpt>
<trkpt lat="47.553743" lon="8.557358">
<ele>371.1</ele>
<time>2003-05-19T13:14:29Z</time>
<speed>0.3</speed>
</trkpt>
<trkpt lat="47.553739" lon="8.557329">
<ele>371.6</ele>
<time>2003-05-19T13:14:34Z</time>
<speed>0.0</speed>
</trkpt>
<trkpt lat="47.553752" lon="8.557316">
<ele>373.0</ele>
<time>2003-05-19T13:14:39Z</time>
<speed>0.0</speed>
</trkpt>
<trkpt lat="47.553742" lon="8.557354">
<ele>373.9</ele>
<time>2003-05-19T13:14:44Z</time>
<speed>0.3</speed>
</trkpt>
<trkpt lat="47.553745" lon="8.557393">
<ele>375.0</ele>
<time>2003-05-19T13:14:49Z</time>
<speed>0.6</speed>
</trkpt>
<trkpt lat="47.553757" lon="8.557406">
<ele>376.5</ele>
<time>2003-05-19T13:14:54Z</time>
<speed>0.3</speed>
</trkpt>
<trkpt lat="47.553749" lon="8.557417">
<ele>377.3</ele>
<time>2003-05-19T13:14:59Z</time>
<speed>0.3</speed>
</trkpt>
<trkpt lat="47.553739" lon="8.557455">
<ele>378.3</ele>
<time>2003-05-19T13:15:04Z</time>
<speed>0.6</speed>
</trkpt>
<trkpt lat="47.553750" lon="8.557481">
<ele>379.9</ele>
<time>2003-05-19T13:15:09Z</time>
<speed>0.3</speed>
</trkpt>
<trkpt lat="47.553761" lon="8.557494">
<ele>381.5</ele>
<time>2003-05-19T13:15:14Z</time>
<speed>0.3</speed>
</trkpt>
<trkpt lat="47.553772" lon="8.557509">
<ele>381.7</ele>
<time>2003-05-19T13:15:19Z</time>
<speed>0.0</speed>
</trkpt>
<trkpt lat="47.553783" lon="8.557536">
<ele>383.4</ele>
<time>2003-05-19T13:15:24Z</time>
<speed>0.3</speed>
</trkpt>
<trkpt lat="47.553814" lon="8.557540">
<ele>384.3</ele>
<time>2003-05-19T13:15:29Z</time>
<speed>0.6</speed>
</trkpt>
<trkpt lat="47.553856" lon="8.557555">
<ele>388.1</ele>
<time>2003-05-19T13:15:34Z</time>
<speed>0.6</speed>
</trkpt>
<trkpt lat="47.553871" lon="8.557513">
<ele>390.7</ele>
<time>2003-05-19T13:15:39Z</time>
<speed>0.8</speed>
</trkpt>
<trkpt lat="47.553864" lon="8.557432">
<ele>390.0</ele>
<time>2003-05-19T13:15:44Z</time>
<speed>0.8</speed>
</trkpt>
<trkpt lat="47.553838" lon="8.557333">
<ele>391.2</ele>
<time>2003-05-19T13:15:49Z</time>
<speed>1.4</speed>
</trkpt>
<trkpt lat="47.553826" lon="8.557235">
<ele>392.5</ele>
<time>2003-05-19T13:15:54Z</time>
<speed>1.1</speed>
</trkpt>
<trkpt lat="47.553808" lon="8.557124">
<ele>393.0</ele>
<time>2003-05-19T13:15:59Z</time>
<speed>1.4</speed>
</trkpt>
<trkpt lat="47.553795" lon="8.557026">
<ele>394.3</ele>
<time>2003-05-19T13:16:04Z</time>
<speed>1.4</speed>
</trkpt>
<trkpt lat="47.553783" lon="8.556930">
<ele>394.2</ele>
<time>2003-05-19T13:16:09Z</time>
<speed>1.4</speed>
</trkpt>
<trkpt lat="47.553771" lon="8.556821">
<ele>394.0</ele>
<time>2003-05-19T13:16:14Z</time>
<speed>1.4</speed>
</trkpt>
<trkpt lat="47.553783" lon="8.556742">
<ele>394.1</ele>
<time>2003-05-19T13:16:19Z</time>
<speed>1.1</speed>
</trkpt>
<trkpt lat="47.553796" lon="8.556650">
<ele>394.2</ele>
<time>2003-05-19T13:16:24Z</time>
<speed>1.4</speed>
</trkpt>
<trkpt lat="47.553829" lon="8.556547">
<ele>394.9</ele>
<time>2003-05-19T13:16:29Z</time>
<speed>1.4</speed>
</trkpt>
<trkpt lat="47.553860" lon="8.556472">
<ele>394.4</ele>
<time>2003-05-19T13:16:34Z</time>
<speed>1.1</speed>
</trkpt>
<trkpt lat="47.553905" lon="8.556386">
<ele>394.0</ele>
<time>2003-05-19T13:16:39Z</time>
<speed>1.4</speed>
</trkpt>
<trkpt lat="47.553947" lon="8.556324">
<ele>395.1</ele>
<time>2003-05-19T13:16:44Z</time>
<speed>1.1</speed>
</trkpt>
<trkpt lat="47.553990" lon="8.556265">
<ele>394.8</ele>
<time>2003-05-19T13:16:49Z</time>
<speed>1.1</speed>
</trkpt>
<trkpt lat="47.554046" lon="8.556207">
<ele>394.6</ele>
<time>2003-05-19T13:16:54Z</time>
<speed>1.1</speed>
</trkpt>
<trkpt lat="47.554108" lon="8.556136">
<ele>395.0</ele>
<time>2003-05-19T13:16:59Z</time>
<speed>1.4</speed>
</trkpt>
<trkpt lat="47.554156" lon="8.556089">
<ele>395.5</ele>
<time>2003-05-19T13:17:04Z</time>
<speed>1.4</speed>
</trkpt>
<trkpt lat="47.554212" lon="8.556031">
<ele>395.3</ele>
<time>2003-05-19T13:17:09Z</time>
<speed>1.4</speed>
</trkpt>
<trkpt lat="47.554267" lon="8.555974">
<ele>395.1</ele>
<time>2003-05-19T13:17:14Z</time>
<speed>1.4</speed>
</trkpt>
<trkpt lat="47.554317" lon="8.555901">
<ele>395.4</ele>
<time>2003-05-19T13:17:19Z</time>
<speed>1.4</speed>
</trkpt>
<trkpt lat="47.554379" lon="8.555843">
<ele>396.0</ele>
<time>2003-05-19T13:17:24Z</time>
<speed>0.8</speed>
</trkpt>
<trkpt lat="47.554440" lon="8.555785">
<ele>396.5</ele>
<time>2003-05-19T13:17:29Z</time>
<speed>1.4</speed>
</trkpt>
<trkpt lat="47.554483" lon="8.555725">
<ele>396.2</ele>
<time>2003-05-19T13:17:34Z</time>
<speed>1.4</speed>
</trkpt>
<trkpt lat="47.554532" lon="8.555668">
<ele>395.2</ele>
<time>2003-05-19T13:17:39Z</time>
<speed>1.1</speed>
</trkpt>
<trkpt lat="47.554575" lon="8.555608">
<ele>394.9</ele>
<time>2003-05-19T13:17:44Z</time>
<speed>1.1</speed>
</trkpt>
<trkpt lat="47.554631" lon="8.555550">
<ele>394.7</ele>
<time>2003-05-19T13:17:49Z</time>
<speed>1.1</speed>
</trkpt>
<trkpt lat="47.554660" lon="8.555502">
<ele>394.4</ele>
<time>2003-05-19T13:17:54Z</time>
<speed>0.0</speed>
</trkpt>
<trkpt lat="47.554708" lon="8.555455">
<ele>395.0</ele>
<time>2003-05-19T13:17:59Z</time>
<speed>1.1</speed>
</trkpt>
<trkpt lat="47.554756" lon="8.555410">
<ele>394.1</ele>
<time>2003-05-19T13:18:04Z</time>
<speed>0.8</speed>
</trkpt>
<trkpt lat="47.554800" lon="8.555322">
<ele>395.1</ele>
<time>2003-05-19T13:18:09Z</time>
<speed>1.1</speed>
</trkpt>
<trkpt lat="47.554829" lon="8.555287">
<ele>394.9</ele>
<time>2003-05-19T13:18:14Z</time>
<speed>0.8</speed>
</trkpt>
<trkpt lat="47.554893" lon="8.555205">
<ele>393.8</ele>
<time>2003-05-19T13:18:19Z</time>
<speed>1.1</speed>
</trkpt>
<trkpt lat="47.554951" lon="8.555107">
<ele>393.3</ele>
<time>2003-05-19T13:18:24Z</time>
<speed>1.1</speed>
</trkpt>
<trkpt lat="47.554995" lon="8.555035">
<ele>392.9</ele>
<time>2003-05-19T13:18:29Z</time>
<speed>1.1</speed>
</trkpt>
<trkpt lat="47.555050" lon="8.554977">
<ele>392.7</ele>
<time>2003-05-19T13:18:34Z</time>
<speed>1.4</speed>
</trkpt>
<trkpt lat="47.555108" lon="8.554893">
<ele>392.3</ele>
<time>2003-05-19T13:18:39Z</time>
<speed>1.4</speed>
</trkpt>
<trkpt lat="47.555157" lon="8.554833">
<ele>392.7</ele>
<time>2003-05-19T13:18:44Z</time>
<speed>1.1</speed>
</trkpt>
<trkpt lat="47.555218" lon="8.554775">
<ele>393.2</ele>
<time>2003-05-19T13:18:49Z</time>
<speed>1.7</speed>
</trkpt>
<trkpt lat="47.555275" lon="8.554704">
<ele>392.9</ele>
<time>2003-05-19T13:18:54Z</time>
<speed>1.4</speed>
</trkpt>
<trkpt lat="47.555324" lon="8.554645">
<ele>393.3</ele>
<time>2003-05-19T13:18:59Z</time>
<speed>1.4</speed>
</trkpt>
<trkpt lat="47.555380" lon="8.554574">
<ele>393.0</ele>
<time>2003-05-19T13:19:04Z</time>
<speed>1.1</speed>
</trkpt>
<trkpt lat="47.555422" lon="8.554527">
<ele>392.8</ele>
<time>2003-05-19T13:19:09Z</time>
<speed>0.8</speed>
</trkpt>
<trkpt lat="47.555476" lon="8.554482">
<ele>392.7</ele>
<time>2003-05-19T13:19:14Z</time>
<speed>1.1</speed>
</trkpt>
<trkpt lat="47.555531" lon="8.554438">
<ele>392.6</ele>
<time>2003-05-19T13:19:19Z</time>
<speed>1.1</speed>
</trkpt>
<trkpt lat="47.555598" lon="8.554395">
<ele>392.6</ele>
<time>2003-05-19T13:19:24Z</time>
<speed>1.4</speed>
</trkpt>
<trkpt lat="47.555660" lon="8.554337">
<ele>393.1</ele>
<time>2003-05-19T13:19:29Z</time>
<speed>1.1</speed>
</trkpt>
<trkpt lat="47.555720" lon="8.554293">
<ele>393.7</ele>
<time>2003-05-19T13:19:34Z</time>
<speed>1.1</speed>
</trkpt>
<trkpt lat="47.555781" lon="8.554250">
<ele>392.9</ele>
<time>2003-05-19T13:19:39Z</time>
<speed>1.1</speed>
</trkpt>
<trkpt lat="47.555843" lon="8.554192">
<ele>393.4</ele>
<time>2003-05-19T13:19:44Z</time>
<speed>1.4</speed>
</trkpt>
<trkpt lat="47.555911" lon="8.554136">
<ele>393.3</ele>
<time>2003-05-19T13:19:49Z</time>
<speed>1.4</speed>
</trkpt>
<trkpt lat="47.555965" lon="8.554092">
<ele>393.2</ele>
<time>2003-05-19T13:19:54Z</time>
<speed>1.1</speed>
</trkpt>
<trkpt lat="47.556032" lon="8.554049">
<ele>393.1</ele>
<time>2003-05-19T13:19:59Z</time>
<speed>1.4</speed>
</trkpt>
<trkpt lat="47.556088" lon="8.553991">
<ele>392.9</ele>
<time>2003-05-19T13:20:04Z</time>
<speed>1.4</speed>
</trkpt>
<trkpt lat="47.556142" lon="8.553947">
<ele>392.8</ele>
<time>2003-05-19T13:20:09Z</time>
<speed>1.4</speed>
</trkpt>
<trkpt lat="47.556196" lon="8.553915">
<ele>392.7</ele>
<time>2003-05-19T13:20:14Z</time>
<speed>1.1</speed>
</trkpt>
<trkpt lat="47.556251" lon="8.553857">
<ele>392.5</ele>
<time>2003-05-19T13:20:19Z</time>
<speed>1.1</speed>
</trkpt>
<trkpt lat="47.556319" lon="8.553801">
<ele>392.4</ele>
<time>2003-05-19T13:20:24Z</time>
<speed>1.1</speed>
</trkpt>
<trkpt lat="47.556381" lon="8.553744">
<ele>392.9</ele>
<time>2003-05-19T13:20:29Z</time>
<speed>1.1</speed>
</trkpt>
<trkpt lat="47.556440" lon="8.553712">
<ele>393.6</ele>
<time>2003-05-19T13:20:34Z</time>
<speed>1.1</speed>
</trkpt>
<trkpt lat="47.556495" lon="8.553668">
<ele>393.5</ele>
<time>2003-05-19T13:20:39Z</time>
<speed>0.8</speed>
</trkpt>
<trkpt lat="47.556556" lon="8.553610">
<ele>394.0</ele>
<time>2003-05-19T13:20:44Z</time>
<speed>1.4</speed>
</trkpt>
<trkpt lat="47.556617" lon="8.553565">
<ele>394.6</ele>
<time>2003-05-19T13:20:49Z</time>
<speed>0.8</speed>
</trkpt>
<trkpt lat="47.556684" lon="8.553520">
<ele>396.0</ele>
<time>2003-05-19T13:20:54Z</time>
<speed>1.4</speed>
</trkpt>
<trkpt lat="47.556751" lon="8.553478">
<ele>395.9</ele>
<time>2003-05-19T13:21:00Z</time>
<speed>1.1</speed>
</trkpt>
<trkpt lat="47.556811" lon="8.553433">
<ele>396.6</ele>
<time>2003-05-19T13:21:05Z</time>
<speed>1.1</speed>
</trkpt>
<trkpt lat="47.556867" lon="8.553375">
<ele>396.3</ele>
<time>2003-05-19T13:21:10Z</time>
<speed>1.1</speed>
</trkpt>
<trkpt lat="47.556928" lon="8.553333">
<ele>395.6</ele>
<time>2003-05-19T13:21:15Z</time>
<speed>1.1</speed>
</trkpt>
<trkpt lat="47.556982" lon="8.553288">
<ele>395.4</ele>
<time>2003-05-19T13:21:20Z</time>
<speed>1.4</speed>
</trkpt>
<trkpt lat="47.557049" lon="8.553245">
<ele>395.4</ele>
<time>2003-05-19T13:21:25Z</time>
<speed>0.8</speed>
</trkpt>
<trkpt lat="47.557110" lon="8.553203">
<ele>394.6</ele>
<time>2003-05-19T13:21:30Z</time>
<speed>1.1</speed>
</trkpt>
<trkpt lat="47.557165" lon="8.553158">
<ele>394.5</ele>
<time>2003-05-19T13:21:35Z</time>
<speed>1.1</speed>
</trkpt>
<trkpt lat="47.557231" lon="8.553128">
<ele>394.5</ele>
<time>2003-05-19T13:21:40Z</time>
<speed>1.1</speed>
</trkpt>
<trkpt lat="47.557292" lon="8.553084">
<ele>395.2</ele>
<time>2003-05-19T13:21:45Z</time>
<speed>1.4</speed>
</trkpt>
<trkpt lat="47.557359" lon="8.553041">
<ele>395.1</ele>
<time>2003-05-19T13:21:50Z</time>
<speed>1.1</speed>
</trkpt>
<trkpt lat="47.557426" lon="8.552998">
<ele>395.1</ele>
<time>2003-05-19T13:21:55Z</time>
<speed>1.1</speed>
</trkpt>
<trkpt lat="47.557491" lon="8.552982">
<ele>395.2</ele>
<time>2003-05-19T13:22:00Z</time>
<speed>1.1</speed>
</trkpt>
<trkpt lat="47.557542" lon="8.552977">
<ele>395.4</ele>
<time>2003-05-19T13:22:05Z</time>
<speed>1.1</speed>
</trkpt>
<trkpt lat="47.557608" lon="8.552960">
<ele>395.5</ele>
<time>2003-05-19T13:22:10Z</time>
<speed>1.1</speed>
</trkpt>
<trkpt lat="47.557684" lon="8.552959">
<ele>395.9</ele>
<time>2003-05-19T13:22:15Z</time>
<speed>1.4</speed>
</trkpt>
<trkpt lat="47.557749" lon="8.552956">
<ele>396.1</ele>
<time>2003-05-19T13:22:20Z</time>
<speed>0.8</speed>
</trkpt>
<trkpt lat="47.557813" lon="8.552955">
<ele>395.0</ele>
<time>2003-05-19T13:22:25Z</time>
<speed>0.8</speed>
</trkpt>
<trkpt lat="47.557878" lon="8.552938">
<ele>395.1</ele>
<time>2003-05-19T13:22:30Z</time>
<speed>1.1</speed>
</trkpt>
<trkpt lat="47.557950" lon="8.552924">
<ele>394.6</ele>
<time>2003-05-19T13:22:35Z</time>
<speed>1.4</speed>
</trkpt>
<trkpt lat="47.558015" lon="8.552907">
<ele>394.8</ele>
<time>2003-05-19T13:22:40Z</time>
<speed>1.4</speed>
</trkpt>
<trkpt lat="47.558099" lon="8.552893">
<ele>395.7</ele>
<time>2003-05-19T13:22:45Z</time>
<speed>1.4</speed>
</trkpt>
<trkpt lat="47.558170" lon="8.552877">
<ele>396.6</ele>
<time>2003-05-19T13:22:50Z</time>
<speed>1.1</speed>
</trkpt>
<trkpt lat="47.558240" lon="8.552888">
<ele>396.3</ele>
<time>2003-05-19T13:22:55Z</time>
<speed>1.4</speed>
</trkpt>
<trkpt lat="47.558309" lon="8.552898">
<ele>397.4</ele>
<time>2003-05-19T13:23:00Z</time>
<speed>1.1</speed>
</trkpt>
<trkpt lat="47.558375" lon="8.552884">
<ele>396.1</ele>
<time>2003-05-19T13:23:05Z</time>
<speed>1.1</speed>
</trkpt>
<trkpt lat="47.558452" lon="8.552883">
<ele>396.5</ele>
<time>2003-05-19T13:23:10Z</time>
<speed>1.4</speed>
</trkpt>
<trkpt lat="47.558523" lon="8.552866">
<ele>397.3</ele>
<time>2003-05-19T13:23:15Z</time>
<speed>1.4</speed>
</trkpt>
<trkpt lat="47.558594" lon="8.552852">
<ele>396.8</ele>
<time>2003-05-19T13:23:20Z</time>
<speed>1.4</speed>
</trkpt>
<trkpt lat="47.558660" lon="8.552835">
<ele>397.0</ele>
<time>2003-05-19T13:23:25Z</time>
<speed>1.1</speed>
</trkpt>
<trkpt lat="47.558723" lon="8.552845">
<ele>397.3</ele>
<time>2003-05-19T13:23:30Z</time>
<speed>1.1</speed>
</trkpt>
<trkpt lat="47.558788" lon="8.552829">
<ele>397.5</ele>
<time>2003-05-19T13:23:35Z</time>
<speed>1.1</speed>
</trkpt>
<trkpt lat="47.558866" lon="8.552814">
<ele>397.7</ele>
<time>2003-05-19T13:23:40Z</time>
<speed>1.1</speed>
</trkpt>
<trkpt lat="47.558915" lon="8.552836">
<ele>398.1</ele>
<time>2003-05-19T13:23:45Z</time>
<speed>1.1</speed>
</trkpt>
<trkpt lat="47.558986" lon="8.552834">
<ele>397.7</ele>
<time>2003-05-19T13:23:50Z</time>
<speed>1.4</speed>
</trkpt>
<trkpt lat="47.559063" lon="8.552833">
<ele>398.0</ele>
<time>2003-05-19T13:23:55Z</time>
<speed>1.4</speed>
</trkpt>
<trkpt lat="47.559140" lon="8.552832">
<ele>398.3</ele>
<time>2003-05-19T13:24:00Z</time>
<speed>1.4</speed>
</trkpt>
<trkpt lat="47.559208" lon="8.552855">
<ele>399.5</ele>
<time>2003-05-19T13:24:05Z</time>
<speed>1.4</speed>
</trkpt>
<trkpt lat="47.559283" lon="8.552880">
<ele>400.0</ele>
<time>2003-05-19T13:24:10Z</time>
<speed>1.1</speed>
</trkpt>
<trkpt lat="47.559336" lon="8.552927">
<ele>401.4</ele>
<time>2003-05-19T13:24:15Z</time>
<speed>1.4</speed>
</trkpt>
<trkpt lat="47.559404" lon="8.552950">
<ele>402.6</ele>
<time>2003-05-19T13:24:20Z</time>
<speed>1.1</speed>
</trkpt>
<trkpt lat="47.559471" lon="8.552920">
<ele>402.6</ele>
<time>2003-05-19T13:24:25Z</time>
<speed>1.1</speed>
</trkpt>
<trkpt lat="47.559506" lon="8.552874">
<ele>401.7</ele>
<time>2003-05-19T13:24:30Z</time>
<speed>0.0</speed>
</trkpt>
<trkpt lat="47.559542" lon="8.552827">
<ele>400.8</ele>
<time>2003-05-19T13:24:35Z</time>
<speed>1.1</speed>
</trkpt>
<trkpt lat="47.559612" lon="8.552760">
<ele>399.1</ele>
<time>2003-05-19T13:24:40Z</time>
<speed>1.1</speed>
</trkpt>
<trkpt lat="47.559675" lon="8.552691">
<ele>398.1</ele>
<time>2003-05-19T13:24:45Z</time>
<speed>1.1</speed>
</trkpt>
<trkpt lat="47.559755" lon="8.552637">
<ele>398.0</ele>
<time>2003-05-19T13:24:50Z</time>
<speed>1.1</speed>
</trkpt>
<trkpt lat="47.559822" lon="8.552608">
<ele>398.1</ele>
<time>2003-05-19T13:24:55Z</time>
<speed>1.1</speed>
</trkpt>
<trkpt lat="47.559894" lon="8.552578">
<ele>398.9</ele>
<time>2003-05-19T13:25:00Z</time>
<speed>1.1</speed>
</trkpt>
<trkpt lat="47.559965" lon="8.552562">
<ele>399.8</ele>
<time>2003-05-19T13:25:05Z</time>
<speed>1.1</speed>
</trkpt>
<trkpt lat="47.560040" lon="8.552508">
<ele>398.9</ele>
<time>2003-05-19T13:25:10Z</time>
<speed>1.4</speed>
</trkpt>
<trkpt lat="47.560099" lon="8.552477">
<ele>399.7</ele>
<time>2003-05-19T13:25:15Z</time>
<speed>1.1</speed>
</trkpt>
<trkpt lat="47.560165" lon="8.552447">
<ele>399.7</ele>
<time>2003-05-19T13:25:20Z</time>
<speed>1.1</speed>
</trkpt>
<trkpt lat="47.560217" lon="8.552427">
<ele>401.2</ele>
<time>2003-05-19T13:25:25Z</time>
<speed>0.8</speed>
</trkpt>
<trkpt lat="47.560276" lon="8.552408">
<ele>402.0</ele>
<time>2003-05-19T13:25:30Z</time>
<speed>1.1</speed>
</trkpt>
<trkpt lat="47.560343" lon="8.552366">
<ele>402.0</ele>
<time>2003-05-19T13:25:35Z</time>
<speed>1.1</speed>
</trkpt>
<trkpt lat="47.560396" lon="8.552347">
<ele>402.1</ele>
<time>2003-05-19T13:25:40Z</time>
<speed>1.1</speed>
</trkpt>
<trkpt lat="47.560471" lon="8.552280">
<ele>401.1</ele>
<time>2003-05-19T13:25:45Z</time>
<speed>1.1</speed>
</trkpt>
<trkpt lat="47.560518" lon="8.552247">
<ele>401.8</ele>
<time>2003-05-19T13:25:50Z</time>
<speed>0.0</speed>
</trkpt>
<trkpt lat="47.560558" lon="8.552226">
<ele>401.8</ele>
<time>2003-05-19T13:25:55Z</time>
<speed>0.6</speed>
</trkpt>
<trkpt lat="47.560626" lon="8.552171">
<ele>401.7</ele>
<time>2003-05-19T13:26:00Z</time>
<speed>1.4</speed>
</trkpt>
<trkpt lat="47.560712" lon="8.552130">
<ele>402.4</ele>
<time>2003-05-19T13:26:05Z</time>
<speed>1.4</speed>
</trkpt>
<trkpt lat="47.560793" lon="8.552076">
<ele>402.3</ele>
<time>2003-05-19T13:26:10Z</time>
<speed>1.4</speed>
</trkpt>
<trkpt lat="47.560844" lon="8.552069">
<ele>403.9</ele>
<time>2003-05-19T13:26:15Z</time>
<speed>1.1</speed>
</trkpt>
<trkpt lat="47.560937" lon="8.552017">
<ele>403.9</ele>
<time>2003-05-19T13:26:20Z</time>
<speed>1.4</speed>
</trkpt>
<trkpt lat="47.561003" lon="8.551986">
<ele>405.4</ele>
<time>2003-05-19T13:26:25Z</time>
<speed>1.1</speed>
</trkpt>
<trkpt lat="47.561070" lon="8.551943">
<ele>405.3</ele>
<time>2003-05-19T13:26:30Z</time>
<speed>1.4</speed>
</trkpt>
<trkpt lat="47.561131" lon="8.551900">
<ele>404.5</ele>
<time>2003-05-19T13:26:35Z</time>
<speed>1.1</speed>
</trkpt>
<trkpt lat="47.561189" lon="8.551882">
<ele>405.4</ele>
<time>2003-05-19T13:26:40Z</time>
<speed>0.8</speed>
</trkpt>
<trkpt lat="47.561249" lon="8.551852">
<ele>404.7</ele>
<time>2003-05-19T13:26:45Z</time>
<speed>0.8</speed>
</trkpt>
<trkpt lat="47.561294" lon="8.551845">
<ele>405.5</ele>
<time>2003-05-19T13:26:50Z</time>
<speed>0.8</speed>
</trkpt>
<trkpt lat="47.561353" lon="8.551829">
<ele>404.9</ele>
<time>2003-05-19T13:26:55Z</time>
<speed>1.1</speed>
</trkpt>
<trkpt lat="47.561419" lon="8.551812">
<ele>405.1</ele>
<time>2003-05-19T13:27:00Z</time>
<speed>1.1</speed>
</trkpt>
<trkpt lat="47.561475" lon="8.551835">
<ele>404.8</ele>
<time>2003-05-19T13:27:05Z</time>
<speed>1.1</speed>
</trkpt>
<trkpt lat="47.561546" lon="8.551821">
<ele>404.3</ele>
<time>2003-05-19T13:27:10Z</time>
<speed>1.1</speed>
</trkpt>
<trkpt lat="47.561605" lon="8.551804">
<ele>403.7</ele>
<time>2003-05-19T13:27:15Z</time>
<speed>1.1</speed>
</trkpt>
<trkpt lat="47.561678" lon="8.551777">
<ele>403.1</ele>
<time>2003-05-19T13:27:20Z</time>
<speed>1.4</speed>
</trkpt>
<trkpt lat="47.561729" lon="8.551785">
<ele>403.4</ele>
<time>2003-05-19T13:27:25Z</time>
<speed>1.1</speed>
</trkpt>
<trkpt lat="47.561800" lon="8.551770">
<ele>402.9</ele>
<time>2003-05-19T13:27:30Z</time>
<speed>1.4</speed>
</trkpt>
<trkpt lat="47.561866" lon="8.551741">
<ele>402.9</ele>
<time>2003-05-19T13:27:35Z</time>
<speed>1.1</speed>
</trkpt>
<trkpt lat="47.561937" lon="8.551738">
<ele>403.9</ele>
<time>2003-05-19T13:27:40Z</time>
<speed>1.1</speed>
</trkpt>
<trkpt lat="47.562003" lon="8.551708">
<ele>404.0</ele>
<time>2003-05-19T13:27:45Z</time>
<speed>1.1</speed>
</trkpt>
<trkpt lat="47.562069" lon="8.551678">
<ele>404.0</ele>
<time>2003-05-19T13:27:50Z</time>
<speed>1.1</speed>
</trkpt>
<trkpt lat="47.562128" lon="8.551660">
<ele>404.8</ele>
<time>2003-05-19T13:27:55Z</time>
<speed>1.1</speed>
</trkpt>
<trkpt lat="47.562187" lon="8.551629">
<ele>405.6</ele>
<time>2003-05-19T13:28:00Z</time>
<speed>1.1</speed>
</trkpt>
<trkpt lat="47.562255" lon="8.551588">
<ele>404.1</ele>
<time>2003-05-19T13:28:05Z</time>
<speed>1.4</speed>
</trkpt>
<trkpt lat="47.562328" lon="8.551547">
<ele>403.4</ele>
<time>2003-05-19T13:28:10Z</time>
<speed>1.4</speed>
</trkpt>
<trkpt lat="47.562387" lon="8.551531">
<ele>402.8</ele>
<time>2003-05-19T13:28:15Z</time>
<speed>0.8</speed>
</trkpt>
<trkpt lat="47.562452" lon="8.551528">
<ele>403.1</ele>
<time>2003-05-19T13:28:20Z</time>
<speed>1.1</speed>
</trkpt>
<trkpt lat="47.562509" lon="8.551522">
<ele>404.0</ele>
<time>2003-05-19T13:28:25Z</time>
<speed>1.1</speed>
</trkpt>
<trkpt lat="47.562574" lon="8.551506">
<ele>404.1</ele>
<time>2003-05-19T13:28:30Z</time>
<speed>1.1</speed>
</trkpt>
<trkpt lat="47.562641" lon="8.551478">
<ele>402.8</ele>
<time>2003-05-19T13:28:35Z</time>
<speed>1.1</speed>
</trkpt>
<trkpt lat="47.562701" lon="8.551449">
<ele>402.1</ele>
<time>2003-05-19T13:28:40Z</time>
<speed>1.1</speed>
</trkpt>
<trkpt lat="47.562776" lon="8.551395">
<ele>401.3</ele>
<time>2003-05-19T13:28:45Z</time>
<speed>1.1</speed>
</trkpt>
<trkpt lat="47.562785" lon="8.551357">
<ele>400.3</ele>
<time>2003-05-19T13:28:50Z</time>
<speed>0.6</speed>
</trkpt>
<trkpt lat="47.562847" lon="8.551302">
<ele>399.4</ele>
<time>2003-05-19T13:28:55Z</time>
<speed>0.8</speed>
</trkpt>
<trkpt lat="47.562902" lon="8.551257">
<ele>399.3</ele>
<time>2003-05-19T13:29:00Z</time>
<speed>0.8</speed>
</trkpt>
<trkpt lat="47.562956" lon="8.551212">
<ele>399.2</ele>
<time>2003-05-19T13:29:05Z</time>
<speed>1.1</speed>
</trkpt>
<trkpt lat="47.563025" lon="8.551143">
<ele>398.9</ele>
<time>2003-05-19T13:29:10Z</time>
<speed>1.1</speed>
</trkpt>
<trkpt lat="47.563099" lon="8.551088">
<ele>399.5</ele>
<time>2003-05-19T13:29:15Z</time>
<speed>0.8</speed>
</trkpt>
<trkpt lat="47.563161" lon="8.551032">
<ele>398.6</ele>
<time>2003-05-19T13:29:20Z</time>
<speed>1.1</speed>
</trkpt>
<trkpt lat="47.563208" lon="8.550998">
<ele>399.3</ele>
<time>2003-05-19T13:29:25Z</time>
<speed>0.8</speed>
</trkpt>
<trkpt lat="47.563269" lon="8.550954">
<ele>399.9</ele>
<time>2003-05-19T13:29:30Z</time>
<speed>0.8</speed>
</trkpt>
<trkpt lat="47.563323" lon="8.550907">
<ele>401.2</ele>
<time>2003-05-19T13:29:35Z</time>
<speed>0.8</speed>
</trkpt>
<trkpt lat="47.563367" lon="8.550834">
<ele>400.8</ele>
<time>2003-05-19T13:29:40Z</time>
<speed>1.1</speed>
</trkpt>
<trkpt lat="47.563401" lon="8.550720">
<ele>400.0</ele>
<time>2003-05-19T13:29:45Z</time>
<speed>0.6</speed>
</trkpt>
<trkpt lat="47.563424" lon="8.550656">
<ele>400.4</ele>
<time>2003-05-19T13:29:50Z</time>
<speed>0.6</speed>
</trkpt>
<trkpt lat="47.563461" lon="8.550594">
<ele>400.7</ele>
<time>2003-05-19T13:29:55Z</time>
<speed>0.8</speed>
</trkpt>
<trkpt lat="47.563503" lon="8.550548">
<ele>400.5</ele>
<time>2003-05-19T13:30:00Z</time>
<speed>0.6</speed>
</trkpt>
<trkpt lat="47.563544" lon="8.550501">
<ele>400.4</ele>
<time>2003-05-19T13:30:05Z</time>
<speed>0.3</speed>
</trkpt>
<trkpt lat="47.563585" lon="8.550468">
<ele>400.3</ele>
<time>2003-05-19T13:30:10Z</time>
<speed>0.3</speed>
</trkpt>
<trkpt lat="47.563620" lon="8.550432">
<ele>400.8</ele>
<time>2003-05-19T13:30:15Z</time>
<speed>0.8</speed>
</trkpt>
<trkpt lat="47.563661" lon="8.550385">
<ele>400.7</ele>
<time>2003-05-19T13:30:20Z</time>
<speed>0.3</speed>
</trkpt>
<trkpt lat="47.563713" lon="8.550380">
<ele>400.8</ele>
<time>2003-05-19T13:30:25Z</time>
<speed>0.8</speed>
</trkpt>
<trkpt lat="47.563779" lon="8.550351">
<ele>400.9</ele>
<time>2003-05-19T13:30:30Z</time>
<speed>0.6</speed>
</trkpt>
<trkpt lat="47.563846" lon="8.550308">
<ele>400.8</ele>
<time>2003-05-19T13:30:35Z</time>
<speed>0.6</speed>
</trkpt>
<trkpt lat="47.563875" lon="8.550259">
<ele>400.6</ele>
<time>2003-05-19T13:30:40Z</time>
<speed>0.6</speed>
</trkpt>
<trkpt lat="47.563920" lon="8.550267">
<ele>400.1</ele>
<time>2003-05-19T13:30:45Z</time>
<speed>0.6</speed>
</trkpt>
<trkpt lat="47.563968" lon="8.550221">
<ele>400.7</ele>
<time>2003-05-19T13:30:50Z</time>
<speed>0.6</speed>
</trkpt>
<trkpt lat="47.563996" lon="8.550185">
<ele>400.5</ele>
<time>2003-05-19T13:30:55Z</time>
<speed>0.3</speed>
</trkpt>
<trkpt lat="47.564009" lon="8.550187">
<ele>400.6</ele>
<time>2003-05-19T13:31:00Z</time>
<speed>0.3</speed>
</trkpt>
<trkpt lat="47.564047" lon="8.550180">
<ele>400.7</ele>
<time>2003-05-19T13:31:05Z</time>
<speed>0.3</speed>
</trkpt>
<trkpt lat="47.564075" lon="8.550158">
<ele>400.6</ele>
<time>2003-05-19T13:31:10Z</time>
<speed>0.3</speed>
</trkpt>
<trkpt lat="47.564116" lon="8.550124">
<ele>400.6</ele>
<time>2003-05-19T13:31:15Z</time>
<speed>0.3</speed>
</trkpt>
<trkpt lat="47.564126" lon="8.550072">
<ele>400.9</ele>
<time>2003-05-19T13:31:20Z</time>
<speed>0.6</speed>
</trkpt>
<trkpt lat="47.564168" lon="8.550012">
<ele>400.6</ele>
<time>2003-05-19T13:31:25Z</time>
<speed>0.0</speed>
</trkpt>
<trkpt lat="47.564195" lon="8.550003">
<ele>400.6</ele>
<time>2003-05-19T13:31:30Z</time>
<speed>0.6</speed>
</trkpt>
<trkpt lat="47.564226" lon="8.550022">
<ele>400.2</ele>
<time>2003-05-19T13:31:35Z</time>
<speed>0.8</speed>
</trkpt>
<trkpt lat="47.564260" lon="8.549986">
<ele>400.8</ele>
<time>2003-05-19T13:31:40Z</time>
<speed>0.0</speed>
</trkpt>
<trkpt lat="47.564263" lon="8.549947">
<ele>400.5</ele>
<time>2003-05-19T13:31:45Z</time>
<speed>0.3</speed>
</trkpt>
<trkpt lat="47.564259" lon="8.549905">
<ele>400.9</ele>
<time>2003-05-19T13:31:50Z</time>
<speed>0.3</speed>
</trkpt>
<trkpt lat="47.564221" lon="8.549899">
<ele>400.6</ele>
<time>2003-05-19T13:31:55Z</time>
<speed>0.6</speed>
</trkpt>
<trkpt lat="47.564139" lon="8.549886">
<ele>400.9</ele>
<time>2003-05-19T13:32:00Z</time>
<speed>0.6</speed>
</trkpt>
<trkpt lat="47.564087" lon="8.549891">
<ele>400.7</ele>
<time>2003-05-19T13:32:05Z</time>
<speed>0.6</speed>
</trkpt>
<trkpt lat="47.564029" lon="8.549894">
<ele>401.2</ele>
<time>2003-05-19T13:32:10Z</time>
<speed>0.6</speed>
</trkpt>
<trkpt lat="47.563979" lon="8.549886">
<ele>400.9</ele>
<time>2003-05-19T13:32:15Z</time>
<speed>0.8</speed>
</trkpt>
<trkpt lat="47.563934" lon="8.549878">
<ele>401.4</ele>
<time>2003-05-19T13:32:20Z</time>
<speed>0.8</speed>
</trkpt>
<trkpt lat="47.563901" lon="8.549901">
<ele>400.7</ele>
<time>2003-05-19T13:32:25Z</time>
<speed>0.3</speed>
</trkpt>
<trkpt lat="47.563862" lon="8.549908">
<ele>400.6</ele>
<time>2003-05-19T13:32:30Z</time>
<speed>0.3</speed>
</trkpt>
<trkpt lat="47.563799" lon="8.549898">
<ele>400.2</ele>
<time>2003-05-19T13:32:35Z</time>
<speed>0.6</speed>
</trkpt>
<trkpt lat="47.563747" lon="8.549901">
<ele>401.4</ele>
<time>2003-05-19T13:32:40Z</time>
<speed>0.6</speed>
</trkpt>
<trkpt lat="47.563726" lon="8.549926">
<ele>400.8</ele>
<time>2003-05-19T13:32:45Z</time>
<speed>0.0</speed>
</trkpt>
<trkpt lat="47.563708" lon="8.549924">
<ele>400.0</ele>
<time>2003-05-19T13:32:50Z</time>
<speed>0.3</speed>
</trkpt>
<trkpt lat="47.563663" lon="8.549916">
<ele>400.5</ele>
<time>2003-05-19T13:32:55Z</time>
<speed>0.6</speed>
</trkpt>
<trkpt lat="47.563624" lon="8.549923">
<ele>400.4</ele>
<time>2003-05-19T13:33:00Z</time>
<speed>0.8</speed>
</trkpt>
<trkpt lat="47.563578" lon="8.549943">
<ele>399.6</ele>
<time>2003-05-19T13:33:05Z</time>
<speed>0.3</speed>
</trkpt>
<trkpt lat="47.563543" lon="8.549992">
<ele>399.1</ele>
<time>2003-05-19T13:33:10Z</time>
<speed>0.6</speed>
</trkpt>
<trkpt lat="47.563517" lon="8.550001">
<ele>399.1</ele>
<time>2003-05-19T13:33:15Z</time>
<speed>0.6</speed>
</trkpt>
<trkpt lat="47.563480" lon="8.549982">
<ele>398.8</ele>
<time>2003-05-19T13:33:20Z</time>
<speed>0.8</speed>
</trkpt>
<trkpt lat="47.563440" lon="8.550002">
<ele>398.8</ele>
<time>2003-05-19T13:33:25Z</time>
<speed>0.3</speed>
</trkpt>
<trkpt lat="47.563429" lon="8.549974">
<ele>398.5</ele>
<time>2003-05-19T13:33:30Z</time>
<speed>0.3</speed>
</trkpt>
<trkpt lat="47.563450" lon="8.549965">
<ele>397.8</ele>
<time>2003-05-19T13:33:35Z</time>
<speed>0.0</speed>
</trkpt>
<trkpt lat="47.563475" lon="8.549969">
<ele>397.9</ele>
<time>2003-05-19T13:33:40Z</time>
<speed>0.0</speed>
</trkpt>
<trkpt lat="47.563500" lon="8.549973">
<ele>398.1</ele>
<time>2003-05-19T13:33:45Z</time>
<speed>0.6</speed>
</trkpt>
<trkpt lat="47.563509" lon="8.549948">
<ele>397.2</ele>
<time>2003-05-19T13:33:50Z</time>
<speed>0.0</speed>
</trkpt>
<trkpt lat="47.563536" lon="8.549926">
<ele>397.2</ele>
<time>2003-05-19T13:33:55Z</time>
<speed>0.0</speed>
</trkpt>
<trkpt lat="47.563586" lon="8.549934">
<ele>397.4</ele>
<time>2003-05-19T13:34:00Z</time>
<speed>0.3</speed>
</trkpt>
<trkpt lat="47.563626" lon="8.549914">
<ele>397.5</ele>
<time>2003-05-19T13:34:05Z</time>
<speed>0.0</speed>
</trkpt>
<trkpt lat="47.563657" lon="8.549839">
<ele>397.0</ele>
<time>2003-05-19T13:34:10Z</time>
<speed>0.6</speed>
</trkpt>
<trkpt lat="47.563680" lon="8.549803">
<ele>396.1</ele>
<time>2003-05-19T13:34:15Z</time>
<speed>0.6</speed>
</trkpt>
<trkpt lat="47.563719" lon="8.549783">
<ele>396.1</ele>
<time>2003-05-19T13:34:20Z</time>
<speed>0.6</speed>
</trkpt>
<trkpt lat="47.563752" lon="8.549776">
<ele>395.5</ele>
<time>2003-05-19T13:34:25Z</time>
<speed>0.3</speed>
</trkpt>
<trkpt lat="47.563775" lon="8.549725">
<ele>395.9</ele>
<time>2003-05-19T13:34:30Z</time>
<speed>0.3</speed>
</trkpt>
<trkpt lat="47.563809" lon="8.549705">
<ele>395.2</ele>
<time>2003-05-19T13:34:35Z</time>
<speed>0.0</speed>
</trkpt>
<trkpt lat="47.563836" lon="8.549682">
<ele>395.1</ele>
<time>2003-05-19T13:34:40Z</time>
<speed>0.0</speed>
</trkpt>
<trkpt lat="47.563885" lon="8.549625">
<ele>394.2</ele>
<time>2003-05-19T13:34:45Z</time>
<speed>0.3</speed>
</trkpt>
<trkpt lat="47.563912" lon="8.549615">
<ele>394.2</ele>
<time>2003-05-19T13:34:50Z</time>
<speed>0.0</speed>
</trkpt>
<trkpt lat="47.563951" lon="8.549595">
<ele>394.2</ele>
<time>2003-05-19T13:34:55Z</time>
<speed>0.3</speed>
</trkpt>
<trkpt lat="47.564008" lon="8.549524">
<ele>393.9</ele>
<time>2003-05-19T13:35:00Z</time>
<speed>0.6</speed>
</trkpt>
<trkpt lat="47.564058" lon="8.549451">
<ele>394.2</ele>
<time>2003-05-19T13:35:05Z</time>
<speed>0.3</speed>
</trkpt>
<trkpt lat="47.564078" lon="8.549457">
<ele>392.2</ele>
<time>2003-05-19T13:35:10Z</time>
<speed>0.0</speed>
</trkpt>
<trkpt lat="47.564117" lon="8.549437">
<ele>392.2</ele>
<time>2003-05-19T13:35:15Z</time>
<speed>0.6</speed>
</trkpt>
<trkpt lat="47.564162" lon="8.549447">
<ele>390.4</ele>
<time>2003-05-19T13:35:20Z</time>
<speed>0.3</speed>
</trkpt>
<trkpt lat="47.564209" lon="8.549428">
<ele>389.7</ele>
<time>2003-05-19T13:35:25Z</time>
<speed>0.8</speed>
</trkpt>
<trkpt lat="47.564246" lon="8.549449">
<ele>388.6</ele>
<time>2003-05-19T13:35:30Z</time>
<speed>0.6</speed>
</trkpt>
<trkpt lat="47.564284" lon="8.549470">
<ele>387.5</ele>
<time>2003-05-19T13:35:35Z</time>
<speed>0.3</speed>
</trkpt>
<trkpt lat="47.564284" lon="8.549470">
<ele>387.5</ele>
<time>2003-05-19T13:35:40Z</time>
<speed>0.3</speed>
</trkpt>
<trkpt lat="47.564309" lon="8.549476">
<ele>386.3</ele>
<time>2003-05-19T13:35:45Z</time>
<speed>0.3</speed>
</trkpt>
<trkpt lat="47.564340" lon="8.549495">
<ele>385.9</ele>
<time>2003-05-19T13:35:50Z</time>
<speed>0.3</speed>
</trkpt>
<trkpt lat="47.564379" lon="8.549503">
<ele>384.7</ele>
<time>2003-05-19T13:35:55Z</time>
<speed>0.0</speed>
</trkpt>
<trkpt lat="47.564411" lon="8.549496">
<ele>384.0</ele>
<time>2003-05-19T13:36:00Z</time>
<speed>0.6</speed>
</trkpt>
<trkpt lat="47.564468" lon="8.549427">
<ele>382.3</ele>
<time>2003-05-19T13:36:05Z</time>
<speed>0.6</speed>
</trkpt>
<trkpt lat="47.564521" lon="8.549332">
<ele>379.6</ele>
<time>2003-05-19T13:36:10Z</time>
<speed>1.1</speed>
</trkpt>
<trkpt lat="47.564592" lon="8.549252">
<ele>377.9</ele>
<time>2003-05-19T13:36:15Z</time>
<speed>0.8</speed>
</trkpt>
<trkpt lat="47.564650" lon="8.549170">
<ele>376.1</ele>
<time>2003-05-19T13:36:20Z</time>
<speed>0.6</speed>
</trkpt>
<trkpt lat="47.564654" lon="8.549119">
<ele>374.3</ele>
<time>2003-05-19T13:36:25Z</time>
<speed>0.6</speed>
</trkpt>
<trkpt lat="47.564675" lon="8.549097">
<ele>373.5</ele>
<time>2003-05-19T13:36:30Z</time>
<speed>0.6</speed>
</trkpt>
<trkpt lat="47.564709" lon="8.549076">
<ele>372.7</ele>
<time>2003-05-19T13:36:35Z</time>
<speed>0.6</speed>
</trkpt>
<trkpt lat="47.564764" lon="8.549032">
<ele>372.6</ele>
<time>2003-05-19T13:36:40Z</time>
<speed>0.8</speed>
</trkpt>
<trkpt lat="47.564831" lon="8.548991">
<ele>371.2</ele>
<time>2003-05-19T13:36:45Z</time>
<speed>0.8</speed>
</trkpt>
<trkpt lat="47.564859" lon="8.548956">
<ele>371.0</ele>
<time>2003-05-19T13:36:50Z</time>
<speed>0.3</speed>
</trkpt>
<trkpt lat="47.564912" lon="8.548937">
<ele>371.1</ele>
<time>2003-05-19T13:36:55Z</time>
<speed>0.0</speed>
</trkpt>
<trkpt lat="47.564926" lon="8.548926">
<ele>371.1</ele>
<time>2003-05-19T13:37:00Z</time>
<speed>0.3</speed>
</trkpt>
<trkpt lat="47.564970" lon="8.548855">
<ele>369.3</ele>
<time>2003-05-19T13:37:05Z</time>
<speed>0.6</speed>
</trkpt>
<trkpt lat="47.565007" lon="8.548795">
<ele>368.2</ele>
<time>2003-05-19T13:37:10Z</time>
<speed>0.6</speed>
</trkpt>
<trkpt lat="47.565047" lon="8.548777">
<ele>366.8</ele>
<time>2003-05-19T13:37:15Z</time>
<speed>0.8</speed>
</trkpt>
<trkpt lat="47.565112" lon="8.548776">
<ele>365.7</ele>
<time>2003-05-19T13:37:20Z</time>
<speed>0.3</speed>
</trkpt>
<trkpt lat="47.565172" lon="8.548748">
<ele>363.6</ele>
<time>2003-05-19T13:37:25Z</time>
<speed>0.8</speed>
</trkpt>
<trkpt lat="47.565221" lon="8.548703">
<ele>362.7</ele>
<time>2003-05-19T13:37:30Z</time>
<speed>0.6</speed>
</trkpt>
<trkpt lat="47.565311" lon="8.548614">
<ele>360.3</ele>
<time>2003-05-19T13:37:35Z</time>
<speed>1.1</speed>
</trkpt>
<trkpt lat="47.565346" lon="8.548581">
<ele>359.5</ele>
<time>2003-05-19T13:37:40Z</time>
<speed>0.3</speed>
</trkpt>
<trkpt lat="47.565398" lon="8.548575">
<ele>359.7</ele>
<time>2003-05-19T13:37:45Z</time>
<speed>0.3</speed>
</trkpt>
<trkpt lat="47.565440" lon="8.548516">
<ele>359.4</ele>
<time>2003-05-19T13:37:50Z</time>
<speed>0.8</speed>
</trkpt>
<trkpt lat="47.565489" lon="8.548471">
<ele>358.5</ele>
<time>2003-05-19T13:37:55Z</time>
<speed>0.3</speed>
</trkpt>
<trkpt lat="47.565534" lon="8.548466">
<ele>358.0</ele>
<time>2003-05-19T13:38:00Z</time>
<speed>0.6</speed>
</trkpt>
<trkpt lat="47.565595" lon="8.548423">
<ele>357.2</ele>
<time>2003-05-19T13:38:05Z</time>
<speed>0.8</speed>
</trkpt>
<trkpt lat="47.565635" lon="8.548339">
<ele>354.5</ele>
<time>2003-05-19T13:38:10Z</time>
<speed>0.6</speed>
</trkpt>
<trkpt lat="47.565663" lon="8.548303">
<ele>354.4</ele>
<time>2003-05-19T13:38:15Z</time>
<speed>0.6</speed>
</trkpt>
<trkpt lat="47.565724" lon="8.548263">
<ele>352.2</ele>
<time>2003-05-19T13:38:20Z</time>
<speed>0.6</speed>
</trkpt>
<trkpt lat="47.565784" lon="8.548233">
<ele>351.5</ele>
<time>2003-05-19T13:38:25Z</time>
<speed>0.3</speed>
</trkpt>
<trkpt lat="47.565800" lon="8.548196">
<ele>351.3</ele>
<time>2003-05-19T13:38:30Z</time>
<speed>0.3</speed>
</trkpt>
<trkpt lat="47.565848" lon="8.548151">
<ele>350.4</ele>
<time>2003-05-19T13:38:35Z</time>
<speed>0.6</speed>
</trkpt>
<trkpt lat="47.565909" lon="8.548123">
<ele>348.3</ele>
<time>2003-05-19T13:38:40Z</time>
<speed>0.8</speed>
</trkpt>
<trkpt lat="47.565956" lon="8.548092">
<ele>347.6</ele>
<time>2003-05-19T13:38:45Z</time>
<speed>0.0</speed>
</trkpt>
<trkpt lat="47.565979" lon="8.548041">
<ele>348.0</ele>
<time>2003-05-19T13:38:50Z</time>
<speed>0.8</speed>
</trkpt>
<trkpt lat="47.566027" lon="8.547997">
<ele>347.1</ele>
<time>2003-05-19T13:38:55Z</time>
<speed>0.6</speed>
</trkpt>
<trkpt lat="47.566088" lon="8.547954">
<ele>346.3</ele>
<time>2003-05-19T13:39:00Z</time>
<speed>0.3</speed>
</trkpt>
<trkpt lat="47.566118" lon="8.547905">
<ele>346.1</ele>
<time>2003-05-19T13:39:05Z</time>
<speed>0.3</speed>
</trkpt>
<trkpt lat="47.566156" lon="8.547896">
<ele>347.6</ele>
<time>2003-05-19T13:39:10Z</time>
<speed>0.3</speed>
</trkpt>
<trkpt lat="47.566214" lon="8.547893">
<ele>347.1</ele>
<time>2003-05-19T13:39:15Z</time>
<speed>0.6</speed>
</trkpt>
<trkpt lat="47.566273" lon="8.547877">
<ele>346.5</ele>
<time>2003-05-19T13:39:20Z</time>
<speed>0.8</speed>
</trkpt>
<trkpt lat="47.566321" lon="8.547845">
<ele>345.8</ele>
<time>2003-05-19T13:39:25Z</time>
<speed>0.6</speed>
</trkpt>
<trkpt lat="47.566378" lon="8.547840">
<ele>346.7</ele>
<time>2003-05-19T13:39:30Z</time>
<speed>0.6</speed>
</trkpt>
<trkpt lat="47.566440" lon="8.547861">
<ele>348.5</ele>
<time>2003-05-19T13:39:35Z</time>
<speed>0.8</speed>
</trkpt>
<trkpt lat="47.566485" lon="8.547856">
<ele>348.0</ele>
<time>2003-05-19T13:39:40Z</time>
<speed>0.6</speed>
</trkpt>
<trkpt lat="47.566552" lon="8.547734">
<ele>346.6</ele>
<time>2003-05-19T13:39:45Z</time>
<speed>0.6</speed>
</trkpt>
<trkpt lat="47.566589" lon="8.547674">
<ele>345.6</ele>
<time>2003-05-19T13:39:50Z</time>
<speed>0.3</speed>
</trkpt>
<trkpt lat="47.566630" lon="8.547626">
<ele>346.8</ele>
<time>2003-05-19T13:39:55Z</time>
<speed>0.8</speed>
</trkpt>
<trkpt lat="47.566678" lon="8.547594">
<ele>346.0</ele>
<time>2003-05-19T13:40:00Z</time>
<speed>0.3</speed>
</trkpt>
<trkpt lat="47.566691" lon="8.547581">
<ele>347.4</ele>
<time>2003-05-19T13:40:05Z</time>
<speed>0.6</speed>
</trkpt>
<trkpt lat="47.566725" lon="8.547561">
<ele>346.7</ele>
<time>2003-05-19T13:40:10Z</time>
<speed>0.6</speed>
</trkpt>
<trkpt lat="47.566778" lon="8.547529">
<ele>346.7</ele>
<time>2003-05-19T13:40:15Z</time>
<speed>0.8</speed>
</trkpt>
<trkpt lat="47.566832" lon="8.547500">
<ele>345.3</ele>
<time>2003-05-19T13:40:20Z</time>
<speed>0.6</speed>
</trkpt>
<trkpt lat="47.566859" lon="8.547490">
<ele>345.3</ele>
<time>2003-05-19T13:40:25Z</time>
<speed>0.3</speed>
</trkpt>
<trkpt lat="47.566885" lon="8.547481">
<ele>345.3</ele>
<time>2003-05-19T13:40:30Z</time>
<speed>0.6</speed>
</trkpt>
<trkpt lat="47.566910" lon="8.547485">
<ele>345.5</ele>
<time>2003-05-19T13:40:35Z</time>
<speed>0.3</speed>
</trkpt>
<trkpt lat="47.566916" lon="8.547485">
<ele>346.2</ele>
<time>2003-05-19T13:40:40Z</time>
<speed>0.3</speed>
</trkpt>
<trkpt lat="47.566950" lon="8.547465">
<ele>345.5</ele>
<time>2003-05-19T13:40:45Z</time>
<speed>0.3</speed>
</trkpt>
<trkpt lat="47.566997" lon="8.547431">
<ele>346.1</ele>
<time>2003-05-19T13:40:50Z</time>
<speed>0.3</speed>
</trkpt>
<trkpt lat="47.567047" lon="8.547439">
<ele>346.4</ele>
<time>2003-05-19T13:40:55Z</time>
<speed>0.3</speed>
</trkpt>
<trkpt lat="47.567067" lon="8.547428">
<ele>347.1</ele>
<time>2003-05-19T13:41:00Z</time>
<speed>0.3</speed>
</trkpt>
<trkpt lat="47.567107" lon="8.547408">
<ele>347.1</ele>
<time>2003-05-19T13:41:05Z</time>
<speed>0.8</speed>
</trkpt>
<trkpt lat="47.567153" lon="8.547387">
<ele>347.9</ele>
<time>2003-05-19T13:41:10Z</time>
<speed>0.3</speed>
</trkpt>
<trkpt lat="47.567193" lon="8.547367">
<ele>347.9</ele>
<time>2003-05-19T13:41:15Z</time>
<speed>0.6</speed>
</trkpt>
<trkpt lat="47.567232" lon="8.547345">
<ele>349.3</ele>
<time>2003-05-19T13:41:20Z</time>
<speed>0.6</speed>
</trkpt>
<trkpt lat="47.567258" lon="8.547333">
<ele>350.8</ele>
<time>2003-05-19T13:41:25Z</time>
<speed>0.6</speed>
</trkpt>
<trkpt lat="47.567285" lon="8.547311">
<ele>350.7</ele>
<time>2003-05-19T13:41:30Z</time>
<speed>0.3</speed>
</trkpt>
<trkpt lat="47.567327" lon="8.547264">
<ele>350.5</ele>
<time>2003-05-19T13:41:35Z</time>
<speed>0.6</speed>
</trkpt>
<trkpt lat="47.567349" lon="8.547227">
<ele>351.0</ele>
<time>2003-05-19T13:41:40Z</time>
<speed>0.3</speed>
</trkpt>
<trkpt lat="47.567362" lon="8.547231">
<ele>349.7</ele>
<time>2003-05-19T13:41:45Z</time>
<speed>0.0</speed>
</trkpt>
<trkpt lat="47.567402" lon="8.547211">
<ele>349.7</ele>
<time>2003-05-19T13:41:50Z</time>
<speed>0.3</speed>
</trkpt>
<trkpt lat="47.567433" lon="8.547215">
<ele>350.6</ele>
<time>2003-05-19T13:41:55Z</time>
<speed>0.6</speed>
</trkpt>
<trkpt lat="47.567476" lon="8.547234">
<ele>351.6</ele>
<time>2003-05-19T13:42:00Z</time>
<speed>0.6</speed>
</trkpt>
<trkpt lat="47.567510" lon="8.547198">
<ele>352.2</ele>
<time>2003-05-19T13:42:05Z</time>
<speed>0.6</speed>
</trkpt>
<trkpt lat="47.567547" lon="8.547138">
<ele>351.2</ele>
<time>2003-05-19T13:42:10Z</time>
<speed>0.3</speed>
</trkpt>
<trkpt lat="47.567567" lon="8.547127">
<ele>351.9</ele>
<time>2003-05-19T13:42:15Z</time>
<speed>0.3</speed>
</trkpt>
<trkpt lat="47.567604" lon="8.547131">
<ele>353.5</ele>
<time>2003-05-19T13:42:20Z</time>
<speed>0.6</speed>
</trkpt>
<trkpt lat="47.567651" lon="8.547100">
<ele>352.8</ele>
<time>2003-05-19T13:42:25Z</time>
<speed>0.8</speed>
</trkpt>
<trkpt lat="47.567699" lon="8.547068">
<ele>352.0</ele>
<time>2003-05-19T13:42:30Z</time>
<speed>0.6</speed>
</trkpt>
<trkpt lat="47.567711" lon="8.547068">
<ele>353.5</ele>
<time>2003-05-19T13:42:35Z</time>
<speed>0.3</speed>
</trkpt>
<trkpt lat="47.567726" lon="8.547029">
<ele>354.7</ele>
<time>2003-05-19T13:42:40Z</time>
<speed>0.6</speed>
</trkpt>
<trkpt lat="47.567772" lon="8.547008">
<ele>355.4</ele>
<time>2003-05-19T13:42:45Z</time>
<speed>0.6</speed>
</trkpt>
<trkpt lat="47.567819" lon="8.546973">
<ele>357.5</ele>
<time>2003-05-19T13:42:50Z</time>
<speed>0.8</speed>
</trkpt>
<trkpt lat="47.567843" lon="8.546896">
<ele>357.7</ele>
<time>2003-05-19T13:42:55Z</time>
<speed>0.8</speed>
</trkpt>
<trkpt lat="47.567861" lon="8.546817">
<ele>358.5</ele>
<time>2003-05-19T13:43:00Z</time>
<speed>0.3</speed>
</trkpt>
<trkpt lat="47.567903" lon="8.546786">
<ele>357.0</ele>
<time>2003-05-19T13:43:05Z</time>
<speed>0.8</speed>
</trkpt>
<trkpt lat="47.567938" lon="8.546737">
<ele>357.5</ele>
<time>2003-05-19T13:43:10Z</time>
<speed>0.3</speed>
</trkpt>
<trkpt lat="47.567971" lon="8.546730">
<ele>356.9</ele>
<time>2003-05-19T13:43:15Z</time>
<speed>0.6</speed>
</trkpt>
<trkpt lat="47.568004" lon="8.546692">
<ele>358.9</ele>
<time>2003-05-19T13:43:20Z</time>
<speed>0.8</speed>
</trkpt>
<trkpt lat="47.568065" lon="8.546650">
<ele>358.1</ele>
<time>2003-05-19T13:43:25Z</time>
<speed>0.6</speed>
</trkpt>
<trkpt lat="47.568093" lon="8.546612">
<ele>359.3</ele>
<time>2003-05-19T13:43:30Z</time>
<speed>0.6</speed>
</trkpt>
<trkpt lat="47.568120" lon="8.546590">
<ele>359.3</ele>
<time>2003-05-19T13:43:35Z</time>
<speed>0.8</speed>
</trkpt>
<trkpt lat="47.568148" lon="8.546489">
<ele>357.9</ele>
<time>2003-05-19T13:43:40Z</time>
<speed>0.8</speed>
</trkpt>
<trkpt lat="47.568190" lon="8.546429">
<ele>357.6</ele>
<time>2003-05-19T13:43:45Z</time>
<speed>0.6</speed>
</trkpt>
<trkpt lat="47.568239" lon="8.546384">
<ele>356.7</ele>
<time>2003-05-19T13:43:50Z</time>
<speed>0.6</speed>
</trkpt>
<trkpt lat="47.568265" lon="8.546375">
<ele>356.8</ele>
<time>2003-05-19T13:43:55Z</time>
<speed>0.3</speed>
</trkpt>
<trkpt lat="47.568326" lon="8.546332">
<ele>356.0</ele>
<time>2003-05-19T13:44:00Z</time>
<speed>1.1</speed>
</trkpt>
<trkpt lat="47.568368" lon="8.546286">
<ele>355.8</ele>
<time>2003-05-19T13:44:05Z</time>
<speed>0.8</speed>
</trkpt>
<trkpt lat="47.568434" lon="8.546256">
<ele>355.9</ele>
<time>2003-05-19T13:44:10Z</time>
<speed>1.1</speed>
</trkpt>
<trkpt lat="47.568497" lon="8.546202">
<ele>353.6</ele>
<time>2003-05-19T13:44:15Z</time>
<speed>0.6</speed>
</trkpt>
<trkpt lat="47.568536" lon="8.546182">
<ele>353.6</ele>
<time>2003-05-19T13:44:20Z</time>
<speed>0.3</speed>
</trkpt>
<trkpt lat="47.568589" lon="8.546164">
<ele>353.7</ele>
<time>2003-05-19T13:44:25Z</time>
<speed>0.3</speed>
</trkpt>
<trkpt lat="47.568629" lon="8.546143">
<ele>353.7</ele>
<time>2003-05-19T13:44:30Z</time>
<speed>0.6</speed>
</trkpt>
<trkpt lat="47.568677" lon="8.546097">
<ele>354.2</ele>
<time>2003-05-19T13:44:35Z</time>
<speed>0.3</speed>
</trkpt>
<trkpt lat="47.568711" lon="8.546063">
<ele>353.4</ele>
<time>2003-05-19T13:44:40Z</time>
<speed>0.3</speed>
</trkpt>
<trkpt lat="47.568754" lon="8.546003">
<ele>353.1</ele>
<time>2003-05-19T13:44:45Z</time>
<speed>0.6</speed>
</trkpt>
<trkpt lat="47.568783" lon="8.545953">
<ele>354.3</ele>
<time>2003-05-19T13:44:50Z</time>
<speed>0.0</speed>
</trkpt>
<trkpt lat="47.568836" lon="8.545934">
<ele>354.3</ele>
<time>2003-05-19T13:44:55Z</time>
<speed>0.6</speed>
</trkpt>
<trkpt lat="47.568889" lon="8.545901">
<ele>355.7</ele>
<time>2003-05-19T13:45:00Z</time>
<speed>0.3</speed>
</trkpt>
<trkpt lat="47.568942" lon="8.545869">
<ele>355.7</ele>
<time>2003-05-19T13:45:05Z</time>
<speed>0.6</speed>
</trkpt>
<trkpt lat="47.568992" lon="8.545875">
<ele>357.4</ele>
<time>2003-05-19T13:45:10Z</time>
<speed>0.6</speed>
</trkpt>
<trkpt lat="47.569053" lon="8.545831">
<ele>358.0</ele>
<time>2003-05-19T13:45:15Z</time>
<speed>0.3</speed>
</trkpt>
<trkpt lat="47.569095" lon="8.545769">
<ele>359.1</ele>
<time>2003-05-19T13:45:20Z</time>
<speed>0.6</speed>
</trkpt>
<trkpt lat="47.569146" lon="8.545683">
<ele>359.4</ele>
<time>2003-05-19T13:45:25Z</time>
<speed>0.6</speed>
</trkpt>
<trkpt lat="47.569185" lon="8.545581">
<ele>359.5</ele>
<time>2003-05-19T13:45:30Z</time>
<speed>0.6</speed>
</trkpt>
<trkpt lat="47.569225" lon="8.545467">
<ele>359.4</ele>
<time>2003-05-19T13:45:35Z</time>
<speed>0.8</speed>
</trkpt>
<trkpt lat="47.569270" lon="8.545379">
<ele>360.4</ele>
<time>2003-05-19T13:45:40Z</time>
<speed>0.6</speed>
</trkpt>
<trkpt lat="47.569295" lon="8.545289">
<ele>360.5</ele>
<time>2003-05-19T13:45:45Z</time>
<speed>0.8</speed>
</trkpt>
<trkpt lat="47.569338" lon="8.545229">
<ele>360.2</ele>
<time>2003-05-19T13:45:50Z</time>
<speed>0.6</speed>
</trkpt>
<trkpt lat="47.569349" lon="8.545164">
<ele>360.4</ele>
<time>2003-05-19T13:45:55Z</time>
<speed>0.6</speed>
</trkpt>
<trkpt lat="47.569399" lon="8.545091">
<ele>360.8</ele>
<time>2003-05-19T13:46:00Z</time>
<speed>0.6</speed>
</trkpt>
<trkpt lat="47.569434" lon="8.545042">
<ele>361.2</ele>
<time>2003-05-19T13:46:05Z</time>
<speed>0.6</speed>
</trkpt>
<trkpt lat="47.569469" lon="8.544993">
<ele>361.7</ele>
<time>2003-05-19T13:46:10Z</time>
<speed>0.6</speed>
</trkpt>
<trkpt lat="47.569494" lon="8.544917">
<ele>361.9</ele>
<time>2003-05-19T13:46:15Z</time>
<speed>0.6</speed>
</trkpt>
<trkpt lat="47.569519" lon="8.544840">
<ele>362.1</ele>
<time>2003-05-19T13:46:20Z</time>
<speed>0.6</speed>
</trkpt>
<trkpt lat="47.569550" lon="8.544765">
<ele>361.7</ele>
<time>2003-05-19T13:46:25Z</time>
<speed>0.8</speed>
</trkpt>
<trkpt lat="47.569599" lon="8.544705">
<ele>362.1</ele>
<time>2003-05-19T13:46:30Z</time>
<speed>0.8</speed>
</trkpt>
<trkpt lat="47.569636" lon="8.544645">
<ele>361.1</ele>
<time>2003-05-19T13:46:35Z</time>
<speed>0.8</speed>
</trkpt>
<trkpt lat="47.569669" lon="8.544544">
<ele>360.4</ele>
<time>2003-05-19T13:46:40Z</time>
<speed>0.6</speed>
</trkpt>
<trkpt lat="47.569713" lon="8.544456">
<ele>361.4</ele>
<time>2003-05-19T13:46:45Z</time>
<speed>0.6</speed>
</trkpt>
<trkpt lat="47.569758" lon="8.544372">
<ele>359.5</ele>
<time>2003-05-19T13:46:50Z</time>
<speed>0.8</speed>
</trkpt>
<trkpt lat="47.569795" lon="8.544310">
<ele>359.8</ele>
<time>2003-05-19T13:46:55Z</time>
<speed>0.8</speed>
</trkpt>
<trkpt lat="47.569845" lon="8.544239">
<ele>358.8</ele>
<time>2003-05-19T13:47:00Z</time>
<speed>0.6</speed>
</trkpt>
<trkpt lat="47.569900" lon="8.544181">
<ele>358.6</ele>
<time>2003-05-19T13:47:05Z</time>
<speed>0.3</speed>
</trkpt>
<trkpt lat="47.569948" lon="8.544135">
<ele>359.1</ele>
<time>2003-05-19T13:47:10Z</time>
<speed>0.6</speed>
</trkpt>
<trkpt lat="47.569998" lon="8.544060">
<ele>360.9</ele>
<time>2003-05-19T13:47:15Z</time>
<speed>0.6</speed>
</trkpt>
<trkpt lat="47.570026" lon="8.544009">
<ele>362.0</ele>
<time>2003-05-19T13:47:20Z</time>
<speed>0.6</speed>
</trkpt>
<trkpt lat="47.570086" lon="8.543980">
<ele>361.3</ele>
<time>2003-05-19T13:47:25Z</time>
<speed>0.6</speed>
</trkpt>
<trkpt lat="47.570135" lon="8.543920">
<ele>361.8</ele>
<time>2003-05-19T13:47:30Z</time>
<speed>0.6</speed>
</trkpt>
<trkpt lat="47.570192" lon="8.543849">
<ele>361.5</ele>
<time>2003-05-19T13:47:35Z</time>
<speed>0.6</speed>
</trkpt>
<trkpt lat="47.570243" lon="8.543765">
<ele>360.3</ele>
<time>2003-05-19T13:47:40Z</time>
<speed>0.6</speed>
</trkpt>
<trkpt lat="47.570320" lon="8.543685">
<ele>359.3</ele>
<time>2003-05-19T13:47:45Z</time>
<speed>0.8</speed>
</trkpt>
<trkpt lat="47.570363" lon="8.543625">
<ele>359.0</ele>
<time>2003-05-19T13:47:50Z</time>
<speed>0.6</speed>
</trkpt>
<trkpt lat="47.570412" lon="8.543565">
<ele>359.5</ele>
<time>2003-05-19T13:47:55Z</time>
<speed>1.1</speed>
</trkpt>
<trkpt lat="47.570447" lon="8.543518">
<ele>358.5</ele>
<time>2003-05-19T13:48:00Z</time>
<speed>0.6</speed>
</trkpt>
<trkpt lat="47.570469" lon="8.543483">
<ele>357.6</ele>
<time>2003-05-19T13:48:05Z</time>
<speed>0.6</speed>
</trkpt>
<trkpt lat="47.570509" lon="8.543463">
<ele>357.6</ele>
<time>2003-05-19T13:48:10Z</time>
<speed>0.3</speed>
</trkpt>
<trkpt lat="47.570550" lon="8.543429">
<ele>357.6</ele>
<time>2003-05-19T13:48:15Z</time>
<speed>0.3</speed>
</trkpt>
<trkpt lat="47.570591" lon="8.543396">
<ele>357.5</ele>
<time>2003-05-19T13:48:20Z</time>
<speed>0.6</speed>
</trkpt>
<trkpt lat="47.570676" lon="8.543291">
<ele>355.6</ele>
<time>2003-05-19T13:48:25Z</time>
<speed>1.1</speed>
</trkpt>
<trkpt lat="47.570739" lon="8.543222">
<ele>354.6</ele>
<time>2003-05-19T13:48:30Z</time>
<speed>0.6</speed>
</trkpt>
<trkpt lat="47.570770" lon="8.543147">
<ele>354.1</ele>
<time>2003-05-19T13:48:35Z</time>
<speed>0.8</speed>
</trkpt>
<trkpt lat="47.570824" lon="8.543037">
<ele>352.8</ele>
<time>2003-05-19T13:48:40Z</time>
<speed>1.4</speed>
</trkpt>
<trkpt lat="47.570845" lon="8.542921">
<ele>352.0</ele>
<time>2003-05-19T13:48:45Z</time>
<speed>1.1</speed>
</trkpt>
<trkpt lat="47.570840" lon="8.542812">
<ele>352.5</ele>
<time>2003-05-19T13:48:50Z</time>
<speed>1.1</speed>
</trkpt>
<trkpt lat="47.570872" lon="8.542723">
<ele>351.9</ele>
<time>2003-05-19T13:48:55Z</time>
<speed>1.1</speed>
</trkpt>
<trkpt lat="47.570903" lon="8.542649">
<ele>351.5</ele>
<time>2003-05-19T13:49:00Z</time>
<speed>1.1</speed>
</trkpt>
<trkpt lat="47.570947" lon="8.542576">
<ele>351.1</ele>
<time>2003-05-19T13:49:05Z</time>
<speed>1.1</speed>
</trkpt>
<trkpt lat="47.570978" lon="8.542499">
<ele>352.0</ele>
<time>2003-05-19T13:49:10Z</time>
<speed>0.8</speed>
</trkpt>
<trkpt lat="47.571008" lon="8.542437">
<ele>351.7</ele>
<time>2003-05-19T13:49:15Z</time>
<speed>0.8</speed>
</trkpt>
<trkpt lat="47.571052" lon="8.542364">
<ele>351.3</ele>
<time>2003-05-19T13:49:20Z</time>
<speed>1.1</speed>
</trkpt>
<trkpt lat="47.571103" lon="8.542278">
<ele>351.5</ele>
<time>2003-05-19T13:49:25Z</time>
<speed>1.1</speed>
</trkpt>
<trkpt lat="47.571159" lon="8.542207">
<ele>351.2</ele>
<time>2003-05-19T13:49:30Z</time>
<speed>1.4</speed>
</trkpt>
<trkpt lat="47.571203" lon="8.542134">
<ele>350.8</ele>
<time>2003-05-19T13:49:35Z</time>
<speed>0.8</speed>
</trkpt>
<trkpt lat="47.571247" lon="8.542061">
<ele>350.4</ele>
<time>2003-05-19T13:49:40Z</time>
<speed>1.4</speed>
</trkpt>
<trkpt lat="47.571283" lon="8.541999">
<ele>350.8</ele>
<time>2003-05-19T13:49:45Z</time>
<speed>1.1</speed>
</trkpt>
<trkpt lat="47.571339" lon="8.541942">
<ele>350.6</ele>
<time>2003-05-19T13:49:50Z</time>
<speed>0.8</speed>
</trkpt>
<trkpt lat="47.571376" lon="8.541869">
<ele>349.5</ele>
<time>2003-05-19T13:49:55Z</time>
<speed>1.1</speed>
</trkpt>
<trkpt lat="47.571402" lon="8.541779">
<ele>349.6</ele>
<time>2003-05-19T13:50:00Z</time>
<speed>0.8</speed>
</trkpt>
<trkpt lat="47.571435" lon="8.541677">
<ele>348.9</ele>
<time>2003-05-19T13:50:05Z</time>
<speed>1.1</speed>
</trkpt>
<trkpt lat="47.571480" lon="8.541593">
<ele>347.0</ele>
<time>2003-05-19T13:50:10Z</time>
<speed>1.1</speed>
</trkpt>
<trkpt lat="47.571505" lon="8.541516">
<ele>347.2</ele>
<time>2003-05-19T13:50:15Z</time>
<speed>1.1</speed>
</trkpt>
<trkpt lat="47.571551" lon="8.541419">
<ele>345.2</ele>
<time>2003-05-19T13:50:20Z</time>
<speed>1.1</speed>
</trkpt>
<trkpt lat="47.571552" lon="8.541310">
<ele>346.5</ele>
<time>2003-05-19T13:50:25Z</time>
<speed>1.1</speed>
</trkpt>
<trkpt lat="47.571545" lon="8.541227">
<ele>347.2</ele>
<time>2003-05-19T13:50:30Z</time>
<speed>1.1</speed>
</trkpt>
<trkpt lat="47.571559" lon="8.541122">
<ele>347.2</ele>
<time>2003-05-19T13:50:35Z</time>
<speed>0.8</speed>
</trkpt>
<trkpt lat="47.571546" lon="8.541024">
<ele>348.5</ele>
<time>2003-05-19T13:50:40Z</time>
<speed>1.1</speed>
</trkpt>
<trkpt lat="47.571553" lon="8.540932">
<ele>347.8</ele>
<time>2003-05-19T13:50:45Z</time>
<speed>0.8</speed>
</trkpt>
<trkpt lat="47.571586" lon="8.540831">
<ele>347.1</ele>
<time>2003-05-19T13:50:50Z</time>
<speed>1.1</speed>
</trkpt>
<trkpt lat="47.571605" lon="8.540739">
<ele>347.9</ele>
<time>2003-05-19T13:50:55Z</time>
<speed>0.8</speed>
</trkpt>
<trkpt lat="47.571637" lon="8.540649">
<ele>348.7</ele>
<time>2003-05-19T13:51:00Z</time>
<speed>0.8</speed>
</trkpt>
<trkpt lat="47.571670" lon="8.540548">
<ele>348.1</ele>
<time>2003-05-19T13:51:05Z</time>
<speed>1.1</speed>
</trkpt>
<trkpt lat="47.571683" lon="8.540456">
<ele>348.1</ele>
<time>2003-05-19T13:51:10Z</time>
<speed>1.1</speed>
</trkpt>
<trkpt lat="47.571676" lon="8.540375">
<ele>347.4</ele>
<time>2003-05-19T13:51:15Z</time>
<speed>0.6</speed>
</trkpt>
<trkpt lat="47.571689" lon="8.540283">
<ele>347.5</ele>
<time>2003-05-19T13:51:20Z</time>
<speed>0.8</speed>
</trkpt>
<trkpt lat="47.571715" lon="8.540193">
<ele>347.6</ele>
<time>2003-05-19T13:51:25Z</time>
<speed>0.8</speed>
</trkpt>
<trkpt lat="47.571739" lon="8.540116">
<ele>347.8</ele>
<time>2003-05-19T13:51:30Z</time>
<speed>0.6</speed>
</trkpt>
<trkpt lat="47.571761" lon="8.540081">
<ele>346.9</ele>
<time>2003-05-19T13:51:35Z</time>
<speed>0.8</speed>
</trkpt>
<trkpt lat="47.571811" lon="8.540023">
<ele>345.9</ele>
<time>2003-05-19T13:51:40Z</time>
<speed>0.6</speed>
</trkpt>
<trkpt lat="47.571840" lon="8.539974">
<ele>345.7</ele>
<time>2003-05-19T13:51:45Z</time>
<speed>0.6</speed>
</trkpt>
<trkpt lat="47.571884" lon="8.539901">
<ele>345.3</ele>
<time>2003-05-19T13:51:50Z</time>
<speed>1.1</speed>
</trkpt>
<trkpt lat="47.571932" lon="8.539778">
<ele>343.1</ele>
<time>2003-05-19T13:51:55Z</time>
<speed>1.1</speed>
</trkpt>
<trkpt lat="47.571965" lon="8.539677">
<ele>342.4</ele>
<time>2003-05-19T13:52:00Z</time>
<speed>1.4</speed>
</trkpt>
<trkpt lat="47.571973" lon="8.539571">
<ele>341.6</ele>
<time>2003-05-19T13:52:05Z</time>
<speed>1.1</speed>
</trkpt>
<trkpt lat="47.572000" lon="8.539468">
<ele>341.7</ele>
<time>2003-05-19T13:52:10Z</time>
<speed>1.1</speed>
</trkpt>
<trkpt lat="47.572033" lon="8.539352">
<ele>342.3</ele>
<time>2003-05-19T13:52:15Z</time>
<speed>1.1</speed>
</trkpt>
<trkpt lat="47.572073" lon="8.539251">
<ele>342.4</ele>
<time>2003-05-19T13:52:20Z</time>
<speed>0.8</speed>
</trkpt>
<trkpt lat="47.572117" lon="8.539165">
<ele>341.9</ele>
<time>2003-05-19T13:52:25Z</time>
<speed>1.1</speed>
</trkpt>
<trkpt lat="47.572150" lon="8.539077">
<ele>341.3</ele>
<time>2003-05-19T13:52:30Z</time>
<speed>1.1</speed>
</trkpt>
<trkpt lat="47.572188" lon="8.538989">
<ele>341.5</ele>
<time>2003-05-19T13:52:35Z</time>
<speed>1.1</speed>
</trkpt>
<trkpt lat="47.572220" lon="8.538899">
<ele>342.4</ele>
<time>2003-05-19T13:52:40Z</time>
<speed>0.8</speed>
</trkpt>
<trkpt lat="47.572252" lon="8.538810">
<ele>341.8</ele>
<time>2003-05-19T13:52:45Z</time>
<speed>1.4</speed>
</trkpt>
<trkpt lat="47.572276" lon="8.538734">
<ele>342.0</ele>
<time>2003-05-19T13:52:50Z</time>
<speed>0.8</speed>
</trkpt>
<trkpt lat="47.572314" lon="8.538659">
<ele>342.3</ele>
<time>2003-05-19T13:52:55Z</time>
<speed>0.8</speed>
</trkpt>
<trkpt lat="47.572357" lon="8.538601">
<ele>340.6</ele>
<time>2003-05-19T13:53:00Z</time>
<speed>0.8</speed>
</trkpt>
<trkpt lat="47.572389" lon="8.538511">
<ele>341.4</ele>
<time>2003-05-19T13:53:05Z</time>
<speed>1.1</speed>
</trkpt>
<trkpt lat="47.572428" lon="8.538410">
<ele>341.5</ele>
<time>2003-05-19T13:53:10Z</time>
<speed>1.1</speed>
</trkpt>
<trkpt lat="47.572473" lon="8.538308">
<ele>342.3</ele>
<time>2003-05-19T13:53:15Z</time>
<speed>0.8</speed>
</trkpt>
<trkpt lat="47.572504" lon="8.538234">
<ele>341.9</ele>
<time>2003-05-19T13:53:20Z</time>
<speed>0.6</speed>
</trkpt>
<trkpt lat="47.572523" lon="8.538142">
<ele>342.6</ele>
<time>2003-05-19T13:53:25Z</time>
<speed>0.8</speed>
</trkpt>
<trkpt lat="47.572556" lon="8.538040">
<ele>342.0</ele>
<time>2003-05-19T13:53:30Z</time>
<speed>0.8</speed>
</trkpt>
<trkpt lat="47.572602" lon="8.537941">
<ele>341.4</ele>
<time>2003-05-19T13:53:35Z</time>
<speed>1.1</speed>
</trkpt>
<trkpt lat="47.572622" lon="8.537836">
<ele>342.1</ele>
<time>2003-05-19T13:53:40Z</time>
<speed>1.1</speed>
</trkpt>
<trkpt lat="47.572643" lon="8.537733">
<ele>341.3</ele>
<time>2003-05-19T13:53:45Z</time>
<speed>1.1</speed>
</trkpt>
<trkpt lat="47.572662" lon="8.537643">
<ele>340.7</ele>
<time>2003-05-19T13:53:50Z</time>
<speed>1.1</speed>
</trkpt>
<trkpt lat="47.572689" lon="8.537540">
<ele>340.7</ele>
<time>2003-05-19T13:53:55Z</time>
<speed>1.4</speed>
</trkpt>
<trkpt lat="47.572709" lon="8.537436">
<ele>340.0</ele>
<time>2003-05-19T13:54:00Z</time>
<speed>1.1</speed>
</trkpt>
<trkpt lat="47.572735" lon="8.537346">
<ele>340.1</ele>
<time>2003-05-19T13:54:05Z</time>
<speed>1.4</speed>
</trkpt>
<trkpt lat="47.572741" lon="8.537268">
<ele>339.5</ele>
<time>2003-05-19T13:54:10Z</time>
<speed>1.1</speed>
</trkpt>
<trkpt lat="47.572766" lon="8.537178">
<ele>339.6</ele>
<time>2003-05-19T13:54:15Z</time>
<speed>1.1</speed>
</trkpt>
<trkpt lat="47.572773" lon="8.537084">
<ele>340.3</ele>
<time>2003-05-19T13:54:20Z</time>
<speed>1.1</speed>
</trkpt>
<trkpt lat="47.572798" lon="8.536994">
<ele>340.4</ele>
<time>2003-05-19T13:54:25Z</time>
<speed>1.1</speed>
</trkpt>
<trkpt lat="47.572825" lon="8.536905">
<ele>339.1</ele>
<time>2003-05-19T13:54:30Z</time>
<speed>1.1</speed>
</trkpt>
<trkpt lat="47.572845" lon="8.536800">
<ele>339.8</ele>
<time>2003-05-19T13:54:35Z</time>
<speed>1.1</speed>
</trkpt>
<trkpt lat="47.572862" lon="8.536735">
<ele>340.8</ele>
<time>2003-05-19T13:54:40Z</time>
<speed>0.8</speed>
</trkpt>
<trkpt lat="47.572880" lon="8.536658">
<ele>340.2</ele>
<time>2003-05-19T13:54:45Z</time>
<speed>0.8</speed>
</trkpt>
<trkpt lat="47.572894" lon="8.536553">
<ele>340.2</ele>
<time>2003-05-19T13:54:50Z</time>
<speed>1.1</speed>
</trkpt>
<trkpt lat="47.572919" lon="8.536476">
<ele>340.4</ele>
<time>2003-05-19T13:54:55Z</time>
<speed>0.8</speed>
</trkpt>
<trkpt lat="47.572938" lon="8.536386">
<ele>339.8</ele>
<time>2003-05-19T13:55:00Z</time>
<speed>1.4</speed>
</trkpt>
<trkpt lat="47.572959" lon="8.536282">
<ele>339.0</ele>
<time>2003-05-19T13:55:05Z</time>
<speed>1.1</speed>
</trkpt>
<trkpt lat="47.572984" lon="8.536192">
<ele>339.1</ele>
<time>2003-05-19T13:55:10Z</time>
<speed>1.1</speed>
</trkpt>
<trkpt lat="47.573010" lon="8.536102">
<ele>339.2</ele>
<time>2003-05-19T13:55:15Z</time>
<speed>1.1</speed>
</trkpt>
<trkpt lat="47.573055" lon="8.536016">
<ele>338.8</ele>
<time>2003-05-19T13:55:20Z</time>
<speed>1.4</speed>
</trkpt>
<trkpt lat="47.573087" lon="8.535913">
<ele>339.5</ele>
<time>2003-05-19T13:55:25Z</time>
<speed>1.1</speed>
</trkpt>
<trkpt lat="47.573126" lon="8.535825">
<ele>339.7</ele>
<time>2003-05-19T13:55:30Z</time>
<speed>1.4</speed>
</trkpt>
<trkpt lat="47.573145" lon="8.535733">
<ele>340.5</ele>
<time>2003-05-19T13:55:35Z</time>
<speed>1.4</speed>
</trkpt>
<trkpt lat="47.573171" lon="8.535630">
<ele>340.5</ele>
<time>2003-05-19T13:55:40Z</time>
<speed>1.1</speed>
</trkpt>
<trkpt lat="47.573184" lon="8.535553">
<ele>339.2</ele>
<time>2003-05-19T13:55:45Z</time>
<speed>1.1</speed>
</trkpt>
<trkpt lat="47.573216" lon="8.535465">
<ele>338.6</ele>
<time>2003-05-19T13:55:50Z</time>
<speed>1.1</speed>
</trkpt>
<trkpt lat="47.573235" lon="8.535373">
<ele>339.4</ele>
<time>2003-05-19T13:55:55Z</time>
<speed>1.1</speed>
</trkpt>
<trkpt lat="47.573254" lon="8.535283">
<ele>338.8</ele>
<time>2003-05-19T13:56:00Z</time>
<speed>1.1</speed>
</trkpt>
<trkpt lat="47.573274" lon="8.535193">
<ele>338.1</ele>
<time>2003-05-19T13:56:05Z</time>
<speed>1.1</speed>
</trkpt>
<trkpt lat="47.573293" lon="8.535101">
<ele>338.9</ele>
<time>2003-05-19T13:56:10Z</time>
<speed>0.8</speed>
</trkpt>
<trkpt lat="47.573292" lon="8.535020">
<ele>339.0</ele>
<time>2003-05-19T13:56:15Z</time>
<speed>1.1</speed>
</trkpt>
<trkpt lat="47.573292" lon="8.534939">
<ele>339.1</ele>
<time>2003-05-19T13:56:20Z</time>
<speed>0.8</speed>
</trkpt>
<trkpt lat="47.573310" lon="8.534862">
<ele>338.5</ele>
<time>2003-05-19T13:56:25Z</time>
<speed>0.8</speed>
</trkpt>
<trkpt lat="47.573336" lon="8.534772">
<ele>338.6</ele>
<time>2003-05-19T13:56:30Z</time>
<speed>0.8</speed>
</trkpt>
<trkpt lat="47.573364" lon="8.534658">
<ele>337.1</ele>
<time>2003-05-19T13:56:35Z</time>
<speed>1.1</speed>
</trkpt>
<trkpt lat="47.573371" lon="8.534566">
<ele>336.4</ele>
<time>2003-05-19T13:56:40Z</time>
<speed>1.1</speed>
</trkpt>
<trkpt lat="47.573397" lon="8.534463">
<ele>336.4</ele>
<time>2003-05-19T13:56:45Z</time>
<speed>1.1</speed>
</trkpt>
<trkpt lat="47.573429" lon="8.534373">
<ele>337.3</ele>
<time>2003-05-19T13:56:50Z</time>
<speed>1.1</speed>
</trkpt>
<trkpt lat="47.573460" lon="8.534298">
<ele>336.8</ele>
<time>2003-05-19T13:56:55Z</time>
<speed>0.8</speed>
</trkpt>
<trkpt lat="47.573491" lon="8.534223">
<ele>336.4</ele>
<time>2003-05-19T13:57:00Z</time>
<speed>0.8</speed>
</trkpt>
<trkpt lat="47.573517" lon="8.534133">
<ele>336.5</ele>
<time>2003-05-19T13:57:05Z</time>
<speed>1.4</speed>
</trkpt>
<trkpt lat="47.573543" lon="8.534045">
<ele>335.2</ele>
<time>2003-05-19T13:57:10Z</time>
<speed>1.1</speed>
</trkpt>
<trkpt lat="47.573561" lon="8.533966">
<ele>336.1</ele>
<time>2003-05-19T13:57:15Z</time>
<speed>0.8</speed>
</trkpt>
<trkpt lat="47.573586" lon="8.533891">
<ele>334.9</ele>
<time>2003-05-19T13:57:20Z</time>
<speed>1.1</speed>
</trkpt>
<trkpt lat="47.573612" lon="8.533801">
<ele>335.0</ele>
<time>2003-05-19T13:57:25Z</time>
<speed>1.1</speed>
</trkpt>
<trkpt lat="47.573630" lon="8.533724">
<ele>334.4</ele>
<time>2003-05-19T13:57:30Z</time>
<speed>1.1</speed>
</trkpt>
<trkpt lat="47.573656" lon="8.533634">
<ele>334.6</ele>
<time>2003-05-19T13:57:35Z</time>
<speed>1.1</speed>
</trkpt>
<trkpt lat="47.573683" lon="8.533531">
<ele>334.6</ele>
<time>2003-05-19T13:57:40Z</time>
<speed>1.1</speed>
</trkpt>
<trkpt lat="47.573708" lon="8.533439">
<ele>336.1</ele>
<time>2003-05-19T13:57:45Z</time>
<speed>1.1</speed>
</trkpt>
<trkpt lat="47.573726" lon="8.533360">
<ele>336.9</ele>
<time>2003-05-19T13:57:50Z</time>
<speed>0.8</speed>
</trkpt>
<trkpt lat="47.573726" lon="8.533266">
<ele>336.9</ele>
<time>2003-05-19T13:57:55Z</time>
<speed>1.4</speed>
</trkpt>
<trkpt lat="47.573746" lon="8.533161">
<ele>337.6</ele>
<time>2003-05-19T13:58:00Z</time>
<speed>1.4</speed>
</trkpt>
<trkpt lat="47.573760" lon="8.533056">
<ele>337.5</ele>
<time>2003-05-19T13:58:05Z</time>
<speed>1.4</speed>
</trkpt>
<trkpt lat="47.573773" lon="8.532962">
<ele>339.0</ele>
<time>2003-05-19T13:58:10Z</time>
<speed>1.1</speed>
</trkpt>
<trkpt lat="47.573778" lon="8.532883">
<ele>338.4</ele>
<time>2003-05-19T13:58:15Z</time>
<speed>1.1</speed>
</trkpt>
<trkpt lat="47.573785" lon="8.532791">
<ele>337.7</ele>
<time>2003-05-19T13:58:20Z</time>
<speed>0.8</speed>
</trkpt>
<trkpt lat="47.573810" lon="8.532714">
<ele>337.9</ele>
<time>2003-05-19T13:58:25Z</time>
<speed>0.8</speed>
</trkpt>
<trkpt lat="47.573840" lon="8.532652">
<ele>337.5</ele>
<time>2003-05-19T13:58:30Z</time>
<speed>0.8</speed>
</trkpt>
<trkpt lat="47.573875" lon="8.532604">
<ele>338.0</ele>
<time>2003-05-19T13:58:35Z</time>
<speed>0.8</speed>
</trkpt>
<trkpt lat="47.573910" lon="8.532570">
<ele>337.2</ele>
<time>2003-05-19T13:58:40Z</time>
<speed>0.8</speed>
</trkpt>
<trkpt lat="47.573950" lon="8.532550">
<ele>337.2</ele>
<time>2003-05-19T13:58:45Z</time>
<speed>0.8</speed>
</trkpt>
<trkpt lat="47.574006" lon="8.532479">
<ele>336.9</ele>
<time>2003-05-19T13:58:50Z</time>
<speed>0.8</speed>
</trkpt>
<trkpt lat="47.574034" lon="8.532378">
<ele>335.5</ele>
<time>2003-05-19T13:58:55Z</time>
<speed>0.6</speed>
</trkpt>
<trkpt lat="47.574061" lon="8.532276">
<ele>334.1</ele>
<time>2003-05-19T13:59:00Z</time>
<speed>0.8</speed>
</trkpt>
<trkpt lat="47.574085" lon="8.532198">
<ele>335.7</ele>
<time>2003-05-19T13:59:05Z</time>
<speed>0.8</speed>
</trkpt>
<trkpt lat="47.574122" lon="8.532123">
<ele>336.0</ele>
<time>2003-05-19T13:59:10Z</time>
<speed>0.6</speed>
</trkpt>
<trkpt lat="47.574131" lon="8.532083">
<ele>336.4</ele>
<time>2003-05-19T13:59:15Z</time>
<speed>0.6</speed>
</trkpt>
<trkpt lat="47.574136" lon="8.532018">
<ele>335.9</ele>
<time>2003-05-19T13:59:20Z</time>
<speed>0.6</speed>
</trkpt>
<trkpt lat="47.574174" lon="8.531851">
<ele>334.7</ele>
<time>2003-05-19T13:59:25Z</time>
<speed>0.8</speed>
</trkpt>
<trkpt lat="47.574187" lon="8.531759">
<ele>334.8</ele>
<time>2003-05-19T13:59:30Z</time>
<speed>0.6</speed>
</trkpt>
<trkpt lat="47.574230" lon="8.531684">
<ele>335.8</ele>
<time>2003-05-19T13:59:35Z</time>
<speed>0.3</speed>
</trkpt>
<trkpt lat="47.574233" lon="8.531642">
<ele>336.9</ele>
<time>2003-05-19T13:59:40Z</time>
<speed>0.3</speed>
</trkpt>
<trkpt lat="47.574250" lon="8.531579">
<ele>336.5</ele>
<time>2003-05-19T13:59:45Z</time>
<speed>0.6</speed>
</trkpt>
<trkpt lat="47.574283" lon="8.531477">
<ele>335.8</ele>
<time>2003-05-19T13:59:50Z</time>
<speed>0.8</speed>
</trkpt>
<trkpt lat="47.574288" lon="8.531331">
<ele>335.4</ele>
<time>2003-05-19T13:59:55Z</time>
<speed>1.1</speed>
</trkpt>
<trkpt lat="47.574309" lon="8.531212">
<ele>336.0</ele>
<time>2003-05-19T14:00:00Z</time>
<speed>1.1</speed>
</trkpt>
<trkpt lat="47.574335" lon="8.531107">
<ele>337.4</ele>
<time>2003-05-19T14:00:05Z</time>
<speed>1.1</speed>
</trkpt>
<trkpt lat="47.574361" lon="8.531002">
<ele>338.8</ele>
<time>2003-05-19T14:00:10Z</time>
<speed>1.1</speed>
</trkpt>
<trkpt lat="47.574373" lon="8.530908">
<ele>340.2</ele>
<time>2003-05-19T14:00:15Z</time>
<speed>0.8</speed>
</trkpt>
<trkpt lat="47.574384" lon="8.530841">
<ele>341.9</ele>
<time>2003-05-19T14:00:20Z</time>
<speed>0.8</speed>
</trkpt>
<trkpt lat="47.574407" lon="8.530775">
<ele>343.6</ele>
<time>2003-05-19T14:00:25Z</time>
<speed>0.8</speed>
</trkpt>
<trkpt lat="47.574434" lon="8.530672">
<ele>343.6</ele>
<time>2003-05-19T14:00:30Z</time>
<speed>0.8</speed>
</trkpt>
<trkpt lat="47.574404" lon="8.530624">
<ele>345.2</ele>
<time>2003-05-19T14:00:35Z</time>
<speed>0.3</speed>
</trkpt>
<trkpt lat="47.574400" lon="8.530596">
<ele>345.7</ele>
<time>2003-05-19T14:00:40Z</time>
<speed>0.3</speed>
</trkpt>
<trkpt lat="47.574422" lon="8.530545">
<ele>346.1</ele>
<time>2003-05-19T14:00:45Z</time>
<speed>0.6</speed>
</trkpt>
<trkpt lat="47.574429" lon="8.530451">
<ele>346.8</ele>
<time>2003-05-19T14:00:50Z</time>
<speed>0.6</speed>
</trkpt>
<trkpt lat="47.574443" lon="8.530331">
<ele>348.1</ele>
<time>2003-05-19T14:00:55Z</time>
<speed>0.6</speed>
</trkpt>
<trkpt lat="47.574482" lon="8.530134">
<ele>349.5</ele>
<time>2003-05-19T14:01:00Z</time>
<speed>1.4</speed>
</trkpt>
<trkpt lat="47.574518" lon="8.529991">
<ele>349.9</ele>
<time>2003-05-19T14:01:05Z</time>
<speed>1.1</speed>
</trkpt>
<trkpt lat="47.574543" lon="8.529901">
<ele>350.1</ele>
<time>2003-05-19T14:01:10Z</time>
<speed>0.8</speed>
</trkpt>
<trkpt lat="47.574555" lon="8.529823">
<ele>350.2</ele>
<time>2003-05-19T14:01:15Z</time>
<speed>0.8</speed>
</trkpt>
<trkpt lat="47.574559" lon="8.529768">
<ele>351.2</ele>
<time>2003-05-19T14:01:20Z</time>
<speed>0.6</speed>
</trkpt>
<trkpt lat="47.574557" lon="8.529698">
<ele>352.8</ele>
<time>2003-05-19T14:01:25Z</time>
<speed>0.6</speed>
</trkpt>
<trkpt lat="47.574593" lon="8.529637">
<ele>353.2</ele>
<time>2003-05-19T14:01:30Z</time>
<speed>0.8</speed>
</trkpt>
<trkpt lat="47.574645" lon="8.529539">
<ele>351.9</ele>
<time>2003-05-19T14:01:35Z</time>
<speed>0.6</speed>
</trkpt>
<trkpt lat="47.574709" lon="8.529440">
<ele>353.5</ele>
<time>2003-05-19T14:01:40Z</time>
<speed>0.8</speed>
</trkpt>
<trkpt lat="47.574730" lon="8.529337">
<ele>352.8</ele>
<time>2003-05-19T14:01:45Z</time>
<speed>0.8</speed>
</trkpt>
<trkpt lat="47.574760" lon="8.529275">
<ele>352.4</ele>
<time>2003-05-19T14:01:50Z</time>
<speed>0.8</speed>
</trkpt>
<trkpt lat="47.574777" lon="8.529211">
<ele>352.0</ele>
<time>2003-05-19T14:01:55Z</time>
<speed>1.1</speed>
</trkpt>
<trkpt lat="47.574786" lon="8.529172">
<ele>352.4</ele>
<time>2003-05-19T14:02:00Z</time>
<speed>0.6</speed>
</trkpt>
<trkpt lat="47.574809" lon="8.529121">
<ele>352.9</ele>
<time>2003-05-19T14:02:05Z</time>
<speed>0.3</speed>
</trkpt>
<trkpt lat="47.574841" lon="8.529033">
<ele>352.3</ele>
<time>2003-05-19T14:02:10Z</time>
<speed>0.8</speed>
</trkpt>
<trkpt lat="47.574881" lon="8.528919">
<ele>352.3</ele>
<time>2003-05-19T14:02:15Z</time>
<speed>0.8</speed>
</trkpt>
<trkpt lat="47.574934" lon="8.528807">
<ele>352.3</ele>
<time>2003-05-19T14:02:20Z</time>
<speed>0.8</speed>
</trkpt>
<trkpt lat="47.574954" lon="8.528717">
<ele>351.7</ele>
<time>2003-05-19T14:02:25Z</time>
<speed>0.8</speed>
</trkpt>
<trkpt lat="47.574978" lon="8.528640">
<ele>351.9</ele>
<time>2003-05-19T14:02:30Z</time>
<speed>1.1</speed>
</trkpt>
<trkpt lat="47.575026" lon="8.528608">
<ele>351.2</ele>
<time>2003-05-19T14:02:35Z</time>
<speed>1.1</speed>
</trkpt>
<trkpt lat="47.575038" lon="8.528529">
<ele>351.3</ele>
<time>2003-05-19T14:02:40Z</time>
<speed>0.8</speed>
</trkpt>
<trkpt lat="47.575069" lon="8.528454">
<ele>350.8</ele>
<time>2003-05-19T14:02:45Z</time>
<speed>1.1</speed>
</trkpt>
<trkpt lat="47.575095" lon="8.528366">
<ele>349.5</ele>
<time>2003-05-19T14:02:50Z</time>
<speed>1.1</speed>
</trkpt>
<trkpt lat="47.575107" lon="8.528287">
<ele>349.7</ele>
<time>2003-05-19T14:02:55Z</time>
<speed>1.1</speed>
</trkpt>
<trkpt lat="47.575126" lon="8.528210">
<ele>349.1</ele>
<time>2003-05-19T14:03:00Z</time>
<speed>0.8</speed>
</trkpt>
<trkpt lat="47.575157" lon="8.528136">
<ele>348.7</ele>
<time>2003-05-19T14:03:05Z</time>
<speed>0.8</speed>
</trkpt>
<trkpt lat="47.575180" lon="8.528072">
<ele>349.0</ele>
<time>2003-05-19T14:03:10Z</time>
<speed>1.1</speed>
</trkpt>
<trkpt lat="47.575193" lon="8.527980">
<ele>349.0</ele>
<time>2003-05-19T14:03:15Z</time>
<speed>0.8</speed>
</trkpt>
<trkpt lat="47.575213" lon="8.527875">
<ele>349.7</ele>
<time>2003-05-19T14:03:20Z</time>
<speed>0.8</speed>
</trkpt>
<trkpt lat="47.575239" lon="8.527769">
<ele>351.1</ele>
<time>2003-05-19T14:03:25Z</time>
<speed>1.4</speed>
</trkpt>
<trkpt lat="47.575259" lon="8.527664">
<ele>351.8</ele>
<time>2003-05-19T14:03:30Z</time>
<speed>1.4</speed>
</trkpt>
<trkpt lat="47.575269" lon="8.527612">
<ele>352.1</ele>
<time>2003-05-19T14:03:35Z</time>
<speed>0.8</speed>
</trkpt>
<trkpt lat="47.575291" lon="8.527574">
<ele>352.6</ele>
<time>2003-05-19T14:03:40Z</time>
<speed>0.8</speed>
</trkpt>
<trkpt lat="47.575339" lon="8.527530">
<ele>351.8</ele>
<time>2003-05-19T14:03:45Z</time>
<speed>1.1</speed>
</trkpt>
<trkpt lat="47.575370" lon="8.527453">
<ele>352.7</ele>
<time>2003-05-19T14:03:50Z</time>
<speed>0.8</speed>
</trkpt>
<trkpt lat="47.575397" lon="8.527350">
<ele>352.7</ele>
<time>2003-05-19T14:03:55Z</time>
<speed>1.1</speed>
</trkpt>
<trkpt lat="47.575422" lon="8.527260">
<ele>352.9</ele>
<time>2003-05-19T14:04:00Z</time>
<speed>0.8</speed>
</trkpt>
<trkpt lat="47.575445" lon="8.527130">
<ele>351.9</ele>
<time>2003-05-19T14:04:05Z</time>
<speed>1.4</speed>
</trkpt>
<trkpt lat="47.575460" lon="8.527012">
<ele>351.8</ele>
<time>2003-05-19T14:04:10Z</time>
<speed>1.1</speed>
</trkpt>
<trkpt lat="47.575474" lon="8.526907">
<ele>351.7</ele>
<time>2003-05-19T14:04:15Z</time>
<speed>1.1</speed>
</trkpt>
<trkpt lat="47.575493" lon="8.526815">
<ele>352.5</ele>
<time>2003-05-19T14:04:20Z</time>
<speed>1.4</speed>
</trkpt>
<trkpt lat="47.575507" lon="8.526709">
<ele>352.4</ele>
<time>2003-05-19T14:04:25Z</time>
<speed>1.1</speed>
</trkpt>
<trkpt lat="47.575507" lon="8.526615">
<ele>352.4</ele>
<time>2003-05-19T14:04:30Z</time>
<speed>1.4</speed>
</trkpt>
<trkpt lat="47.575513" lon="8.526521">
<ele>353.1</ele>
<time>2003-05-19T14:04:35Z</time>
<speed>1.1</speed>
</trkpt>
<trkpt lat="47.575539" lon="8.526416">
<ele>354.5</ele>
<time>2003-05-19T14:04:40Z</time>
<speed>1.4</speed>
</trkpt>
<trkpt lat="47.575565" lon="8.526326">
<ele>354.6</ele>
<time>2003-05-19T14:04:45Z</time>
<speed>0.8</speed>
</trkpt>
<trkpt lat="47.575565" lon="8.526247">
<ele>353.3</ele>
<time>2003-05-19T14:04:50Z</time>
<speed>1.1</speed>
</trkpt>
<trkpt lat="47.575566" lon="8.526155">
<ele>351.8</ele>
<time>2003-05-19T14:04:55Z</time>
<speed>1.4</speed>
</trkpt>
<trkpt lat="47.575567" lon="8.526050">
<ele>350.3</ele>
<time>2003-05-19T14:05:00Z</time>
<speed>1.1</speed>
</trkpt>
<trkpt lat="47.575582" lon="8.525932">
<ele>350.1</ele>
<time>2003-05-19T14:05:05Z</time>
<speed>1.1</speed>
</trkpt>
<trkpt lat="47.575601" lon="8.525840">
<ele>350.9</ele>
<time>2003-05-19T14:05:10Z</time>
<speed>1.4</speed>
</trkpt>
<trkpt lat="47.575601" lon="8.525759">
<ele>351.0</ele>
<time>2003-05-19T14:05:15Z</time>
<speed>0.8</speed>
</trkpt>
<trkpt lat="47.575618" lon="8.525695">
<ele>350.5</ele>
<time>2003-05-19T14:05:20Z</time>
<speed>0.8</speed>
</trkpt>
<trkpt lat="47.575632" lon="8.525669">
<ele>351.8</ele>
<time>2003-05-19T14:05:25Z</time>
<speed>0.6</speed>
</trkpt>
<trkpt lat="47.575681" lon="8.525609">
<ele>352.3</ele>
<time>2003-05-19T14:05:30Z</time>
<speed>1.1</speed>
</trkpt>
<trkpt lat="47.575725" lon="8.525536">
<ele>351.9</ele>
<time>2003-05-19T14:05:35Z</time>
<speed>1.4</speed>
</trkpt>
<trkpt lat="47.575751" lon="8.525446">
<ele>352.0</ele>
<time>2003-05-19T14:05:40Z</time>
<speed>0.8</speed>
</trkpt>
<trkpt lat="47.575778" lon="8.525345">
<ele>350.6</ele>
<time>2003-05-19T14:05:45Z</time>
<speed>1.1</speed>
</trkpt>
<trkpt lat="47.575810" lon="8.525242">
<ele>351.4</ele>
<time>2003-05-19T14:05:50Z</time>
<speed>1.1</speed>
</trkpt>
<trkpt lat="47.575833" lon="8.525191">
<ele>351.8</ele>
<time>2003-05-19T14:05:55Z</time>
<speed>0.6</speed>
</trkpt>
<trkpt lat="47.575853" lon="8.525101">
<ele>351.1</ele>
<time>2003-05-19T14:06:00Z</time>
<speed>0.8</speed>
</trkpt>
<trkpt lat="47.575834" lon="8.525003">
<ele>351.7</ele>
<time>2003-05-19T14:06:05Z</time>
<speed>0.6</speed>
</trkpt>
<trkpt lat="47.575797" lon="8.524890">
<ele>351.3</ele>
<time>2003-05-19T14:06:10Z</time>
<speed>0.8</speed>
</trkpt>
<trkpt lat="47.575785" lon="8.524794">
<ele>351.2</ele>
<time>2003-05-19T14:06:15Z</time>
<speed>1.1</speed>
</trkpt>
<trkpt lat="47.575791" lon="8.524715">
<ele>350.6</ele>
<time>2003-05-19T14:06:20Z</time>
<speed>0.8</speed>
</trkpt>
<trkpt lat="47.575797" lon="8.524621">
<ele>351.3</ele>
<time>2003-05-19T14:06:25Z</time>
<speed>1.1</speed>
</trkpt>
<trkpt lat="47.575880" lon="8.524447">
<ele>351.0</ele>
<time>2003-05-19T14:06:30Z</time>
<speed>1.4</speed>
</trkpt>
<trkpt lat="47.575888" lon="8.524327">
<ele>351.5</ele>
<time>2003-05-19T14:06:35Z</time>
<speed>1.4</speed>
</trkpt>
<trkpt lat="47.575909" lon="8.524207">
<ele>353.5</ele>
<time>2003-05-19T14:06:40Z</time>
<speed>1.1</speed>
</trkpt>
<trkpt lat="47.575921" lon="8.524113">
<ele>355.0</ele>
<time>2003-05-19T14:06:45Z</time>
<speed>0.8</speed>
</trkpt>
<trkpt lat="47.575933" lon="8.524017">
<ele>357.8</ele>
<time>2003-05-19T14:06:50Z</time>
<speed>1.1</speed>
</trkpt>
<trkpt lat="47.575942" lon="8.523977">
<ele>358.3</ele>
<time>2003-05-19T14:06:55Z</time>
<speed>0.6</speed>
</trkpt>
<trkpt lat="47.575960" lon="8.523914">
<ele>357.8</ele>
<time>2003-05-19T14:07:00Z</time>
<speed>0.8</speed>
</trkpt>
<trkpt lat="47.575980" lon="8.523809">
<ele>358.5</ele>
<time>2003-05-19T14:07:05Z</time>
<speed>1.1</speed>
</trkpt>
<trkpt lat="47.575997" lon="8.523745">
<ele>358.1</ele>
<time>2003-05-19T14:07:10Z</time>
<speed>0.8</speed>
</trkpt>
<trkpt lat="47.576026" lon="8.523711">
<ele>356.5</ele>
<time>2003-05-19T14:07:15Z</time>
<speed>1.1</speed>
</trkpt>
<trkpt lat="47.576055" lon="8.523646">
<ele>359.0</ele>
<time>2003-05-19T14:07:20Z</time>
<speed>0.8</speed>
</trkpt>
<trkpt lat="47.576078" lon="8.523593">
<ele>360.8</ele>
<time>2003-05-19T14:07:25Z</time>
<speed>0.6</speed>
</trkpt>
<trkpt lat="47.576115" lon="8.523518">
<ele>361.1</ele>
<time>2003-05-19T14:07:30Z</time>
<speed>1.1</speed>
</trkpt>
<trkpt lat="47.576138" lon="8.523469">
<ele>360.1</ele>
<time>2003-05-19T14:07:35Z</time>
<speed>0.8</speed>
</trkpt>
<trkpt lat="47.576160" lon="8.523432">
<ele>360.6</ele>
<time>2003-05-19T14:07:40Z</time>
<speed>0.6</speed>
</trkpt>
<trkpt lat="47.576196" lon="8.523372">
<ele>359.6</ele>
<time>2003-05-19T14:07:45Z</time>
<speed>1.1</speed>
</trkpt>
<trkpt lat="47.576237" lon="8.523245">
<ele>359.4</ele>
<time>2003-05-19T14:07:50Z</time>
<speed>1.4</speed>
</trkpt>
<trkpt lat="47.576280" lon="8.523104">
<ele>359.2</ele>
<time>2003-05-19T14:07:55Z</time>
<speed>1.1</speed>
</trkpt>
<trkpt lat="47.576304" lon="8.523027">
<ele>359.4</ele>
<time>2003-05-19T14:08:00Z</time>
<speed>0.8</speed>
</trkpt>
<trkpt lat="47.576316" lon="8.522948">
<ele>359.6</ele>
<time>2003-05-19T14:08:05Z</time>
<speed>0.8</speed>
</trkpt>
<trkpt lat="47.576326" lon="8.522815">
<ele>360.0</ele>
<time>2003-05-19T14:08:10Z</time>
<speed>0.8</speed>
</trkpt>
<trkpt lat="47.576349" lon="8.522657">
<ele>360.2</ele>
<time>2003-05-19T14:08:15Z</time>
<speed>0.8</speed>
</trkpt>
<trkpt lat="47.576342" lon="8.522574">
<ele>361.0</ele>
<time>2003-05-19T14:08:20Z</time>
<speed>0.8</speed>
</trkpt>
<trkpt lat="47.576368" lon="8.522469">
<ele>362.4</ele>
<time>2003-05-19T14:08:25Z</time>
<speed>0.8</speed>
</trkpt>
<trkpt lat="47.576370" lon="8.522347">
<ele>363.6</ele>
<time>2003-05-19T14:08:30Z</time>
<speed>1.1</speed>
</trkpt>
<trkpt lat="47.576343" lon="8.522273">
<ele>365.0</ele>
<time>2003-05-19T14:08:35Z</time>
<speed>0.6</speed>
</trkpt>
<trkpt lat="47.576273" lon="8.522279">
<ele>362.6</ele>
<time>2003-05-19T14:08:40Z</time>
<speed>0.6</speed>
</trkpt>
<trkpt lat="47.576206" lon="8.522242">
<ele>361.3</ele>
<time>2003-05-19T14:08:45Z</time>
<speed>0.6</speed>
</trkpt>
<trkpt lat="47.576153" lon="8.522182">
<ele>359.9</ele>
<time>2003-05-19T14:08:50Z</time>
<speed>1.4</speed>
</trkpt>
<trkpt lat="47.576093" lon="8.522133">
<ele>359.2</ele>
<time>2003-05-19T14:08:55Z</time>
<speed>0.6</speed>
</trkpt>
<trkpt lat="47.576032" lon="8.522098">
<ele>357.3</ele>
<time>2003-05-19T14:09:00Z</time>
<speed>1.1</speed>
</trkpt>
<trkpt lat="47.575977" lon="8.522077">
<ele>356.1</ele>
<time>2003-05-19T14:09:05Z</time>
<speed>0.8</speed>
</trkpt>
<trkpt lat="47.575915" lon="8.522056">
<ele>354.3</ele>
<time>2003-05-19T14:09:10Z</time>
<speed>0.6</speed>
</trkpt>
<trkpt lat="47.575824" lon="8.522005">
<ele>351.3</ele>
<time>2003-05-19T14:09:15Z</time>
<speed>0.8</speed>
</trkpt>
<trkpt lat="47.575762" lon="8.521984">
<ele>349.5</ele>
<time>2003-05-19T14:09:20Z</time>
<speed>0.0</speed>
</trkpt>
<trkpt lat="47.575694" lon="8.521961">
<ele>348.3</ele>
<time>2003-05-19T14:09:25Z</time>
<speed>1.1</speed>
</trkpt>
<trkpt lat="47.575618" lon="8.521949">
<ele>347.9</ele>
<time>2003-05-19T14:09:30Z</time>
<speed>0.8</speed>
</trkpt>
<trkpt lat="47.575537" lon="8.521924">
<ele>346.6</ele>
<time>2003-05-19T14:09:35Z</time>
<speed>1.1</speed>
</trkpt>
<trkpt lat="47.575474" lon="8.521915">
<ele>346.2</ele>
<time>2003-05-19T14:09:40Z</time>
<speed>0.8</speed>
</trkpt>
<trkpt lat="47.575394" lon="8.521876">
<ele>344.9</ele>
<time>2003-05-19T14:09:45Z</time>
<speed>0.8</speed>
</trkpt>
<trkpt lat="47.575313" lon="8.521850">
<ele>345.0</ele>
<time>2003-05-19T14:09:50Z</time>
<speed>1.1</speed>
</trkpt>
<trkpt lat="47.575245" lon="8.521827">
<ele>343.8</ele>
<time>2003-05-19T14:09:55Z</time>
<speed>0.8</speed>
</trkpt>
<trkpt lat="47.575181" lon="8.521817">
<ele>343.5</ele>
<time>2003-05-19T14:10:00Z</time>
<speed>0.8</speed>
</trkpt>
<trkpt lat="47.575131" lon="8.521809">
<ele>343.2</ele>
<time>2003-05-19T14:10:05Z</time>
<speed>0.8</speed>
</trkpt>
<trkpt lat="47.575080" lon="8.521801">
<ele>342.9</ele>
<time>2003-05-19T14:10:10Z</time>
<speed>0.8</speed>
</trkpt>
<trkpt lat="47.575006" lon="8.521763">
<ele>342.3</ele>
<time>2003-05-19T14:10:15Z</time>
<speed>1.1</speed>
</trkpt>
<trkpt lat="47.574932" lon="8.521738">
<ele>341.8</ele>
<time>2003-05-19T14:10:20Z</time>
<speed>0.8</speed>
</trkpt>
<trkpt lat="47.574882" lon="8.521717">
<ele>341.4</ele>
<time>2003-05-19T14:10:25Z</time>
<speed>1.1</speed>
</trkpt>
<trkpt lat="47.574812" lon="8.521705">
<ele>341.7</ele>
<time>2003-05-19T14:10:30Z</time>
<speed>0.8</speed>
</trkpt>
<trkpt lat="47.574731" lon="8.521680">
<ele>340.4</ele>
<time>2003-05-19T14:10:35Z</time>
<speed>1.1</speed>
</trkpt>
<trkpt lat="47.574675" lon="8.521657">
<ele>340.7</ele>
<time>2003-05-19T14:10:40Z</time>
<speed>0.8</speed>
</trkpt>
<trkpt lat="47.574619" lon="8.521634">
<ele>341.0</ele>
<time>2003-05-19T14:10:45Z</time>
<speed>0.8</speed>
</trkpt>
<trkpt lat="47.574553" lon="8.521662">
<ele>342.3</ele>
<time>2003-05-19T14:10:50Z</time>
<speed>1.1</speed>
</trkpt>
<trkpt lat="47.574488" lon="8.521665">
<ele>342.1</ele>
<time>2003-05-19T14:10:55Z</time>
<speed>0.8</speed>
</trkpt>
<trkpt lat="47.574438" lon="8.521642">
<ele>343.1</ele>
<time>2003-05-19T14:11:00Z</time>
<speed>0.6</speed>
</trkpt>
<trkpt lat="47.574363" lon="8.521613">
<ele>345.4</ele>
<time>2003-05-19T14:11:05Z</time>
<speed>0.8</speed>
</trkpt>
<trkpt lat="47.574290" lon="8.521626">
<ele>347.3</ele>
<time>2003-05-19T14:11:10Z</time>
<speed>0.8</speed>
</trkpt>
<trkpt lat="47.574247" lon="8.521683">
<ele>349.0</ele>
<time>2003-05-19T14:11:15Z</time>
<speed>1.1</speed>
</trkpt>
<trkpt lat="47.574213" lon="8.521783">
<ele>351.1</ele>
<time>2003-05-19T14:11:20Z</time>
<speed>1.4</speed>
</trkpt>
<trkpt lat="47.574208" lon="8.521862">
<ele>351.7</ele>
<time>2003-05-19T14:11:25Z</time>
<speed>1.1</speed>
</trkpt>
<trkpt lat="47.574212" lon="8.521969">
<ele>352.5</ele>
<time>2003-05-19T14:11:30Z</time>
<speed>1.1</speed>
</trkpt>
<trkpt lat="47.574206" lon="8.522048">
<ele>353.1</ele>
<time>2003-05-19T14:11:35Z</time>
<speed>1.1</speed>
</trkpt>
<trkpt lat="47.574192" lon="8.522153">
<ele>353.2</ele>
<time>2003-05-19T14:11:40Z</time>
<speed>1.1</speed>
</trkpt>
<trkpt lat="47.574173" lon="8.522243">
<ele>353.8</ele>
<time>2003-05-19T14:11:45Z</time>
<speed>1.1</speed>
</trkpt>
<trkpt lat="47.574153" lon="8.522348">
<ele>353.1</ele>
<time>2003-05-19T14:11:50Z</time>
<speed>1.1</speed>
</trkpt>
<trkpt lat="47.574133" lon="8.522438">
<ele>353.8</ele>
<time>2003-05-19T14:11:55Z</time>
<speed>1.1</speed>
</trkpt>
<trkpt lat="47.574116" lon="8.522502">
<ele>354.2</ele>
<time>2003-05-19T14:12:00Z</time>
<speed>1.1</speed>
</trkpt>
<trkpt lat="47.574073" lon="8.522577">
<ele>353.2</ele>
<time>2003-05-19T14:12:05Z</time>
<speed>1.1</speed>
</trkpt>
<trkpt lat="47.574016" lon="8.522648">
<ele>353.5</ele>
<time>2003-05-19T14:12:10Z</time>
<speed>1.1</speed>
</trkpt>
<trkpt lat="47.573996" lon="8.522751">
<ele>354.2</ele>
<time>2003-05-19T14:12:15Z</time>
<speed>1.4</speed>
</trkpt>
<trkpt lat="47.573976" lon="8.522841">
<ele>354.9</ele>
<time>2003-05-19T14:12:20Z</time>
<speed>0.8</speed>
</trkpt>
<trkpt lat="47.573933" lon="8.522916">
<ele>353.8</ele>
<time>2003-05-19T14:12:25Z</time>
<speed>1.1</speed>
</trkpt>
<trkpt lat="47.573883" lon="8.522989">
<ele>353.5</ele>
<time>2003-05-19T14:12:30Z</time>
<speed>1.1</speed>
</trkpt>
<trkpt lat="47.573850" lon="8.523075">
<ele>355.5</ele>
<time>2003-05-19T14:12:35Z</time>
<speed>1.1</speed>
</trkpt>
<trkpt lat="47.573826" lon="8.523152">
<ele>355.2</ele>
<time>2003-05-19T14:12:40Z</time>
<speed>1.1</speed>
</trkpt>
<trkpt lat="47.573789" lon="8.523213">
<ele>354.9</ele>
<time>2003-05-19T14:12:45Z</time>
<speed>1.1</speed>
</trkpt>
<trkpt lat="47.573753" lon="8.523273">
<ele>355.9</ele>
<time>2003-05-19T14:12:50Z</time>
<speed>1.1</speed>
</trkpt>
<trkpt lat="47.573716" lon="8.523333">
<ele>356.9</ele>
<time>2003-05-19T14:12:55Z</time>
<speed>1.1</speed>
</trkpt>
<trkpt lat="47.573675" lon="8.523367">
<ele>357.0</ele>
<time>2003-05-19T14:13:00Z</time>
<speed>0.6</speed>
</trkpt>
<trkpt lat="47.573643" lon="8.523361">
<ele>357.5</ele>
<time>2003-05-19T14:13:05Z</time>
<speed>0.6</speed>
</trkpt>
<trkpt lat="47.573592" lon="8.523351">
<ele>358.6</ele>
<time>2003-05-19T14:13:10Z</time>
<speed>0.6</speed>
</trkpt>
<trkpt lat="47.573548" lon="8.523343">
<ele>359.1</ele>
<time>2003-05-19T14:13:15Z</time>
<speed>0.6</speed>
</trkpt>
<trkpt lat="47.573510" lon="8.523322">
<ele>360.2</ele>
<time>2003-05-19T14:13:20Z</time>
<speed>0.6</speed>
</trkpt>
<trkpt lat="47.573459" lon="8.523312">
<ele>361.3</ele>
<time>2003-05-19T14:13:25Z</time>
<speed>0.8</speed>
</trkpt>
<trkpt lat="47.573377" lon="8.523283">
<ele>362.9</ele>
<time>2003-05-19T14:13:30Z</time>
<speed>1.4</speed>
</trkpt>
<trkpt lat="47.573315" lon="8.523258">
<ele>363.8</ele>
<time>2003-05-19T14:13:35Z</time>
<speed>0.8</speed>
</trkpt>
<trkpt lat="47.573242" lon="8.523303">
<ele>361.7</ele>
<time>2003-05-19T14:13:40Z</time>
<speed>0.8</speed>
</trkpt>
<trkpt lat="47.573174" lon="8.523376">
<ele>359.1</ele>
<time>2003-05-19T14:13:45Z</time>
<speed>1.1</speed>
</trkpt>
<trkpt lat="47.573087" lon="8.523445">
<ele>357.2</ele>
<time>2003-05-19T14:13:50Z</time>
<speed>1.4</speed>
</trkpt>
<trkpt lat="47.573020" lon="8.523490">
<ele>355.8</ele>
<time>2003-05-19T14:13:55Z</time>
<speed>1.1</speed>
</trkpt>
<trkpt lat="47.572959" lon="8.523532">
<ele>356.6</ele>
<time>2003-05-19T14:14:00Z</time>
<speed>1.1</speed>
</trkpt>
<trkpt lat="47.572904" lon="8.523590">
<ele>356.8</ele>
<time>2003-05-19T14:14:05Z</time>
<speed>1.1</speed>
</trkpt>
<trkpt lat="47.572873" lon="8.523652">
<ele>357.2</ele>
<time>2003-05-19T14:14:10Z</time>
<speed>1.1</speed>
</trkpt>
<trkpt lat="47.572837" lon="8.523712">
<ele>358.2</ele>
<time>2003-05-19T14:14:15Z</time>
<speed>1.1</speed>
</trkpt>
<trkpt lat="47.572788" lon="8.523756">
<ele>359.1</ele>
<time>2003-05-19T14:14:20Z</time>
<speed>1.1</speed>
</trkpt>
<trkpt lat="47.572770" lon="8.523818">
<ele>360.9</ele>
<time>2003-05-19T14:14:25Z</time>
<speed>0.8</speed>
</trkpt>
<trkpt lat="47.572746" lon="8.523880">
<ele>362.0</ele>
<time>2003-05-19T14:14:30Z</time>
<speed>0.8</speed>
</trkpt>
<trkpt lat="47.572703" lon="8.523940">
<ele>362.3</ele>
<time>2003-05-19T14:14:35Z</time>
<speed>0.8</speed>
</trkpt>
<trkpt lat="47.572668" lon="8.523986">
<ele>363.2</ele>
<time>2003-05-19T14:14:40Z</time>
<speed>0.8</speed>
</trkpt>
<trkpt lat="47.572613" lon="8.524031">
<ele>363.3</ele>
<time>2003-05-19T14:14:45Z</time>
<speed>1.1</speed>
</trkpt>
<trkpt lat="47.572559" lon="8.524061">
<ele>364.7</ele>
<time>2003-05-19T14:14:50Z</time>
<speed>1.1</speed>
</trkpt>
<trkpt lat="47.572529" lon="8.524122">
<ele>365.1</ele>
<time>2003-05-19T14:14:55Z</time>
<speed>0.8</speed>
</trkpt>
<trkpt lat="47.572516" lon="8.524199">
<ele>366.4</ele>
<time>2003-05-19T14:15:00Z</time>
<speed>1.1</speed>
</trkpt>
<trkpt lat="47.572529" lon="8.524295">
<ele>366.5</ele>
<time>2003-05-19T14:15:05Z</time>
<speed>1.1</speed>
</trkpt>
<trkpt lat="47.572535" lon="8.524391">
<ele>365.8</ele>
<time>2003-05-19T14:15:10Z</time>
<speed>1.1</speed>
</trkpt>
<trkpt lat="47.572548" lon="8.524474">
<ele>365.8</ele>
<time>2003-05-19T14:15:15Z</time>
<speed>0.8</speed>
</trkpt>
<trkpt lat="47.572543" lon="8.524540">
<ele>366.3</ele>
<time>2003-05-19T14:15:20Z</time>
<speed>0.6</speed>
</trkpt>
<trkpt lat="47.572543" lon="8.524632">
<ele>367.8</ele>
<time>2003-05-19T14:15:25Z</time>
<speed>0.8</speed>
</trkpt>
<trkpt lat="47.572535" lon="8.524722">
<ele>369.9</ele>
<time>2003-05-19T14:15:30Z</time>
<speed>1.1</speed>
</trkpt>
<trkpt lat="47.572508" lon="8.524821">
<ele>372.7</ele>
<time>2003-05-19T14:15:35Z</time>
<speed>0.8</speed>
</trkpt>
<trkpt lat="47.572507" lon="8.524913">
<ele>374.1</ele>
<time>2003-05-19T14:15:40Z</time>
<speed>1.1</speed>
</trkpt>
<trkpt lat="47.572506" lon="8.525005">
<ele>375.6</ele>
<time>2003-05-19T14:15:45Z</time>
<speed>1.4</speed>
</trkpt>
<trkpt lat="47.572518" lon="8.525101">
<ele>375.7</ele>
<time>2003-05-19T14:15:50Z</time>
<speed>1.4</speed>
</trkpt>
<trkpt lat="47.572518" lon="8.525195">
<ele>375.7</ele>
<time>2003-05-19T14:15:55Z</time>
<speed>1.4</speed>
</trkpt>
<trkpt lat="47.572524" lon="8.525291">
<ele>375.1</ele>
<time>2003-05-19T14:16:00Z</time>
<speed>1.4</speed>
</trkpt>
<trkpt lat="47.572525" lon="8.525372">
<ele>375.0</ele>
<time>2003-05-19T14:16:05Z</time>
<speed>1.1</speed>
</trkpt>
<trkpt lat="47.572525" lon="8.525466">
<ele>375.0</ele>
<time>2003-05-19T14:16:10Z</time>
<speed>1.4</speed>
</trkpt>
<trkpt lat="47.572524" lon="8.525560">
<ele>375.1</ele>
<time>2003-05-19T14:16:15Z</time>
<speed>1.1</speed>
</trkpt>
<trkpt lat="47.572511" lon="8.525652">
<ele>375.0</ele>
<time>2003-05-19T14:16:20Z</time>
<speed>1.4</speed>
</trkpt>
<trkpt lat="47.572510" lon="8.525759">
<ele>375.2</ele>
<time>2003-05-19T14:16:25Z</time>
<speed>1.4</speed>
</trkpt>
<trkpt lat="47.572505" lon="8.525840">
<ele>374.3</ele>
<time>2003-05-19T14:16:30Z</time>
<speed>1.4</speed>
</trkpt>
<trkpt lat="47.572504" lon="8.525934">
<ele>374.4</ele>
<time>2003-05-19T14:16:35Z</time>
<speed>1.1</speed>
</trkpt>
<trkpt lat="47.572491" lon="8.526026">
<ele>374.3</ele>
<time>2003-05-19T14:16:40Z</time>
<speed>1.1</speed>
</trkpt>
<trkpt lat="47.572491" lon="8.526120">
<ele>374.4</ele>
<time>2003-05-19T14:16:45Z</time>
<speed>1.4</speed>
</trkpt>
<trkpt lat="47.572490" lon="8.526227">
<ele>374.5</ele>
<time>2003-05-19T14:16:50Z</time>
<speed>1.4</speed>
</trkpt>
<trkpt lat="47.572483" lon="8.526321">
<ele>373.8</ele>
<time>2003-05-19T14:16:55Z</time>
<speed>1.7</speed>
</trkpt>
<trkpt lat="47.572476" lon="8.526413">
<ele>374.5</ele>
<time>2003-05-19T14:17:00Z</time>
<speed>1.1</speed>
</trkpt>
<trkpt lat="47.572476" lon="8.526507">
<ele>374.5</ele>
<time>2003-05-19T14:17:05Z</time>
<speed>1.4</speed>
</trkpt>
<trkpt lat="47.572469" lon="8.526614">
<ele>373.9</ele>
<time>2003-05-19T14:17:10Z</time>
<speed>1.4</speed>
</trkpt>
<trkpt lat="47.572462" lon="8.526706">
<ele>374.6</ele>
<time>2003-05-19T14:17:15Z</time>
<speed>1.1</speed>
</trkpt>
<trkpt lat="47.572461" lon="8.526800">
<ele>374.7</ele>
<time>2003-05-19T14:17:20Z</time>
<speed>1.4</speed>
</trkpt>
<trkpt lat="47.572442" lon="8.526890">
<ele>375.3</ele>
<time>2003-05-19T14:17:25Z</time>
<speed>1.1</speed>
</trkpt>
<trkpt lat="47.572448" lon="8.526984">
<ele>376.1</ele>
<time>2003-05-19T14:17:30Z</time>
<speed>1.4</speed>
</trkpt>
<trkpt lat="47.572441" lon="8.527076">
<ele>376.8</ele>
<time>2003-05-19T14:17:35Z</time>
<speed>1.1</speed>
</trkpt>
<trkpt lat="47.572433" lon="8.527183">
<ele>376.2</ele>
<time>2003-05-19T14:17:40Z</time>
<speed>1.4</speed>
</trkpt>
<trkpt lat="47.572426" lon="8.527288">
<ele>377.0</ele>
<time>2003-05-19T14:17:45Z</time>
<speed>1.7</speed>
</trkpt>
<trkpt lat="47.572418" lon="8.527393">
<ele>377.8</ele>
<time>2003-05-19T14:17:50Z</time>
<speed>1.1</speed>
</trkpt>
<trkpt lat="47.572411" lon="8.527485">
<ele>378.5</ele>
<time>2003-05-19T14:17:55Z</time>
<speed>1.1</speed>
</trkpt>
<trkpt lat="47.572399" lon="8.527564">
<ele>378.3</ele>
<time>2003-05-19T14:18:00Z</time>
<speed>1.1</speed>
</trkpt>
<trkpt lat="47.572388" lon="8.527630">
<ele>378.1</ele>
<time>2003-05-19T14:18:05Z</time>
<speed>0.8</speed>
</trkpt>
<trkpt lat="47.572329" lon="8.527725">
<ele>380.0</ele>
<time>2003-05-19T14:18:10Z</time>
<speed>1.1</speed>
</trkpt>
<trkpt lat="47.572304" lon="8.527802">
<ele>379.8</ele>
<time>2003-05-19T14:18:15Z</time>
<speed>1.4</speed>
</trkpt>
<trkpt lat="47.572298" lon="8.527896">
<ele>379.1</ele>
<time>2003-05-19T14:18:20Z</time>
<speed>1.1</speed>
</trkpt>
<trkpt lat="47.572299" lon="8.527977">
<ele>379.0</ele>
<time>2003-05-19T14:18:25Z</time>
<speed>1.1</speed>
</trkpt>
<trkpt lat="47.572305" lon="8.528058">
<ele>379.7</ele>
<time>2003-05-19T14:18:30Z</time>
<speed>0.8</speed>
</trkpt>
<trkpt lat="47.572291" lon="8.528161">
<ele>381.2</ele>
<time>2003-05-19T14:18:35Z</time>
<speed>1.4</speed>
</trkpt>
<trkpt lat="47.572284" lon="8.528255">
<ele>380.5</ele>
<time>2003-05-19T14:18:40Z</time>
<speed>1.4</speed>
</trkpt>
<trkpt lat="47.572284" lon="8.528349">
<ele>380.5</ele>
<time>2003-05-19T14:18:45Z</time>
<speed>1.1</speed>
</trkpt>
<trkpt lat="47.572278" lon="8.528443">
<ele>379.8</ele>
<time>2003-05-19T14:18:50Z</time>
<speed>1.4</speed>
</trkpt>
<trkpt lat="47.572264" lon="8.528533">
<ele>381.2</ele>
<time>2003-05-19T14:18:55Z</time>
<speed>1.4</speed>
</trkpt>
<trkpt lat="47.572251" lon="8.528640">
<ele>379.8</ele>
<time>2003-05-19T14:19:00Z</time>
<speed>0.8</speed>
</trkpt>
<trkpt lat="47.572252" lon="8.528723">
<ele>378.3</ele>
<time>2003-05-19T14:19:05Z</time>
<speed>1.1</speed>
</trkpt>
</trkseg>
</trk>
</gpx>
